<?xml version='1.0' encoding='UTF-8'?><gpx version="1.1" creator="JPX - https://github.com/jenetics/jpx" xmlns="http://www.topografix.com/GPX/1/1"><trk><trkseg><trkpt lat="43.966315718923695" lon="12.758076790604875"><ele>9.0</ele><time>2026-04-25T07:31:46Z</time></trkpt><trkpt lat="43.966319967766275" lon="12.757953351795205"><ele>9.0</ele><time>2026-04-25T07:31:47Z</time></trkpt><trkpt lat="43.96637154619582" lon="12.757831351519007"><ele>9.0</ele><time>2026-04-25T07:31:48Z</time></trkpt><trkpt lat="43.966408994578465" lon="12.757695978302886"><ele>9.0</ele><time>2026-04-25T07:31:49Z</time></trkpt><trkpt lat="43.9664557986138" lon="12.757545317646636"><ele>9.0</ele><time>2026-04-25T07:31:50Z</time></trkpt><trkpt lat="43.966543692550715" lon="12.75741466422048"><ele>9.0</ele><time>2026-04-25T07:31:51Z</time></trkpt><trkpt lat="43.96658108933193" lon="12.757268649822244"><ele>9.0</ele><time>2026-04-25T07:31:52Z</time></trkpt><trkpt lat="43.966616439354915" lon="12.757123392268467"><ele>9.0</ele><time>2026-04-25T07:31:53Z</time></trkpt><trkpt lat="43.9666504429684" lon="12.756982846478486"><ele>9.0</ele><time>2026-04-25T07:31:54Z</time></trkpt><trkpt lat="43.966682534302755" lon="12.756849665308804"><ele>9.0</ele><time>2026-04-25T07:31:55Z</time></trkpt><trkpt lat="43.966709728705034" lon="12.756736806734361"><ele>8.166666666666666</ele><time>2026-04-25T07:31:56Z</time></trkpt><trkpt lat="43.96673654107657" lon="12.756636577218107"><ele>7.333333333333333</ele><time>2026-04-25T07:31:57Z</time></trkpt><trkpt lat="43.966769580114736" lon="12.756523234178665"><ele>6.5</ele><time>2026-04-25T07:31:58Z</time></trkpt><trkpt lat="43.96680034655967" lon="12.756388850930163"><ele>5.666666666666666</ele><time>2026-04-25T07:31:59Z</time></trkpt><trkpt lat="43.96681896868782" lon="12.756281131505508"><ele>4.833333333333333</ele><time>2026-04-25T07:32:00Z</time></trkpt><trkpt lat="43.96682367511912" lon="12.756180268576488"><ele>4.0</ele><time>2026-04-25T07:32:01Z</time></trkpt><trkpt lat="43.96677772663689" lon="12.7560845337461"><ele>4.6</ele><time>2026-04-25T07:32:02Z</time></trkpt><trkpt lat="43.96669119237218" lon="12.756026792159991"><ele>5.2</ele><time>2026-04-25T07:32:03Z</time></trkpt><trkpt lat="43.96660395884363" lon="12.755953568012687"><ele>5.799999999999999</ele><time>2026-04-25T07:32:04Z</time></trkpt><trkpt lat="43.96650459613826" lon="12.755876998634822"><ele>6.3999999999999995</ele><time>2026-04-25T07:32:05Z</time></trkpt><trkpt lat="43.96639089354659" lon="12.75579565512109"><ele>7.0</ele><time>2026-04-25T07:32:06Z</time></trkpt><trkpt lat="43.966276169563386" lon="12.755713792203897"><ele>7.0</ele><time>2026-04-25T07:32:07Z</time></trkpt><trkpt lat="43.96616325744035" lon="12.755618739984222"><ele>7.0</ele><time>2026-04-25T07:32:08Z</time></trkpt><trkpt lat="43.96605876236517" lon="12.75551915901244"><ele>7.0</ele><time>2026-04-25T07:32:09Z</time></trkpt><trkpt lat="43.96594662003238" lon="12.755429096292701"><ele>7.0</ele><time>2026-04-25T07:32:10Z</time></trkpt><trkpt lat="43.96585993671479" lon="12.755330991053023"><ele>7.199999999999999</ele><time>2026-04-25T07:32:11Z</time></trkpt><trkpt lat="43.96576200360795" lon="12.755247715123799"><ele>7.3999999999999995</ele><time>2026-04-25T07:32:12Z</time></trkpt><trkpt lat="43.96566604962659" lon="12.755165893916498"><ele>7.6000000000000005</ele><time>2026-04-25T07:32:13Z</time></trkpt><trkpt lat="43.965580943710926" lon="12.7550919770411"><ele>7.800000000000001</ele><time>2026-04-25T07:32:14Z</time></trkpt><trkpt lat="43.96551960804118" lon="12.755036108470696"><ele>8.0</ele><time>2026-04-25T07:32:15Z</time></trkpt><trkpt lat="43.96545176002743" lon="12.75497430802825"><ele>8.0</ele><time>2026-04-25T07:32:16Z</time></trkpt><trkpt lat="43.965397768223006" lon="12.754918524702399"><ele>8.0</ele><time>2026-04-25T07:32:18Z</time></trkpt><trkpt lat="43.96530631111639" lon="12.754838811032712"><ele>8.0</ele><time>2026-04-25T07:32:25Z</time></trkpt><trkpt lat="43.965242884438986" lon="12.754739234508687"><ele>8.0</ele><time>2026-04-25T07:32:26Z</time></trkpt><trkpt lat="43.96514937261873" lon="12.754622956902098"><ele>8.0</ele><time>2026-04-25T07:32:27Z</time></trkpt><trkpt lat="43.96506431966313" lon="12.754514525779399"><ele>7.499999999999999</ele><time>2026-04-25T07:32:28Z</time></trkpt><trkpt lat="43.964981855152466" lon="12.754405478643378"><ele>7.0</ele><time>2026-04-25T07:32:29Z</time></trkpt><trkpt lat="43.96491257157444" lon="12.754314014973149"><ele>6.5</ele><time>2026-04-25T07:32:30Z</time></trkpt><trkpt lat="43.96485074069849" lon="12.754237268628149"><ele>6.0</ele><time>2026-04-25T07:32:31Z</time></trkpt><trkpt lat="43.96479485466256" lon="12.754174384889977"><ele>5.5</ele><time>2026-04-25T07:32:32Z</time></trkpt><trkpt lat="43.964734516203855" lon="12.754115809834277"><ele>5.0</ele><time>2026-04-25T07:32:33Z</time></trkpt><trkpt lat="43.96467102574058" lon="12.75405735428975"><ele>4.6</ele><time>2026-04-25T07:32:34Z</time></trkpt><trkpt lat="43.96459848370684" lon="12.754001076977616"><ele>4.2</ele><time>2026-04-25T07:32:35Z</time></trkpt><trkpt lat="43.96452050112303" lon="12.753936795293395"><ele>3.8</ele><time>2026-04-25T07:32:36Z</time></trkpt><trkpt lat="43.964441944491575" lon="12.753867644614933"><ele>3.4</ele><time>2026-04-25T07:32:37Z</time></trkpt><trkpt lat="43.96435297289822" lon="12.753786790075328"><ele>3.0</ele><time>2026-04-25T07:32:38Z</time></trkpt><trkpt lat="43.96425336791008" lon="12.753706966090053"><ele>3.5999999999999996</ele><time>2026-04-25T07:32:39Z</time></trkpt><trkpt lat="43.96415435850468" lon="12.753628912611019"><ele>4.199999999999999</ele><time>2026-04-25T07:32:40Z</time></trkpt><trkpt lat="43.96406033832165" lon="12.753552916434993"><ele>4.8</ele><time>2026-04-25T07:32:41Z</time></trkpt><trkpt lat="43.96397080743763" lon="12.753477076238436"><ele>5.3999999999999995</ele><time>2026-04-25T07:32:42Z</time></trkpt><trkpt lat="43.96388313604739" lon="12.753394615676783"><ele>6.0</ele><time>2026-04-25T07:32:43Z</time></trkpt><trkpt lat="43.963793971741396" lon="12.75331017116395"><ele>6.333333333333333</ele><time>2026-04-25T07:32:44Z</time></trkpt><trkpt lat="43.96370740005032" lon="12.753233019913463"><ele>6.666666666666666</ele><time>2026-04-25T07:32:45Z</time></trkpt><trkpt lat="43.96362864572583" lon="12.75314219962326"><ele>7.0</ele><time>2026-04-25T07:32:46Z</time></trkpt><trkpt lat="43.96354531843842" lon="12.753067762731451"><ele>7.333333333333333</ele><time>2026-04-25T07:32:47Z</time></trkpt><trkpt lat="43.96348643146893" lon="12.75300732506271"><ele>7.666666666666666</ele><time>2026-04-25T07:32:48Z</time></trkpt><trkpt lat="43.96343998659232" lon="12.752947334673623"><ele>8.0</ele><time>2026-04-25T07:32:51Z</time></trkpt><trkpt lat="43.9633684108315" lon="12.7528930675959"><ele>8.25</ele><time>2026-04-25T07:32:55Z</time></trkpt><trkpt lat="43.96329246674832" lon="12.752829695040063"><ele>8.5</ele><time>2026-04-25T07:32:56Z</time></trkpt><trkpt lat="43.96320105056375" lon="12.75274610527184"><ele>8.75</ele><time>2026-04-25T07:32:57Z</time></trkpt><trkpt lat="43.96310026878635" lon="12.752650098289903"><ele>9.0</ele><time>2026-04-25T07:32:58Z</time></trkpt><trkpt lat="43.96298908667143" lon="12.752541075089376"><ele>9.0</ele><time>2026-04-25T07:32:59Z</time></trkpt><trkpt lat="43.96288493659521" lon="12.752437420457923"><ele>9.0</ele><time>2026-04-25T07:33:00Z</time></trkpt><trkpt lat="43.96278723620947" lon="12.752349573353435"><ele>9.0</ele><time>2026-04-25T07:33:01Z</time></trkpt><trkpt lat="43.96269447795671" lon="12.752288368119926"><ele>9.0</ele><time>2026-04-25T07:33:02Z</time></trkpt><trkpt lat="43.962600477064534" lon="12.752228522956537"><ele>9.25</ele><time>2026-04-25T07:33:03Z</time></trkpt><trkpt lat="43.96249983789902" lon="12.752157086689538"><ele>9.5</ele><time>2026-04-25T07:33:04Z</time></trkpt><trkpt lat="43.962403325527916" lon="12.752062936169754"><ele>9.75</ele><time>2026-04-25T07:33:05Z</time></trkpt><trkpt lat="43.96230236268942" lon="12.75197341013351"><ele>10.0</ele><time>2026-04-25T07:33:06Z</time></trkpt><trkpt lat="43.96220513735598" lon="12.751880244830124"><ele>9.8</ele><time>2026-04-25T07:33:07Z</time></trkpt><trkpt lat="43.962112391750956" lon="12.751794203225764"><ele>9.6</ele><time>2026-04-25T07:33:08Z</time></trkpt><trkpt lat="43.96202465205658" lon="12.751714611964694"><ele>9.4</ele><time>2026-04-25T07:33:09Z</time></trkpt><trkpt lat="43.96193918476851" lon="12.751637996920683"><ele>9.2</ele><time>2026-04-25T07:33:10Z</time></trkpt><trkpt lat="43.96186167544436" lon="12.751570642533261"><ele>9.0</ele><time>2026-04-25T07:33:11Z</time></trkpt><trkpt lat="43.96178836635883" lon="12.75150191297448"><ele>9.0</ele><time>2026-04-25T07:33:12Z</time></trkpt><trkpt lat="43.961717833341154" lon="12.751427565061254"><ele>9.0</ele><time>2026-04-25T07:33:13Z</time></trkpt><trkpt lat="43.96164227443479" lon="12.751359146658551"><ele>9.0</ele><time>2026-04-25T07:33:14Z</time></trkpt><trkpt lat="43.961572703946345" lon="12.751291974720996"><ele>9.0</ele><time>2026-04-25T07:33:15Z</time></trkpt><trkpt lat="43.96149421395312" lon="12.751224986898876"><ele>9.0</ele><time>2026-04-25T07:33:16Z</time></trkpt><trkpt lat="43.96141655216254" lon="12.75114869312964"><ele>9.0</ele><time>2026-04-25T07:33:17Z</time></trkpt><trkpt lat="43.96134706892309" lon="12.751084271646148"><ele>9.0</ele><time>2026-04-25T07:33:18Z</time></trkpt><trkpt lat="43.96128713386963" lon="12.751032516133632"><ele>9.0</ele><time>2026-04-25T07:33:19Z</time></trkpt><trkpt lat="43.96119409170492" lon="12.750945580119161"><ele>9.0</ele><time>2026-04-25T07:33:21Z</time></trkpt><trkpt lat="43.96108112133865" lon="12.750866391253911"><ele>9.0</ele><time>2026-04-25T07:33:23Z</time></trkpt><trkpt lat="43.961008881134255" lon="12.750831682397768"><ele>9.0</ele><time>2026-04-25T07:33:24Z</time></trkpt><trkpt lat="43.96093790051549" lon="12.750828746328565"><ele>9.0</ele><time>2026-04-25T07:33:25Z</time></trkpt><trkpt lat="43.96080146494314" lon="12.750826846913938"><ele>9.0</ele><time>2026-04-25T07:33:27Z</time></trkpt><trkpt lat="43.96071656612725" lon="12.750816005612402"><ele>9.0</ele><time>2026-04-25T07:33:28Z</time></trkpt><trkpt lat="43.96063172301751" lon="12.75080186061308"><ele>9.0</ele><time>2026-04-25T07:33:29Z</time></trkpt><trkpt lat="43.960543378958285" lon="12.750779361846515"><ele>9.0</ele><time>2026-04-25T07:33:30Z</time></trkpt><trkpt lat="43.96046362367878" lon="12.750739533372672"><ele>9.0</ele><time>2026-04-25T07:33:31Z</time></trkpt><trkpt lat="43.960400343441286" lon="12.750698402857386"><ele>9.0</ele><time>2026-04-25T07:33:32Z</time></trkpt><trkpt lat="43.96033801506515" lon="12.750655855085313"><ele>9.0</ele><time>2026-04-25T07:33:33Z</time></trkpt><trkpt lat="43.960236403755694" lon="12.750589755734318"><ele>9.0</ele><time>2026-04-25T07:33:35Z</time></trkpt><trkpt lat="43.96015308537217" lon="12.750572243441676"><ele>9.0</ele><time>2026-04-25T07:33:37Z</time></trkpt><trkpt lat="43.960133394576694" lon="12.750427806998651"><ele>9.0</ele><time>2026-04-25T07:33:40Z</time></trkpt><trkpt lat="43.960148188884155" lon="12.750255110216969"><ele>9.0</ele><time>2026-04-25T07:33:42Z</time></trkpt><trkpt lat="43.960143958080984" lon="12.750157310829"><ele>9.0</ele><time>2026-04-25T07:33:43Z</time></trkpt><trkpt lat="43.960139783863475" lon="12.750027992755834"><ele>9.0</ele><time>2026-04-25T07:33:45Z</time></trkpt><trkpt lat="43.96006583913733" lon="12.7500615603725"><ele>9.0</ele><time>2026-04-25T07:33:48Z</time></trkpt><trkpt lat="43.960031289058236" lon="12.750146027748142"><ele>9.0</ele><time>2026-04-25T07:33:50Z</time></trkpt><trkpt lat="43.960043228937614" lon="12.750047800420926"><ele>9.5</ele><time>2026-04-25T07:33:56Z</time></trkpt><trkpt lat="43.960148689656904" lon="12.750075702900926"><ele>10.0</ele><time>2026-04-25T07:36:45Z</time></trkpt><trkpt lat="43.960212093505035" lon="12.750127826847779"><ele>10.5</ele><time>2026-04-25T07:38:15Z</time></trkpt><trkpt lat="43.960205988431156" lon="12.750029691287182"><ele>11.0</ele><time>2026-04-25T07:38:44Z</time></trkpt><trkpt lat="43.960221677892854" lon="12.749903889998976"><ele>11.5</ele><time>2026-04-25T07:38:47Z</time></trkpt><trkpt lat="43.960236077687206" lon="12.749761512520989"><ele>12.0</ele><time>2026-04-25T07:38:49Z</time></trkpt><trkpt lat="43.96025789215177" lon="12.749593034125203"><ele>12.0</ele><time>2026-04-25T07:38:51Z</time></trkpt><trkpt lat="43.96027442938859" lon="12.749492204373402"><ele>12.0</ele><time>2026-04-25T07:38:52Z</time></trkpt><trkpt lat="43.960292831217586" lon="12.749387461608539"><ele>12.0</ele><time>2026-04-25T07:38:53Z</time></trkpt><trkpt lat="43.96031158932942" lon="12.749284577670096"><ele>12.0</ele><time>2026-04-25T07:38:54Z</time></trkpt><trkpt lat="43.96033702262644" lon="12.749176148847063"><ele>12.0</ele><time>2026-04-25T07:38:55Z</time></trkpt><trkpt lat="43.960363210581384" lon="12.749055105979222"><ele>12.0</ele><time>2026-04-25T07:38:56Z</time></trkpt><trkpt lat="43.960408392522694" lon="12.748935988743582"><ele>11.8</ele><time>2026-04-25T07:38:57Z</time></trkpt><trkpt lat="43.960442318896845" lon="12.748811122427838"><ele>11.6</ele><time>2026-04-25T07:38:58Z</time></trkpt><trkpt lat="43.960476391372104" lon="12.748677028691828"><ele>11.4</ele><time>2026-04-25T07:38:59Z</time></trkpt><trkpt lat="43.96052269510625" lon="12.748545359086162"><ele>11.200000000000001</ele><time>2026-04-25T07:39:00Z</time></trkpt><trkpt lat="43.96056894166327" lon="12.748411850761096"><ele>11.0</ele><time>2026-04-25T07:39:01Z</time></trkpt><trkpt lat="43.96061968337925" lon="12.748279418222843"><ele>11.0</ele><time>2026-04-25T07:39:02Z</time></trkpt><trkpt lat="43.960668872366114" lon="12.748141014415335"><ele>11.0</ele><time>2026-04-25T07:39:03Z</time></trkpt><trkpt lat="43.96071846080984" lon="12.747999705301059"><ele>11.0</ele><time>2026-04-25T07:39:04Z</time></trkpt><trkpt lat="43.96078325948954" lon="12.747867615527698"><ele>11.0</ele><time>2026-04-25T07:39:05Z</time></trkpt><trkpt lat="43.96083564325451" lon="12.747716450910756"><ele>10.600000000000001</ele><time>2026-04-25T07:39:06Z</time></trkpt><trkpt lat="43.96089045827464" lon="12.747558269996674"><ele>10.200000000000001</ele><time>2026-04-25T07:39:07Z</time></trkpt><trkpt lat="43.96092603664285" lon="12.747407450068257"><ele>9.8</ele><time>2026-04-25T07:39:08Z</time></trkpt><trkpt lat="43.960970154382764" lon="12.74728160172833"><ele>9.4</ele><time>2026-04-25T07:39:09Z</time></trkpt><trkpt lat="43.961013988813285" lon="12.747165475546579"><ele>9.0</ele><time>2026-04-25T07:39:10Z</time></trkpt><trkpt lat="43.96105761571257" lon="12.747051340947213"><ele>9.0</ele><time>2026-04-25T07:39:11Z</time></trkpt><trkpt lat="43.96109733561752" lon="12.746940211917966"><ele>9.0</ele><time>2026-04-25T07:39:12Z</time></trkpt><trkpt lat="43.961137095897875" lon="12.74682744257082"><ele>9.0</ele><time>2026-04-25T07:39:13Z</time></trkpt><trkpt lat="43.961175311074896" lon="12.74672360413544"><ele>9.0</ele><time>2026-04-25T07:39:14Z</time></trkpt><trkpt lat="43.96120679126244" lon="12.7466379319067"><ele>9.0</ele><time>2026-04-25T07:39:15Z</time></trkpt><trkpt lat="43.96123725427698" lon="12.746558959858481"><ele>9.0</ele><time>2026-04-25T07:39:16Z</time></trkpt><trkpt lat="43.961287086591916" lon="12.74641489360025"><ele>9.4</ele><time>2026-04-25T07:39:18Z</time></trkpt><trkpt lat="43.961343546694955" lon="12.746256562892539"><ele>9.8</ele><time>2026-04-25T07:39:20Z</time></trkpt><trkpt lat="43.96140043874108" lon="12.746154081704738"><ele>10.200000000000001</ele><time>2026-04-25T07:39:22Z</time></trkpt><trkpt lat="43.961429585408084" lon="12.746074219131636"><ele>10.600000000000001</ele><time>2026-04-25T07:39:25Z</time></trkpt><trkpt lat="43.96147130391421" lon="12.745917214951648"><ele>11.0</ele><time>2026-04-25T07:39:27Z</time></trkpt><trkpt lat="43.961502707928645" lon="12.745823756541858"><ele>11.166666666666666</ele><time>2026-04-25T07:39:28Z</time></trkpt><trkpt lat="43.96154420322362" lon="12.745721431561071"><ele>11.333333333333332</ele><time>2026-04-25T07:39:29Z</time></trkpt><trkpt lat="43.961590149329616" lon="12.745613868046137"><ele>11.5</ele><time>2026-04-25T07:39:30Z</time></trkpt><trkpt lat="43.961637504328955" lon="12.745504552144675"><ele>11.666666666666666</ele><time>2026-04-25T07:39:31Z</time></trkpt><trkpt lat="43.96168118518522" lon="12.745397588847842"><ele>11.833333333333334</ele><time>2026-04-25T07:39:32Z</time></trkpt><trkpt lat="43.96172053068696" lon="12.745288731548325"><ele>12.0</ele><time>2026-04-25T07:39:33Z</time></trkpt><trkpt lat="43.9617585918813" lon="12.745184640912159"><ele>11.666666666666666</ele><time>2026-04-25T07:39:34Z</time></trkpt><trkpt lat="43.96179406777145" lon="12.745085209356956"><ele>11.333333333333334</ele><time>2026-04-25T07:39:35Z</time></trkpt><trkpt lat="43.96182734309137" lon="12.74499169180275"><ele>11.0</ele><time>2026-04-25T07:39:36Z</time></trkpt><trkpt lat="43.96185956103732" lon="12.744903258137377"><ele>10.666666666666668</ele><time>2026-04-25T07:39:37Z</time></trkpt><trkpt lat="43.961903663746114" lon="12.744814528825998"><ele>10.333333333333334</ele><time>2026-04-25T07:39:38Z</time></trkpt><trkpt lat="43.96194267166624" lon="12.744712388757888"><ele>10.0</ele><time>2026-04-25T07:39:39Z</time></trkpt><trkpt lat="43.96198668802727" lon="12.744601401667135"><ele>10.0</ele><time>2026-04-25T07:39:40Z</time></trkpt><trkpt lat="43.962032039481706" lon="12.744490646699445"><ele>10.0</ele><time>2026-04-25T07:39:41Z</time></trkpt><trkpt lat="43.962080039674944" lon="12.744389530329464"><ele>10.0</ele><time>2026-04-25T07:39:42Z</time></trkpt><trkpt lat="43.962124072739215" lon="12.744299283978348"><ele>10.0</ele><time>2026-04-25T07:39:43Z</time></trkpt><trkpt lat="43.96217135952886" lon="12.744205066863078"><ele>10.0</ele><time>2026-04-25T07:39:44Z</time></trkpt><trkpt lat="43.96223138717384" lon="12.74412669773898"><ele>10.0</ele><time>2026-04-25T07:39:45Z</time></trkpt><trkpt lat="43.96227720207857" lon="12.744038058147968"><ele>10.166666666666668</ele><time>2026-04-25T07:39:46Z</time></trkpt><trkpt lat="43.96232268642646" lon="12.743950058070958"><ele>10.333333333333334</ele><time>2026-04-25T07:39:47Z</time></trkpt><trkpt lat="43.9623648479587" lon="12.74386848677462"><ele>10.5</ele><time>2026-04-25T07:39:48Z</time></trkpt><trkpt lat="43.96240499875259" lon="12.743740571938297"><ele>10.666666666666666</ele><time>2026-04-25T07:39:50Z</time></trkpt><trkpt lat="43.96245092845854" lon="12.743649666070379"><ele>10.833333333333332</ele><time>2026-04-25T07:39:56Z</time></trkpt><trkpt lat="43.962492347583314" lon="12.743564415146693"><ele>11.0</ele><time>2026-04-25T07:39:58Z</time></trkpt><trkpt lat="43.96254209860766" lon="12.743463504844806"><ele>11.0</ele><time>2026-04-25T07:40:00Z</time></trkpt><trkpt lat="43.96257405429212" lon="12.743365948469291"><ele>11.0</ele><time>2026-04-25T07:40:02Z</time></trkpt><trkpt lat="43.96256911948375" lon="12.743259687405104"><ele>11.0</ele><time>2026-04-25T07:40:04Z</time></trkpt><trkpt lat="43.96256873159455" lon="12.74310665193322"><ele>11.0</ele><time>2026-04-25T07:40:06Z</time></trkpt><trkpt lat="43.96257956645898" lon="12.743008978848625"><ele>11.0</ele><time>2026-04-25T07:40:07Z</time></trkpt><trkpt lat="43.962619227559536" lon="12.742917800297759"><ele>11.0</ele><time>2026-04-25T07:40:08Z</time></trkpt><trkpt lat="43.96263390498815" lon="12.742829533294433"><ele>11.0</ele><time>2026-04-25T07:40:09Z</time></trkpt><trkpt lat="43.9626491304246" lon="12.74274151049257"><ele>11.0</ele><time>2026-04-25T07:40:10Z</time></trkpt><trkpt lat="43.96266556205813" lon="12.742647375305813"><ele>11.0</ele><time>2026-04-25T07:40:11Z</time></trkpt><trkpt lat="43.962681728400234" lon="12.742554759930027"><ele>11.0</ele><time>2026-04-25T07:40:12Z</time></trkpt><trkpt lat="43.962696919156485" lon="12.742467733575737"><ele>11.0</ele><time>2026-04-25T07:40:13Z</time></trkpt><trkpt lat="43.962724501752774" lon="12.742308360662296"><ele>11.0</ele><time>2026-04-25T07:40:15Z</time></trkpt><trkpt lat="43.96273977081371" lon="12.742218732085249"><ele>11.0</ele><time>2026-04-25T07:40:16Z</time></trkpt><trkpt lat="43.96275639647611" lon="12.74212114029717"><ele>11.0</ele><time>2026-04-25T07:40:17Z</time></trkpt><trkpt lat="43.96277317510029" lon="12.742022220211874"><ele>11.0</ele><time>2026-04-25T07:40:18Z</time></trkpt><trkpt lat="43.9627900257671" lon="12.741917925594842"><ele>11.0</ele><time>2026-04-25T07:40:19Z</time></trkpt><trkpt lat="43.96280563790741" lon="12.741821296601849"><ele>11.0</ele><time>2026-04-25T07:40:20Z</time></trkpt><trkpt lat="43.962831365451855" lon="12.741662059867858"><ele>11.0</ele><time>2026-04-25T07:40:22Z</time></trkpt><trkpt lat="43.962851899693845" lon="12.741529259722936"><ele>10.600000000000001</ele><time>2026-04-25T07:40:24Z</time></trkpt><trkpt lat="43.962867860454786" lon="12.741423347191882"><ele>10.200000000000001</ele><time>2026-04-25T07:40:26Z</time></trkpt><trkpt lat="43.9628876754234" lon="12.741292263542883"><ele>9.8</ele><time>2026-04-25T07:40:28Z</time></trkpt><trkpt lat="43.96291376396831" lon="12.741118357346602"><ele>9.4</ele><time>2026-04-25T07:40:30Z</time></trkpt><trkpt lat="43.96293059489632" lon="12.741005467021175"><ele>9.0</ele><time>2026-04-25T07:40:31Z</time></trkpt><trkpt lat="43.962950781081894" lon="12.74087914025934"><ele>8.5</ele><time>2026-04-25T07:40:32Z</time></trkpt><trkpt lat="43.9629723597861" lon="12.740744925200278"><ele>8.0</ele><time>2026-04-25T07:40:33Z</time></trkpt><trkpt lat="43.96299308331176" lon="12.740616029179611"><ele>7.5</ele><time>2026-04-25T07:40:34Z</time></trkpt><trkpt lat="43.96301100212219" lon="12.740504577938973"><ele>7.0</ele><time>2026-04-25T07:40:35Z</time></trkpt><trkpt lat="43.96302696301829" lon="12.740405304110089"><ele>6.5</ele><time>2026-04-25T07:40:36Z</time></trkpt><trkpt lat="43.96304306566429" lon="12.740300289076734"><ele>6.0</ele><time>2026-04-25T07:40:37Z</time></trkpt><trkpt lat="43.96306162206797" lon="12.740181114433401"><ele>6.0</ele><time>2026-04-25T07:40:38Z</time></trkpt><trkpt lat="43.9630823714429" lon="12.740047833635524"><ele>6.0</ele><time>2026-04-25T07:40:39Z</time></trkpt><trkpt lat="43.96310388932145" lon="12.739910833437884"><ele>6.0</ele><time>2026-04-25T07:40:40Z</time></trkpt><trkpt lat="43.96312116145441" lon="12.73980086509523"><ele>6.0</ele><time>2026-04-25T07:40:41Z</time></trkpt><trkpt lat="43.9631352874136" lon="12.739710927820665"><ele>6.0</ele><time>2026-04-25T07:40:42Z</time></trkpt><trkpt lat="43.963150888058" lon="12.73961160151998"><ele>6.0</ele><time>2026-04-25T07:40:43Z</time></trkpt><trkpt lat="43.96316720552691" lon="12.73950771133275"><ele>6.0</ele><time>2026-04-25T07:40:44Z</time></trkpt><trkpt lat="43.96317734518421" lon="12.739395626434238"><ele>6.0</ele><time>2026-04-25T07:40:45Z</time></trkpt><trkpt lat="43.96319039142985" lon="12.73929952787938"><ele>6.0</ele><time>2026-04-25T07:40:46Z</time></trkpt><trkpt lat="43.96321348920993" lon="12.739142754686968"><ele>6.0</ele><time>2026-04-25T07:40:48Z</time></trkpt><trkpt lat="43.963246223860835" lon="12.739016753701168"><ele>6.0</ele><time>2026-04-25T07:40:50Z</time></trkpt><trkpt lat="43.96326617186566" lon="12.738906614789414"><ele>6.0</ele><time>2026-04-25T07:40:52Z</time></trkpt><trkpt lat="43.96328575974438" lon="12.738807864862379"><ele>6.0</ele><time>2026-04-25T07:40:54Z</time></trkpt><trkpt lat="43.96329078816716" lon="12.738690829927844"><ele>6.0</ele><time>2026-04-25T07:40:57Z</time></trkpt><trkpt lat="43.963349449615265" lon="12.738603227737812"><ele>6.0</ele><time>2026-04-25T07:41:00Z</time></trkpt><trkpt lat="43.9634408968289" lon="12.738558560144218"><ele>6.0</ele><time>2026-04-25T07:41:02Z</time></trkpt><trkpt lat="43.963512713985935" lon="12.73847317891028"><ele>6.0</ele><time>2026-04-25T07:41:04Z</time></trkpt><trkpt lat="43.963521358150594" lon="12.738375184499699"><ele>6.0</ele><time>2026-04-25T07:41:05Z</time></trkpt><trkpt lat="43.96348510839296" lon="12.738285686430515"><ele>6.0</ele><time>2026-04-25T07:41:06Z</time></trkpt><trkpt lat="43.96347346705979" lon="12.738197260503783"><ele>6.0</ele><time>2026-04-25T07:41:07Z</time></trkpt><trkpt lat="43.96346110077007" lon="12.738045047181002"><ele>6.0</ele><time>2026-04-25T07:41:09Z</time></trkpt><trkpt lat="43.96345877949826" lon="12.737947046859006"><ele>6.0</ele><time>2026-04-25T07:41:10Z</time></trkpt><trkpt lat="43.96345795196806" lon="12.737838013607911"><ele>6.0</ele><time>2026-04-25T07:41:11Z</time></trkpt><trkpt lat="43.963454228077175" lon="12.73772087929212"><ele>6.0</ele><time>2026-04-25T07:41:12Z</time></trkpt><trkpt lat="43.96344120919485" lon="12.737604746130984"><ele>5.8</ele><time>2026-04-25T07:41:13Z</time></trkpt><trkpt lat="43.963414532923046" lon="12.737489593158667"><ele>5.6</ele><time>2026-04-25T07:41:14Z</time></trkpt><trkpt lat="43.9633706605243" lon="12.737378809837491"><ele>5.4</ele><time>2026-04-25T07:41:15Z</time></trkpt><trkpt lat="43.963316286566204" lon="12.73727651687111"><ele>5.2</ele><time>2026-04-25T07:41:16Z</time></trkpt><trkpt lat="43.963251781485404" lon="12.737174703359731"><ele>5.0</ele><time>2026-04-25T07:41:17Z</time></trkpt><trkpt lat="43.963193576116346" lon="12.737071555679846"><ele>5.0</ele><time>2026-04-25T07:41:18Z</time></trkpt><trkpt lat="43.963153697479356" lon="12.736951193329425"><ele>5.0</ele><time>2026-04-25T07:41:19Z</time></trkpt><trkpt lat="43.96314153878856" lon="12.736819632288558"><ele>5.0</ele><time>2026-04-25T07:41:20Z</time></trkpt><trkpt lat="43.96310787155014" lon="12.736694216156906"><ele>5.0</ele><time>2026-04-25T07:41:21Z</time></trkpt><trkpt lat="43.96310572038695" lon="12.736562599433933"><ele>5.0</ele><time>2026-04-25T07:41:22Z</time></trkpt><trkpt lat="43.96313064374687" lon="12.736432652241694"><ele>4.8</ele><time>2026-04-25T07:41:23Z</time></trkpt><trkpt lat="43.96315043835962" lon="12.736301078723896"><ele>4.6</ele><time>2026-04-25T07:41:24Z</time></trkpt><trkpt lat="43.96316295616311" lon="12.736162417131668"><ele>4.4</ele><time>2026-04-25T07:41:25Z</time></trkpt><trkpt lat="43.96319860256303" lon="12.736025421015942"><ele>4.2</ele><time>2026-04-25T07:41:26Z</time></trkpt><trkpt lat="43.96323661963163" lon="12.735883728018825"><ele>4.0</ele><time>2026-04-25T07:41:27Z</time></trkpt><trkpt lat="43.963265990429875" lon="12.735725768885292"><ele>4.0</ele><time>2026-04-25T07:41:28Z</time></trkpt><trkpt lat="43.9632957061545" lon="12.735569196423059"><ele>4.0</ele><time>2026-04-25T07:41:29Z</time></trkpt><trkpt lat="43.963324282029966" lon="12.735404245806142"><ele>4.0</ele><time>2026-04-25T07:41:30Z</time></trkpt><trkpt lat="43.96334212755446" lon="12.735236683976558"><ele>4.0</ele><time>2026-04-25T07:41:31Z</time></trkpt><trkpt lat="43.96334769405116" lon="12.735084541417438"><ele>4.166666666666666</ele><time>2026-04-25T07:41:32Z</time></trkpt><trkpt lat="43.96334564842319" lon="12.734954247424152"><ele>4.333333333333333</ele><time>2026-04-25T07:41:33Z</time></trkpt><trkpt lat="43.963339458880036" lon="12.73484199389945"><ele>4.5</ele><time>2026-04-25T07:41:34Z</time></trkpt><trkpt lat="43.96333258609042" lon="12.73474619098032"><ele>4.666666666666667</ele><time>2026-04-25T07:41:35Z</time></trkpt><trkpt lat="43.963319307467025" lon="12.734599844884213"><ele>4.833333333333334</ele><time>2026-04-25T07:41:37Z</time></trkpt><trkpt lat="43.96330663127354" lon="12.734493241806026"><ele>5.0</ele><time>2026-04-25T07:41:39Z</time></trkpt><trkpt lat="43.96329761252877" lon="12.734382415532414"><ele>5.0</ele><time>2026-04-25T07:41:42Z</time></trkpt><trkpt lat="43.963295272601364" lon="12.73429358482658"><ele>5.0</ele><time>2026-04-25T07:41:45Z</time></trkpt><trkpt lat="43.96330678964109" lon="12.734193161744017"><ele>5.0</ele><time>2026-04-25T07:41:47Z</time></trkpt><trkpt lat="43.963274194166225" lon="12.734070360721583"><ele>5.0</ele><time>2026-04-25T07:41:49Z</time></trkpt><trkpt lat="43.96316108235867" lon="12.734033257990674"><ele>5.0</ele><time>2026-04-25T07:41:51Z</time></trkpt><trkpt lat="43.96309225229214" lon="12.73406626523577"><ele>5.0</ele><time>2026-04-25T07:41:52Z</time></trkpt><trkpt lat="43.96300730469838" lon="12.73409329232698"><ele>5.0</ele><time>2026-04-25T07:41:53Z</time></trkpt><trkpt lat="43.96290848922108" lon="12.734096534309101"><ele>5.0</ele><time>2026-04-25T07:41:54Z</time></trkpt><trkpt lat="43.962800994142405" lon="12.734084808163344"><ele>5.0</ele><time>2026-04-25T07:41:55Z</time></trkpt><trkpt lat="43.962690979477266" lon="12.734071175284587"><ele>5.0</ele><time>2026-04-25T07:41:56Z</time></trkpt><trkpt lat="43.962580397990955" lon="12.734057933700802"><ele>5.0</ele><time>2026-04-25T07:41:57Z</time></trkpt><trkpt lat="43.96246809219758" lon="12.734040046661926"><ele>5.6</ele><time>2026-04-25T07:41:58Z</time></trkpt><trkpt lat="43.96235743485876" lon="12.734027084237814"><ele>6.2</ele><time>2026-04-25T07:41:59Z</time></trkpt><trkpt lat="43.96225997734812" lon="12.734015564266597"><ele>6.800000000000001</ele><time>2026-04-25T07:42:00Z</time></trkpt><trkpt lat="43.9621623890936" lon="12.734002121530885"><ele>7.4</ele><time>2026-04-25T07:42:01Z</time></trkpt><trkpt lat="43.96205938807509" lon="12.733988246175283"><ele>8.0</ele><time>2026-04-25T07:42:02Z</time></trkpt><trkpt lat="43.961953077047156" lon="12.733987229762198"><ele>8.0</ele><time>2026-04-25T07:42:03Z</time></trkpt><trkpt lat="43.96183551183754" lon="12.733981095166728"><ele>8.0</ele><time>2026-04-25T07:42:04Z</time></trkpt><trkpt lat="43.9617114762981" lon="12.733974182795798"><ele>8.0</ele><time>2026-04-25T07:42:05Z</time></trkpt><trkpt lat="43.96159339703965" lon="12.733954661235801"><ele>8.0</ele><time>2026-04-25T07:42:06Z</time></trkpt><trkpt lat="43.96148110805902" lon="12.733942746700222"><ele>8.333333333333332</ele><time>2026-04-25T07:42:07Z</time></trkpt><trkpt lat="43.96137416300593" lon="12.733929533800467"><ele>8.666666666666666</ele><time>2026-04-25T07:42:08Z</time></trkpt><trkpt lat="43.961280019941846" lon="12.733914656920382"><ele>9.0</ele><time>2026-04-25T07:42:09Z</time></trkpt><trkpt lat="43.961194504014685" lon="12.733898901376723"><ele>9.333333333333334</ele><time>2026-04-25T07:42:10Z</time></trkpt><trkpt lat="43.961121745446796" lon="12.733884892153819"><ele>9.666666666666668</ele><time>2026-04-25T07:42:11Z</time></trkpt><trkpt lat="43.96105886359214" lon="12.733872141775233"><ele>10.0</ele><time>2026-04-25T07:42:12Z</time></trkpt><trkpt lat="43.96092688552065" lon="12.733866911537023"><ele>10.4</ele><time>2026-04-25T07:42:14Z</time></trkpt><trkpt lat="43.96084434476857" lon="12.733849752129164"><ele>10.8</ele><time>2026-04-25T07:42:15Z</time></trkpt><trkpt lat="43.96075900412872" lon="12.73383096107066"><ele>11.2</ele><time>2026-04-25T07:42:16Z</time></trkpt><trkpt lat="43.960664869465944" lon="12.733818018676546"><ele>11.6</ele><time>2026-04-25T07:42:17Z</time></trkpt><trkpt lat="43.960570295036256" lon="12.73380602770397"><ele>12.0</ele><time>2026-04-25T07:42:18Z</time></trkpt><trkpt lat="43.96046687005806" lon="12.733786456600452"><ele>12.0</ele><time>2026-04-25T07:42:19Z</time></trkpt><trkpt lat="43.96037516764488" lon="12.733779951296052"><ele>12.0</ele><time>2026-04-25T07:42:20Z</time></trkpt><trkpt lat="43.96027018702909" lon="12.733771053530102"><ele>12.0</ele><time>2026-04-25T07:42:21Z</time></trkpt><trkpt lat="43.96015663922139" lon="12.733742467932423"><ele>12.0</ele><time>2026-04-25T07:42:22Z</time></trkpt><trkpt lat="43.96004248328773" lon="12.733705337654598"><ele>12.0</ele><time>2026-04-25T07:42:23Z</time></trkpt><trkpt lat="43.95993042580316" lon="12.733647876817733"><ele>12.0</ele><time>2026-04-25T07:42:24Z</time></trkpt><trkpt lat="43.95982922847221" lon="12.73360699134266"><ele>12.0</ele><time>2026-04-25T07:42:25Z</time></trkpt><trkpt lat="43.95972888617974" lon="12.733564813859843"><ele>12.0</ele><time>2026-04-25T07:42:26Z</time></trkpt><trkpt lat="43.95964022229985" lon="12.733529676677945"><ele>12.0</ele><time>2026-04-25T07:42:27Z</time></trkpt><trkpt lat="43.9595562218083" lon="12.733477825470889"><ele>12.0</ele><time>2026-04-25T07:42:28Z</time></trkpt><trkpt lat="43.95948798843451" lon="12.733441928534615"><ele>12.0</ele><time>2026-04-25T07:42:29Z</time></trkpt><trkpt lat="43.959395706159896" lon="12.733374213972304"><ele>12.0</ele><time>2026-04-25T07:42:31Z</time></trkpt><trkpt lat="43.95931666446232" lon="12.733310030437707"><ele>12.0</ele><time>2026-04-25T07:42:33Z</time></trkpt><trkpt lat="43.95921320392416" lon="12.733229093798055"><ele>12.0</ele><time>2026-04-25T07:42:35Z</time></trkpt><trkpt lat="43.959143522268256" lon="12.733172081183286"><ele>12.0</ele><time>2026-04-25T07:42:36Z</time></trkpt><trkpt lat="43.95905859992089" lon="12.733105027646518"><ele>12.0</ele><time>2026-04-25T07:42:37Z</time></trkpt><trkpt lat="43.958962134178456" lon="12.733026812397814"><ele>12.0</ele><time>2026-04-25T07:42:38Z</time></trkpt><trkpt lat="43.958868464792076" lon="12.732948798956341"><ele>12.0</ele><time>2026-04-25T07:42:39Z</time></trkpt><trkpt lat="43.95878420607816" lon="12.732873950284752"><ele>12.0</ele><time>2026-04-25T07:42:40Z</time></trkpt><trkpt lat="43.95870729712529" lon="12.732806578343961"><ele>12.0</ele><time>2026-04-25T07:42:41Z</time></trkpt><trkpt lat="43.95865073092268" lon="12.732736714714685"><ele>11.8</ele><time>2026-04-25T07:42:42Z</time></trkpt><trkpt lat="43.958598033497" lon="12.732655868092133"><ele>11.6</ele><time>2026-04-25T07:42:43Z</time></trkpt><trkpt lat="43.958542402289204" lon="12.732576589482088"><ele>11.4</ele><time>2026-04-25T07:42:44Z</time></trkpt><trkpt lat="43.95846167275722" lon="12.732489921277828"><ele>11.200000000000001</ele><time>2026-04-25T07:42:45Z</time></trkpt><trkpt lat="43.958366130817936" lon="12.732327060011986"><ele>11.0</ele><time>2026-04-25T07:42:46Z</time></trkpt><trkpt lat="43.95826543711458" lon="12.732157776410778"><ele>11.5</ele><time>2026-04-25T07:42:47Z</time></trkpt><trkpt lat="43.958159509917145" lon="12.731983597819733"><ele>12.0</ele><time>2026-04-25T07:42:48Z</time></trkpt><trkpt lat="43.95808447934414" lon="12.731819559652566"><ele>12.5</ele><time>2026-04-25T07:42:49Z</time></trkpt><trkpt lat="43.9580262714494" lon="12.731698846236867"><ele>13.0</ele><time>2026-04-25T07:42:50Z</time></trkpt><trkpt lat="43.95797833094745" lon="12.731586242478423"><ele>13.166666666666666</ele><time>2026-04-25T07:42:51Z</time></trkpt><trkpt lat="43.95792361164875" lon="12.731487376604273"><ele>13.333333333333332</ele><time>2026-04-25T07:42:52Z</time></trkpt><trkpt lat="43.95786641779019" lon="12.731405592888553"><ele>13.5</ele><time>2026-04-25T07:42:53Z</time></trkpt><trkpt lat="43.95782540175132" lon="12.73132121176124"><ele>13.666666666666668</ele><time>2026-04-25T07:42:54Z</time></trkpt><trkpt lat="43.957791034109455" lon="12.731242580918183"><ele>13.833333333333334</ele><time>2026-04-25T07:42:55Z</time></trkpt><trkpt lat="43.95774116233623" lon="12.731142149121435"><ele>14.0</ele><time>2026-04-25T07:42:57Z</time></trkpt><trkpt lat="43.95770048293373" lon="12.731057797316396"><ele>14.0</ele><time>2026-04-25T07:42:59Z</time></trkpt><trkpt lat="43.95764206244659" lon="12.730979787978114"><ele>13.999999999999998</ele><time>2026-04-25T07:43:01Z</time></trkpt><trkpt lat="43.957587003546024" lon="12.73087946428142"><ele>13.999999999999998</ele><time>2026-04-25T07:43:03Z</time></trkpt><trkpt lat="43.95754978940628" lon="12.730742965786462"><ele>14.0</ele><time>2026-04-25T07:43:05Z</time></trkpt><trkpt lat="43.95747582297248" lon="12.730624760922653"><ele>14.0</ele><time>2026-04-25T07:43:07Z</time></trkpt><trkpt lat="43.95741045663106" lon="12.730544010043708"><ele>13.799999999999999</ele><time>2026-04-25T07:43:08Z</time></trkpt><trkpt lat="43.957341938309746" lon="12.730449373139171"><ele>13.599999999999998</ele><time>2026-04-25T07:43:09Z</time></trkpt><trkpt lat="43.95731052092306" lon="12.73034358116673"><ele>13.4</ele><time>2026-04-25T07:43:10Z</time></trkpt><trkpt lat="43.95723956286994" lon="12.73022271151661"><ele>13.2</ele><time>2026-04-25T07:43:12Z</time></trkpt><trkpt lat="43.957228353658124" lon="12.730080050987988"><ele>13.0</ele><time>2026-04-25T07:43:14Z</time></trkpt><trkpt lat="43.95718139508508" lon="12.72992374407077"><ele>13.4</ele><time>2026-04-25T07:43:16Z</time></trkpt><trkpt lat="43.95713207792935" lon="12.729842694801375"><ele>13.8</ele><time>2026-04-25T07:43:17Z</time></trkpt><trkpt lat="43.9570416132048" lon="12.729802954544972"><ele>14.2</ele><time>2026-04-25T07:43:18Z</time></trkpt><trkpt lat="43.95697021769615" lon="12.729723498383649"><ele>14.6</ele><time>2026-04-25T07:43:19Z</time></trkpt><trkpt lat="43.95690997267484" lon="12.729618088347689"><ele>15.0</ele><time>2026-04-25T07:43:20Z</time></trkpt><trkpt lat="43.95684560879847" lon="12.729489807064768"><ele>15.0</ele><time>2026-04-25T07:43:21Z</time></trkpt><trkpt lat="43.95677895335489" lon="12.72934123316195"><ele>15.0</ele><time>2026-04-25T07:43:22Z</time></trkpt><trkpt lat="43.95670708261697" lon="12.729178333127798"><ele>15.0</ele><time>2026-04-25T07:43:23Z</time></trkpt><trkpt lat="43.95662779760612" lon="12.729020970044626"><ele>15.0</ele><time>2026-04-25T07:43:24Z</time></trkpt><trkpt lat="43.956536218571294" lon="12.728860809955542"><ele>15.0</ele><time>2026-04-25T07:43:25Z</time></trkpt><trkpt lat="43.95643934710354" lon="12.72868673628641"><ele>15.0</ele><time>2026-04-25T07:43:26Z</time></trkpt><trkpt lat="43.956323297787726" lon="12.72851473862247"><ele>15.0</ele><time>2026-04-25T07:43:27Z</time></trkpt><trkpt lat="43.95619678087116" lon="12.728341205267144"><ele>15.0</ele><time>2026-04-25T07:43:28Z</time></trkpt><trkpt lat="43.956082414635425" lon="12.728171070820451"><ele>15.0</ele><time>2026-04-25T07:43:29Z</time></trkpt><trkpt lat="43.95598192667599" lon="12.728011579241405"><ele>15.0</ele><time>2026-04-25T07:43:30Z</time></trkpt><trkpt lat="43.95587974117087" lon="12.72786589840049"><ele>15.25</ele><time>2026-04-25T07:43:31Z</time></trkpt><trkpt lat="43.95577795475584" lon="12.727731479163463"><ele>15.5</ele><time>2026-04-25T07:43:32Z</time></trkpt><trkpt lat="43.95567664692788" lon="12.727596529063376"><ele>15.75</ele><time>2026-04-25T07:43:33Z</time></trkpt><trkpt lat="43.95557917637956" lon="12.727465641200366"><ele>16.0</ele><time>2026-04-25T07:43:34Z</time></trkpt><trkpt lat="43.95547944898777" lon="12.727336965785648"><ele>16.0</ele><time>2026-04-25T07:43:35Z</time></trkpt><trkpt lat="43.955383590443226" lon="12.727208941593803"><ele>16.0</ele><time>2026-04-25T07:43:36Z</time></trkpt><trkpt lat="43.95528757282808" lon="12.727089950347057"><ele>16.0</ele><time>2026-04-25T07:43:37Z</time></trkpt><trkpt lat="43.95518404340503" lon="12.726974849969542"><ele>16.0</ele><time>2026-04-25T07:43:38Z</time></trkpt><trkpt lat="43.95508651153071" lon="12.726873405491506"><ele>16.0</ele><time>2026-04-25T07:43:39Z</time></trkpt><trkpt lat="43.954995270681884" lon="12.726783053436124"><ele>16.0</ele><time>2026-04-25T07:43:40Z</time></trkpt><trkpt lat="43.954897543204105" lon="12.726702890008571"><ele>16.0</ele><time>2026-04-25T07:43:41Z</time></trkpt><trkpt lat="43.95479569491272" lon="12.726637336586272"><ele>16.0</ele><time>2026-04-25T07:43:42Z</time></trkpt><trkpt lat="43.954701793241526" lon="12.726568432772785"><ele>16.0</ele><time>2026-04-25T07:43:43Z</time></trkpt><trkpt lat="43.954617798741594" lon="12.726508541957033"><ele>16.0</ele><time>2026-04-25T07:43:44Z</time></trkpt><trkpt lat="43.95453316039857" lon="12.72645604587449"><ele>16.0</ele><time>2026-04-25T07:43:45Z</time></trkpt><trkpt lat="43.95446007800807" lon="12.726405419341628"><ele>16.0</ele><time>2026-04-25T07:43:46Z</time></trkpt><trkpt lat="43.95440908412875" lon="12.726337140921892"><ele>16.0</ele><time>2026-04-25T07:43:47Z</time></trkpt><trkpt lat="43.95431925124147" lon="12.726237868479252"><ele>16.0</ele><time>2026-04-25T07:43:49Z</time></trkpt><trkpt lat="43.95430215022211" lon="12.726076567198554"><ele>15.833333333333332</ele><time>2026-04-25T07:43:51Z</time></trkpt><trkpt lat="43.9543050934325" lon="12.72598311890971"><ele>15.666666666666666</ele><time>2026-04-25T07:43:52Z</time></trkpt><trkpt lat="43.954299304918294" lon="12.725889168501718"><ele>15.5</ele><time>2026-04-25T07:43:53Z</time></trkpt><trkpt lat="43.95425856335703" lon="12.725753382066038"><ele>15.333333333333332</ele><time>2026-04-25T07:43:55Z</time></trkpt><trkpt lat="43.954193089644555" lon="12.725741685749252"><ele>15.166666666666666</ele><time>2026-04-25T07:43:56Z</time></trkpt><trkpt lat="43.95407597389994" lon="12.725742049286435"><ele>15.0</ele><time>2026-04-25T07:43:58Z</time></trkpt><trkpt lat="43.954012476265824" lon="12.725774244669498"><ele>15.5</ele><time>2026-04-25T07:43:59Z</time></trkpt><trkpt lat="43.953948852058595" lon="12.725812126935558"><ele>16.0</ele><time>2026-04-25T07:44:00Z</time></trkpt><trkpt lat="43.95387571034471" lon="12.72583329165649"><ele>16.5</ele><time>2026-04-25T07:44:01Z</time></trkpt><trkpt lat="43.95379163883241" lon="12.725825507311862"><ele>17.0</ele><time>2026-04-25T07:44:02Z</time></trkpt><trkpt lat="43.95370148029538" lon="12.725789824114187"><ele>17.5</ele><time>2026-04-25T07:44:03Z</time></trkpt><trkpt lat="43.95360586876745" lon="12.725743140716165"><ele>18.0</ele><time>2026-04-25T07:44:04Z</time></trkpt><trkpt lat="43.95350885438057" lon="12.72570947221441"><ele>18.0</ele><time>2026-04-25T07:44:05Z</time></trkpt><trkpt lat="43.953403155898606" lon="12.72566616299315"><ele>18.0</ele><time>2026-04-25T07:44:06Z</time></trkpt><trkpt lat="43.95329622062803" lon="12.725622687971864"><ele>18.0</ele><time>2026-04-25T07:44:07Z</time></trkpt><trkpt lat="43.953191574563526" lon="12.72558467384938"><ele>18.0</ele><time>2026-04-25T07:44:08Z</time></trkpt><trkpt lat="43.95308648830228" lon="12.725544661563877"><ele>18.0</ele><time>2026-04-25T07:44:09Z</time></trkpt><trkpt lat="43.95298678414296" lon="12.725502840349233"><ele>18.2</ele><time>2026-04-25T07:44:10Z</time></trkpt><trkpt lat="43.952887659129686" lon="12.725462664681318"><ele>18.4</ele><time>2026-04-25T07:44:11Z</time></trkpt><trkpt lat="43.952786237462156" lon="12.725424001108534"><ele>18.599999999999998</ele><time>2026-04-25T07:44:12Z</time></trkpt><trkpt lat="43.952687019157715" lon="12.725382961072938"><ele>18.8</ele><time>2026-04-25T07:44:13Z</time></trkpt><trkpt lat="43.95258858848895" lon="12.725347999639437"><ele>19.0</ele><time>2026-04-25T07:44:14Z</time></trkpt><trkpt lat="43.95248519604544" lon="12.725311789445676"><ele>19.0</ele><time>2026-04-25T07:44:15Z</time></trkpt><trkpt lat="43.952378061797766" lon="12.725269456307712"><ele>19.0</ele><time>2026-04-25T07:44:16Z</time></trkpt><trkpt lat="43.95226614834002" lon="12.725223233008688"><ele>19.0</ele><time>2026-04-25T07:44:17Z</time></trkpt><trkpt lat="43.95215221127447" lon="12.725174911830345"><ele>19.0</ele><time>2026-04-25T07:44:18Z</time></trkpt><trkpt lat="43.95202964993649" lon="12.725129152066675"><ele>18.75</ele><time>2026-04-25T07:44:19Z</time></trkpt><trkpt lat="43.95190045239223" lon="12.725076183502814"><ele>18.5</ele><time>2026-04-25T07:44:20Z</time></trkpt><trkpt lat="43.95176752020909" lon="12.725022885657683"><ele>18.25</ele><time>2026-04-25T07:44:21Z</time></trkpt><trkpt lat="43.95162140802807" lon="12.724961615037538"><ele>18.0</ele><time>2026-04-25T07:44:22Z</time></trkpt><trkpt lat="43.95146085187167" lon="12.724894785570736"><ele>18.75</ele><time>2026-04-25T07:44:23Z</time></trkpt><trkpt lat="43.95131566341742" lon="12.724831421214734"><ele>19.5</ele><time>2026-04-25T07:44:24Z</time></trkpt><trkpt lat="43.951183350569295" lon="12.724773530058846"><ele>20.25</ele><time>2026-04-25T07:44:25Z</time></trkpt><trkpt lat="43.95106079145812" lon="12.724722065474683"><ele>21.0</ele><time>2026-04-25T07:44:26Z</time></trkpt><trkpt lat="43.950948200055926" lon="12.724674986503238"><ele>20.666666666666668</ele><time>2026-04-25T07:44:27Z</time></trkpt><trkpt lat="43.95084811359355" lon="12.724633637002224"><ele>20.333333333333332</ele><time>2026-04-25T07:44:28Z</time></trkpt><trkpt lat="43.95076382066466" lon="12.724600999915848"><ele>20.0</ele><time>2026-04-25T07:44:29Z</time></trkpt><trkpt lat="43.950686957550616" lon="12.724564217266805"><ele>19.666666666666664</ele><time>2026-04-25T07:44:30Z</time></trkpt><trkpt lat="43.95062661258337" lon="12.724533748604824"><ele>19.333333333333332</ele><time>2026-04-25T07:44:31Z</time></trkpt><trkpt lat="43.950538202770325" lon="12.724459888865786"><ele>19.0</ele><time>2026-04-25T07:44:33Z</time></trkpt><trkpt lat="43.95045242889616" lon="12.724314852346053"><ele>19.0</ele><time>2026-04-25T07:44:35Z</time></trkpt><trkpt lat="43.95039820983586" lon="12.724223676250665"><ele>19.0</ele><time>2026-04-25T07:44:36Z</time></trkpt><trkpt lat="43.950371631987394" lon="12.724122646511251"><ele>19.0</ele><time>2026-04-25T07:44:37Z</time></trkpt><trkpt lat="43.95028147525304" lon="12.72414414925192"><ele>19.0</ele><time>2026-04-25T07:44:38Z</time></trkpt><trkpt lat="43.95021445351731" lon="12.724150920050235"><ele>19.0</ele><time>2026-04-25T07:44:39Z</time></trkpt><trkpt lat="43.95011937901393" lon="12.724231818458259"><ele>19.0</ele><time>2026-04-25T07:44:41Z</time></trkpt><trkpt lat="43.95010991980239" lon="12.724401844553533"><ele>19.0</ele><time>2026-04-25T07:44:43Z</time></trkpt><trkpt lat="43.95014504630426" lon="12.724507806194048"><ele>19.0</ele><time>2026-04-25T07:44:44Z</time></trkpt><trkpt lat="43.95020204250397" lon="12.724607112581689"><ele>19.0</ele><time>2026-04-25T07:44:45Z</time></trkpt><trkpt lat="43.95026919759923" lon="12.724661805574312"><ele>19.0</ele><time>2026-04-25T07:44:46Z</time></trkpt><trkpt lat="43.95035242216429" lon="12.724666732968682"><ele>19.0</ele><time>2026-04-25T07:44:47Z</time></trkpt><trkpt lat="43.95042569739837" lon="12.72461480195125"><ele>19.0</ele><time>2026-04-25T07:44:48Z</time></trkpt><trkpt lat="43.95048003224347" lon="12.724531071892063"><ele>19.0</ele><time>2026-04-25T07:44:49Z</time></trkpt><trkpt lat="43.9505302947613" lon="12.724454914522354"><ele>19.0</ele><time>2026-04-25T07:44:50Z</time></trkpt><trkpt lat="43.95050725260979" lon="12.724340767274184"><ele>19.0</ele><time>2026-04-25T07:44:51Z</time></trkpt><trkpt lat="43.95047703574974" lon="12.724260286666537"><ele>19.0</ele><time>2026-04-25T07:44:52Z</time></trkpt><trkpt lat="43.950424077755926" lon="12.724203820265394"><ele>19.0</ele><time>2026-04-25T07:44:53Z</time></trkpt><trkpt lat="43.95037654820418" lon="12.724129052582086"><ele>19.0</ele><time>2026-04-25T07:44:54Z</time></trkpt><trkpt lat="43.95027611394078" lon="12.724142337919574"><ele>18.8</ele><time>2026-04-25T07:44:55Z</time></trkpt><trkpt lat="43.95017959550104" lon="12.72414377686061"><ele>18.599999999999998</ele><time>2026-04-25T07:44:56Z</time></trkpt><trkpt lat="43.95007604327377" lon="12.724123210362027"><ele>18.4</ele><time>2026-04-25T07:44:57Z</time></trkpt><trkpt lat="43.949984507589996" lon="12.72406572002344"><ele>18.2</ele><time>2026-04-25T07:44:58Z</time></trkpt><trkpt lat="43.94989812650937" lon="12.723979045284656"><ele>18.0</ele><time>2026-04-25T07:44:59Z</time></trkpt><trkpt lat="43.94980130668319" lon="12.723865526428312"><ele>18.25</ele><time>2026-04-25T07:45:00Z</time></trkpt><trkpt lat="43.949706283470235" lon="12.723749794720693"><ele>18.5</ele><time>2026-04-25T07:45:01Z</time></trkpt><trkpt lat="43.949604649077486" lon="12.72361942565018"><ele>18.75</ele><time>2026-04-25T07:45:02Z</time></trkpt><trkpt lat="43.949487937723" lon="12.723466707814547"><ele>19.0</ele><time>2026-04-25T07:45:03Z</time></trkpt><trkpt lat="43.949360082531506" lon="12.723304949051972"><ele>19.0</ele><time>2026-04-25T07:45:04Z</time></trkpt><trkpt lat="43.94922190750852" lon="12.723128006166732"><ele>19.0</ele><time>2026-04-25T07:45:05Z</time></trkpt><trkpt lat="43.949077466095204" lon="12.72294701441097"><ele>19.0</ele><time>2026-04-25T07:45:06Z</time></trkpt><trkpt lat="43.94892720373485" lon="12.722751571079767"><ele>19.333333333333332</ele><time>2026-04-25T07:45:07Z</time></trkpt><trkpt lat="43.94877407266052" lon="12.7225575049623"><ele>19.666666666666668</ele><time>2026-04-25T07:45:08Z</time></trkpt><trkpt lat="43.94862792030956" lon="12.722373779059954"><ele>20.0</ele><time>2026-04-25T07:45:09Z</time></trkpt><trkpt lat="43.94849062530969" lon="12.722211158772923"><ele>20.25</ele><time>2026-04-25T07:45:10Z</time></trkpt><trkpt lat="43.94836672168926" lon="12.722067665985195"><ele>20.5</ele><time>2026-04-25T07:45:11Z</time></trkpt><trkpt lat="43.948255534249455" lon="12.721939310031614"><ele>20.75</ele><time>2026-04-25T07:45:12Z</time></trkpt><trkpt lat="43.94815386461806" lon="12.721822046682782"><ele>21.0</ele><time>2026-04-25T07:45:13Z</time></trkpt><trkpt lat="43.94806686884823" lon="12.721715978254906"><ele>21.4</ele><time>2026-04-25T07:45:14Z</time></trkpt><trkpt lat="43.94799400834251" lon="12.721622578350424"><ele>21.8</ele><time>2026-04-25T07:45:15Z</time></trkpt><trkpt lat="43.94794317454403" lon="12.721539225748355"><ele>22.2</ele><time>2026-04-25T07:45:16Z</time></trkpt><trkpt lat="43.947915074181026" lon="12.721436044547096"><ele>22.599999999999998</ele><time>2026-04-25T07:45:18Z</time></trkpt><trkpt lat="43.947854728784066" lon="12.721279041479685"><ele>23.0</ele><time>2026-04-25T07:45:20Z</time></trkpt><trkpt lat="43.947804461049664" lon="12.721163224502302"><ele>23.0</ele><time>2026-04-25T07:45:21Z</time></trkpt><trkpt lat="43.94768723622338" lon="12.721126485329147"><ele>23.0</ele><time>2026-04-25T07:45:22Z</time></trkpt><trkpt lat="43.9475626982141" lon="12.721067347360185"><ele>23.0</ele><time>2026-04-25T07:45:23Z</time></trkpt><trkpt lat="43.94743226664499" lon="12.720982421229163"><ele>23.0</ele><time>2026-04-25T07:45:24Z</time></trkpt><trkpt lat="43.947302966399896" lon="12.72087506889688"><ele>23.333333333333336</ele><time>2026-04-25T07:45:25Z</time></trkpt><trkpt lat="43.947169402323404" lon="12.720744713472266"><ele>23.666666666666668</ele><time>2026-04-25T07:45:26Z</time></trkpt><trkpt lat="43.94704243572547" lon="12.720606170935769"><ele>24.0</ele><time>2026-04-25T07:45:27Z</time></trkpt><trkpt lat="43.94691280464142" lon="12.720465119788058"><ele>24.0</ele><time>2026-04-25T07:45:28Z</time></trkpt><trkpt lat="43.94677163335715" lon="12.720322462419439"><ele>24.0</ele><time>2026-04-25T07:45:29Z</time></trkpt><trkpt lat="43.946627201599426" lon="12.72017789796363"><ele>24.0</ele><time>2026-04-25T07:45:30Z</time></trkpt><trkpt lat="43.94648065068174" lon="12.720035936124628"><ele>24.0</ele><time>2026-04-25T07:45:31Z</time></trkpt><trkpt lat="43.94633605779294" lon="12.719892150762922"><ele>24.0</ele><time>2026-04-25T07:45:32Z</time></trkpt><trkpt lat="43.94619649851829" lon="12.719743725088506"><ele>24.0</ele><time>2026-04-25T07:45:33Z</time></trkpt><trkpt lat="43.94605691033743" lon="12.71959898357513"><ele>24.0</ele><time>2026-04-25T07:45:34Z</time></trkpt><trkpt lat="43.94591267363634" lon="12.719460011385925"><ele>24.0</ele><time>2026-04-25T07:45:35Z</time></trkpt><trkpt lat="43.9457732321684" lon="12.719328307740238"><ele>24.0</ele><time>2026-04-25T07:45:36Z</time></trkpt><trkpt lat="43.94563427426809" lon="12.719201330266321"><ele>24.666666666666664</ele><time>2026-04-25T07:45:37Z</time></trkpt><trkpt lat="43.94550112892062" lon="12.719078169947922"><ele>25.333333333333332</ele><time>2026-04-25T07:45:38Z</time></trkpt><trkpt lat="43.94536960447705" lon="12.71894837697536"><ele>26.0</ele><time>2026-04-25T07:45:39Z</time></trkpt><trkpt lat="43.94523412480066" lon="12.71881590154635"><ele>26.0</ele><time>2026-04-25T07:45:40Z</time></trkpt><trkpt lat="43.94511554599938" lon="12.71869752684496"><ele>26.0</ele><time>2026-04-25T07:45:41Z</time></trkpt><trkpt lat="43.94500614292737" lon="12.718580621370673"><ele>26.0</ele><time>2026-04-25T07:45:42Z</time></trkpt><trkpt lat="43.94489961090529" lon="12.71845434814695"><ele>26.0</ele><time>2026-04-25T07:45:43Z</time></trkpt><trkpt lat="43.944796392770016" lon="12.718343012735426"><ele>25.8</ele><time>2026-04-25T07:45:44Z</time></trkpt><trkpt lat="43.94469925781761" lon="12.718244790945219"><ele>25.6</ele><time>2026-04-25T07:45:45Z</time></trkpt><trkpt lat="43.94461166252159" lon="12.718153936155806"><ele>25.4</ele><time>2026-04-25T07:45:46Z</time></trkpt><trkpt lat="43.94453577780889" lon="12.718055211833347"><ele>25.2</ele><time>2026-04-25T07:45:47Z</time></trkpt><trkpt lat="43.94446637432655" lon="12.717929176492827"><ele>25.0</ele><time>2026-04-25T07:45:48Z</time></trkpt><trkpt lat="43.94440653707748" lon="12.717796810792658"><ele>25.0</ele><time>2026-04-25T07:45:49Z</time></trkpt><trkpt lat="43.944352451743896" lon="12.717665158815048"><ele>25.0</ele><time>2026-04-25T07:45:50Z</time></trkpt><trkpt lat="43.94429825862086" lon="12.717524940451705"><ele>25.0</ele><time>2026-04-25T07:45:51Z</time></trkpt><trkpt lat="43.94424368963761" lon="12.717373318923633"><ele>25.0</ele><time>2026-04-25T07:45:52Z</time></trkpt><trkpt lat="43.94419164729679" lon="12.717218361077293"><ele>24.75</ele><time>2026-04-25T07:45:53Z</time></trkpt><trkpt lat="43.94414734811136" lon="12.71706213301177"><ele>24.5</ele><time>2026-04-25T07:45:54Z</time></trkpt><trkpt lat="43.94410686655807" lon="12.716899878208995"><ele>24.25</ele><time>2026-04-25T07:45:55Z</time></trkpt><trkpt lat="43.944082825368895" lon="12.716722203513603"><ele>24.0</ele><time>2026-04-25T07:45:56Z</time></trkpt><trkpt lat="43.944060911783296" lon="12.716535758994908"><ele>24.0</ele><time>2026-04-25T07:45:57Z</time></trkpt><trkpt lat="43.944052753204154" lon="12.716339083074192"><ele>24.0</ele><time>2026-04-25T07:45:58Z</time></trkpt><trkpt lat="43.944053686123105" lon="12.716134980764629"><ele>24.0</ele><time>2026-04-25T07:45:59Z</time></trkpt><trkpt lat="43.94406093558163" lon="12.715928612851528"><ele>24.0</ele><time>2026-04-25T07:46:00Z</time></trkpt><trkpt lat="43.94406677434411" lon="12.715719668016561"><ele>24.333333333333336</ele><time>2026-04-25T07:46:01Z</time></trkpt><trkpt lat="43.94407065401617" lon="12.715504471975297"><ele>24.666666666666668</ele><time>2026-04-25T07:46:02Z</time></trkpt><trkpt lat="43.944074496786676" lon="12.715278998471884"><ele>25.0</ele><time>2026-04-25T07:46:03Z</time></trkpt><trkpt lat="43.94407769688068" lon="12.715038405711738"><ele>25.0</ele><time>2026-04-25T07:46:04Z</time></trkpt><trkpt lat="43.94408019416436" lon="12.714784111278057"><ele>25.0</ele><time>2026-04-25T07:46:05Z</time></trkpt><trkpt lat="43.944082353255304" lon="12.714523334737589"><ele>25.0</ele><time>2026-04-25T07:46:06Z</time></trkpt><trkpt lat="43.94408676975874" lon="12.71426163667197"><ele>25.0</ele><time>2026-04-25T07:46:07Z</time></trkpt><trkpt lat="43.94408199631646" lon="12.714002506372038"><ele>25.0</ele><time>2026-04-25T07:46:08Z</time></trkpt><trkpt lat="43.944068207547055" lon="12.713741520694725"><ele>25.0</ele><time>2026-04-25T07:46:09Z</time></trkpt><trkpt lat="43.944044816554744" lon="12.713478171232621"><ele>25.0</ele><time>2026-04-25T07:46:10Z</time></trkpt><trkpt lat="43.94401586933488" lon="12.713219113468048"><ele>25.0</ele><time>2026-04-25T07:46:11Z</time></trkpt><trkpt lat="43.943977816438945" lon="12.712955100695359"><ele>25.0</ele><time>2026-04-25T07:46:12Z</time></trkpt><trkpt lat="43.94393398702128" lon="12.712680264384804"><ele>25.0</ele><time>2026-04-25T07:46:13Z</time></trkpt><trkpt lat="43.94388314354904" lon="12.71239634325908"><ele>25.0</ele><time>2026-04-25T07:46:14Z</time></trkpt><trkpt lat="43.94382400657978" lon="12.712112783723676"><ele>25.0</ele><time>2026-04-25T07:46:15Z</time></trkpt><trkpt lat="43.94375859324144" lon="12.71183188063678"><ele>25.0</ele><time>2026-04-25T07:46:16Z</time></trkpt><trkpt lat="43.94369089715346" lon="12.71155117183115"><ele>25.0</ele><time>2026-04-25T07:46:17Z</time></trkpt><trkpt lat="43.94361705531409" lon="12.71127339733392"><ele>25.0</ele><time>2026-04-25T07:46:18Z</time></trkpt><trkpt lat="43.94353444665173" lon="12.711005209006208"><ele>24.666666666666668</ele><time>2026-04-25T07:46:19Z</time></trkpt><trkpt lat="43.9434440570824" lon="12.710748334340847"><ele>24.333333333333336</ele><time>2026-04-25T07:46:20Z</time></trkpt><trkpt lat="43.943347384363605" lon="12.710499314181476"><ele>24.0</ele><time>2026-04-25T07:46:21Z</time></trkpt><trkpt lat="43.94324669960408" lon="12.710255603601448"><ele>24.666666666666664</ele><time>2026-04-25T07:46:22Z</time></trkpt><trkpt lat="43.94314490555303" lon="12.710015110348342"><ele>25.333333333333332</ele><time>2026-04-25T07:46:23Z</time></trkpt><trkpt lat="43.94304521191127" lon="12.709779465244033"><ele>26.0</ele><time>2026-04-25T07:46:24Z</time></trkpt><trkpt lat="43.94294881099416" lon="12.709547398683174"><ele>26.333333333333332</ele><time>2026-04-25T07:46:25Z</time></trkpt><trkpt lat="43.942854056679955" lon="12.709315236619318"><ele>26.666666666666664</ele><time>2026-04-25T07:46:26Z</time></trkpt><trkpt lat="43.94276181839661" lon="12.709085944541426"><ele>27.0</ele><time>2026-04-25T07:46:27Z</time></trkpt><trkpt lat="43.94267204759656" lon="12.708858176796076"><ele>27.0</ele><time>2026-04-25T07:46:28Z</time></trkpt><trkpt lat="43.94258301837208" lon="12.708638076168798"><ele>27.0</ele><time>2026-04-25T07:46:29Z</time></trkpt><trkpt lat="43.94249477883286" lon="12.708424823509066"><ele>27.0</ele><time>2026-04-25T07:46:30Z</time></trkpt><trkpt lat="43.9424102176763" lon="12.708206103181421"><ele>27.333333333333336</ele><time>2026-04-25T07:46:31Z</time></trkpt><trkpt lat="43.942329180440964" lon="12.707988963825136"><ele>27.666666666666668</ele><time>2026-04-25T07:46:32Z</time></trkpt><trkpt lat="43.94224763433486" lon="12.707778533784992"><ele>28.0</ele><time>2026-04-25T07:46:33Z</time></trkpt><trkpt lat="43.94216526027553" lon="12.70757108744914"><ele>28.333333333333336</ele><time>2026-04-25T07:46:34Z</time></trkpt><trkpt lat="43.942080765945185" lon="12.70735956922014"><ele>28.666666666666664</ele><time>2026-04-25T07:46:35Z</time></trkpt><trkpt lat="43.94199166908342" lon="12.707142679367633"><ele>29.0</ele><time>2026-04-25T07:46:36Z</time></trkpt><trkpt lat="43.94190496244753" lon="12.706925067807997"><ele>29.0</ele><time>2026-04-25T07:46:37Z</time></trkpt><trkpt lat="43.941819101299316" lon="12.706710543033951"><ele>29.0</ele><time>2026-04-25T07:46:38Z</time></trkpt><trkpt lat="43.94173920817088" lon="12.706500075303692"><ele>29.0</ele><time>2026-04-25T07:46:39Z</time></trkpt><trkpt lat="43.941656215669624" lon="12.706290598417349"><ele>28.666666666666664</ele><time>2026-04-25T07:46:40Z</time></trkpt><trkpt lat="43.94156851718677" lon="12.70608375370615"><ele>28.333333333333336</ele><time>2026-04-25T07:46:41Z</time></trkpt><trkpt lat="43.94148139027939" lon="12.705875028135225"><ele>28.0</ele><time>2026-04-25T07:46:42Z</time></trkpt><trkpt lat="43.94139258272503" lon="12.705668538003783"><ele>28.0</ele><time>2026-04-25T07:46:43Z</time></trkpt><trkpt lat="43.941308420536494" lon="12.705454846994744"><ele>28.0</ele><time>2026-04-25T07:46:44Z</time></trkpt><trkpt lat="43.941226507748986" lon="12.705244173071113"><ele>28.0</ele><time>2026-04-25T07:46:45Z</time></trkpt><trkpt lat="43.94114333916447" lon="12.705033029670785"><ele>28.666666666666668</ele><time>2026-04-25T07:46:46Z</time></trkpt><trkpt lat="43.941062102868784" lon="12.704821673127844"><ele>29.333333333333336</ele><time>2026-04-25T07:46:47Z</time></trkpt><trkpt lat="43.94097926653153" lon="12.70461232921484"><ele>30.0</ele><time>2026-04-25T07:46:48Z</time></trkpt><trkpt lat="43.940894154308054" lon="12.704402365559705"><ele>31.0</ele><time>2026-04-25T07:46:49Z</time></trkpt><trkpt lat="43.94080889134502" lon="12.704188365500793"><ele>32.0</ele><time>2026-04-25T07:46:50Z</time></trkpt><trkpt lat="43.94073221311757" lon="12.703979969263983"><ele>33.0</ele><time>2026-04-25T07:46:51Z</time></trkpt><trkpt lat="43.94066350833125" lon="12.703784249417167"><ele>33.0</ele><time>2026-04-25T07:46:52Z</time></trkpt><trkpt lat="43.940600592804884" lon="12.703599735276804"><ele>33.0</ele><time>2026-04-25T07:46:53Z</time></trkpt><trkpt lat="43.940552674731784" lon="12.703424208894656"><ele>33.0</ele><time>2026-04-25T07:46:54Z</time></trkpt><trkpt lat="43.94051604590532" lon="12.70325353106768"><ele>33.0</ele><time>2026-04-25T07:46:55Z</time></trkpt><trkpt lat="43.94048950705443" lon="12.703091623834624"><ele>33.0</ele><time>2026-04-25T07:46:56Z</time></trkpt><trkpt lat="43.940469017451186" lon="12.702937358305164"><ele>33.0</ele><time>2026-04-25T07:46:57Z</time></trkpt><trkpt lat="43.940446874696846" lon="12.702773309509514"><ele>33.0</ele><time>2026-04-25T07:46:58Z</time></trkpt><trkpt lat="43.94041951346749" lon="12.70259967914226"><ele>33.0</ele><time>2026-04-25T07:46:59Z</time></trkpt><trkpt lat="43.9403925681999" lon="12.702421559951611"><ele>33.0</ele><time>2026-04-25T07:47:00Z</time></trkpt><trkpt lat="43.9403532852756" lon="12.702248439539934"><ele>33.0</ele><time>2026-04-25T07:47:01Z</time></trkpt><trkpt lat="43.940307492373556" lon="12.702101051182934"><ele>33.0</ele><time>2026-04-25T07:47:02Z</time></trkpt><trkpt lat="43.94025076390376" lon="12.701974917507385"><ele>33.0</ele><time>2026-04-25T07:47:03Z</time></trkpt><trkpt lat="43.94017358727806" lon="12.701875336965255"><ele>33.199999999999996</ele><time>2026-04-25T07:47:04Z</time></trkpt><trkpt lat="43.940086456629345" lon="12.70181486903419"><ele>33.4</ele><time>2026-04-25T07:47:05Z</time></trkpt><trkpt lat="43.940030493781556" lon="12.701738053677229"><ele>33.599999999999994</ele><time>2026-04-25T07:47:06Z</time></trkpt><trkpt lat="43.93991198726707" lon="12.701826334499957"><ele>33.8</ele><time>2026-04-25T07:47:07Z</time></trkpt><trkpt lat="43.9398384815446" lon="12.701909736944895"><ele>34.0</ele><time>2026-04-25T07:47:08Z</time></trkpt><trkpt lat="43.939777203425315" lon="12.702023680595662"><ele>34.0</ele><time>2026-04-25T07:47:09Z</time></trkpt><trkpt lat="43.939744921657244" lon="12.702167801699897"><ele>34.0</ele><time>2026-04-25T07:47:10Z</time></trkpt><trkpt lat="43.93975575131198" lon="12.702321961487572"><ele>34.0</ele><time>2026-04-25T07:47:11Z</time></trkpt><trkpt lat="43.939700203419314" lon="12.702473797547631"><ele>34.0</ele><time>2026-04-25T07:47:12Z</time></trkpt><trkpt lat="43.939655114226525" lon="12.702616232852957"><ele>33.75</ele><time>2026-04-25T07:47:13Z</time></trkpt><trkpt lat="43.939583122887775" lon="12.702748255352436"><ele>33.5</ele><time>2026-04-25T07:47:14Z</time></trkpt><trkpt lat="43.939467684872575" lon="12.7028554613587"><ele>33.25</ele><time>2026-04-25T07:47:15Z</time></trkpt><trkpt lat="43.93932336350985" lon="12.702917550029307"><ele>33.0</ele><time>2026-04-25T07:47:16Z</time></trkpt><trkpt lat="43.93918979940033" lon="12.703010527817899"><ele>32.75</ele><time>2026-04-25T07:47:17Z</time></trkpt><trkpt lat="43.93907506578259" lon="12.703094219736869"><ele>32.5</ele><time>2026-04-25T07:47:18Z</time></trkpt><trkpt lat="43.93898040515262" lon="12.703191853023664"><ele>32.25</ele><time>2026-04-25T07:47:19Z</time></trkpt><trkpt lat="43.938878380128166" lon="12.703258653202528"><ele>32.0</ele><time>2026-04-25T07:47:20Z</time></trkpt><trkpt lat="43.93879013476569" lon="12.703329092832416"><ele>32.0</ele><time>2026-04-25T07:47:21Z</time></trkpt><trkpt lat="43.9387072542435" lon="12.703393174354613"><ele>32.0</ele><time>2026-04-25T07:47:22Z</time></trkpt><trkpt lat="43.93863144228571" lon="12.7034449191444"><ele>32.0</ele><time>2026-04-25T07:47:23Z</time></trkpt><trkpt lat="43.93856534901524" lon="12.703491338686598"><ele>32.0</ele><time>2026-04-25T07:47:24Z</time></trkpt><trkpt lat="43.9384796705837" lon="12.703556352938723"><ele>32.0</ele><time>2026-04-25T07:47:26Z</time></trkpt><trkpt lat="43.93838568081889" lon="12.703651663819155"><ele>32.4</ele><time>2026-04-25T07:49:21Z</time></trkpt><trkpt lat="43.938328762890976" lon="12.703693983475711"><ele>32.800000000000004</ele><time>2026-04-25T07:49:22Z</time></trkpt><trkpt lat="43.938231193280366" lon="12.703766929054623"><ele>33.2</ele><time>2026-04-25T07:49:23Z</time></trkpt><trkpt lat="43.93813506905388" lon="12.703775324345575"><ele>33.6</ele><time>2026-04-25T07:49:24Z</time></trkpt><trkpt lat="43.938069575151225" lon="12.703807835353235"><ele>34.0</ele><time>2026-04-25T07:49:25Z</time></trkpt><trkpt lat="43.93796290720848" lon="12.70384289411953"><ele>34.0</ele><time>2026-04-25T07:49:27Z</time></trkpt><trkpt lat="43.93783899125593" lon="12.703871061645534"><ele>34.0</ele><time>2026-04-25T07:49:29Z</time></trkpt><trkpt lat="43.937660943790824" lon="12.70405139223179"><ele>34.0</ele><time>2026-04-25T07:49:30Z</time></trkpt><trkpt lat="43.93763639641885" lon="12.704137197295738"><ele>34.0</ele><time>2026-04-25T07:49:31Z</time></trkpt><trkpt lat="43.9376386399232" lon="12.704279681594025"><ele>34.0</ele><time>2026-04-25T07:49:33Z</time></trkpt><trkpt lat="43.93760703109049" lon="12.704181147972482"><ele>34.0</ele><time>2026-04-25T07:49:35Z</time></trkpt><trkpt lat="43.9376123127997" lon="12.704086588578935"><ele>34.0</ele><time>2026-04-25T07:49:36Z</time></trkpt><trkpt lat="43.937492124063986" lon="12.703817147672247"><ele>34.0</ele><time>2026-04-25T07:49:37Z</time></trkpt><trkpt lat="43.937405976656365" lon="12.70377945181817"><ele>34.0</ele><time>2026-04-25T07:49:38Z</time></trkpt><trkpt lat="43.93731957812129" lon="12.70373539647766"><ele>34.0</ele><time>2026-04-25T07:49:39Z</time></trkpt><trkpt lat="43.93724364711568" lon="12.703674551622305"><ele>34.0</ele><time>2026-04-25T07:49:40Z</time></trkpt><trkpt lat="43.937165173335366" lon="12.70359701842969"><ele>34.0</ele><time>2026-04-25T07:49:41Z</time></trkpt><trkpt lat="43.93708059392306" lon="12.70351145596426"><ele>34.0</ele><time>2026-04-25T07:49:42Z</time></trkpt><trkpt lat="43.9370121695347" lon="12.703408213275226"><ele>34.0</ele><time>2026-04-25T07:49:43Z</time></trkpt><trkpt lat="43.93693630081285" lon="12.703300870353265"><ele>34.0</ele><time>2026-04-25T07:49:44Z</time></trkpt><trkpt lat="43.936854048618216" lon="12.703183631580691"><ele>34.0</ele><time>2026-04-25T07:49:45Z</time></trkpt><trkpt lat="43.93677289082435" lon="12.703065586695768"><ele>34.0</ele><time>2026-04-25T07:49:46Z</time></trkpt><trkpt lat="43.93669008046386" lon="12.702942670889847"><ele>34.2</ele><time>2026-04-25T07:49:47Z</time></trkpt><trkpt lat="43.93660111536189" lon="12.702822518581561"><ele>34.4</ele><time>2026-04-25T07:49:48Z</time></trkpt><trkpt lat="43.93651353858621" lon="12.702701362603362"><ele>34.6</ele><time>2026-04-25T07:49:49Z</time></trkpt><trkpt lat="43.936441064805585" lon="12.702594051833136"><ele>34.8</ele><time>2026-04-25T07:49:50Z</time></trkpt><trkpt lat="43.93638056726766" lon="12.702495045365177"><ele>35.0</ele><time>2026-04-25T07:49:51Z</time></trkpt><trkpt lat="43.93632025472642" lon="12.70241561045625"><ele>35.33333333333333</ele><time>2026-04-25T07:49:52Z</time></trkpt><trkpt lat="43.93626140626832" lon="12.702353119928338"><ele>35.666666666666664</ele><time>2026-04-25T07:49:53Z</time></trkpt><trkpt lat="43.93620601086102" lon="12.702278331519988"><ele>36.0</ele><time>2026-04-25T07:49:54Z</time></trkpt><trkpt lat="43.9361736305682" lon="12.702158576544472"><ele>36.333333333333336</ele><time>2026-04-25T07:49:55Z</time></trkpt><trkpt lat="43.93610911046427" lon="12.702057926709541"><ele>36.66666666666667</ele><time>2026-04-25T07:49:56Z</time></trkpt><trkpt lat="43.93604127114464" lon="12.701946272915746"><ele>37.0</ele><time>2026-04-25T07:49:57Z</time></trkpt><trkpt lat="43.93596680541186" lon="12.701828212789401"><ele>37.25</ele><time>2026-04-25T07:49:58Z</time></trkpt><trkpt lat="43.935902345056874" lon="12.701700045826945"><ele>37.5</ele><time>2026-04-25T07:49:59Z</time></trkpt><trkpt lat="43.93584473688014" lon="12.701559900475193"><ele>37.75</ele><time>2026-04-25T07:50:00Z</time></trkpt><trkpt lat="43.93578651929483" lon="12.701397790962806"><ele>38.0</ele><time>2026-04-25T07:50:01Z</time></trkpt><trkpt lat="43.935735503938886" lon="12.70121353503516"><ele>38.0</ele><time>2026-04-25T07:50:02Z</time></trkpt><trkpt lat="43.93569909586323" lon="12.701005945252598"><ele>38.0</ele><time>2026-04-25T07:50:03Z</time></trkpt><trkpt lat="43.93567569430303" lon="12.70081132471034"><ele>38.0</ele><time>2026-04-25T07:50:04Z</time></trkpt><trkpt lat="43.93564833723156" lon="12.700622457654434"><ele>38.0</ele><time>2026-04-25T07:50:05Z</time></trkpt><trkpt lat="43.93561342104498" lon="12.700440233351825"><ele>38.0</ele><time>2026-04-25T07:50:06Z</time></trkpt><trkpt lat="43.93557683450567" lon="12.700266343811613"><ele>38.0</ele><time>2026-04-25T07:50:07Z</time></trkpt><trkpt lat="43.93553461833518" lon="12.700082249655184"><ele>38.0</ele><time>2026-04-25T07:50:08Z</time></trkpt><trkpt lat="43.93548576800935" lon="12.699911159652785"><ele>38.0</ele><time>2026-04-25T07:50:09Z</time></trkpt><trkpt lat="43.93542811691555" lon="12.699735285764474"><ele>38.0</ele><time>2026-04-25T07:50:10Z</time></trkpt><trkpt lat="43.93536881085089" lon="12.699571744726391"><ele>38.0</ele><time>2026-04-25T07:50:11Z</time></trkpt><trkpt lat="43.93530012381218" lon="12.699417991092359"><ele>38.0</ele><time>2026-04-25T07:50:12Z</time></trkpt><trkpt lat="43.935221019297146" lon="12.69928007131038"><ele>38.0</ele><time>2026-04-25T07:50:13Z</time></trkpt><trkpt lat="43.93514497277425" lon="12.699135844896274"><ele>38.0</ele><time>2026-04-25T07:50:14Z</time></trkpt><trkpt lat="43.935055025489454" lon="12.698994550603611"><ele>38.0</ele><time>2026-04-25T07:50:15Z</time></trkpt><trkpt lat="43.93495711663251" lon="12.69885904589803"><ele>38.0</ele><time>2026-04-25T07:50:16Z</time></trkpt><trkpt lat="43.93485225186527" lon="12.69873609136064"><ele>38.0</ele><time>2026-04-25T07:50:17Z</time></trkpt><trkpt lat="43.93475453793931" lon="12.6986145205596"><ele>38.0</ele><time>2026-04-25T07:50:18Z</time></trkpt><trkpt lat="43.93465423478486" lon="12.698498239166634"><ele>38.0</ele><time>2026-04-25T07:50:19Z</time></trkpt><trkpt lat="43.93455955583454" lon="12.698384844624316"><ele>38.0</ele><time>2026-04-25T07:50:20Z</time></trkpt><trkpt lat="43.9344730585453" lon="12.698286744480944"><ele>38.0</ele><time>2026-04-25T07:50:21Z</time></trkpt><trkpt lat="43.93439025863318" lon="12.698212084282478"><ele>38.0</ele><time>2026-04-25T07:50:22Z</time></trkpt><trkpt lat="43.93431490130349" lon="12.698154306659688"><ele>38.0</ele><time>2026-04-25T07:50:23Z</time></trkpt><trkpt lat="43.934242420769685" lon="12.698066158986324"><ele>38.0</ele><time>2026-04-25T07:50:24Z</time></trkpt><trkpt lat="43.93416934913183" lon="12.697949687550121"><ele>38.0</ele><time>2026-04-25T07:50:25Z</time></trkpt><trkpt lat="43.93408311378423" lon="12.69783999473971"><ele>38.0</ele><time>2026-04-25T07:50:26Z</time></trkpt><trkpt lat="43.9339815379842" lon="12.69773929416598"><ele>38.0</ele><time>2026-04-25T07:50:27Z</time></trkpt><trkpt lat="43.93388326071619" lon="12.697607134290749"><ele>38.0</ele><time>2026-04-25T07:50:28Z</time></trkpt><trkpt lat="43.933788223071396" lon="12.697452721872265"><ele>38.0</ele><time>2026-04-25T07:50:29Z</time></trkpt><trkpt lat="43.93368516679791" lon="12.697293573602025"><ele>38.0</ele><time>2026-04-25T07:50:30Z</time></trkpt><trkpt lat="43.93357251051469" lon="12.6971387753915"><ele>38.0</ele><time>2026-04-25T07:50:31Z</time></trkpt><trkpt lat="43.933452381005246" lon="12.696987209197777"><ele>38.0</ele><time>2026-04-25T07:50:32Z</time></trkpt><trkpt lat="43.93333628893544" lon="12.69684441379242"><ele>38.0</ele><time>2026-04-25T07:50:33Z</time></trkpt><trkpt lat="43.93322362718184" lon="12.69670386568036"><ele>38.666666666666664</ele><time>2026-04-25T07:50:34Z</time></trkpt><trkpt lat="43.93310753238057" lon="12.69656398506434"><ele>39.333333333333336</ele><time>2026-04-25T07:50:35Z</time></trkpt><trkpt lat="43.932990339331454" lon="12.696419190084606"><ele>40.0</ele><time>2026-04-25T07:50:36Z</time></trkpt><trkpt lat="43.93287429501591" lon="12.696273564799142"><ele>40.0</ele><time>2026-04-25T07:50:37Z</time></trkpt><trkpt lat="43.932764277526054" lon="12.696121948756408"><ele>40.0</ele><time>2026-04-25T07:50:38Z</time></trkpt><trkpt lat="43.93266029672669" lon="12.695966133724074"><ele>40.0</ele><time>2026-04-25T07:50:39Z</time></trkpt><trkpt lat="43.9325615788998" lon="12.695810646912216"><ele>40.0</ele><time>2026-04-25T07:50:40Z</time></trkpt><trkpt lat="43.93247856611886" lon="12.695639134482061"><ele>40.0</ele><time>2026-04-25T07:50:41Z</time></trkpt><trkpt lat="43.93237702074563" lon="12.695496434941406"><ele>40.0</ele><time>2026-04-25T07:50:42Z</time></trkpt><trkpt lat="43.93228736575146" lon="12.695329895000905"><ele>40.0</ele><time>2026-04-25T07:50:43Z</time></trkpt><trkpt lat="43.9321898167345" lon="12.695153241304629"><ele>40.333333333333336</ele><time>2026-04-25T07:50:44Z</time></trkpt><trkpt lat="43.93208211169158" lon="12.694970365585883"><ele>40.666666666666664</ele><time>2026-04-25T07:50:45Z</time></trkpt><trkpt lat="43.93197332965901" lon="12.694777021438519"><ele>41.0</ele><time>2026-04-25T07:50:46Z</time></trkpt><trkpt lat="43.9318665505937" lon="12.69458685062385"><ele>41.0</ele><time>2026-04-25T07:50:47Z</time></trkpt><trkpt lat="43.931758080536206" lon="12.694407273276743"><ele>41.0</ele><time>2026-04-25T07:50:48Z</time></trkpt><trkpt lat="43.931652253349036" lon="12.69422575813836"><ele>41.0</ele><time>2026-04-25T07:50:49Z</time></trkpt><trkpt lat="43.93154979094543" lon="12.694039537944194"><ele>41.33333333333333</ele><time>2026-04-25T07:50:50Z</time></trkpt><trkpt lat="43.93144584506011" lon="12.693854142865986"><ele>41.666666666666664</ele><time>2026-04-25T07:50:51Z</time></trkpt><trkpt lat="43.931340081002624" lon="12.69367113119727"><ele>42.0</ele><time>2026-04-25T07:50:52Z</time></trkpt><trkpt lat="43.93123543261711" lon="12.69348586928927"><ele>42.333333333333336</ele><time>2026-04-25T07:50:53Z</time></trkpt><trkpt lat="43.93113016624791" lon="12.6932963549812"><ele>42.66666666666667</ele><time>2026-04-25T07:50:54Z</time></trkpt><trkpt lat="43.93102400450561" lon="12.693108651585007"><ele>43.0</ele><time>2026-04-25T07:50:55Z</time></trkpt><trkpt lat="43.930915399116024" lon="12.692922091597387"><ele>42.66666666666667</ele><time>2026-04-25T07:50:56Z</time></trkpt><trkpt lat="43.930805549090145" lon="12.692736480040406"><ele>42.333333333333336</ele><time>2026-04-25T07:50:57Z</time></trkpt><trkpt lat="43.93069696479373" lon="12.692549051379132"><ele>42.0</ele><time>2026-04-25T07:50:58Z</time></trkpt><trkpt lat="43.9305890680848" lon="12.692365365885518"><ele>42.0</ele><time>2026-04-25T07:50:59Z</time></trkpt><trkpt lat="43.930480288888454" lon="12.69217966161405"><ele>42.0</ele><time>2026-04-25T07:51:00Z</time></trkpt><trkpt lat="43.930371176446144" lon="12.691994531275203"><ele>42.0</ele><time>2026-04-25T07:51:01Z</time></trkpt><trkpt lat="43.93026149608753" lon="12.691812100841666"><ele>42.333333333333336</ele><time>2026-04-25T07:51:02Z</time></trkpt><trkpt lat="43.93015032854219" lon="12.6916329629212"><ele>42.66666666666667</ele><time>2026-04-25T07:51:03Z</time></trkpt><trkpt lat="43.930058813251634" lon="12.691448256073755"><ele>43.0</ele><time>2026-04-25T07:51:04Z</time></trkpt><trkpt lat="43.92996076770594" lon="12.691299033684063"><ele>43.25</ele><time>2026-04-25T07:51:05Z</time></trkpt><trkpt lat="43.929876929987095" lon="12.69114889940255"><ele>43.5</ele><time>2026-04-25T07:51:06Z</time></trkpt><trkpt lat="43.92979616906114" lon="12.691011422649071"><ele>43.75</ele><time>2026-04-25T07:51:07Z</time></trkpt><trkpt lat="43.92972396056426" lon="12.690895961093558"><ele>44.0</ele><time>2026-04-25T07:51:08Z</time></trkpt><trkpt lat="43.92967479808386" lon="12.690790566564534"><ele>44.0</ele><time>2026-04-25T07:51:09Z</time></trkpt><trkpt lat="43.92965274234751" lon="12.69067052897389"><ele>44.0</ele><time>2026-04-25T07:51:10Z</time></trkpt><trkpt lat="43.92964754505807" lon="12.69054040640586"><ele>44.0</ele><time>2026-04-25T07:51:11Z</time></trkpt><trkpt lat="43.92961746290999" lon="12.690436638016319"><ele>44.0</ele><time>2026-04-25T07:51:12Z</time></trkpt><trkpt lat="43.92954844179845" lon="12.690371307982746"><ele>44.0</ele><time>2026-04-25T07:51:13Z</time></trkpt><trkpt lat="43.929451397611444" lon="12.690321394645803"><ele>44.0</ele><time>2026-04-25T07:51:14Z</time></trkpt><trkpt lat="43.92935167765029" lon="12.690240078768674"><ele>44.0</ele><time>2026-04-25T07:51:15Z</time></trkpt><trkpt lat="43.92927029610839" lon="12.690102252445698"><ele>44.0</ele><time>2026-04-25T07:51:16Z</time></trkpt><trkpt lat="43.92918855932568" lon="12.689949856840164"><ele>44.0</ele><time>2026-04-25T07:51:17Z</time></trkpt><trkpt lat="43.929096657601264" lon="12.689794999438181"><ele>44.666666666666664</ele><time>2026-04-25T07:51:18Z</time></trkpt><trkpt lat="43.928994870721574" lon="12.689641223874789"><ele>45.333333333333336</ele><time>2026-04-25T07:51:19Z</time></trkpt><trkpt lat="43.92887976113134" lon="12.689492527942363"><ele>46.0</ele><time>2026-04-25T07:51:20Z</time></trkpt><trkpt lat="43.92875674124928" lon="12.689350161132111"><ele>46.0</ele><time>2026-04-25T07:51:21Z</time></trkpt><trkpt lat="43.92862861370853" lon="12.689207990019648"><ele>46.0</ele><time>2026-04-25T07:51:22Z</time></trkpt><trkpt lat="43.92849802943548" lon="12.689067044019785"><ele>46.0</ele><time>2026-04-25T07:51:23Z</time></trkpt><trkpt lat="43.928379173430486" lon="12.688932698664287"><ele>46.25</ele><time>2026-04-25T07:51:24Z</time></trkpt><trkpt lat="43.92826951780559" lon="12.688817411803644"><ele>46.5</ele><time>2026-04-25T07:51:25Z</time></trkpt><trkpt lat="43.92817108546972" lon="12.688712127913515"><ele>46.75</ele><time>2026-04-25T07:51:26Z</time></trkpt><trkpt lat="43.928083027849034" lon="12.688617017435336"><ele>47.0</ele><time>2026-04-25T07:51:27Z</time></trkpt><trkpt lat="43.92800549482595" lon="12.688527110078384"><ele>47.2</ele><time>2026-04-25T07:51:28Z</time></trkpt><trkpt lat="43.9279304387883" lon="12.688445420682108"><ele>47.400000000000006</ele><time>2026-04-25T07:51:29Z</time></trkpt><trkpt lat="43.92785754520689" lon="12.688362602247022"><ele>47.599999999999994</ele><time>2026-04-25T07:51:30Z</time></trkpt><trkpt lat="43.92778206721812" lon="12.688276486345417"><ele>47.8</ele><time>2026-04-25T07:51:31Z</time></trkpt><trkpt lat="43.92770201720084" lon="12.688186140238518"><ele>48.0</ele><time>2026-04-25T07:51:32Z</time></trkpt><trkpt lat="43.927621121665375" lon="12.68807799010398"><ele>47.8</ele><time>2026-04-25T07:51:33Z</time></trkpt><trkpt lat="43.92754653756187" lon="12.687960147197698"><ele>47.599999999999994</ele><time>2026-04-25T07:51:34Z</time></trkpt><trkpt lat="43.927484116098846" lon="12.687836139929415"><ele>47.400000000000006</ele><time>2026-04-25T07:51:35Z</time></trkpt><trkpt lat="43.92742982242467" lon="12.68770753910098"><ele>47.2</ele><time>2026-04-25T07:51:36Z</time></trkpt><trkpt lat="43.927368033833524" lon="12.687579423613998"><ele>47.0</ele><time>2026-04-25T07:51:37Z</time></trkpt><trkpt lat="43.9272995064501" lon="12.687444993358415"><ele>47.5</ele><time>2026-04-25T07:51:38Z</time></trkpt><trkpt lat="43.92723202610056" lon="12.687303492256042"><ele>48.0</ele><time>2026-04-25T07:51:39Z</time></trkpt><trkpt lat="43.927162753812965" lon="12.687158981287347"><ele>48.5</ele><time>2026-04-25T07:51:40Z</time></trkpt><trkpt lat="43.927090214049656" lon="12.687016553769078"><ele>49.0</ele><time>2026-04-25T07:51:41Z</time></trkpt><trkpt lat="43.927021893388975" lon="12.68687145826827"><ele>49.0</ele><time>2026-04-25T07:51:42Z</time></trkpt><trkpt lat="43.92695631507435" lon="12.686721339767956"><ele>49.0</ele><time>2026-04-25T07:51:43Z</time></trkpt><trkpt lat="43.92689142046816" lon="12.686573738739984"><ele>49.0</ele><time>2026-04-25T07:51:44Z</time></trkpt><trkpt lat="43.92681301221159" lon="12.686438855767772"><ele>49.0</ele><time>2026-04-25T07:51:45Z</time></trkpt><trkpt lat="43.92672691293473" lon="12.686306697283237"><ele>49.0</ele><time>2026-04-25T07:51:46Z</time></trkpt><trkpt lat="43.926621818572" lon="12.686176322243421"><ele>49.0</ele><time>2026-04-25T07:51:47Z</time></trkpt><trkpt lat="43.9265044874069" lon="12.686048601036626"><ele>49.0</ele><time>2026-04-25T07:51:48Z</time></trkpt><trkpt lat="43.92638303578736" lon="12.685920526164157"><ele>49.0</ele><time>2026-04-25T07:51:49Z</time></trkpt><trkpt lat="43.92625803329951" lon="12.685788811146736"><ele>49.33333333333333</ele><time>2026-04-25T07:51:50Z</time></trkpt><trkpt lat="43.92613142442282" lon="12.685657370325536"><ele>49.66666666666667</ele><time>2026-04-25T07:51:51Z</time></trkpt><trkpt lat="43.9259937426611" lon="12.685527010030404"><ele>50.0</ele><time>2026-04-25T07:51:52Z</time></trkpt><trkpt lat="43.92585666439014" lon="12.68538564976553"><ele>50.0</ele><time>2026-04-25T07:51:53Z</time></trkpt><trkpt lat="43.92571897098559" lon="12.685246153604346"><ele>50.0</ele><time>2026-04-25T07:51:54Z</time></trkpt><trkpt lat="43.92558185849174" lon="12.685102051776536"><ele>50.0</ele><time>2026-04-25T07:51:55Z</time></trkpt><trkpt lat="43.925445386177024" lon="12.684958523924648"><ele>50.0</ele><time>2026-04-25T07:51:56Z</time></trkpt><trkpt lat="43.925308174200936" lon="12.684815925676888"><ele>50.0</ele><time>2026-04-25T07:51:57Z</time></trkpt><trkpt lat="43.92517270559965" lon="12.68467034480868"><ele>50.0</ele><time>2026-04-25T07:51:58Z</time></trkpt><trkpt lat="43.92504389705728" lon="12.684524524131175"><ele>50.66666666666667</ele><time>2026-04-25T07:51:59Z</time></trkpt><trkpt lat="43.92492426456386" lon="12.684357707436607"><ele>51.33333333333333</ele><time>2026-04-25T07:52:00Z</time></trkpt><trkpt lat="43.924812369438705" lon="12.684172330024214"><ele>52.0</ele><time>2026-04-25T07:52:01Z</time></trkpt><trkpt lat="43.92472292821305" lon="12.683955922042054"><ele>52.0</ele><time>2026-04-25T07:52:02Z</time></trkpt><trkpt lat="43.92462883885416" lon="12.683736577673512"><ele>52.0</ele><time>2026-04-25T07:52:03Z</time></trkpt><trkpt lat="43.92452868870904" lon="12.683520687222236"><ele>52.0</ele><time>2026-04-25T07:52:04Z</time></trkpt><trkpt lat="43.92443349494448" lon="12.683291851252568"><ele>52.0</ele><time>2026-04-25T07:52:05Z</time></trkpt><trkpt lat="43.924338877961524" lon="12.683057836002213"><ele>52.0</ele><time>2026-04-25T07:52:06Z</time></trkpt><trkpt lat="43.92424345116134" lon="12.682828504181668"><ele>52.0</ele><time>2026-04-25T07:52:07Z</time></trkpt><trkpt lat="43.92414787319789" lon="12.682598503371835"><ele>52.0</ele><time>2026-04-25T07:52:08Z</time></trkpt><trkpt lat="43.92405389620947" lon="12.682368057269759"><ele>52.0</ele><time>2026-04-25T07:52:09Z</time></trkpt><trkpt lat="43.92396250007251" lon="12.682137458869887"><ele>52.0</ele><time>2026-04-25T07:52:10Z</time></trkpt><trkpt lat="43.923867826583795" lon="12.681910842570232"><ele>51.666666666666664</ele><time>2026-04-25T07:52:11Z</time></trkpt><trkpt lat="43.923771804421584" lon="12.681688843285938"><ele>51.33333333333333</ele><time>2026-04-25T07:52:12Z</time></trkpt><trkpt lat="43.923681103655845" lon="12.681470727983855"><ele>51.0</ele><time>2026-04-25T07:52:13Z</time></trkpt><trkpt lat="43.923600583856356" lon="12.681249978453868"><ele>51.66666666666667</ele><time>2026-04-25T07:52:14Z</time></trkpt><trkpt lat="43.923518591897036" lon="12.681033870411822"><ele>52.333333333333336</ele><time>2026-04-25T07:52:15Z</time></trkpt><trkpt lat="43.92344795829656" lon="12.680817958185692"><ele>53.0</ele><time>2026-04-25T07:52:16Z</time></trkpt><trkpt lat="43.92338372636887" lon="12.680593191197666"><ele>53.333333333333336</ele><time>2026-04-25T07:52:17Z</time></trkpt><trkpt lat="43.92332318964934" lon="12.68036941196228"><ele>53.66666666666667</ele><time>2026-04-25T07:52:18Z</time></trkpt><trkpt lat="43.92326529375859" lon="12.680140849396501"><ele>54.0</ele><time>2026-04-25T07:52:19Z</time></trkpt><trkpt lat="43.92321387980307" lon="12.679907285211463"><ele>54.66666666666667</ele><time>2026-04-25T07:52:20Z</time></trkpt><trkpt lat="43.92315742421855" lon="12.679667834497446"><ele>55.333333333333336</ele><time>2026-04-25T07:52:21Z</time></trkpt><trkpt lat="43.92309996470736" lon="12.679426879384119"><ele>56.0</ele><time>2026-04-25T07:52:22Z</time></trkpt><trkpt lat="43.923042301628286" lon="12.679183117095262"><ele>56.0</ele><time>2026-04-25T07:52:23Z</time></trkpt><trkpt lat="43.922982856654976" lon="12.678933241090476"><ele>56.0</ele><time>2026-04-25T07:52:24Z</time></trkpt><trkpt lat="43.922922433825754" lon="12.678679927183545"><ele>56.0</ele><time>2026-04-25T07:52:25Z</time></trkpt><trkpt lat="43.92286292041783" lon="12.678429809968494"><ele>56.0</ele><time>2026-04-25T07:52:26Z</time></trkpt><trkpt lat="43.92280054075691" lon="12.678183360872522"><ele>56.0</ele><time>2026-04-25T07:52:27Z</time></trkpt><trkpt lat="43.92273742765898" lon="12.677939504734328"><ele>56.0</ele><time>2026-04-25T07:52:28Z</time></trkpt><trkpt lat="43.92267932545395" lon="12.677711754832272"><ele>56.0</ele><time>2026-04-25T07:52:29Z</time></trkpt><trkpt lat="43.92262554445288" lon="12.677506004289887"><ele>56.0</ele><time>2026-04-25T07:52:30Z</time></trkpt><trkpt lat="43.922577706859705" lon="12.677312000742907"><ele>56.0</ele><time>2026-04-25T07:52:31Z</time></trkpt><trkpt lat="43.92252878367587" lon="12.677131444345552"><ele>56.0</ele><time>2026-04-25T07:52:32Z</time></trkpt><trkpt lat="43.922487394717145" lon="12.67696345356592"><ele>56.0</ele><time>2026-04-25T07:52:33Z</time></trkpt><trkpt lat="43.92244631638182" lon="12.67682201598486"><ele>55.99999999999999</ele><time>2026-04-25T07:52:34Z</time></trkpt><trkpt lat="43.92240705524305" lon="12.676689443109867"><ele>55.99999999999999</ele><time>2026-04-25T07:52:35Z</time></trkpt><trkpt lat="43.92236786070862" lon="12.676559149896482"><ele>56.0</ele><time>2026-04-25T07:52:36Z</time></trkpt><trkpt lat="43.92233125654401" lon="12.6764056793746"><ele>56.0</ele><time>2026-04-25T07:52:37Z</time></trkpt><trkpt lat="43.922298686383165" lon="12.676234250720615"><ele>55.66666666666667</ele><time>2026-04-25T07:52:38Z</time></trkpt><trkpt lat="43.92227977505507" lon="12.676038102193251"><ele>55.33333333333333</ele><time>2026-04-25T07:52:39Z</time></trkpt><trkpt lat="43.922225479728176" lon="12.675837756950184"><ele>55.0</ele><time>2026-04-25T07:52:40Z</time></trkpt><trkpt lat="43.92219121851312" lon="12.675607305863748"><ele>55.0</ele><time>2026-04-25T07:52:41Z</time></trkpt><trkpt lat="43.92215304225678" lon="12.675359579081205"><ele>55.0</ele><time>2026-04-25T07:52:42Z</time></trkpt><trkpt lat="43.92213195375576" lon="12.675093953790492"><ele>55.0</ele><time>2026-04-25T07:52:43Z</time></trkpt><trkpt lat="43.92208104387762" lon="12.674825077047599"><ele>55.0</ele><time>2026-04-25T07:52:44Z</time></trkpt><trkpt lat="43.922054651165666" lon="12.674550234303391"><ele>55.0</ele><time>2026-04-25T07:52:45Z</time></trkpt><trkpt lat="43.922019205067315" lon="12.674299138293488"><ele>55.0</ele><time>2026-04-25T07:52:46Z</time></trkpt><trkpt lat="43.921986293339735" lon="12.674051518026749"><ele>55.33333333333333</ele><time>2026-04-25T07:52:47Z</time></trkpt><trkpt lat="43.92195325985149" lon="12.673808226111024"><ele>55.66666666666667</ele><time>2026-04-25T07:52:48Z</time></trkpt><trkpt lat="43.921920425514934" lon="12.673563336157667"><ele>56.0</ele><time>2026-04-25T07:52:49Z</time></trkpt><trkpt lat="43.92189139729069" lon="12.673330171154287"><ele>56.0</ele><time>2026-04-25T07:52:50Z</time></trkpt><trkpt lat="43.92186226210893" lon="12.673115304104217"><ele>56.0</ele><time>2026-04-25T07:52:51Z</time></trkpt><trkpt lat="43.92184400129472" lon="12.672914037101167"><ele>56.0</ele><time>2026-04-25T07:52:52Z</time></trkpt><trkpt lat="43.921817397690944" lon="12.672717880149424"><ele>56.0</ele><time>2026-04-25T07:52:53Z</time></trkpt><trkpt lat="43.921795960132314" lon="12.672536592086342"><ele>56.199999999999996</ele><time>2026-04-25T07:52:54Z</time></trkpt><trkpt lat="43.921775153670325" lon="12.672372689430507"><ele>56.39999999999999</ele><time>2026-04-25T07:52:55Z</time></trkpt><trkpt lat="43.92175448829947" lon="12.672230872382944"><ele>56.6</ele><time>2026-04-25T07:52:56Z</time></trkpt><trkpt lat="43.92173896554889" lon="12.672102764945814"><ele>56.8</ele><time>2026-04-25T07:52:57Z</time></trkpt><trkpt lat="43.92174389635902" lon="12.67197652178413"><ele>57.0</ele><time>2026-04-25T07:52:58Z</time></trkpt><trkpt lat="43.921772552615444" lon="12.671844168572576"><ele>57.0</ele><time>2026-04-25T07:52:59Z</time></trkpt><trkpt lat="43.921773848854166" lon="12.671717908328956"><ele>57.0</ele><time>2026-04-25T07:53:00Z</time></trkpt><trkpt lat="43.92173571034798" lon="12.67159493454935"><ele>57.0</ele><time>2026-04-25T07:53:01Z</time></trkpt><trkpt lat="43.92167240623291" lon="12.671460328481093"><ele>57.0</ele><time>2026-04-25T07:53:02Z</time></trkpt><trkpt lat="43.92162282402473" lon="12.671293707262366"><ele>57.0</ele><time>2026-04-25T07:53:03Z</time></trkpt><trkpt lat="43.921613416186524" lon="12.671097256904739"><ele>57.75</ele><time>2026-04-25T07:53:04Z</time></trkpt><trkpt lat="43.92158680795052" lon="12.6709000648828"><ele>58.5</ele><time>2026-04-25T07:53:05Z</time></trkpt><trkpt lat="43.92154584576469" lon="12.670707378584835"><ele>59.25</ele><time>2026-04-25T07:53:06Z</time></trkpt><trkpt lat="43.92152402869683" lon="12.670512526212732"><ele>60.0</ele><time>2026-04-25T07:53:07Z</time></trkpt><trkpt lat="43.921499757215145" lon="12.67032119801421"><ele>60.25</ele><time>2026-04-25T07:53:08Z</time></trkpt><trkpt lat="43.92147488472961" lon="12.670137265587488"><ele>60.5</ele><time>2026-04-25T07:53:09Z</time></trkpt><trkpt lat="43.92144806422558" lon="12.669950928813515"><ele>60.75</ele><time>2026-04-25T07:53:10Z</time></trkpt><trkpt lat="43.92143109620622" lon="12.66976487267531"><ele>61.0</ele><time>2026-04-25T07:53:11Z</time></trkpt><trkpt lat="43.92140535380944" lon="12.669574704308413"><ele>60.0</ele><time>2026-04-25T07:53:12Z</time></trkpt><trkpt lat="43.921378401097684" lon="12.669383527723737"><ele>59.0</ele><time>2026-04-25T07:53:13Z</time></trkpt><trkpt lat="43.92135189687871" lon="12.669190607400118"><ele>58.0</ele><time>2026-04-25T07:53:14Z</time></trkpt><trkpt lat="43.92132751846791" lon="12.668994158829921"><ele>57.0</ele><time>2026-04-25T07:53:15Z</time></trkpt><trkpt lat="43.92129994979735" lon="12.668796455000033"><ele>57.0</ele><time>2026-04-25T07:53:16Z</time></trkpt><trkpt lat="43.92127251220264" lon="12.668592487928066"><ele>57.0</ele><time>2026-04-25T07:53:17Z</time></trkpt><trkpt lat="43.921246665356534" lon="12.66838664507941"><ele>57.0</ele><time>2026-04-25T07:53:18Z</time></trkpt><trkpt lat="43.92122109229247" lon="12.668177515690887"><ele>57.0</ele><time>2026-04-25T07:53:19Z</time></trkpt><trkpt lat="43.921193154946245" lon="12.667967286565926"><ele>57.0</ele><time>2026-04-25T07:53:20Z</time></trkpt><trkpt lat="43.921162075357145" lon="12.667757034928114"><ele>57.0</ele><time>2026-04-25T07:53:21Z</time></trkpt><trkpt lat="43.92113178033984" lon="12.667542107680209"><ele>57.0</ele><time>2026-04-25T07:53:22Z</time></trkpt><trkpt lat="43.921102717124995" lon="12.66732893848723"><ele>57.0</ele><time>2026-04-25T07:53:23Z</time></trkpt><trkpt lat="43.92106919339634" lon="12.667116950995347"><ele>57.0</ele><time>2026-04-25T07:53:24Z</time></trkpt><trkpt lat="43.92102421205964" lon="12.666909086984516"><ele>57.0</ele><time>2026-04-25T07:53:25Z</time></trkpt><trkpt lat="43.92097766421925" lon="12.66670649808252"><ele>57.0</ele><time>2026-04-25T07:53:26Z</time></trkpt><trkpt lat="43.92091216117202" lon="12.666503569815022"><ele>57.0</ele><time>2026-04-25T07:53:27Z</time></trkpt><trkpt lat="43.92083187287153" lon="12.666300211034972"><ele>59.0</ele><time>2026-04-25T07:53:28Z</time></trkpt><trkpt lat="43.92074920536522" lon="12.666099086360624"><ele>61.0</ele><time>2026-04-25T07:53:29Z</time></trkpt><trkpt lat="43.92066667554893" lon="12.665914072324771"><ele>63.0</ele><time>2026-04-25T07:53:30Z</time></trkpt><trkpt lat="43.920585659404125" lon="12.665744434461875"><ele>63.0</ele><time>2026-04-25T07:53:31Z</time></trkpt><trkpt lat="43.92050696126185" lon="12.665567343624376"><ele>63.0</ele><time>2026-04-25T07:53:32Z</time></trkpt><trkpt lat="43.92042998327075" lon="12.66538469984803"><ele>63.0</ele><time>2026-04-25T07:53:33Z</time></trkpt><trkpt lat="43.92035457904613" lon="12.665205476026319"><ele>63.33333333333333</ele><time>2026-04-25T07:53:34Z</time></trkpt><trkpt lat="43.92027587883462" lon="12.665022364723002"><ele>63.666666666666664</ele><time>2026-04-25T07:53:35Z</time></trkpt><trkpt lat="43.92019560430487" lon="12.664835975540631"><ele>64.0</ele><time>2026-04-25T07:53:36Z</time></trkpt><trkpt lat="43.92011484461102" lon="12.664648127989823"><ele>64.66666666666666</ele><time>2026-04-25T07:53:37Z</time></trkpt><trkpt lat="43.92003972686891" lon="12.664452883473661"><ele>65.33333333333333</ele><time>2026-04-25T07:53:38Z</time></trkpt><trkpt lat="43.919994853284095" lon="12.664237338752672"><ele>66.0</ele><time>2026-04-25T07:53:39Z</time></trkpt><trkpt lat="43.91994420030002" lon="12.664026156658528"><ele>66.0</ele><time>2026-04-25T07:53:40Z</time></trkpt><trkpt lat="43.919894129223465" lon="12.663812391777144"><ele>66.0</ele><time>2026-04-25T07:53:41Z</time></trkpt><trkpt lat="43.91982943390476" lon="12.66360409485974"><ele>66.0</ele><time>2026-04-25T07:53:42Z</time></trkpt><trkpt lat="43.91978211777389" lon="12.663392930332869"><ele>66.0</ele><time>2026-04-25T07:53:43Z</time></trkpt><trkpt lat="43.919733932729876" lon="12.6631817729212"><ele>66.0</ele><time>2026-04-25T07:53:44Z</time></trkpt><trkpt lat="43.91968671562299" lon="12.662969075283847"><ele>66.0</ele><time>2026-04-25T07:53:45Z</time></trkpt><trkpt lat="43.919639989202864" lon="12.662759845380581"><ele>66.0</ele><time>2026-04-25T07:53:46Z</time></trkpt><trkpt lat="43.91958185067812" lon="12.662551204218401"><ele>66.0</ele><time>2026-04-25T07:53:47Z</time></trkpt><trkpt lat="43.91951432925235" lon="12.662343078101715"><ele>66.0</ele><time>2026-04-25T07:53:48Z</time></trkpt><trkpt lat="43.91943602692387" lon="12.662135368692137"><ele>66.0</ele><time>2026-04-25T07:53:49Z</time></trkpt><trkpt lat="43.919337889439504" lon="12.661939535897469"><ele>66.0</ele><time>2026-04-25T07:53:50Z</time></trkpt><trkpt lat="43.91923089006413" lon="12.661754327320919"><ele>66.0</ele><time>2026-04-25T07:53:51Z</time></trkpt><trkpt lat="43.91912203818588" lon="12.661572088515967"><ele>66.66666666666667</ele><time>2026-04-25T07:53:52Z</time></trkpt><trkpt lat="43.91901713934508" lon="12.661392226701233"><ele>67.33333333333334</ele><time>2026-04-25T07:53:53Z</time></trkpt><trkpt lat="43.91891593930599" lon="12.661219010800442"><ele>68.0</ele><time>2026-04-25T07:53:54Z</time></trkpt><trkpt lat="43.91881568228928" lon="12.661043975948175"><ele>68.66666666666667</ele><time>2026-04-25T07:53:55Z</time></trkpt><trkpt lat="43.91871844685316" lon="12.66087400872272"><ele>69.33333333333333</ele><time>2026-04-25T07:53:56Z</time></trkpt><trkpt lat="43.91862137169612" lon="12.66070724110775"><ele>70.0</ele><time>2026-04-25T07:53:57Z</time></trkpt><trkpt lat="43.91852431350353" lon="12.660538159016903"><ele>70.0</ele><time>2026-04-25T07:53:58Z</time></trkpt><trkpt lat="43.91843068479967" lon="12.660370525208217"><ele>70.0</ele><time>2026-04-25T07:53:59Z</time></trkpt><trkpt lat="43.91834247579165" lon="12.66020282833517"><ele>70.0</ele><time>2026-04-25T07:54:00Z</time></trkpt><trkpt lat="43.91826218390047" lon="12.66005083794473"><ele>70.0</ele><time>2026-04-25T07:54:01Z</time></trkpt><trkpt lat="43.91818622287133" lon="12.659911273938468"><ele>70.0</ele><time>2026-04-25T07:54:02Z</time></trkpt><trkpt lat="43.918117437141355" lon="12.659780429500957"><ele>70.0</ele><time>2026-04-25T07:54:03Z</time></trkpt><trkpt lat="43.91804904978706" lon="12.659659137360642"><ele>70.0</ele><time>2026-04-25T07:54:04Z</time></trkpt><trkpt lat="43.91797770951521" lon="12.65953935516015"><ele>70.0</ele><time>2026-04-25T07:54:05Z</time></trkpt><trkpt lat="43.917909383906846" lon="12.659433984849178"><ele>70.0</ele><time>2026-04-25T07:54:06Z</time></trkpt><trkpt lat="43.917848821261586" lon="12.659340383975042"><ele>70.0</ele><time>2026-04-25T07:54:07Z</time></trkpt><trkpt lat="43.917793764728515" lon="12.659246673660055"><ele>70.0</ele><time>2026-04-25T07:54:08Z</time></trkpt><trkpt lat="43.91774296149984" lon="12.659172202122999"><ele>70.0</ele><time>2026-04-25T07:54:09Z</time></trkpt><trkpt lat="43.91769314110193" lon="12.659112765380744"><ele>70.0</ele><time>2026-04-25T07:54:10Z</time></trkpt><trkpt lat="43.91764574741379" lon="12.659028409790535"><ele>70.0</ele><time>2026-04-25T07:54:11Z</time></trkpt><trkpt lat="43.917596165029885" lon="12.65891889085203"><ele>70.0</ele><time>2026-04-25T07:54:12Z</time></trkpt><trkpt lat="43.91753261453808" lon="12.658794347362482"><ele>70.25</ele><time>2026-04-25T07:54:13Z</time></trkpt><trkpt lat="43.91746413550589" lon="12.658656826006776"><ele>70.5</ele><time>2026-04-25T07:54:14Z</time></trkpt><trkpt lat="43.91739048132342" lon="12.65851103655808"><ele>70.75</ele><time>2026-04-25T07:54:15Z</time></trkpt><trkpt lat="43.917308713262564" lon="12.65836577186855"><ele>71.0</ele><time>2026-04-25T07:54:16Z</time></trkpt><trkpt lat="43.9172354609696" lon="12.658235077569236"><ele>71.25</ele><time>2026-04-25T07:54:17Z</time></trkpt><trkpt lat="43.917158612080264" lon="12.65810530524732"><ele>71.5</ele><time>2026-04-25T07:54:18Z</time></trkpt><trkpt lat="43.91708276881994" lon="12.65797336320085"><ele>71.75</ele><time>2026-04-25T07:54:19Z</time></trkpt><trkpt lat="43.917015106369284" lon="12.657844425335727"><ele>72.0</ele><time>2026-04-25T07:54:20Z</time></trkpt><trkpt lat="43.91695454393395" lon="12.657732622254187"><ele>72.33333333333333</ele><time>2026-04-25T07:54:21Z</time></trkpt><trkpt lat="43.91689921758119" lon="12.657635423891437"><ele>72.66666666666667</ele><time>2026-04-25T07:54:22Z</time></trkpt><trkpt lat="43.91685355436793" lon="12.657548192274076"><ele>73.0</ele><time>2026-04-25T07:54:23Z</time></trkpt><trkpt lat="43.91681319015487" lon="12.657466872763457"><ele>73.33333333333334</ele><time>2026-04-25T07:54:24Z</time></trkpt><trkpt lat="43.91677677092764" lon="12.657391704249443"><ele>73.66666666666667</ele><time>2026-04-25T07:54:25Z</time></trkpt><trkpt lat="43.91672068519133" lon="12.657284910808524"><ele>74.0</ele><time>2026-04-25T07:54:27Z</time></trkpt><trkpt lat="43.91667148011924" lon="12.657199065145344"><ele>74.0</ele><time>2026-04-25T07:54:29Z</time></trkpt><trkpt lat="43.916613328814364" lon="12.657100399127195"><ele>74.0</ele><time>2026-04-25T07:54:31Z</time></trkpt><trkpt lat="43.91657341054982" lon="12.657029805006157"><ele>74.0</ele><time>2026-04-25T07:54:33Z</time></trkpt><trkpt lat="43.91653226511018" lon="12.656909309979122"><ele>74.0</ele><time>2026-04-25T07:54:35Z</time></trkpt><trkpt lat="43.91649205976756" lon="12.656824699821534"><ele>74.0</ele><time>2026-04-25T07:54:36Z</time></trkpt><trkpt lat="43.91644134348339" lon="12.656746433132716"><ele>74.0</ele><time>2026-04-25T07:54:37Z</time></trkpt><trkpt lat="43.91639055661623" lon="12.656674001816612"><ele>74.0</ele><time>2026-04-25T07:54:38Z</time></trkpt><trkpt lat="43.91634612042777" lon="12.656605730719686"><ele>74.0</ele><time>2026-04-25T07:54:39Z</time></trkpt><trkpt lat="43.91631036043998" lon="12.656533431000382"><ele>74.0</ele><time>2026-04-25T07:54:40Z</time></trkpt><trkpt lat="43.91624639450902" lon="12.656423291353974"><ele>74.0</ele><time>2026-04-25T07:54:42Z</time></trkpt><trkpt lat="43.91620112355466" lon="12.656339753224723"><ele>74.0</ele><time>2026-04-25T07:54:44Z</time></trkpt><trkpt lat="43.91614287008803" lon="12.656237251683025"><ele>74.0</ele><time>2026-04-25T07:54:46Z</time></trkpt><trkpt lat="43.916105859606354" lon="12.656161581453066"><ele>74.16666666666667</ele><time>2026-04-25T07:54:47Z</time></trkpt><trkpt lat="43.91606355323734" lon="12.656071934713875"><ele>74.33333333333334</ele><time>2026-04-25T07:54:48Z</time></trkpt><trkpt lat="43.916017643509285" lon="12.65596541569836"><ele>74.5</ele><time>2026-04-25T07:54:49Z</time></trkpt><trkpt lat="43.91596708484007" lon="12.655853267024396"><ele>74.66666666666667</ele><time>2026-04-25T07:54:50Z</time></trkpt><trkpt lat="43.915928834367065" lon="12.655761835156799"><ele>74.83333333333333</ele><time>2026-04-25T07:54:51Z</time></trkpt><trkpt lat="43.915898362763315" lon="12.655675435411595"><ele>75.0</ele><time>2026-04-25T07:54:52Z</time></trkpt><trkpt lat="43.91586428497939" lon="12.655486181126376"><ele>75.0</ele><time>2026-04-25T07:54:54Z</time></trkpt><trkpt lat="43.91583843468467" lon="12.655346496655705"><ele>75.0</ele><time>2026-04-25T07:54:55Z</time></trkpt><trkpt lat="43.915801247753016" lon="12.655187588125173"><ele>75.0</ele><time>2026-04-25T07:54:56Z</time></trkpt><trkpt lat="43.915766419087056" lon="12.655027137179877"><ele>75.0</ele><time>2026-04-25T07:54:57Z</time></trkpt><trkpt lat="43.9157344337176" lon="12.654877005689773"><ele>75.2</ele><time>2026-04-25T07:54:58Z</time></trkpt><trkpt lat="43.91570353554478" lon="12.654725941160637"><ele>75.4</ele><time>2026-04-25T07:54:59Z</time></trkpt><trkpt lat="43.91567408025485" lon="12.65457930255824"><ele>75.6</ele><time>2026-04-25T07:55:00Z</time></trkpt><trkpt lat="43.91564422423564" lon="12.654433452233292"><ele>75.8</ele><time>2026-04-25T07:55:01Z</time></trkpt><trkpt lat="43.915619339995736" lon="12.654295092954252"><ele>76.0</ele><time>2026-04-25T07:55:02Z</time></trkpt><trkpt lat="43.91559759750344" lon="12.654159096769643"><ele>76.25</ele><time>2026-04-25T07:55:03Z</time></trkpt><trkpt lat="43.915571613458624" lon="12.654024631061462"><ele>76.5</ele><time>2026-04-25T07:55:04Z</time></trkpt><trkpt lat="43.91553777234443" lon="12.653884788789636"><ele>76.75</ele><time>2026-04-25T07:55:05Z</time></trkpt><trkpt lat="43.91550033147031" lon="12.653727916526337"><ele>77.0</ele><time>2026-04-25T07:55:06Z</time></trkpt><trkpt lat="43.91548009444142" lon="12.653545980064358"><ele>77.0</ele><time>2026-04-25T07:55:07Z</time></trkpt><trkpt lat="43.91544279675325" lon="12.65335944645869"><ele>77.0</ele><time>2026-04-25T07:55:08Z</time></trkpt><trkpt lat="43.9153938514261" lon="12.653191575381438"><ele>77.0</ele><time>2026-04-25T07:55:09Z</time></trkpt><trkpt lat="43.91536888544351" lon="12.653038002911968"><ele>77.0</ele><time>2026-04-25T07:55:10Z</time></trkpt><trkpt lat="43.915345689994055" lon="12.652898729978403"><ele>77.16666666666667</ele><time>2026-04-25T07:55:11Z</time></trkpt><trkpt lat="43.91532179708331" lon="12.652777212497394"><ele>77.33333333333334</ele><time>2026-04-25T07:55:12Z</time></trkpt><trkpt lat="43.91530100713922" lon="12.652671916685202"><ele>77.5</ele><time>2026-04-25T07:55:13Z</time></trkpt><trkpt lat="43.91528192773827" lon="12.652583809074969"><ele>77.66666666666667</ele><time>2026-04-25T07:55:14Z</time></trkpt><trkpt lat="43.91525991421075" lon="12.652445646750612"><ele>77.83333333333333</ele><time>2026-04-25T07:55:16Z</time></trkpt><trkpt lat="43.91522641226052" lon="12.652314121001146"><ele>78.0</ele><time>2026-04-25T07:55:18Z</time></trkpt><trkpt lat="43.91521588242252" lon="12.652175423077724"><ele>78.0</ele><time>2026-04-25T07:55:20Z</time></trkpt><trkpt lat="43.915196074201425" lon="12.652058861806234"><ele>78.0</ele><time>2026-04-25T07:55:22Z</time></trkpt><trkpt lat="43.915135547395494" lon="12.651962145032188"><ele>78.0</ele><time>2026-04-25T07:55:24Z</time></trkpt><trkpt lat="43.91510809662471" lon="12.651845305571197"><ele>78.0</ele><time>2026-04-25T07:55:26Z</time></trkpt><trkpt lat="43.91505236168857" lon="12.651763998015031"><ele>78.0</ele><time>2026-04-25T07:55:28Z</time></trkpt><trkpt lat="43.91493771497468" lon="12.651751136646574"><ele>77.83333333333333</ele><time>2026-04-25T07:55:30Z</time></trkpt><trkpt lat="43.91486988949294" lon="12.651733500715478"><ele>77.66666666666667</ele><time>2026-04-25T07:55:31Z</time></trkpt><trkpt lat="43.9148034465577" lon="12.651688706708695"><ele>77.5</ele><time>2026-04-25T07:55:32Z</time></trkpt><trkpt lat="43.91475931432673" lon="12.651615620949928"><ele>77.33333333333334</ele><time>2026-04-25T07:55:33Z</time></trkpt><trkpt lat="43.91468970978308" lon="12.651574122246956"><ele>77.16666666666667</ele><time>2026-04-25T07:55:34Z</time></trkpt><trkpt lat="43.91462146701317" lon="12.651506148137566"><ele>77.0</ele><time>2026-04-25T07:55:35Z</time></trkpt><trkpt lat="43.91455162596961" lon="12.651426681243429"><ele>77.0</ele><time>2026-04-25T07:55:36Z</time></trkpt><trkpt lat="43.914483762731706" lon="12.651343833404983"><ele>77.0</ele><time>2026-04-25T07:55:37Z</time></trkpt><trkpt lat="43.914419306713796" lon="12.651279508108292"><ele>77.0</ele><time>2026-04-25T07:55:38Z</time></trkpt><trkpt lat="43.914353175144385" lon="12.651211969145285"><ele>77.0</ele><time>2026-04-25T07:55:39Z</time></trkpt><trkpt lat="43.91428311455605" lon="12.651139715514637"><ele>77.0</ele><time>2026-04-25T07:55:40Z</time></trkpt><trkpt lat="43.91421214907262" lon="12.651065102722832"><ele>77.0</ele><time>2026-04-25T07:55:41Z</time></trkpt><trkpt lat="43.914133129112514" lon="12.650991838315809"><ele>77.6</ele><time>2026-04-25T07:55:42Z</time></trkpt><trkpt lat="43.9140543555541" lon="12.65091629701353"><ele>78.2</ele><time>2026-04-25T07:55:43Z</time></trkpt><trkpt lat="43.913976039945105" lon="12.650841676040109"><ele>78.8</ele><time>2026-04-25T07:55:44Z</time></trkpt><trkpt lat="43.91390137500009" lon="12.650762075786043"><ele>79.4</ele><time>2026-04-25T07:55:45Z</time></trkpt><trkpt lat="43.913822714352435" lon="12.650681820402005"><ele>80.0</ele><time>2026-04-25T07:55:46Z</time></trkpt><trkpt lat="43.913747277126" lon="12.650593224492658"><ele>80.0</ele><time>2026-04-25T07:55:47Z</time></trkpt><trkpt lat="43.913662188270784" lon="12.65050919550784"><ele>80.0</ele><time>2026-04-25T07:55:48Z</time></trkpt><trkpt lat="43.91357931877984" lon="12.650423567219038"><ele>80.0</ele><time>2026-04-25T07:55:49Z</time></trkpt><trkpt lat="43.91350262190388" lon="12.65034136786279"><ele>80.0</ele><time>2026-04-25T07:55:50Z</time></trkpt><trkpt lat="43.91343386587816" lon="12.650271770576062"><ele>80.0</ele><time>2026-04-25T07:55:51Z</time></trkpt><trkpt lat="43.913369038434624" lon="12.650211193629053"><ele>80.33333333333334</ele><time>2026-04-25T07:55:52Z</time></trkpt><trkpt lat="43.91329965686418" lon="12.650140515986394"><ele>80.66666666666667</ele><time>2026-04-25T07:55:53Z</time></trkpt><trkpt lat="43.913240578713314" lon="12.650080757653066"><ele>81.0</ele><time>2026-04-25T07:55:54Z</time></trkpt><trkpt lat="43.913146945295" lon="12.649975451453495"><ele>81.33333333333333</ele><time>2026-04-25T07:55:56Z</time></trkpt><trkpt lat="43.9130732603219" lon="12.649899152390077"><ele>81.66666666666666</ele><time>2026-04-25T07:55:58Z</time></trkpt><trkpt lat="43.913012223733375" lon="12.649843045540099"><ele>82.0</ele><time>2026-04-25T07:56:00Z</time></trkpt><trkpt lat="43.912918644878665" lon="12.649866845791466"><ele>82.0</ele><time>2026-04-25T07:56:03Z</time></trkpt><trkpt lat="43.91286156419876" lon="12.649949097307582"><ele>82.0</ele><time>2026-04-25T07:56:04Z</time></trkpt><trkpt lat="43.912824736432775" lon="12.650072064544371"><ele>82.0</ele><time>2026-04-25T07:56:05Z</time></trkpt><trkpt lat="43.91276089299808" lon="12.650200727276072"><ele>82.0</ele><time>2026-04-25T07:56:06Z</time></trkpt><trkpt lat="43.91268925338953" lon="12.650330422915616"><ele>82.0</ele><time>2026-04-25T07:56:07Z</time></trkpt><trkpt lat="43.91263568394054" lon="12.650442171455236"><ele>82.0</ele><time>2026-04-25T07:56:08Z</time></trkpt><trkpt lat="43.91259301454079" lon="12.650524765576701"><ele>82.0</ele><time>2026-04-25T07:56:09Z</time></trkpt><trkpt lat="43.91254619650119" lon="12.650586784755907"><ele>82.0</ele><time>2026-04-25T07:56:10Z</time></trkpt><trkpt lat="43.91248554910625" lon="12.650670305627976"><ele>82.0</ele><time>2026-04-25T07:56:11Z</time></trkpt><trkpt lat="43.9124158556695" lon="12.650785579639807"><ele>82.0</ele><time>2026-04-25T07:56:12Z</time></trkpt><trkpt lat="43.9123294236325" lon="12.650902437146518"><ele>82.5</ele><time>2026-04-25T07:56:13Z</time></trkpt><trkpt lat="43.912236128149395" lon="12.651010458190463"><ele>83.0</ele><time>2026-04-25T07:56:14Z</time></trkpt><trkpt lat="43.912133504573404" lon="12.651103944443031"><ele>83.5</ele><time>2026-04-25T07:56:15Z</time></trkpt><trkpt lat="43.912031175948684" lon="12.651198228195167"><ele>84.0</ele><time>2026-04-25T07:56:16Z</time></trkpt><trkpt lat="43.91192771408596" lon="12.651301300515785"><ele>84.0</ele><time>2026-04-25T07:56:17Z</time></trkpt><trkpt lat="43.911829252501136" lon="12.651401980276708"><ele>84.0</ele><time>2026-04-25T07:56:18Z</time></trkpt><trkpt lat="43.9117312399553" lon="12.65150780096904"><ele>84.0</ele><time>2026-04-25T07:56:19Z</time></trkpt><trkpt lat="43.911624454311124" lon="12.65161738559429"><ele>84.0</ele><time>2026-04-25T07:56:20Z</time></trkpt><trkpt lat="43.91151749424115" lon="12.65171697443411"><ele>85.0</ele><time>2026-04-25T07:56:21Z</time></trkpt><trkpt lat="43.91141664198189" lon="12.651820818171055"><ele>86.0</ele><time>2026-04-25T07:56:22Z</time></trkpt><trkpt lat="43.911326742822034" lon="12.65192985485383"><ele>87.0</ele><time>2026-04-25T07:56:23Z</time></trkpt><trkpt lat="43.911256066108436" lon="12.652023572956061"><ele>88.0</ele><time>2026-04-25T07:56:24Z</time></trkpt><trkpt lat="43.911181955618545" lon="12.652119730816839"><ele>89.0</ele><time>2026-04-25T07:56:25Z</time></trkpt><trkpt lat="43.9111218033725" lon="12.652236777615947"><ele>89.25</ele><time>2026-04-25T07:56:26Z</time></trkpt><trkpt lat="43.91108279989717" lon="12.652388221350705"><ele>89.5</ele><time>2026-04-25T07:56:27Z</time></trkpt><trkpt lat="43.911055635232465" lon="12.652568477175441"><ele>89.75</ele><time>2026-04-25T07:56:28Z</time></trkpt><trkpt lat="43.911015286461776" lon="12.652755362273805"><ele>90.0</ele><time>2026-04-25T07:56:29Z</time></trkpt><trkpt lat="43.910968106767136" lon="12.652927308613343"><ele>90.2</ele><time>2026-04-25T07:56:30Z</time></trkpt><trkpt lat="43.910925988381535" lon="12.653053711688832"><ele>90.4</ele><time>2026-04-25T07:56:31Z</time></trkpt><trkpt lat="43.91089055438381" lon="12.653159776814515"><ele>90.6</ele><time>2026-04-25T07:56:32Z</time></trkpt><trkpt lat="43.910858753520806" lon="12.653250446998998"><ele>90.8</ele><time>2026-04-25T07:56:33Z</time></trkpt><trkpt lat="43.9107912369532" lon="12.653401709942452"><ele>91.0</ele><time>2026-04-25T07:56:35Z</time></trkpt><trkpt lat="43.910752392043584" lon="12.653480603992943"><ele>93.0</ele><time>2026-04-25T07:56:36Z</time></trkpt><trkpt lat="43.910712356546405" lon="12.653569020481887"><ele>95.0</ele><time>2026-04-25T07:56:37Z</time></trkpt><trkpt lat="43.910664108827284" lon="12.653658686825109"><ele>97.0</ele><time>2026-04-25T07:56:38Z</time></trkpt><trkpt lat="43.91060756744146" lon="12.653752482267826"><ele>99.0</ele><time>2026-04-25T07:56:39Z</time></trkpt><trkpt lat="43.910544699037786" lon="12.653864841508835"><ele>101.0</ele><time>2026-04-25T07:56:40Z</time></trkpt><trkpt lat="43.91048744334075" lon="12.65399025524495"><ele>101.0</ele><time>2026-04-25T07:56:41Z</time></trkpt><trkpt lat="43.910449982181404" lon="12.654107420296182"><ele>101.0</ele><time>2026-04-25T07:56:42Z</time></trkpt><trkpt lat="43.910418371036236" lon="12.654242634479113"><ele>101.0</ele><time>2026-04-25T07:56:43Z</time></trkpt><trkpt lat="43.9103948637984" lon="12.65438976739584"><ele>101.0</ele><time>2026-04-25T07:56:44Z</time></trkpt><trkpt lat="43.91036950056186" lon="12.654548769698334"><ele>101.0</ele><time>2026-04-25T07:56:45Z</time></trkpt><trkpt lat="43.91033644850642" lon="12.654710133240112"><ele>100.25</ele><time>2026-04-25T07:56:46Z</time></trkpt><trkpt lat="43.91030174607916" lon="12.654877581461971"><ele>99.5</ele><time>2026-04-25T07:56:47Z</time></trkpt><trkpt lat="43.910264525805125" lon="12.655035294820419"><ele>98.75</ele><time>2026-04-25T07:56:48Z</time></trkpt><trkpt lat="43.91022977938704" lon="12.65518958572233"><ele>98.0</ele><time>2026-04-25T07:56:49Z</time></trkpt><trkpt lat="43.91019359681936" lon="12.655343861002457"><ele>96.5</ele><time>2026-04-25T07:56:50Z</time></trkpt><trkpt lat="43.91015665875413" lon="12.655499727628998"><ele>95.0</ele><time>2026-04-25T07:56:51Z</time></trkpt><trkpt lat="43.910129334165596" lon="12.655655005034284"><ele>93.5</ele><time>2026-04-25T07:56:52Z</time></trkpt><trkpt lat="43.91012372162283" lon="12.655811852166877"><ele>92.0</ele><time>2026-04-25T07:56:53Z</time></trkpt><trkpt lat="43.91014105975925" lon="12.655963789202195"><ele>92.0</ele><time>2026-04-25T07:56:54Z</time></trkpt><trkpt lat="43.91019826925395" lon="12.656118471718667"><ele>92.0</ele><time>2026-04-25T07:56:55Z</time></trkpt><trkpt lat="43.910243680154586" lon="12.656289284653292"><ele>92.0</ele><time>2026-04-25T07:56:56Z</time></trkpt><trkpt lat="43.91031993842206" lon="12.65645510841097"><ele>92.0</ele><time>2026-04-25T07:56:57Z</time></trkpt><trkpt lat="43.91038045994639" lon="12.656624575788298"><ele>90.25</ele><time>2026-04-25T07:56:58Z</time></trkpt><trkpt lat="43.91043732977247" lon="12.656798064236257"><ele>88.5</ele><time>2026-04-25T07:56:59Z</time></trkpt><trkpt lat="43.91048041625882" lon="12.656983600146434"><ele>86.75</ele><time>2026-04-25T07:57:00Z</time></trkpt><trkpt lat="43.91051413577978" lon="12.657166743373182"><ele>85.0</ele><time>2026-04-25T07:57:01Z</time></trkpt><trkpt lat="43.91053939467244" lon="12.657351244468082"><ele>84.0</ele><time>2026-04-25T07:57:02Z</time></trkpt><trkpt lat="43.91055727038469" lon="12.65754640618714"><ele>83.0</ele><time>2026-04-25T07:57:03Z</time></trkpt><trkpt lat="43.91056365124179" lon="12.657742651698609"><ele>82.0</ele><time>2026-04-25T07:57:04Z</time></trkpt><trkpt lat="43.91055812857113" lon="12.657931290010037"><ele>81.0</ele><time>2026-04-25T07:57:05Z</time></trkpt><trkpt lat="43.91055006385845" lon="12.658107649194525"><ele>80.0</ele><time>2026-04-25T07:57:06Z</time></trkpt><trkpt lat="43.91053892663028" lon="12.65827698674011"><ele>79.0</ele><time>2026-04-25T07:57:07Z</time></trkpt><trkpt lat="43.91052687113563" lon="12.658414582684024"><ele>78.0</ele><time>2026-04-25T07:57:08Z</time></trkpt><trkpt lat="43.910514713184014" lon="12.658517786907066"><ele>77.0</ele><time>2026-04-25T07:57:09Z</time></trkpt><trkpt lat="43.91047480036677" lon="12.65863955428652"><ele>76.0</ele><time>2026-04-25T07:57:11Z</time></trkpt><trkpt lat="43.910411747699115" lon="12.658720993836123"><ele>75.39999999999999</ele><time>2026-04-25T07:57:18Z</time></trkpt><trkpt lat="43.910457273046944" lon="12.658902690159088"><ele>74.8</ele><time>2026-04-25T07:57:19Z</time></trkpt><trkpt lat="43.910470228473656" lon="12.659021406484188"><ele>74.19999999999999</ele><time>2026-04-25T07:57:20Z</time></trkpt><trkpt lat="43.91047892533622" lon="12.659148464995758"><ele>73.6</ele><time>2026-04-25T07:57:21Z</time></trkpt><trkpt lat="43.910478399007246" lon="12.659280047698209"><ele>73.0</ele><time>2026-04-25T07:57:22Z</time></trkpt><trkpt lat="43.910475980952995" lon="12.659398574449888"><ele>73.0</ele><time>2026-04-25T07:57:23Z</time></trkpt><trkpt lat="43.91048206280474" lon="12.659494170880805"><ele>73.0</ele><time>2026-04-25T07:57:24Z</time></trkpt><trkpt lat="43.910483360461946" lon="12.659620424323146"><ele>73.0</ele><time>2026-04-25T07:57:26Z</time></trkpt><trkpt lat="43.91040287809735" lon="12.659578263973168"><ele>73.0</ele><time>2026-04-25T07:57:30Z</time></trkpt><trkpt lat="43.91036340664063" lon="12.659502778750218"><ele>73.0</ele><time>2026-04-25T07:57:32Z</time></trkpt><trkpt lat="43.91031215279462" lon="12.659419137505601"><ele>73.0</ele><time>2026-04-25T07:57:34Z</time></trkpt><trkpt lat="43.91025494401197" lon="12.659302714898587"><ele>73.0</ele><time>2026-04-25T07:57:36Z</time></trkpt><trkpt lat="43.91021148387722" lon="12.659155596722817"><ele>73.0</ele><time>2026-04-25T07:57:38Z</time></trkpt><trkpt lat="43.91013743666643" lon="12.659004116059272"><ele>73.0</ele><time>2026-04-25T07:57:40Z</time></trkpt><trkpt lat="43.910094194084394" lon="12.65892319205748"><ele>73.0</ele><time>2026-04-25T07:57:41Z</time></trkpt><trkpt lat="43.91004758884743" lon="12.658836677819764"><ele>73.0</ele><time>2026-04-25T07:57:42Z</time></trkpt><trkpt lat="43.91000050826869" lon="12.658749281132819"><ele>72.8</ele><time>2026-04-25T07:57:43Z</time></trkpt><trkpt lat="43.90995089415528" lon="12.65865718130565"><ele>72.6</ele><time>2026-04-25T07:57:44Z</time></trkpt><trkpt lat="43.9098959723217" lon="12.658556349246675"><ele>72.4</ele><time>2026-04-25T07:57:45Z</time></trkpt><trkpt lat="43.90983288986013" lon="12.658444667285423"><ele>72.2</ele><time>2026-04-25T07:57:46Z</time></trkpt><trkpt lat="43.90975286825133" lon="12.658345477768803"><ele>72.0</ele><time>2026-04-25T07:57:47Z</time></trkpt><trkpt lat="43.909674981169125" lon="12.658217702086931"><ele>72.0</ele><time>2026-04-25T07:57:48Z</time></trkpt><trkpt lat="43.909594865034755" lon="12.658100435281709"><ele>72.0</ele><time>2026-04-25T07:57:49Z</time></trkpt><trkpt lat="43.909530303552884" lon="12.658010600316187"><ele>72.0</ele><time>2026-04-25T07:57:50Z</time></trkpt><trkpt lat="43.909478707595774" lon="12.657935125329072"><ele>72.0</ele><time>2026-04-25T07:57:51Z</time></trkpt><trkpt lat="43.90943428634967" lon="12.657867380738452"><ele>72.0</ele><time>2026-04-25T07:57:52Z</time></trkpt><trkpt lat="43.909353104180994" lon="12.657749792194256"><ele>71.8</ele><time>2026-04-25T07:57:54Z</time></trkpt><trkpt lat="43.90926787112872" lon="12.657631537993613"><ele>71.6</ele><time>2026-04-25T07:57:56Z</time></trkpt><trkpt lat="43.90921895510544" lon="12.657573694488478"><ele>71.39999999999999</ele><time>2026-04-25T07:57:57Z</time></trkpt><trkpt lat="43.909168045417516" lon="12.657518778374119"><ele>71.2</ele><time>2026-04-25T07:57:58Z</time></trkpt><trkpt lat="43.9090635334633" lon="12.657413656881777"><ele>71.0</ele><time>2026-04-25T07:58:00Z</time></trkpt><trkpt lat="43.908971841235896" lon="12.65734950563009"><ele>71.0</ele><time>2026-04-25T07:58:02Z</time></trkpt><trkpt lat="43.90890005635496" lon="12.657285238052845"><ele>71.0</ele><time>2026-04-25T07:58:04Z</time></trkpt><trkpt lat="43.90880619945224" lon="12.657225499674714"><ele>71.0</ele><time>2026-04-25T07:58:06Z</time></trkpt><trkpt lat="43.90870617588729" lon="12.657166571456319"><ele>71.0</ele><time>2026-04-25T07:58:08Z</time></trkpt><trkpt lat="43.90864695696957" lon="12.657132827776003"><ele>71.0</ele><time>2026-04-25T07:58:09Z</time></trkpt><trkpt lat="43.908574512533605" lon="12.657114943264624"><ele>71.0</ele><time>2026-04-25T07:58:10Z</time></trkpt><trkpt lat="43.908500619453385" lon="12.657073364194943"><ele>71.0</ele><time>2026-04-25T07:58:11Z</time></trkpt><trkpt lat="43.90841210680057" lon="12.656999007215536"><ele>71.0</ele><time>2026-04-25T07:58:12Z</time></trkpt><trkpt lat="43.908281724736305" lon="12.65695318718874"><ele>71.0</ele><time>2026-04-25T07:58:13Z</time></trkpt><trkpt lat="43.90816361200748" lon="12.656892802968033"><ele>71.0</ele><time>2026-04-25T07:58:14Z</time></trkpt><trkpt lat="43.90804874579115" lon="12.656826713182632"><ele>71.5</ele><time>2026-04-25T07:58:15Z</time></trkpt><trkpt lat="43.90794482185682" lon="12.656734087067479"><ele>72.0</ele><time>2026-04-25T07:58:16Z</time></trkpt><trkpt lat="43.90782690717821" lon="12.656657034315852"><ele>72.5</ele><time>2026-04-25T07:58:17Z</time></trkpt><trkpt lat="43.9077104579274" lon="12.656601439573734"><ele>73.0</ele><time>2026-04-25T07:58:18Z</time></trkpt><trkpt lat="43.90759743321894" lon="12.65655615177383"><ele>72.5</ele><time>2026-04-25T07:58:19Z</time></trkpt><trkpt lat="43.90747451465706" lon="12.656531010414557"><ele>72.0</ele><time>2026-04-25T07:58:20Z</time></trkpt><trkpt lat="43.90735784904968" lon="12.656562647210489"><ele>71.5</ele><time>2026-04-25T07:58:21Z</time></trkpt><trkpt lat="43.9072294190059" lon="12.656582123399081"><ele>71.0</ele><time>2026-04-25T07:58:22Z</time></trkpt><trkpt lat="43.90710783182974" lon="12.656578135649186"><ele>71.0</ele><time>2026-04-25T07:58:23Z</time></trkpt><trkpt lat="43.90700263755357" lon="12.656607887259185"><ele>71.0</ele><time>2026-04-25T07:58:24Z</time></trkpt><trkpt lat="43.90687258394775" lon="12.656644942492454"><ele>71.0</ele><time>2026-04-25T07:58:25Z</time></trkpt><trkpt lat="43.906739887645934" lon="12.656697181212595"><ele>71.0</ele><time>2026-04-25T07:58:26Z</time></trkpt><trkpt lat="43.906616626488045" lon="12.656746530079447"><ele>70.39999999999999</ele><time>2026-04-25T07:58:27Z</time></trkpt><trkpt lat="43.90652186237559" lon="12.656757930352873"><ele>69.8</ele><time>2026-04-25T07:58:28Z</time></trkpt><trkpt lat="43.906448666191885" lon="12.656762040936542"><ele>69.19999999999999</ele><time>2026-04-25T07:58:29Z</time></trkpt><trkpt lat="43.90635444961284" lon="12.656688062225413"><ele>68.6</ele><time>2026-04-25T07:58:31Z</time></trkpt><trkpt lat="43.906279993505635" lon="12.656547059324717"><ele>68.0</ele><time>2026-04-25T07:58:33Z</time></trkpt><trkpt lat="43.90625131430568" lon="12.656439191210959"><ele>68.0</ele><time>2026-04-25T07:58:34Z</time></trkpt><trkpt lat="43.90620646092757" lon="12.656299684813517"><ele>68.0</ele><time>2026-04-25T07:58:35Z</time></trkpt><trkpt lat="43.906154477414574" lon="12.656120146313196"><ele>68.0</ele><time>2026-04-25T07:58:36Z</time></trkpt><trkpt lat="43.906091753137964" lon="12.655911429066473"><ele>68.0</ele><time>2026-04-25T07:58:37Z</time></trkpt><trkpt lat="43.90603194045401" lon="12.655737609738136"><ele>68.0</ele><time>2026-04-25T07:58:38Z</time></trkpt><trkpt lat="43.90595975551924" lon="12.6555620157862"><ele>68.0</ele><time>2026-04-25T07:58:39Z</time></trkpt><trkpt lat="43.90588566303116" lon="12.655465613120525"><ele>68.0</ele><time>2026-04-25T07:58:40Z</time></trkpt><trkpt lat="43.90582973712436" lon="12.655414679673939"><ele>68.0</ele><time>2026-04-25T07:58:41Z</time></trkpt><trkpt lat="43.90577194236372" lon="12.655368434937019"><ele>68.0</ele><time>2026-04-25T07:58:42Z</time></trkpt><trkpt lat="43.90564407371432" lon="12.65530358951967"><ele>68.8</ele><time>2026-04-25T07:58:44Z</time></trkpt><trkpt lat="43.90557637305082" lon="12.655283666747659"><ele>69.6</ele><time>2026-04-25T07:58:45Z</time></trkpt><trkpt lat="43.905480698376614" lon="12.655261776317014"><ele>70.4</ele><time>2026-04-25T07:58:47Z</time></trkpt><trkpt lat="43.905409146133046" lon="12.655241057782591"><ele>71.2</ele><time>2026-04-25T07:58:48Z</time></trkpt><trkpt lat="43.90529814745964" lon="12.655217185294973"><ele>72.0</ele><time>2026-04-25T07:58:49Z</time></trkpt><trkpt lat="43.90513712373984" lon="12.65518834493078"><ele>71.6</ele><time>2026-04-25T07:58:50Z</time></trkpt><trkpt lat="43.90499661358495" lon="12.655155624051952"><ele>71.2</ele><time>2026-04-25T07:58:51Z</time></trkpt><trkpt lat="43.90489593699169" lon="12.655100084970618"><ele>70.8</ele><time>2026-04-25T07:58:52Z</time></trkpt><trkpt lat="43.90480949490463" lon="12.655057082063944"><ele>70.4</ele><time>2026-04-25T07:58:53Z</time></trkpt><trkpt lat="43.904711978905794" lon="12.655003842615109"><ele>70.0</ele><time>2026-04-25T07:58:54Z</time></trkpt><trkpt lat="43.9046348258032" lon="12.654962776129238"><ele>70.0</ele><time>2026-04-25T07:58:55Z</time></trkpt><trkpt lat="43.90455316468693" lon="12.654922349314154"><ele>70.0</ele><time>2026-04-25T07:58:56Z</time></trkpt><trkpt lat="43.904445551895854" lon="12.654883243750136"><ele>70.0</ele><time>2026-04-25T07:58:57Z</time></trkpt><trkpt lat="43.90433783583373" lon="12.654824836823224"><ele>70.0</ele><time>2026-04-25T07:58:58Z</time></trkpt><trkpt lat="43.90424174494984" lon="12.654770490582699"><ele>70.0</ele><time>2026-04-25T07:58:59Z</time></trkpt><trkpt lat="43.90418524186395" lon="12.654685648508694"><ele>70.6</ele><time>2026-04-25T07:59:01Z</time></trkpt><trkpt lat="43.904159663524176" lon="12.654559552198807"><ele>71.2</ele><time>2026-04-25T07:59:04Z</time></trkpt><trkpt lat="43.904124622810755" lon="12.654477790522991"><ele>71.8</ele><time>2026-04-25T07:59:05Z</time></trkpt><trkpt lat="43.90406851211529" lon="12.654367335662352"><ele>72.4</ele><time>2026-04-25T07:59:06Z</time></trkpt><trkpt lat="43.90399917564489" lon="12.654213160997516"><ele>73.0</ele><time>2026-04-25T07:59:07Z</time></trkpt><trkpt lat="43.90391642019041" lon="12.654037527624824"><ele>73.5</ele><time>2026-04-25T07:59:08Z</time></trkpt><trkpt lat="43.90382639271469" lon="12.65384748104586"><ele>74.0</ele><time>2026-04-25T07:59:09Z</time></trkpt><trkpt lat="43.90377180278849" lon="12.653690624760461"><ele>74.5</ele><time>2026-04-25T07:59:10Z</time></trkpt><trkpt lat="43.903684632543325" lon="12.653577629620761"><ele>75.0</ele><time>2026-04-25T07:59:11Z</time></trkpt><trkpt lat="43.9036125055123" lon="12.653503078462286"><ele>75.2</ele><time>2026-04-25T07:59:12Z</time></trkpt><trkpt lat="43.90353079944255" lon="12.653446963490927"><ele>75.4</ele><time>2026-04-25T07:59:13Z</time></trkpt><trkpt lat="43.903423646200636" lon="12.653402083452649"><ele>75.6</ele><time>2026-04-25T07:59:14Z</time></trkpt><trkpt lat="43.90330804289218" lon="12.653345352762676"><ele>75.8</ele><time>2026-04-25T07:59:15Z</time></trkpt><trkpt lat="43.903205703059406" lon="12.653252823680369"><ele>76.0</ele><time>2026-04-25T07:59:16Z</time></trkpt><trkpt lat="43.90310630660284" lon="12.653186146700333"><ele>78.0</ele><time>2026-04-25T07:59:17Z</time></trkpt><trkpt lat="43.90300439537196" lon="12.65315479081101"><ele>80.0</ele><time>2026-04-25T07:59:18Z</time></trkpt><trkpt lat="43.90289694374352" lon="12.653153869670186"><ele>82.0</ele><time>2026-04-25T07:59:19Z</time></trkpt><trkpt lat="43.902761125751766" lon="12.653119904294831"><ele>84.0</ele><time>2026-04-25T07:59:20Z</time></trkpt><trkpt lat="43.902601306191364" lon="12.65311824832917"><ele>84.66666666666667</ele><time>2026-04-25T07:59:21Z</time></trkpt><trkpt lat="43.902403359653086" lon="12.653109460046966"><ele>85.33333333333334</ele><time>2026-04-25T07:59:22Z</time></trkpt><trkpt lat="43.90217982066663" lon="12.653097198209558"><ele>86.0</ele><time>2026-04-25T07:59:23Z</time></trkpt><trkpt lat="43.90197095781794" lon="12.653102570239868"><ele>86.0</ele><time>2026-04-25T07:59:24Z</time></trkpt><trkpt lat="43.90181207232115" lon="12.653088408850456"><ele>86.0</ele><time>2026-04-25T07:59:25Z</time></trkpt><trkpt lat="43.90167434002371" lon="12.653079592984223"><ele>86.0</ele><time>2026-04-25T07:59:26Z</time></trkpt><trkpt lat="43.90155128700705" lon="12.653076374675521"><ele>86.0</ele><time>2026-04-25T07:59:27Z</time></trkpt><trkpt lat="43.901457557024905" lon="12.653065148132551"><ele>86.33333333333334</ele><time>2026-04-25T07:59:28Z</time></trkpt><trkpt lat="43.90138432486709" lon="12.653062480489142"><ele>86.66666666666667</ele><time>2026-04-25T07:59:29Z</time></trkpt><trkpt lat="43.90128666522632" lon="12.653054312652218"><ele>87.0</ele><time>2026-04-25T07:59:31Z</time></trkpt><trkpt lat="43.9012246570161" lon="12.653025088907585"><ele>87.33333333333333</ele><time>2026-04-25T07:59:35Z</time></trkpt><trkpt lat="43.90118157818707" lon="12.653133938948764"><ele>87.66666666666666</ele><time>2026-04-25T07:59:36Z</time></trkpt><trkpt lat="43.90113134585562" lon="12.653198924506004"><ele>88.0</ele><time>2026-04-25T07:59:37Z</time></trkpt><trkpt lat="43.90105916189682" lon="12.653253477915845"><ele>88.0</ele><time>2026-04-25T07:59:38Z</time></trkpt><trkpt lat="43.900984384839475" lon="12.653274452507123"><ele>88.0</ele><time>2026-04-25T07:59:39Z</time></trkpt><trkpt lat="43.900900060139044" lon="12.653284158267954"><ele>88.0</ele><time>2026-04-25T07:59:40Z</time></trkpt><trkpt lat="43.90080643345971" lon="12.6532764266885"><ele>88.0</ele><time>2026-04-25T07:59:41Z</time></trkpt><trkpt lat="43.90070402384103" lon="12.653256931752583"><ele>88.0</ele><time>2026-04-25T07:59:42Z</time></trkpt><trkpt lat="43.90059459568335" lon="12.653226774396007"><ele>87.25</ele><time>2026-04-25T07:59:43Z</time></trkpt><trkpt lat="43.90048436299839" lon="12.653200699334233"><ele>86.5</ele><time>2026-04-25T07:59:44Z</time></trkpt><trkpt lat="43.900372058583336" lon="12.653180910618513"><ele>85.75</ele><time>2026-04-25T07:59:45Z</time></trkpt><trkpt lat="43.900244048045735" lon="12.653168471510973"><ele>85.0</ele><time>2026-04-25T07:59:46Z</time></trkpt><trkpt lat="43.90011750144016" lon="12.653170686399552"><ele>84.0</ele><time>2026-04-25T07:59:47Z</time></trkpt><trkpt lat="43.90000181629035" lon="12.653189597212934"><ele>83.0</ele><time>2026-04-25T07:59:48Z</time></trkpt><trkpt lat="43.89988982450363" lon="12.65321066952201"><ele>82.0</ele><time>2026-04-25T07:59:49Z</time></trkpt><trkpt lat="43.899775862032925" lon="12.65323933288668"><ele>81.0</ele><time>2026-04-25T07:59:50Z</time></trkpt><trkpt lat="43.899670315258355" lon="12.653261920728639"><ele>81.0</ele><time>2026-04-25T07:59:51Z</time></trkpt><trkpt lat="43.89957719304115" lon="12.653280325979186"><ele>81.0</ele><time>2026-04-25T07:59:52Z</time></trkpt><trkpt lat="43.899494479284975" lon="12.653304127303258"><ele>81.0</ele><time>2026-04-25T07:59:53Z</time></trkpt><trkpt lat="43.89941727305631" lon="12.653327407243856"><ele>81.0</ele><time>2026-04-25T07:59:54Z</time></trkpt><trkpt lat="43.899344889153184" lon="12.653352677362278"><ele>81.0</ele><time>2026-04-25T07:59:55Z</time></trkpt><trkpt lat="43.899283401752996" lon="12.653384609625306"><ele>81.0</ele><time>2026-04-25T07:59:56Z</time></trkpt><trkpt lat="43.89919697188342" lon="12.653432804717331"><ele>80.2</ele><time>2026-04-25T07:59:58Z</time></trkpt><trkpt lat="43.89915680969068" lon="12.653570660975383"><ele>79.39999999999999</ele><time>2026-04-25T08:00:00Z</time></trkpt><trkpt lat="43.899057598357054" lon="12.653626777619637"><ele>78.6</ele><time>2026-04-25T08:00:01Z</time></trkpt><trkpt lat="43.898993971930096" lon="12.653732790463366"><ele>77.8</ele><time>2026-04-25T08:00:02Z</time></trkpt><trkpt lat="43.89891089730535" lon="12.653850795160285"><ele>77.0</ele><time>2026-04-25T08:00:03Z</time></trkpt><trkpt lat="43.898830823028" lon="12.65395332233202"><ele>76.4</ele><time>2026-04-25T08:00:04Z</time></trkpt><trkpt lat="43.89875318232181" lon="12.654018717944899"><ele>75.80000000000001</ele><time>2026-04-25T08:00:05Z</time></trkpt><trkpt lat="43.89869087631484" lon="12.654094523330215"><ele>75.2</ele><time>2026-04-25T08:00:06Z</time></trkpt><trkpt lat="43.8986569645749" lon="12.654180427337032"><ele>74.60000000000001</ele><time>2026-04-25T08:00:07Z</time></trkpt><trkpt lat="43.89855791937339" lon="12.654229527061444"><ele>74.0</ele><time>2026-04-25T08:00:09Z</time></trkpt><trkpt lat="43.89847491460635" lon="12.654145789230265"><ele>74.0</ele><time>2026-04-25T08:00:11Z</time></trkpt><trkpt lat="43.89841732996703" lon="12.65408586278711"><ele>74.0</ele><time>2026-04-25T08:00:13Z</time></trkpt><trkpt lat="43.89840291195721" lon="12.653992912013468"><ele>74.0</ele><time>2026-04-25T08:00:16Z</time></trkpt><trkpt lat="43.89834187958062" lon="12.653903023987718"><ele>74.0</ele><time>2026-04-25T08:00:55Z</time></trkpt><trkpt lat="43.89832488895408" lon="12.653800534569227"><ele>74.0</ele><time>2026-04-25T08:00:56Z</time></trkpt><trkpt lat="43.89828344208817" lon="12.653680564489925"><ele>74.0</ele><time>2026-04-25T08:00:57Z</time></trkpt><trkpt lat="43.89822357614237" lon="12.653527263135242"><ele>74.0</ele><time>2026-04-25T08:00:58Z</time></trkpt><trkpt lat="43.8981723607765" lon="12.653382558300217"><ele>74.0</ele><time>2026-04-25T08:00:59Z</time></trkpt><trkpt lat="43.898144038716275" lon="12.653259022347942"><ele>74.0</ele><time>2026-04-25T08:01:00Z</time></trkpt><trkpt lat="43.89811750466083" lon="12.65312799343293"><ele>74.0</ele><time>2026-04-25T08:01:01Z</time></trkpt><trkpt lat="43.89808158656528" lon="12.653017052544465"><ele>74.0</ele><time>2026-04-25T08:01:02Z</time></trkpt><trkpt lat="43.898024323827116" lon="12.652914064970899"><ele>74.0</ele><time>2026-04-25T08:01:03Z</time></trkpt><trkpt lat="43.89793355284373" lon="12.65280683502286"><ele>74.0</ele><time>2026-04-25T08:01:04Z</time></trkpt><trkpt lat="43.89782062793618" lon="12.652717073346881"><ele>74.0</ele><time>2026-04-25T08:01:05Z</time></trkpt><trkpt lat="43.897715303741585" lon="12.652651872527832"><ele>74.0</ele><time>2026-04-25T08:01:06Z</time></trkpt><trkpt lat="43.89762902648943" lon="12.652586317605433"><ele>74.33333333333334</ele><time>2026-04-25T08:01:07Z</time></trkpt><trkpt lat="43.89755674841865" lon="12.65252286836505"><ele>74.66666666666667</ele><time>2026-04-25T08:01:08Z</time></trkpt><trkpt lat="43.89748258224478" lon="12.652449239961909"><ele>75.0</ele><time>2026-04-25T08:01:09Z</time></trkpt><trkpt lat="43.89741443614881" lon="12.65237610920082"><ele>75.33333333333333</ele><time>2026-04-25T08:01:10Z</time></trkpt><trkpt lat="43.89734614490854" lon="12.652294655944184"><ele>75.66666666666666</ele><time>2026-04-25T08:01:11Z</time></trkpt><trkpt lat="43.89730062643386" lon="12.652183160071635"><ele>76.0</ele><time>2026-04-25T08:01:12Z</time></trkpt><trkpt lat="43.897273511542515" lon="12.65208165641139"><ele>76.0</ele><time>2026-04-25T08:01:13Z</time></trkpt><trkpt lat="43.89726284205873" lon="12.651991842500731"><ele>76.0</ele><time>2026-04-25T08:01:14Z</time></trkpt><trkpt lat="43.89728967722493" lon="12.651834920410137"><ele>76.0</ele><time>2026-04-25T08:01:16Z</time></trkpt><trkpt lat="43.89734100902721" lon="12.651672605835085"><ele>76.0</ele><time>2026-04-25T08:01:18Z</time></trkpt><trkpt lat="43.89737403465962" lon="12.651572859207612"><ele>76.0</ele><time>2026-04-25T08:01:19Z</time></trkpt><trkpt lat="43.89739063710913" lon="12.651459529187164"><ele>76.0</ele><time>2026-04-25T08:01:20Z</time></trkpt><trkpt lat="43.89740828862128" lon="12.651351003126024"><ele>76.0</ele><time>2026-04-25T08:01:21Z</time></trkpt><trkpt lat="43.89739690117801" lon="12.651220802485003"><ele>76.0</ele><time>2026-04-25T08:01:22Z</time></trkpt><trkpt lat="43.89736507680593" lon="12.651088676376233"><ele>76.0</ele><time>2026-04-25T08:01:23Z</time></trkpt><trkpt lat="43.897322268343395" lon="12.650971999787796"><ele>76.0</ele><time>2026-04-25T08:01:24Z</time></trkpt><trkpt lat="43.897257506992005" lon="12.650884997389573"><ele>76.0</ele><time>2026-04-25T08:01:25Z</time></trkpt><trkpt lat="43.89717022959024" lon="12.650783712569948"><ele>76.0</ele><time>2026-04-25T08:01:26Z</time></trkpt><trkpt lat="43.89706391762037" lon="12.650673728084072"><ele>76.0</ele><time>2026-04-25T08:01:27Z</time></trkpt><trkpt lat="43.89700927135036" lon="12.650562304129734"><ele>76.0</ele><time>2026-04-25T08:01:28Z</time></trkpt><trkpt lat="43.897040635309956" lon="12.650418313031912"><ele>76.0</ele><time>2026-04-25T08:01:30Z</time></trkpt><trkpt lat="43.897044225286905" lon="12.650323156098684"><ele>76.0</ele><time>2026-04-25T08:01:31Z</time></trkpt><trkpt lat="43.897052396007034" lon="12.650213349496413"><ele>76.0</ele><time>2026-04-25T08:01:32Z</time></trkpt><trkpt lat="43.89705033868793" lon="12.650071520274723"><ele>76.0</ele><time>2026-04-25T08:01:33Z</time></trkpt><trkpt lat="43.89708993413347" lon="12.649917355210135"><ele>76.0</ele><time>2026-04-25T08:01:34Z</time></trkpt><trkpt lat="43.89713440366801" lon="12.649796823577377"><ele>75.83333333333333</ele><time>2026-04-25T08:01:35Z</time></trkpt><trkpt lat="43.897163139420186" lon="12.64970830742676"><ele>75.66666666666666</ele><time>2026-04-25T08:01:36Z</time></trkpt><trkpt lat="43.897219855876415" lon="12.649778519764318"><ele>75.5</ele><time>2026-04-25T08:01:39Z</time></trkpt><trkpt lat="43.89727346100075" lon="12.64972051499979"><ele>75.33333333333333</ele><time>2026-04-25T08:01:40Z</time></trkpt><trkpt lat="43.89737397033842" lon="12.64970004008173"><ele>75.16666666666667</ele><time>2026-04-25T08:01:41Z</time></trkpt><trkpt lat="43.89746350472983" lon="12.64963134780961"><ele>75.0</ele><time>2026-04-25T08:01:42Z</time></trkpt><trkpt lat="43.89751764575224" lon="12.649551578658254"><ele>76.4</ele><time>2026-04-25T08:01:43Z</time></trkpt><trkpt lat="43.89757653231955" lon="12.649430030486581"><ele>77.8</ele><time>2026-04-25T08:01:44Z</time></trkpt><trkpt lat="43.897620588679686" lon="12.649309296561475"><ele>79.19999999999999</ele><time>2026-04-25T08:01:45Z</time></trkpt><trkpt lat="43.89762177376956" lon="12.649187618347447"><ele>80.6</ele><time>2026-04-25T08:01:46Z</time></trkpt><trkpt lat="43.89759144690355" lon="12.64908269248326"><ele>82.0</ele><time>2026-04-25T08:01:47Z</time></trkpt><trkpt lat="43.89753579590349" lon="12.648960003877253"><ele>82.0</ele><time>2026-04-25T08:01:48Z</time></trkpt><trkpt lat="43.89745515752419" lon="12.648819430711391"><ele>82.0</ele><time>2026-04-25T08:01:49Z</time></trkpt><trkpt lat="43.897356057982535" lon="12.648679377915728"><ele>82.0</ele><time>2026-04-25T08:01:50Z</time></trkpt><trkpt lat="43.89724801107743" lon="12.648544790688517"><ele>82.0</ele><time>2026-04-25T08:01:51Z</time></trkpt><trkpt lat="43.897112025227905" lon="12.648423827840617"><ele>82.0</ele><time>2026-04-25T08:01:52Z</time></trkpt><trkpt lat="43.8969876169845" lon="12.648301855673287"><ele>82.0</ele><time>2026-04-25T08:01:53Z</time></trkpt><trkpt lat="43.896864607866064" lon="12.648191314367859"><ele>82.0</ele><time>2026-04-25T08:01:54Z</time></trkpt><trkpt lat="43.89675477456947" lon="12.648099456697963"><ele>82.0</ele><time>2026-04-25T08:01:55Z</time></trkpt><trkpt lat="43.89665008466887" lon="12.648037791357918"><ele>82.0</ele><time>2026-04-25T08:01:56Z</time></trkpt><trkpt lat="43.89656754538628" lon="12.64798696416965"><ele>82.0</ele><time>2026-04-25T08:01:57Z</time></trkpt><trkpt lat="43.89648733823537" lon="12.64794717186111"><ele>82.0</ele><time>2026-04-25T08:01:58Z</time></trkpt><trkpt lat="43.896406920597734" lon="12.647888226816079"><ele>82.0</ele><time>2026-04-25T08:01:59Z</time></trkpt><trkpt lat="43.896290694044346" lon="12.647812815371264"><ele>82.0</ele><time>2026-04-25T08:02:00Z</time></trkpt><trkpt lat="43.896184223149056" lon="12.647730904156855"><ele>82.25</ele><time>2026-04-25T08:02:01Z</time></trkpt><trkpt lat="43.896072584517356" lon="12.64764945330046"><ele>82.5</ele><time>2026-04-25T08:02:02Z</time></trkpt><trkpt lat="43.89593643367111" lon="12.647561703038456"><ele>82.75</ele><time>2026-04-25T08:02:03Z</time></trkpt><trkpt lat="43.89580033603686" lon="12.647495060073105"><ele>83.0</ele><time>2026-04-25T08:02:04Z</time></trkpt><trkpt lat="43.89564524719249" lon="12.647418508080817"><ele>83.0</ele><time>2026-04-25T08:02:05Z</time></trkpt><trkpt lat="43.895505688322935" lon="12.647356748768319"><ele>83.0</ele><time>2026-04-25T08:02:06Z</time></trkpt><trkpt lat="43.895376059089216" lon="12.647304600386299"><ele>83.0</ele><time>2026-04-25T08:02:07Z</time></trkpt><trkpt lat="43.8952731240413" lon="12.64722966334548"><ele>83.0</ele><time>2026-04-25T08:02:08Z</time></trkpt><trkpt lat="43.89518026685326" lon="12.647204806675918"><ele>82.75</ele><time>2026-04-25T08:02:09Z</time></trkpt><trkpt lat="43.89508634388434" lon="12.647190742251906"><ele>82.5</ele><time>2026-04-25T08:02:10Z</time></trkpt><trkpt lat="43.894969601260634" lon="12.64718978904349"><ele>82.25</ele><time>2026-04-25T08:02:11Z</time></trkpt><trkpt lat="43.89483663433058" lon="12.647190082252383"><ele>82.0</ele><time>2026-04-25T08:02:12Z</time></trkpt><trkpt lat="43.894691446315186" lon="12.647185820060912"><ele>82.0</ele><time>2026-04-25T08:02:13Z</time></trkpt><trkpt lat="43.89454749400722" lon="12.647181288607813"><ele>82.0</ele><time>2026-04-25T08:02:14Z</time></trkpt><trkpt lat="43.89440417221787" lon="12.647193335752949"><ele>82.0</ele><time>2026-04-25T08:02:15Z</time></trkpt><trkpt lat="43.894261275018444" lon="12.64717268693927"><ele>82.0</ele><time>2026-04-25T08:02:16Z</time></trkpt><trkpt lat="43.89411285056656" lon="12.647161778261571"><ele>82.75</ele><time>2026-04-25T08:02:17Z</time></trkpt><trkpt lat="43.893983156085675" lon="12.647146545070004"><ele>83.5</ele><time>2026-04-25T08:02:18Z</time></trkpt><trkpt lat="43.893858008810106" lon="12.647117265726646"><ele>84.25</ele><time>2026-04-25T08:02:19Z</time></trkpt><trkpt lat="43.89375201279489" lon="12.647062923809582"><ele>85.0</ele><time>2026-04-25T08:02:20Z</time></trkpt><trkpt lat="43.893647435864196" lon="12.647004896408372"><ele>84.66666666666666</ele><time>2026-04-25T08:02:21Z</time></trkpt><trkpt lat="43.893527848694" lon="12.646935838200829"><ele>84.33333333333333</ele><time>2026-04-25T08:02:22Z</time></trkpt><trkpt lat="43.89338409390905" lon="12.646850551772463"><ele>84.0</ele><time>2026-04-25T08:02:23Z</time></trkpt><trkpt lat="43.89322391233523" lon="12.646774457884636"><ele>84.0</ele><time>2026-04-25T08:02:24Z</time></trkpt><trkpt lat="43.89307146684598" lon="12.646680984183346"><ele>84.0</ele><time>2026-04-25T08:02:25Z</time></trkpt><trkpt lat="43.89292174081115" lon="12.646587716082765"><ele>84.0</ele><time>2026-04-25T08:02:26Z</time></trkpt><trkpt lat="43.89278576466715" lon="12.646504981025144"><ele>84.0</ele><time>2026-04-25T08:02:27Z</time></trkpt><trkpt lat="43.89265490460228" lon="12.646438265009474"><ele>84.0</ele><time>2026-04-25T08:02:28Z</time></trkpt><trkpt lat="43.89251309405232" lon="12.64636207810194"><ele>84.0</ele><time>2026-04-25T08:02:29Z</time></trkpt><trkpt lat="43.89236301088467" lon="12.646288509224897"><ele>84.0</ele><time>2026-04-25T08:02:30Z</time></trkpt><trkpt lat="43.89221657261986" lon="12.646172288768904"><ele>84.0</ele><time>2026-04-25T08:02:31Z</time></trkpt><trkpt lat="43.892053948282886" lon="12.646083276225442"><ele>84.0</ele><time>2026-04-25T08:02:32Z</time></trkpt><trkpt lat="43.89189939699045" lon="12.646027974667172"><ele>84.0</ele><time>2026-04-25T08:02:33Z</time></trkpt><trkpt lat="43.8917808696557" lon="12.64596405792327"><ele>84.0</ele><time>2026-04-25T08:02:34Z</time></trkpt><trkpt lat="43.891678806089125" lon="12.645908971589973"><ele>84.0</ele><time>2026-04-25T08:02:35Z</time></trkpt><trkpt lat="43.89158580097145" lon="12.645864296890016"><ele>84.0</ele><time>2026-04-25T08:02:36Z</time></trkpt><trkpt lat="43.89148369318849" lon="12.645822251046667"><ele>84.0</ele><time>2026-04-25T08:02:37Z</time></trkpt><trkpt lat="43.89140304664093" lon="12.645794802031798"><ele>83.80000000000001</ele><time>2026-04-25T08:02:38Z</time></trkpt><trkpt lat="43.891332215477604" lon="12.645776671894708"><ele>83.60000000000001</ele><time>2026-04-25T08:02:39Z</time></trkpt><trkpt lat="43.89123740851318" lon="12.645756321372641"><ele>83.4</ele><time>2026-04-25T08:02:40Z</time></trkpt><trkpt lat="43.891117121862" lon="12.645723920363844"><ele>83.2</ele><time>2026-04-25T08:02:41Z</time></trkpt><trkpt lat="43.890966117276704" lon="12.645684746506536"><ele>83.0</ele><time>2026-04-25T08:02:42Z</time></trkpt><trkpt lat="43.89075446173977" lon="12.645611272924985"><ele>83.66666666666667</ele><time>2026-04-25T08:02:43Z</time></trkpt><trkpt lat="43.89056579161343" lon="12.645506712173903"><ele>84.33333333333333</ele><time>2026-04-25T08:02:44Z</time></trkpt><trkpt lat="43.8903887283664" lon="12.645441074470272"><ele>85.0</ele><time>2026-04-25T08:02:45Z</time></trkpt><trkpt lat="43.89025112520133" lon="12.645403118117342"><ele>85.0</ele><time>2026-04-25T08:02:46Z</time></trkpt><trkpt lat="43.89013775411345" lon="12.645370512314843"><ele>85.0</ele><time>2026-04-25T08:02:47Z</time></trkpt><trkpt lat="43.89003839230241" lon="12.6453469619114"><ele>85.0</ele><time>2026-04-25T08:02:48Z</time></trkpt><trkpt lat="43.88992949579723" lon="12.64533608125578"><ele>85.0</ele><time>2026-04-25T08:02:49Z</time></trkpt><trkpt lat="43.88982346298625" lon="12.645341134104546"><ele>85.0</ele><time>2026-04-25T08:02:50Z</time></trkpt><trkpt lat="43.889717406565" lon="12.64536298987772"><ele>87.33333333333333</ele><time>2026-04-25T08:02:51Z</time></trkpt><trkpt lat="43.889592218465" lon="12.645435304201996"><ele>89.66666666666667</ele><time>2026-04-25T08:02:52Z</time></trkpt><trkpt lat="43.88943349720655" lon="12.645494827193847"><ele>92.0</ele><time>2026-04-25T08:02:53Z</time></trkpt><trkpt lat="43.88926630429603" lon="12.64554007386178"><ele>93.19999999999999</ele><time>2026-04-25T08:02:54Z</time></trkpt><trkpt lat="43.889121294221326" lon="12.6455919619376"><ele>94.4</ele><time>2026-04-25T08:02:55Z</time></trkpt><trkpt lat="43.88899335377797" lon="12.64560219991256"><ele>95.6</ele><time>2026-04-25T08:02:56Z</time></trkpt><trkpt lat="43.888898597338105" lon="12.645584196422467"><ele>96.80000000000001</ele><time>2026-04-25T08:02:57Z</time></trkpt><trkpt lat="43.88883815634813" lon="12.645556796927966"><ele>98.0</ele><time>2026-04-25T08:02:58Z</time></trkpt><trkpt lat="43.88875517246442" lon="12.645525105847156"><ele>98.0</ele><time>2026-04-25T08:02:59Z</time></trkpt><trkpt lat="43.88861723143819" lon="12.645466126356764"><ele>98.0</ele><time>2026-04-25T08:03:00Z</time></trkpt><trkpt lat="43.88843452026784" lon="12.645384278969365"><ele>98.0</ele><time>2026-04-25T08:03:01Z</time></trkpt><trkpt lat="43.88823986620508" lon="12.645294363172036"><ele>95.5</ele><time>2026-04-25T08:03:02Z</time></trkpt><trkpt lat="43.88807348542909" lon="12.645202823059414"><ele>93.0</ele><time>2026-04-25T08:03:03Z</time></trkpt><trkpt lat="43.88793821386392" lon="12.645120355158525"><ele>90.5</ele><time>2026-04-25T08:03:04Z</time></trkpt><trkpt lat="43.88783268770121" lon="12.645051352275273"><ele>88.0</ele><time>2026-04-25T08:03:05Z</time></trkpt><trkpt lat="43.88774744412827" lon="12.644991353668022"><ele>88.0</ele><time>2026-04-25T08:03:06Z</time></trkpt><trkpt lat="43.887670264953165" lon="12.64494492669504"><ele>88.0</ele><time>2026-04-25T08:03:07Z</time></trkpt><trkpt lat="43.88760862607973" lon="12.64491561156747"><ele>88.0</ele><time>2026-04-25T08:03:08Z</time></trkpt><trkpt lat="43.88750471585306" lon="12.644896489435336"><ele>88.0</ele><time>2026-04-25T08:03:10Z</time></trkpt><trkpt lat="43.88736388524373" lon="12.644941444186898"><ele>88.0</ele><time>2026-04-25T08:03:12Z</time></trkpt><trkpt lat="43.887239146903624" lon="12.644947837547194"><ele>89.5</ele><time>2026-04-25T08:03:13Z</time></trkpt><trkpt lat="43.8870976281422" lon="12.64496040261117"><ele>91.0</ele><time>2026-04-25T08:03:14Z</time></trkpt><trkpt lat="43.886960447214165" lon="12.644958184759437"><ele>92.5</ele><time>2026-04-25T08:03:15Z</time></trkpt><trkpt lat="43.886822856640045" lon="12.644932147346873"><ele>94.0</ele><time>2026-04-25T08:03:16Z</time></trkpt><trkpt lat="43.88669749342847" lon="12.644896145339116"><ele>98.33333333333333</ele><time>2026-04-25T08:03:17Z</time></trkpt><trkpt lat="43.88654382267382" lon="12.64485393738982"><ele>102.66666666666666</ele><time>2026-04-25T08:03:18Z</time></trkpt><trkpt lat="43.88637589610293" lon="12.644808616905232"><ele>107.0</ele><time>2026-04-25T08:03:19Z</time></trkpt><trkpt lat="43.886240900348845" lon="12.644725326369443"><ele>107.0</ele><time>2026-04-25T08:03:20Z</time></trkpt><trkpt lat="43.88612444334822" lon="12.644652650220536"><ele>107.0</ele><time>2026-04-25T08:03:21Z</time></trkpt><trkpt lat="43.886025640625355" lon="12.644561557232507"><ele>107.0</ele><time>2026-04-25T08:03:22Z</time></trkpt><trkpt lat="43.88593033685068" lon="12.644469465242512"><ele>107.0</ele><time>2026-04-25T08:03:23Z</time></trkpt><trkpt lat="43.885832429991275" lon="12.644364763922896"><ele>105.8</ele><time>2026-04-25T08:03:24Z</time></trkpt><trkpt lat="43.885745036579955" lon="12.6442656963362"><ele>104.6</ele><time>2026-04-25T08:03:25Z</time></trkpt><trkpt lat="43.88567395247427" lon="12.644159610235263"><ele>103.39999999999999</ele><time>2026-04-25T08:03:26Z</time></trkpt><trkpt lat="43.88562888938223" lon="12.64407314117464"><ele>102.19999999999999</ele><time>2026-04-25T08:03:27Z</time></trkpt><trkpt lat="43.88556911289507" lon="12.643940842191078"><ele>101.0</ele><time>2026-04-25T08:03:28Z</time></trkpt><trkpt lat="43.885507934685286" lon="12.643801200022294"><ele>101.0</ele><time>2026-04-25T08:03:29Z</time></trkpt><trkpt lat="43.88543783501525" lon="12.643635028114986"><ele>101.0</ele><time>2026-04-25T08:03:30Z</time></trkpt><trkpt lat="43.88538018971224" lon="12.64348682200506"><ele>101.0</ele><time>2026-04-25T08:03:31Z</time></trkpt><trkpt lat="43.88531182811001" lon="12.643331554271652"><ele>101.0</ele><time>2026-04-25T08:03:32Z</time></trkpt><trkpt lat="43.885226809050465" lon="12.643196817351647"><ele>100.5</ele><time>2026-04-25T08:03:33Z</time></trkpt><trkpt lat="43.88513047182291" lon="12.643076739553498"><ele>100.0</ele><time>2026-04-25T08:03:34Z</time></trkpt><trkpt lat="43.88505233325841" lon="12.642952755133475"><ele>99.5</ele><time>2026-04-25T08:03:35Z</time></trkpt><trkpt lat="43.88497103726557" lon="12.642871659335155"><ele>99.0</ele><time>2026-04-25T08:03:36Z</time></trkpt><trkpt lat="43.88487281793609" lon="12.642832052236695"><ele>99.0</ele><time>2026-04-25T08:03:37Z</time></trkpt><trkpt lat="43.88478445768834" lon="12.642816398311197"><ele>99.0</ele><time>2026-04-25T08:03:38Z</time></trkpt><trkpt lat="43.88466384577168" lon="12.642807007262103"><ele>99.0</ele><time>2026-04-25T08:03:39Z</time></trkpt><trkpt lat="43.88452345729078" lon="12.642803600895444"><ele>99.0</ele><time>2026-04-25T08:03:40Z</time></trkpt><trkpt lat="43.88437399557089" lon="12.642803843681834"><ele>97.66666666666667</ele><time>2026-04-25T08:03:41Z</time></trkpt><trkpt lat="43.884205449461014" lon="12.642791938513726"><ele>96.33333333333334</ele><time>2026-04-25T08:03:42Z</time></trkpt><trkpt lat="43.884057226139966" lon="12.642782149875005"><ele>95.0</ele><time>2026-04-25T08:03:43Z</time></trkpt><trkpt lat="43.88390810326032" lon="12.642772470315782"><ele>95.0</ele><time>2026-04-25T08:03:44Z</time></trkpt><trkpt lat="43.8837820878408" lon="12.642768603211692"><ele>95.0</ele><time>2026-04-25T08:03:45Z</time></trkpt><trkpt lat="43.88367618878807" lon="12.642771111347802"><ele>95.0</ele><time>2026-04-25T08:03:46Z</time></trkpt><trkpt lat="43.88354541828205" lon="12.642784131805678"><ele>95.0</ele><time>2026-04-25T08:03:47Z</time></trkpt><trkpt lat="43.883394345578154" lon="12.642814477008187"><ele>101.0</ele><time>2026-04-25T08:03:48Z</time></trkpt><trkpt lat="43.88320045786555" lon="12.642834828800313"><ele>107.0</ele><time>2026-04-25T08:03:49Z</time></trkpt><trkpt lat="43.883013680482186" lon="12.642852138346246"><ele>113.0</ele><time>2026-04-25T08:03:50Z</time></trkpt><trkpt lat="43.882828249004014" lon="12.642882041995755"><ele>113.0</ele><time>2026-04-25T08:03:51Z</time></trkpt><trkpt lat="43.882662229738884" lon="12.642914541824949"><ele>113.0</ele><time>2026-04-25T08:03:52Z</time></trkpt><trkpt lat="43.882523880087255" lon="12.642937225175283"><ele>113.0</ele><time>2026-04-25T08:03:53Z</time></trkpt><trkpt lat="43.88238247233381" lon="12.642908756485443"><ele>114.33333333333333</ele><time>2026-04-25T08:03:54Z</time></trkpt><trkpt lat="43.88222654326378" lon="12.642886685924672"><ele>115.66666666666666</ele><time>2026-04-25T08:03:55Z</time></trkpt><trkpt lat="43.88205259385135" lon="12.64286081440712"><ele>117.0</ele><time>2026-04-25T08:03:56Z</time></trkpt><trkpt lat="43.88185712309124" lon="12.642835448384476"><ele>118.0</ele><time>2026-04-25T08:03:57Z</time></trkpt><trkpt lat="43.881681310395045" lon="12.64281263335977"><ele>119.0</ele><time>2026-04-25T08:03:58Z</time></trkpt><trkpt lat="43.881548629078836" lon="12.642786645786567"><ele>120.0</ele><time>2026-04-25T08:03:59Z</time></trkpt><trkpt lat="43.88144157949671" lon="12.642768560737888"><ele>121.0</ele><time>2026-04-25T08:04:00Z</time></trkpt><trkpt lat="43.88133869091087" lon="12.642765647258015"><ele>121.0</ele><time>2026-04-25T08:04:01Z</time></trkpt><trkpt lat="43.88122433635019" lon="12.64277600908372"><ele>121.0</ele><time>2026-04-25T08:04:02Z</time></trkpt><trkpt lat="43.88108651255575" lon="12.642807751912226"><ele>121.0</ele><time>2026-04-25T08:04:03Z</time></trkpt><trkpt lat="43.88091765549731" lon="12.6428756948015"><ele>121.0</ele><time>2026-04-25T08:04:04Z</time></trkpt><trkpt lat="43.880737367641046" lon="12.642958814586997"><ele>119.0</ele><time>2026-04-25T08:04:05Z</time></trkpt><trkpt lat="43.8805370469052" lon="12.643033644066463"><ele>117.0</ele><time>2026-04-25T08:04:06Z</time></trkpt><trkpt lat="43.880354375272" lon="12.64310406611862"><ele>115.0</ele><time>2026-04-25T08:04:07Z</time></trkpt><trkpt lat="43.88019753777558" lon="12.643133669944477"><ele>112.33333333333334</ele><time>2026-04-25T08:04:08Z</time></trkpt><trkpt lat="43.88005993198673" lon="12.643151083420165"><ele>109.66666666666666</ele><time>2026-04-25T08:04:09Z</time></trkpt><trkpt lat="43.8799083732763" lon="12.643161197135436"><ele>107.0</ele><time>2026-04-25T08:04:10Z</time></trkpt><trkpt lat="43.879715966928046" lon="12.643178564395164"><ele>107.0</ele><time>2026-04-25T08:04:11Z</time></trkpt><trkpt lat="43.879497533564084" lon="12.643212351253133"><ele>107.0</ele><time>2026-04-25T08:04:12Z</time></trkpt><trkpt lat="43.879254492166204" lon="12.64326390046593"><ele>106.66666666666666</ele><time>2026-04-25T08:04:13Z</time></trkpt><trkpt lat="43.8790210630133" lon="12.643305614430078"><ele>106.33333333333334</ele><time>2026-04-25T08:04:14Z</time></trkpt><trkpt lat="43.87883959291293" lon="12.643331493204334"><ele>106.0</ele><time>2026-04-25T08:04:15Z</time></trkpt><trkpt lat="43.87870263452598" lon="12.643360607398806"><ele>106.0</ele><time>2026-04-25T08:04:16Z</time></trkpt><trkpt lat="43.87859396452361" lon="12.643389300555825"><ele>106.0</ele><time>2026-04-25T08:04:17Z</time></trkpt><trkpt lat="43.878498150823695" lon="12.643431895249204"><ele>106.0</ele><time>2026-04-25T08:04:18Z</time></trkpt><trkpt lat="43.87842276038061" lon="12.643506794937233"><ele>106.0</ele><time>2026-04-25T08:04:19Z</time></trkpt><trkpt lat="43.87833500820768" lon="12.643601093583017"><ele>106.0</ele><time>2026-04-25T08:04:20Z</time></trkpt><trkpt lat="43.87826430894558" lon="12.643723554503318"><ele>110.6</ele><time>2026-04-25T08:04:21Z</time></trkpt><trkpt lat="43.87816161880112" lon="12.643823416689303"><ele>115.19999999999999</ele><time>2026-04-25T08:04:22Z</time></trkpt><trkpt lat="43.878053553037" lon="12.64392047569311"><ele>119.80000000000001</ele><time>2026-04-25T08:04:23Z</time></trkpt><trkpt lat="43.8779683755626" lon="12.643965770715674"><ele>124.4</ele><time>2026-04-25T08:04:24Z</time></trkpt><trkpt lat="43.87789809152829" lon="12.643983266914004"><ele>129.0</ele><time>2026-04-25T08:04:25Z</time></trkpt><trkpt lat="43.87782254980218" lon="12.643982075776211"><ele>129.0</ele><time>2026-04-25T08:04:26Z</time></trkpt><trkpt lat="43.87773097244513" lon="12.64394315045549"><ele>129.0</ele><time>2026-04-25T08:04:27Z</time></trkpt><trkpt lat="43.8775681522924" lon="12.643888324127355"><ele>129.0</ele><time>2026-04-25T08:04:28Z</time></trkpt><trkpt lat="43.877432078437764" lon="12.643835373086207"><ele>129.0</ele><time>2026-04-25T08:04:29Z</time></trkpt><trkpt lat="43.87731685633261" lon="12.643774399413408"><ele>125.80000000000001</ele><time>2026-04-25T08:04:30Z</time></trkpt><trkpt lat="43.8772056692288" lon="12.643712371852308"><ele>122.60000000000001</ele><time>2026-04-25T08:04:31Z</time></trkpt><trkpt lat="43.87711841388453" lon="12.643648277945431"><ele>119.4</ele><time>2026-04-25T08:04:32Z</time></trkpt><trkpt lat="43.877069273036916" lon="12.643562725071458"><ele>116.2</ele><time>2026-04-25T08:04:33Z</time></trkpt><trkpt lat="43.877079965720995" lon="12.643430119808917"><ele>113.0</ele><time>2026-04-25T08:04:34Z</time></trkpt><trkpt lat="43.877058081329956" lon="12.643318185168626"><ele>112.2</ele><time>2026-04-25T08:04:35Z</time></trkpt><trkpt lat="43.87704105413193" lon="12.643231095164737"><ele>111.4</ele><time>2026-04-25T08:04:36Z</time></trkpt><trkpt lat="43.8769882441966" lon="12.643112527876909"><ele>110.60000000000001</ele><time>2026-04-25T08:04:39Z</time></trkpt><trkpt lat="43.87691946721721" lon="12.64298805219718"><ele>109.80000000000001</ele><time>2026-04-25T08:04:40Z</time></trkpt><trkpt lat="43.876837808442225" lon="12.6428406728928"><ele>109.0</ele><time>2026-04-25T08:04:41Z</time></trkpt><trkpt lat="43.87677922385213" lon="12.642683070121613"><ele>109.75</ele><time>2026-04-25T08:04:42Z</time></trkpt><trkpt lat="43.87674979496932" lon="12.642489064528865"><ele>110.5</ele><time>2026-04-25T08:04:43Z</time></trkpt><trkpt lat="43.87671516132326" lon="12.64230951431389"><ele>111.25</ele><time>2026-04-25T08:04:44Z</time></trkpt><trkpt lat="43.8766722972394" lon="12.642102616271382"><ele>112.0</ele><time>2026-04-25T08:04:45Z</time></trkpt><trkpt lat="43.87659393649078" lon="12.641921048201404"><ele>112.0</ele><time>2026-04-25T08:04:46Z</time></trkpt><trkpt lat="43.876537732566916" lon="12.641775312021679"><ele>112.0</ele><time>2026-04-25T08:04:47Z</time></trkpt><trkpt lat="43.87646579968624" lon="12.641656711308803"><ele>112.0</ele><time>2026-04-25T08:04:48Z</time></trkpt><trkpt lat="43.87637467301462" lon="12.64154396259662"><ele>112.0</ele><time>2026-04-25T08:04:49Z</time></trkpt><trkpt lat="43.8762446198525" lon="12.641398935090637"><ele>112.0</ele><time>2026-04-25T08:04:50Z</time></trkpt><trkpt lat="43.87612074761707" lon="12.641258708877674"><ele>112.0</ele><time>2026-04-25T08:04:51Z</time></trkpt><trkpt lat="43.876023910123436" lon="12.641125497765294"><ele>112.0</ele><time>2026-04-25T08:04:52Z</time></trkpt><trkpt lat="43.87595571771492" lon="12.640941857216841"><ele>112.0</ele><time>2026-04-25T08:04:53Z</time></trkpt><trkpt lat="43.87588278307861" lon="12.640721623067696"><ele>112.0</ele><time>2026-04-25T08:04:54Z</time></trkpt><trkpt lat="43.87580704101176" lon="12.640524522199284"><ele>112.0</ele><time>2026-04-25T08:04:55Z</time></trkpt><trkpt lat="43.875728471983095" lon="12.64032572765256"><ele>112.0</ele><time>2026-04-25T08:04:56Z</time></trkpt><trkpt lat="43.875660769069114" lon="12.640166627868728"><ele>112.0</ele><time>2026-04-25T08:04:57Z</time></trkpt><trkpt lat="43.87556805730558" lon="12.64001878955649"><ele>112.0</ele><time>2026-04-25T08:04:58Z</time></trkpt><trkpt lat="43.875492034951115" lon="12.63984082291959"><ele>112.0</ele><time>2026-04-25T08:04:59Z</time></trkpt><trkpt lat="43.8753793963967" lon="12.639654316716014"><ele>114.0</ele><time>2026-04-25T08:05:00Z</time></trkpt><trkpt lat="43.875234724653836" lon="12.639437306061142"><ele>116.0</ele><time>2026-04-25T08:05:01Z</time></trkpt><trkpt lat="43.87510080123754" lon="12.639205963348436"><ele>118.0</ele><time>2026-04-25T08:05:02Z</time></trkpt><trkpt lat="43.874972970616255" lon="12.63900225400396"><ele>118.0</ele><time>2026-04-25T08:05:03Z</time></trkpt><trkpt lat="43.87486982319106" lon="12.638854286113691"><ele>118.0</ele><time>2026-04-25T08:05:04Z</time></trkpt><trkpt lat="43.874764022486396" lon="12.63874851616721"><ele>118.0</ele><time>2026-04-25T08:05:05Z</time></trkpt><trkpt lat="43.87467022488398" lon="12.638655845261281"><ele>118.0</ele><time>2026-04-25T08:05:06Z</time></trkpt><trkpt lat="43.874575610019875" lon="12.638587065015585"><ele>117.75</ele><time>2026-04-25T08:05:07Z</time></trkpt><trkpt lat="43.8744624329476" lon="12.63853699639469"><ele>117.5</ele><time>2026-04-25T08:05:08Z</time></trkpt><trkpt lat="43.874334562236974" lon="12.638450415825323"><ele>117.25</ele><time>2026-04-25T08:05:09Z</time></trkpt><trkpt lat="43.87420141656759" lon="12.638344877151576"><ele>117.0</ele><time>2026-04-25T08:05:10Z</time></trkpt><trkpt lat="43.87404566444249" lon="12.638217077319185"><ele>117.0</ele><time>2026-04-25T08:05:11Z</time></trkpt><trkpt lat="43.873912204192735" lon="12.638099040497067"><ele>117.0</ele><time>2026-04-25T08:05:12Z</time></trkpt><trkpt lat="43.873794708685985" lon="12.637983254786977"><ele>117.0</ele><time>2026-04-25T08:05:13Z</time></trkpt><trkpt lat="43.87370160069338" lon="12.637874625306681"><ele>117.0</ele><time>2026-04-25T08:05:14Z</time></trkpt><trkpt lat="43.8736153940288" lon="12.63774067807807"><ele>118.0</ele><time>2026-04-25T08:05:15Z</time></trkpt><trkpt lat="43.87350833266621" lon="12.637547421343251"><ele>119.0</ele><time>2026-04-25T08:05:16Z</time></trkpt><trkpt lat="43.8733800462563" lon="12.637325587639614"><ele>120.0</ele><time>2026-04-25T08:05:17Z</time></trkpt><trkpt lat="43.87324013098773" lon="12.637100699571134"><ele>119.33333333333334</ele><time>2026-04-25T08:05:18Z</time></trkpt><trkpt lat="43.87311835956134" lon="12.63690361575058"><ele>118.66666666666667</ele><time>2026-04-25T08:05:19Z</time></trkpt><trkpt lat="43.87300256186216" lon="12.636705156372262"><ele>118.0</ele><time>2026-04-25T08:05:20Z</time></trkpt><trkpt lat="43.87290853181588" lon="12.636525407669268"><ele>118.0</ele><time>2026-04-25T08:05:21Z</time></trkpt><trkpt lat="43.872799817226216" lon="12.636326584129485"><ele>118.0</ele><time>2026-04-25T08:05:22Z</time></trkpt><trkpt lat="43.87273009781768" lon="12.636122102204732"><ele>118.0</ele><time>2026-04-25T08:05:23Z</time></trkpt><trkpt lat="43.87265956522762" lon="12.635942675486893"><ele>117.5</ele><time>2026-04-25T08:05:24Z</time></trkpt><trkpt lat="43.87259477536135" lon="12.635776442116814"><ele>117.0</ele><time>2026-04-25T08:05:25Z</time></trkpt><trkpt lat="43.872535169899564" lon="12.635632206322663"><ele>116.5</ele><time>2026-04-25T08:05:26Z</time></trkpt><trkpt lat="43.87246441027238" lon="12.635511572982885"><ele>116.0</ele><time>2026-04-25T08:05:27Z</time></trkpt><trkpt lat="43.87241602692994" lon="12.635393292333326"><ele>116.33333333333333</ele><time>2026-04-25T08:05:28Z</time></trkpt><trkpt lat="43.872374837742264" lon="12.635300207837764"><ele>116.66666666666666</ele><time>2026-04-25T08:05:29Z</time></trkpt><trkpt lat="43.87232966127965" lon="12.635223176902173"><ele>117.0</ele><time>2026-04-25T08:05:30Z</time></trkpt><trkpt lat="43.8722940146094" lon="12.635147262659206"><ele>117.33333333333334</ele><time>2026-04-25T08:05:31Z</time></trkpt><trkpt lat="43.872227430741226" lon="12.635032121217716"><ele>117.66666666666667</ele><time>2026-04-25T08:05:33Z</time></trkpt><trkpt lat="43.872178214626146" lon="12.63495909257556"><ele>118.0</ele><time>2026-04-25T08:05:34Z</time></trkpt><trkpt lat="43.872120244889366" lon="12.634898617835361"><ele>118.0</ele><time>2026-04-25T08:05:35Z</time></trkpt><trkpt lat="43.872068447596256" lon="12.634828967216757"><ele>118.00000000000001</ele><time>2026-04-25T08:05:36Z</time></trkpt><trkpt lat="43.87197352942603" lon="12.634755734699155"><ele>118.00000000000001</ele><time>2026-04-25T08:05:37Z</time></trkpt><trkpt lat="43.8718770743412" lon="12.634680736462503"><ele>118.0</ele><time>2026-04-25T08:05:38Z</time></trkpt><trkpt lat="43.87180409417603" lon="12.634622641776197"><ele>118.0</ele><time>2026-04-25T08:05:39Z</time></trkpt><trkpt lat="43.87173843665522" lon="12.634567546547341"><ele>118.2</ele><time>2026-04-25T08:05:40Z</time></trkpt><trkpt lat="43.871671158997614" lon="12.634506636862989"><ele>118.4</ele><time>2026-04-25T08:05:42Z</time></trkpt><trkpt lat="43.87161984701994" lon="12.634453751484516"><ele>118.60000000000001</ele><time>2026-04-25T08:05:47Z</time></trkpt><trkpt lat="43.871527344371565" lon="12.634393396394442"><ele>118.80000000000001</ele><time>2026-04-25T08:08:04Z</time></trkpt><trkpt lat="43.87143744854068" lon="12.634287022720914"><ele>119.0</ele><time>2026-04-25T08:08:05Z</time></trkpt><trkpt lat="43.87133397598325" lon="12.634153478581938"><ele>119.66666666666666</ele><time>2026-04-25T08:08:06Z</time></trkpt><trkpt lat="43.871174661974095" lon="12.633926393601318"><ele>120.33333333333334</ele><time>2026-04-25T08:08:07Z</time></trkpt><trkpt lat="43.870996077380646" lon="12.633767203874726"><ele>121.0</ele><time>2026-04-25T08:08:08Z</time></trkpt><trkpt lat="43.87086032638032" lon="12.63360231514364"><ele>121.75</ele><time>2026-04-25T08:08:09Z</time></trkpt><trkpt lat="43.870755717938415" lon="12.63347196372896"><ele>122.5</ele><time>2026-04-25T08:08:10Z</time></trkpt><trkpt lat="43.87065817392458" lon="12.633365246486361"><ele>123.25</ele><time>2026-04-25T08:08:11Z</time></trkpt><trkpt lat="43.87060369730885" lon="12.633237045778534"><ele>124.0</ele><time>2026-04-25T08:08:12Z</time></trkpt><trkpt lat="43.8705580451667" lon="12.63309750058375"><ele>124.0</ele><time>2026-04-25T08:08:13Z</time></trkpt><trkpt lat="43.870504878319" lon="12.632930781259773"><ele>124.0</ele><time>2026-04-25T08:08:14Z</time></trkpt><trkpt lat="43.87043163334387" lon="12.632717047772529"><ele>124.0</ele><time>2026-04-25T08:08:15Z</time></trkpt><trkpt lat="43.87033959133914" lon="12.632455024556892"><ele>123.66666666666667</ele><time>2026-04-25T08:08:16Z</time></trkpt><trkpt lat="43.87025963252003" lon="12.632220967673284"><ele>123.33333333333334</ele><time>2026-04-25T08:08:17Z</time></trkpt><trkpt lat="43.8701758357129" lon="12.63196971058737"><ele>123.0</ele><time>2026-04-25T08:08:18Z</time></trkpt><trkpt lat="43.87008597203346" lon="12.63169252309302"><ele>123.0</ele><time>2026-04-25T08:08:19Z</time></trkpt><trkpt lat="43.86998550836067" lon="12.631380870334128"><ele>123.0</ele><time>2026-04-25T08:08:20Z</time></trkpt><trkpt lat="43.86990164922818" lon="12.631116491432879"><ele>124.66666666666666</ele><time>2026-04-25T08:08:21Z</time></trkpt><trkpt lat="43.86982866347024" lon="12.630886051639473"><ele>126.33333333333333</ele><time>2026-04-25T08:08:22Z</time></trkpt><trkpt lat="43.869765064829394" lon="12.630675129931749"><ele>128.0</ele><time>2026-04-25T08:08:23Z</time></trkpt><trkpt lat="43.86970984353832" lon="12.630486584902416"><ele>128.75</ele><time>2026-04-25T08:08:24Z</time></trkpt><trkpt lat="43.86964660680312" lon="12.630280907012743"><ele>129.5</ele><time>2026-04-25T08:08:25Z</time></trkpt><trkpt lat="43.86958245660857" lon="12.630093801019472"><ele>130.25</ele><time>2026-04-25T08:08:26Z</time></trkpt><trkpt lat="43.86951516447814" lon="12.629925403733957"><ele>131.0</ele><time>2026-04-25T08:08:27Z</time></trkpt><trkpt lat="43.86944380945379" lon="12.629773551916873"><ele>131.0</ele><time>2026-04-25T08:08:28Z</time></trkpt><trkpt lat="43.86935503942277" lon="12.629645607921757"><ele>131.0</ele><time>2026-04-25T08:08:29Z</time></trkpt><trkpt lat="43.869293223294044" lon="12.629494018419644"><ele>131.0</ele><time>2026-04-25T08:08:30Z</time></trkpt><trkpt lat="43.869233940745474" lon="12.629373490886284"><ele>131.0</ele><time>2026-04-25T08:08:31Z</time></trkpt><trkpt lat="43.86918324732409" lon="12.629300615049923"><ele>131.0</ele><time>2026-04-25T08:08:36Z</time></trkpt><trkpt lat="43.8691633682766" lon="12.629192983682664"><ele>130.0</ele><time>2026-04-25T08:08:38Z</time></trkpt><trkpt lat="43.86910953824468" lon="12.629116960146872"><ele>129.0</ele><time>2026-04-25T08:08:40Z</time></trkpt><trkpt lat="43.86901951840699" lon="12.629109240613092"><ele>128.0</ele><time>2026-04-25T08:08:43Z</time></trkpt><trkpt lat="43.86891331572355" lon="12.629161752254406"><ele>127.0</ele><time>2026-04-25T08:08:45Z</time></trkpt><trkpt lat="43.86882795161434" lon="12.62920710293892"><ele>126.0</ele><time>2026-04-25T08:08:46Z</time></trkpt><trkpt lat="43.86866295771607" lon="12.629209917543122"><ele>126.0</ele><time>2026-04-25T08:08:47Z</time></trkpt><trkpt lat="43.86849686767384" lon="12.62926393438086"><ele>126.0</ele><time>2026-04-25T08:08:48Z</time></trkpt><trkpt lat="43.86837292984014" lon="12.62929857750878"><ele>126.0</ele><time>2026-04-25T08:08:49Z</time></trkpt><trkpt lat="43.868266757015896" lon="12.629320964793548"><ele>126.0</ele><time>2026-04-25T08:08:50Z</time></trkpt><trkpt lat="43.868182840452235" lon="12.629335198096003"><ele>126.16666666666667</ele><time>2026-04-25T08:08:51Z</time></trkpt><trkpt lat="43.86809593073604" lon="12.62934458236696"><ele>126.33333333333334</ele><time>2026-04-25T08:08:52Z</time></trkpt><trkpt lat="43.86801679321452" lon="12.62934658538999"><ele>126.5</ele><time>2026-04-25T08:08:53Z</time></trkpt><trkpt lat="43.86794821252285" lon="12.629337709881089"><ele>126.66666666666667</ele><time>2026-04-25T08:08:54Z</time></trkpt><trkpt lat="43.867883515305394" lon="12.629324672663884"><ele>126.83333333333334</ele><time>2026-04-25T08:08:56Z</time></trkpt><trkpt lat="43.86794578975794" lon="12.629351604175278"><ele>127.0</ele><time>2026-04-25T08:08:59Z</time></trkpt><trkpt lat="43.867985104510645" lon="12.629530774301772"><ele>127.00000000000001</ele><time>2026-04-25T08:09:00Z</time></trkpt><trkpt lat="43.86805664735423" lon="12.629567298378317"><ele>127.0</ele><time>2026-04-25T08:09:01Z</time></trkpt><trkpt lat="43.86811868079294" lon="12.629587643251583"><ele>127.0</ele><time>2026-04-25T08:09:02Z</time></trkpt><trkpt lat="43.86820465622515" lon="12.629630582059193"><ele>127.0</ele><time>2026-04-25T08:09:04Z</time></trkpt><trkpt lat="43.86824949172144" lon="12.629703363070245"><ele>127.00000000000001</ele><time>2026-04-25T08:09:06Z</time></trkpt><trkpt lat="43.86823987602439" lon="12.6298125826363"><ele>127.0</ele><time>2026-04-25T08:09:08Z</time></trkpt><trkpt lat="43.86818917887337" lon="12.62990812185338"><ele>127.00000000000001</ele><time>2026-04-25T08:09:10Z</time></trkpt><trkpt lat="43.86813244934545" lon="12.629959241289184"><ele>127.0</ele><time>2026-04-25T08:09:11Z</time></trkpt><trkpt lat="43.8680470131992" lon="12.630012478716472"><ele>127.0</ele><time>2026-04-25T08:09:12Z</time></trkpt><trkpt lat="43.86796603202532" lon="12.630098127089974"><ele>127.0</ele><time>2026-04-25T08:09:13Z</time></trkpt><trkpt lat="43.86790652976227" lon="12.630188972942065"><ele>127.00000000000001</ele><time>2026-04-25T08:09:14Z</time></trkpt><trkpt lat="43.86786115296362" lon="12.630288514496128"><ele>127.0</ele><time>2026-04-25T08:09:15Z</time></trkpt><trkpt lat="43.867880347361734" lon="12.630391713996058"><ele>128.33333333333334</ele><time>2026-04-25T08:09:16Z</time></trkpt><trkpt lat="43.867906342277585" lon="12.630518682408285"><ele>129.66666666666669</ele><time>2026-04-25T08:09:17Z</time></trkpt><trkpt lat="43.8679474234666" lon="12.630652563245633"><ele>131.0</ele><time>2026-04-25T08:09:18Z</time></trkpt><trkpt lat="43.86796115615891" lon="12.630758129221963"><ele>132.33333333333334</ele><time>2026-04-25T08:09:19Z</time></trkpt><trkpt lat="43.86795571500181" lon="12.630858960794146"><ele>133.66666666666666</ele><time>2026-04-25T08:09:20Z</time></trkpt><trkpt lat="43.867931619569916" lon="12.630955390550064"><ele>135.0</ele><time>2026-04-25T08:09:21Z</time></trkpt><trkpt lat="43.86789872181237" lon="12.631051181993856"><ele>137.33333333333334</ele><time>2026-04-25T08:09:22Z</time></trkpt><trkpt lat="43.86785906340397" lon="12.631151134011095"><ele>139.66666666666666</ele><time>2026-04-25T08:09:23Z</time></trkpt><trkpt lat="43.8678171794881" lon="12.631254579315776"><ele>142.0</ele><time>2026-04-25T08:09:24Z</time></trkpt><trkpt lat="43.86777019751912" lon="12.631358767391726"><ele>144.33333333333331</ele><time>2026-04-25T08:09:25Z</time></trkpt><trkpt lat="43.86772503226965" lon="12.631461586392149"><ele>146.66666666666666</ele><time>2026-04-25T08:09:26Z</time></trkpt><trkpt lat="43.86768113268084" lon="12.631568382408"><ele>149.0</ele><time>2026-04-25T08:09:27Z</time></trkpt><trkpt lat="43.86763162607048" lon="12.63169364876814"><ele>153.0</ele><time>2026-04-25T08:09:28Z</time></trkpt><trkpt lat="43.86757810460946" lon="12.631830506490797"><ele>157.0</ele><time>2026-04-25T08:09:29Z</time></trkpt><trkpt lat="43.86752438237654" lon="12.631950903454218"><ele>161.0</ele><time>2026-04-25T08:09:30Z</time></trkpt><trkpt lat="43.86745858609304" lon="12.632092212664"><ele>165.0</ele><time>2026-04-25T08:09:31Z</time></trkpt><trkpt lat="43.86740052430615" lon="12.6322323491116"><ele>167.83333333333334</ele><time>2026-04-25T08:09:32Z</time></trkpt><trkpt lat="43.86734458406278" lon="12.632342962843246"><ele>170.66666666666666</ele><time>2026-04-25T08:09:33Z</time></trkpt><trkpt lat="43.86728121287675" lon="12.632440505702574"><ele>173.5</ele><time>2026-04-25T08:09:34Z</time></trkpt><trkpt lat="43.867236587422376" lon="12.632532823772994"><ele>176.33333333333331</ele><time>2026-04-25T08:09:35Z</time></trkpt><trkpt lat="43.86718348492103" lon="12.632621452858388"><ele>179.16666666666666</ele><time>2026-04-25T08:09:36Z</time></trkpt><trkpt lat="43.86713342568893" lon="12.632714512672568"><ele>182.0</ele><time>2026-04-25T08:09:37Z</time></trkpt><trkpt lat="43.867084122658525" lon="12.632821754827075"><ele>182.8</ele><time>2026-04-25T08:09:38Z</time></trkpt><trkpt lat="43.867040402059004" lon="12.632942173824253"><ele>183.6</ele><time>2026-04-25T08:09:39Z</time></trkpt><trkpt lat="43.866998386577635" lon="12.633051696265243"><ele>184.4</ele><time>2026-04-25T08:09:40Z</time></trkpt><trkpt lat="43.86695944712003" lon="12.63312076305365"><ele>185.20000000000002</ele><time>2026-04-25T08:09:41Z</time></trkpt><trkpt lat="43.86685942292524" lon="12.633235515142971"><ele>186.0</ele><time>2026-04-25T08:09:43Z</time></trkpt><trkpt lat="43.86678214662981" lon="12.63328733515999"><ele>189.25</ele><time>2026-04-25T08:09:44Z</time></trkpt><trkpt lat="43.866680089638415" lon="12.633352030339712"><ele>192.5</ele><time>2026-04-25T08:09:45Z</time></trkpt><trkpt lat="43.866571693692265" lon="12.63341870575861"><ele>195.75</ele><time>2026-04-25T08:09:46Z</time></trkpt><trkpt lat="43.866467082603286" lon="12.633504329773173"><ele>199.0</ele><time>2026-04-25T08:09:47Z</time></trkpt><trkpt lat="43.86636877276503" lon="12.633595515584453"><ele>197.5</ele><time>2026-04-25T08:09:48Z</time></trkpt><trkpt lat="43.86628054301236" lon="12.633671983363485"><ele>196.0</ele><time>2026-04-25T08:09:49Z</time></trkpt><trkpt lat="43.866185058597516" lon="12.633742487151878"><ele>194.5</ele><time>2026-04-25T08:09:50Z</time></trkpt><trkpt lat="43.866061838040395" lon="12.633818143729291"><ele>193.0</ele><time>2026-04-25T08:09:51Z</time></trkpt><trkpt lat="43.865930254745386" lon="12.633900117226274"><ele>196.2</ele><time>2026-04-25T08:09:52Z</time></trkpt><trkpt lat="43.865821941109814" lon="12.633963992170854"><ele>199.4</ele><time>2026-04-25T08:09:53Z</time></trkpt><trkpt lat="43.86573333542349" lon="12.634020335721358"><ele>202.6</ele><time>2026-04-25T08:09:54Z</time></trkpt><trkpt lat="43.865664512429184" lon="12.634074921241979"><ele>205.79999999999998</ele><time>2026-04-25T08:09:55Z</time></trkpt><trkpt lat="43.86559968048239" lon="12.634144748312384"><ele>209.0</ele><time>2026-04-25T08:09:56Z</time></trkpt><trkpt lat="43.86551670170763" lon="12.634227501695749"><ele>209.00000000000003</ele><time>2026-04-25T08:09:57Z</time></trkpt><trkpt lat="43.86543408028593" lon="12.63431466542844"><ele>209.0</ele><time>2026-04-25T08:09:58Z</time></trkpt><trkpt lat="43.86535450537492" lon="12.634399328356281"><ele>209.0</ele><time>2026-04-25T08:09:59Z</time></trkpt><trkpt lat="43.86528543702005" lon="12.634471695694629"><ele>209.0</ele><time>2026-04-25T08:10:00Z</time></trkpt><trkpt lat="43.86522665461712" lon="12.634538033079858"><ele>209.00000000000003</ele><time>2026-04-25T08:10:01Z</time></trkpt><trkpt lat="43.86517748821753" lon="12.63459384768635"><ele>209.0</ele><time>2026-04-25T08:10:02Z</time></trkpt><trkpt lat="43.865130278849705" lon="12.634659045009462"><ele>209.50000000000003</ele><time>2026-04-25T08:10:03Z</time></trkpt><trkpt lat="43.86508340742919" lon="12.634724349629373"><ele>210.0</ele><time>2026-04-25T08:10:04Z</time></trkpt><trkpt lat="43.86503536135558" lon="12.634793025069325"><ele>210.5</ele><time>2026-04-25T08:10:05Z</time></trkpt><trkpt lat="43.8649807408291" lon="12.63486535902351"><ele>211.0</ele><time>2026-04-25T08:10:06Z</time></trkpt><trkpt lat="43.86491221640587" lon="12.634955438311831"><ele>211.50000000000003</ele><time>2026-04-25T08:10:07Z</time></trkpt><trkpt lat="43.86483703502671" lon="12.63505446699367"><ele>212.0</ele><time>2026-04-25T08:10:08Z</time></trkpt><trkpt lat="43.864773860487" lon="12.635138379118297"><ele>212.0</ele><time>2026-04-25T08:10:09Z</time></trkpt><trkpt lat="43.86471591277608" lon="12.635207153927507"><ele>212.0</ele><time>2026-04-25T08:10:10Z</time></trkpt><trkpt lat="43.86466011932933" lon="12.635287213329324"><ele>212.0</ele><time>2026-04-25T08:10:11Z</time></trkpt><trkpt lat="43.864592761849934" lon="12.635382819902075"><ele>212.0</ele><time>2026-04-25T08:10:12Z</time></trkpt><trkpt lat="43.864518863377846" lon="12.635492869382572"><ele>212.0</ele><time>2026-04-25T08:10:13Z</time></trkpt><trkpt lat="43.864446347101044" lon="12.635596928340634"><ele>211.39999999999998</ele><time>2026-04-25T08:10:14Z</time></trkpt><trkpt lat="43.86437467035416" lon="12.63570135682982"><ele>210.79999999999998</ele><time>2026-04-25T08:10:15Z</time></trkpt><trkpt lat="43.86430082990506" lon="12.635808442194724"><ele>210.2</ele><time>2026-04-25T08:10:16Z</time></trkpt><trkpt lat="43.86423005887357" lon="12.635924856271409"><ele>209.6</ele><time>2026-04-25T08:10:17Z</time></trkpt><trkpt lat="43.8641696699258" lon="12.636025397484284"><ele>209.0</ele><time>2026-04-25T08:10:18Z</time></trkpt><trkpt lat="43.864111323293585" lon="12.636132225576718"><ele>211.0</ele><time>2026-04-25T08:10:19Z</time></trkpt><trkpt lat="43.86404906928617" lon="12.636252237241468"><ele>213.0</ele><time>2026-04-25T08:10:20Z</time></trkpt><trkpt lat="43.86397699562391" lon="12.636380341818796"><ele>214.99999999999997</ele><time>2026-04-25T08:10:21Z</time></trkpt><trkpt lat="43.86391342268066" lon="12.63649822529501"><ele>217.0</ele><time>2026-04-25T08:10:22Z</time></trkpt><trkpt lat="43.863842518648994" lon="12.636616779863479"><ele>219.0</ele><time>2026-04-25T08:10:23Z</time></trkpt><trkpt lat="43.86377717708438" lon="12.636719996370505"><ele>219.0</ele><time>2026-04-25T08:10:24Z</time></trkpt><trkpt lat="43.86371636417565" lon="12.636795244019412"><ele>219.0</ele><time>2026-04-25T08:10:25Z</time></trkpt><trkpt lat="43.86366183311413" lon="12.636848450984285"><ele>219.0</ele><time>2026-04-25T08:10:26Z</time></trkpt><trkpt lat="43.86360621705016" lon="12.63689370055532"><ele>219.0</ele><time>2026-04-25T08:10:27Z</time></trkpt><trkpt lat="43.86354370839344" lon="12.63693695692918"><ele>219.0</ele><time>2026-04-25T08:10:28Z</time></trkpt><trkpt lat="43.86347093948019" lon="12.63698618700834"><ele>219.0</ele><time>2026-04-25T08:10:29Z</time></trkpt><trkpt lat="43.86340577152346" lon="12.637037725618844"><ele>219.0</ele><time>2026-04-25T08:10:30Z</time></trkpt><trkpt lat="43.86333633850346" lon="12.637088317172564"><ele>220.42857142857144</ele><time>2026-04-25T08:10:31Z</time></trkpt><trkpt lat="43.863269530642405" lon="12.63714208394046"><ele>221.85714285714283</ele><time>2026-04-25T08:10:32Z</time></trkpt><trkpt lat="43.863213503922516" lon="12.63718826447118"><ele>223.28571428571428</ele><time>2026-04-25T08:10:33Z</time></trkpt><trkpt lat="43.863159559752376" lon="12.637242508632188"><ele>224.71428571428572</ele><time>2026-04-25T08:10:34Z</time></trkpt><trkpt lat="43.86311114029002" lon="12.637309494300537"><ele>226.14285714285717</ele><time>2026-04-25T08:10:35Z</time></trkpt><trkpt lat="43.863060607338674" lon="12.637384983168682"><ele>227.57142857142856</ele><time>2026-04-25T08:10:36Z</time></trkpt><trkpt lat="43.86301473528425" lon="12.637470421344046"><ele>229.0</ele><time>2026-04-25T08:10:37Z</time></trkpt><trkpt lat="43.86297522112746" lon="12.637547470725785"><ele>228.99999999999997</ele><time>2026-04-25T08:10:38Z</time></trkpt><trkpt lat="43.86294001137197" lon="12.637631272948617"><ele>229.0</ele><time>2026-04-25T08:10:39Z</time></trkpt><trkpt lat="43.86291882403424" lon="12.637716816265778"><ele>229.0</ele><time>2026-04-25T08:10:40Z</time></trkpt><trkpt lat="43.86286308035035" lon="12.637842900589005"><ele>229.0</ele><time>2026-04-25T08:10:42Z</time></trkpt><trkpt lat="43.86278939141587" lon="12.637944694512429"><ele>228.99999999999997</ele><time>2026-04-25T08:10:44Z</time></trkpt><trkpt lat="43.862717203010845" lon="12.638022513238868"><ele>229.0</ele><time>2026-04-25T08:10:46Z</time></trkpt><trkpt lat="43.862630066117006" lon="12.638110326845403"><ele>231.79999999999998</ele><time>2026-04-25T08:10:48Z</time></trkpt><trkpt lat="43.86252476088064" lon="12.638218205363156"><ele>234.59999999999997</ele><time>2026-04-25T08:10:50Z</time></trkpt><trkpt lat="43.86247589786919" lon="12.638288922368188"><ele>237.4</ele><time>2026-04-25T08:10:51Z</time></trkpt><trkpt lat="43.862402648289994" lon="12.63842405415598"><ele>240.2</ele><time>2026-04-25T08:10:53Z</time></trkpt><trkpt lat="43.86237541924314" lon="12.63852211033936"><ele>243.0</ele><time>2026-04-25T08:10:54Z</time></trkpt><trkpt lat="43.862344320331246" lon="12.638637227291264"><ele>244.16666666666666</ele><time>2026-04-25T08:10:55Z</time></trkpt><trkpt lat="43.862303724099164" lon="12.638737813843775"><ele>245.33333333333331</ele><time>2026-04-25T08:10:56Z</time></trkpt><trkpt lat="43.86225671924023" lon="12.638837213979993"><ele>246.5</ele><time>2026-04-25T08:10:57Z</time></trkpt><trkpt lat="43.8621986285833" lon="12.638945634648769"><ele>247.66666666666666</ele><time>2026-04-25T08:10:58Z</time></trkpt><trkpt lat="43.86213663503537" lon="12.639026021716049"><ele>248.83333333333331</ele><time>2026-04-25T08:10:59Z</time></trkpt><trkpt lat="43.862078534942334" lon="12.639102513279411"><ele>250.0</ele><time>2026-04-25T08:11:00Z</time></trkpt><trkpt lat="43.8620067855127" lon="12.639181796305984"><ele>250.0</ele><time>2026-04-25T08:11:01Z</time></trkpt><trkpt lat="43.861924971920686" lon="12.639276633605574"><ele>250.0</ele><time>2026-04-25T08:11:02Z</time></trkpt><trkpt lat="43.86184734652845" lon="12.639371781266371"><ele>250.0</ele><time>2026-04-25T08:11:03Z</time></trkpt><trkpt lat="43.8617754233253" lon="12.639457593928423"><ele>250.0</ele><time>2026-04-25T08:11:04Z</time></trkpt><trkpt lat="43.86170723427206" lon="12.639547116280518"><ele>250.0</ele><time>2026-04-25T08:11:05Z</time></trkpt><trkpt lat="43.86164104772993" lon="12.639645353771671"><ele>253.0</ele><time>2026-04-25T08:11:06Z</time></trkpt><trkpt lat="43.86158306095306" lon="12.639739972930917"><ele>256.0</ele><time>2026-04-25T08:11:07Z</time></trkpt><trkpt lat="43.861537537217664" lon="12.639844322926695"><ele>259.0</ele><time>2026-04-25T08:11:08Z</time></trkpt><trkpt lat="43.86148148812677" lon="12.639971666450945"><ele>262.0</ele><time>2026-04-25T08:11:09Z</time></trkpt><trkpt lat="43.86141360750989" lon="12.640127022020744"><ele>265.0</ele><time>2026-04-25T08:11:10Z</time></trkpt><trkpt lat="43.86135259079412" lon="12.640244627382051"><ele>263.3333333333333</ele><time>2026-04-25T08:11:11Z</time></trkpt><trkpt lat="43.86130472984562" lon="12.640305834374665"><ele>261.66666666666663</ele><time>2026-04-25T08:11:12Z</time></trkpt><trkpt lat="43.86117218525508" lon="12.640361944565669"><ele>260.0</ele><time>2026-04-25T08:11:14Z</time></trkpt><trkpt lat="43.86108391151412" lon="12.640391716415976"><ele>258.3333333333333</ele><time>2026-04-25T08:11:15Z</time></trkpt><trkpt lat="43.86100602059708" lon="12.64040388389519"><ele>256.6666666666667</ele><time>2026-04-25T08:11:16Z</time></trkpt><trkpt lat="43.86093170140271" lon="12.64040695370837"><ele>255.0</ele><time>2026-04-25T08:11:17Z</time></trkpt><trkpt lat="43.860843842952335" lon="12.640408614704363"><ele>259.2</ele><time>2026-04-25T08:11:18Z</time></trkpt><trkpt lat="43.86074280412392" lon="12.640421523650751"><ele>263.4</ele><time>2026-04-25T08:11:19Z</time></trkpt><trkpt lat="43.86063099611746" lon="12.640444220367948"><ele>267.6</ele><time>2026-04-25T08:11:20Z</time></trkpt><trkpt lat="43.86051938126786" lon="12.640464312028469"><ele>271.8</ele><time>2026-04-25T08:11:21Z</time></trkpt><trkpt lat="43.86041432073684" lon="12.640488324742236"><ele>276.0</ele><time>2026-04-25T08:11:22Z</time></trkpt><trkpt lat="43.86031874103698" lon="12.640530765406735"><ele>276.0</ele><time>2026-04-25T08:11:23Z</time></trkpt><trkpt lat="43.86023690589388" lon="12.640569833279608"><ele>276.0</ele><time>2026-04-25T08:11:24Z</time></trkpt><trkpt lat="43.86016106061767" lon="12.640600010851726"><ele>276.0</ele><time>2026-04-25T08:11:25Z</time></trkpt><trkpt lat="43.860056714631675" lon="12.640631264598818"><ele>276.0</ele><time>2026-04-25T08:11:27Z</time></trkpt><trkpt lat="43.85995925327627" lon="12.640619523448944"><ele>276.0</ele><time>2026-04-25T08:11:29Z</time></trkpt><trkpt lat="43.85988339069081" lon="12.640604239224121"><ele>276.0</ele><time>2026-04-25T08:11:30Z</time></trkpt><trkpt lat="43.85981547147698" lon="12.640593921081297"><ele>278.7142857142857</ele><time>2026-04-25T08:11:31Z</time></trkpt><trkpt lat="43.859750736858594" lon="12.640586859543074"><ele>281.42857142857144</ele><time>2026-04-25T08:11:32Z</time></trkpt><trkpt lat="43.859697472244285" lon="12.640525707190296"><ele>284.14285714285717</ele><time>2026-04-25T08:11:34Z</time></trkpt><trkpt lat="43.85975432806345" lon="12.640464328330204"><ele>286.8571428571429</ele><time>2026-04-25T08:11:37Z</time></trkpt><trkpt lat="43.85982968461719" lon="12.640445066363064"><ele>289.57142857142856</ele><time>2026-04-25T08:11:40Z</time></trkpt><trkpt lat="43.85986754714213" lon="12.640370636022986"><ele>292.28571428571433</ele><time>2026-04-25T08:11:43Z</time></trkpt><trkpt lat="43.859802403452356" lon="12.640369831416724"><ele>295.0</ele><time>2026-04-25T08:11:57Z</time></trkpt><trkpt lat="43.85973833587786" lon="12.640353566446917"><ele>295.3333333333333</ele><time>2026-04-25T08:12:16Z</time></trkpt><trkpt lat="43.859771048380814" lon="12.640227439109978"><ele>295.66666666666663</ele><time>2026-04-25T08:12:34Z</time></trkpt><trkpt lat="43.85974665598369" lon="12.640124437379681"><ele>296.0</ele><time>2026-04-25T08:12:37Z</time></trkpt><trkpt lat="43.859684750042156" lon="12.640062645589019"><ele>296.3333333333333</ele><time>2026-04-25T08:12:40Z</time></trkpt><trkpt lat="43.85961909921401" lon="12.640041363215628"><ele>296.6666666666667</ele><time>2026-04-25T08:12:42Z</time></trkpt><trkpt lat="43.85951854963865" lon="12.640042909389512"><ele>297.0</ele><time>2026-04-25T08:12:45Z</time></trkpt><trkpt lat="43.8594246843289" lon="12.640041724470311"><ele>297.0</ele><time>2026-04-25T08:12:47Z</time></trkpt><trkpt lat="43.85934359424184" lon="12.64001332262825"><ele>297.0</ele><time>2026-04-25T08:12:49Z</time></trkpt><trkpt lat="43.85928192474483" lon="12.639984494923077"><ele>297.0</ele><time>2026-04-25T08:12:51Z</time></trkpt><trkpt lat="43.85921724324028" lon="12.640007631921879"><ele>297.0</ele><time>2026-04-25T08:12:53Z</time></trkpt><trkpt lat="43.85916199529864" lon="12.640092941802825"><ele>297.0</ele><time>2026-04-25T08:12:55Z</time></trkpt><trkpt lat="43.85910758843939" lon="12.640198029113726"><ele>297.0</ele><time>2026-04-25T08:12:57Z</time></trkpt><trkpt lat="43.859055558737246" lon="12.640326568185902"><ele>299.8333333333333</ele><time>2026-04-25T08:12:59Z</time></trkpt><trkpt lat="43.859020007876744" lon="12.640419086948528"><ele>302.6666666666667</ele><time>2026-04-25T08:13:00Z</time></trkpt><trkpt lat="43.858991264514465" lon="12.640498840521952"><ele>305.5</ele><time>2026-04-25T08:13:01Z</time></trkpt><trkpt lat="43.85892952593804" lon="12.640643627626709"><ele>308.33333333333337</ele><time>2026-04-25T08:13:03Z</time></trkpt><trkpt lat="43.85886186908171" lon="12.640769758072953"><ele>311.1666666666667</ele><time>2026-04-25T08:13:05Z</time></trkpt><trkpt lat="43.85879434553508" lon="12.64080340620849"><ele>314.0</ele><time>2026-04-25T08:13:06Z</time></trkpt><trkpt lat="43.85872474515126" lon="12.640856969250363"><ele>314.0</ele><time>2026-04-25T08:13:07Z</time></trkpt><trkpt lat="43.858638478775674" lon="12.640911492326811"><ele>314.0</ele><time>2026-04-25T08:13:08Z</time></trkpt><trkpt lat="43.858547324459906" lon="12.640995941751486"><ele>314.0</ele><time>2026-04-25T08:13:09Z</time></trkpt><trkpt lat="43.85844281269647" lon="12.641064667262015"><ele>314.0</ele><time>2026-04-25T08:13:10Z</time></trkpt><trkpt lat="43.858352023423656" lon="12.64114871612482"><ele>314.0</ele><time>2026-04-25T08:13:11Z</time></trkpt><trkpt lat="43.85828223644573" lon="12.641239996968027"><ele>317.6</ele><time>2026-04-25T08:13:12Z</time></trkpt><trkpt lat="43.858224579207736" lon="12.641345278828798"><ele>321.2</ele><time>2026-04-25T08:13:13Z</time></trkpt><trkpt lat="43.85818204544481" lon="12.641471733463101"><ele>324.8</ele><time>2026-04-25T08:13:14Z</time></trkpt><trkpt lat="43.858131751997" lon="12.641603322032964"><ele>328.40000000000003</ele><time>2026-04-25T08:13:15Z</time></trkpt><trkpt lat="43.85807662175197" lon="12.641750932290678"><ele>332.0</ele><time>2026-04-25T08:13:16Z</time></trkpt><trkpt lat="43.85801693004494" lon="12.641928572128247"><ele>332.0</ele><time>2026-04-25T08:13:17Z</time></trkpt><trkpt lat="43.85796426422368" lon="12.642105395831498"><ele>332.0</ele><time>2026-04-25T08:13:18Z</time></trkpt><trkpt lat="43.857913066516225" lon="12.642300655046428"><ele>332.0</ele><time>2026-04-25T08:13:19Z</time></trkpt><trkpt lat="43.857864297665635" lon="12.64252503062926"><ele>332.0</ele><time>2026-04-25T08:13:20Z</time></trkpt><trkpt lat="43.85780388535839" lon="12.642709418696768"><ele>332.0</ele><time>2026-04-25T08:13:21Z</time></trkpt><trkpt lat="43.85775198021314" lon="12.642891218499484"><ele>332.0</ele><time>2026-04-25T08:13:22Z</time></trkpt><trkpt lat="43.857700872322056" lon="12.643078054598254"><ele>332.0</ele><time>2026-04-25T08:13:23Z</time></trkpt><trkpt lat="43.85765024332845" lon="12.64326713925494"><ele>337.0</ele><time>2026-04-25T08:13:24Z</time></trkpt><trkpt lat="43.85761739141417" lon="12.643443552816526"><ele>342.0</ele><time>2026-04-25T08:13:25Z</time></trkpt><trkpt lat="43.85757480115361" lon="12.64362415345219"><ele>347.0</ele><time>2026-04-25T08:13:26Z</time></trkpt><trkpt lat="43.85754672169156" lon="12.643784444102534"><ele>352.0</ele><time>2026-04-25T08:13:27Z</time></trkpt><trkpt lat="43.857526736256595" lon="12.64395675263028"><ele>352.0</ele><time>2026-04-25T08:13:28Z</time></trkpt><trkpt lat="43.85750361821772" lon="12.644145810012084"><ele>352.0</ele><time>2026-04-25T08:13:29Z</time></trkpt><trkpt lat="43.857477569776194" lon="12.644304185489686"><ele>352.0</ele><time>2026-04-25T08:13:30Z</time></trkpt><trkpt lat="43.85742312544156" lon="12.644425903999087"><ele>352.0</ele><time>2026-04-25T08:13:31Z</time></trkpt><trkpt lat="43.85736846704253" lon="12.644521027913024"><ele>352.0</ele><time>2026-04-25T08:13:32Z</time></trkpt><trkpt lat="43.857304748769764" lon="12.644589661723636"><ele>352.20000000000005</ele><time>2026-04-25T08:13:33Z</time></trkpt><trkpt lat="43.857242322901456" lon="12.644696182667346"><ele>352.4</ele><time>2026-04-25T08:13:35Z</time></trkpt><trkpt lat="43.85728038317951" lon="12.64480667544245"><ele>352.6</ele><time>2026-04-25T08:13:37Z</time></trkpt><trkpt lat="43.857321335588836" lon="12.64489736840306"><ele>352.79999999999995</ele><time>2026-04-25T08:13:38Z</time></trkpt><trkpt lat="43.85733735001931" lon="12.645042292534127"><ele>353.0</ele><time>2026-04-25T08:13:39Z</time></trkpt><trkpt lat="43.8573719073763" lon="12.645248742951804"><ele>353.5</ele><time>2026-04-25T08:13:40Z</time></trkpt><trkpt lat="43.857420825252845" lon="12.645478857498604"><ele>354.0</ele><time>2026-04-25T08:13:41Z</time></trkpt><trkpt lat="43.85745193141301" lon="12.645687234550948"><ele>354.5</ele><time>2026-04-25T08:13:42Z</time></trkpt><trkpt lat="43.85745332802048" lon="12.645855135200627"><ele>355.0</ele><time>2026-04-25T08:13:43Z</time></trkpt><trkpt lat="43.85745273550649" lon="12.64599953264435"><ele>355.0</ele><time>2026-04-25T08:13:44Z</time></trkpt><trkpt lat="43.85744792301149" lon="12.6461236131768"><ele>355.0</ele><time>2026-04-25T08:13:45Z</time></trkpt><trkpt lat="43.85743552163322" lon="12.646282202441462"><ele>355.0</ele><time>2026-04-25T08:13:46Z</time></trkpt><trkpt lat="43.85742180113513" lon="12.646408372687413"><ele>355.0</ele><time>2026-04-25T08:13:47Z</time></trkpt><trkpt lat="43.85739654189238" lon="12.646532168257504"><ele>355.0</ele><time>2026-04-25T08:13:49Z</time></trkpt><trkpt lat="43.857313375220954" lon="12.646467694159059"><ele>355.0</ele><time>2026-04-25T08:13:51Z</time></trkpt><trkpt lat="43.85719433808761" lon="12.646435750587237"><ele>355.0</ele><time>2026-04-25T08:13:53Z</time></trkpt><trkpt lat="43.85709223253373" lon="12.646459825226462"><ele>355.0</ele><time>2026-04-25T08:13:55Z</time></trkpt><trkpt lat="43.85712292572339" lon="12.646353435051891"><ele>355.0</ele><time>2026-04-25T08:14:54Z</time></trkpt><trkpt lat="43.85718189415552" lon="12.64618816727517"><ele>355.0</ele><time>2026-04-25T08:14:56Z</time></trkpt><trkpt lat="43.857191016703524" lon="12.64606921354941"><ele>355.0</ele><time>2026-04-25T08:14:57Z</time></trkpt><trkpt lat="43.857198532295996" lon="12.645908218159386"><ele>355.0</ele><time>2026-04-25T08:14:58Z</time></trkpt><trkpt lat="43.85715342168625" lon="12.645707924161492"><ele>355.0</ele><time>2026-04-25T08:14:59Z</time></trkpt><trkpt lat="43.85709928485777" lon="12.645531014882698"><ele>355.0</ele><time>2026-04-25T08:15:00Z</time></trkpt><trkpt lat="43.857038024132166" lon="12.645334192395717"><ele>354.5</ele><time>2026-04-25T08:15:01Z</time></trkpt><trkpt lat="43.85697694899465" lon="12.645136342263186"><ele>354.0</ele><time>2026-04-25T08:15:02Z</time></trkpt><trkpt lat="43.856913202153386" lon="12.64494243825434"><ele>353.5</ele><time>2026-04-25T08:15:03Z</time></trkpt><trkpt lat="43.85685888367989" lon="12.644786766762214"><ele>353.0</ele><time>2026-04-25T08:15:04Z</time></trkpt><trkpt lat="43.85678312904205" lon="12.64466465673658"><ele>353.75</ele><time>2026-04-25T08:15:05Z</time></trkpt><trkpt lat="43.856688095292505" lon="12.644576775476727"><ele>354.5</ele><time>2026-04-25T08:15:06Z</time></trkpt><trkpt lat="43.856564621283944" lon="12.644490378585871"><ele>355.25</ele><time>2026-04-25T08:15:07Z</time></trkpt><trkpt lat="43.856436612741206" lon="12.644405596845669"><ele>356.0</ele><time>2026-04-25T08:15:08Z</time></trkpt><trkpt lat="43.856330951413504" lon="12.644299702353207"><ele>356.0</ele><time>2026-04-25T08:15:09Z</time></trkpt><trkpt lat="43.856272381270756" lon="12.644158555999747"><ele>356.0</ele><time>2026-04-25T08:15:10Z</time></trkpt><trkpt lat="43.85620197504199" lon="12.644050670247093"><ele>356.0</ele><time>2026-04-25T08:15:11Z</time></trkpt><trkpt lat="43.85610802546827" lon="12.643971660109306"><ele>356.0</ele><time>2026-04-25T08:15:12Z</time></trkpt><trkpt lat="43.856013268468324" lon="12.643891282944352"><ele>356.0</ele><time>2026-04-25T08:15:13Z</time></trkpt><trkpt lat="43.85587942096661" lon="12.64383215202557"><ele>354.6</ele><time>2026-04-25T08:15:14Z</time></trkpt><trkpt lat="43.85574904936802" lon="12.643796081849151"><ele>353.20000000000005</ele><time>2026-04-25T08:15:15Z</time></trkpt><trkpt lat="43.855638556281534" lon="12.643764390737319"><ele>351.79999999999995</ele><time>2026-04-25T08:15:16Z</time></trkpt><trkpt lat="43.85554337801129" lon="12.64373409482383"><ele>350.4</ele><time>2026-04-25T08:15:17Z</time></trkpt><trkpt lat="43.85547979989913" lon="12.643659143901035"><ele>349.0</ele><time>2026-04-25T08:15:18Z</time></trkpt><trkpt lat="43.85543422401275" lon="12.64358276399396"><ele>349.0</ele><time>2026-04-25T08:15:19Z</time></trkpt><trkpt lat="43.855422046002644" lon="12.643485695624056"><ele>349.0</ele><time>2026-04-25T08:15:20Z</time></trkpt><trkpt lat="43.855414549684006" lon="12.643349198149487"><ele>349.0</ele><time>2026-04-25T08:15:21Z</time></trkpt><trkpt lat="43.855397701371" lon="12.643157884693533"><ele>349.0</ele><time>2026-04-25T08:15:22Z</time></trkpt><trkpt lat="43.85537689978366" lon="12.642953062168397"><ele>352.0</ele><time>2026-04-25T08:15:23Z</time></trkpt><trkpt lat="43.85532512544101" lon="12.642742264552373"><ele>355.0</ele><time>2026-04-25T08:15:24Z</time></trkpt><trkpt lat="43.855266059845334" lon="12.642541535987787"><ele>358.0</ele><time>2026-04-25T08:15:25Z</time></trkpt><trkpt lat="43.855199196355706" lon="12.642346689400457"><ele>358.0</ele><time>2026-04-25T08:15:26Z</time></trkpt><trkpt lat="43.85512686236415" lon="12.642176952398351"><ele>358.0</ele><time>2026-04-25T08:15:27Z</time></trkpt><trkpt lat="43.85505484026234" lon="12.642030750727299"><ele>358.0</ele><time>2026-04-25T08:15:28Z</time></trkpt><trkpt lat="43.85498539670062" lon="12.641910199845436"><ele>358.0</ele><time>2026-04-25T08:15:29Z</time></trkpt><trkpt lat="43.85492461681225" lon="12.641794795450238"><ele>355.0</ele><time>2026-04-25T08:15:30Z</time></trkpt><trkpt lat="43.85484495818308" lon="12.64169924336398"><ele>352.0</ele><time>2026-04-25T08:15:31Z</time></trkpt><trkpt lat="43.85473639415891" lon="12.641615157827706"><ele>349.0</ele><time>2026-04-25T08:15:32Z</time></trkpt><trkpt lat="43.85463342019734" lon="12.641548717161806"><ele>346.0</ele><time>2026-04-25T08:15:33Z</time></trkpt><trkpt lat="43.8545664732325" lon="12.641491021005411"><ele>343.0</ele><time>2026-04-25T08:15:34Z</time></trkpt><trkpt lat="43.85453843701275" lon="12.641380985720266"><ele>343.0</ele><time>2026-04-25T08:15:35Z</time></trkpt><trkpt lat="43.85451595909251" lon="12.641259656406348"><ele>343.0</ele><time>2026-04-25T08:15:36Z</time></trkpt><trkpt lat="43.854511712123916" lon="12.641109023432229"><ele>343.0</ele><time>2026-04-25T08:15:37Z</time></trkpt><trkpt lat="43.854516842755785" lon="12.640943801356395"><ele>343.0</ele><time>2026-04-25T08:15:38Z</time></trkpt><trkpt lat="43.85454337905669" lon="12.640758705285162"><ele>346.0</ele><time>2026-04-25T08:15:39Z</time></trkpt><trkpt lat="43.85456168475365" lon="12.640551228336552"><ele>349.0</ele><time>2026-04-25T08:15:40Z</time></trkpt><trkpt lat="43.854545491267736" lon="12.640393370220611"><ele>352.0</ele><time>2026-04-25T08:15:41Z</time></trkpt><trkpt lat="43.85450911379031" lon="12.640278405493682"><ele>355.0</ele><time>2026-04-25T08:15:42Z</time></trkpt><trkpt lat="43.854457027951796" lon="12.64014886200685"><ele>355.3333333333333</ele><time>2026-04-25T08:15:43Z</time></trkpt><trkpt lat="43.85438473808416" lon="12.640060962753639"><ele>355.66666666666663</ele><time>2026-04-25T08:15:44Z</time></trkpt><trkpt lat="43.85433998065177" lon="12.639975495458668"><ele>356.0</ele><time>2026-04-25T08:15:45Z</time></trkpt><trkpt lat="43.8542770250945" lon="12.639910797690987"><ele>356.3333333333333</ele><time>2026-04-25T08:15:46Z</time></trkpt><trkpt lat="43.85422037824826" lon="12.639856239016984"><ele>356.6666666666667</ele><time>2026-04-25T08:15:47Z</time></trkpt><trkpt lat="43.85415080063991" lon="12.639772492529609"><ele>357.0</ele><time>2026-04-25T08:15:49Z</time></trkpt><trkpt lat="43.854082187582314" lon="12.63966905327388"><ele>352.0</ele><time>2026-04-25T08:15:51Z</time></trkpt><trkpt lat="43.854030605998965" lon="12.639569933654982"><ele>347.0</ele><time>2026-04-25T08:15:52Z</time></trkpt><trkpt lat="43.85396832674822" lon="12.63943468955702"><ele>342.0</ele><time>2026-04-25T08:15:53Z</time></trkpt><trkpt lat="43.85389566257941" lon="12.639273393260313"><ele>337.0</ele><time>2026-04-25T08:15:54Z</time></trkpt><trkpt lat="43.85382138549504" lon="12.639114838155546"><ele>337.0</ele><time>2026-04-25T08:15:55Z</time></trkpt><trkpt lat="43.85375375642211" lon="12.63897664788556"><ele>337.0</ele><time>2026-04-25T08:15:56Z</time></trkpt><trkpt lat="43.85370847840663" lon="12.638836844918169"><ele>337.0</ele><time>2026-04-25T08:15:57Z</time></trkpt><trkpt lat="43.85366317552581" lon="12.638719595548059"><ele>337.0</ele><time>2026-04-25T08:15:58Z</time></trkpt><trkpt lat="43.85363382773453" lon="12.63861219324898"><ele>337.0</ele><time>2026-04-25T08:15:59Z</time></trkpt><trkpt lat="43.85362433217045" lon="12.638505615736038"><ele>335.0</ele><time>2026-04-25T08:16:00Z</time></trkpt><trkpt lat="43.853667904300345" lon="12.638422142248476"><ele>333.0</ele><time>2026-04-25T08:16:01Z</time></trkpt><trkpt lat="43.85372010791244" lon="12.638360172008419"><ele>331.0</ele><time>2026-04-25T08:16:02Z</time></trkpt><trkpt lat="43.85379103796157" lon="12.638335795324506"><ele>329.0</ele><time>2026-04-25T08:16:03Z</time></trkpt><trkpt lat="43.85387930879178" lon="12.638306666473857"><ele>327.0</ele><time>2026-04-25T08:16:04Z</time></trkpt><trkpt lat="43.853985753408914" lon="12.638304784777283"><ele>325.0</ele><time>2026-04-25T08:16:05Z</time></trkpt><trkpt lat="43.85410693147022" lon="12.638331431799696"><ele>325.0</ele><time>2026-04-25T08:16:06Z</time></trkpt><trkpt lat="43.85423849207281" lon="12.638381171890597"><ele>325.0</ele><time>2026-04-25T08:16:07Z</time></trkpt><trkpt lat="43.85436478061316" lon="12.63843575478396"><ele>325.0</ele><time>2026-04-25T08:16:08Z</time></trkpt><trkpt lat="43.85448067727573" lon="12.638477807438965"><ele>325.0</ele><time>2026-04-25T08:16:09Z</time></trkpt><trkpt lat="43.85458491500392" lon="12.638497934622432"><ele>326.8</ele><time>2026-04-25T08:16:10Z</time></trkpt><trkpt lat="43.85467999840405" lon="12.638486632788648"><ele>328.6</ele><time>2026-04-25T08:16:11Z</time></trkpt><trkpt lat="43.85475719050481" lon="12.638405142541869"><ele>330.4</ele><time>2026-04-25T08:16:12Z</time></trkpt><trkpt lat="43.854821179777076" lon="12.638311252165995"><ele>332.2</ele><time>2026-04-25T08:16:13Z</time></trkpt><trkpt lat="43.8548657726472" lon="12.638192520207012"><ele>334.0</ele><time>2026-04-25T08:16:14Z</time></trkpt><trkpt lat="43.85491663017908" lon="12.638034106338306"><ele>334.0</ele><time>2026-04-25T08:16:15Z</time></trkpt><trkpt lat="43.85496942977779" lon="12.63784668615447"><ele>334.0</ele><time>2026-04-25T08:16:16Z</time></trkpt><trkpt lat="43.855031023553806" lon="12.637645314439396"><ele>334.0</ele><time>2026-04-25T08:16:17Z</time></trkpt><trkpt lat="43.855092290967434" lon="12.637449463019623"><ele>334.75</ele><time>2026-04-25T08:16:18Z</time></trkpt><trkpt lat="43.85515211262701" lon="12.63727310125309"><ele>335.5</ele><time>2026-04-25T08:16:19Z</time></trkpt><trkpt lat="43.85521024284642" lon="12.637116821327595"><ele>336.25</ele><time>2026-04-25T08:16:20Z</time></trkpt><trkpt lat="43.85526293515462" lon="12.636981270829176"><ele>337.0</ele><time>2026-04-25T08:16:21Z</time></trkpt><trkpt lat="43.85529053732505" lon="12.636845179149105"><ele>335.5</ele><time>2026-04-25T08:16:22Z</time></trkpt><trkpt lat="43.85528976399712" lon="12.636698697927118"><ele>334.0</ele><time>2026-04-25T08:16:23Z</time></trkpt><trkpt lat="43.85527374227014" lon="12.636531252811519"><ele>332.5</ele><time>2026-04-25T08:16:24Z</time></trkpt><trkpt lat="43.85523456135814" lon="12.636349458452283"><ele>331.0</ele><time>2026-04-25T08:16:25Z</time></trkpt><trkpt lat="43.85515344382868" lon="12.636162889855177"><ele>326.0</ele><time>2026-04-25T08:16:26Z</time></trkpt><trkpt lat="43.855064146120455" lon="12.635995590656018"><ele>321.0</ele><time>2026-04-25T08:16:27Z</time></trkpt><trkpt lat="43.8549683799452" lon="12.635836346137076"><ele>316.0</ele><time>2026-04-25T08:16:28Z</time></trkpt><trkpt lat="43.85487698327083" lon="12.635687484064782"><ele>311.0</ele><time>2026-04-25T08:16:29Z</time></trkpt><trkpt lat="43.85480332619769" lon="12.635538944273096"><ele>311.0</ele><time>2026-04-25T08:16:30Z</time></trkpt><trkpt lat="43.854738353039785" lon="12.635380850807405"><ele>311.0</ele><time>2026-04-25T08:16:31Z</time></trkpt><trkpt lat="43.85468486460902" lon="12.635216519697115"><ele>311.0</ele><time>2026-04-25T08:16:32Z</time></trkpt><trkpt lat="43.8546389345838" lon="12.635028078038962"><ele>311.0</ele><time>2026-04-25T08:16:33Z</time></trkpt><trkpt lat="43.8545882150757" lon="12.634855532256623"><ele>311.25</ele><time>2026-04-25T08:16:34Z</time></trkpt><trkpt lat="43.8545392317891" lon="12.634685610937701"><ele>311.5</ele><time>2026-04-25T08:16:35Z</time></trkpt><trkpt lat="43.854520590326544" lon="12.634507647832596"><ele>311.75</ele><time>2026-04-25T08:16:36Z</time></trkpt><trkpt lat="43.85449584427205" lon="12.634309176768333"><ele>312.0</ele><time>2026-04-25T08:16:37Z</time></trkpt><trkpt lat="43.854476449620876" lon="12.634115859343646"><ele>310.0</ele><time>2026-04-25T08:16:38Z</time></trkpt><trkpt lat="43.854448545990756" lon="12.633963867840139"><ele>308.0</ele><time>2026-04-25T08:16:39Z</time></trkpt><trkpt lat="43.85443962419455" lon="12.633837224577206"><ele>306.0</ele><time>2026-04-25T08:16:40Z</time></trkpt><trkpt lat="43.854473375061026" lon="12.633748189250568"><ele>304.0</ele><time>2026-04-25T08:16:41Z</time></trkpt><trkpt lat="43.85456965790884" lon="12.63366008551908"><ele>302.0</ele><time>2026-04-25T08:16:43Z</time></trkpt><trkpt lat="43.85464572306803" lon="12.633671900622168"><ele>302.0</ele><time>2026-04-25T08:16:44Z</time></trkpt><trkpt lat="43.85473014943785" lon="12.63367395147435"><ele>302.0</ele><time>2026-04-25T08:16:45Z</time></trkpt><trkpt lat="43.854811532607066" lon="12.633668469641423"><ele>302.0</ele><time>2026-04-25T08:16:46Z</time></trkpt><trkpt lat="43.854860562364145" lon="12.63358686583922"><ele>302.0</ele><time>2026-04-25T08:16:47Z</time></trkpt><trkpt lat="43.854807206320466" lon="12.633442799623172"><ele>302.0</ele><time>2026-04-25T08:16:49Z</time></trkpt><trkpt lat="43.85472669479451" lon="12.633389005237355"><ele>302.0</ele><time>2026-04-25T08:16:50Z</time></trkpt><trkpt lat="43.85460312128832" lon="12.63332269547007"><ele>298.75</ele><time>2026-04-25T08:16:51Z</time></trkpt><trkpt lat="43.854456720543475" lon="12.633251704275557"><ele>295.5</ele><time>2026-04-25T08:16:52Z</time></trkpt><trkpt lat="43.85431993815217" lon="12.633186693516677"><ele>292.25</ele><time>2026-04-25T08:16:53Z</time></trkpt><trkpt lat="43.85420451845614" lon="12.633135410734324"><ele>289.0</ele><time>2026-04-25T08:16:54Z</time></trkpt><trkpt lat="43.85410879624037" lon="12.633104050652799"><ele>288.3333333333333</ele><time>2026-04-25T08:16:55Z</time></trkpt><trkpt lat="43.85403158968016" lon="12.633094079044227"><ele>287.66666666666663</ele><time>2026-04-25T08:16:56Z</time></trkpt><trkpt lat="43.85396395874231" lon="12.633103612398465"><ele>287.0</ele><time>2026-04-25T08:16:57Z</time></trkpt><trkpt lat="43.85385538721807" lon="12.633178342794055"><ele>286.3333333333333</ele><time>2026-04-25T08:16:59Z</time></trkpt><trkpt lat="43.85380087249115" lon="12.63327103632711"><ele>285.6666666666667</ele><time>2026-04-25T08:17:00Z</time></trkpt><trkpt lat="43.853753883409716" lon="12.633379588217776"><ele>285.0</ele><time>2026-04-25T08:17:01Z</time></trkpt><trkpt lat="43.853724599732764" lon="12.6334686717689"><ele>285.0</ele><time>2026-04-25T08:17:02Z</time></trkpt><trkpt lat="43.85363353630491" lon="12.633540426587027"><ele>285.0</ele><time>2026-04-25T08:17:04Z</time></trkpt><trkpt lat="43.853586005281045" lon="12.63348008397935"><ele>285.0</ele><time>2026-04-25T08:17:05Z</time></trkpt><trkpt lat="43.85358069989997" lon="12.633366732951115"><ele>285.0</ele><time>2026-04-25T08:17:06Z</time></trkpt><trkpt lat="43.8535627113939" lon="12.633240144620151"><ele>285.0</ele><time>2026-04-25T08:17:07Z</time></trkpt><trkpt lat="43.85353604722945" lon="12.633092593876968"><ele>285.0</ele><time>2026-04-25T08:17:08Z</time></trkpt><trkpt lat="43.85351082818326" lon="12.632938574934098"><ele>285.0</ele><time>2026-04-25T08:17:09Z</time></trkpt><trkpt lat="43.85348993712935" lon="12.632801605534592"><ele>285.0</ele><time>2026-04-25T08:17:10Z</time></trkpt><trkpt lat="43.85346271251074" lon="12.632686201038288"><ele>285.0</ele><time>2026-04-25T08:17:11Z</time></trkpt><trkpt lat="43.85346444862033" lon="12.63259414295699"><ele>285.0</ele><time>2026-04-25T08:17:12Z</time></trkpt><trkpt lat="43.85348361865069" lon="12.632489079456938"><ele>285.0</ele><time>2026-04-25T08:17:14Z</time></trkpt><trkpt lat="43.853386826820355" lon="12.632565850620974"><ele>281.6</ele><time>2026-04-25T08:17:17Z</time></trkpt><trkpt lat="43.85335974456209" lon="12.63265647998781"><ele>278.2</ele><time>2026-04-25T08:17:18Z</time></trkpt><trkpt lat="43.853305622646886" lon="12.632753151260628"><ele>274.8</ele><time>2026-04-25T08:17:19Z</time></trkpt><trkpt lat="43.85326246333387" lon="12.63287654454498"><ele>271.4</ele><time>2026-04-25T08:17:20Z</time></trkpt><trkpt lat="43.853220160811624" lon="12.633000777595955"><ele>268.0</ele><time>2026-04-25T08:17:21Z</time></trkpt><trkpt lat="43.853177968662465" lon="12.633126113835548"><ele>268.0</ele><time>2026-04-25T08:17:22Z</time></trkpt><trkpt lat="43.85315171975811" lon="12.633231659440195"><ele>268.0</ele><time>2026-04-25T08:17:23Z</time></trkpt><trkpt lat="43.853162037334634" lon="12.633349715938733"><ele>268.0</ele><time>2026-04-25T08:17:24Z</time></trkpt><trkpt lat="43.85316589317916" lon="12.633494168773694"><ele>268.0</ele><time>2026-04-25T08:17:25Z</time></trkpt><trkpt lat="43.85317784496022" lon="12.633648193599742"><ele>268.0</ele><time>2026-04-25T08:17:26Z</time></trkpt><trkpt lat="43.853161913526215" lon="12.633788404742555"><ele>268.0</ele><time>2026-04-25T08:17:27Z</time></trkpt><trkpt lat="43.853138907175634" lon="12.63389631062433"><ele>268.0</ele><time>2026-04-25T08:17:28Z</time></trkpt><trkpt lat="43.85310189535463" lon="12.634030008882316"><ele>268.0</ele><time>2026-04-25T08:17:29Z</time></trkpt><trkpt lat="43.85306947134747" lon="12.634187664416965"><ele>268.0</ele><time>2026-04-25T08:17:30Z</time></trkpt><trkpt lat="43.85305537217732" lon="12.634357430605766"><ele>268.0</ele><time>2026-04-25T08:17:31Z</time></trkpt><trkpt lat="43.85303926105945" lon="12.634523738092431"><ele>268.0</ele><time>2026-04-25T08:17:32Z</time></trkpt><trkpt lat="43.85302485073945" lon="12.634648360962888"><ele>268.0</ele><time>2026-04-25T08:17:33Z</time></trkpt><trkpt lat="43.85302629705368" lon="12.63474432437531"><ele>268.0</ele><time>2026-04-25T08:17:34Z</time></trkpt><trkpt lat="43.853019328476016" lon="12.634856299549536"><ele>268.0</ele><time>2026-04-25T08:17:36Z</time></trkpt><trkpt lat="43.85291611638088" lon="12.634790657514726"><ele>268.0</ele><time>2026-04-25T08:17:39Z</time></trkpt><trkpt lat="43.852777906788155" lon="12.634801297621168"><ele>268.0</ele><time>2026-04-25T08:17:41Z</time></trkpt><trkpt lat="43.85269469482667" lon="12.634809648454034"><ele>268.0</ele><time>2026-04-25T08:17:42Z</time></trkpt><trkpt lat="43.85260658009373" lon="12.634883391550984"><ele>268.0</ele><time>2026-04-25T08:17:43Z</time></trkpt><trkpt lat="43.85252464151762" lon="12.63487674091268"><ele>268.0</ele><time>2026-04-25T08:17:44Z</time></trkpt><trkpt lat="43.852438788699835" lon="12.634870001177053"><ele>268.0</ele><time>2026-04-25T08:17:45Z</time></trkpt><trkpt lat="43.85235144473382" lon="12.634864352145549"><ele>268.0</ele><time>2026-04-25T08:17:46Z</time></trkpt><trkpt lat="43.85225832162669" lon="12.634864591525883"><ele>265.8</ele><time>2026-04-25T08:17:47Z</time></trkpt><trkpt lat="43.852167826003324" lon="12.634890560702196"><ele>263.6</ele><time>2026-04-25T08:17:48Z</time></trkpt><trkpt lat="43.85209315862659" lon="12.634927924650206"><ele>261.4</ele><time>2026-04-25T08:17:49Z</time></trkpt><trkpt lat="43.85199686941808" lon="12.634973728031573"><ele>259.2</ele><time>2026-04-25T08:17:50Z</time></trkpt><trkpt lat="43.85190476113983" lon="12.635017651926557"><ele>257.0</ele><time>2026-04-25T08:17:51Z</time></trkpt><trkpt lat="43.85178913853475" lon="12.635280041333411"><ele>253.0</ele><time>2026-04-25T08:17:52Z</time></trkpt><trkpt lat="43.85166351510649" lon="12.635284391488488"><ele>249.0</ele><time>2026-04-25T08:17:53Z</time></trkpt><trkpt lat="43.851508065314015" lon="12.635210599992524"><ele>245.0</ele><time>2026-04-25T08:17:54Z</time></trkpt><trkpt lat="43.85144070044716" lon="12.635001450126367"><ele>245.0</ele><time>2026-04-25T08:17:55Z</time></trkpt><trkpt lat="43.85136133909862" lon="12.634989310990727"><ele>245.0</ele><time>2026-04-25T08:17:56Z</time></trkpt><trkpt lat="43.85125778568714" lon="12.634971959781183"><ele>245.0</ele><time>2026-04-25T08:17:57Z</time></trkpt><trkpt lat="43.851173052950884" lon="12.634957762113263"><ele>245.0</ele><time>2026-04-25T08:17:58Z</time></trkpt><trkpt lat="43.851104061036615" lon="12.634941528862338"><ele>245.0</ele><time>2026-04-25T08:17:59Z</time></trkpt><trkpt lat="43.8509954132163" lon="12.634893991006708"><ele>241.6</ele><time>2026-04-25T08:18:01Z</time></trkpt><trkpt lat="43.850935928891445" lon="12.63478933523384"><ele>238.2</ele><time>2026-04-25T08:18:03Z</time></trkpt><trkpt lat="43.850887387880725" lon="12.634715053245353"><ele>234.8</ele><time>2026-04-25T08:18:04Z</time></trkpt><trkpt lat="43.850786861624115" lon="12.634638890837538"><ele>231.4</ele><time>2026-04-25T08:18:06Z</time></trkpt><trkpt lat="43.850666200213354" lon="12.634620953814375"><ele>228.0</ele><time>2026-04-25T08:18:08Z</time></trkpt><trkpt lat="43.85061631481991" lon="12.63450923682402"><ele>226.5</ele><time>2026-04-25T08:18:10Z</time></trkpt><trkpt lat="43.85064264703327" lon="12.63441927537206"><ele>225.0</ele><time>2026-04-25T08:18:11Z</time></trkpt><trkpt lat="43.85069642537554" lon="12.634253802026166"><ele>223.5</ele><time>2026-04-25T08:18:14Z</time></trkpt><trkpt lat="43.85070525737848" lon="12.634073970746547"><ele>222.0</ele><time>2026-04-25T08:18:16Z</time></trkpt><trkpt lat="43.85065542786469" lon="12.633910984806942"><ele>222.0</ele><time>2026-04-25T08:18:18Z</time></trkpt><trkpt lat="43.850533029790064" lon="12.633780735768726"><ele>222.0</ele><time>2026-04-25T08:18:20Z</time></trkpt><trkpt lat="43.85044608065875" lon="12.633721425104358"><ele>222.0</ele><time>2026-04-25T08:18:21Z</time></trkpt><trkpt lat="43.85036579588461" lon="12.633675175352762"><ele>222.0</ele><time>2026-04-25T08:18:22Z</time></trkpt><trkpt lat="43.85029266026784" lon="12.633642616038026"><ele>222.0</ele><time>2026-04-25T08:18:23Z</time></trkpt><trkpt lat="43.850222606181426" lon="12.633650724313796"><ele>219.0</ele><time>2026-04-25T08:18:24Z</time></trkpt><trkpt lat="43.850109629510385" lon="12.633673664012898"><ele>216.0</ele><time>2026-04-25T08:18:26Z</time></trkpt><trkpt lat="43.849989144844756" lon="12.633680027031158"><ele>213.0</ele><time>2026-04-25T08:18:28Z</time></trkpt><trkpt lat="43.849924854649785" lon="12.633665049575166"><ele>210.0</ele><time>2026-04-25T08:18:29Z</time></trkpt><trkpt lat="43.849862108380194" lon="12.633647002837364"><ele>207.0</ele><time>2026-04-25T08:18:30Z</time></trkpt><trkpt lat="43.84979955756326" lon="12.63363352702233"><ele>204.0</ele><time>2026-04-25T08:18:31Z</time></trkpt><trkpt lat="43.849730732863165" lon="12.633625830194681"><ele>203.42857142857144</ele><time>2026-04-25T08:18:32Z</time></trkpt><trkpt lat="43.849665713230536" lon="12.633627112091311"><ele>202.85714285714286</ele><time>2026-04-25T08:18:33Z</time></trkpt><trkpt lat="43.84958898052345" lon="12.633621899083414"><ele>202.28571428571428</ele><time>2026-04-25T08:18:34Z</time></trkpt><trkpt lat="43.84952593383922" lon="12.633610810725884"><ele>201.71428571428572</ele><time>2026-04-25T08:18:35Z</time></trkpt><trkpt lat="43.84943993048439" lon="12.633577082084106"><ele>201.14285714285714</ele><time>2026-04-25T08:18:37Z</time></trkpt><trkpt lat="43.84939545484714" lon="12.633501172321974"><ele>200.57142857142858</ele><time>2026-04-25T08:18:39Z</time></trkpt><trkpt lat="43.84934518794728" lon="12.633414997732029"><ele>200.0</ele><time>2026-04-25T08:18:41Z</time></trkpt><trkpt lat="43.84928561105817" lon="12.633273110323918"><ele>197.4</ele><time>2026-04-25T08:18:43Z</time></trkpt><trkpt lat="43.849220159927846" lon="12.633197832222047"><ele>194.8</ele><time>2026-04-25T08:18:44Z</time></trkpt><trkpt lat="43.84915463947209" lon="12.633143943390085"><ele>192.2</ele><time>2026-04-25T08:18:45Z</time></trkpt><trkpt lat="43.84907993329172" lon="12.633080109228683"><ele>189.6</ele><time>2026-04-25T08:18:47Z</time></trkpt><trkpt lat="43.84903390098574" lon="12.632974200532813"><ele>187.0</ele><time>2026-04-25T08:18:49Z</time></trkpt><trkpt lat="43.848961850572714" lon="12.63284013308071"><ele>186.5</ele><time>2026-04-25T08:18:51Z</time></trkpt><trkpt lat="43.84891393112395" lon="12.632750883790989"><ele>186.0</ele><time>2026-04-25T08:18:52Z</time></trkpt><trkpt lat="43.84888728262646" lon="12.63259864532772"><ele>185.5</ele><time>2026-04-25T08:18:54Z</time></trkpt><trkpt lat="43.848891330289945" lon="12.63251073924873"><ele>185.0</ele><time>2026-04-25T08:18:55Z</time></trkpt><trkpt lat="43.848903407562325" lon="12.632419789107715"><ele>184.5</ele><time>2026-04-25T08:18:56Z</time></trkpt><trkpt lat="43.84891205984735" lon="12.632326057125084"><ele>184.0</ele><time>2026-04-25T08:18:57Z</time></trkpt><trkpt lat="43.848932713967955" lon="12.632177012727096"><ele>184.0</ele><time>2026-04-25T08:18:59Z</time></trkpt><trkpt lat="43.848911527858235" lon="12.632039313904015"><ele>184.0</ele><time>2026-04-25T08:19:01Z</time></trkpt><trkpt lat="43.84888764078251" lon="12.631937155569341"><ele>184.0</ele><time>2026-04-25T08:19:02Z</time></trkpt><trkpt lat="43.848849595120406" lon="12.6318277412373"><ele>184.0</ele><time>2026-04-25T08:19:03Z</time></trkpt><trkpt lat="43.84882588695988" lon="12.63174117521122"><ele>184.0</ele><time>2026-04-25T08:19:04Z</time></trkpt><trkpt lat="43.848774801219484" lon="12.631662931250924"><ele>184.0</ele><time>2026-04-25T08:19:05Z</time></trkpt><trkpt lat="43.848714033568314" lon="12.631582409504235"><ele>181.79999999999998</ele><time>2026-04-25T08:19:06Z</time></trkpt><trkpt lat="43.84867867327393" lon="12.63150425552782"><ele>179.6</ele><time>2026-04-25T08:19:07Z</time></trkpt><trkpt lat="43.84861793991176" lon="12.631366451327082"><ele>177.4</ele><time>2026-04-25T08:19:09Z</time></trkpt><trkpt lat="43.84850769114105" lon="12.631304348660745"><ele>175.2</ele><time>2026-04-25T08:19:11Z</time></trkpt><trkpt lat="43.84843338024834" lon="12.631294962574497"><ele>173.0</ele><time>2026-04-25T08:19:12Z</time></trkpt><trkpt lat="43.848341927161336" lon="12.631293619128227"><ele>172.25</ele><time>2026-04-25T08:19:13Z</time></trkpt><trkpt lat="43.8482491711918" lon="12.631309284521807"><ele>171.5</ele><time>2026-04-25T08:19:14Z</time></trkpt><trkpt lat="43.8481475914597" lon="12.63134478154466"><ele>170.75</ele><time>2026-04-25T08:19:15Z</time></trkpt><trkpt lat="43.84802263593251" lon="12.631394119134775"><ele>170.0</ele><time>2026-04-25T08:19:16Z</time></trkpt><trkpt lat="43.84788635742058" lon="12.631460231881409"><ele>170.0</ele><time>2026-04-25T08:19:17Z</time></trkpt><trkpt lat="43.84777900177787" lon="12.63152947191547"><ele>170.0</ele><time>2026-04-25T08:19:18Z</time></trkpt><trkpt lat="43.84767027800986" lon="12.631572373832334"><ele>170.0</ele><time>2026-04-25T08:19:19Z</time></trkpt><trkpt lat="43.847562245631266" lon="12.63158825017365"><ele>170.0</ele><time>2026-04-25T08:19:20Z</time></trkpt><trkpt lat="43.84746929740874" lon="12.631582832817994"><ele>170.0</ele><time>2026-04-25T08:19:21Z</time></trkpt><trkpt lat="43.847365333233704" lon="12.631520328276368"><ele>168.57142857142858</ele><time>2026-04-25T08:19:23Z</time></trkpt><trkpt lat="43.84731810052638" lon="12.63145412289961"><ele>167.14285714285714</ele><time>2026-04-25T08:19:24Z</time></trkpt><trkpt lat="43.847271989342815" lon="12.631392710377677"><ele>165.71428571428572</ele><time>2026-04-25T08:19:25Z</time></trkpt><trkpt lat="43.84721554311704" lon="12.631335119224392"><ele>164.28571428571428</ele><time>2026-04-25T08:19:26Z</time></trkpt><trkpt lat="43.84715860582009" lon="12.631287941880885"><ele>162.85714285714286</ele><time>2026-04-25T08:19:27Z</time></trkpt><trkpt lat="43.84709076716344" lon="12.631243758704391"><ele>161.42857142857142</ele><time>2026-04-25T08:19:28Z</time></trkpt><trkpt lat="43.847026239358684" lon="12.631207767359953"><ele>160.0</ele><time>2026-04-25T08:19:29Z</time></trkpt><trkpt lat="43.84692180835918" lon="12.631183334562616"><ele>160.0</ele><time>2026-04-25T08:19:31Z</time></trkpt><trkpt lat="43.846794927561504" lon="12.631174781872351"><ele>160.0</ele><time>2026-04-25T08:19:33Z</time></trkpt><trkpt lat="43.84670839583323" lon="12.631161316621679"><ele>160.0</ele><time>2026-04-25T08:19:34Z</time></trkpt><trkpt lat="43.84662122096508" lon="12.631129664792686"><ele>160.0</ele><time>2026-04-25T08:19:35Z</time></trkpt><trkpt lat="43.84653745219148" lon="12.631097769976945"><ele>160.0</ele><time>2026-04-25T08:19:36Z</time></trkpt><trkpt lat="43.846454664945625" lon="12.631059193569852"><ele>157.5</ele><time>2026-04-25T08:19:37Z</time></trkpt><trkpt lat="43.84636758325511" lon="12.631048598860245"><ele>155.0</ele><time>2026-04-25T08:19:38Z</time></trkpt><trkpt lat="43.84627328752902" lon="12.631040394592453"><ele>152.5</ele><time>2026-04-25T08:19:39Z</time></trkpt><trkpt lat="43.84619808181765" lon="12.631037068553496"><ele>150.0</ele><time>2026-04-25T08:19:40Z</time></trkpt><trkpt lat="43.84613537216114" lon="12.631046857007082"><ele>147.5</ele><time>2026-04-25T08:19:41Z</time></trkpt><trkpt lat="43.84604127092733" lon="12.631090551120044"><ele>145.0</ele><time>2026-04-25T08:19:42Z</time></trkpt><trkpt lat="43.84593422515845" lon="12.631125740113724"><ele>144.33333333333334</ele><time>2026-04-25T08:19:43Z</time></trkpt><trkpt lat="43.84583880731124" lon="12.631169457525012"><ele>143.66666666666669</ele><time>2026-04-25T08:19:44Z</time></trkpt><trkpt lat="43.84575685290321" lon="12.631182838334697"><ele>143.0</ele><time>2026-04-25T08:19:45Z</time></trkpt><trkpt lat="43.845676411132686" lon="12.631171759817036"><ele>142.33333333333334</ele><time>2026-04-25T08:19:46Z</time></trkpt><trkpt lat="43.845588067835926" lon="12.631150316245597"><ele>141.66666666666666</ele><time>2026-04-25T08:19:47Z</time></trkpt><trkpt lat="43.84550390636372" lon="12.631140987550932"><ele>141.0</ele><time>2026-04-25T08:19:48Z</time></trkpt><trkpt lat="43.84542802075298" lon="12.631130908421401"><ele>141.0</ele><time>2026-04-25T08:19:49Z</time></trkpt><trkpt lat="43.84535980116803" lon="12.631113171281589"><ele>141.0</ele><time>2026-04-25T08:19:50Z</time></trkpt><trkpt lat="43.84526870985556" lon="12.631147057165546"><ele>141.0</ele><time>2026-04-25T08:19:51Z</time></trkpt><trkpt lat="43.84518672017807" lon="12.631193894260122"><ele>141.0</ele><time>2026-04-25T08:19:52Z</time></trkpt><trkpt lat="43.84508336657559" lon="12.631264375206992"><ele>141.0</ele><time>2026-04-25T08:19:53Z</time></trkpt><trkpt lat="43.84497833773499" lon="12.631339973143163"><ele>139.2</ele><time>2026-04-25T08:19:54Z</time></trkpt><trkpt lat="43.844883927000794" lon="12.631398582767137"><ele>137.39999999999998</ele><time>2026-04-25T08:19:55Z</time></trkpt><trkpt lat="43.84481252728062" lon="12.631450425134778"><ele>135.6</ele><time>2026-04-25T08:19:56Z</time></trkpt><trkpt lat="43.84475739545203" lon="12.631510408023091"><ele>133.79999999999998</ele><time>2026-04-25T08:19:57Z</time></trkpt><trkpt lat="43.84468380524014" lon="12.631596830539163"><ele>132.0</ele><time>2026-04-25T08:19:58Z</time></trkpt><trkpt lat="43.84460329055242" lon="12.631684113654929"><ele>132.0</ele><time>2026-04-25T08:19:59Z</time></trkpt><trkpt lat="43.84457116274715" lon="12.631796387161836"><ele>132.0</ele><time>2026-04-25T08:20:01Z</time></trkpt><trkpt lat="43.84456241607737" lon="12.631888910122445"><ele>132.0</ele><time>2026-04-25T08:20:02Z</time></trkpt><trkpt lat="43.84455491805732" lon="12.632010382767323"><ele>132.0</ele><time>2026-04-25T08:20:03Z</time></trkpt><trkpt lat="43.84454448299111" lon="12.632151891596079"><ele>132.0</ele><time>2026-04-25T08:20:04Z</time></trkpt><trkpt lat="43.8445190879516" lon="12.632280363711494"><ele>132.0</ele><time>2026-04-25T08:20:05Z</time></trkpt><trkpt lat="43.844458003590354" lon="12.6323815872806"><ele>132.0</ele><time>2026-04-25T08:20:06Z</time></trkpt><trkpt lat="43.84440460886803" lon="12.632496196794936"><ele>132.0</ele><time>2026-04-25T08:20:07Z</time></trkpt><trkpt lat="43.84435653242748" lon="12.632626726893346"><ele>132.0</ele><time>2026-04-25T08:20:08Z</time></trkpt><trkpt lat="43.84429932533343" lon="12.632756648983019"><ele>132.0</ele><time>2026-04-25T08:20:09Z</time></trkpt><trkpt lat="43.844252303054624" lon="12.632842106306395"><ele>132.0</ele><time>2026-04-25T08:20:10Z</time></trkpt><trkpt lat="43.84421196960942" lon="12.63293681869022"><ele>130.5</ele><time>2026-04-25T08:20:11Z</time></trkpt><trkpt lat="43.84418258602849" lon="12.633105492911238"><ele>129.0</ele><time>2026-04-25T08:20:13Z</time></trkpt><trkpt lat="43.844155760378705" lon="12.633250448197352"><ele>127.5</ele><time>2026-04-25T08:20:15Z</time></trkpt><trkpt lat="43.84406570580131" lon="12.633353286377297"><ele>126.0</ele><time>2026-04-25T08:20:17Z</time></trkpt><trkpt lat="43.843966786469394" lon="12.633421389913025"><ele>126.0</ele><time>2026-04-25T08:20:18Z</time></trkpt><trkpt lat="43.843864305919716" lon="12.63349699560992"><ele>126.0</ele><time>2026-04-25T08:20:19Z</time></trkpt><trkpt lat="43.84377763476706" lon="12.633508937992703"><ele>126.0</ele><time>2026-04-25T08:20:20Z</time></trkpt><trkpt lat="43.84366498577134" lon="12.633506495432842"><ele>126.0</ele><time>2026-04-25T08:20:21Z</time></trkpt><trkpt lat="43.84352613529968" lon="12.633492566666582"><ele>125.8</ele><time>2026-04-25T08:20:22Z</time></trkpt><trkpt lat="43.84342873449131" lon="12.633509314555209"><ele>125.6</ele><time>2026-04-25T08:20:23Z</time></trkpt><trkpt lat="43.84333488528365" lon="12.633581577670489"><ele>125.4</ele><time>2026-04-25T08:20:24Z</time></trkpt><trkpt lat="43.84323622761321" lon="12.633654283140789"><ele>125.2</ele><time>2026-04-25T08:20:25Z</time></trkpt><trkpt lat="43.84313761663621" lon="12.63366851539861"><ele>125.0</ele><time>2026-04-25T08:20:26Z</time></trkpt><trkpt lat="43.843047019180915" lon="12.63369734589015"><ele>125.0</ele><time>2026-04-25T08:20:27Z</time></trkpt><trkpt lat="43.84296858235307" lon="12.633777059389704"><ele>125.0</ele><time>2026-04-25T08:20:29Z</time></trkpt><trkpt lat="43.8428445674666" lon="12.633894294594487"><ele>125.0</ele><time>2026-04-25T08:20:31Z</time></trkpt><trkpt lat="43.84277686896597" lon="12.633954855214666"><ele>125.0</ele><time>2026-04-25T08:20:32Z</time></trkpt><trkpt lat="43.84269087006741" lon="12.633963639663701"><ele>125.0</ele><time>2026-04-25T08:20:33Z</time></trkpt><trkpt lat="43.842596230879515" lon="12.633906945040733"><ele>124.6</ele><time>2026-04-25T08:20:35Z</time></trkpt><trkpt lat="43.84250124418716" lon="12.633792962296418"><ele>124.2</ele><time>2026-04-25T08:20:37Z</time></trkpt><trkpt lat="43.84243707987481" lon="12.633777904595823"><ele>123.80000000000001</ele><time>2026-04-25T08:20:38Z</time></trkpt><trkpt lat="43.84235001770114" lon="12.633825543921573"><ele>123.4</ele><time>2026-04-25T08:20:40Z</time></trkpt><trkpt lat="43.84227681577816" lon="12.633868522506976"><ele>123.0</ele><time>2026-04-25T08:20:45Z</time></trkpt><trkpt lat="43.84219693802142" lon="12.633925175510258"><ele>123.0</ele><time>2026-04-25T08:20:47Z</time></trkpt><trkpt lat="43.842144959963846" lon="12.633976422708498"><ele>123.0</ele><time>2026-04-25T08:20:51Z</time></trkpt><trkpt lat="43.84209084718679" lon="12.634081459966744"><ele>123.0</ele><time>2026-04-25T08:20:57Z</time></trkpt><trkpt lat="43.84206009740043" lon="12.634169151263695"><ele>123.0</ele><time>2026-04-25T08:20:58Z</time></trkpt><trkpt lat="43.84204132240624" lon="12.634295640930253"><ele>123.0</ele><time>2026-04-25T08:20:59Z</time></trkpt><trkpt lat="43.84202902224118" lon="12.634454491744428"><ele>123.0</ele><time>2026-04-25T08:21:00Z</time></trkpt><trkpt lat="43.841998574863695" lon="12.634584282368902"><ele>123.0</ele><time>2026-04-25T08:21:01Z</time></trkpt><trkpt lat="43.84196108531292" lon="12.63469417555149"><ele>123.00000000000001</ele><time>2026-04-25T08:21:02Z</time></trkpt><trkpt lat="43.84189395178747" lon="12.634786894391437"><ele>123.00000000000001</ele><time>2026-04-25T08:21:03Z</time></trkpt><trkpt lat="43.84180406219894" lon="12.634900003714664"><ele>123.0</ele><time>2026-04-25T08:21:04Z</time></trkpt><trkpt lat="43.841708719669356" lon="12.635003475269468"><ele>123.0</ele><time>2026-04-25T08:21:05Z</time></trkpt><trkpt lat="43.84161938591073" lon="12.635118107933204"><ele>123.0</ele><time>2026-04-25T08:21:06Z</time></trkpt><trkpt lat="43.84150957767997" lon="12.635287847980617"><ele>123.0</ele><time>2026-04-25T08:21:07Z</time></trkpt><trkpt lat="43.84140941612044" lon="12.635432900428262"><ele>123.0</ele><time>2026-04-25T08:21:08Z</time></trkpt><trkpt lat="43.8413500053149" lon="12.635534398289064"><ele>123.0</ele><time>2026-04-25T08:21:09Z</time></trkpt><trkpt lat="43.84129942365394" lon="12.635615279555356"><ele>123.2</ele><time>2026-04-25T08:21:10Z</time></trkpt><trkpt lat="43.841197369984386" lon="12.635672468564534"><ele>123.4</ele><time>2026-04-25T08:21:12Z</time></trkpt><trkpt lat="43.8410752671931" lon="12.635685873406597"><ele>123.60000000000001</ele><time>2026-04-25T08:21:14Z</time></trkpt><trkpt lat="43.840967570635954" lon="12.635719804156182"><ele>123.80000000000001</ele><time>2026-04-25T08:21:16Z</time></trkpt><trkpt lat="43.84089830463657" lon="12.635766467933088"><ele>124.0</ele><time>2026-04-25T08:21:17Z</time></trkpt><trkpt lat="43.84081779976839" lon="12.635841666536571"><ele>124.00000000000001</ele><time>2026-04-25T08:21:18Z</time></trkpt><trkpt lat="43.84074120313619" lon="12.635943044167844"><ele>124.0</ele><time>2026-04-25T08:21:19Z</time></trkpt><trkpt lat="43.840674212740254" lon="12.636048509915303"><ele>124.0</ele><time>2026-04-25T08:21:20Z</time></trkpt><trkpt lat="43.840620233214" lon="12.636107497479525"><ele>124.0</ele><time>2026-04-25T08:21:22Z</time></trkpt><trkpt lat="43.84056088834182" lon="12.636179064318588"><ele>124.00000000000001</ele><time>2026-04-25T08:21:25Z</time></trkpt><trkpt lat="43.84059138006801" lon="12.63627262858804"><ele>124.0</ele><time>2026-04-25T08:21:29Z</time></trkpt><trkpt lat="43.840656709950025" lon="12.636366706798805"><ele>123.2</ele><time>2026-04-25T08:21:31Z</time></trkpt><trkpt lat="43.84072663623474" lon="12.636473764624272"><ele>122.4</ele><time>2026-04-25T08:21:33Z</time></trkpt><trkpt lat="43.84076961741457" lon="12.636589279761312"><ele>121.6</ele><time>2026-04-25T08:21:35Z</time></trkpt><trkpt lat="43.84078067766698" lon="12.636715127465852"><ele>120.8</ele><time>2026-04-25T08:21:37Z</time></trkpt><trkpt lat="43.84075395936229" lon="12.636860357884672"><ele>120.0</ele><time>2026-04-25T08:21:39Z</time></trkpt><trkpt lat="43.8407232964042" lon="12.636998345978055"><ele>119.8</ele><time>2026-04-25T08:21:41Z</time></trkpt><trkpt lat="43.840702577368205" lon="12.637125249190081"><ele>119.6</ele><time>2026-04-25T08:21:43Z</time></trkpt><trkpt lat="43.8406755705485" lon="12.63726583761186"><ele>119.4</ele><time>2026-04-25T08:21:45Z</time></trkpt><trkpt lat="43.84064932255434" lon="12.637418266745977"><ele>119.2</ele><time>2026-04-25T08:21:47Z</time></trkpt><trkpt lat="43.840590408939086" lon="12.63756145773995"><ele>119.0</ele><time>2026-04-25T08:21:49Z</time></trkpt><trkpt lat="43.84049997564745" lon="12.637668857196852"><ele>118.99999999999999</ele><time>2026-04-25T08:21:51Z</time></trkpt><trkpt lat="43.840413855669" lon="12.637774390705282"><ele>119.0</ele><time>2026-04-25T08:21:53Z</time></trkpt><trkpt lat="43.84034435106324" lon="12.637900342643364"><ele>119.0</ele><time>2026-04-25T08:21:55Z</time></trkpt><trkpt lat="43.84031408768329" lon="12.637977781260641"><ele>119.0</ele><time>2026-04-25T08:21:56Z</time></trkpt><trkpt lat="43.84029212951213" lon="12.638071980900797"><ele>118.99999999999999</ele><time>2026-04-25T08:21:57Z</time></trkpt><trkpt lat="43.84027937143841" lon="12.63816201361027"><ele>119.0</ele><time>2026-04-25T08:21:58Z</time></trkpt><trkpt lat="43.84028262133122" lon="12.63825386476938"><ele>119.14285714285714</ele><time>2026-04-25T08:21:59Z</time></trkpt><trkpt lat="43.84030187504478" lon="12.638338806214524"><ele>119.28571428571428</ele><time>2026-04-25T08:22:00Z</time></trkpt><trkpt lat="43.84032341205378" lon="12.638425148842998"><ele>119.42857142857143</ele><time>2026-04-25T08:22:01Z</time></trkpt><trkpt lat="43.84034108811846" lon="12.638512446798533"><ele>119.57142857142857</ele><time>2026-04-25T08:22:02Z</time></trkpt><trkpt lat="43.840358862273554" lon="12.638600294497882"><ele>119.71428571428571</ele><time>2026-04-25T08:22:03Z</time></trkpt><trkpt lat="43.840365906587344" lon="12.63869356284276"><ele>119.85714285714286</ele><time>2026-04-25T08:22:04Z</time></trkpt><trkpt lat="43.84037377997407" lon="12.638793437451662"><ele>120.0</ele><time>2026-04-25T08:22:05Z</time></trkpt><trkpt lat="43.84037542937938" lon="12.638889411278694"><ele>120.0</ele><time>2026-04-25T08:22:06Z</time></trkpt><trkpt lat="43.840375838312525" lon="12.638980816544008"><ele>120.0</ele><time>2026-04-25T08:22:07Z</time></trkpt><trkpt lat="43.840386860633394" lon="12.639137053647698"><ele>120.0</ele><time>2026-04-25T08:22:09Z</time></trkpt><trkpt lat="43.84041175611851" lon="12.639267394329377"><ele>120.0</ele><time>2026-04-25T08:22:11Z</time></trkpt><trkpt lat="43.840467502262825" lon="12.639391112377487"><ele>120.0</ele><time>2026-04-25T08:22:13Z</time></trkpt><trkpt lat="43.84053050369067" lon="12.639466410270305"><ele>120.16666666666667</ele><time>2026-04-25T08:22:15Z</time></trkpt><trkpt lat="43.84057716610439" lon="12.639535091180289"><ele>120.33333333333334</ele><time>2026-04-25T08:22:40Z</time></trkpt><trkpt lat="43.84060455076523" lon="12.639626998521054"><ele>120.5</ele><time>2026-04-25T08:27:11Z</time></trkpt><trkpt lat="43.8406670427447" lon="12.639689693494422"><ele>120.66666666666667</ele><time>2026-04-25T08:27:32Z</time></trkpt><trkpt lat="43.84072202836048" lon="12.63976950529258"><ele>120.83333333333334</ele><time>2026-04-25T08:27:35Z</time></trkpt><trkpt lat="43.84080730979192" lon="12.63990715782109"><ele>121.0</ele><time>2026-04-25T08:27:37Z</time></trkpt><trkpt lat="43.84086584382591" lon="12.639992072073506"><ele>121.0</ele><time>2026-04-25T08:27:38Z</time></trkpt><trkpt lat="43.84094641370233" lon="12.640051812058536"><ele>121.0</ele><time>2026-04-25T08:27:39Z</time></trkpt><trkpt lat="43.841015491972406" lon="12.640146131359316"><ele>121.0</ele><time>2026-04-25T08:27:40Z</time></trkpt><trkpt lat="43.841092041944286" lon="12.640258654453877"><ele>121.0</ele><time>2026-04-25T08:27:41Z</time></trkpt><trkpt lat="43.841162294524146" lon="12.640375145637412"><ele>121.0</ele><time>2026-04-25T08:27:42Z</time></trkpt><trkpt lat="43.84122111477351" lon="12.640512847568147"><ele>120.50000000000001</ele><time>2026-04-25T08:27:43Z</time></trkpt><trkpt lat="43.841290357030125" lon="12.640617729255379"><ele>120.0</ele><time>2026-04-25T08:27:44Z</time></trkpt><trkpt lat="43.84135320779799" lon="12.640701937903204"><ele>119.5</ele><time>2026-04-25T08:27:45Z</time></trkpt><trkpt lat="43.841406803778526" lon="12.640789116561015"><ele>119.0</ele><time>2026-04-25T08:27:46Z</time></trkpt><trkpt lat="43.84145373795" lon="12.64088303736097"><ele>118.50000000000001</ele><time>2026-04-25T08:27:47Z</time></trkpt><trkpt lat="43.84151863866379" lon="12.64095683602227"><ele>118.0</ele><time>2026-04-25T08:27:48Z</time></trkpt><trkpt lat="43.84157675911037" lon="12.641047069725637"><ele>118.4</ele><time>2026-04-25T08:27:49Z</time></trkpt><trkpt lat="43.84154779799637" lon="12.641245479027797"><ele>118.80000000000001</ele><time>2026-04-25T08:27:50Z</time></trkpt><trkpt lat="43.841547778900036" lon="12.641371811460932"><ele>119.2</ele><time>2026-04-25T08:27:51Z</time></trkpt><trkpt lat="43.84152390503928" lon="12.64149047478627"><ele>119.6</ele><time>2026-04-25T08:27:52Z</time></trkpt><trkpt lat="43.841451601134175" lon="12.641597770138407"><ele>120.0</ele><time>2026-04-25T08:27:53Z</time></trkpt><trkpt lat="43.841390292165684" lon="12.64174035784576"><ele>120.0</ele><time>2026-04-25T08:27:54Z</time></trkpt><trkpt lat="43.84134994718055" lon="12.641889922703797"><ele>120.0</ele><time>2026-04-25T08:27:55Z</time></trkpt><trkpt lat="43.8413002885213" lon="12.64202775427982"><ele>120.0</ele><time>2026-04-25T08:27:56Z</time></trkpt><trkpt lat="43.84129245228481" lon="12.642167305107803"><ele>120.0</ele><time>2026-04-25T08:27:57Z</time></trkpt><trkpt lat="43.84128372559538" lon="12.642325830646612"><ele>120.0</ele><time>2026-04-25T08:27:58Z</time></trkpt><trkpt lat="43.84125765286635" lon="12.64249211905264"><ele>120.25</ele><time>2026-04-25T08:27:59Z</time></trkpt><trkpt lat="43.84122430231773" lon="12.642664477930584"><ele>120.5</ele><time>2026-04-25T08:28:00Z</time></trkpt><trkpt lat="43.841189786808584" lon="12.64284318076074"><ele>120.75</ele><time>2026-04-25T08:28:01Z</time></trkpt><trkpt lat="43.841142409576705" lon="12.64301807225554"><ele>121.0</ele><time>2026-04-25T08:28:02Z</time></trkpt><trkpt lat="43.84110421327535" lon="12.64319604321345"><ele>122.0</ele><time>2026-04-25T08:28:03Z</time></trkpt><trkpt lat="43.841067292864366" lon="12.643356449841669"><ele>123.0</ele><time>2026-04-25T08:28:04Z</time></trkpt><trkpt lat="43.84102988180942" lon="12.643508724675947"><ele>124.0</ele><time>2026-04-25T08:28:05Z</time></trkpt><trkpt lat="43.84098744149433" lon="12.643670816642233"><ele>125.0</ele><time>2026-04-25T08:28:06Z</time></trkpt><trkpt lat="43.84094500113555" lon="12.643827367185127"><ele>123.0</ele><time>2026-04-25T08:28:07Z</time></trkpt><trkpt lat="43.84090096545085" lon="12.643993217394057"><ele>121.0</ele><time>2026-04-25T08:28:08Z</time></trkpt><trkpt lat="43.84085440765404" lon="12.644156951381301"><ele>119.0</ele><time>2026-04-25T08:28:09Z</time></trkpt><trkpt lat="43.840814006332224" lon="12.644291949563808"><ele>117.0</ele><time>2026-04-25T08:28:10Z</time></trkpt><trkpt lat="43.84079045898345" lon="12.644412799017772"><ele>117.16666666666667</ele><time>2026-04-25T08:28:11Z</time></trkpt><trkpt lat="43.84078273005946" lon="12.64451164420157"><ele>117.33333333333334</ele><time>2026-04-25T08:28:12Z</time></trkpt><trkpt lat="43.840787060744695" lon="12.644600368768815"><ele>117.5</ele><time>2026-04-25T08:28:13Z</time></trkpt><trkpt lat="43.84079554673257" lon="12.644706307912484"><ele>117.66666666666667</ele><time>2026-04-25T08:28:14Z</time></trkpt><trkpt lat="43.84080598460209" lon="12.644816321241187"><ele>117.83333333333334</ele><time>2026-04-25T08:28:15Z</time></trkpt><trkpt lat="43.84080761773848" lon="12.644929768684039"><ele>118.0</ele><time>2026-04-25T08:28:16Z</time></trkpt><trkpt lat="43.84076659114343" lon="12.645021756930555"><ele>118.0</ele><time>2026-04-25T08:28:17Z</time></trkpt><trkpt lat="43.84072450825879" lon="12.645131533483903"><ele>118.00000000000001</ele><time>2026-04-25T08:28:18Z</time></trkpt><trkpt lat="43.84070322282056" lon="12.64526747863152"><ele>118.00000000000001</ele><time>2026-04-25T08:28:19Z</time></trkpt><trkpt lat="43.84065327768045" lon="12.645393913424957"><ele>118.0</ele><time>2026-04-25T08:28:20Z</time></trkpt><trkpt lat="43.840626110138885" lon="12.645554132281895"><ele>118.0</ele><time>2026-04-25T08:28:21Z</time></trkpt><trkpt lat="43.8405895518274" lon="12.645720297900082"><ele>118.4</ele><time>2026-04-25T08:28:22Z</time></trkpt><trkpt lat="43.8405628553939" lon="12.645857485310115"><ele>118.80000000000001</ele><time>2026-04-25T08:28:23Z</time></trkpt><trkpt lat="43.84052615023772" lon="12.645981476106964"><ele>119.2</ele><time>2026-04-25T08:28:24Z</time></trkpt><trkpt lat="43.84045479915098" lon="12.64608289428822"><ele>119.6</ele><time>2026-04-25T08:28:25Z</time></trkpt><trkpt lat="43.840393924881276" lon="12.646169305750634"><ele>120.0</ele><time>2026-04-25T08:28:26Z</time></trkpt><trkpt lat="43.84031134243817" lon="12.64623570769874"><ele>120.25</ele><time>2026-04-25T08:28:27Z</time></trkpt><trkpt lat="43.840198214754245" lon="12.6463010637357"><ele>120.5</ele><time>2026-04-25T08:28:28Z</time></trkpt><trkpt lat="43.84006565641484" lon="12.646361700632875"><ele>120.75</ele><time>2026-04-25T08:28:29Z</time></trkpt><trkpt lat="43.83992141344242" lon="12.646430705106118"><ele>121.0</ele><time>2026-04-25T08:28:30Z</time></trkpt><trkpt lat="43.83976506736101" lon="12.646479272120441"><ele>121.0</ele><time>2026-04-25T08:28:31Z</time></trkpt><trkpt lat="43.8396057461834" lon="12.64653071223239"><ele>121.0</ele><time>2026-04-25T08:28:32Z</time></trkpt><trkpt lat="43.83946346683838" lon="12.646586448868803"><ele>121.0</ele><time>2026-04-25T08:28:33Z</time></trkpt><trkpt lat="43.839342591739864" lon="12.646633349536495"><ele>121.0</ele><time>2026-04-25T08:28:34Z</time></trkpt><trkpt lat="43.839234630065306" lon="12.646680206399877"><ele>120.8</ele><time>2026-04-25T08:28:35Z</time></trkpt><trkpt lat="43.83913808921792" lon="12.646739112821177"><ele>120.6</ele><time>2026-04-25T08:28:36Z</time></trkpt><trkpt lat="43.83905198386698" lon="12.646801154604006"><ele>120.4</ele><time>2026-04-25T08:28:37Z</time></trkpt><trkpt lat="43.838977803498445" lon="12.646872058364785"><ele>120.2</ele><time>2026-04-25T08:28:38Z</time></trkpt><trkpt lat="43.83891833450619" lon="12.646942906223385"><ele>120.0</ele><time>2026-04-25T08:28:39Z</time></trkpt><trkpt lat="43.83885997079561" lon="12.647061241325108"><ele>120.0</ele><time>2026-04-25T08:28:41Z</time></trkpt><trkpt lat="43.83873916714589" lon="12.647044096282814"><ele>120.0</ele><time>2026-04-25T08:28:43Z</time></trkpt><trkpt lat="43.83865558504898" lon="12.646964877332666"><ele>120.0</ele><time>2026-04-25T08:28:45Z</time></trkpt><trkpt lat="43.83858675987655" lon="12.646893975689288"><ele>120.0</ele><time>2026-04-25T08:28:46Z</time></trkpt><trkpt lat="43.838529725986625" lon="12.646822001352948"><ele>120.0</ele><time>2026-04-25T08:28:47Z</time></trkpt><trkpt lat="43.83850265672025" lon="12.646683739144347"><ele>119.83333333333333</ele><time>2026-04-25T08:28:49Z</time></trkpt><trkpt lat="43.83851937035306" lon="12.646547854324174"><ele>119.66666666666666</ele><time>2026-04-25T08:28:51Z</time></trkpt><trkpt lat="43.83853038565062" lon="12.646447956900642"><ele>119.5</ele><time>2026-04-25T08:28:52Z</time></trkpt><trkpt lat="43.838535101181876" lon="12.646360441226278"><ele>119.33333333333333</ele><time>2026-04-25T08:28:53Z</time></trkpt><trkpt lat="43.83853039525254" lon="12.646257744131118"><ele>119.16666666666666</ele><time>2026-04-25T08:28:54Z</time></trkpt><trkpt lat="43.83846652532887" lon="12.64615891560988"><ele>119.0</ele><time>2026-04-25T08:28:55Z</time></trkpt><trkpt lat="43.83839979024745" lon="12.646046976929103"><ele>117.0</ele><time>2026-04-25T08:28:56Z</time></trkpt><trkpt lat="43.838336825141084" lon="12.645949947949592"><ele>115.0</ele><time>2026-04-25T08:28:57Z</time></trkpt><trkpt lat="43.838292353080945" lon="12.64585272856824"><ele>113.0</ele><time>2026-04-25T08:28:58Z</time></trkpt><trkpt lat="43.838220203989145" lon="12.64578542002761"><ele>111.0</ele><time>2026-04-25T08:28:59Z</time></trkpt><trkpt lat="43.83814064813951" lon="12.645709140215065"><ele>109.0</ele><time>2026-04-25T08:29:00Z</time></trkpt><trkpt lat="43.838048621136494" lon="12.645645837287434"><ele>109.0</ele><time>2026-04-25T08:29:01Z</time></trkpt><trkpt lat="43.83796482306303" lon="12.645606062744317"><ele>109.0</ele><time>2026-04-25T08:29:02Z</time></trkpt><trkpt lat="43.83788980022335" lon="12.64558986254293"><ele>109.0</ele><time>2026-04-25T08:29:03Z</time></trkpt><trkpt lat="43.83780464117661" lon="12.645694966975821"><ele>109.0</ele><time>2026-04-25T08:29:05Z</time></trkpt><trkpt lat="43.837724737922144" lon="12.645861624184711"><ele>109.0</ele><time>2026-04-25T08:29:07Z</time></trkpt><trkpt lat="43.83767338240199" lon="12.645969196027082"><ele>109.80000000000001</ele><time>2026-04-25T08:29:08Z</time></trkpt><trkpt lat="43.83759923055751" lon="12.64605151432765"><ele>110.60000000000001</ele><time>2026-04-25T08:29:09Z</time></trkpt><trkpt lat="43.8375284407616" lon="12.646056838660995"><ele>111.4</ele><time>2026-04-25T08:29:10Z</time></trkpt><trkpt lat="43.83743975855573" lon="12.645949464699036"><ele>112.2</ele><time>2026-04-25T08:29:12Z</time></trkpt><trkpt lat="43.83740471053543" lon="12.645838342091468"><ele>113.0</ele><time>2026-04-25T08:29:13Z</time></trkpt><trkpt lat="43.837354336294474" lon="12.645724636607147"><ele>113.0</ele><time>2026-04-25T08:29:14Z</time></trkpt><trkpt lat="43.83729545872537" lon="12.64561325910317"><ele>113.00000000000001</ele><time>2026-04-25T08:29:15Z</time></trkpt><trkpt lat="43.83720902002181" lon="12.645545945639554"><ele>113.00000000000001</ele><time>2026-04-25T08:29:16Z</time></trkpt><trkpt lat="43.83713024314569" lon="12.645486781632068"><ele>113.0</ele><time>2026-04-25T08:29:17Z</time></trkpt><trkpt lat="43.837048317503125" lon="12.645449149043"><ele>113.0</ele><time>2026-04-25T08:29:18Z</time></trkpt><trkpt lat="43.83694548982836" lon="12.645437133744615"><ele>113.0</ele><time>2026-04-25T08:29:19Z</time></trkpt><trkpt lat="43.83683945163489" lon="12.645455724523686"><ele>113.0</ele><time>2026-04-25T08:29:20Z</time></trkpt><trkpt lat="43.836730690906975" lon="12.645485804870999"><ele>113.0</ele><time>2026-04-25T08:29:21Z</time></trkpt><trkpt lat="43.83662118376627" lon="12.64552974573161"><ele>113.0</ele><time>2026-04-25T08:29:22Z</time></trkpt><trkpt lat="43.836513978340484" lon="12.6456057845362"><ele>115.80000000000001</ele><time>2026-04-25T08:29:23Z</time></trkpt><trkpt lat="43.83643067542812" lon="12.64565316613118"><ele>118.60000000000001</ele><time>2026-04-25T08:29:24Z</time></trkpt><trkpt lat="43.83636887902151" lon="12.645683199644134"><ele>121.39999999999999</ele><time>2026-04-25T08:29:25Z</time></trkpt><trkpt lat="43.83633310270124" lon="12.645771799903455"><ele>124.19999999999999</ele><time>2026-04-25T08:29:26Z</time></trkpt><trkpt lat="43.83626989207497" lon="12.645960024769877"><ele>127.0</ele><time>2026-04-25T08:29:28Z</time></trkpt><trkpt lat="43.83624844806698" lon="12.646119487709855"><ele>127.25</ele><time>2026-04-25T08:29:29Z</time></trkpt><trkpt lat="43.836243195077216" lon="12.646285687580892"><ele>127.5</ele><time>2026-04-25T08:29:30Z</time></trkpt><trkpt lat="43.83620530227719" lon="12.646451629015925"><ele>127.75</ele><time>2026-04-25T08:29:31Z</time></trkpt><trkpt lat="43.83618200575518" lon="12.646627056239005"><ele>128.0</ele><time>2026-04-25T08:29:32Z</time></trkpt><trkpt lat="43.83615869581685" lon="12.646802584464218"><ele>127.75</ele><time>2026-04-25T08:29:33Z</time></trkpt><trkpt lat="43.83613437370137" lon="12.646985734689848"><ele>127.5</ele><time>2026-04-25T08:29:34Z</time></trkpt><trkpt lat="43.83610865116192" lon="12.647179430162028"><ele>127.25</ele><time>2026-04-25T08:29:35Z</time></trkpt><trkpt lat="43.83608633322461" lon="12.647345099243688"><ele>127.0</ele><time>2026-04-25T08:29:36Z</time></trkpt><trkpt lat="43.836057284252355" lon="12.647514985317192"><ele>127.0</ele><time>2026-04-25T08:29:37Z</time></trkpt><trkpt lat="43.83601615526881" lon="12.647693162757248"><ele>127.0</ele><time>2026-04-25T08:29:38Z</time></trkpt><trkpt lat="43.83596241206226" lon="12.647870987422028"><ele>127.0</ele><time>2026-04-25T08:29:39Z</time></trkpt><trkpt lat="43.83589616637349" lon="12.648051714827627"><ele>127.0</ele><time>2026-04-25T08:29:40Z</time></trkpt><trkpt lat="43.83582742776092" lon="12.64823716666171"><ele>129.5</ele><time>2026-04-25T08:29:41Z</time></trkpt><trkpt lat="43.83575352202494" lon="12.64842522906472"><ele>132.0</ele><time>2026-04-25T08:29:42Z</time></trkpt><trkpt lat="43.835680959340706" lon="12.648595856813014"><ele>134.5</ele><time>2026-04-25T08:29:43Z</time></trkpt><trkpt lat="43.83560593719069" lon="12.648760684082546"><ele>137.0</ele><time>2026-04-25T08:29:44Z</time></trkpt><trkpt lat="43.83552491630852" lon="12.648936229679636"><ele>137.0</ele><time>2026-04-25T08:29:45Z</time></trkpt><trkpt lat="43.83543784864748" lon="12.649125047481714"><ele>137.0</ele><time>2026-04-25T08:29:46Z</time></trkpt><trkpt lat="43.835349838892135" lon="12.649322201430765"><ele>137.0</ele><time>2026-04-25T08:29:47Z</time></trkpt><trkpt lat="43.83528669206078" lon="12.649483430452236"><ele>135.75</ele><time>2026-04-25T08:29:48Z</time></trkpt><trkpt lat="43.83522580911499" lon="12.649612560764842"><ele>134.5</ele><time>2026-04-25T08:29:49Z</time></trkpt><trkpt lat="43.83515402237249" lon="12.64972429490397"><ele>133.25</ele><time>2026-04-25T08:29:50Z</time></trkpt><trkpt lat="43.83507164121277" lon="12.649829852298206"><ele>132.0</ele><time>2026-04-25T08:29:51Z</time></trkpt><trkpt lat="43.83497197116681" lon="12.649954786740011"><ele>135.75</ele><time>2026-04-25T08:29:52Z</time></trkpt><trkpt lat="43.834862624221834" lon="12.65009407581518"><ele>139.5</ele><time>2026-04-25T08:29:53Z</time></trkpt><trkpt lat="43.83475857029357" lon="12.650233384705327"><ele>143.25</ele><time>2026-04-25T08:29:54Z</time></trkpt><trkpt lat="43.83466206213431" lon="12.650361538082642"><ele>147.0</ele><time>2026-04-25T08:29:55Z</time></trkpt><trkpt lat="43.83457809385924" lon="12.650502030469196"><ele>147.0</ele><time>2026-04-25T08:29:56Z</time></trkpt><trkpt lat="43.8344711073253" lon="12.650621140030333"><ele>147.0</ele><time>2026-04-25T08:29:57Z</time></trkpt><trkpt lat="43.8343727514268" lon="12.650756168925236"><ele>147.0</ele><time>2026-04-25T08:29:58Z</time></trkpt><trkpt lat="43.8342714418213" lon="12.650896786075545"><ele>147.0</ele><time>2026-04-25T08:29:59Z</time></trkpt><trkpt lat="43.83416197601521" lon="12.651010761872667"><ele>151.5</ele><time>2026-04-25T08:30:00Z</time></trkpt><trkpt lat="43.83406194330034" lon="12.651141264408942"><ele>156.0</ele><time>2026-04-25T08:30:01Z</time></trkpt><trkpt lat="43.833961839853536" lon="12.651271859223455"><ele>160.5</ele><time>2026-04-25T08:30:02Z</time></trkpt><trkpt lat="43.83386414300848" lon="12.651399280945865"><ele>165.0</ele><time>2026-04-25T08:30:03Z</time></trkpt><trkpt lat="43.83377454489773" lon="12.651513435166219"><ele>165.0</ele><time>2026-04-25T08:30:04Z</time></trkpt><trkpt lat="43.83370645916078" lon="12.651599866606935"><ele>165.0</ele><time>2026-04-25T08:30:05Z</time></trkpt><trkpt lat="43.833630841659385" lon="12.651688215276568"><ele>165.0</ele><time>2026-04-25T08:30:06Z</time></trkpt><trkpt lat="43.83354421720815" lon="12.651780111838374"><ele>165.0</ele><time>2026-04-25T08:30:07Z</time></trkpt><trkpt lat="43.83345279617579" lon="12.651868606289032"><ele>165.0</ele><time>2026-04-25T08:30:08Z</time></trkpt><trkpt lat="43.83336000110695" lon="12.651943791966506"><ele>165.4</ele><time>2026-04-25T08:30:09Z</time></trkpt><trkpt lat="43.833278412301524" lon="12.651984215174902"><ele>165.8</ele><time>2026-04-25T08:30:10Z</time></trkpt><trkpt lat="43.833211188601226" lon="12.652004560122974"><ele>166.2</ele><time>2026-04-25T08:30:11Z</time></trkpt><trkpt lat="43.83314337880562" lon="12.65200455818685"><ele>166.6</ele><time>2026-04-25T08:30:12Z</time></trkpt><trkpt lat="43.83306028950764" lon="12.651892695045072"><ele>167.0</ele><time>2026-04-25T08:30:14Z</time></trkpt><trkpt lat="43.83302350120371" lon="12.651703605765999"><ele>169.2</ele><time>2026-04-25T08:30:16Z</time></trkpt><trkpt lat="43.83301107989939" lon="12.651568578059535"><ele>171.39999999999998</ele><time>2026-04-25T08:30:17Z</time></trkpt><trkpt lat="43.83298702895943" lon="12.651409146518176"><ele>173.60000000000002</ele><time>2026-04-25T08:30:18Z</time></trkpt><trkpt lat="43.83296316003938" lon="12.651250921766191"><ele>175.8</ele><time>2026-04-25T08:30:19Z</time></trkpt><trkpt lat="43.83294022044158" lon="12.651098856826675"><ele>178.0</ele><time>2026-04-25T08:30:20Z</time></trkpt><trkpt lat="43.832911416959874" lon="12.650938631177956"><ele>180.0</ele><time>2026-04-25T08:30:21Z</time></trkpt><trkpt lat="43.83287240598111" lon="12.650773730432645"><ele>182.0</ele><time>2026-04-25T08:30:22Z</time></trkpt><trkpt lat="43.83281784573622" lon="12.650653774970642"><ele>184.0</ele><time>2026-04-25T08:30:23Z</time></trkpt><trkpt lat="43.83277524667004" lon="12.650493532609222"><ele>186.0</ele><time>2026-04-25T08:30:24Z</time></trkpt><trkpt lat="43.83272780264934" lon="12.65032544731515"><ele>187.66666666666666</ele><time>2026-04-25T08:30:25Z</time></trkpt><trkpt lat="43.83266956507933" lon="12.650149157100325"><ele>189.33333333333331</ele><time>2026-04-25T08:30:26Z</time></trkpt><trkpt lat="43.83259989120505" lon="12.649947298738045"><ele>191.0</ele><time>2026-04-25T08:30:27Z</time></trkpt><trkpt lat="43.832510650265476" lon="12.649730564774089"><ele>191.0</ele><time>2026-04-25T08:30:28Z</time></trkpt><trkpt lat="43.83241242670758" lon="12.649501188094828"><ele>191.0</ele><time>2026-04-25T08:30:29Z</time></trkpt><trkpt lat="43.83231292091196" lon="12.649245539315958"><ele>191.0</ele><time>2026-04-25T08:30:30Z</time></trkpt><trkpt lat="43.83221206591093" lon="12.649013116173686"><ele>194.0</ele><time>2026-04-25T08:30:31Z</time></trkpt><trkpt lat="43.832126641133776" lon="12.648807103174553"><ele>197.0</ele><time>2026-04-25T08:30:32Z</time></trkpt><trkpt lat="43.83204190221756" lon="12.648624840100943"><ele>200.0</ele><time>2026-04-25T08:30:33Z</time></trkpt><trkpt lat="43.831952901240506" lon="12.648482202348964"><ele>200.25</ele><time>2026-04-25T08:30:34Z</time></trkpt><trkpt lat="43.83190017707051" lon="12.64832642894724"><ele>200.5</ele><time>2026-04-25T08:30:35Z</time></trkpt><trkpt lat="43.83183250560764" lon="12.648199967697028"><ele>200.75</ele><time>2026-04-25T08:30:36Z</time></trkpt><trkpt lat="43.83171033530913" lon="12.648099472393689"><ele>201.0</ele><time>2026-04-25T08:30:37Z</time></trkpt><trkpt lat="43.83158622182898" lon="12.647973888023245"><ele>200.0</ele><time>2026-04-25T08:30:38Z</time></trkpt><trkpt lat="43.831435940641825" lon="12.6478329134252"><ele>199.0</ele><time>2026-04-25T08:30:39Z</time></trkpt><trkpt lat="43.831276957145114" lon="12.64765883442231"><ele>198.0</ele><time>2026-04-25T08:30:40Z</time></trkpt><trkpt lat="43.831094901001215" lon="12.647510452304477"><ele>199.0</ele><time>2026-04-25T08:30:41Z</time></trkpt><trkpt lat="43.83091699817225" lon="12.647371955125259"><ele>200.0</ele><time>2026-04-25T08:30:42Z</time></trkpt><trkpt lat="43.83073039083053" lon="12.647231044519415"><ele>201.0</ele><time>2026-04-25T08:30:43Z</time></trkpt><trkpt lat="43.830560568895585" lon="12.647103157537028"><ele>201.0</ele><time>2026-04-25T08:30:44Z</time></trkpt><trkpt lat="43.830405057792255" lon="12.646982160870362"><ele>201.0</ele><time>2026-04-25T08:30:45Z</time></trkpt><trkpt lat="43.830250897233064" lon="12.646854856022077"><ele>201.0</ele><time>2026-04-25T08:30:46Z</time></trkpt><trkpt lat="43.83008587765008" lon="12.64670730345392"><ele>202.5</ele><time>2026-04-25T08:30:47Z</time></trkpt><trkpt lat="43.82990050808125" lon="12.646538824109697"><ele>204.0</ele><time>2026-04-25T08:30:48Z</time></trkpt><trkpt lat="43.829699033421186" lon="12.646371262636741"><ele>204.0</ele><time>2026-04-25T08:30:49Z</time></trkpt><trkpt lat="43.82950398384767" lon="12.646211217344634"><ele>204.0</ele><time>2026-04-25T08:30:50Z</time></trkpt><trkpt lat="43.82931549359633" lon="12.646023340857726"><ele>205.0</ele><time>2026-04-25T08:30:51Z</time></trkpt><trkpt lat="43.829139397703855" lon="12.645847021292482"><ele>206.0</ele><time>2026-04-25T08:30:52Z</time></trkpt><trkpt lat="43.828958789056806" lon="12.645679650190946"><ele>207.0</ele><time>2026-04-25T08:30:53Z</time></trkpt><trkpt lat="43.828764174837104" lon="12.645503887651813"><ele>207.0</ele><time>2026-04-25T08:30:54Z</time></trkpt><trkpt lat="43.82859994251945" lon="12.645350723568747"><ele>207.0</ele><time>2026-04-25T08:30:55Z</time></trkpt><trkpt lat="43.82846789021207" lon="12.645225830215518"><ele>207.0</ele><time>2026-04-25T08:30:56Z</time></trkpt><trkpt lat="43.82833945851224" lon="12.645117863274942"><ele>208.39999999999998</ele><time>2026-04-25T08:30:57Z</time></trkpt><trkpt lat="43.8282265884271" lon="12.645069743141226"><ele>209.79999999999998</ele><time>2026-04-25T08:30:58Z</time></trkpt><trkpt lat="43.82812576746196" lon="12.645032915214319"><ele>211.2</ele><time>2026-04-25T08:30:59Z</time></trkpt><trkpt lat="43.82802436450137" lon="12.645044158024128"><ele>212.6</ele><time>2026-04-25T08:31:00Z</time></trkpt><trkpt lat="43.82790024139547" lon="12.645065123951833"><ele>214.0</ele><time>2026-04-25T08:31:01Z</time></trkpt><trkpt lat="43.827776145977076" lon="12.645088915551732"><ele>214.0</ele><time>2026-04-25T08:31:02Z</time></trkpt><trkpt lat="43.82767690129763" lon="12.645112758751754"><ele>214.0</ele><time>2026-04-25T08:31:03Z</time></trkpt><trkpt lat="43.82755091068337" lon="12.645136108976768"><ele>214.0</ele><time>2026-04-25T08:31:04Z</time></trkpt><trkpt lat="43.82742051263167" lon="12.64515257795762"><ele>214.0</ele><time>2026-04-25T08:31:05Z</time></trkpt><trkpt lat="43.8273219214002" lon="12.645167416795392"><ele>214.49999999999997</ele><time>2026-04-25T08:31:06Z</time></trkpt><trkpt lat="43.8272460695169" lon="12.645178384336702"><ele>215.0</ele><time>2026-04-25T08:31:07Z</time></trkpt><trkpt lat="43.82717879958144" lon="12.645192187604625"><ele>215.5</ele><time>2026-04-25T08:31:08Z</time></trkpt><trkpt lat="43.827057384626634" lon="12.64527591112076"><ele>216.0</ele><time>2026-04-25T08:31:10Z</time></trkpt><trkpt lat="43.82700181849953" lon="12.645317877293355"><ele>216.49999999999997</ele><time>2026-04-25T08:31:11Z</time></trkpt><trkpt lat="43.82691945111696" lon="12.645340735751597"><ele>217.0</ele><time>2026-04-25T08:31:13Z</time></trkpt><trkpt lat="43.826897261961946" lon="12.645211210566327"><ele>218.33333333333331</ele><time>2026-04-25T08:31:18Z</time></trkpt><trkpt lat="43.82689834565901" lon="12.645117975179074"><ele>219.66666666666666</ele><time>2026-04-25T08:31:19Z</time></trkpt><trkpt lat="43.82689973978592" lon="12.645005276291347"><ele>221.0</ele><time>2026-04-25T08:31:20Z</time></trkpt><trkpt lat="43.82690224821917" lon="12.644883199131582"><ele>222.33333333333331</ele><time>2026-04-25T08:31:21Z</time></trkpt><trkpt lat="43.82690491888884" lon="12.644753226512952"><ele>223.66666666666666</ele><time>2026-04-25T08:31:22Z</time></trkpt><trkpt lat="43.82690708517996" lon="12.644596528499203"><ele>225.0</ele><time>2026-04-25T08:31:23Z</time></trkpt><trkpt lat="43.82690560904766" lon="12.644448341032225"><ele>225.0</ele><time>2026-04-25T08:31:24Z</time></trkpt><trkpt lat="43.8269029654454" lon="12.644296713704733"><ele>225.0</ele><time>2026-04-25T08:31:25Z</time></trkpt><trkpt lat="43.82690021240969" lon="12.644138809704268"><ele>225.0</ele><time>2026-04-25T08:31:26Z</time></trkpt><trkpt lat="43.8268974056392" lon="12.643982963942888"><ele>225.0</ele><time>2026-04-25T08:31:27Z</time></trkpt><trkpt lat="43.826892678862215" lon="12.643814674297392"><ele>225.0</ele><time>2026-04-25T08:31:28Z</time></trkpt><trkpt lat="43.82688440322734" lon="12.643631749203562"><ele>225.0</ele><time>2026-04-25T08:31:29Z</time></trkpt><trkpt lat="43.826872618839396" lon="12.64343176336634"><ele>225.0</ele><time>2026-04-25T08:31:30Z</time></trkpt><trkpt lat="43.82684749343465" lon="12.64324560179416"><ele>225.0</ele><time>2026-04-25T08:31:31Z</time></trkpt><trkpt lat="43.82682462088654" lon="12.643063215092601"><ele>225.0</ele><time>2026-04-25T08:31:32Z</time></trkpt><trkpt lat="43.826798949824074" lon="12.642858947982411"><ele>225.0</ele><time>2026-04-25T08:31:33Z</time></trkpt><trkpt lat="43.82678203803384" lon="12.642675058243922"><ele>225.0</ele><time>2026-04-25T08:31:34Z</time></trkpt><trkpt lat="43.826749224459945" lon="12.642516901206088"><ele>225.0</ele><time>2026-04-25T08:31:35Z</time></trkpt><trkpt lat="43.826689791700744" lon="12.642390367311949"><ele>225.0</ele><time>2026-04-25T08:31:36Z</time></trkpt><trkpt lat="43.82663099801757" lon="12.64229170510135"><ele>225.0</ele><time>2026-04-25T08:31:37Z</time></trkpt><trkpt lat="43.826563897360266" lon="12.642226543560042"><ele>225.0</ele><time>2026-04-25T08:31:38Z</time></trkpt><trkpt lat="43.826489905577795" lon="12.64218261013509"><ele>225.0</ele><time>2026-04-25T08:31:39Z</time></trkpt><trkpt lat="43.826405747778445" lon="12.64217535254233"><ele>225.0</ele><time>2026-04-25T08:31:40Z</time></trkpt><trkpt lat="43.826305039479074" lon="12.642194380701957"><ele>225.0</ele><time>2026-04-25T08:31:41Z</time></trkpt><trkpt lat="43.826204596030784" lon="12.642227983544702"><ele>225.0</ele><time>2026-04-25T08:31:42Z</time></trkpt><trkpt lat="43.82610943760778" lon="12.642206147359126"><ele>225.0</ele><time>2026-04-25T08:31:43Z</time></trkpt><trkpt lat="43.826036805424955" lon="12.642171983842514"><ele>225.0</ele><time>2026-04-25T08:31:44Z</time></trkpt><trkpt lat="43.82598170434445" lon="12.642118748582059"><ele>225.0</ele><time>2026-04-25T08:31:45Z</time></trkpt><trkpt lat="43.82594390991696" lon="12.64204794734777"><ele>225.0</ele><time>2026-04-25T08:31:46Z</time></trkpt><trkpt lat="43.8259472289388" lon="12.641876621988041"><ele>225.0</ele><time>2026-04-25T08:31:48Z</time></trkpt><trkpt lat="43.82597347559272" lon="12.641786334083081"><ele>225.5714285714286</ele><time>2026-04-25T08:31:49Z</time></trkpt><trkpt lat="43.82600710559024" lon="12.641711450051599"><ele>226.14285714285717</ele><time>2026-04-25T08:31:50Z</time></trkpt><trkpt lat="43.82604693974338" lon="12.641627285350268"><ele>226.71428571428572</ele><time>2026-04-25T08:31:51Z</time></trkpt><trkpt lat="43.82608714549428" lon="12.64152575169863"><ele>227.2857142857143</ele><time>2026-04-25T08:31:52Z</time></trkpt><trkpt lat="43.82610810788632" lon="12.641409634572856"><ele>227.8571428571429</ele><time>2026-04-25T08:31:53Z</time></trkpt><trkpt lat="43.826114564606165" lon="12.641318290100024"><ele>228.42857142857142</ele><time>2026-04-25T08:31:54Z</time></trkpt><trkpt lat="43.82610797964169" lon="12.641231170467284"><ele>229.0</ele><time>2026-04-25T08:31:55Z</time></trkpt><trkpt lat="43.82608048714977" lon="12.641133627624566"><ele>229.33333333333331</ele><time>2026-04-25T08:31:56Z</time></trkpt><trkpt lat="43.82605429724681" lon="12.641039806275554"><ele>229.66666666666666</ele><time>2026-04-25T08:31:57Z</time></trkpt><trkpt lat="43.82602613069578" lon="12.640939379014966"><ele>230.0</ele><time>2026-04-25T08:31:58Z</time></trkpt><trkpt lat="43.825995607805915" lon="12.640836297258277"><ele>230.33333333333331</ele><time>2026-04-25T08:31:59Z</time></trkpt><trkpt lat="43.825948096746544" lon="12.640723473037031"><ele>230.66666666666666</ele><time>2026-04-25T08:32:00Z</time></trkpt><trkpt lat="43.825893699507496" lon="12.640602331283853"><ele>231.0</ele><time>2026-04-25T08:32:01Z</time></trkpt><trkpt lat="43.82583025099706" lon="12.640479160614674"><ele>234.4</ele><time>2026-04-25T08:32:02Z</time></trkpt><trkpt lat="43.82576546740261" lon="12.640369937005978"><ele>237.8</ele><time>2026-04-25T08:32:03Z</time></trkpt><trkpt lat="43.82569347314933" lon="12.640265420126708"><ele>241.20000000000002</ele><time>2026-04-25T08:32:04Z</time></trkpt><trkpt lat="43.825617593436455" lon="12.64016873204946"><ele>244.60000000000002</ele><time>2026-04-25T08:32:05Z</time></trkpt><trkpt lat="43.82554129006022" lon="12.64008840808015"><ele>248.0</ele><time>2026-04-25T08:32:06Z</time></trkpt><trkpt lat="43.825467591753345" lon="12.640023601941841"><ele>248.66666666666669</ele><time>2026-04-25T08:32:07Z</time></trkpt><trkpt lat="43.82537251789202" lon="12.639997309920362"><ele>249.33333333333334</ele><time>2026-04-25T08:32:08Z</time></trkpt><trkpt lat="43.82529341933834" lon="12.639962826411034"><ele>250.0</ele><time>2026-04-25T08:32:09Z</time></trkpt><trkpt lat="43.82522940731688" lon="12.639909800608658"><ele>250.66666666666669</ele><time>2026-04-25T08:32:10Z</time></trkpt><trkpt lat="43.82516117729224" lon="12.639863946546553"><ele>251.33333333333334</ele><time>2026-04-25T08:32:11Z</time></trkpt><trkpt lat="43.82509108051389" lon="12.639796952223397"><ele>252.0</ele><time>2026-04-25T08:32:12Z</time></trkpt><trkpt lat="43.82498633151913" lon="12.639783654536975"><ele>252.6</ele><time>2026-04-25T08:32:13Z</time></trkpt><trkpt lat="43.824915468712135" lon="12.639700143573858"><ele>253.2</ele><time>2026-04-25T08:32:14Z</time></trkpt><trkpt lat="43.8248656572756" lon="12.639594274272302"><ele>253.8</ele><time>2026-04-25T08:32:15Z</time></trkpt><trkpt lat="43.82481143825126" lon="12.639489605876296"><ele>254.4</ele><time>2026-04-25T08:32:16Z</time></trkpt><trkpt lat="43.82479552423644" lon="12.63931958225368"><ele>255.0</ele><time>2026-04-25T08:32:17Z</time></trkpt><trkpt lat="43.82473002727795" lon="12.639189881324228"><ele>258.2</ele><time>2026-04-25T08:32:18Z</time></trkpt><trkpt lat="43.82466892790965" lon="12.639064524596673"><ele>261.4</ele><time>2026-04-25T08:32:19Z</time></trkpt><trkpt lat="43.824617110854234" lon="12.638952364082217"><ele>264.6</ele><time>2026-04-25T08:32:20Z</time></trkpt><trkpt lat="43.82456178573211" lon="12.63883059635819"><ele>267.8</ele><time>2026-04-25T08:32:21Z</time></trkpt><trkpt lat="43.82451063943459" lon="12.638720880011766"><ele>271.0</ele><time>2026-04-25T08:32:22Z</time></trkpt><trkpt lat="43.82446149595532" lon="12.638611786834671"><ele>273.40000000000003</ele><time>2026-04-25T08:32:23Z</time></trkpt><trkpt lat="43.8244295165708" lon="12.638514122070815"><ele>275.8</ele><time>2026-04-25T08:32:24Z</time></trkpt><trkpt lat="43.824424890434095" lon="12.638360093553766"><ele>278.20000000000005</ele><time>2026-04-25T08:32:26Z</time></trkpt><trkpt lat="43.82444543444119" lon="12.638267688275752"><ele>280.6</ele><time>2026-04-25T08:32:27Z</time></trkpt><trkpt lat="43.82445946387066" lon="12.638137833755085"><ele>283.0</ele><time>2026-04-25T08:32:28Z</time></trkpt><trkpt lat="43.82447507698761" lon="12.637993320679904"><ele>283.0</ele><time>2026-04-25T08:32:29Z</time></trkpt><trkpt lat="43.82449131819289" lon="12.637822303747683"><ele>283.0</ele><time>2026-04-25T08:32:30Z</time></trkpt><trkpt lat="43.82449659938721" lon="12.63766342221553"><ele>283.0</ele><time>2026-04-25T08:32:31Z</time></trkpt><trkpt lat="43.8244988495832" lon="12.637521388768693"><ele>283.0</ele><time>2026-04-25T08:32:32Z</time></trkpt><trkpt lat="43.82449884958474" lon="12.637397753470516"><ele>283.0</ele><time>2026-04-25T08:32:33Z</time></trkpt><trkpt lat="43.824479556804604" lon="12.63726819144799"><ele>283.5</ele><time>2026-04-25T08:32:34Z</time></trkpt><trkpt lat="43.82447090452464" lon="12.637110152700242"><ele>284.0</ele><time>2026-04-25T08:32:35Z</time></trkpt><trkpt lat="43.824457808369424" lon="12.636943232433328"><ele>284.5</ele><time>2026-04-25T08:32:36Z</time></trkpt><trkpt lat="43.82443783844968" lon="12.636792429569796"><ele>285.0</ele><time>2026-04-25T08:32:37Z</time></trkpt><trkpt lat="43.82440981116252" lon="12.63665377784175"><ele>283.0</ele><time>2026-04-25T08:32:38Z</time></trkpt><trkpt lat="43.82437235219213" lon="12.63651221020582"><ele>281.0</ele><time>2026-04-25T08:32:39Z</time></trkpt><trkpt lat="43.82433805755572" lon="12.636385280800784"><ele>279.0</ele><time>2026-04-25T08:32:40Z</time></trkpt><trkpt lat="43.8242847102125" lon="12.636250712449726"><ele>277.0</ele><time>2026-04-25T08:32:41Z</time></trkpt><trkpt lat="43.824218917794184" lon="12.636127130987775"><ele>275.0</ele><time>2026-04-25T08:32:42Z</time></trkpt><trkpt lat="43.824140963565156" lon="12.636006346829316"><ele>275.0</ele><time>2026-04-25T08:32:43Z</time></trkpt><trkpt lat="43.82407371094944" lon="12.635879095490495"><ele>275.0</ele><time>2026-04-25T08:32:44Z</time></trkpt><trkpt lat="43.82399828415803" lon="12.635746194955708"><ele>275.0</ele><time>2026-04-25T08:32:45Z</time></trkpt><trkpt lat="43.82391746771616" lon="12.635594930782469"><ele>275.0</ele><time>2026-04-25T08:32:46Z</time></trkpt><trkpt lat="43.82383070353251" lon="12.635431396581144"><ele>271.6666666666667</ele><time>2026-04-25T08:32:47Z</time></trkpt><trkpt lat="43.823753049845266" lon="12.6352327289293"><ele>268.3333333333333</ele><time>2026-04-25T08:32:48Z</time></trkpt><trkpt lat="43.82367318260219" lon="12.63505438017778"><ele>265.0</ele><time>2026-04-25T08:32:49Z</time></trkpt><trkpt lat="43.823599902876374" lon="12.63488757455959"><ele>265.0</ele><time>2026-04-25T08:32:50Z</time></trkpt><trkpt lat="43.82351913375905" lon="12.634703796157883"><ele>265.0</ele><time>2026-04-25T08:32:51Z</time></trkpt><trkpt lat="43.823418664630175" lon="12.634517687628279"><ele>265.0</ele><time>2026-04-25T08:32:52Z</time></trkpt><trkpt lat="43.823335571935324" lon="12.634293317595839"><ele>268.66666666666663</ele><time>2026-04-25T08:32:53Z</time></trkpt><trkpt lat="43.823232334638085" lon="12.634089017169702"><ele>272.3333333333333</ele><time>2026-04-25T08:32:54Z</time></trkpt><trkpt lat="43.82312161534056" lon="12.633885983917851"><ele>276.0</ele><time>2026-04-25T08:32:55Z</time></trkpt><trkpt lat="43.82301656150964" lon="12.633698307673209"><ele>277.0</ele><time>2026-04-25T08:32:56Z</time></trkpt><trkpt lat="43.82290172517033" lon="12.63352994086926"><ele>278.0</ele><time>2026-04-25T08:32:57Z</time></trkpt><trkpt lat="43.822794502106404" lon="12.633337766690934"><ele>279.0</ele><time>2026-04-25T08:32:58Z</time></trkpt><trkpt lat="43.822707635418894" lon="12.633143654252297"><ele>278.25</ele><time>2026-04-25T08:32:59Z</time></trkpt><trkpt lat="43.82261349834283" lon="12.632963897700888"><ele>277.5</ele><time>2026-04-25T08:33:00Z</time></trkpt><trkpt lat="43.82253394931278" lon="12.632809244427898"><ele>276.75</ele><time>2026-04-25T08:33:01Z</time></trkpt><trkpt lat="43.822449021677315" lon="12.632644134920035"><ele>276.0</ele><time>2026-04-25T08:33:02Z</time></trkpt><trkpt lat="43.82236559106428" lon="12.632484001327226"><ele>277.25</ele><time>2026-04-25T08:33:03Z</time></trkpt><trkpt lat="43.82228517967574" lon="12.632330388475703"><ele>278.5</ele><time>2026-04-25T08:33:04Z</time></trkpt><trkpt lat="43.82221203434819" lon="12.632190243101645"><ele>279.75</ele><time>2026-04-25T08:33:05Z</time></trkpt><trkpt lat="43.8221391757229" lon="12.632049858649824"><ele>281.0</ele><time>2026-04-25T08:33:06Z</time></trkpt><trkpt lat="43.822060949335345" lon="12.631899131417246"><ele>281.0</ele><time>2026-04-25T08:33:07Z</time></trkpt><trkpt lat="43.821988689774784" lon="12.631759901182692"><ele>281.0</ele><time>2026-04-25T08:33:08Z</time></trkpt><trkpt lat="43.82190715413501" lon="12.631602797703444"><ele>281.0</ele><time>2026-04-25T08:33:09Z</time></trkpt><trkpt lat="43.82182711672672" lon="12.631448582141847"><ele>281.0</ele><time>2026-04-25T08:33:10Z</time></trkpt><trkpt lat="43.8217580943354" lon="12.631313714722925"><ele>281.25</ele><time>2026-04-25T08:33:11Z</time></trkpt><trkpt lat="43.82169364782541" lon="12.631186342601902"><ele>281.5</ele><time>2026-04-25T08:33:12Z</time></trkpt><trkpt lat="43.821625473006016" lon="12.631051271093027"><ele>281.75</ele><time>2026-04-25T08:33:13Z</time></trkpt><trkpt lat="43.82155346942591" lon="12.630907226185457"><ele>282.0</ele><time>2026-04-25T08:33:14Z</time></trkpt><trkpt lat="43.821478686473476" lon="12.630757620675096"><ele>284.75</ele><time>2026-04-25T08:33:15Z</time></trkpt><trkpt lat="43.821399706266604" lon="12.630604517602928"><ele>287.5</ele><time>2026-04-25T08:33:16Z</time></trkpt><trkpt lat="43.82133260830221" lon="12.630472615554053"><ele>290.25</ele><time>2026-04-25T08:33:17Z</time></trkpt><trkpt lat="43.82127683615064" lon="12.630356181415602"><ele>293.0</ele><time>2026-04-25T08:33:18Z</time></trkpt><trkpt lat="43.82122695181838" lon="12.630229877400243"><ele>293.0</ele><time>2026-04-25T08:33:19Z</time></trkpt><trkpt lat="43.821176667878994" lon="12.630085436612738"><ele>293.0</ele><time>2026-04-25T08:33:20Z</time></trkpt><trkpt lat="43.82113177024059" lon="12.629928192268887"><ele>293.0</ele><time>2026-04-25T08:33:21Z</time></trkpt><trkpt lat="43.82109505752941" lon="12.6297648650393"><ele>293.0</ele><time>2026-04-25T08:33:22Z</time></trkpt><trkpt lat="43.82107584717817" lon="12.629600125374237"><ele>292.8</ele><time>2026-04-25T08:33:23Z</time></trkpt><trkpt lat="43.82105991388633" lon="12.629444537273752"><ele>292.6</ele><time>2026-04-25T08:33:24Z</time></trkpt><trkpt lat="43.82104700887219" lon="12.62928195535288"><ele>292.4</ele><time>2026-04-25T08:33:25Z</time></trkpt><trkpt lat="43.82103758397468" lon="12.629122504453479"><ele>292.2</ele><time>2026-04-25T08:33:26Z</time></trkpt><trkpt lat="43.821032480350354" lon="12.628982008887956"><ele>292.0</ele><time>2026-04-25T08:33:27Z</time></trkpt><trkpt lat="43.82103017594362" lon="12.628821432743337"><ele>292.0</ele><time>2026-04-25T08:33:28Z</time></trkpt><trkpt lat="43.82102965162669" lon="12.628673344422486"><ele>292.0</ele><time>2026-04-25T08:33:29Z</time></trkpt><trkpt lat="43.82103022465189" lon="12.62850659295627"><ele>292.0</ele><time>2026-04-25T08:33:30Z</time></trkpt><trkpt lat="43.82103008147908" lon="12.628355375707736"><ele>292.0</ele><time>2026-04-25T08:33:31Z</time></trkpt><trkpt lat="43.82101428737111" lon="12.628205311839352"><ele>292.0</ele><time>2026-04-25T08:33:32Z</time></trkpt><trkpt lat="43.82101809440096" lon="12.628065894868987"><ele>292.5</ele><time>2026-04-25T08:33:33Z</time></trkpt><trkpt lat="43.82099888112876" lon="12.627902494940347"><ele>293.0</ele><time>2026-04-25T08:33:34Z</time></trkpt><trkpt lat="43.82097722548207" lon="12.627715553972006"><ele>293.5</ele><time>2026-04-25T08:33:35Z</time></trkpt><trkpt lat="43.82097954016155" lon="12.627521401922012"><ele>294.0</ele><time>2026-04-25T08:33:36Z</time></trkpt><trkpt lat="43.82097962183368" lon="12.627351810856364"><ele>295.4</ele><time>2026-04-25T08:33:37Z</time></trkpt><trkpt lat="43.820988099092446" lon="12.627205941954848"><ele>296.79999999999995</ele><time>2026-04-25T08:33:38Z</time></trkpt><trkpt lat="43.821007064139565" lon="12.627088863504481"><ele>298.20000000000005</ele><time>2026-04-25T08:33:39Z</time></trkpt><trkpt lat="43.82104202981016" lon="12.626989574418918"><ele>299.6</ele><time>2026-04-25T08:33:40Z</time></trkpt><trkpt lat="43.8210816442724" lon="12.626874885481682"><ele>301.0</ele><time>2026-04-25T08:33:41Z</time></trkpt><trkpt lat="43.82112111563993" lon="12.626749192008045"><ele>303.8</ele><time>2026-04-25T08:33:42Z</time></trkpt><trkpt lat="43.82115225302803" lon="12.626618951795816"><ele>306.6</ele><time>2026-04-25T08:33:43Z</time></trkpt><trkpt lat="43.821147625399114" lon="12.62646641848799"><ele>309.4</ele><time>2026-04-25T08:33:44Z</time></trkpt><trkpt lat="43.82115606985445" lon="12.626310451098973"><ele>312.2</ele><time>2026-04-25T08:33:45Z</time></trkpt><trkpt lat="43.82117208898373" lon="12.626143446253664"><ele>315.0</ele><time>2026-04-25T08:33:46Z</time></trkpt><trkpt lat="43.82117374949111" lon="12.625974646852036"><ele>316.6</ele><time>2026-04-25T08:33:47Z</time></trkpt><trkpt lat="43.82117144335939" lon="12.625834195967554"><ele>318.2</ele><time>2026-04-25T08:33:48Z</time></trkpt><trkpt lat="43.82116863124257" lon="12.625718094816385"><ele>319.79999999999995</ele><time>2026-04-25T08:33:49Z</time></trkpt><trkpt lat="43.8211626398501" lon="12.625619371839859"><ele>321.4</ele><time>2026-04-25T08:33:50Z</time></trkpt><trkpt lat="43.82113682329702" lon="12.625474701152655"><ele>323.0</ele><time>2026-04-25T08:33:52Z</time></trkpt><trkpt lat="43.821088923797745" lon="12.62535305266124"><ele>322.59999999999997</ele><time>2026-04-25T08:33:54Z</time></trkpt><trkpt lat="43.8210223575735" lon="12.62529495017881"><ele>322.2</ele><time>2026-04-25T08:33:57Z</time></trkpt><trkpt lat="43.82095175249765" lon="12.625431072598394"><ele>321.8</ele><time>2026-04-25T08:34:01Z</time></trkpt><trkpt lat="43.82090077364791" lon="12.625535274862274"><ele>321.4</ele><time>2026-04-25T08:34:02Z</time></trkpt><trkpt lat="43.82087004512603" lon="12.625661216960303"><ele>321.0</ele><time>2026-04-25T08:34:03Z</time></trkpt><trkpt lat="43.820813925343835" lon="12.625781404035118"><ele>321.0</ele><time>2026-04-25T08:34:04Z</time></trkpt><trkpt lat="43.82075795496799" lon="12.625909485241847"><ele>321.0</ele><time>2026-04-25T08:34:05Z</time></trkpt><trkpt lat="43.82070617985869" lon="12.626028260469523"><ele>321.0</ele><time>2026-04-25T08:34:06Z</time></trkpt><trkpt lat="43.820653153842756" lon="12.626149842346136"><ele>321.0</ele><time>2026-04-25T08:34:07Z</time></trkpt><trkpt lat="43.82059577666963" lon="12.626284216966273"><ele>321.0</ele><time>2026-04-25T08:34:08Z</time></trkpt><trkpt lat="43.82053534962402" lon="12.626426304549204"><ele>320.75</ele><time>2026-04-25T08:34:09Z</time></trkpt><trkpt lat="43.8204657013248" lon="12.626560728464854"><ele>320.5</ele><time>2026-04-25T08:34:10Z</time></trkpt><trkpt lat="43.82039168309125" lon="12.626686029976252"><ele>320.25</ele><time>2026-04-25T08:34:11Z</time></trkpt><trkpt lat="43.82031388694778" lon="12.626791067047986"><ele>320.0</ele><time>2026-04-25T08:34:12Z</time></trkpt><trkpt lat="43.82022905503461" lon="12.626888742281778"><ele>319.25</ele><time>2026-04-25T08:34:13Z</time></trkpt><trkpt lat="43.820129393997284" lon="12.626982619832955"><ele>318.5</ele><time>2026-04-25T08:34:14Z</time></trkpt><trkpt lat="43.82002897594714" lon="12.627083257774137"><ele>317.75</ele><time>2026-04-25T08:34:15Z</time></trkpt><trkpt lat="43.81993416062652" lon="12.627174055575109"><ele>317.0</ele><time>2026-04-25T08:34:16Z</time></trkpt><trkpt lat="43.819845046002065" lon="12.627261648883223"><ele>317.0</ele><time>2026-04-25T08:34:17Z</time></trkpt><trkpt lat="43.819758221259654" lon="12.627340864232028"><ele>317.0</ele><time>2026-04-25T08:34:18Z</time></trkpt><trkpt lat="43.81967468469635" lon="12.627410534460886"><ele>317.0</ele><time>2026-04-25T08:34:19Z</time></trkpt><trkpt lat="43.81959650286367" lon="12.6274802944412"><ele>317.0</ele><time>2026-04-25T08:34:20Z</time></trkpt><trkpt lat="43.81951920695538" lon="12.62755609147863"><ele>317.0</ele><time>2026-04-25T08:34:21Z</time></trkpt><trkpt lat="43.81944223633446" lon="12.627627327797905"><ele>317.0</ele><time>2026-04-25T08:34:22Z</time></trkpt><trkpt lat="43.81935731828018" lon="12.627709638805616"><ele>317.0</ele><time>2026-04-25T08:34:23Z</time></trkpt><trkpt lat="43.81926985998727" lon="12.627806164321505"><ele>317.0</ele><time>2026-04-25T08:34:24Z</time></trkpt><trkpt lat="43.819189351744754" lon="12.627903817289006"><ele>317.0</ele><time>2026-04-25T08:34:25Z</time></trkpt><trkpt lat="43.819122267693686" lon="12.62801246855612"><ele>317.0</ele><time>2026-04-25T08:34:26Z</time></trkpt><trkpt lat="43.819069408208186" lon="12.628141396808589"><ele>313.75</ele><time>2026-04-25T08:34:27Z</time></trkpt><trkpt lat="43.819023169250734" lon="12.628293960468062"><ele>310.5</ele><time>2026-04-25T08:34:28Z</time></trkpt><trkpt lat="43.81898687502696" lon="12.628468146273118"><ele>307.25</ele><time>2026-04-25T08:34:29Z</time></trkpt><trkpt lat="43.81894270037449" lon="12.628649528953318"><ele>304.0</ele><time>2026-04-25T08:34:30Z</time></trkpt><trkpt lat="43.81890375945549" lon="12.62880477611822"><ele>302.8333333333333</ele><time>2026-04-25T08:34:31Z</time></trkpt><trkpt lat="43.818876756037334" lon="12.628932603039603"><ele>301.66666666666663</ele><time>2026-04-25T08:34:32Z</time></trkpt><trkpt lat="43.81885314401587" lon="12.629051465260476"><ele>300.5</ele><time>2026-04-25T08:34:33Z</time></trkpt><trkpt lat="43.81882639279854" lon="12.62916254775745"><ele>299.3333333333333</ele><time>2026-04-25T08:34:34Z</time></trkpt><trkpt lat="43.81879229939477" lon="12.629256922952028"><ele>298.1666666666667</ele><time>2026-04-25T08:34:35Z</time></trkpt><trkpt lat="43.81874771160303" lon="12.629338683261409"><ele>297.0</ele><time>2026-04-25T08:34:36Z</time></trkpt><trkpt lat="43.81868467306176" lon="12.629409380766013"><ele>297.0</ele><time>2026-04-25T08:34:37Z</time></trkpt><trkpt lat="43.818600387056485" lon="12.629463358888595"><ele>297.0</ele><time>2026-04-25T08:34:38Z</time></trkpt><trkpt lat="43.81850604294945" lon="12.629513767399642"><ele>297.0</ele><time>2026-04-25T08:34:39Z</time></trkpt><trkpt lat="43.81840922094286" lon="12.629555303701267"><ele>297.0</ele><time>2026-04-25T08:34:40Z</time></trkpt><trkpt lat="43.818316403957304" lon="12.629582941866023"><ele>297.0</ele><time>2026-04-25T08:34:41Z</time></trkpt><trkpt lat="43.818231999053495" lon="12.62961495785338"><ele>294.2</ele><time>2026-04-25T08:34:42Z</time></trkpt><trkpt lat="43.818139638656234" lon="12.629648153827663"><ele>291.4</ele><time>2026-04-25T08:34:43Z</time></trkpt><trkpt lat="43.818035927535036" lon="12.629686182642418"><ele>288.6</ele><time>2026-04-25T08:34:44Z</time></trkpt><trkpt lat="43.8179291782705" lon="12.629730128724267"><ele>285.8</ele><time>2026-04-25T08:34:45Z</time></trkpt><trkpt lat="43.81782186438933" lon="12.629775582042926"><ele>283.0</ele><time>2026-04-25T08:34:46Z</time></trkpt><trkpt lat="43.81770898015215" lon="12.629816241485079"><ele>285.0</ele><time>2026-04-25T08:34:47Z</time></trkpt><trkpt lat="43.81759967517086" lon="12.629854463061182"><ele>287.0</ele><time>2026-04-25T08:34:48Z</time></trkpt><trkpt lat="43.817489163703726" lon="12.629900805353884"><ele>289.0</ele><time>2026-04-25T08:34:49Z</time></trkpt><trkpt lat="43.81737833989075" lon="12.629954698798675"><ele>291.0</ele><time>2026-04-25T08:34:50Z</time></trkpt><trkpt lat="43.817266159736185" lon="12.629995524567944"><ele>291.0</ele><time>2026-04-25T08:34:51Z</time></trkpt><trkpt lat="43.817154959237264" lon="12.630041589480049"><ele>291.0</ele><time>2026-04-25T08:34:52Z</time></trkpt><trkpt lat="43.81704866176816" lon="12.630086408247525"><ele>291.0</ele><time>2026-04-25T08:34:53Z</time></trkpt><trkpt lat="43.816933085236606" lon="12.630132803114181"><ele>291.0</ele><time>2026-04-25T08:34:54Z</time></trkpt><trkpt lat="43.81681167773869" lon="12.630167949369971"><ele>290.3333333333333</ele><time>2026-04-25T08:34:55Z</time></trkpt><trkpt lat="43.81668103649309" lon="12.63021901808879"><ele>289.66666666666663</ele><time>2026-04-25T08:34:56Z</time></trkpt><trkpt lat="43.81653453980288" lon="12.630272522286306"><ele>289.0</ele><time>2026-04-25T08:34:57Z</time></trkpt><trkpt lat="43.816372341957916" lon="12.630336051879615"><ele>286.3333333333333</ele><time>2026-04-25T08:34:58Z</time></trkpt><trkpt lat="43.81620075090134" lon="12.630403295554768"><ele>283.6666666666667</ele><time>2026-04-25T08:34:59Z</time></trkpt><trkpt lat="43.81602032435747" lon="12.630477859326867"><ele>281.0</ele><time>2026-04-25T08:35:00Z</time></trkpt><trkpt lat="43.815841098233335" lon="12.630553408082854"><ele>281.0</ele><time>2026-04-25T08:35:01Z</time></trkpt><trkpt lat="43.81566087755257" lon="12.630627641117027"><ele>281.0</ele><time>2026-04-25T08:35:02Z</time></trkpt><trkpt lat="43.81547423222924" lon="12.630702812587833"><ele>281.0</ele><time>2026-04-25T08:35:03Z</time></trkpt><trkpt lat="43.81528679247412" lon="12.630786869213093"><ele>278.6666666666667</ele><time>2026-04-25T08:35:04Z</time></trkpt><trkpt lat="43.81510796179487" lon="12.630890300323196"><ele>276.3333333333333</ele><time>2026-04-25T08:35:05Z</time></trkpt><trkpt lat="43.814940795330266" lon="12.631021999067675"><ele>274.0</ele><time>2026-04-25T08:35:06Z</time></trkpt><trkpt lat="43.814784740119045" lon="12.631172960307302"><ele>274.0</ele><time>2026-04-25T08:35:07Z</time></trkpt><trkpt lat="43.81465212260823" lon="12.631310481285295"><ele>274.0</ele><time>2026-04-25T08:35:08Z</time></trkpt><trkpt lat="43.81453528027711" lon="12.631416951167221"><ele>274.0</ele><time>2026-04-25T08:35:09Z</time></trkpt><trkpt lat="43.814424466731225" lon="12.63144848732379"><ele>274.0</ele><time>2026-04-25T08:35:10Z</time></trkpt><trkpt lat="43.81432903562254" lon="12.631452303153276"><ele>278.4</ele><time>2026-04-25T08:35:11Z</time></trkpt><trkpt lat="43.81425410850329" lon="12.631395367745736"><ele>282.79999999999995</ele><time>2026-04-25T08:35:12Z</time></trkpt><trkpt lat="43.81418771617192" lon="12.631309706290068"><ele>287.20000000000005</ele><time>2026-04-25T08:35:13Z</time></trkpt><trkpt lat="43.814144247967995" lon="12.631199735384829"><ele>291.6</ele><time>2026-04-25T08:35:14Z</time></trkpt><trkpt lat="43.81411116418364" lon="12.63105186600409"><ele>296.0</ele><time>2026-04-25T08:35:15Z</time></trkpt><trkpt lat="43.814067755705" lon="12.630947187047713"><ele>296.0</ele><time>2026-04-25T08:35:16Z</time></trkpt><trkpt lat="43.814007482213206" lon="12.630864843614594"><ele>296.0</ele><time>2026-04-25T08:35:17Z</time></trkpt><trkpt lat="43.81394083964489" lon="12.630844183318207"><ele>296.0</ele><time>2026-04-25T08:35:18Z</time></trkpt><trkpt lat="43.8138438982031" lon="12.630960713698954"><ele>296.0</ele><time>2026-04-25T08:35:20Z</time></trkpt><trkpt lat="43.813806109837415" lon="12.631084068650193"><ele>296.0</ele><time>2026-04-25T08:35:21Z</time></trkpt><trkpt lat="43.813765819052826" lon="12.631198111920348"><ele>296.0</ele><time>2026-04-25T08:35:22Z</time></trkpt><trkpt lat="43.81370618760811" lon="12.631327603445413"><ele>296.0</ele><time>2026-04-25T08:35:23Z</time></trkpt><trkpt lat="43.813609937696576" lon="12.631429510142691"><ele>296.0</ele><time>2026-04-25T08:35:24Z</time></trkpt><trkpt lat="43.81350297842913" lon="12.631513943058717"><ele>296.0</ele><time>2026-04-25T08:35:25Z</time></trkpt><trkpt lat="43.81338918929966" lon="12.631572159120974"><ele>301.25</ele><time>2026-04-25T08:35:26Z</time></trkpt><trkpt lat="43.81325868787621" lon="12.631627057337496"><ele>306.5</ele><time>2026-04-25T08:35:27Z</time></trkpt><trkpt lat="43.8131260042802" lon="12.631673735388144"><ele>311.75</ele><time>2026-04-25T08:35:28Z</time></trkpt><trkpt lat="43.812986714253995" lon="12.631723720271006"><ele>317.0</ele><time>2026-04-25T08:35:29Z</time></trkpt><trkpt lat="43.81284565824728" lon="12.631774039240698"><ele>317.0</ele><time>2026-04-25T08:35:30Z</time></trkpt><trkpt lat="43.81270755537401" lon="12.631823222274292"><ele>317.0</ele><time>2026-04-25T08:35:31Z</time></trkpt><trkpt lat="43.81258680787439" lon="12.631866289977973"><ele>317.0</ele><time>2026-04-25T08:35:32Z</time></trkpt><trkpt lat="43.812501433288446" lon="12.631896944016235"><ele>317.0</ele><time>2026-04-25T08:35:33Z</time></trkpt><trkpt lat="43.81241529104872" lon="12.631928545069375"><ele>317.0</ele><time>2026-04-25T08:35:34Z</time></trkpt><trkpt lat="43.812313972125786" lon="12.63198980712769"><ele>313.5</ele><time>2026-04-25T08:35:35Z</time></trkpt><trkpt lat="43.81220083945871" lon="12.632027875819183"><ele>310.0</ele><time>2026-04-25T08:35:36Z</time></trkpt><trkpt lat="43.81207396442553" lon="12.632044693617969"><ele>306.5</ele><time>2026-04-25T08:35:37Z</time></trkpt><trkpt lat="43.81195036283476" lon="12.632059627116954"><ele>303.0</ele><time>2026-04-25T08:35:38Z</time></trkpt><trkpt lat="43.811837061673465" lon="12.63206360884335"><ele>307.6</ele><time>2026-04-25T08:35:39Z</time></trkpt><trkpt lat="43.81171368682656" lon="12.632065685258288"><ele>312.20000000000005</ele><time>2026-04-25T08:35:40Z</time></trkpt><trkpt lat="43.81160950617995" lon="12.632067609255342"><ele>316.8</ele><time>2026-04-25T08:35:41Z</time></trkpt><trkpt lat="43.81152077006346" lon="12.632070955706125"><ele>321.40000000000003</ele><time>2026-04-25T08:35:42Z</time></trkpt><trkpt lat="43.81144989316108" lon="12.63209646614538"><ele>326.0</ele><time>2026-04-25T08:35:43Z</time></trkpt><trkpt lat="43.811351337747745" lon="12.632101891073777"><ele>326.0</ele><time>2026-04-25T08:35:45Z</time></trkpt><trkpt lat="43.811254541638924" lon="12.632089427937315"><ele>326.0</ele><time>2026-04-25T08:35:47Z</time></trkpt><trkpt lat="43.811191935170854" lon="12.632060579941232"><ele>326.0</ele><time>2026-04-25T08:35:49Z</time></trkpt><trkpt lat="43.8111292339797" lon="12.632047801100855"><ele>326.0</ele><time>2026-04-25T08:35:53Z</time></trkpt><trkpt lat="43.81113022067388" lon="12.632136901436898"><ele>326.0</ele><time>2026-04-25T08:35:55Z</time></trkpt><trkpt lat="43.81111187689628" lon="12.632036963134233"><ele>326.0</ele><time>2026-04-25T08:37:09Z</time></trkpt><trkpt lat="43.811027136984926" lon="12.632051726098608"><ele>327.8</ele><time>2026-04-25T08:41:22Z</time></trkpt><trkpt lat="43.81093016332051" lon="12.632089505227402"><ele>329.6</ele><time>2026-04-25T08:41:24Z</time></trkpt><trkpt lat="43.81084138937622" lon="12.632147812945432"><ele>331.4</ele><time>2026-04-25T08:41:26Z</time></trkpt><trkpt lat="43.81075373685112" lon="12.632197254397877"><ele>333.2</ele><time>2026-04-25T08:41:28Z</time></trkpt><trkpt lat="43.81067659062604" lon="12.632227326144134"><ele>335.0</ele><time>2026-04-25T08:41:30Z</time></trkpt><trkpt lat="43.81059164458126" lon="12.63217965801806"><ele>335.0</ele><time>2026-04-25T08:41:33Z</time></trkpt><trkpt lat="43.81056095955216" lon="12.632022411581783"><ele>335.0</ele><time>2026-04-25T08:41:35Z</time></trkpt><trkpt lat="43.81057511244437" lon="12.631923932429306"><ele>335.0</ele><time>2026-04-25T08:41:36Z</time></trkpt><trkpt lat="43.8106228015051" lon="12.631830094670306"><ele>335.0</ele><time>2026-04-25T08:41:37Z</time></trkpt><trkpt lat="43.81068538379247" lon="12.631728853988307"><ele>335.0</ele><time>2026-04-25T08:41:38Z</time></trkpt><trkpt lat="43.81074682231777" lon="12.631631777452455"><ele>334.83333333333337</ele><time>2026-04-25T08:41:39Z</time></trkpt><trkpt lat="43.810801579251475" lon="12.631532747707908"><ele>334.6666666666667</ele><time>2026-04-25T08:41:40Z</time></trkpt><trkpt lat="43.81085230593054" lon="12.63144432999315"><ele>334.5</ele><time>2026-04-25T08:41:41Z</time></trkpt><trkpt lat="43.8109004436893" lon="12.631349902196002"><ele>334.3333333333333</ele><time>2026-04-25T08:41:42Z</time></trkpt><trkpt lat="43.81096022751392" lon="12.63125504367668"><ele>334.16666666666663</ele><time>2026-04-25T08:41:43Z</time></trkpt><trkpt lat="43.81102720354913" lon="12.631150669854096"><ele>334.0</ele><time>2026-04-25T08:41:44Z</time></trkpt><trkpt lat="43.811097881390815" lon="12.631038088879981"><ele>334.0</ele><time>2026-04-25T08:41:45Z</time></trkpt><trkpt lat="43.81117770330312" lon="12.63092263735364"><ele>334.0</ele><time>2026-04-25T08:41:46Z</time></trkpt><trkpt lat="43.81122670421232" lon="12.630771433495557"><ele>334.0</ele><time>2026-04-25T08:41:47Z</time></trkpt><trkpt lat="43.81130370222075" lon="12.630642850087966"><ele>334.0</ele><time>2026-04-25T08:41:48Z</time></trkpt><trkpt lat="43.81136387544995" lon="12.630503643814478"><ele>334.0</ele><time>2026-04-25T08:41:49Z</time></trkpt><trkpt lat="43.81140762845843" lon="12.63035828866055"><ele>334.0</ele><time>2026-04-25T08:41:50Z</time></trkpt><trkpt lat="43.81147901931052" lon="12.63023432242175"><ele>334.0</ele><time>2026-04-25T08:41:51Z</time></trkpt><trkpt lat="43.81153473656893" lon="12.630101188150258"><ele>334.0</ele><time>2026-04-25T08:41:52Z</time></trkpt><trkpt lat="43.811574194357256" lon="12.62995264020151"><ele>331.4</ele><time>2026-04-25T08:41:53Z</time></trkpt><trkpt lat="43.81163301357051" lon="12.629825523004131"><ele>328.79999999999995</ele><time>2026-04-25T08:41:54Z</time></trkpt><trkpt lat="43.81167816315461" lon="12.629694897436584"><ele>326.20000000000005</ele><time>2026-04-25T08:41:55Z</time></trkpt><trkpt lat="43.81172577049426" lon="12.629561030976637"><ele>323.6</ele><time>2026-04-25T08:41:56Z</time></trkpt><trkpt lat="43.81177208521499" lon="12.62942129697893"><ele>321.0</ele><time>2026-04-25T08:41:57Z</time></trkpt><trkpt lat="43.81181830400786" lon="12.629277908182631"><ele>320.40000000000003</ele><time>2026-04-25T08:41:58Z</time></trkpt><trkpt lat="43.811860183806786" lon="12.629131698248097"><ele>319.8</ele><time>2026-04-25T08:41:59Z</time></trkpt><trkpt lat="43.811900899463915" lon="12.628985727797657"><ele>319.20000000000005</ele><time>2026-04-25T08:42:00Z</time></trkpt><trkpt lat="43.811949394924206" lon="12.628846081234325"><ele>318.6</ele><time>2026-04-25T08:42:01Z</time></trkpt><trkpt lat="43.81198624929512" lon="12.628708501327793"><ele>318.0</ele><time>2026-04-25T08:42:02Z</time></trkpt><trkpt lat="43.812019053565244" lon="12.628572495025212"><ele>316.2</ele><time>2026-04-25T08:42:03Z</time></trkpt><trkpt lat="43.81204922747221" lon="12.628444148457074"><ele>314.4</ele><time>2026-04-25T08:42:04Z</time></trkpt><trkpt lat="43.81208444078531" lon="12.628314820826784"><ele>312.59999999999997</ele><time>2026-04-25T08:42:05Z</time></trkpt><trkpt lat="43.81212663448032" lon="12.628186746302159"><ele>310.8</ele><time>2026-04-25T08:42:06Z</time></trkpt><trkpt lat="43.81217380183353" lon="12.628055794858735"><ele>309.0</ele><time>2026-04-25T08:42:07Z</time></trkpt><trkpt lat="43.81223898565071" lon="12.627940274470733"><ele>307.2</ele><time>2026-04-25T08:42:08Z</time></trkpt><trkpt lat="43.81227934393991" lon="12.627798871700746"><ele>305.4</ele><time>2026-04-25T08:42:09Z</time></trkpt><trkpt lat="43.81234035337245" lon="12.627668174749036"><ele>303.6</ele><time>2026-04-25T08:42:10Z</time></trkpt><trkpt lat="43.812417815390276" lon="12.627557885942513"><ele>301.8</ele><time>2026-04-25T08:42:11Z</time></trkpt><trkpt lat="43.81248824726789" lon="12.62744876100502"><ele>300.0</ele><time>2026-04-25T08:42:12Z</time></trkpt><trkpt lat="43.8125636446679" lon="12.627361866567721"><ele>300.0</ele><time>2026-04-25T08:42:13Z</time></trkpt><trkpt lat="43.81263887379167" lon="12.627300317644849"><ele>300.0</ele><time>2026-04-25T08:42:14Z</time></trkpt><trkpt lat="43.81269440511735" lon="12.627238660958275"><ele>300.0</ele><time>2026-04-25T08:42:15Z</time></trkpt><trkpt lat="43.81272686788103" lon="12.627103333371867"><ele>300.0</ele><time>2026-04-25T08:42:17Z</time></trkpt><trkpt lat="43.812669131622506" lon="12.627031500153494"><ele>300.0</ele><time>2026-04-25T08:42:18Z</time></trkpt><trkpt lat="43.81258277654338" lon="12.627003704394188"><ele>300.0</ele><time>2026-04-25T08:42:19Z</time></trkpt><trkpt lat="43.81247913754801" lon="12.627023186041349"><ele>300.0</ele><time>2026-04-25T08:42:20Z</time></trkpt><trkpt lat="43.81237259879523" lon="12.627053588135045"><ele>300.0</ele><time>2026-04-25T08:42:21Z</time></trkpt><trkpt lat="43.81224555452084" lon="12.62709985990705"><ele>300.0</ele><time>2026-04-25T08:42:22Z</time></trkpt><trkpt lat="43.812124889332836" lon="12.62713403805554"><ele>300.0</ele><time>2026-04-25T08:42:23Z</time></trkpt><trkpt lat="43.81200836756609" lon="12.627149012264361"><ele>300.0</ele><time>2026-04-25T08:42:24Z</time></trkpt><trkpt lat="43.811896185048006" lon="12.627098180556962"><ele>300.0</ele><time>2026-04-25T08:42:25Z</time></trkpt><trkpt lat="43.811783313589" lon="12.627033758662316"><ele>300.0</ele><time>2026-04-25T08:42:26Z</time></trkpt><trkpt lat="43.811665762189335" lon="12.626949265647196"><ele>300.0</ele><time>2026-04-25T08:42:27Z</time></trkpt><trkpt lat="43.811557524799355" lon="12.626849001518753"><ele>296.0</ele><time>2026-04-25T08:42:28Z</time></trkpt><trkpt lat="43.811460847382016" lon="12.626739715226742"><ele>292.0</ele><time>2026-04-25T08:42:29Z</time></trkpt><trkpt lat="43.811389475837636" lon="12.626617328887697"><ele>288.0</ele><time>2026-04-25T08:42:30Z</time></trkpt><trkpt lat="43.811336065968554" lon="12.626490977391528"><ele>284.0</ele><time>2026-04-25T08:42:31Z</time></trkpt><trkpt lat="43.81133680363402" lon="12.626358359262998"><ele>280.0</ele><time>2026-04-25T08:42:32Z</time></trkpt><trkpt lat="43.81135118952279" lon="12.626222156778313"><ele>278.5</ele><time>2026-04-25T08:42:33Z</time></trkpt><trkpt lat="43.811370089352934" lon="12.626048860953405"><ele>277.0</ele><time>2026-04-25T08:42:34Z</time></trkpt><trkpt lat="43.81137876128967" lon="12.625862734566352"><ele>275.5</ele><time>2026-04-25T08:42:35Z</time></trkpt><trkpt lat="43.8113488719802" lon="12.625667969196176"><ele>274.0</ele><time>2026-04-25T08:42:36Z</time></trkpt><trkpt lat="43.81132434624972" lon="12.625464113193734"><ele>271.66666666666663</ele><time>2026-04-25T08:42:37Z</time></trkpt><trkpt lat="43.81127635207559" lon="12.625256118840253"><ele>269.3333333333333</ele><time>2026-04-25T08:42:38Z</time></trkpt><trkpt lat="43.81121749800757" lon="12.625031066873454"><ele>267.0</ele><time>2026-04-25T08:42:39Z</time></trkpt><trkpt lat="43.811146297957045" lon="12.624817432187111"><ele>267.0</ele><time>2026-04-25T08:42:40Z</time></trkpt><trkpt lat="43.811100246659194" lon="12.624612449820384"><ele>267.0</ele><time>2026-04-25T08:42:41Z</time></trkpt><trkpt lat="43.81105932830615" lon="12.62441802114927"><ele>267.0</ele><time>2026-04-25T08:42:42Z</time></trkpt><trkpt lat="43.811001765347136" lon="12.624246064662593"><ele>267.0</ele><time>2026-04-25T08:42:43Z</time></trkpt><trkpt lat="43.81092876319733" lon="12.624100273287008"><ele>267.0</ele><time>2026-04-25T08:42:44Z</time></trkpt><trkpt lat="43.810825502557265" lon="12.623995974788954"><ele>267.0</ele><time>2026-04-25T08:42:45Z</time></trkpt><trkpt lat="43.8107151612977" lon="12.623889088820025"><ele>267.0</ele><time>2026-04-25T08:42:46Z</time></trkpt><trkpt lat="43.81060410683756" lon="12.623760756837944"><ele>267.0</ele><time>2026-04-25T08:42:47Z</time></trkpt><trkpt lat="43.810485615719294" lon="12.623637946726193"><ele>265.0</ele><time>2026-04-25T08:42:48Z</time></trkpt><trkpt lat="43.81039310648074" lon="12.623478866747336"><ele>263.0</ele><time>2026-04-25T08:42:49Z</time></trkpt><trkpt lat="43.81030205405625" lon="12.623326269517598"><ele>261.0</ele><time>2026-04-25T08:42:50Z</time></trkpt><trkpt lat="43.810207423228576" lon="12.623195552620261"><ele>259.0</ele><time>2026-04-25T08:42:51Z</time></trkpt><trkpt lat="43.81012846642406" lon="12.623054161055132"><ele>257.75</ele><time>2026-04-25T08:42:52Z</time></trkpt><trkpt lat="43.81005749884614" lon="12.622914521997005"><ele>256.5</ele><time>2026-04-25T08:42:53Z</time></trkpt><trkpt lat="43.80999186410596" lon="12.622772370399824"><ele>255.25</ele><time>2026-04-25T08:42:54Z</time></trkpt><trkpt lat="43.80992835368878" lon="12.622627269498514"><ele>254.0</ele><time>2026-04-25T08:42:55Z</time></trkpt><trkpt lat="43.80986228540273" lon="12.622482510022767"><ele>254.0</ele><time>2026-04-25T08:42:56Z</time></trkpt><trkpt lat="43.80979801186612" lon="12.622334583739137"><ele>254.0</ele><time>2026-04-25T08:42:57Z</time></trkpt><trkpt lat="43.80974204886962" lon="12.62218887314627"><ele>254.0</ele><time>2026-04-25T08:42:58Z</time></trkpt><trkpt lat="43.80968330353394" lon="12.62204562011937"><ele>254.0</ele><time>2026-04-25T08:42:59Z</time></trkpt><trkpt lat="43.80961919365958" lon="12.621900910220923"><ele>252.0</ele><time>2026-04-25T08:43:00Z</time></trkpt><trkpt lat="43.80955107277104" lon="12.621758743853825"><ele>250.0</ele><time>2026-04-25T08:43:01Z</time></trkpt><trkpt lat="43.80948009559944" lon="12.621625436803248"><ele>248.0</ele><time>2026-04-25T08:43:02Z</time></trkpt><trkpt lat="43.809404671745256" lon="12.621503908978674"><ele>246.0</ele><time>2026-04-25T08:43:03Z</time></trkpt><trkpt lat="43.809324047400125" lon="12.62138924903884"><ele>244.5</ele><time>2026-04-25T08:43:04Z</time></trkpt><trkpt lat="43.80923221143032" lon="12.621284786336027"><ele>243.0</ele><time>2026-04-25T08:43:05Z</time></trkpt><trkpt lat="43.80913688284868" lon="12.621171503371416"><ele>241.5</ele><time>2026-04-25T08:43:06Z</time></trkpt><trkpt lat="43.80903940621801" lon="12.621056971596992"><ele>240.0</ele><time>2026-04-25T08:43:07Z</time></trkpt><trkpt lat="43.80894731807989" lon="12.620942509558304"><ele>239.8</ele><time>2026-04-25T08:43:08Z</time></trkpt><trkpt lat="43.80886271641727" lon="12.620844689903272"><ele>239.6</ele><time>2026-04-25T08:43:09Z</time></trkpt><trkpt lat="43.80877872638069" lon="12.620763603251312"><ele>239.39999999999998</ele><time>2026-04-25T08:43:10Z</time></trkpt><trkpt lat="43.80868585198698" lon="12.62071507330215"><ele>239.2</ele><time>2026-04-25T08:43:11Z</time></trkpt><trkpt lat="43.80858282073689" lon="12.620704973210096"><ele>239.0</ele><time>2026-04-25T08:43:12Z</time></trkpt><trkpt lat="43.80846960341879" lon="12.62070601326998"><ele>236.2</ele><time>2026-04-25T08:43:13Z</time></trkpt><trkpt lat="43.80835806316873" lon="12.620708558947173"><ele>233.39999999999998</ele><time>2026-04-25T08:43:14Z</time></trkpt><trkpt lat="43.80826016834958" lon="12.620705524736579"><ele>230.6</ele><time>2026-04-25T08:43:15Z</time></trkpt><trkpt lat="43.80817723822875" lon="12.62063893717097"><ele>227.8</ele><time>2026-04-25T08:43:16Z</time></trkpt><trkpt lat="43.808120894270495" lon="12.620546466625974"><ele>225.0</ele><time>2026-04-25T08:43:17Z</time></trkpt><trkpt lat="43.80807771162372" lon="12.62045931726389"><ele>224.2</ele><time>2026-04-25T08:43:18Z</time></trkpt><trkpt lat="43.80807961747257" lon="12.620291596282826"><ele>223.4</ele><time>2026-04-25T08:43:20Z</time></trkpt><trkpt lat="43.80813807827662" lon="12.620223955528227"><ele>222.60000000000002</ele><time>2026-04-25T08:43:21Z</time></trkpt><trkpt lat="43.808210355228574" lon="12.620163015566442"><ele>221.8</ele><time>2026-04-25T08:43:22Z</time></trkpt><trkpt lat="43.80830227050948" lon="12.620094307534167"><ele>221.0</ele><time>2026-04-25T08:43:23Z</time></trkpt><trkpt lat="43.80840845220952" lon="12.620013693206463"><ele>222.5</ele><time>2026-04-25T08:43:24Z</time></trkpt><trkpt lat="43.80851822294182" lon="12.61993623454826"><ele>224.0</ele><time>2026-04-25T08:43:25Z</time></trkpt><trkpt lat="43.808620506488026" lon="12.6198526932855"><ele>225.5</ele><time>2026-04-25T08:43:26Z</time></trkpt><trkpt lat="43.80869416980925" lon="12.619746290754037"><ele>227.0</ele><time>2026-04-25T08:43:27Z</time></trkpt><trkpt lat="43.808758844115744" lon="12.619635374030441"><ele>227.0</ele><time>2026-04-25T08:43:28Z</time></trkpt><trkpt lat="43.80881336415186" lon="12.619503494377604"><ele>227.0</ele><time>2026-04-25T08:43:29Z</time></trkpt><trkpt lat="43.808867082497" lon="12.619353014866707"><ele>227.0</ele><time>2026-04-25T08:43:30Z</time></trkpt><trkpt lat="43.80892696566356" lon="12.619217127454911"><ele>227.0</ele><time>2026-04-25T08:43:31Z</time></trkpt><trkpt lat="43.8089743607129" lon="12.61910548966766"><ele>227.0</ele><time>2026-04-25T08:43:32Z</time></trkpt><trkpt lat="43.80900774079829" lon="12.619017929824675"><ele>224.83333333333334</ele><time>2026-04-25T08:43:33Z</time></trkpt><trkpt lat="43.80898248167143" lon="12.618870202601903"><ele>222.66666666666669</ele><time>2026-04-25T08:43:35Z</time></trkpt><trkpt lat="43.80891067862214" lon="12.61884331155556"><ele>220.5</ele><time>2026-04-25T08:43:36Z</time></trkpt><trkpt lat="43.80881894780547" lon="12.618847734587213"><ele>218.33333333333331</ele><time>2026-04-25T08:43:37Z</time></trkpt><trkpt lat="43.8087312495437" lon="12.618879790041134"><ele>216.16666666666666</ele><time>2026-04-25T08:43:38Z</time></trkpt><trkpt lat="43.808656033067855" lon="12.618891652006345"><ele>214.0</ele><time>2026-04-25T08:43:39Z</time></trkpt><trkpt lat="43.808646237429635" lon="12.618763317471235"><ele>213.99999999999997</ele><time>2026-04-25T08:43:40Z</time></trkpt><trkpt lat="43.808655246665154" lon="12.618660492507498"><ele>214.0</ele><time>2026-04-25T08:43:41Z</time></trkpt><trkpt lat="43.80867222698593" lon="12.618561485237281"><ele>214.0</ele><time>2026-04-25T08:43:42Z</time></trkpt><trkpt lat="43.80871015525857" lon="12.618470436834203"><ele>214.0</ele><time>2026-04-25T08:43:43Z</time></trkpt><trkpt lat="43.808767265587655" lon="12.618388616836263"><ele>213.99999999999997</ele><time>2026-04-25T08:43:44Z</time></trkpt><trkpt lat="43.808858445892874" lon="12.618383886453916"><ele>214.0</ele><time>2026-04-25T08:43:45Z</time></trkpt><trkpt lat="43.80894344653811" lon="12.61838427405257"><ele>211.6</ele><time>2026-04-25T08:43:46Z</time></trkpt><trkpt lat="43.80902741958021" lon="12.618414133625086"><ele>209.2</ele><time>2026-04-25T08:43:47Z</time></trkpt><trkpt lat="43.8091243972959" lon="12.618458456073544"><ele>206.79999999999998</ele><time>2026-04-25T08:43:48Z</time></trkpt><trkpt lat="43.809222621377266" lon="12.618493022213146"><ele>204.39999999999998</ele><time>2026-04-25T08:43:49Z</time></trkpt><trkpt lat="43.80931316409984" lon="12.618514823873014"><ele>202.0</ele><time>2026-04-25T08:43:50Z</time></trkpt><trkpt lat="43.80940049804143" lon="12.618477298763167"><ele>199.8</ele><time>2026-04-25T08:43:51Z</time></trkpt><trkpt lat="43.80947578465209" lon="12.618415630024675"><ele>197.6</ele><time>2026-04-25T08:43:52Z</time></trkpt><trkpt lat="43.80953310485993" lon="12.61833109324262"><ele>195.4</ele><time>2026-04-25T08:43:53Z</time></trkpt><trkpt lat="43.80956531170654" lon="12.618218452518075"><ele>193.20000000000002</ele><time>2026-04-25T08:43:54Z</time></trkpt><trkpt lat="43.80955386115189" lon="12.618082377429571"><ele>191.0</ele><time>2026-04-25T08:43:55Z</time></trkpt><trkpt lat="43.80951295689052" lon="12.617959057524722"><ele>191.0</ele><time>2026-04-25T08:43:56Z</time></trkpt><trkpt lat="43.80945209903916" lon="12.617841210369914"><ele>191.0</ele><time>2026-04-25T08:43:57Z</time></trkpt><trkpt lat="43.80938303614206" lon="12.617723646555527"><ele>191.0</ele><time>2026-04-25T08:43:58Z</time></trkpt><trkpt lat="43.809288739639" lon="12.617664852102587"><ele>191.0</ele><time>2026-04-25T08:43:59Z</time></trkpt><trkpt lat="43.80920859224965" lon="12.617672325946867"><ele>191.0</ele><time>2026-04-25T08:44:00Z</time></trkpt><trkpt lat="43.80909876180277" lon="12.617676023520064"><ele>191.25</ele><time>2026-04-25T08:44:01Z</time></trkpt><trkpt lat="43.80897155163803" lon="12.617668482637423"><ele>191.5</ele><time>2026-04-25T08:44:02Z</time></trkpt><trkpt lat="43.80883606156862" lon="12.617683941528245"><ele>191.75</ele><time>2026-04-25T08:44:03Z</time></trkpt><trkpt lat="43.808687681871454" lon="12.617685114885147"><ele>192.0</ele><time>2026-04-25T08:44:04Z</time></trkpt><trkpt lat="43.8085421441776" lon="12.617728486459297"><ele>192.5</ele><time>2026-04-25T08:44:05Z</time></trkpt><trkpt lat="43.80841506472914" lon="12.617787493532038"><ele>193.0</ele><time>2026-04-25T08:44:06Z</time></trkpt><trkpt lat="43.808284704706765" lon="12.61787909075432"><ele>193.5</ele><time>2026-04-25T08:44:07Z</time></trkpt><trkpt lat="43.80815906875058" lon="12.618000179764893"><ele>194.0</ele><time>2026-04-25T08:44:08Z</time></trkpt><trkpt lat="43.8080249921883" lon="12.6180918172302"><ele>194.0</ele><time>2026-04-25T08:44:09Z</time></trkpt><trkpt lat="43.80788739686501" lon="12.618168925710009"><ele>194.0</ele><time>2026-04-25T08:44:10Z</time></trkpt><trkpt lat="43.80773437325178" lon="12.618163777956214"><ele>194.0</ele><time>2026-04-25T08:44:11Z</time></trkpt><trkpt lat="43.80755354301416" lon="12.618211816642676"><ele>188.66666666666669</ele><time>2026-04-25T08:44:12Z</time></trkpt><trkpt lat="43.807416403856514" lon="12.618278680982966"><ele>183.33333333333334</ele><time>2026-04-25T08:44:13Z</time></trkpt><trkpt lat="43.8072671529057" lon="12.618343601483843"><ele>178.0</ele><time>2026-04-25T08:44:14Z</time></trkpt><trkpt lat="43.80711758586808" lon="12.618420011106966"><ele>178.0</ele><time>2026-04-25T08:44:15Z</time></trkpt><trkpt lat="43.806967139835116" lon="12.618518323991298"><ele>178.0</ele><time>2026-04-25T08:44:16Z</time></trkpt><trkpt lat="43.80680445229535" lon="12.618630443864767"><ele>178.0</ele><time>2026-04-25T08:44:17Z</time></trkpt><trkpt lat="43.80663955019967" lon="12.618751130363545"><ele>176.66666666666669</ele><time>2026-04-25T08:44:18Z</time></trkpt><trkpt lat="43.80648420094396" lon="12.618870028308189"><ele>175.33333333333334</ele><time>2026-04-25T08:44:19Z</time></trkpt><trkpt lat="43.80633595070209" lon="12.618989831008275"><ele>174.0</ele><time>2026-04-25T08:44:20Z</time></trkpt><trkpt lat="43.80619835477813" lon="12.619124241616124"><ele>174.0</ele><time>2026-04-25T08:44:21Z</time></trkpt><trkpt lat="43.80605610854834" lon="12.619263847904183"><ele>174.0</ele><time>2026-04-25T08:44:22Z</time></trkpt><trkpt lat="43.80591673633039" lon="12.619397783053861"><ele>174.0</ele><time>2026-04-25T08:44:23Z</time></trkpt><trkpt lat="43.8057878904033" lon="12.619517537431742"><ele>170.75</ele><time>2026-04-25T08:44:24Z</time></trkpt><trkpt lat="43.8056720403963" lon="12.61962433708725"><ele>167.5</ele><time>2026-04-25T08:44:25Z</time></trkpt><trkpt lat="43.80556595329303" lon="12.61970716555488"><ele>164.25</ele><time>2026-04-25T08:44:26Z</time></trkpt><trkpt lat="43.80544487528721" lon="12.619699414144185"><ele>161.0</ele><time>2026-04-25T08:44:27Z</time></trkpt><trkpt lat="43.805342458455556" lon="12.619676282404672"><ele>161.0</ele><time>2026-04-25T08:44:28Z</time></trkpt><trkpt lat="43.80519754294422" lon="12.619639681431675"><ele>161.0</ele><time>2026-04-25T08:44:29Z</time></trkpt><trkpt lat="43.80505417251933" lon="12.619602165816495"><ele>161.0</ele><time>2026-04-25T08:44:30Z</time></trkpt><trkpt lat="43.804902200297754" lon="12.619558004648507"><ele>161.0</ele><time>2026-04-25T08:44:31Z</time></trkpt><trkpt lat="43.80474945087403" lon="12.619505525641648"><ele>158.0</ele><time>2026-04-25T08:44:32Z</time></trkpt><trkpt lat="43.80460915950151" lon="12.61945206214529"><ele>155.0</ele><time>2026-04-25T08:44:33Z</time></trkpt><trkpt lat="43.804489671499596" lon="12.619393082720146"><ele>152.0</ele><time>2026-04-25T08:44:34Z</time></trkpt><trkpt lat="43.80439576740887" lon="12.619313972588385"><ele>149.0</ele><time>2026-04-25T08:44:35Z</time></trkpt><trkpt lat="43.80432240139675" lon="12.619235462985992"><ele>149.0</ele><time>2026-04-25T08:44:36Z</time></trkpt><trkpt lat="43.80429930268992" lon="12.619142691449579"><ele>149.0</ele><time>2026-04-25T08:44:37Z</time></trkpt><trkpt lat="43.80429278107159" lon="12.61904049800729"><ele>149.0</ele><time>2026-04-25T08:44:38Z</time></trkpt><trkpt lat="43.80432415341066" lon="12.618949242221612"><ele>149.0</ele><time>2026-04-25T08:44:39Z</time></trkpt><trkpt lat="43.80438295265018" lon="12.618861020097176"><ele>149.0</ele><time>2026-04-25T08:44:40Z</time></trkpt><trkpt lat="43.80445860742309" lon="12.618741069203061"><ele>149.0</ele><time>2026-04-25T08:44:41Z</time></trkpt><trkpt lat="43.80454377007563" lon="12.618601787531547"><ele>148.5</ele><time>2026-04-25T08:44:42Z</time></trkpt><trkpt lat="43.804632351207424" lon="12.618456244916981"><ele>148.0</ele><time>2026-04-25T08:44:43Z</time></trkpt><trkpt lat="43.804705710695885" lon="12.618322807873382"><ele>147.5</ele><time>2026-04-25T08:44:44Z</time></trkpt><trkpt lat="43.80475334213233" lon="12.618178076932773"><ele>147.0</ele><time>2026-04-25T08:44:45Z</time></trkpt><trkpt lat="43.80479684133952" lon="12.618046782734547"><ele>147.0</ele><time>2026-04-25T08:44:46Z</time></trkpt><trkpt lat="43.80481112094166" lon="12.617912277663214"><ele>147.0</ele><time>2026-04-25T08:44:47Z</time></trkpt><trkpt lat="43.80479967850891" lon="12.617757170515139"><ele>147.0</ele><time>2026-04-25T08:44:48Z</time></trkpt><trkpt lat="43.804767535449315" lon="12.617571798618"><ele>147.0</ele><time>2026-04-25T08:44:49Z</time></trkpt><trkpt lat="43.80473473967819" lon="12.617368047167778"><ele>146.0</ele><time>2026-04-25T08:44:50Z</time></trkpt><trkpt lat="43.804702426965555" lon="12.617150794322653"><ele>145.0</ele><time>2026-04-25T08:44:51Z</time></trkpt><trkpt lat="43.80467473368524" lon="12.616932496895117"><ele>144.0</ele><time>2026-04-25T08:44:52Z</time></trkpt><trkpt lat="43.80467614106309" lon="12.616722521686519"><ele>143.2</ele><time>2026-04-25T08:44:53Z</time></trkpt><trkpt lat="43.80464550255724" lon="12.61654713438947"><ele>142.4</ele><time>2026-04-25T08:44:54Z</time></trkpt><trkpt lat="43.80463377417557" lon="12.616391226736066"><ele>141.6</ele><time>2026-04-25T08:44:55Z</time></trkpt><trkpt lat="43.804614419112504" lon="12.616260466935536"><ele>140.8</ele><time>2026-04-25T08:44:56Z</time></trkpt><trkpt lat="43.80456325741921" lon="12.616147806519423"><ele>140.0</ele><time>2026-04-25T08:44:57Z</time></trkpt><trkpt lat="43.80449920813292" lon="12.616052960407492"><ele>139.4</ele><time>2026-04-25T08:44:58Z</time></trkpt><trkpt lat="43.80442815763185" lon="12.615991653218623"><ele>138.8</ele><time>2026-04-25T08:44:59Z</time></trkpt><trkpt lat="43.80434026870759" lon="12.615971595023222"><ele>138.2</ele><time>2026-04-25T08:45:00Z</time></trkpt><trkpt lat="43.80424378760814" lon="12.615998428733347"><ele>137.6</ele><time>2026-04-25T08:45:01Z</time></trkpt><trkpt lat="43.804145981937204" lon="12.616071194131075"><ele>137.0</ele><time>2026-04-25T08:45:02Z</time></trkpt><trkpt lat="43.804041799249696" lon="12.61617845082492"><ele>137.0</ele><time>2026-04-25T08:45:03Z</time></trkpt><trkpt lat="43.80392847344253" lon="12.61630171263322"><ele>137.0</ele><time>2026-04-25T08:45:04Z</time></trkpt><trkpt lat="43.80380521133417" lon="12.616420851135368"><ele>137.0</ele><time>2026-04-25T08:45:05Z</time></trkpt><trkpt lat="43.80367816900063" lon="12.616531149981553"><ele>137.0</ele><time>2026-04-25T08:45:06Z</time></trkpt><trkpt lat="43.80354674054654" lon="12.616616926096928"><ele>135.5</ele><time>2026-04-25T08:45:07Z</time></trkpt><trkpt lat="43.80340578588891" lon="12.61669541360643"><ele>134.0</ele><time>2026-04-25T08:45:08Z</time></trkpt><trkpt lat="43.803280986346515" lon="12.616753835063736"><ele>132.5</ele><time>2026-04-25T08:45:09Z</time></trkpt><trkpt lat="43.803200149396886" lon="12.616836852789248"><ele>131.0</ele><time>2026-04-25T08:45:10Z</time></trkpt><trkpt lat="43.80310869944963" lon="12.616874786406859"><ele>131.0</ele><time>2026-04-25T08:45:11Z</time></trkpt><trkpt lat="43.80301810511751" lon="12.616901016584253"><ele>131.0</ele><time>2026-04-25T08:45:12Z</time></trkpt><trkpt lat="43.8029111791208" lon="12.616926790088755"><ele>131.0</ele><time>2026-04-25T08:45:13Z</time></trkpt><trkpt lat="43.802802529764186" lon="12.616967152717683"><ele>131.0</ele><time>2026-04-25T08:45:14Z</time></trkpt><trkpt lat="43.80268822216221" lon="12.617020437747541"><ele>131.0</ele><time>2026-04-25T08:45:15Z</time></trkpt><trkpt lat="43.8025732314299" lon="12.617069551163674"><ele>131.0</ele><time>2026-04-25T08:45:16Z</time></trkpt><trkpt lat="43.80244996456373" lon="12.617141604817734"><ele>131.0</ele><time>2026-04-25T08:45:17Z</time></trkpt><trkpt lat="43.802329669294025" lon="12.617211492400521"><ele>131.0</ele><time>2026-04-25T08:45:18Z</time></trkpt><trkpt lat="43.80220646513312" lon="12.617299158445984"><ele>131.0</ele><time>2026-04-25T08:45:19Z</time></trkpt><trkpt lat="43.802085802874224" lon="12.617408287157529"><ele>131.0</ele><time>2026-04-25T08:45:20Z</time></trkpt><trkpt lat="43.80197354827557" lon="12.617537563223609"><ele>131.0</ele><time>2026-04-25T08:45:21Z</time></trkpt><trkpt lat="43.80186565152295" lon="12.617679009379438"><ele>131.0</ele><time>2026-04-25T08:45:22Z</time></trkpt><trkpt lat="43.80176073227511" lon="12.617834581786646"><ele>131.0</ele><time>2026-04-25T08:45:23Z</time></trkpt><trkpt lat="43.801658817822286" lon="12.617992305814523"><ele>129.75</ele><time>2026-04-25T08:45:24Z</time></trkpt><trkpt lat="43.801552338073854" lon="12.618138126085274"><ele>128.5</ele><time>2026-04-25T08:45:25Z</time></trkpt><trkpt lat="43.801439725424935" lon="12.618268951198582"><ele>127.25</ele><time>2026-04-25T08:45:26Z</time></trkpt><trkpt lat="43.80132212303294" lon="12.618384358423466"><ele>126.0</ele><time>2026-04-25T08:45:27Z</time></trkpt><trkpt lat="43.801195851664254" lon="12.618486994108407"><ele>126.0</ele><time>2026-04-25T08:45:28Z</time></trkpt><trkpt lat="43.80106166697007" lon="12.618560156504019"><ele>126.0</ele><time>2026-04-25T08:45:29Z</time></trkpt><trkpt lat="43.80092866079972" lon="12.618641763096235"><ele>126.0</ele><time>2026-04-25T08:45:30Z</time></trkpt><trkpt lat="43.800792270943155" lon="12.618713979476999"><ele>126.0</ele><time>2026-04-25T08:45:31Z</time></trkpt><trkpt lat="43.800652449181655" lon="12.6187786143889"><ele>125.5</ele><time>2026-04-25T08:45:32Z</time></trkpt><trkpt lat="43.800510081512876" lon="12.618832047217909"><ele>125.0</ele><time>2026-04-25T08:45:33Z</time></trkpt><trkpt lat="43.80037031976328" lon="12.618875079498304"><ele>124.5</ele><time>2026-04-25T08:45:34Z</time></trkpt><trkpt lat="43.80022869094105" lon="12.61890668632523"><ele>124.0</ele><time>2026-04-25T08:45:35Z</time></trkpt><trkpt lat="43.80008975343488" lon="12.618922497165697"><ele>123.0</ele><time>2026-04-25T08:45:36Z</time></trkpt><trkpt lat="43.79995265942533" lon="12.618933525648849"><ele>122.0</ele><time>2026-04-25T08:45:37Z</time></trkpt><trkpt lat="43.79981506336985" lon="12.61894500128051"><ele>121.0</ele><time>2026-04-25T08:45:38Z</time></trkpt><trkpt lat="43.79967771021366" lon="12.618962637039711"><ele>120.0</ele><time>2026-04-25T08:45:39Z</time></trkpt><trkpt lat="43.79954415054245" lon="12.618978431646033"><ele>120.0</ele><time>2026-04-25T08:45:40Z</time></trkpt><trkpt lat="43.799414174479836" lon="12.618997545355057"><ele>120.0</ele><time>2026-04-25T08:45:41Z</time></trkpt><trkpt lat="43.79929288893401" lon="12.619001398676236"><ele>120.0</ele><time>2026-04-25T08:45:42Z</time></trkpt><trkpt lat="43.79917494000866" lon="12.619016639222533"><ele>120.0</ele><time>2026-04-25T08:45:43Z</time></trkpt><trkpt lat="43.799055892786896" lon="12.61902812073854"><ele>119.6</ele><time>2026-04-25T08:45:44Z</time></trkpt><trkpt lat="43.798938669092585" lon="12.619037569417282"><ele>119.2</ele><time>2026-04-25T08:45:45Z</time></trkpt><trkpt lat="43.798832692345655" lon="12.619043670001034"><ele>118.80000000000001</ele><time>2026-04-25T08:45:46Z</time></trkpt><trkpt lat="43.79873367518535" lon="12.619053096273234"><ele>118.4</ele><time>2026-04-25T08:45:47Z</time></trkpt><trkpt lat="43.798647204877255" lon="12.619062260928692"><ele>118.0</ele><time>2026-04-25T08:45:48Z</time></trkpt><trkpt lat="43.79857790378056" lon="12.619071773734355"><ele>117.66666666666667</ele><time>2026-04-25T08:45:49Z</time></trkpt><trkpt lat="43.79848108798153" lon="12.619084674845974"><ele>117.33333333333334</ele><time>2026-04-25T08:45:51Z</time></trkpt><trkpt lat="43.79841124494532" lon="12.61907130708046"><ele>117.0</ele><time>2026-04-25T08:46:36Z</time></trkpt><trkpt lat="43.79831048197799" lon="12.61903263353507"><ele>116.66666666666666</ele><time>2026-04-25T08:46:38Z</time></trkpt><trkpt lat="43.79824051714043" lon="12.61899453759145"><ele>116.33333333333333</ele><time>2026-04-25T08:46:39Z</time></trkpt><trkpt lat="43.79816271194245" lon="12.618954040509976"><ele>116.0</ele><time>2026-04-25T08:46:40Z</time></trkpt><trkpt lat="43.79808529264949" lon="12.618911674159124"><ele>116.0</ele><time>2026-04-25T08:46:41Z</time></trkpt><trkpt lat="43.79800794441269" lon="12.618870407811135"><ele>116.0</ele><time>2026-04-25T08:46:42Z</time></trkpt><trkpt lat="43.79791803537231" lon="12.618826958276655"><ele>116.0</ele><time>2026-04-25T08:46:43Z</time></trkpt><trkpt lat="43.797824913675136" lon="12.618780412870906"><ele>116.0</ele><time>2026-04-25T08:46:44Z</time></trkpt><trkpt lat="43.79772670765356" lon="12.618736793736447"><ele>116.0</ele><time>2026-04-25T08:46:45Z</time></trkpt><trkpt lat="43.79762165466426" lon="12.618697158169786"><ele>115.4</ele><time>2026-04-25T08:46:46Z</time></trkpt><trkpt lat="43.79751366149196" lon="12.618666608844466"><ele>114.8</ele><time>2026-04-25T08:46:47Z</time></trkpt><trkpt lat="43.79740410042611" lon="12.61864796115784"><ele>114.20000000000002</ele><time>2026-04-25T08:46:48Z</time></trkpt><trkpt lat="43.797297073031885" lon="12.618638797988543"><ele>113.60000000000001</ele><time>2026-04-25T08:46:49Z</time></trkpt><trkpt lat="43.79719487287082" lon="12.618635905286682"><ele>113.0</ele><time>2026-04-25T08:46:50Z</time></trkpt><trkpt lat="43.79709555339719" lon="12.618636285868877"><ele>113.0</ele><time>2026-04-25T08:46:51Z</time></trkpt><trkpt lat="43.79698589311512" lon="12.618630576099944"><ele>113.0</ele><time>2026-04-25T08:46:52Z</time></trkpt><trkpt lat="43.79687253524684" lon="12.618632032558422"><ele>113.0</ele><time>2026-04-25T08:46:53Z</time></trkpt><trkpt lat="43.796752293928265" lon="12.618637707241325"><ele>113.0</ele><time>2026-04-25T08:46:54Z</time></trkpt><trkpt lat="43.79663137877099" lon="12.618641058568528"><ele>112.25</ele><time>2026-04-25T08:46:55Z</time></trkpt><trkpt lat="43.79650290128" lon="12.61864354208344"><ele>111.5</ele><time>2026-04-25T08:46:56Z</time></trkpt><trkpt lat="43.796376570008555" lon="12.618651011367605"><ele>110.75</ele><time>2026-04-25T08:46:57Z</time></trkpt><trkpt lat="43.79624856625533" lon="12.618659048286366"><ele>110.0</ele><time>2026-04-25T08:46:58Z</time></trkpt><trkpt lat="43.79611943668954" lon="12.618666887142581"><ele>109.25</ele><time>2026-04-25T08:46:59Z</time></trkpt><trkpt lat="43.79599053294837" lon="12.61867374128624"><ele>108.5</ele><time>2026-04-25T08:47:00Z</time></trkpt><trkpt lat="43.7958613625491" lon="12.618684930550272"><ele>107.75</ele><time>2026-04-25T08:47:01Z</time></trkpt><trkpt lat="43.79572974670963" lon="12.618695456557921"><ele>107.0</ele><time>2026-04-25T08:47:02Z</time></trkpt><trkpt lat="43.795594288477915" lon="12.618701763829607"><ele>107.0</ele><time>2026-04-25T08:47:03Z</time></trkpt><trkpt lat="43.795455885064364" lon="12.618706507358839"><ele>107.0</ele><time>2026-04-25T08:47:04Z</time></trkpt><trkpt lat="43.79531350379377" lon="12.61871125737585"><ele>107.0</ele><time>2026-04-25T08:47:05Z</time></trkpt><trkpt lat="43.795171016265996" lon="12.618721311775188"><ele>107.0</ele><time>2026-04-25T08:47:06Z</time></trkpt><trkpt lat="43.79502629434382" lon="12.61873526721071"><ele>106.75</ele><time>2026-04-25T08:47:07Z</time></trkpt><trkpt lat="43.7948809976918" lon="12.61875029650653"><ele>106.5</ele><time>2026-04-25T08:47:08Z</time></trkpt><trkpt lat="43.79473616558032" lon="12.61876751551365"><ele>106.25</ele><time>2026-04-25T08:47:09Z</time></trkpt><trkpt lat="43.79459091956048" lon="12.618777878765382"><ele>106.0</ele><time>2026-04-25T08:47:10Z</time></trkpt><trkpt lat="43.794445705513695" lon="12.61878894015391"><ele>105.75</ele><time>2026-04-25T08:47:11Z</time></trkpt><trkpt lat="43.79430258756473" lon="12.618795694021044"><ele>105.5</ele><time>2026-04-25T08:47:12Z</time></trkpt><trkpt lat="43.794159786281405" lon="12.6187995633314"><ele>105.25</ele><time>2026-04-25T08:47:13Z</time></trkpt><trkpt lat="43.79401882383154" lon="12.618811208207243"><ele>105.0</ele><time>2026-04-25T08:47:14Z</time></trkpt><trkpt lat="43.79388747942202" lon="12.618816989784957"><ele>105.0</ele><time>2026-04-25T08:47:15Z</time></trkpt><trkpt lat="43.79376807138587" lon="12.618818571502928"><ele>105.0</ele><time>2026-04-25T08:47:16Z</time></trkpt><trkpt lat="43.79366007060099" lon="12.618813560257097"><ele>105.0</ele><time>2026-04-25T08:47:17Z</time></trkpt><trkpt lat="43.793561253113836" lon="12.61879889283316"><ele>105.0</ele><time>2026-04-25T08:47:18Z</time></trkpt><trkpt lat="43.79347176839955" lon="12.61875816235039"><ele>105.0</ele><time>2026-04-25T08:47:19Z</time></trkpt><trkpt lat="43.793382219127665" lon="12.618703691175597"><ele>107.4</ele><time>2026-04-25T08:47:20Z</time></trkpt><trkpt lat="43.793292330262275" lon="12.61864741262522"><ele>109.8</ele><time>2026-04-25T08:47:21Z</time></trkpt><trkpt lat="43.79320122123598" lon="12.618605470648244"><ele>112.19999999999999</ele><time>2026-04-25T08:47:22Z</time></trkpt><trkpt lat="43.79310788779722" lon="12.61858488707188"><ele>114.6</ele><time>2026-04-25T08:47:23Z</time></trkpt><trkpt lat="43.79301910074503" lon="12.61860002559542"><ele>117.0</ele><time>2026-04-25T08:47:24Z</time></trkpt><trkpt lat="43.79293221494869" lon="12.618645144763505"><ele>116.39999999999999</ele><time>2026-04-25T08:47:25Z</time></trkpt><trkpt lat="43.792850297059864" lon="12.618712955536095"><ele>115.79999999999998</ele><time>2026-04-25T08:47:26Z</time></trkpt><trkpt lat="43.79276855615272" lon="12.618792606198856"><ele>115.2</ele><time>2026-04-25T08:47:27Z</time></trkpt><trkpt lat="43.79267953246814" lon="12.618863906975992"><ele>114.6</ele><time>2026-04-25T08:47:28Z</time></trkpt><trkpt lat="43.7925946254631" lon="12.618932766310852"><ele>114.0</ele><time>2026-04-25T08:47:29Z</time></trkpt><trkpt lat="43.79251635639489" lon="12.618967492507021"><ele>114.0</ele><time>2026-04-25T08:47:30Z</time></trkpt><trkpt lat="43.7924426439025" lon="12.618922687102026"><ele>114.0</ele><time>2026-04-25T08:47:31Z</time></trkpt><trkpt lat="43.79239961365784" lon="12.618775809300164"><ele>114.0</ele><time>2026-04-25T08:47:33Z</time></trkpt><trkpt lat="43.79247128362083" lon="12.618689810899701"><ele>114.0</ele><time>2026-04-25T08:47:34Z</time></trkpt><trkpt lat="43.7925423677442" lon="12.618642546101418"><ele>114.0</ele><time>2026-04-25T08:47:35Z</time></trkpt><trkpt lat="43.792612645505564" lon="12.61857343167184"><ele>114.6</ele><time>2026-04-25T08:47:36Z</time></trkpt><trkpt lat="43.7926844049342" lon="12.6184985748546"><ele>115.2</ele><time>2026-04-25T08:47:37Z</time></trkpt><trkpt lat="43.79274337529093" lon="12.61840231288661"><ele>115.79999999999998</ele><time>2026-04-25T08:47:38Z</time></trkpt><trkpt lat="43.79278139869019" lon="12.61829509860327"><ele>116.39999999999999</ele><time>2026-04-25T08:47:39Z</time></trkpt><trkpt lat="43.79278641132957" lon="12.618174027681192"><ele>117.0</ele><time>2026-04-25T08:47:40Z</time></trkpt><trkpt lat="43.792759591082635" lon="12.618042163789296"><ele>117.0</ele><time>2026-04-25T08:47:41Z</time></trkpt><trkpt lat="43.79271405216951" lon="12.61791118406841"><ele>117.0</ele><time>2026-04-25T08:47:42Z</time></trkpt><trkpt lat="43.79266411206541" lon="12.61777276739246"><ele>117.0</ele><time>2026-04-25T08:47:43Z</time></trkpt><trkpt lat="43.79261259104571" lon="12.61762563517915"><ele>117.0</ele><time>2026-04-25T08:47:44Z</time></trkpt><trkpt lat="43.79255629177811" lon="12.617478707681466"><ele>118.6</ele><time>2026-04-25T08:47:45Z</time></trkpt><trkpt lat="43.792504014109305" lon="12.61733307232274"><ele>120.19999999999999</ele><time>2026-04-25T08:47:46Z</time></trkpt><trkpt lat="43.79247960089389" lon="12.617200644962923"><ele>121.8</ele><time>2026-04-25T08:47:47Z</time></trkpt><trkpt lat="43.7924656667134" lon="12.617069755865955"><ele>123.4</ele><time>2026-04-25T08:47:48Z</time></trkpt><trkpt lat="43.79246495008552" lon="12.616940894076366"><ele>125.0</ele><time>2026-04-25T08:47:49Z</time></trkpt><trkpt lat="43.79248449948134" lon="12.61679573993686"><ele>125.0</ele><time>2026-04-25T08:47:50Z</time></trkpt><trkpt lat="43.7925161195748" lon="12.616636787863241"><ele>125.0</ele><time>2026-04-25T08:47:51Z</time></trkpt><trkpt lat="43.79255969052617" lon="12.616474053124346"><ele>125.0</ele><time>2026-04-25T08:47:52Z</time></trkpt><trkpt lat="43.79261439794506" lon="12.616344812656266"><ele>125.0</ele><time>2026-04-25T08:47:53Z</time></trkpt><trkpt lat="43.792677039188014" lon="12.616244596832594"><ele>125.0</ele><time>2026-04-25T08:47:54Z</time></trkpt><trkpt lat="43.79275202190453" lon="12.61616636106625"><ele>126.0</ele><time>2026-04-25T08:47:55Z</time></trkpt><trkpt lat="43.79284054525648" lon="12.616085083191734"><ele>127.0</ele><time>2026-04-25T08:47:56Z</time></trkpt><trkpt lat="43.79294247927238" lon="12.616032646706332"><ele>128.0</ele><time>2026-04-25T08:47:57Z</time></trkpt><trkpt lat="43.793052662993205" lon="12.615969068462757"><ele>129.0</ele><time>2026-04-25T08:47:58Z</time></trkpt><trkpt lat="43.79315571324602" lon="12.615895752465704"><ele>129.0</ele><time>2026-04-25T08:47:59Z</time></trkpt><trkpt lat="43.793247968484835" lon="12.615788477679924"><ele>129.0</ele><time>2026-04-25T08:48:00Z</time></trkpt><trkpt lat="43.79333909982938" lon="12.615682541564897"><ele>129.0</ele><time>2026-04-25T08:48:01Z</time></trkpt><trkpt lat="43.79342162255247" lon="12.615554981474439"><ele>129.0</ele><time>2026-04-25T08:48:02Z</time></trkpt><trkpt lat="43.793499470686925" lon="12.615425531168055"><ele>126.5</ele><time>2026-04-25T08:48:03Z</time></trkpt><trkpt lat="43.7935737153971" lon="12.615284421397076"><ele>124.0</ele><time>2026-04-25T08:48:04Z</time></trkpt><trkpt lat="43.79364682782277" lon="12.615131471490443"><ele>121.5</ele><time>2026-04-25T08:48:05Z</time></trkpt><trkpt lat="43.79371174106634" lon="12.614964548124526"><ele>119.0</ele><time>2026-04-25T08:48:06Z</time></trkpt><trkpt lat="43.79376830396815" lon="12.61478840059202"><ele>119.0</ele><time>2026-04-25T08:48:07Z</time></trkpt><trkpt lat="43.79381694294999" lon="12.614601348274693"><ele>119.0</ele><time>2026-04-25T08:48:08Z</time></trkpt><trkpt lat="43.793862119196994" lon="12.614413954772692"><ele>119.0</ele><time>2026-04-25T08:48:09Z</time></trkpt><trkpt lat="43.79390806600361" lon="12.614226774340498"><ele>119.0</ele><time>2026-04-25T08:48:10Z</time></trkpt><trkpt lat="43.79395502850462" lon="12.614041207114111"><ele>120.25</ele><time>2026-04-25T08:48:11Z</time></trkpt><trkpt lat="43.79399891459333" lon="12.613847029464697"><ele>121.5</ele><time>2026-04-25T08:48:12Z</time></trkpt><trkpt lat="43.7940638759951" lon="12.613660833418116"><ele>122.75</ele><time>2026-04-25T08:48:13Z</time></trkpt><trkpt lat="43.794113484968456" lon="12.613472092580045"><ele>124.0</ele><time>2026-04-25T08:48:14Z</time></trkpt><trkpt lat="43.79416213871679" lon="12.613281577789838"><ele>125.75</ele><time>2026-04-25T08:48:15Z</time></trkpt><trkpt lat="43.794207228421854" lon="12.613103210338624"><ele>127.5</ele><time>2026-04-25T08:48:16Z</time></trkpt><trkpt lat="43.794247049029465" lon="12.612945686318305"><ele>129.25</ele><time>2026-04-25T08:48:17Z</time></trkpt><trkpt lat="43.79427970277443" lon="12.612800951877292"><ele>131.0</ele><time>2026-04-25T08:48:18Z</time></trkpt><trkpt lat="43.79429390303603" lon="12.612662405487432"><ele>130.83333333333331</ele><time>2026-04-25T08:48:19Z</time></trkpt><trkpt lat="43.79432177202018" lon="12.612543338368527"><ele>130.66666666666666</ele><time>2026-04-25T08:48:20Z</time></trkpt><trkpt lat="43.79435358304593" lon="12.612445994742645"><ele>130.5</ele><time>2026-04-25T08:48:21Z</time></trkpt><trkpt lat="43.79440938407454" lon="12.612380420283655"><ele>130.33333333333334</ele><time>2026-04-25T08:48:22Z</time></trkpt><trkpt lat="43.794458123706605" lon="12.612299326693755"><ele>130.16666666666669</ele><time>2026-04-25T08:48:23Z</time></trkpt><trkpt lat="43.79450139627472" lon="12.61221465894354"><ele>130.0</ele><time>2026-04-25T08:48:24Z</time></trkpt><trkpt lat="43.79454324262419" lon="12.612132781194687"><ele>130.0</ele><time>2026-04-25T08:48:25Z</time></trkpt><trkpt lat="43.79458804298139" lon="12.612046339389762"><ele>130.0</ele><time>2026-04-25T08:48:26Z</time></trkpt><trkpt lat="43.79462980276509" lon="12.611950022893966"><ele>130.0</ele><time>2026-04-25T08:48:27Z</time></trkpt><trkpt lat="43.79467586193522" lon="12.611860021730772"><ele>130.0</ele><time>2026-04-25T08:48:28Z</time></trkpt><trkpt lat="43.79472495607615" lon="12.611771456973566"><ele>130.0</ele><time>2026-04-25T08:48:29Z</time></trkpt><trkpt lat="43.794772104591836" lon="12.611686000696283"><ele>130.0</ele><time>2026-04-25T08:48:30Z</time></trkpt><trkpt lat="43.794819700324126" lon="12.61160286559426"><ele>130.33333333333334</ele><time>2026-04-25T08:48:31Z</time></trkpt><trkpt lat="43.794861975822464" lon="12.611531641066227"><ele>130.66666666666669</ele><time>2026-04-25T08:48:32Z</time></trkpt><trkpt lat="43.79490706172475" lon="12.611460302495583"><ele>131.0</ele><time>2026-04-25T08:48:33Z</time></trkpt><trkpt lat="43.79495586041225" lon="12.611386988912454"><ele>131.33333333333334</ele><time>2026-04-25T08:48:34Z</time></trkpt><trkpt lat="43.795010615331" lon="12.611310242297797"><ele>131.66666666666666</ele><time>2026-04-25T08:48:35Z</time></trkpt><trkpt lat="43.79507578590912" lon="12.611228941047909"><ele>132.0</ele><time>2026-04-25T08:48:36Z</time></trkpt><trkpt lat="43.79514650861741" lon="12.611135925304787"><ele>130.79999999999998</ele><time>2026-04-25T08:48:37Z</time></trkpt><trkpt lat="43.795223011353244" lon="12.611042462846997"><ele>129.6</ele><time>2026-04-25T08:48:38Z</time></trkpt><trkpt lat="43.795289224797344" lon="12.610969888156248"><ele>128.39999999999998</ele><time>2026-04-25T08:48:39Z</time></trkpt><trkpt lat="43.795365657529615" lon="12.610896894764855"><ele>127.19999999999999</ele><time>2026-04-25T08:48:40Z</time></trkpt><trkpt lat="43.7954463192092" lon="12.610819166648138"><ele>126.0</ele><time>2026-04-25T08:48:41Z</time></trkpt><trkpt lat="43.7955342363157" lon="12.610729403524878"><ele>126.0</ele><time>2026-04-25T08:48:42Z</time></trkpt><trkpt lat="43.79563906268539" lon="12.610624374027594"><ele>126.0</ele><time>2026-04-25T08:48:43Z</time></trkpt><trkpt lat="43.79575357016058" lon="12.61054116596178"><ele>126.0</ele><time>2026-04-25T08:48:44Z</time></trkpt><trkpt lat="43.79583667349107" lon="12.61043702300218"><ele>126.0</ele><time>2026-04-25T08:48:45Z</time></trkpt><trkpt lat="43.79591121299678" lon="12.61034931516672"><ele>126.33333333333333</ele><time>2026-04-25T08:48:46Z</time></trkpt><trkpt lat="43.79597426664854" lon="12.61026859468019"><ele>126.66666666666666</ele><time>2026-04-25T08:48:47Z</time></trkpt><trkpt lat="43.796027914049226" lon="12.610192676031529"><ele>127.0</ele><time>2026-04-25T08:48:48Z</time></trkpt><trkpt lat="43.796087351565994" lon="12.610132615302245"><ele>127.33333333333333</ele><time>2026-04-25T08:48:49Z</time></trkpt><trkpt lat="43.79613684189494" lon="12.610063125708992"><ele>127.66666666666666</ele><time>2026-04-25T08:48:50Z</time></trkpt><trkpt lat="43.79618786956191" lon="12.609978475980862"><ele>128.0</ele><time>2026-04-25T08:48:51Z</time></trkpt><trkpt lat="43.79626090512808" lon="12.609934441806363"><ele>128.33333333333331</ele><time>2026-04-25T08:48:52Z</time></trkpt><trkpt lat="43.796336349346376" lon="12.609956273966406"><ele>128.66666666666666</ele><time>2026-04-25T08:48:53Z</time></trkpt><trkpt lat="43.7964133207327" lon="12.609956933314018"><ele>129.0</ele><time>2026-04-25T08:48:54Z</time></trkpt><trkpt lat="43.79649311323946" lon="12.609959867804935"><ele>129.33333333333334</ele><time>2026-04-25T08:48:55Z</time></trkpt><trkpt lat="43.796579714791285" lon="12.609965188409255"><ele>129.66666666666669</ele><time>2026-04-25T08:48:56Z</time></trkpt><trkpt lat="43.79666185492911" lon="12.609957005596765"><ele>130.0</ele><time>2026-04-25T08:48:57Z</time></trkpt><trkpt lat="43.79674106753478" lon="12.609970181623767"><ele>130.0</ele><time>2026-04-25T08:48:58Z</time></trkpt><trkpt lat="43.79681684961635" lon="12.609970412998672"><ele>130.0</ele><time>2026-04-25T08:48:59Z</time></trkpt><trkpt lat="43.796887481831064" lon="12.609933175117991"><ele>130.0</ele><time>2026-04-25T08:49:00Z</time></trkpt><trkpt lat="43.79696635595517" lon="12.609880694094175"><ele>130.0</ele><time>2026-04-25T08:49:01Z</time></trkpt><trkpt lat="43.7970581666612" lon="12.609837922661832"><ele>130.0</ele><time>2026-04-25T08:49:02Z</time></trkpt><trkpt lat="43.7971491073953" lon="12.609802610042394"><ele>130.0</ele><time>2026-04-25T08:49:03Z</time></trkpt><trkpt lat="43.79723184621016" lon="12.609736237865818"><ele>129.2</ele><time>2026-04-25T08:49:04Z</time></trkpt><trkpt lat="43.79731422292494" lon="12.609653245096968"><ele>128.4</ele><time>2026-04-25T08:49:05Z</time></trkpt><trkpt lat="43.79738836377721" lon="12.609564245613017"><ele>127.6</ele><time>2026-04-25T08:49:06Z</time></trkpt><trkpt lat="43.79745376236871" lon="12.609461253197878"><ele>126.8</ele><time>2026-04-25T08:49:07Z</time></trkpt><trkpt lat="43.79750898599035" lon="12.609354913641448"><ele>126.0</ele><time>2026-04-25T08:49:08Z</time></trkpt><trkpt lat="43.797544287465534" lon="12.609264532423492"><ele>127.5</ele><time>2026-04-25T08:49:09Z</time></trkpt><trkpt lat="43.79757567521982" lon="12.609181115817272"><ele>129.0</ele><time>2026-04-25T08:49:10Z</time></trkpt><trkpt lat="43.79760031459943" lon="12.609070848217216"><ele>130.5</ele><time>2026-04-25T08:49:11Z</time></trkpt><trkpt lat="43.79764888024675" lon="12.608959253590156"><ele>132.0</ele><time>2026-04-25T08:49:12Z</time></trkpt><trkpt lat="43.79768494342635" lon="12.608831550974601"><ele>133.5</ele><time>2026-04-25T08:49:13Z</time></trkpt><trkpt lat="43.797722818324964" lon="12.608698042825992"><ele>135.0</ele><time>2026-04-25T08:49:14Z</time></trkpt><trkpt lat="43.79774884051025" lon="12.60855296352701"><ele>138.0</ele><time>2026-04-25T08:49:15Z</time></trkpt><trkpt lat="43.79780842123349" lon="12.60841673771877"><ele>141.0</ele><time>2026-04-25T08:49:16Z</time></trkpt><trkpt lat="43.797859670355955" lon="12.608276723488219"><ele>144.0</ele><time>2026-04-25T08:49:17Z</time></trkpt><trkpt lat="43.797916173281905" lon="12.608147645440434"><ele>147.0</ele><time>2026-04-25T08:49:18Z</time></trkpt><trkpt lat="43.79797372094593" lon="12.608030273646905"><ele>150.0</ele><time>2026-04-25T08:49:19Z</time></trkpt><trkpt lat="43.79803623956381" lon="12.607921382479242"><ele>150.5</ele><time>2026-04-25T08:49:20Z</time></trkpt><trkpt lat="43.79810522363765" lon="12.60778035118927"><ele>151.0</ele><time>2026-04-25T08:49:21Z</time></trkpt><trkpt lat="43.798189609725235" lon="12.607655025694708"><ele>151.5</ele><time>2026-04-25T08:49:22Z</time></trkpt><trkpt lat="43.7983032785113" lon="12.607545787459806"><ele>152.0</ele><time>2026-04-25T08:49:23Z</time></trkpt><trkpt lat="43.79841332179605" lon="12.607427334854206"><ele>152.75</ele><time>2026-04-25T08:49:24Z</time></trkpt><trkpt lat="43.79852651482984" lon="12.607297065893505"><ele>153.5</ele><time>2026-04-25T08:49:25Z</time></trkpt><trkpt lat="43.79864380886959" lon="12.607211744842923"><ele>154.25</ele><time>2026-04-25T08:49:26Z</time></trkpt><trkpt lat="43.79876927288306" lon="12.607119753899434"><ele>155.0</ele><time>2026-04-25T08:49:27Z</time></trkpt><trkpt lat="43.79888897693486" lon="12.607022077887294"><ele>156.2</ele><time>2026-04-25T08:49:28Z</time></trkpt><trkpt lat="43.7989835951449" lon="12.606933801649404"><ele>157.4</ele><time>2026-04-25T08:49:29Z</time></trkpt><trkpt lat="43.7990550438625" lon="12.606846929470647"><ele>158.60000000000002</ele><time>2026-04-25T08:49:30Z</time></trkpt><trkpt lat="43.7991168832848" lon="12.606741410201764"><ele>159.8</ele><time>2026-04-25T08:49:31Z</time></trkpt><trkpt lat="43.79917213313911" lon="12.606598052511478"><ele>161.0</ele><time>2026-04-25T08:49:32Z</time></trkpt><trkpt lat="43.799217862437274" lon="12.606428123105802"><ele>161.0</ele><time>2026-04-25T08:49:33Z</time></trkpt><trkpt lat="43.79925290830278" lon="12.606243109112551"><ele>161.0</ele><time>2026-04-25T08:49:34Z</time></trkpt><trkpt lat="43.799297360485156" lon="12.6060743830823"><ele>161.0</ele><time>2026-04-25T08:49:35Z</time></trkpt><trkpt lat="43.7993614226514" lon="12.605931128206155"><ele>161.0</ele><time>2026-04-25T08:49:36Z</time></trkpt><trkpt lat="43.79941935348577" lon="12.605763616874809"><ele>161.25</ele><time>2026-04-25T08:49:37Z</time></trkpt><trkpt lat="43.79947739808095" lon="12.605589349447714"><ele>161.5</ele><time>2026-04-25T08:49:38Z</time></trkpt><trkpt lat="43.79953271498859" lon="12.605430781263474"><ele>161.75</ele><time>2026-04-25T08:49:39Z</time></trkpt><trkpt lat="43.79958935032391" lon="12.605302562768848"><ele>162.0</ele><time>2026-04-25T08:49:40Z</time></trkpt><trkpt lat="43.79964881125479" lon="12.605191294414674"><ele>162.0</ele><time>2026-04-25T08:49:41Z</time></trkpt><trkpt lat="43.799717221476506" lon="12.605082780882094"><ele>162.0</ele><time>2026-04-25T08:49:42Z</time></trkpt><trkpt lat="43.79979723221374" lon="12.604979772571655"><ele>162.0</ele><time>2026-04-25T08:49:43Z</time></trkpt><trkpt lat="43.799888609014836" lon="12.60486586105749"><ele>162.0</ele><time>2026-04-25T08:49:44Z</time></trkpt><trkpt lat="43.79998564576846" lon="12.60474543948235"><ele>162.0</ele><time>2026-04-25T08:49:45Z</time></trkpt><trkpt lat="43.80008684425629" lon="12.604624458941982"><ele>162.0</ele><time>2026-04-25T08:49:46Z</time></trkpt><trkpt lat="43.800184157201144" lon="12.604516098988203"><ele>162.0</ele><time>2026-04-25T08:49:47Z</time></trkpt><trkpt lat="43.800277157464606" lon="12.60440676426499"><ele>162.0</ele><time>2026-04-25T08:49:48Z</time></trkpt><trkpt lat="43.80037624785678" lon="12.604276035431784"><ele>160.33333333333334</ele><time>2026-04-25T08:49:49Z</time></trkpt><trkpt lat="43.800477408857375" lon="12.604133515169028"><ele>158.66666666666669</ele><time>2026-04-25T08:49:50Z</time></trkpt><trkpt lat="43.80057586723725" lon="12.603956017552793"><ele>157.0</ele><time>2026-04-25T08:49:51Z</time></trkpt><trkpt lat="43.800707920200935" lon="12.603783686561318"><ele>158.66666666666669</ele><time>2026-04-25T08:49:52Z</time></trkpt><trkpt lat="43.800834976173014" lon="12.603582311434108"><ele>160.33333333333334</ele><time>2026-04-25T08:49:53Z</time></trkpt><trkpt lat="43.80094215525656" lon="12.603400304447655"><ele>162.0</ele><time>2026-04-25T08:49:54Z</time></trkpt><trkpt lat="43.801033765472766" lon="12.603221582137754"><ele>162.0</ele><time>2026-04-25T08:49:55Z</time></trkpt><trkpt lat="43.801102588590226" lon="12.603045872217466"><ele>162.0</ele><time>2026-04-25T08:49:56Z</time></trkpt><trkpt lat="43.80113724698254" lon="12.602865789882102"><ele>162.0</ele><time>2026-04-25T08:49:57Z</time></trkpt><trkpt lat="43.80115214551784" lon="12.60270758999857"><ele>162.0</ele><time>2026-04-25T08:49:58Z</time></trkpt><trkpt lat="43.80113790149093" lon="12.60254223396288"><ele>165.75</ele><time>2026-04-25T08:49:59Z</time></trkpt><trkpt lat="43.80110197715014" lon="12.602370775943566"><ele>169.5</ele><time>2026-04-25T08:50:00Z</time></trkpt><trkpt lat="43.801050816631566" lon="12.602181261232909"><ele>173.25</ele><time>2026-04-25T08:50:01Z</time></trkpt><trkpt lat="43.80100222293992" lon="12.602006650168908"><ele>177.0</ele><time>2026-04-25T08:50:02Z</time></trkpt><trkpt lat="43.80099746662916" lon="12.601867102280178"><ele>177.0</ele><time>2026-04-25T08:50:03Z</time></trkpt><trkpt lat="43.80097433805119" lon="12.60176028831119"><ele>177.0</ele><time>2026-04-25T08:50:04Z</time></trkpt><trkpt lat="43.801053797050386" lon="12.601711332676965"><ele>177.0</ele><time>2026-04-25T08:50:05Z</time></trkpt><trkpt lat="43.80110148416651" lon="12.60163769680606"><ele>177.0</ele><time>2026-04-25T08:50:06Z</time></trkpt><trkpt lat="43.801214911651215" lon="12.601552543547015"><ele>177.0</ele><time>2026-04-25T08:50:08Z</time></trkpt><trkpt lat="43.80130470815437" lon="12.601478915254841"><ele>180.0</ele><time>2026-04-25T08:50:09Z</time></trkpt><trkpt lat="43.80138785052305" lon="12.60138884100584"><ele>183.0</ele><time>2026-04-25T08:50:10Z</time></trkpt><trkpt lat="43.80142136498121" lon="12.601246046257078"><ele>186.0</ele><time>2026-04-25T08:50:11Z</time></trkpt><trkpt lat="43.80146185854023" lon="12.601119161253196"><ele>189.0</ele><time>2026-04-25T08:50:12Z</time></trkpt><trkpt lat="43.80149321643343" lon="12.600966526435116"><ele>192.0</ele><time>2026-04-25T08:50:13Z</time></trkpt><trkpt lat="43.801531577323836" lon="12.600849166052004"><ele>192.39999999999998</ele><time>2026-04-25T08:50:14Z</time></trkpt><trkpt lat="43.80161600414714" lon="12.600763548562751"><ele>192.79999999999998</ele><time>2026-04-25T08:50:15Z</time></trkpt><trkpt lat="43.801689194388786" lon="12.600701168584973"><ele>193.2</ele><time>2026-04-25T08:50:16Z</time></trkpt><trkpt lat="43.80178356112875" lon="12.600652556608113"><ele>193.6</ele><time>2026-04-25T08:50:17Z</time></trkpt><trkpt lat="43.80190123866143" lon="12.600604769800292"><ele>194.0</ele><time>2026-04-25T08:50:18Z</time></trkpt><trkpt lat="43.80203943801754" lon="12.6005559604922"><ele>199.66666666666669</ele><time>2026-04-25T08:50:19Z</time></trkpt><trkpt lat="43.80220619438152" lon="12.600497330104318"><ele>205.33333333333331</ele><time>2026-04-25T08:50:20Z</time></trkpt><trkpt lat="43.80237369036552" lon="12.600434157214641"><ele>211.0</ele><time>2026-04-25T08:50:21Z</time></trkpt><trkpt lat="43.80253154639531" lon="12.600370218640508"><ele>212.0</ele><time>2026-04-25T08:50:22Z</time></trkpt><trkpt lat="43.80267668371861" lon="12.60028420820664"><ele>213.0</ele><time>2026-04-25T08:50:23Z</time></trkpt><trkpt lat="43.80281305712471" lon="12.600183416622835"><ele>214.0</ele><time>2026-04-25T08:50:24Z</time></trkpt><trkpt lat="43.802953758421296" lon="12.60006404559294"><ele>214.0</ele><time>2026-04-25T08:50:25Z</time></trkpt><trkpt lat="43.80308169022923" lon="12.59993572322337"><ele>214.0</ele><time>2026-04-25T08:50:26Z</time></trkpt><trkpt lat="43.80317188757903" lon="12.599836157807534"><ele>214.0</ele><time>2026-04-25T08:50:27Z</time></trkpt><trkpt lat="43.803290738550636" lon="12.599757785653768"><ele>214.0</ele><time>2026-04-25T08:50:28Z</time></trkpt><trkpt lat="43.80342270931037" lon="12.59964237845661"><ele>212.0</ele><time>2026-04-25T08:50:29Z</time></trkpt><trkpt lat="43.803550870657475" lon="12.599528945660815"><ele>210.0</ele><time>2026-04-25T08:50:30Z</time></trkpt><trkpt lat="43.803678688862966" lon="12.599363921131955"><ele>208.0</ele><time>2026-04-25T08:50:31Z</time></trkpt><trkpt lat="43.80380061937714" lon="12.599162101325147"><ele>208.0</ele><time>2026-04-25T08:50:32Z</time></trkpt><trkpt lat="43.80392574336842" lon="12.598930124983637"><ele>208.0</ele><time>2026-04-25T08:50:33Z</time></trkpt><trkpt lat="43.80406210114164" lon="12.598686860690439"><ele>208.0</ele><time>2026-04-25T08:50:34Z</time></trkpt><trkpt lat="43.80417791758738" lon="12.598461633573898"><ele>207.33333333333331</ele><time>2026-04-25T08:50:35Z</time></trkpt><trkpt lat="43.804282464412" lon="12.598260817783268"><ele>206.66666666666669</ele><time>2026-04-25T08:50:36Z</time></trkpt><trkpt lat="43.80436939757703" lon="12.598072967834527"><ele>206.0</ele><time>2026-04-25T08:50:37Z</time></trkpt><trkpt lat="43.80443028474691" lon="12.597880906659759"><ele>200.66666666666669</ele><time>2026-04-25T08:50:38Z</time></trkpt><trkpt lat="43.804465574292294" lon="12.597676366171251"><ele>195.33333333333334</ele><time>2026-04-25T08:50:39Z</time></trkpt><trkpt lat="43.80448327575357" lon="12.597446977585154"><ele>190.0</ele><time>2026-04-25T08:50:40Z</time></trkpt><trkpt lat="43.80448984235754" lon="12.597186392316855"><ele>193.66666666666669</ele><time>2026-04-25T08:50:41Z</time></trkpt><trkpt lat="43.804494333528346" lon="12.5968741462877"><ele>197.33333333333334</ele><time>2026-04-25T08:50:42Z</time></trkpt><trkpt lat="43.80448648162866" lon="12.596592978363887"><ele>201.0</ele><time>2026-04-25T08:50:43Z</time></trkpt><trkpt lat="43.80447832867435" lon="12.596367159961495"><ele>201.0</ele><time>2026-04-25T08:50:44Z</time></trkpt><trkpt lat="43.80444331719691" lon="12.596207228940063"><ele>201.0</ele><time>2026-04-25T08:50:45Z</time></trkpt><trkpt lat="43.80445565168475" lon="12.596039703460313"><ele>201.0</ele><time>2026-04-25T08:50:46Z</time></trkpt><trkpt lat="43.80446746638196" lon="12.595894514776816"><ele>201.0</ele><time>2026-04-25T08:50:47Z</time></trkpt><trkpt lat="43.80450196966832" lon="12.595774773434652"><ele>201.0</ele><time>2026-04-25T08:50:48Z</time></trkpt><trkpt lat="43.804543166116844" lon="12.595683024269182"><ele>203.66666666666666</ele><time>2026-04-25T08:50:49Z</time></trkpt><trkpt lat="43.80461285549979" lon="12.59565946227379"><ele>206.33333333333331</ele><time>2026-04-25T08:50:50Z</time></trkpt><trkpt lat="43.80469295629073" lon="12.595631350686578"><ele>209.0</ele><time>2026-04-25T08:50:51Z</time></trkpt><trkpt lat="43.80478718094986" lon="12.595590843379167"><ele>211.66666666666666</ele><time>2026-04-25T08:50:52Z</time></trkpt><trkpt lat="43.80485648486218" lon="12.59553966556138"><ele>214.33333333333331</ele><time>2026-04-25T08:50:53Z</time></trkpt><trkpt lat="43.80491709937633" lon="12.595462012454943"><ele>217.0</ele><time>2026-04-25T08:50:54Z</time></trkpt><trkpt lat="43.80495066104824" lon="12.5953207531438"><ele>219.0</ele><time>2026-04-25T08:50:55Z</time></trkpt><trkpt lat="43.80500780923011" lon="12.595172427926235"><ele>221.0</ele><time>2026-04-25T08:50:56Z</time></trkpt><trkpt lat="43.80504936265632" lon="12.594952796596997"><ele>223.0</ele><time>2026-04-25T08:50:57Z</time></trkpt><trkpt lat="43.80508577217324" lon="12.594692115276136"><ele>222.25</ele><time>2026-04-25T08:50:58Z</time></trkpt><trkpt lat="43.80511028873822" lon="12.594442114378747"><ele>221.5</ele><time>2026-04-25T08:50:59Z</time></trkpt><trkpt lat="43.80512876619123" lon="12.594226984482026"><ele>220.75</ele><time>2026-04-25T08:51:00Z</time></trkpt><trkpt lat="43.80515437348025" lon="12.594081004964396"><ele>220.0</ele><time>2026-04-25T08:51:01Z</time></trkpt><trkpt lat="43.8051966051708" lon="12.593920634792383"><ele>219.5</ele><time>2026-04-25T08:51:02Z</time></trkpt><trkpt lat="43.8052493875549" lon="12.59377833412837"><ele>219.0</ele><time>2026-04-25T08:51:03Z</time></trkpt><trkpt lat="43.80531784082326" lon="12.593608828958914"><ele>218.5</ele><time>2026-04-25T08:51:04Z</time></trkpt><trkpt lat="43.80539441985574" lon="12.593417833573692"><ele>218.0</ele><time>2026-04-25T08:51:05Z</time></trkpt><trkpt lat="43.8054684485549" lon="12.59322241532966"><ele>218.0</ele><time>2026-04-25T08:51:06Z</time></trkpt><trkpt lat="43.80553655362833" lon="12.593001063297432"><ele>218.0</ele><time>2026-04-25T08:51:07Z</time></trkpt><trkpt lat="43.8055917999753" lon="12.592755515062771"><ele>218.0</ele><time>2026-04-25T08:51:08Z</time></trkpt><trkpt lat="43.805634550386635" lon="12.592482421766915"><ele>219.33333333333334</ele><time>2026-04-25T08:51:09Z</time></trkpt><trkpt lat="43.80567871573281" lon="12.592173904678903"><ele>220.66666666666669</ele><time>2026-04-25T08:51:10Z</time></trkpt><trkpt lat="43.80571158093912" lon="12.591887318675806"><ele>222.0</ele><time>2026-04-25T08:51:11Z</time></trkpt><trkpt lat="43.805736392890786" lon="12.59160052610742"><ele>222.0</ele><time>2026-04-25T08:51:12Z</time></trkpt><trkpt lat="43.80575683713478" lon="12.591296655622903"><ele>222.0</ele><time>2026-04-25T08:51:13Z</time></trkpt><trkpt lat="43.80576750845624" lon="12.590975245562818"><ele>222.0</ele><time>2026-04-25T08:51:14Z</time></trkpt><trkpt lat="43.80577026982268" lon="12.590619605767968"><ele>222.0</ele><time>2026-04-25T08:51:15Z</time></trkpt><trkpt lat="43.8057722277439" lon="12.590254223858448"><ele>222.33333333333331</ele><time>2026-04-25T08:51:16Z</time></trkpt><trkpt lat="43.805777964409224" lon="12.589935384081917"><ele>222.66666666666666</ele><time>2026-04-25T08:51:17Z</time></trkpt><trkpt lat="43.805785144327544" lon="12.589638467321317"><ele>223.0</ele><time>2026-04-25T08:51:18Z</time></trkpt><trkpt lat="43.80577919827659" lon="12.589373147103712"><ele>224.0</ele><time>2026-04-25T08:51:19Z</time></trkpt><trkpt lat="43.80575360716602" lon="12.589163267998455"><ele>225.0</ele><time>2026-04-25T08:51:20Z</time></trkpt><trkpt lat="43.80573150652208" lon="12.588967938530695"><ele>226.0</ele><time>2026-04-25T08:51:21Z</time></trkpt><trkpt lat="43.80569416884826" lon="12.588795262271226"><ele>227.0</ele><time>2026-04-25T08:51:22Z</time></trkpt><trkpt lat="43.80565300568842" lon="12.588603151591954"><ele>228.66666666666669</ele><time>2026-04-25T08:51:23Z</time></trkpt><trkpt lat="43.805619479784276" lon="12.588375486364923"><ele>230.33333333333331</ele><time>2026-04-25T08:51:24Z</time></trkpt><trkpt lat="43.80558356002264" lon="12.588151642343062"><ele>232.0</ele><time>2026-04-25T08:51:25Z</time></trkpt><trkpt lat="43.80556430558115" lon="12.587947232559987"><ele>234.0</ele><time>2026-04-25T08:51:26Z</time></trkpt><trkpt lat="43.8055603497704" lon="12.587778882654016"><ele>236.0</ele><time>2026-04-25T08:51:27Z</time></trkpt><trkpt lat="43.8055709248844" lon="12.587639296098134"><ele>238.0</ele><time>2026-04-25T08:51:28Z</time></trkpt><trkpt lat="43.80559134424415" lon="12.587526981875676"><ele>240.0</ele><time>2026-04-25T08:51:29Z</time></trkpt><trkpt lat="43.80566061641588" lon="12.58740758288417"><ele>242.0</ele><time>2026-04-25T08:51:30Z</time></trkpt><trkpt lat="43.805691856607446" lon="12.587259541657877"><ele>242.0</ele><time>2026-04-25T08:51:31Z</time></trkpt><trkpt lat="43.80571194392346" lon="12.587092479582685"><ele>242.0</ele><time>2026-04-25T08:51:32Z</time></trkpt><trkpt lat="43.805693280842405" lon="12.586967575786543"><ele>242.0</ele><time>2026-04-25T08:51:33Z</time></trkpt><trkpt lat="43.80565392627927" lon="12.586799892349278"><ele>242.0</ele><time>2026-04-25T08:51:34Z</time></trkpt><trkpt lat="43.80563268970385" lon="12.586615155245898"><ele>242.0</ele><time>2026-04-25T08:51:35Z</time></trkpt><trkpt lat="43.8056217946037" lon="12.586455760529095"><ele>242.0</ele><time>2026-04-25T08:51:36Z</time></trkpt><trkpt lat="43.80564492762462" lon="12.58631111916879"><ele>242.0</ele><time>2026-04-25T08:51:37Z</time></trkpt><trkpt lat="43.80571078396882" lon="12.586154726431031"><ele>242.0</ele><time>2026-04-25T08:51:38Z</time></trkpt><trkpt lat="43.80577670860995" lon="12.58595318796556"><ele>242.0</ele><time>2026-04-25T08:51:39Z</time></trkpt><trkpt lat="43.805848602959614" lon="12.58572848148465"><ele>242.0</ele><time>2026-04-25T08:51:40Z</time></trkpt><trkpt lat="43.80592072949437" lon="12.585503014434034"><ele>242.0</ele><time>2026-04-25T08:51:41Z</time></trkpt><trkpt lat="43.80599092367012" lon="12.58529436592501"><ele>237.0</ele><time>2026-04-25T08:51:42Z</time></trkpt><trkpt lat="43.80603269236391" lon="12.585086912958921"><ele>232.0</ele><time>2026-04-25T08:51:43Z</time></trkpt><trkpt lat="43.80607973524246" lon="12.584895587786013"><ele>227.0</ele><time>2026-04-25T08:51:44Z</time></trkpt><trkpt lat="43.80611116293006" lon="12.584699310122966"><ele>222.0</ele><time>2026-04-25T08:51:45Z</time></trkpt><trkpt lat="43.80612060013935" lon="12.584507925279246"><ele>221.75</ele><time>2026-04-25T08:51:46Z</time></trkpt><trkpt lat="43.80610074720333" lon="12.58434216153198"><ele>221.5</ele><time>2026-04-25T08:51:47Z</time></trkpt><trkpt lat="43.80607675432498" lon="12.58419134756453"><ele>221.25</ele><time>2026-04-25T08:51:48Z</time></trkpt><trkpt lat="43.80605175786933" lon="12.58398636182468"><ele>221.0</ele><time>2026-04-25T08:51:49Z</time></trkpt><trkpt lat="43.806016188220774" lon="12.583699224528525"><ele>229.5</ele><time>2026-04-25T08:51:50Z</time></trkpt><trkpt lat="43.80596744484158" lon="12.583364630584853"><ele>238.0</ele><time>2026-04-25T08:51:51Z</time></trkpt><trkpt lat="43.80591630711324" lon="12.58300057383996"><ele>238.0</ele><time>2026-04-25T08:51:52Z</time></trkpt><trkpt lat="43.80587170851565" lon="12.582703033845984"><ele>238.0</ele><time>2026-04-25T08:51:53Z</time></trkpt><trkpt lat="43.80586673100094" lon="12.582463385239452"><ele>238.0</ele><time>2026-04-25T08:51:54Z</time></trkpt><trkpt lat="43.805836480969894" lon="12.582264515917828"><ele>238.0</ele><time>2026-04-25T08:51:55Z</time></trkpt><trkpt lat="43.80578950102083" lon="12.582105350622877"><ele>238.0</ele><time>2026-04-25T08:51:56Z</time></trkpt><trkpt lat="43.80570957289842" lon="12.581910198313816"><ele>238.0</ele><time>2026-04-25T08:51:57Z</time></trkpt><trkpt lat="43.805644980803265" lon="12.58166256638863"><ele>236.33333333333331</ele><time>2026-04-25T08:51:58Z</time></trkpt><trkpt lat="43.8055707875924" lon="12.581400131345914"><ele>234.66666666666669</ele><time>2026-04-25T08:51:59Z</time></trkpt><trkpt lat="43.805508062372716" lon="12.581165169621695"><ele>233.0</ele><time>2026-04-25T08:52:00Z</time></trkpt><trkpt lat="43.80546595439486" lon="12.580986712616289"><ele>232.0</ele><time>2026-04-25T08:52:01Z</time></trkpt><trkpt lat="43.80543517735622" lon="12.580820335783535"><ele>231.0</ele><time>2026-04-25T08:52:02Z</time></trkpt><trkpt lat="43.80542188211533" lon="12.580641106787683"><ele>230.0</ele><time>2026-04-25T08:52:03Z</time></trkpt><trkpt lat="43.80543545763156" lon="12.580445550813026"><ele>229.0</ele><time>2026-04-25T08:52:04Z</time></trkpt><trkpt lat="43.80546067986972" lon="12.58025625785962"><ele>228.79999999999998</ele><time>2026-04-25T08:52:05Z</time></trkpt><trkpt lat="43.805489184986904" lon="12.580077843038719"><ele>228.59999999999997</ele><time>2026-04-25T08:52:06Z</time></trkpt><trkpt lat="43.80549962785001" lon="12.579917022900066"><ele>228.4</ele><time>2026-04-25T08:52:07Z</time></trkpt><trkpt lat="43.80545992239681" lon="12.579778272526818"><ele>228.2</ele><time>2026-04-25T08:52:08Z</time></trkpt><trkpt lat="43.805467834808326" lon="12.579684724192287"><ele>228.0</ele><time>2026-04-25T08:52:09Z</time></trkpt><trkpt lat="43.80539621421204" lon="12.579646174049188"><ele>226.75</ele><time>2026-04-25T08:52:11Z</time></trkpt><trkpt lat="43.80527285785521" lon="12.579482196624369"><ele>225.5</ele><time>2026-04-25T08:52:13Z</time></trkpt><trkpt lat="43.805205173779456" lon="12.57936426669941"><ele>224.25</ele><time>2026-04-25T08:52:14Z</time></trkpt><trkpt lat="43.80514158421881" lon="12.579250049573224"><ele>223.0</ele><time>2026-04-25T08:52:15Z</time></trkpt><trkpt lat="43.80511044943755" lon="12.57910768240519"><ele>225.33333333333331</ele><time>2026-04-25T08:52:16Z</time></trkpt><trkpt lat="43.805087008713954" lon="12.578937866874965"><ele>227.66666666666669</ele><time>2026-04-25T08:52:17Z</time></trkpt><trkpt lat="43.805078058692835" lon="12.578723189486626"><ele>230.0</ele><time>2026-04-25T08:52:18Z</time></trkpt><trkpt lat="43.80507085583395" lon="12.578448680316468"><ele>230.0</ele><time>2026-04-25T08:52:19Z</time></trkpt><trkpt lat="43.80506016987007" lon="12.578143624562696"><ele>230.0</ele><time>2026-04-25T08:52:20Z</time></trkpt><trkpt lat="43.80501201345099" lon="12.577853654457575"><ele>230.0</ele><time>2026-04-25T08:52:21Z</time></trkpt><trkpt lat="43.804954448001354" lon="12.577555085697645"><ele>229.5</ele><time>2026-04-25T08:52:22Z</time></trkpt><trkpt lat="43.8048869938176" lon="12.577264433987358"><ele>229.0</ele><time>2026-04-25T08:52:23Z</time></trkpt><trkpt lat="43.80480098988943" lon="12.576934127216893"><ele>230.0</ele><time>2026-04-25T08:52:24Z</time></trkpt><trkpt lat="43.80471920493361" lon="12.576574291886768"><ele>231.0</ele><time>2026-04-25T08:52:25Z</time></trkpt><trkpt lat="43.80462834552374" lon="12.576201751558239"><ele>234.0</ele><time>2026-04-25T08:52:26Z</time></trkpt><trkpt lat="43.80456480467178" lon="12.575887034813304"><ele>237.0</ele><time>2026-04-25T08:52:27Z</time></trkpt><trkpt lat="43.80450285116664" lon="12.575660148655558"><ele>240.0</ele><time>2026-04-25T08:52:28Z</time></trkpt><trkpt lat="43.80445211289934" lon="12.575467773552473"><ele>241.0</ele><time>2026-04-25T08:52:29Z</time></trkpt><trkpt lat="43.80444498538928" lon="12.575302101523485"><ele>242.0</ele><time>2026-04-25T08:52:30Z</time></trkpt><trkpt lat="43.80444810145473" lon="12.57517525341757"><ele>243.0</ele><time>2026-04-25T08:52:31Z</time></trkpt><trkpt lat="43.80445911452494" lon="12.575021723738296"><ele>244.0</ele><time>2026-04-25T08:52:32Z</time></trkpt><trkpt lat="43.804470326051955" lon="12.574826308917434"><ele>244.0</ele><time>2026-04-25T08:52:33Z</time></trkpt><trkpt lat="43.80446944269153" lon="12.57462892373503"><ele>244.0</ele><time>2026-04-25T08:52:34Z</time></trkpt><trkpt lat="43.804429798642225" lon="12.57444170155025"><ele>244.0</ele><time>2026-04-25T08:52:35Z</time></trkpt><trkpt lat="43.80439229910938" lon="12.57424818595467"><ele>244.0</ele><time>2026-04-25T08:52:36Z</time></trkpt><trkpt lat="43.80435259136078" lon="12.574071624376812"><ele>243.66666666666666</ele><time>2026-04-25T08:52:37Z</time></trkpt><trkpt lat="43.80431618463378" lon="12.57386252482905"><ele>243.33333333333331</ele><time>2026-04-25T08:52:38Z</time></trkpt><trkpt lat="43.80429960090192" lon="12.573621823677371"><ele>243.0</ele><time>2026-04-25T08:52:39Z</time></trkpt><trkpt lat="43.8042631191164" lon="12.573418693164221"><ele>243.0</ele><time>2026-04-25T08:52:40Z</time></trkpt><trkpt lat="43.80426367863522" lon="12.573235216855835"><ele>243.0</ele><time>2026-04-25T08:52:41Z</time></trkpt><trkpt lat="43.804254106406276" lon="12.573064023422655"><ele>243.0</ele><time>2026-04-25T08:52:42Z</time></trkpt><trkpt lat="43.804250234356154" lon="12.57292273172224"><ele>243.0</ele><time>2026-04-25T08:52:43Z</time></trkpt><trkpt lat="43.804250307287724" lon="12.572804997156332"><ele>243.0</ele><time>2026-04-25T08:52:44Z</time></trkpt><trkpt lat="43.80425274887443" lon="12.572703324870336"><ele>243.2</ele><time>2026-04-25T08:52:45Z</time></trkpt><trkpt lat="43.80425784463943" lon="12.572577316191714"><ele>243.4</ele><time>2026-04-25T08:52:47Z</time></trkpt><trkpt lat="43.80420907809328" lon="12.572429762515926"><ele>243.59999999999997</ele><time>2026-04-25T08:52:50Z</time></trkpt><trkpt lat="43.80415539402366" lon="12.57233807259409"><ele>243.79999999999998</ele><time>2026-04-25T08:52:52Z</time></trkpt><trkpt lat="43.804108448861264" lon="12.572223544174175"><ele>244.0</ele><time>2026-04-25T08:52:54Z</time></trkpt><trkpt lat="43.804056551805004" lon="12.572114095097893"><ele>243.99999999999997</ele><time>2026-04-25T08:52:56Z</time></trkpt><trkpt lat="43.80402530589452" lon="12.572036737843888"><ele>244.0</ele><time>2026-04-25T08:52:57Z</time></trkpt><trkpt lat="43.80398727427165" lon="12.57194641563702"><ele>244.0</ele><time>2026-04-25T08:52:58Z</time></trkpt><trkpt lat="43.80395408733007" lon="12.571862791111592"><ele>244.0</ele><time>2026-04-25T08:52:59Z</time></trkpt><trkpt lat="43.80391028753299" lon="12.571766743119404"><ele>243.99999999999997</ele><time>2026-04-25T08:53:01Z</time></trkpt><trkpt lat="43.80385729739562" lon="12.571633940830989"><ele>244.0</ele><time>2026-04-25T08:53:03Z</time></trkpt><trkpt lat="43.80381733479291" lon="12.571527454626134"><ele>244.79999999999998</ele><time>2026-04-25T08:53:04Z</time></trkpt><trkpt lat="43.80378773069996" lon="12.571406599750418"><ele>245.59999999999997</ele><time>2026-04-25T08:53:05Z</time></trkpt><trkpt lat="43.80375424484299" lon="12.571278397666898"><ele>246.4</ele><time>2026-04-25T08:53:06Z</time></trkpt><trkpt lat="43.80374961256426" lon="12.571141959291493"><ele>247.2</ele><time>2026-04-25T08:53:07Z</time></trkpt><trkpt lat="43.803749149737705" lon="12.57102011263404"><ele>248.0</ele><time>2026-04-25T08:53:08Z</time></trkpt><trkpt lat="43.80377323736214" lon="12.57091760376346"><ele>248.16666666666669</ele><time>2026-04-25T08:53:09Z</time></trkpt><trkpt lat="43.80380452649263" lon="12.570811914947955"><ele>248.33333333333334</ele><time>2026-04-25T08:53:10Z</time></trkpt><trkpt lat="43.803836650401486" lon="12.570694080004898"><ele>248.5</ele><time>2026-04-25T08:53:11Z</time></trkpt><trkpt lat="43.80384340326714" lon="12.570584534824503"><ele>248.66666666666669</ele><time>2026-04-25T08:53:12Z</time></trkpt><trkpt lat="43.80382442419971" lon="12.570478385650734"><ele>248.83333333333334</ele><time>2026-04-25T08:53:13Z</time></trkpt><trkpt lat="43.803758209765405" lon="12.570374946368709"><ele>249.0</ele><time>2026-04-25T08:53:14Z</time></trkpt><trkpt lat="43.80365520020015" lon="12.570310772709144"><ele>249.5</ele><time>2026-04-25T08:53:15Z</time></trkpt><trkpt lat="43.803563949245856" lon="12.570222008888567"><ele>250.0</ele><time>2026-04-25T08:53:16Z</time></trkpt><trkpt lat="43.80346539012601" lon="12.570125977602832"><ele>250.5</ele><time>2026-04-25T08:53:17Z</time></trkpt><trkpt lat="43.80335988788724" lon="12.57001343038621"><ele>251.0</ele><time>2026-04-25T08:53:18Z</time></trkpt><trkpt lat="43.8032516246842" lon="12.56988904458602"><ele>253.8</ele><time>2026-04-25T08:53:19Z</time></trkpt><trkpt lat="43.80316922509631" lon="12.569763119083127"><ele>256.6</ele><time>2026-04-25T08:53:20Z</time></trkpt><trkpt lat="43.80308204683599" lon="12.56969400595667"><ele>259.4</ele><time>2026-04-25T08:53:21Z</time></trkpt><trkpt lat="43.80301221646325" lon="12.569614468002007"><ele>262.2</ele><time>2026-04-25T08:53:22Z</time></trkpt><trkpt lat="43.80293848834952" lon="12.569534546389734"><ele>265.0</ele><time>2026-04-25T08:53:23Z</time></trkpt><trkpt lat="43.80289088175365" lon="12.569454865083097"><ele>266.4</ele><time>2026-04-25T08:53:24Z</time></trkpt><trkpt lat="43.80283605762077" lon="12.569395217110758"><ele>267.8</ele><time>2026-04-25T08:53:25Z</time></trkpt><trkpt lat="43.80274207443615" lon="12.569323935869708"><ele>269.2</ele><time>2026-04-25T08:53:26Z</time></trkpt><trkpt lat="43.80266945733889" lon="12.569216547285896"><ele>270.6</ele><time>2026-04-25T08:53:27Z</time></trkpt><trkpt lat="43.8026011045614" lon="12.569105330482454"><ele>272.0</ele><time>2026-04-25T08:53:28Z</time></trkpt><trkpt lat="43.80253808901107" lon="12.568987470538614"><ele>272.25</ele><time>2026-04-25T08:53:29Z</time></trkpt><trkpt lat="43.802477871219786" lon="12.568850715544935"><ele>272.5</ele><time>2026-04-25T08:53:30Z</time></trkpt><trkpt lat="43.802414488071065" lon="12.568694451967726"><ele>272.75</ele><time>2026-04-25T08:53:31Z</time></trkpt><trkpt lat="43.802353947391424" lon="12.568539084592896"><ele>273.0</ele><time>2026-04-25T08:53:32Z</time></trkpt><trkpt lat="43.80229233608283" lon="12.568387067102636"><ele>273.4</ele><time>2026-04-25T08:53:33Z</time></trkpt><trkpt lat="43.802210638294895" lon="12.568266893798777"><ele>273.8</ele><time>2026-04-25T08:53:34Z</time></trkpt><trkpt lat="43.80213775694797" lon="12.568141698938135"><ele>274.2</ele><time>2026-04-25T08:53:35Z</time></trkpt><trkpt lat="43.80208156646764" lon="12.568010890143002"><ele>274.6</ele><time>2026-04-25T08:53:36Z</time></trkpt><trkpt lat="43.802032680471555" lon="12.567904769253522"><ele>275.0</ele><time>2026-04-25T08:53:37Z</time></trkpt><trkpt lat="43.80200131978606" lon="12.567806780275303"><ele>275.0</ele><time>2026-04-25T08:53:38Z</time></trkpt><trkpt lat="43.80197589859139" lon="12.567684621214735"><ele>275.0</ele><time>2026-04-25T08:53:39Z</time></trkpt><trkpt lat="43.80195374428137" lon="12.567549542187123"><ele>275.0</ele><time>2026-04-25T08:53:40Z</time></trkpt><trkpt lat="43.801928223253846" lon="12.567409821977773"><ele>275.0</ele><time>2026-04-25T08:53:41Z</time></trkpt><trkpt lat="43.801881908730124" lon="12.567296724801807"><ele>275.0</ele><time>2026-04-25T08:53:42Z</time></trkpt><trkpt lat="43.801819991060405" lon="12.567182788108619"><ele>275.0</ele><time>2026-04-25T08:53:43Z</time></trkpt><trkpt lat="43.801737149868494" lon="12.567081023844406"><ele>275.0</ele><time>2026-04-25T08:53:44Z</time></trkpt><trkpt lat="43.80163895908389" lon="12.566993954869458"><ele>275.0</ele><time>2026-04-25T08:53:45Z</time></trkpt><trkpt lat="43.801541056275646" lon="12.566909996793578"><ele>275.0</ele><time>2026-04-25T08:53:46Z</time></trkpt><trkpt lat="43.80146366699883" lon="12.566782766560626"><ele>277.25</ele><time>2026-04-25T08:53:47Z</time></trkpt><trkpt lat="43.80137433278154" lon="12.566657901511068"><ele>279.5</ele><time>2026-04-25T08:53:48Z</time></trkpt><trkpt lat="43.80130350003731" lon="12.566532607771382"><ele>281.75</ele><time>2026-04-25T08:53:49Z</time></trkpt><trkpt lat="43.801247742880584" lon="12.56640077411174"><ele>284.0</ele><time>2026-04-25T08:53:50Z</time></trkpt><trkpt lat="43.80117582475035" lon="12.566278952581374"><ele>282.0</ele><time>2026-04-25T08:53:51Z</time></trkpt><trkpt lat="43.80108367927122" lon="12.566166995007748"><ele>280.0</ele><time>2026-04-25T08:53:52Z</time></trkpt><trkpt lat="43.800961575253076" lon="12.566122066501906"><ele>278.0</ele><time>2026-04-25T08:53:53Z</time></trkpt><trkpt lat="43.80083518757586" lon="12.566091229329176"><ele>276.0</ele><time>2026-04-25T08:53:54Z</time></trkpt><trkpt lat="43.80070512109701" lon="12.566093598995984"><ele>276.0</ele><time>2026-04-25T08:53:55Z</time></trkpt><trkpt lat="43.80058008717969" lon="12.566114065610066"><ele>276.0</ele><time>2026-04-25T08:53:56Z</time></trkpt><trkpt lat="43.800459896359705" lon="12.566150752033208"><ele>276.0</ele><time>2026-04-25T08:53:57Z</time></trkpt><trkpt lat="43.8003526328844" lon="12.566209632212246"><ele>276.0</ele><time>2026-04-25T08:53:58Z</time></trkpt><trkpt lat="43.80024277983259" lon="12.566256141081782"><ele>276.2</ele><time>2026-04-25T08:53:59Z</time></trkpt><trkpt lat="43.800139812256035" lon="12.566314762637939"><ele>276.40000000000003</ele><time>2026-04-25T08:54:00Z</time></trkpt><trkpt lat="43.80005157034559" lon="12.566370999943494"><ele>276.6</ele><time>2026-04-25T08:54:01Z</time></trkpt><trkpt lat="43.79997256185441" lon="12.566395074298082"><ele>276.8</ele><time>2026-04-25T08:54:02Z</time></trkpt><trkpt lat="43.799902445874494" lon="12.566358630505169"><ele>277.0</ele><time>2026-04-25T08:54:03Z</time></trkpt><trkpt lat="43.799910121362224" lon="12.566240141478614"><ele>279.0</ele><time>2026-04-25T08:54:04Z</time></trkpt><trkpt lat="43.799959305246595" lon="12.56608220570386"><ele>281.0</ele><time>2026-04-25T08:54:06Z</time></trkpt><trkpt lat="43.799986588769166" lon="12.565944443852121"><ele>283.0</ele><time>2026-04-25T08:54:07Z</time></trkpt><trkpt lat="43.80001221826099" lon="12.565801739759099"><ele>285.0</ele><time>2026-04-25T08:54:08Z</time></trkpt><trkpt lat="43.80002732975366" lon="12.5656662349845"><ele>287.0</ele><time>2026-04-25T08:54:09Z</time></trkpt><trkpt lat="43.800017477453196" lon="12.565550373835194"><ele>287.0</ele><time>2026-04-25T08:54:10Z</time></trkpt><trkpt lat="43.799997087093956" lon="12.565453074611451"><ele>287.0</ele><time>2026-04-25T08:54:11Z</time></trkpt><trkpt lat="43.799965052174244" lon="12.565365445634399"><ele>287.0</ele><time>2026-04-25T08:54:12Z</time></trkpt><trkpt lat="43.79990289647312" lon="12.565308848109916"><ele>287.0</ele><time>2026-04-25T08:54:13Z</time></trkpt><trkpt lat="43.79985170050011" lon="12.565248533993469"><ele>287.0</ele><time>2026-04-25T08:54:14Z</time></trkpt><trkpt lat="43.799786307348185" lon="12.56519055946997"><ele>287.0</ele><time>2026-04-25T08:54:15Z</time></trkpt><trkpt lat="43.799706933242604" lon="12.565134277902034"><ele>287.0</ele><time>2026-04-25T08:54:16Z</time></trkpt><trkpt lat="43.799626108571" lon="12.56508242037503"><ele>287.0</ele><time>2026-04-25T08:54:17Z</time></trkpt><trkpt lat="43.799541643114836" lon="12.565032838345768"><ele>287.0</ele><time>2026-04-25T08:54:18Z</time></trkpt><trkpt lat="43.79947669952195" lon="12.564998117011097"><ele>287.0</ele><time>2026-04-25T08:54:19Z</time></trkpt><trkpt lat="43.799392498535994" lon="12.564978492705944"><ele>287.0</ele><time>2026-04-25T08:54:21Z</time></trkpt><trkpt lat="43.799282937635326" lon="12.564999609955088"><ele>287.0</ele><time>2026-04-25T08:54:24Z</time></trkpt><trkpt lat="43.799169931254156" lon="12.565049041406727"><ele>288.83333333333337</ele><time>2026-04-25T08:54:26Z</time></trkpt><trkpt lat="43.799111435788845" lon="12.565090951817036"><ele>290.6666666666667</ele><time>2026-04-25T08:54:27Z</time></trkpt><trkpt lat="43.79904894517446" lon="12.565149168608933"><ele>292.5</ele><time>2026-04-25T08:54:28Z</time></trkpt><trkpt lat="43.79898836684846" lon="12.565225140575862"><ele>294.3333333333333</ele><time>2026-04-25T08:54:29Z</time></trkpt><trkpt lat="43.79893470010873" lon="12.565304070715538"><ele>296.16666666666663</ele><time>2026-04-25T08:54:30Z</time></trkpt><trkpt lat="43.79888927768408" lon="12.565376759276866"><ele>298.0</ele><time>2026-04-25T08:54:31Z</time></trkpt><trkpt lat="43.79880511980933" lon="12.565499855710856"><ele>298.0</ele><time>2026-04-25T08:54:33Z</time></trkpt><trkpt lat="43.79872411440718" lon="12.565616871231986"><ele>298.0</ele><time>2026-04-25T08:54:35Z</time></trkpt><trkpt lat="43.79864155683594" lon="12.565717988803287"><ele>298.0</ele><time>2026-04-25T08:54:37Z</time></trkpt><trkpt lat="43.7985693633198" lon="12.565784097640766"><ele>298.0</ele><time>2026-04-25T08:54:39Z</time></trkpt><trkpt lat="43.79848978488533" lon="12.565831559662444"><ele>298.0</ele><time>2026-04-25T08:56:06Z</time></trkpt><trkpt lat="43.79836112136131" lon="12.565846527423036"><ele>299.6</ele><time>2026-04-25T08:56:08Z</time></trkpt><trkpt lat="43.79828576018132" lon="12.565821153507425"><ele>301.20000000000005</ele><time>2026-04-25T08:56:09Z</time></trkpt><trkpt lat="43.79821842083157" lon="12.565728239593945"><ele>302.8</ele><time>2026-04-25T08:56:10Z</time></trkpt><trkpt lat="43.79813860379942" lon="12.565657759234277"><ele>304.40000000000003</ele><time>2026-04-25T08:56:11Z</time></trkpt><trkpt lat="43.79805797425565" lon="12.565593054340283"><ele>306.0</ele><time>2026-04-25T08:56:12Z</time></trkpt><trkpt lat="43.79799277569824" lon="12.565503687059735"><ele>306.0</ele><time>2026-04-25T08:56:13Z</time></trkpt><trkpt lat="43.7979198216964" lon="12.565419339287855"><ele>306.0</ele><time>2026-04-25T08:56:14Z</time></trkpt><trkpt lat="43.797848312306456" lon="12.565326714963488"><ele>306.0</ele><time>2026-04-25T08:56:15Z</time></trkpt><trkpt lat="43.797788573259425" lon="12.565234381052703"><ele>306.0</ele><time>2026-04-25T08:56:16Z</time></trkpt><trkpt lat="43.797735187983044" lon="12.56513155565065"><ele>306.0</ele><time>2026-04-25T08:56:17Z</time></trkpt><trkpt lat="43.797689484221046" lon="12.56502509565921"><ele>306.3333333333333</ele><time>2026-04-25T08:56:18Z</time></trkpt><trkpt lat="43.79764573978005" lon="12.564908868884416"><ele>306.6666666666667</ele><time>2026-04-25T08:56:19Z</time></trkpt><trkpt lat="43.797608753527236" lon="12.56479315745146"><ele>307.0</ele><time>2026-04-25T08:56:20Z</time></trkpt><trkpt lat="43.79757628730266" lon="12.564692005774123"><ele>307.33333333333337</ele><time>2026-04-25T08:56:21Z</time></trkpt><trkpt lat="43.79754495044177" lon="12.564597064048522"><ele>307.6666666666667</ele><time>2026-04-25T08:56:22Z</time></trkpt><trkpt lat="43.79749863737695" lon="12.564462447353266"><ele>308.0</ele><time>2026-04-25T08:56:24Z</time></trkpt><trkpt lat="43.797471545756906" lon="12.564379133398443"><ele>308.0</ele><time>2026-04-25T08:57:01Z</time></trkpt><trkpt lat="43.797412390507404" lon="12.564201548715836"><ele>308.0</ele><time>2026-04-25T08:57:03Z</time></trkpt><trkpt lat="43.79737641579183" lon="12.564077431676086"><ele>308.0</ele><time>2026-04-25T08:57:04Z</time></trkpt><trkpt lat="43.797347138652505" lon="12.56394479310623"><ele>308.0</ele><time>2026-04-25T08:57:05Z</time></trkpt><trkpt lat="43.797342190492365" lon="12.563803048422853"><ele>308.0</ele><time>2026-04-25T08:57:06Z</time></trkpt><trkpt lat="43.797354747355065" lon="12.56367614751432"><ele>308.0</ele><time>2026-04-25T08:57:07Z</time></trkpt><trkpt lat="43.79739025435854" lon="12.563568837086265"><ele>308.0</ele><time>2026-04-25T08:57:08Z</time></trkpt><trkpt lat="43.79746977316924" lon="12.563484836956471"><ele>308.0</ele><time>2026-04-25T08:57:09Z</time></trkpt><trkpt lat="43.797528999342674" lon="12.56337067535882"><ele>308.0</ele><time>2026-04-25T08:57:10Z</time></trkpt><trkpt lat="43.79757138588004" lon="12.563233505328839"><ele>308.0</ele><time>2026-04-25T08:57:11Z</time></trkpt><trkpt lat="43.79762709221111" lon="12.563099394978448"><ele>308.25</ele><time>2026-04-25T08:57:12Z</time></trkpt><trkpt lat="43.79768217455448" lon="12.562949316970506"><ele>308.5</ele><time>2026-04-25T08:57:13Z</time></trkpt><trkpt lat="43.79773657734432" lon="12.562788774067087"><ele>308.75</ele><time>2026-04-25T08:57:14Z</time></trkpt><trkpt lat="43.797785309304" lon="12.562620402527932"><ele>309.0</ele><time>2026-04-25T08:57:15Z</time></trkpt><trkpt lat="43.79783495969329" lon="12.562449495522136"><ele>307.25</ele><time>2026-04-25T08:57:16Z</time></trkpt><trkpt lat="43.797885996063265" lon="12.562286688877068"><ele>305.5</ele><time>2026-04-25T08:57:17Z</time></trkpt><trkpt lat="43.79794670184169" lon="12.562138192979896"><ele>303.75</ele><time>2026-04-25T08:57:18Z</time></trkpt><trkpt lat="43.79799648971639" lon="12.562006614989661"><ele>302.0</ele><time>2026-04-25T08:57:19Z</time></trkpt><trkpt lat="43.79804321383939" lon="12.561883296161348"><ele>301.4</ele><time>2026-04-25T08:57:20Z</time></trkpt><trkpt lat="43.79808079242484" lon="12.561758670790688"><ele>300.79999999999995</ele><time>2026-04-25T08:57:21Z</time></trkpt><trkpt lat="43.79812799306958" lon="12.561640453154471"><ele>300.2</ele><time>2026-04-25T08:57:22Z</time></trkpt><trkpt lat="43.798142240682054" lon="12.561496010785529"><ele>299.59999999999997</ele><time>2026-04-25T08:57:23Z</time></trkpt><trkpt lat="43.79812631249121" lon="12.561327372157049"><ele>299.0</ele><time>2026-04-25T08:57:24Z</time></trkpt><trkpt lat="43.79807003277087" lon="12.56116524331628"><ele>298.25</ele><time>2026-04-25T08:57:25Z</time></trkpt><trkpt lat="43.79801247546342" lon="12.5609972550361"><ele>297.5</ele><time>2026-04-25T08:57:26Z</time></trkpt><trkpt lat="43.79794544437139" lon="12.56082855675006"><ele>296.75</ele><time>2026-04-25T08:57:27Z</time></trkpt><trkpt lat="43.797875392770734" lon="12.560686598636595"><ele>296.0</ele><time>2026-04-25T08:57:28Z</time></trkpt><trkpt lat="43.79781212347411" lon="12.560559964564707"><ele>296.0</ele><time>2026-04-25T08:57:29Z</time></trkpt><trkpt lat="43.79776330651061" lon="12.560427288953083"><ele>296.0</ele><time>2026-04-25T08:57:30Z</time></trkpt><trkpt lat="43.79776758041145" lon="12.560275773474535"><ele>296.0</ele><time>2026-04-25T08:57:31Z</time></trkpt><trkpt lat="43.797774273951575" lon="12.560116280815144"><ele>296.0</ele><time>2026-04-25T08:57:32Z</time></trkpt><trkpt lat="43.79779061330795" lon="12.559944751581147"><ele>296.6</ele><time>2026-04-25T08:57:33Z</time></trkpt><trkpt lat="43.79780444979163" lon="12.559761439293426"><ele>297.20000000000005</ele><time>2026-04-25T08:57:34Z</time></trkpt><trkpt lat="43.79781144983199" lon="12.55960552928147"><ele>297.79999999999995</ele><time>2026-04-25T08:57:35Z</time></trkpt><trkpt lat="43.79779711047497" lon="12.559477318405605"><ele>298.4</ele><time>2026-04-25T08:57:36Z</time></trkpt><trkpt lat="43.797770675927815" lon="12.55935083016072"><ele>299.0</ele><time>2026-04-25T08:57:37Z</time></trkpt><trkpt lat="43.79771992970823" lon="12.559238602280294"><ele>303.4</ele><time>2026-04-25T08:57:38Z</time></trkpt><trkpt lat="43.797653621707944" lon="12.559110911480623"><ele>307.79999999999995</ele><time>2026-04-25T08:57:39Z</time></trkpt><trkpt lat="43.797565963022585" lon="12.558986770667264"><ele>312.20000000000005</ele><time>2026-04-25T08:57:40Z</time></trkpt><trkpt lat="43.79747643204755" lon="12.558889647652988"><ele>316.6</ele><time>2026-04-25T08:57:41Z</time></trkpt><trkpt lat="43.79741853298875" lon="12.558791187397583"><ele>321.0</ele><time>2026-04-25T08:57:42Z</time></trkpt><trkpt lat="43.79737839402146" lon="12.558666651289913"><ele>321.75</ele><time>2026-04-25T08:57:43Z</time></trkpt><trkpt lat="43.7973786748935" lon="12.55851912859656"><ele>322.5</ele><time>2026-04-25T08:57:44Z</time></trkpt><trkpt lat="43.797379320148245" lon="12.558360246909695"><ele>323.25</ele><time>2026-04-25T08:57:45Z</time></trkpt><trkpt lat="43.79737652514927" lon="12.55817949006303"><ele>324.0</ele><time>2026-04-25T08:57:46Z</time></trkpt><trkpt lat="43.79735826474695" lon="12.557984880404451"><ele>324.75</ele><time>2026-04-25T08:57:47Z</time></trkpt><trkpt lat="43.797349077210036" lon="12.557818451177548"><ele>325.5</ele><time>2026-04-25T08:57:48Z</time></trkpt><trkpt lat="43.79731139809333" lon="12.557657385053455"><ele>326.25</ele><time>2026-04-25T08:57:49Z</time></trkpt><trkpt lat="43.797257525499305" lon="12.557486642799375"><ele>327.0</ele><time>2026-04-25T08:57:50Z</time></trkpt><trkpt lat="43.797196521894584" lon="12.557314752546748"><ele>327.0</ele><time>2026-04-25T08:57:51Z</time></trkpt><trkpt lat="43.797141076528554" lon="12.557139702456118"><ele>327.0</ele><time>2026-04-25T08:57:52Z</time></trkpt><trkpt lat="43.797081952275605" lon="12.556986863058444"><ele>327.0</ele><time>2026-04-25T08:57:53Z</time></trkpt><trkpt lat="43.79701707927871" lon="12.556854249532106"><ele>327.0</ele><time>2026-04-25T08:57:54Z</time></trkpt><trkpt lat="43.79693895741092" lon="12.556738542499822"><ele>326.75</ele><time>2026-04-25T08:57:55Z</time></trkpt><trkpt lat="43.79685056398807" lon="12.556643586287704"><ele>326.5</ele><time>2026-04-25T08:57:56Z</time></trkpt><trkpt lat="43.796747995244516" lon="12.556538838320723"><ele>326.25</ele><time>2026-04-25T08:57:57Z</time></trkpt><trkpt lat="43.79663557518297" lon="12.556410117347001"><ele>326.0</ele><time>2026-04-25T08:57:58Z</time></trkpt><trkpt lat="43.79652667161412" lon="12.556288179403117"><ele>327.4</ele><time>2026-04-25T08:57:59Z</time></trkpt><trkpt lat="43.79643314761249" lon="12.556187043148098"><ele>328.8</ele><time>2026-04-25T08:58:00Z</time></trkpt><trkpt lat="43.79635012077735" lon="12.556093259548511"><ele>330.2</ele><time>2026-04-25T08:58:01Z</time></trkpt><trkpt lat="43.796294982000035" lon="12.555991402311568"><ele>331.59999999999997</ele><time>2026-04-25T08:58:02Z</time></trkpt><trkpt lat="43.796252819062" lon="12.555901765773056"><ele>333.0</ele><time>2026-04-25T08:58:03Z</time></trkpt><trkpt lat="43.796232095870884" lon="12.555805988691862"><ele>333.0</ele><time>2026-04-25T08:58:04Z</time></trkpt><trkpt lat="43.79625953918592" lon="12.555709055465595"><ele>333.0</ele><time>2026-04-25T08:58:05Z</time></trkpt><trkpt lat="43.79627319736091" lon="12.555566743840876"><ele>333.0</ele><time>2026-04-25T08:58:06Z</time></trkpt><trkpt lat="43.796303834889606" lon="12.55539076456648"><ele>333.0</ele><time>2026-04-25T08:58:07Z</time></trkpt><trkpt lat="43.79634257620296" lon="12.555180047380745"><ele>331.6666666666667</ele><time>2026-04-25T08:58:08Z</time></trkpt><trkpt lat="43.796384805351906" lon="12.554969426447725"><ele>330.33333333333337</ele><time>2026-04-25T08:58:09Z</time></trkpt><trkpt lat="43.79642852972782" lon="12.554751347911896"><ele>329.0</ele><time>2026-04-25T08:58:10Z</time></trkpt><trkpt lat="43.796475062303585" lon="12.554521073463938"><ele>331.25</ele><time>2026-04-25T08:58:11Z</time></trkpt><trkpt lat="43.79651949686439" lon="12.554301300406447"><ele>333.5</ele><time>2026-04-25T08:58:12Z</time></trkpt><trkpt lat="43.79655422844352" lon="12.554121666882988"><ele>335.75</ele><time>2026-04-25T08:58:13Z</time></trkpt><trkpt lat="43.79658339464558" lon="12.553965583300766"><ele>338.0</ele><time>2026-04-25T08:58:14Z</time></trkpt><trkpt lat="43.796589898443834" lon="12.553821122482264"><ele>339.0</ele><time>2026-04-25T08:58:15Z</time></trkpt><trkpt lat="43.79654948488104" lon="12.553676855938399"><ele>340.0</ele><time>2026-04-25T08:58:16Z</time></trkpt><trkpt lat="43.7965240197271" lon="12.553519214888336"><ele>341.0</ele><time>2026-04-25T08:58:17Z</time></trkpt><trkpt lat="43.7964992132403" lon="12.553345548578182"><ele>342.0</ele><time>2026-04-25T08:58:18Z</time></trkpt><trkpt lat="43.79649062444373" lon="12.553158978023829"><ele>342.0</ele><time>2026-04-25T08:58:19Z</time></trkpt><trkpt lat="43.7965301577048" lon="12.55298243045076"><ele>342.0</ele><time>2026-04-25T08:58:20Z</time></trkpt><trkpt lat="43.79656991294592" lon="12.552798856081331"><ele>342.0</ele><time>2026-04-25T08:58:21Z</time></trkpt><trkpt lat="43.796617831165605" lon="12.552603352459563"><ele>342.0</ele><time>2026-04-25T08:58:22Z</time></trkpt><trkpt lat="43.79667100820138" lon="12.55240082830347"><ele>342.75</ele><time>2026-04-25T08:58:23Z</time></trkpt><trkpt lat="43.796719668478374" lon="12.5522039605932"><ele>343.5</ele><time>2026-04-25T08:58:24Z</time></trkpt><trkpt lat="43.79675457505436" lon="12.552009350341601"><ele>344.25</ele><time>2026-04-25T08:58:25Z</time></trkpt><trkpt lat="43.7967832309112" lon="12.55182813030676"><ele>345.0</ele><time>2026-04-25T08:58:26Z</time></trkpt><trkpt lat="43.79682448456245" lon="12.551647989017468"><ele>344.75</ele><time>2026-04-25T08:58:27Z</time></trkpt><trkpt lat="43.79687326626203" lon="12.551471387065272"><ele>344.5</ele><time>2026-04-25T08:58:28Z</time></trkpt><trkpt lat="43.796926799581385" lon="12.55129747638477"><ele>344.25</ele><time>2026-04-25T08:58:29Z</time></trkpt><trkpt lat="43.79698371796126" lon="12.551126309156329"><ele>344.0</ele><time>2026-04-25T08:58:30Z</time></trkpt><trkpt lat="43.79703048578841" lon="12.550950700365702"><ele>344.0</ele><time>2026-04-25T08:58:31Z</time></trkpt><trkpt lat="43.79705526076131" lon="12.550759875229"><ele>344.0</ele><time>2026-04-25T08:58:32Z</time></trkpt><trkpt lat="43.79705276084169" lon="12.55057380544971"><ele>344.0</ele><time>2026-04-25T08:58:33Z</time></trkpt><trkpt lat="43.797052231795995" lon="12.550388392706893"><ele>344.0</ele><time>2026-04-25T08:58:34Z</time></trkpt><trkpt lat="43.797046857511056" lon="12.550203261067308"><ele>347.5</ele><time>2026-04-25T08:58:35Z</time></trkpt><trkpt lat="43.79704620370206" lon="12.550022906645802"><ele>351.0</ele><time>2026-04-25T08:58:36Z</time></trkpt><trkpt lat="43.79704070865486" lon="12.549848646882015"><ele>354.5</ele><time>2026-04-25T08:58:37Z</time></trkpt><trkpt lat="43.79703731248599" lon="12.549696608263288"><ele>358.0</ele><time>2026-04-25T08:58:38Z</time></trkpt><trkpt lat="43.797048781675805" lon="12.549570503840414"><ele>357.0</ele><time>2026-04-25T08:58:39Z</time></trkpt><trkpt lat="43.79708969670295" lon="12.54947081752857"><ele>356.0</ele><time>2026-04-25T08:58:40Z</time></trkpt><trkpt lat="43.79712797308661" lon="12.549391469505151"><ele>355.0</ele><time>2026-04-25T08:58:41Z</time></trkpt><trkpt lat="43.797171028380916" lon="12.549321810252886"><ele>354.0</ele><time>2026-04-25T08:58:42Z</time></trkpt><trkpt lat="43.79722550686677" lon="12.549264930551402"><ele>353.0</ele><time>2026-04-25T08:58:43Z</time></trkpt><trkpt lat="43.7973009166667" lon="12.549225383806927"><ele>352.0</ele><time>2026-04-25T08:58:44Z</time></trkpt><trkpt lat="43.79739669669303" lon="12.549168418255654"><ele>352.0</ele><time>2026-04-25T08:58:45Z</time></trkpt><trkpt lat="43.79750696262504" lon="12.5491090003605"><ele>352.0</ele><time>2026-04-25T08:58:46Z</time></trkpt><trkpt lat="43.7976081809533" lon="12.549024037212163"><ele>352.0</ele><time>2026-04-25T08:58:47Z</time></trkpt><trkpt lat="43.79769178961259" lon="12.54890171660419"><ele>352.0</ele><time>2026-04-25T08:58:48Z</time></trkpt><trkpt lat="43.797773699125855" lon="12.548786805532824"><ele>348.25</ele><time>2026-04-25T08:58:49Z</time></trkpt><trkpt lat="43.797850929263056" lon="12.548654446449273"><ele>344.5</ele><time>2026-04-25T08:58:50Z</time></trkpt><trkpt lat="43.79791234999715" lon="12.548488035510383"><ele>340.75</ele><time>2026-04-25T08:58:51Z</time></trkpt><trkpt lat="43.79798291158847" lon="12.548310068339546"><ele>337.0</ele><time>2026-04-25T08:58:52Z</time></trkpt><trkpt lat="43.798049780089784" lon="12.548117579440932"><ele>337.0</ele><time>2026-04-25T08:58:53Z</time></trkpt><trkpt lat="43.79811132441367" lon="12.54792494363028"><ele>337.0</ele><time>2026-04-25T08:58:54Z</time></trkpt><trkpt lat="43.79817102777805" lon="12.547748772012914"><ele>337.0</ele><time>2026-04-25T08:58:55Z</time></trkpt><trkpt lat="43.79822498725747" lon="12.547582206324302"><ele>337.0</ele><time>2026-04-25T08:58:56Z</time></trkpt><trkpt lat="43.79827092745474" lon="12.547414791601394"><ele>337.0</ele><time>2026-04-25T08:58:57Z</time></trkpt><trkpt lat="43.79830684833011" lon="12.54722763723735"><ele>337.0</ele><time>2026-04-25T08:58:58Z</time></trkpt><trkpt lat="43.798330464715534" lon="12.547032588946438"><ele>337.0</ele><time>2026-04-25T08:58:59Z</time></trkpt><trkpt lat="43.79834517090878" lon="12.546842879856221"><ele>337.0</ele><time>2026-04-25T08:59:00Z</time></trkpt><trkpt lat="43.79835792550128" lon="12.546660222471173"><ele>337.0</ele><time>2026-04-25T08:59:01Z</time></trkpt><trkpt lat="43.79835163960378" lon="12.546479423078473"><ele>337.0</ele><time>2026-04-25T08:59:02Z</time></trkpt><trkpt lat="43.79832256500797" lon="12.546304543310487"><ele>337.0</ele><time>2026-04-25T08:59:03Z</time></trkpt><trkpt lat="43.798278418249666" lon="12.546135655879722"><ele>337.0</ele><time>2026-04-25T08:59:04Z</time></trkpt><trkpt lat="43.798226546067795" lon="12.545968308362964"><ele>338.75</ele><time>2026-04-25T08:59:05Z</time></trkpt><trkpt lat="43.798194506086276" lon="12.545820736738621"><ele>340.5</ele><time>2026-04-25T08:59:06Z</time></trkpt><trkpt lat="43.79820314950048" lon="12.545673408003205"><ele>342.25</ele><time>2026-04-25T08:59:07Z</time></trkpt><trkpt lat="43.79821829833141" lon="12.545506770486497"><ele>344.0</ele><time>2026-04-25T08:59:08Z</time></trkpt><trkpt lat="43.798219649497824" lon="12.545323036118463"><ele>345.75</ele><time>2026-04-25T08:59:09Z</time></trkpt><trkpt lat="43.79819117241545" lon="12.54513682146126"><ele>347.5</ele><time>2026-04-25T08:59:10Z</time></trkpt><trkpt lat="43.79816228885167" lon="12.544945591228707"><ele>349.25</ele><time>2026-04-25T08:59:11Z</time></trkpt><trkpt lat="43.79811260999777" lon="12.544744806065426"><ele>351.0</ele><time>2026-04-25T08:59:12Z</time></trkpt><trkpt lat="43.79805711737115" lon="12.544544252709818"><ele>352.0</ele><time>2026-04-25T08:59:13Z</time></trkpt><trkpt lat="43.79801491541357" lon="12.54435095419724"><ele>353.0</ele><time>2026-04-25T08:59:14Z</time></trkpt><trkpt lat="43.79801213768334" lon="12.544151322502566"><ele>354.0</ele><time>2026-04-25T08:59:15Z</time></trkpt><trkpt lat="43.79799767885809" lon="12.543956317128611"><ele>355.0</ele><time>2026-04-25T08:59:16Z</time></trkpt><trkpt lat="43.79796475909989" lon="12.543767934940023"><ele>353.25</ele><time>2026-04-25T08:59:17Z</time></trkpt><trkpt lat="43.79796984741144" lon="12.543571623323233"><ele>351.5</ele><time>2026-04-25T08:59:18Z</time></trkpt><trkpt lat="43.79796659088534" lon="12.543368851883884"><ele>349.75</ele><time>2026-04-25T08:59:19Z</time></trkpt><trkpt lat="43.797965319332" lon="12.543164789354735"><ele>348.0</ele><time>2026-04-25T08:59:20Z</time></trkpt><trkpt lat="43.79796400402872" lon="12.542958624842754"><ele>348.0</ele><time>2026-04-25T08:59:21Z</time></trkpt><trkpt lat="43.797959609481296" lon="12.542751967076157"><ele>348.0</ele><time>2026-04-25T08:59:22Z</time></trkpt><trkpt lat="43.797954064823486" lon="12.542550457850458"><ele>348.0</ele><time>2026-04-25T08:59:23Z</time></trkpt><trkpt lat="43.79794243992995" lon="12.542371439337389"><ele>348.0</ele><time>2026-04-25T08:59:24Z</time></trkpt><trkpt lat="43.79792364208685" lon="12.54220932091471"><ele>348.0</ele><time>2026-04-25T08:59:25Z</time></trkpt><trkpt lat="43.79788971076745" lon="12.542066521679939"><ele>348.0</ele><time>2026-04-25T08:59:26Z</time></trkpt><trkpt lat="43.79784127546341" lon="12.541952387958643"><ele>348.0</ele><time>2026-04-25T08:59:27Z</time></trkpt><trkpt lat="43.79780118505692" lon="12.541850870906199"><ele>348.0</ele><time>2026-04-25T08:59:28Z</time></trkpt><trkpt lat="43.797747998498856" lon="12.541763408163998"><ele>348.0</ele><time>2026-04-25T08:59:29Z</time></trkpt><trkpt lat="43.797695939409685" lon="12.541675504066827"><ele>348.6666666666667</ele><time>2026-04-25T08:59:30Z</time></trkpt><trkpt lat="43.797647800470415" lon="12.541595473590244"><ele>349.3333333333333</ele><time>2026-04-25T08:59:31Z</time></trkpt><trkpt lat="43.797600411518765" lon="12.541511744843058"><ele>350.0</ele><time>2026-04-25T08:59:32Z</time></trkpt><trkpt lat="43.79757384577357" lon="12.541399792042148"><ele>350.66666666666663</ele><time>2026-04-25T08:59:33Z</time></trkpt><trkpt lat="43.79753637375929" lon="12.54128527402756"><ele>351.3333333333333</ele><time>2026-04-25T08:59:34Z</time></trkpt><trkpt lat="43.79750383981707" lon="12.5411589500847"><ele>352.0</ele><time>2026-04-25T08:59:35Z</time></trkpt><trkpt lat="43.797486991657024" lon="12.541017617013608"><ele>354.5</ele><time>2026-04-25T08:59:36Z</time></trkpt><trkpt lat="43.79746651426748" lon="12.540863521202608"><ele>357.0</ele><time>2026-04-25T08:59:37Z</time></trkpt><trkpt lat="43.79744284479147" lon="12.540703434138457"><ele>359.5</ele><time>2026-04-25T08:59:38Z</time></trkpt><trkpt lat="43.79741663086591" lon="12.540538899882758"><ele>362.0</ele><time>2026-04-25T08:59:39Z</time></trkpt><trkpt lat="43.79738351033395" lon="12.540367148193752"><ele>363.25</ele><time>2026-04-25T08:59:40Z</time></trkpt><trkpt lat="43.79733192726125" lon="12.540206207747973"><ele>364.5</ele><time>2026-04-25T08:59:41Z</time></trkpt><trkpt lat="43.797283909051544" lon="12.540045253427282"><ele>365.75</ele><time>2026-04-25T08:59:42Z</time></trkpt><trkpt lat="43.7972223080154" lon="12.539902963059038"><ele>367.0</ele><time>2026-04-25T08:59:43Z</time></trkpt><trkpt lat="43.79714764605991" lon="12.539777111920495"><ele>367.0</ele><time>2026-04-25T08:59:44Z</time></trkpt><trkpt lat="43.797060098766615" lon="12.539660818851651"><ele>367.0</ele><time>2026-04-25T08:59:45Z</time></trkpt><trkpt lat="43.796964861979525" lon="12.539544748002708"><ele>367.0</ele><time>2026-04-25T08:59:46Z</time></trkpt><trkpt lat="43.79686460576439" lon="12.539433581856198"><ele>367.0</ele><time>2026-04-25T08:59:47Z</time></trkpt><trkpt lat="43.79675919794086" lon="12.539334208655736"><ele>368.5</ele><time>2026-04-25T08:59:48Z</time></trkpt><trkpt lat="43.79664882524438" lon="12.539221401979358"><ele>370.0</ele><time>2026-04-25T08:59:49Z</time></trkpt><trkpt lat="43.79657120784094" lon="12.539078562230303"><ele>371.5</ele><time>2026-04-25T08:59:50Z</time></trkpt><trkpt lat="43.79646606747866" lon="12.538903120471682"><ele>373.0</ele><time>2026-04-25T08:59:51Z</time></trkpt><trkpt lat="43.79638520435056" lon="12.538757437738806"><ele>373.0</ele><time>2026-04-25T08:59:52Z</time></trkpt><trkpt lat="43.79629263789253" lon="12.538635314553174"><ele>373.0</ele><time>2026-04-25T08:59:53Z</time></trkpt><trkpt lat="43.796191127724995" lon="12.538561483839768"><ele>373.0</ele><time>2026-04-25T08:59:54Z</time></trkpt><trkpt lat="43.79608667222871" lon="12.538481332016564"><ele>373.0</ele><time>2026-04-25T08:59:55Z</time></trkpt><trkpt lat="43.79596493731878" lon="12.538420167894683"><ele>373.0</ele><time>2026-04-25T08:59:56Z</time></trkpt><trkpt lat="43.79583422915172" lon="12.538376221111486"><ele>373.0</ele><time>2026-04-25T08:59:57Z</time></trkpt><trkpt lat="43.79569547324341" lon="12.53833120330798"><ele>373.0</ele><time>2026-04-25T08:59:58Z</time></trkpt><trkpt lat="43.79555386193992" lon="12.538273777509811"><ele>373.0</ele><time>2026-04-25T08:59:59Z</time></trkpt><trkpt lat="43.795420526691" lon="12.5381902105444"><ele>373.0</ele><time>2026-04-25T09:00:00Z</time></trkpt><trkpt lat="43.7953014499704" lon="12.538140511254712"><ele>373.0</ele><time>2026-04-25T09:00:01Z</time></trkpt><trkpt lat="43.79519735149543" lon="12.538093466070565"><ele>373.0</ele><time>2026-04-25T09:00:02Z</time></trkpt><trkpt lat="43.79511629150583" lon="12.538043339617614"><ele>373.0</ele><time>2026-04-25T09:00:03Z</time></trkpt><trkpt lat="43.795050105471" lon="12.537980305994791"><ele>373.0</ele><time>2026-04-25T09:00:04Z</time></trkpt><trkpt lat="43.79500886975155" lon="12.537883990211432"><ele>372.59999999999997</ele><time>2026-04-25T09:00:05Z</time></trkpt><trkpt lat="43.79497525308187" lon="12.537776547062823"><ele>372.2</ele><time>2026-04-25T09:00:06Z</time></trkpt><trkpt lat="43.79494049436549" lon="12.53765226185015"><ele>371.8</ele><time>2026-04-25T09:00:07Z</time></trkpt><trkpt lat="43.794914166080765" lon="12.537505537864766"><ele>371.4</ele><time>2026-04-25T09:00:08Z</time></trkpt><trkpt lat="43.79489392271351" lon="12.537335421141501"><ele>371.0</ele><time>2026-04-25T09:00:09Z</time></trkpt><trkpt lat="43.794873474157846" lon="12.537149828414496"><ele>370.5</ele><time>2026-04-25T09:00:10Z</time></trkpt><trkpt lat="43.79485539804357" lon="12.536950681145752"><ele>370.0</ele><time>2026-04-25T09:00:11Z</time></trkpt><trkpt lat="43.7948262608935" lon="12.536749379085132"><ele>369.5</ele><time>2026-04-25T09:00:12Z</time></trkpt><trkpt lat="43.7948029809563" lon="12.536564704137202"><ele>369.0</ele><time>2026-04-25T09:00:13Z</time></trkpt><trkpt lat="43.79478330496099" lon="12.53639637792608"><ele>369.0</ele><time>2026-04-25T09:00:14Z</time></trkpt><trkpt lat="43.794757760948464" lon="12.536239932798619"><ele>369.0</ele><time>2026-04-25T09:00:15Z</time></trkpt><trkpt lat="43.7947169940737" lon="12.536095735905805"><ele>369.0</ele><time>2026-04-25T09:00:16Z</time></trkpt><trkpt lat="43.79466851591545" lon="12.535970430224092"><ele>369.0</ele><time>2026-04-25T09:00:17Z</time></trkpt><trkpt lat="43.79461803143254" lon="12.535859731005587"><ele>369.0</ele><time>2026-04-25T09:00:18Z</time></trkpt><trkpt lat="43.794560276873796" lon="12.53575896230469"><ele>367.75</ele><time>2026-04-25T09:00:19Z</time></trkpt><trkpt lat="43.794489890636804" lon="12.535661700638993"><ele>366.5</ele><time>2026-04-25T09:00:20Z</time></trkpt><trkpt lat="43.79441249729288" lon="12.535548378436483"><ele>365.25</ele><time>2026-04-25T09:00:21Z</time></trkpt><trkpt lat="43.79431046568562" lon="12.535442518334925"><ele>364.0</ele><time>2026-04-25T09:00:22Z</time></trkpt><trkpt lat="43.794196637395" lon="12.535342252141517"><ele>363.3333333333333</ele><time>2026-04-25T09:00:23Z</time></trkpt><trkpt lat="43.79406467520654" lon="12.53525972474854"><ele>362.6666666666667</ele><time>2026-04-25T09:00:24Z</time></trkpt><trkpt lat="43.7939333742774" lon="12.535159424325526"><ele>362.0</ele><time>2026-04-25T09:00:25Z</time></trkpt><trkpt lat="43.793797878956845" lon="12.535054859563017"><ele>362.0</ele><time>2026-04-25T09:00:26Z</time></trkpt><trkpt lat="43.79366732167404" lon="12.534935150952371"><ele>362.0</ele><time>2026-04-25T09:00:27Z</time></trkpt><trkpt lat="43.7935389599755" lon="12.534838630066396"><ele>362.0</ele><time>2026-04-25T09:00:28Z</time></trkpt><trkpt lat="43.79342083910189" lon="12.534750972858436"><ele>362.0</ele><time>2026-04-25T09:00:29Z</time></trkpt><trkpt lat="43.79331681712805" lon="12.534665305288822"><ele>362.0</ele><time>2026-04-25T09:00:30Z</time></trkpt><trkpt lat="43.7932342374516" lon="12.534577212447305"><ele>362.0</ele><time>2026-04-25T09:00:31Z</time></trkpt><trkpt lat="43.79316576521547" lon="12.53448977289735"><ele>362.0</ele><time>2026-04-25T09:00:32Z</time></trkpt><trkpt lat="43.79312070162897" lon="12.534382811322734"><ele>362.0</ele><time>2026-04-25T09:00:33Z</time></trkpt><trkpt lat="43.79308995350832" lon="12.534260187241765"><ele>362.0</ele><time>2026-04-25T09:00:34Z</time></trkpt><trkpt lat="43.79303392187853" lon="12.534110053905096"><ele>361.5</ele><time>2026-04-25T09:00:35Z</time></trkpt><trkpt lat="43.792958184195655" lon="12.53396787999907"><ele>361.0</ele><time>2026-04-25T09:00:36Z</time></trkpt><trkpt lat="43.79286531124383" lon="12.53385216118386"><ele>360.5</ele><time>2026-04-25T09:00:37Z</time></trkpt><trkpt lat="43.792767884752465" lon="12.533734048049741"><ele>360.0</ele><time>2026-04-25T09:00:38Z</time></trkpt><trkpt lat="43.79265798768013" lon="12.533623989603988"><ele>360.0</ele><time>2026-04-25T09:00:39Z</time></trkpt><trkpt lat="43.79254037944106" lon="12.533521761814207"><ele>360.0</ele><time>2026-04-25T09:00:40Z</time></trkpt><trkpt lat="43.79241978357981" lon="12.533434170837527"><ele>360.0</ele><time>2026-04-25T09:00:41Z</time></trkpt><trkpt lat="43.79229022342408" lon="12.533356885391989"><ele>360.0</ele><time>2026-04-25T09:00:42Z</time></trkpt><trkpt lat="43.79216256974548" lon="12.533287983099724"><ele>360.0</ele><time>2026-04-25T09:00:43Z</time></trkpt><trkpt lat="43.7920472355039" lon="12.533231136533962"><ele>360.0</ele><time>2026-04-25T09:00:44Z</time></trkpt><trkpt lat="43.79193961641666" lon="12.533185908054433"><ele>360.0</ele><time>2026-04-25T09:00:45Z</time></trkpt><trkpt lat="43.79184925049352" lon="12.533152076799498"><ele>360.0</ele><time>2026-04-25T09:00:46Z</time></trkpt><trkpt lat="43.79176451088843" lon="12.533143588156195"><ele>360.0</ele><time>2026-04-25T09:00:47Z</time></trkpt><trkpt lat="43.79168153544368" lon="12.533154739417144"><ele>359.5</ele><time>2026-04-25T09:00:48Z</time></trkpt><trkpt lat="43.791599985006265" lon="12.533171552861303"><ele>359.0</ele><time>2026-04-25T09:00:49Z</time></trkpt><trkpt lat="43.79152052889742" lon="12.533179539355398"><ele>358.5</ele><time>2026-04-25T09:00:50Z</time></trkpt><trkpt lat="43.79144016036611" lon="12.533180699669975"><ele>358.0</ele><time>2026-04-25T09:00:51Z</time></trkpt><trkpt lat="43.791367526268225" lon="12.533133118389554"><ele>357.5</ele><time>2026-04-25T09:00:52Z</time></trkpt><trkpt lat="43.79130498633243" lon="12.533091989397112"><ele>357.0</ele><time>2026-04-25T09:00:53Z</time></trkpt><trkpt lat="43.79124490742635" lon="12.533035094117771"><ele>357.0</ele><time>2026-04-25T09:00:54Z</time></trkpt><trkpt lat="43.791200459770266" lon="12.532960281329716"><ele>357.0</ele><time>2026-04-25T09:00:55Z</time></trkpt><trkpt lat="43.79114811367309" lon="12.53287102070921"><ele>357.0</ele><time>2026-04-25T09:00:56Z</time></trkpt><trkpt lat="43.791089779945935" lon="12.532767411326118"><ele>357.0</ele><time>2026-04-25T09:00:57Z</time></trkpt><trkpt lat="43.79103852352096" lon="12.53266214802304"><ele>357.0</ele><time>2026-04-25T09:00:58Z</time></trkpt><trkpt lat="43.79098536180859" lon="12.532551613191181"><ele>357.0</ele><time>2026-04-25T09:00:59Z</time></trkpt><trkpt lat="43.79093481772953" lon="12.532447847927532"><ele>357.3333333333333</ele><time>2026-04-25T09:01:00Z</time></trkpt><trkpt lat="43.790883498257685" lon="12.532348339332021"><ele>357.6666666666667</ele><time>2026-04-25T09:01:01Z</time></trkpt><trkpt lat="43.79083142583207" lon="12.532249185344382"><ele>358.0</ele><time>2026-04-25T09:01:02Z</time></trkpt><trkpt lat="43.79077629015084" lon="12.532147981834521"><ele>358.33333333333337</ele><time>2026-04-25T09:01:03Z</time></trkpt><trkpt lat="43.79072042789352" lon="12.532052076973953"><ele>358.6666666666667</ele><time>2026-04-25T09:01:04Z</time></trkpt><trkpt lat="43.79065384181673" lon="12.531975996507116"><ele>359.0</ele><time>2026-04-25T09:01:05Z</time></trkpt><trkpt lat="43.79059625300739" lon="12.531867778009879"><ele>360.75</ele><time>2026-04-25T09:01:06Z</time></trkpt><trkpt lat="43.790531718630554" lon="12.531749034355041"><ele>362.5</ele><time>2026-04-25T09:01:07Z</time></trkpt><trkpt lat="43.79047139961973" lon="12.531610065430677"><ele>364.25</ele><time>2026-04-25T09:01:08Z</time></trkpt><trkpt lat="43.79039338280493" lon="12.531477697355221"><ele>366.0</ele><time>2026-04-25T09:01:09Z</time></trkpt><trkpt lat="43.79030154462507" lon="12.531360287100558"><ele>364.5</ele><time>2026-04-25T09:01:10Z</time></trkpt><trkpt lat="43.7902231440583" lon="12.531222376432693"><ele>363.0</ele><time>2026-04-25T09:01:11Z</time></trkpt><trkpt lat="43.79015000027583" lon="12.531075290660398"><ele>361.5</ele><time>2026-04-25T09:01:12Z</time></trkpt><trkpt lat="43.79007366871917" lon="12.530927814413085"><ele>360.0</ele><time>2026-04-25T09:01:13Z</time></trkpt><trkpt lat="43.789997088649905" lon="12.530778360523817"><ele>358.75</ele><time>2026-04-25T09:01:14Z</time></trkpt><trkpt lat="43.78992088876222" lon="12.530630416218695"><ele>357.5</ele><time>2026-04-25T09:01:15Z</time></trkpt><trkpt lat="43.789846347829766" lon="12.530480547147464"><ele>356.25</ele><time>2026-04-25T09:01:16Z</time></trkpt><trkpt lat="43.78977633022023" lon="12.530330140810523"><ele>355.0</ele><time>2026-04-25T09:01:17Z</time></trkpt><trkpt lat="43.78970669671551" lon="12.530178513532448"><ele>353.0</ele><time>2026-04-25T09:01:18Z</time></trkpt><trkpt lat="43.78964168966625" lon="12.530030156046836"><ele>351.0</ele><time>2026-04-25T09:01:19Z</time></trkpt><trkpt lat="43.7895808069403" lon="12.529884647594642"><ele>349.0</ele><time>2026-04-25T09:01:20Z</time></trkpt><trkpt lat="43.78951815542294" lon="12.529748251253041"><ele>347.0</ele><time>2026-04-25T09:01:21Z</time></trkpt><trkpt lat="43.789456310637604" lon="12.529637180965443"><ele>348.8</ele><time>2026-04-25T09:01:22Z</time></trkpt><trkpt lat="43.7893907065793" lon="12.529557268034342"><ele>350.6</ele><time>2026-04-25T09:01:23Z</time></trkpt><trkpt lat="43.78931871634182" lon="12.529523591270596"><ele>352.40000000000003</ele><time>2026-04-25T09:01:24Z</time></trkpt><trkpt lat="43.78923579810009" lon="12.529522740180415"><ele>354.20000000000005</ele><time>2026-04-25T09:01:25Z</time></trkpt><trkpt lat="43.78913676402063" lon="12.529527189360694"><ele>356.0</ele><time>2026-04-25T09:01:26Z</time></trkpt><trkpt lat="43.78902813814787" lon="12.529498304146506"><ele>356.0</ele><time>2026-04-25T09:01:27Z</time></trkpt><trkpt lat="43.78890766946197" lon="12.529477312685229"><ele>356.0</ele><time>2026-04-25T09:01:28Z</time></trkpt><trkpt lat="43.78877745649314" lon="12.52945467710132"><ele>356.0</ele><time>2026-04-25T09:01:29Z</time></trkpt><trkpt lat="43.788634189498666" lon="12.529457595476464"><ele>356.0</ele><time>2026-04-25T09:01:30Z</time></trkpt><trkpt lat="43.78849397860961" lon="12.529441825899525"><ele>358.8</ele><time>2026-04-25T09:01:31Z</time></trkpt><trkpt lat="43.7883672212759" lon="12.529413326858906"><ele>361.6</ele><time>2026-04-25T09:01:32Z</time></trkpt><trkpt lat="43.78826412024585" lon="12.529388789769161"><ele>364.4</ele><time>2026-04-25T09:01:33Z</time></trkpt><trkpt lat="43.78818857417502" lon="12.529323025425862"><ele>367.2</ele><time>2026-04-25T09:01:34Z</time></trkpt><trkpt lat="43.78813571865004" lon="12.52921611924439"><ele>370.0</ele><time>2026-04-25T09:01:35Z</time></trkpt><trkpt lat="43.78806882594247" lon="12.529115552182152"><ele>370.0</ele><time>2026-04-25T09:01:36Z</time></trkpt><trkpt lat="43.78799605230708" lon="12.529010833237523"><ele>370.0</ele><time>2026-04-25T09:01:37Z</time></trkpt><trkpt lat="43.78792303969913" lon="12.528906987224076"><ele>370.0</ele><time>2026-04-25T09:01:38Z</time></trkpt><trkpt lat="43.78784316069834" lon="12.528793375131988"><ele>370.0</ele><time>2026-04-25T09:01:39Z</time></trkpt><trkpt lat="43.787762474081624" lon="12.52867573973739"><ele>370.0</ele><time>2026-04-25T09:01:40Z</time></trkpt><trkpt lat="43.787683900402435" lon="12.528549170480767"><ele>372.75</ele><time>2026-04-25T09:01:41Z</time></trkpt><trkpt lat="43.78761273869279" lon="12.528415181206928"><ele>375.5</ele><time>2026-04-25T09:01:42Z</time></trkpt><trkpt lat="43.78755441677808" lon="12.528270107860923"><ele>378.25</ele><time>2026-04-25T09:01:43Z</time></trkpt><trkpt lat="43.78753597544248" lon="12.52810184358053"><ele>381.0</ele><time>2026-04-25T09:01:44Z</time></trkpt><trkpt lat="43.78750425903218" lon="12.52791757689243"><ele>382.75</ele><time>2026-04-25T09:01:45Z</time></trkpt><trkpt lat="43.78746796504221" lon="12.527751175144344"><ele>384.5</ele><time>2026-04-25T09:01:46Z</time></trkpt><trkpt lat="43.78740479081635" lon="12.527604455315512"><ele>386.25</ele><time>2026-04-25T09:01:47Z</time></trkpt><trkpt lat="43.78731530724161" lon="12.527480781672963"><ele>388.0</ele><time>2026-04-25T09:01:48Z</time></trkpt><trkpt lat="43.78723731299381" lon="12.527344387650581"><ele>388.0</ele><time>2026-04-25T09:01:49Z</time></trkpt><trkpt lat="43.78714869744951" lon="12.527212819079674"><ele>388.0</ele><time>2026-04-25T09:01:50Z</time></trkpt><trkpt lat="43.787060511679385" lon="12.52707277314554"><ele>388.0</ele><time>2026-04-25T09:01:51Z</time></trkpt><trkpt lat="43.7869710581231" lon="12.526933965793399"><ele>388.0</ele><time>2026-04-25T09:01:52Z</time></trkpt><trkpt lat="43.7868861643579" lon="12.526813572784434"><ele>390.79999999999995</ele><time>2026-04-25T09:01:53Z</time></trkpt><trkpt lat="43.78681598590861" lon="12.526721772277387"><ele>393.6</ele><time>2026-04-25T09:01:54Z</time></trkpt><trkpt lat="43.7867380652455" lon="12.526655392961338"><ele>396.4</ele><time>2026-04-25T09:01:55Z</time></trkpt><trkpt lat="43.786642980317026" lon="12.526616892185157"><ele>399.20000000000005</ele><time>2026-04-25T09:01:56Z</time></trkpt><trkpt lat="43.786537566993644" lon="12.526609203144588"><ele>402.0</ele><time>2026-04-25T09:01:57Z</time></trkpt><trkpt lat="43.78642140548986" lon="12.526617193704457"><ele>402.0</ele><time>2026-04-25T09:01:58Z</time></trkpt><trkpt lat="43.78630758887599" lon="12.526631613582644"><ele>402.0</ele><time>2026-04-25T09:01:59Z</time></trkpt><trkpt lat="43.78621690949621" lon="12.526651703533895"><ele>402.0</ele><time>2026-04-25T09:02:00Z</time></trkpt><trkpt lat="43.78613274053164" lon="12.526703209663687"><ele>402.0</ele><time>2026-04-25T09:02:01Z</time></trkpt><trkpt lat="43.78606332140289" lon="12.526792457599422"><ele>402.0</ele><time>2026-04-25T09:02:02Z</time></trkpt><trkpt lat="43.78599898661618" lon="12.526910703092973"><ele>403.25</ele><time>2026-04-25T09:02:03Z</time></trkpt><trkpt lat="43.78593544924783" lon="12.527050275967177"><ele>404.5</ele><time>2026-04-25T09:02:04Z</time></trkpt><trkpt lat="43.78586781518614" lon="12.52718710002488"><ele>405.75</ele><time>2026-04-25T09:02:05Z</time></trkpt><trkpt lat="43.785806403537485" lon="12.527330158223013"><ele>407.0</ele><time>2026-04-25T09:02:06Z</time></trkpt><trkpt lat="43.78574331578175" lon="12.527468898385147"><ele>407.0</ele><time>2026-04-25T09:02:07Z</time></trkpt><trkpt lat="43.785685640182734" lon="12.527605290196034"><ele>407.0</ele><time>2026-04-25T09:02:08Z</time></trkpt><trkpt lat="43.78562612886189" lon="12.527731492350108"><ele>407.0</ele><time>2026-04-25T09:02:09Z</time></trkpt><trkpt lat="43.78556259936002" lon="12.527849942782842"><ele>407.0</ele><time>2026-04-25T09:02:10Z</time></trkpt><trkpt lat="43.78548999008873" lon="12.527954493779285"><ele>407.0</ele><time>2026-04-25T09:02:11Z</time></trkpt><trkpt lat="43.78540674069884" lon="12.527999531616615"><ele>406.99999999999994</ele><time>2026-04-25T09:02:12Z</time></trkpt><trkpt lat="43.785337541264035" lon="12.528028451235835"><ele>407.0</ele><time>2026-04-25T09:02:13Z</time></trkpt><trkpt lat="43.785267723720146" lon="12.528028905930263"><ele>407.0</ele><time>2026-04-25T09:02:14Z</time></trkpt><trkpt lat="43.78518953083556" lon="12.527976600841658"><ele>407.0</ele><time>2026-04-25T09:02:15Z</time></trkpt><trkpt lat="43.78508761679642" lon="12.52795116050279"><ele>406.99999999999994</ele><time>2026-04-25T09:02:16Z</time></trkpt><trkpt lat="43.78497607535254" lon="12.527927183849759"><ele>407.0</ele><time>2026-04-25T09:02:17Z</time></trkpt><trkpt lat="43.784865863779814" lon="12.527943941470985"><ele>409.20000000000005</ele><time>2026-04-25T09:02:18Z</time></trkpt><trkpt lat="43.78476480889562" lon="12.527943444223956"><ele>411.4</ele><time>2026-04-25T09:02:19Z</time></trkpt><trkpt lat="43.78466291744019" lon="12.527960942361688"><ele>413.6</ele><time>2026-04-25T09:02:20Z</time></trkpt><trkpt lat="43.78454978151351" lon="12.52798886126934"><ele>415.79999999999995</ele><time>2026-04-25T09:02:21Z</time></trkpt><trkpt lat="43.784431699060704" lon="12.528011717685603"><ele>418.0</ele><time>2026-04-25T09:02:22Z</time></trkpt><trkpt lat="43.78431231098588" lon="12.527978855829556"><ele>419.25</ele><time>2026-04-25T09:02:23Z</time></trkpt><trkpt lat="43.78418961751701" lon="12.527943919154788"><ele>420.5</ele><time>2026-04-25T09:02:24Z</time></trkpt><trkpt lat="43.784083589899026" lon="12.527877463261047"><ele>421.75</ele><time>2026-04-25T09:02:25Z</time></trkpt><trkpt lat="43.78399948889627" lon="12.527799520746592"><ele>423.0</ele><time>2026-04-25T09:02:26Z</time></trkpt><trkpt lat="43.783903264913654" lon="12.527719565254849"><ele>423.0</ele><time>2026-04-25T09:02:27Z</time></trkpt><trkpt lat="43.78381653074949" lon="12.527674830048854"><ele>423.0</ele><time>2026-04-25T09:02:28Z</time></trkpt><trkpt lat="43.783737876813376" lon="12.527665974249151"><ele>423.0</ele><time>2026-04-25T09:02:29Z</time></trkpt><trkpt lat="43.78365700086104" lon="12.527659751397893"><ele>423.0</ele><time>2026-04-25T09:02:30Z</time></trkpt><trkpt lat="43.783567809470235" lon="12.527687234971458"><ele>423.0</ele><time>2026-04-25T09:02:31Z</time></trkpt><trkpt lat="43.783468822045464" lon="12.527741816913652"><ele>423.25</ele><time>2026-04-25T09:02:32Z</time></trkpt><trkpt lat="43.78335893628032" lon="12.527820979606572"><ele>423.5</ele><time>2026-04-25T09:02:33Z</time></trkpt><trkpt lat="43.78324235121152" lon="12.52790249976145"><ele>423.75</ele><time>2026-04-25T09:02:34Z</time></trkpt><trkpt lat="43.783136648208064" lon="12.527967733951485"><ele>424.0</ele><time>2026-04-25T09:02:35Z</time></trkpt><trkpt lat="43.78302949132319" lon="12.528001482227207"><ele>427.0</ele><time>2026-04-25T09:02:36Z</time></trkpt><trkpt lat="43.78290745790123" lon="12.527980161103395"><ele>430.0</ele><time>2026-04-25T09:02:37Z</time></trkpt><trkpt lat="43.78277384000029" lon="12.527960396959777"><ele>433.0</ele><time>2026-04-25T09:02:38Z</time></trkpt><trkpt lat="43.782627589128154" lon="12.52792981326522"><ele>436.0</ele><time>2026-04-25T09:02:39Z</time></trkpt><trkpt lat="43.782483573549385" lon="12.527910088632026"><ele>438.75</ele><time>2026-04-25T09:02:40Z</time></trkpt><trkpt lat="43.782341586732116" lon="12.527932959282559"><ele>441.5</ele><time>2026-04-25T09:02:41Z</time></trkpt><trkpt lat="43.78219733862752" lon="12.527944844953964"><ele>444.25</ele><time>2026-04-25T09:02:42Z</time></trkpt><trkpt lat="43.78205031753395" lon="12.527970267734446"><ele>447.0</ele><time>2026-04-25T09:02:43Z</time></trkpt><trkpt lat="43.78190811964919" lon="12.528008628731971"><ele>447.0</ele><time>2026-04-25T09:02:44Z</time></trkpt><trkpt lat="43.78175515588471" lon="12.528054736526812"><ele>447.0</ele><time>2026-04-25T09:02:45Z</time></trkpt><trkpt lat="43.78159753520746" lon="12.528106701586918"><ele>447.0</ele><time>2026-04-25T09:02:46Z</time></trkpt><trkpt lat="43.781442400350016" lon="12.528161147296977"><ele>447.0</ele><time>2026-04-25T09:02:47Z</time></trkpt><trkpt lat="43.7812937422189" lon="12.528222287040565"><ele>447.0</ele><time>2026-04-25T09:02:48Z</time></trkpt><trkpt lat="43.78114275435326" lon="12.528313801384083"><ele>447.0</ele><time>2026-04-25T09:02:49Z</time></trkpt><trkpt lat="43.780986277543114" lon="12.528421410797176"><ele>442.0</ele><time>2026-04-25T09:02:50Z</time></trkpt><trkpt lat="43.78082582300232" lon="12.528524487262278"><ele>437.0</ele><time>2026-04-25T09:02:51Z</time></trkpt><trkpt lat="43.78066627889548" lon="12.528596676011322"><ele>432.0</ele><time>2026-04-25T09:02:52Z</time></trkpt><trkpt lat="43.780542708415624" lon="12.528687230204323"><ele>435.20000000000005</ele><time>2026-04-25T09:02:53Z</time></trkpt><trkpt lat="43.78044361417829" lon="12.528744528246323"><ele>438.40000000000003</ele><time>2026-04-25T09:02:54Z</time></trkpt><trkpt lat="43.78037200029844" lon="12.528797183394177"><ele>441.59999999999997</ele><time>2026-04-25T09:02:55Z</time></trkpt><trkpt lat="43.78032214697032" lon="12.528865422196084"><ele>444.79999999999995</ele><time>2026-04-25T09:02:56Z</time></trkpt><trkpt lat="43.78026211364316" lon="12.528964193660972"><ele>448.0</ele><time>2026-04-25T09:02:57Z</time></trkpt><trkpt lat="43.78021416688603" lon="12.52908341960848"><ele>445.59999999999997</ele><time>2026-04-25T09:02:58Z</time></trkpt><trkpt lat="43.78017476916517" lon="12.529206478159688"><ele>443.19999999999993</ele><time>2026-04-25T09:02:59Z</time></trkpt><trkpt lat="43.78015320707506" lon="12.529322244837063"><ele>440.8</ele><time>2026-04-25T09:03:00Z</time></trkpt><trkpt lat="43.78017240155907" lon="12.529443410766424"><ele>438.4</ele><time>2026-04-25T09:03:01Z</time></trkpt><trkpt lat="43.78015874831599" lon="12.529559499153498"><ele>436.0</ele><time>2026-04-25T09:03:03Z</time></trkpt><trkpt lat="43.78019067924994" lon="12.529698403056246"><ele>436.0</ele><time>2026-04-25T09:03:05Z</time></trkpt><trkpt lat="43.78028692308018" lon="12.52981825677871"><ele>436.0</ele><time>2026-04-25T09:03:07Z</time></trkpt><trkpt lat="43.78039339968088" lon="12.529884916046553"><ele>436.0</ele><time>2026-04-25T09:03:09Z</time></trkpt><trkpt lat="43.78052682361299" lon="12.529877028833317"><ele>436.0</ele><time>2026-04-25T09:03:11Z</time></trkpt><trkpt lat="43.78062156564813" lon="12.529848344870485"><ele>436.0</ele><time>2026-04-25T09:03:12Z</time></trkpt><trkpt lat="43.7807380826352" lon="12.529820452699495"><ele>436.0</ele><time>2026-04-25T09:03:13Z</time></trkpt><trkpt lat="43.78086402893892" lon="12.52980810236665"><ele>436.0</ele><time>2026-04-25T09:03:14Z</time></trkpt><trkpt lat="43.78098779621318" lon="12.529813566870747"><ele>436.0</ele><time>2026-04-25T09:03:15Z</time></trkpt><trkpt lat="43.78109296452322" lon="12.529842406699748"><ele>437.5</ele><time>2026-04-25T09:03:16Z</time></trkpt><trkpt lat="43.781180058071804" lon="12.529942770056541"><ele>439.0</ele><time>2026-04-25T09:03:17Z</time></trkpt><trkpt lat="43.78128051455273" lon="12.53001963452187"><ele>440.5</ele><time>2026-04-25T09:03:18Z</time></trkpt><trkpt lat="43.78136708804486" lon="12.53015968388792"><ele>442.0</ele><time>2026-04-25T09:03:19Z</time></trkpt><trkpt lat="43.78142459836635" lon="12.530339074843914"><ele>439.5</ele><time>2026-04-25T09:03:20Z</time></trkpt><trkpt lat="43.781479069396866" lon="12.530513045146513"><ele>437.0</ele><time>2026-04-25T09:03:21Z</time></trkpt><trkpt lat="43.78153061213148" lon="12.530685727476099"><ele>434.5</ele><time>2026-04-25T09:03:22Z</time></trkpt><trkpt lat="43.781566243573835" lon="12.530885100738496"><ele>432.0</ele><time>2026-04-25T09:03:23Z</time></trkpt><trkpt lat="43.781606791754726" lon="12.531080103115727"><ele>430.0</ele><time>2026-04-25T09:03:24Z</time></trkpt><trkpt lat="43.78163555163007" lon="12.53125360206258"><ele>428.0</ele><time>2026-04-25T09:03:25Z</time></trkpt><trkpt lat="43.78166112572975" lon="12.531418011398221"><ele>426.0</ele><time>2026-04-25T09:03:26Z</time></trkpt><trkpt lat="43.78167376076656" lon="12.53156947374835"><ele>424.0</ele><time>2026-04-25T09:03:27Z</time></trkpt><trkpt lat="43.78167961663601" lon="12.531736230175555"><ele>424.0</ele><time>2026-04-25T09:03:28Z</time></trkpt><trkpt lat="43.7816836103564" lon="12.531920986287382"><ele>424.0</ele><time>2026-04-25T09:03:29Z</time></trkpt><trkpt lat="43.78169149686794" lon="12.532129432003543"><ele>424.0</ele><time>2026-04-25T09:03:30Z</time></trkpt><trkpt lat="43.78170484269243" lon="12.532318396131277"><ele>424.0</ele><time>2026-04-25T09:03:31Z</time></trkpt><trkpt lat="43.78171876089683" lon="12.532489431342242"><ele>423.6</ele><time>2026-04-25T09:03:32Z</time></trkpt><trkpt lat="43.781707061234584" lon="12.532638241516256"><ele>423.2</ele><time>2026-04-25T09:03:33Z</time></trkpt><trkpt lat="43.7817324705541" lon="12.532769337048121"><ele>422.8</ele><time>2026-04-25T09:03:34Z</time></trkpt><trkpt lat="43.78175390149044" lon="12.532885982252532"><ele>422.40000000000003</ele><time>2026-04-25T09:03:35Z</time></trkpt><trkpt lat="43.78179999345665" lon="12.53300221961689"><ele>422.0</ele><time>2026-04-25T09:03:36Z</time></trkpt><trkpt lat="43.78186194067488" lon="12.53312266165859"><ele>420.8</ele><time>2026-04-25T09:03:37Z</time></trkpt><trkpt lat="43.78190853368467" lon="12.533214956872387"><ele>419.6</ele><time>2026-04-25T09:03:38Z</time></trkpt><trkpt lat="43.781936066927976" lon="12.533329278834872"><ele>418.40000000000003</ele><time>2026-04-25T09:03:39Z</time></trkpt><trkpt lat="43.78192394599734" lon="12.533452655740867"><ele>417.20000000000005</ele><time>2026-04-25T09:03:40Z</time></trkpt><trkpt lat="43.781871205766905" lon="12.533554862558024"><ele>416.0</ele><time>2026-04-25T09:03:41Z</time></trkpt><trkpt lat="43.78183007904597" lon="12.533703395131269"><ele>413.5</ele><time>2026-04-25T09:03:42Z</time></trkpt><trkpt lat="43.781801422051856" lon="12.533840755717028"><ele>411.0</ele><time>2026-04-25T09:03:43Z</time></trkpt><trkpt lat="43.781802602865895" lon="12.534018573317082"><ele>408.5</ele><time>2026-04-25T09:03:44Z</time></trkpt><trkpt lat="43.78183540991085" lon="12.534173168904974"><ele>406.0</ele><time>2026-04-25T09:03:45Z</time></trkpt><trkpt lat="43.781867121845465" lon="12.534355464942934"><ele>405.20000000000005</ele><time>2026-04-25T09:03:46Z</time></trkpt><trkpt lat="43.781899518128576" lon="12.534520103389514"><ele>404.40000000000003</ele><time>2026-04-25T09:03:47Z</time></trkpt><trkpt lat="43.78192839228064" lon="12.534676862498465"><ele>403.6</ele><time>2026-04-25T09:03:48Z</time></trkpt><trkpt lat="43.78195529479865" lon="12.534820355732744"><ele>402.8</ele><time>2026-04-25T09:03:49Z</time></trkpt><trkpt lat="43.78198451188339" lon="12.534948376086904"><ele>402.0</ele><time>2026-04-25T09:03:50Z</time></trkpt><trkpt lat="43.78201566130825" lon="12.535124363832114"><ele>401.0</ele><time>2026-04-25T09:03:51Z</time></trkpt><trkpt lat="43.78204226835389" lon="12.535240680348428"><ele>400.0</ele><time>2026-04-25T09:03:52Z</time></trkpt><trkpt lat="43.78210652080029" lon="12.535401564730325"><ele>399.0</ele><time>2026-04-25T09:03:54Z</time></trkpt><trkpt lat="43.78214209696836" lon="12.535484374568044"><ele>398.0</ele><time>2026-04-25T09:03:55Z</time></trkpt><trkpt lat="43.782175545766634" lon="12.535574345868127"><ele>397.0</ele><time>2026-04-25T09:03:57Z</time></trkpt><trkpt lat="43.78204076190943" lon="12.535672213583556"><ele>397.0</ele><time>2026-04-25T09:03:58Z</time></trkpt><trkpt lat="43.781963617360276" lon="12.535751196124696"><ele>397.0</ele><time>2026-04-25T09:03:59Z</time></trkpt><trkpt lat="43.781869269211775" lon="12.535849124809278"><ele>397.0</ele><time>2026-04-25T09:04:00Z</time></trkpt><trkpt lat="43.78177338698588" lon="12.535955393237886"><ele>397.0</ele><time>2026-04-25T09:04:01Z</time></trkpt><trkpt lat="43.78167356160594" lon="12.53604847758793"><ele>399.0</ele><time>2026-04-25T09:04:02Z</time></trkpt><trkpt lat="43.78156844671191" lon="12.536127626625303"><ele>401.0</ele><time>2026-04-25T09:04:03Z</time></trkpt><trkpt lat="43.781460884410414" lon="12.536179925471364"><ele>403.0</ele><time>2026-04-25T09:04:04Z</time></trkpt><trkpt lat="43.781345241160274" lon="12.536234751881501"><ele>405.0</ele><time>2026-04-25T09:04:05Z</time></trkpt><trkpt lat="43.781231610776906" lon="12.536288623888675"><ele>406.75</ele><time>2026-04-25T09:04:06Z</time></trkpt><trkpt lat="43.781126099466086" lon="12.536338648630672"><ele>408.5</ele><time>2026-04-25T09:04:07Z</time></trkpt><trkpt lat="43.78102380998671" lon="12.536436669508044"><ele>410.25</ele><time>2026-04-25T09:04:08Z</time></trkpt><trkpt lat="43.78092936108117" lon="12.53654699444292"><ele>412.0</ele><time>2026-04-25T09:04:09Z</time></trkpt><trkpt lat="43.780822167194025" lon="12.536647139855413"><ele>407.25</ele><time>2026-04-25T09:04:10Z</time></trkpt><trkpt lat="43.780707097822585" lon="12.53668659631962"><ele>402.5</ele><time>2026-04-25T09:04:11Z</time></trkpt><trkpt lat="43.78059098667221" lon="12.536746181747839"><ele>397.75</ele><time>2026-04-25T09:04:12Z</time></trkpt><trkpt lat="43.780488468873585" lon="12.536816017401918"><ele>393.0</ele><time>2026-04-25T09:04:13Z</time></trkpt><trkpt lat="43.78039359331022" lon="12.536911604990784"><ele>393.0</ele><time>2026-04-25T09:04:14Z</time></trkpt><trkpt lat="43.78029000660389" lon="12.53698534635327"><ele>393.0</ele><time>2026-04-25T09:04:15Z</time></trkpt><trkpt lat="43.780184396582044" lon="12.53701540897889"><ele>393.0</ele><time>2026-04-25T09:04:16Z</time></trkpt><trkpt lat="43.780078514307505" lon="12.537046588635986"><ele>393.0</ele><time>2026-04-25T09:04:17Z</time></trkpt><trkpt lat="43.779963374698944" lon="12.537069270118108"><ele>393.0</ele><time>2026-04-25T09:04:18Z</time></trkpt><trkpt lat="43.77985800801985" lon="12.537030596728224"><ele>389.25</ele><time>2026-04-25T09:04:19Z</time></trkpt><trkpt lat="43.77973095658882" lon="12.536988058102084"><ele>385.5</ele><time>2026-04-25T09:04:20Z</time></trkpt><trkpt lat="43.779614005124635" lon="12.53695320555239"><ele>381.75</ele><time>2026-04-25T09:04:21Z</time></trkpt><trkpt lat="43.779503832047354" lon="12.536936548550461"><ele>378.0</ele><time>2026-04-25T09:04:22Z</time></trkpt><trkpt lat="43.77939481429542" lon="12.536967011526059"><ele>377.59999999999997</ele><time>2026-04-25T09:04:23Z</time></trkpt><trkpt lat="43.7793018797955" lon="12.536993661703725"><ele>377.2</ele><time>2026-04-25T09:04:24Z</time></trkpt><trkpt lat="43.77920606104148" lon="12.53703785548936"><ele>376.8</ele><time>2026-04-25T09:04:25Z</time></trkpt><trkpt lat="43.779103833967454" lon="12.537119661024267"><ele>376.4</ele><time>2026-04-25T09:04:26Z</time></trkpt><trkpt lat="43.77900399179501" lon="12.53721306081236"><ele>376.0</ele><time>2026-04-25T09:04:27Z</time></trkpt><trkpt lat="43.778916513831234" lon="12.537290662565116"><ele>376.0</ele><time>2026-04-25T09:04:28Z</time></trkpt><trkpt lat="43.77883451581824" lon="12.537334412912942"><ele>376.0</ele><time>2026-04-25T09:04:29Z</time></trkpt><trkpt lat="43.77878012488202" lon="12.5374177104466"><ele>376.0</ele><time>2026-04-25T09:04:30Z</time></trkpt><trkpt lat="43.77875016421984" lon="12.53753008084872"><ele>376.0</ele><time>2026-04-25T09:04:32Z</time></trkpt><trkpt lat="43.77877041311545" lon="12.537705832404614"><ele>376.0</ele><time>2026-04-25T09:04:34Z</time></trkpt><trkpt lat="43.77880477417867" lon="12.53780218710425"><ele>373.75</ele><time>2026-04-25T09:04:35Z</time></trkpt><trkpt lat="43.77886400696121" lon="12.537933045673789"><ele>371.5</ele><time>2026-04-25T09:04:36Z</time></trkpt><trkpt lat="43.77895849241057" lon="12.53807324952379"><ele>369.25</ele><time>2026-04-25T09:04:37Z</time></trkpt><trkpt lat="43.77901621213896" lon="12.538232994551871"><ele>367.0</ele><time>2026-04-25T09:04:38Z</time></trkpt><trkpt lat="43.77907252987884" lon="12.538390009654286"><ele>367.0</ele><time>2026-04-25T09:04:39Z</time></trkpt><trkpt lat="43.77909108613916" lon="12.538550846475827"><ele>367.0</ele><time>2026-04-25T09:04:40Z</time></trkpt><trkpt lat="43.779055096394096" lon="12.538711883499634"><ele>367.0</ele><time>2026-04-25T09:04:41Z</time></trkpt><trkpt lat="43.779037399166114" lon="12.538866453208957"><ele>367.0</ele><time>2026-04-25T09:04:42Z</time></trkpt><trkpt lat="43.77904146270846" lon="12.539006542846481"><ele>364.40000000000003</ele><time>2026-04-25T09:04:43Z</time></trkpt><trkpt lat="43.7790857720427" lon="12.53910621378694"><ele>361.8</ele><time>2026-04-25T09:04:44Z</time></trkpt><trkpt lat="43.77913592739646" lon="12.539197945570589"><ele>359.2</ele><time>2026-04-25T09:04:45Z</time></trkpt><trkpt lat="43.77921527464955" lon="12.539316234777205"><ele>356.6</ele><time>2026-04-25T09:04:46Z</time></trkpt><trkpt lat="43.779317561817635" lon="12.539474706119476"><ele>354.0</ele><time>2026-04-25T09:04:47Z</time></trkpt><trkpt lat="43.77941379012333" lon="12.539633512291653"><ele>353.25</ele><time>2026-04-25T09:04:48Z</time></trkpt><trkpt lat="43.779454216868345" lon="12.539814121733146"><ele>352.5</ele><time>2026-04-25T09:04:49Z</time></trkpt><trkpt lat="43.779493598692845" lon="12.540009013094133"><ele>351.75</ele><time>2026-04-25T09:04:50Z</time></trkpt><trkpt lat="43.7795195156606" lon="12.540192917020823"><ele>351.0</ele><time>2026-04-25T09:04:51Z</time></trkpt><trkpt lat="43.779567839750364" lon="12.540360653136768"><ele>349.25</ele><time>2026-04-25T09:04:52Z</time></trkpt><trkpt lat="43.779638800775324" lon="12.5405324802113"><ele>347.5</ele><time>2026-04-25T09:04:53Z</time></trkpt><trkpt lat="43.77972233283919" lon="12.540698147894197"><ele>345.75</ele><time>2026-04-25T09:04:54Z</time></trkpt><trkpt lat="43.77979893546712" lon="12.540846063365766"><ele>344.0</ele><time>2026-04-25T09:04:55Z</time></trkpt><trkpt lat="43.77982829128184" lon="12.54104307892516"><ele>344.6666666666667</ele><time>2026-04-25T09:04:56Z</time></trkpt><trkpt lat="43.77986738231425" lon="12.541266255007846"><ele>345.3333333333333</ele><time>2026-04-25T09:04:57Z</time></trkpt><trkpt lat="43.77995937111556" lon="12.541466629659451"><ele>346.0</ele><time>2026-04-25T09:04:58Z</time></trkpt><trkpt lat="43.78002197026222" lon="12.541666107475798"><ele>346.0</ele><time>2026-04-25T09:04:59Z</time></trkpt><trkpt lat="43.78004337641944" lon="12.541849875657912"><ele>346.0</ele><time>2026-04-25T09:05:00Z</time></trkpt><trkpt lat="43.78005190336131" lon="12.542003652609385"><ele>346.0</ele><time>2026-04-25T09:05:01Z</time></trkpt><trkpt lat="43.78003941867534" lon="12.542125654171443"><ele>346.0</ele><time>2026-04-25T09:05:02Z</time></trkpt><trkpt lat="43.780011608948705" lon="12.542237900930225"><ele>346.0</ele><time>2026-04-25T09:05:03Z</time></trkpt><trkpt lat="43.77998588676977" lon="12.54232982573829"><ele>347.0</ele><time>2026-04-25T09:05:04Z</time></trkpt><trkpt lat="43.779925098852374" lon="12.542356952836814"><ele>348.0</ele><time>2026-04-25T09:05:05Z</time></trkpt><trkpt lat="43.77985232221245" lon="12.542412256372812"><ele>349.0</ele><time>2026-04-25T09:05:06Z</time></trkpt><trkpt lat="43.77974973281357" lon="12.542478378690857"><ele>350.0</ele><time>2026-04-25T09:05:07Z</time></trkpt><trkpt lat="43.77963838305926" lon="12.542544114254088"><ele>351.0</ele><time>2026-04-25T09:05:08Z</time></trkpt><trkpt lat="43.77955077326425" lon="12.542617282359144"><ele>351.0</ele><time>2026-04-25T09:05:09Z</time></trkpt><trkpt lat="43.77946117182503" lon="12.542663735398525"><ele>351.0</ele><time>2026-04-25T09:05:10Z</time></trkpt><trkpt lat="43.7793896437267" lon="12.542704304752284"><ele>351.0</ele><time>2026-04-25T09:05:11Z</time></trkpt><trkpt lat="43.77932426554641" lon="12.542725000206659"><ele>351.0</ele><time>2026-04-25T09:05:12Z</time></trkpt><trkpt lat="43.7792514462054" lon="12.542779592110621"><ele>351.0</ele><time>2026-04-25T09:05:14Z</time></trkpt><trkpt lat="43.77919156309669" lon="12.542815950463895"><ele>351.0</ele><time>2026-04-25T09:05:37Z</time></trkpt><trkpt lat="43.779096037462615" lon="12.542768481204329"><ele>348.0</ele><time>2026-04-25T09:05:40Z</time></trkpt><trkpt lat="43.778996476245126" lon="12.542680515176123"><ele>345.0</ele><time>2026-04-25T09:05:42Z</time></trkpt><trkpt lat="43.77891312488377" lon="12.542583974800621"><ele>342.0</ele><time>2026-04-25T09:05:44Z</time></trkpt><trkpt lat="43.778793974213144" lon="12.54259508905467"><ele>339.0</ele><time>2026-04-25T09:05:46Z</time></trkpt><trkpt lat="43.778717995185644" lon="12.542606797214203"><ele>336.0</ele><time>2026-04-25T09:05:47Z</time></trkpt><trkpt lat="43.77864373283968" lon="12.542628447265981"><ele>336.0</ele><time>2026-04-25T09:05:48Z</time></trkpt><trkpt lat="43.77856859167113" lon="12.542644888206018"><ele>336.0</ele><time>2026-04-25T09:05:49Z</time></trkpt><trkpt lat="43.77850136710576" lon="12.542657388804354"><ele>336.0</ele><time>2026-04-25T09:05:50Z</time></trkpt><trkpt lat="43.77843912191476" lon="12.542672176736385"><ele>336.0</ele><time>2026-04-25T09:05:51Z</time></trkpt><trkpt lat="43.77835301585782" lon="12.542712459933814"><ele>336.0</ele><time>2026-04-25T09:05:52Z</time></trkpt><trkpt lat="43.778270788112174" lon="12.542781488776674"><ele>336.0</ele><time>2026-04-25T09:05:53Z</time></trkpt><trkpt lat="43.77818684408217" lon="12.542864306617973"><ele>335.0</ele><time>2026-04-25T09:05:54Z</time></trkpt><trkpt lat="43.778094404760864" lon="12.542949728088265"><ele>334.0</ele><time>2026-04-25T09:05:55Z</time></trkpt><trkpt lat="43.77799003068377" lon="12.543009217790766"><ele>333.0</ele><time>2026-04-25T09:05:56Z</time></trkpt><trkpt lat="43.77789014363062" lon="12.54308739506223"><ele>332.0</ele><time>2026-04-25T09:05:57Z</time></trkpt><trkpt lat="43.777793820372935" lon="12.5431631948788"><ele>331.0</ele><time>2026-04-25T09:05:58Z</time></trkpt><trkpt lat="43.77772050898216" lon="12.543252039649703"><ele>329.8333333333333</ele><time>2026-04-25T09:05:59Z</time></trkpt><trkpt lat="43.77765966551725" lon="12.543309891315053"><ele>328.66666666666663</ele><time>2026-04-25T09:06:00Z</time></trkpt><trkpt lat="43.77758248552907" lon="12.54340569798563"><ele>327.5</ele><time>2026-04-25T09:06:02Z</time></trkpt><trkpt lat="43.7775821735144" lon="12.543528412778334"><ele>326.3333333333333</ele><time>2026-04-25T09:06:04Z</time></trkpt><trkpt lat="43.77763604053906" lon="12.54360742843496"><ele>325.1666666666667</ele><time>2026-04-25T09:06:06Z</time></trkpt><trkpt lat="43.777675175184534" lon="12.54367589158007"><ele>324.0</ele><time>2026-04-25T09:06:08Z</time></trkpt><trkpt lat="43.777698168138464" lon="12.5437749957571"><ele>324.0</ele><time>2026-04-25T09:06:11Z</time></trkpt><trkpt lat="43.7776972253466" lon="12.543876172544094"><ele>324.0</ele><time>2026-04-25T09:06:15Z</time></trkpt><trkpt lat="43.777640089542366" lon="12.543917508274664"><ele>324.0</ele><time>2026-04-25T09:06:25Z</time></trkpt><trkpt lat="43.77756853951356" lon="12.543906488196809"><ele>324.0</ele><time>2026-04-25T09:06:30Z</time></trkpt><trkpt lat="43.77749711254811" lon="12.543927579948058"><ele>324.0</ele><time>2026-04-25T09:06:34Z</time></trkpt><trkpt lat="43.777424548510915" lon="12.543916903346165"><ele>324.0</ele><time>2026-04-25T09:06:37Z</time></trkpt><trkpt lat="43.77735255311408" lon="12.5438414985069"><ele>324.0</ele><time>2026-04-25T09:06:40Z</time></trkpt><trkpt lat="43.77728955796359" lon="12.543776353057032"><ele>322.59999999999997</ele><time>2026-04-25T09:06:42Z</time></trkpt><trkpt lat="43.777192772328476" lon="12.54376781139562"><ele>321.2</ele><time>2026-04-25T09:06:44Z</time></trkpt><trkpt lat="43.77712067490097" lon="12.54381272204514"><ele>319.79999999999995</ele><time>2026-04-25T09:06:45Z</time></trkpt><trkpt lat="43.77705789362159" lon="12.543853527215004"><ele>318.4</ele><time>2026-04-25T09:06:46Z</time></trkpt><trkpt lat="43.77696323070436" lon="12.543898808116131"><ele>317.0</ele><time>2026-04-25T09:06:48Z</time></trkpt><trkpt lat="43.7768698865061" lon="12.543984577846674"><ele>314.0</ele><time>2026-04-25T09:06:50Z</time></trkpt><trkpt lat="43.776821781931794" lon="12.544109650257884"><ele>311.0</ele><time>2026-04-25T09:06:52Z</time></trkpt><trkpt lat="43.776787773812764" lon="12.544192644676345"><ele>308.0</ele><time>2026-04-25T09:06:53Z</time></trkpt><trkpt lat="43.77674338758362" lon="12.54429372103785"><ele>305.0</ele><time>2026-04-25T09:06:54Z</time></trkpt><trkpt lat="43.77669223231959" lon="12.544400509973439"><ele>302.0</ele><time>2026-04-25T09:06:55Z</time></trkpt><trkpt lat="43.77662302606953" lon="12.54449824407426"><ele>299.0</ele><time>2026-04-25T09:06:56Z</time></trkpt><trkpt lat="43.77655984277848" lon="12.544590721204598"><ele>298.59999999999997</ele><time>2026-04-25T09:06:57Z</time></trkpt><trkpt lat="43.77648653473502" lon="12.544690179042105"><ele>298.2</ele><time>2026-04-25T09:06:58Z</time></trkpt><trkpt lat="43.77640933754507" lon="12.544792474891386"><ele>297.79999999999995</ele><time>2026-04-25T09:06:59Z</time></trkpt><trkpt lat="43.776339785764655" lon="12.544882228853586"><ele>297.4</ele><time>2026-04-25T09:07:00Z</time></trkpt><trkpt lat="43.77627505885754" lon="12.544968466911733"><ele>297.0</ele><time>2026-04-25T09:07:01Z</time></trkpt><trkpt lat="43.77622861386716" lon="12.545067178728285"><ele>297.0</ele><time>2026-04-25T09:07:02Z</time></trkpt><trkpt lat="43.77615165989003" lon="12.545143338716167"><ele>297.0</ele><time>2026-04-25T09:07:03Z</time></trkpt><trkpt lat="43.77609072893957" lon="12.545210862220992"><ele>297.0</ele><time>2026-04-25T09:07:04Z</time></trkpt><trkpt lat="43.77602771024044" lon="12.545255695914637"><ele>297.0</ele><time>2026-04-25T09:07:05Z</time></trkpt><trkpt lat="43.775962447159934" lon="12.545295424878155"><ele>297.0</ele><time>2026-04-25T09:07:06Z</time></trkpt><trkpt lat="43.7758964576108" lon="12.545333835119896"><ele>297.0</ele><time>2026-04-25T09:07:07Z</time></trkpt><trkpt lat="43.775836354483154" lon="12.54537003245479"><ele>295.1666666666667</ele><time>2026-04-25T09:07:08Z</time></trkpt><trkpt lat="43.77574891580799" lon="12.545426722511866"><ele>293.3333333333333</ele><time>2026-04-25T09:07:10Z</time></trkpt><trkpt lat="43.775666168983044" lon="12.545483846901945"><ele>291.5</ele><time>2026-04-25T09:07:12Z</time></trkpt><trkpt lat="43.77559125512782" lon="12.545543088142233"><ele>289.66666666666663</ele><time>2026-04-25T09:07:14Z</time></trkpt><trkpt lat="43.77550476629989" lon="12.545619991448048"><ele>287.8333333333333</ele><time>2026-04-25T09:07:16Z</time></trkpt><trkpt lat="43.77545050314397" lon="12.54567973399458"><ele>286.0</ele><time>2026-04-25T09:07:17Z</time></trkpt><trkpt lat="43.77540232961229" lon="12.54576758644766"><ele>286.0</ele><time>2026-04-25T09:07:18Z</time></trkpt><trkpt lat="43.77535291480374" lon="12.545834474161259"><ele>286.0</ele><time>2026-04-25T09:07:19Z</time></trkpt><trkpt lat="43.775287368174965" lon="12.545944260783077"><ele>286.0</ele><time>2026-04-25T09:07:20Z</time></trkpt><trkpt lat="43.775245117979054" lon="12.546062844199911"><ele>286.0</ele><time>2026-04-25T09:07:21Z</time></trkpt><trkpt lat="43.77518608915059" lon="12.546167882569964"><ele>286.0</ele><time>2026-04-25T09:07:22Z</time></trkpt><trkpt lat="43.77515753470151" lon="12.546295688249026"><ele>282.16666666666663</ele><time>2026-04-25T09:07:23Z</time></trkpt><trkpt lat="43.775105197111365" lon="12.546405357056699"><ele>278.3333333333333</ele><time>2026-04-25T09:07:24Z</time></trkpt><trkpt lat="43.77505156192037" lon="12.54650167608257"><ele>274.5</ele><time>2026-04-25T09:07:25Z</time></trkpt><trkpt lat="43.77499355482761" lon="12.546603152826862"><ele>270.6666666666667</ele><time>2026-04-25T09:07:26Z</time></trkpt><trkpt lat="43.77493652502418" lon="12.54669486728013"><ele>266.83333333333337</ele><time>2026-04-25T09:07:27Z</time></trkpt><trkpt lat="43.77487767610044" lon="12.54677343955847"><ele>263.0</ele><time>2026-04-25T09:07:28Z</time></trkpt><trkpt lat="43.77481588023768" lon="12.546845826588985"><ele>263.0</ele><time>2026-04-25T09:07:29Z</time></trkpt><trkpt lat="43.774771932394856" lon="12.5469113092132"><ele>263.0</ele><time>2026-04-25T09:07:30Z</time></trkpt><trkpt lat="43.77473836949296" lon="12.546985689588398"><ele>263.0</ele><time>2026-04-25T09:07:31Z</time></trkpt><trkpt lat="43.77471616236196" lon="12.547073452611762"><ele>263.0</ele><time>2026-04-25T09:07:32Z</time></trkpt><trkpt lat="43.77470847612309" lon="12.547172863606246"><ele>263.0</ele><time>2026-04-25T09:07:33Z</time></trkpt><trkpt lat="43.774678645234744" lon="12.547291647319286"><ele>263.0</ele><time>2026-04-25T09:07:35Z</time></trkpt><trkpt lat="43.774561921722935" lon="12.54729844176133"><ele>260.6666666666667</ele><time>2026-04-25T09:07:37Z</time></trkpt><trkpt lat="43.774490863083315" lon="12.547304810024022"><ele>258.33333333333337</ele><time>2026-04-25T09:07:38Z</time></trkpt><trkpt lat="43.7744204296244" lon="12.547302473856176"><ele>256.0</ele><time>2026-04-25T09:07:39Z</time></trkpt><trkpt lat="43.77434277933353" lon="12.54729303832894"><ele>253.66666666666669</ele><time>2026-04-25T09:07:40Z</time></trkpt><trkpt lat="43.77426163511939" lon="12.547283125696204"><ele>251.33333333333334</ele><time>2026-04-25T09:07:41Z</time></trkpt><trkpt lat="43.77418091765927" lon="12.547254411769224"><ele>249.0</ele><time>2026-04-25T09:07:42Z</time></trkpt><trkpt lat="43.77412183598029" lon="12.547205817698286"><ele>246.33333333333334</ele><time>2026-04-25T09:07:43Z</time></trkpt><trkpt lat="43.77403665358626" lon="12.547074723984846"><ele>243.66666666666669</ele><time>2026-04-25T09:07:45Z</time></trkpt><trkpt lat="43.77399990681551" lon="12.546992436293044"><ele>241.0</ele><time>2026-04-25T09:07:46Z</time></trkpt><trkpt lat="43.77398472486523" lon="12.546838379872467"><ele>238.33333333333334</ele><time>2026-04-25T09:07:48Z</time></trkpt><trkpt lat="43.77398072505023" lon="12.54674865985191"><ele>235.66666666666669</ele><time>2026-04-25T09:07:49Z</time></trkpt><trkpt lat="43.774005816946065" lon="12.546665298880427"><ele>233.0</ele><time>2026-04-25T09:07:50Z</time></trkpt><trkpt lat="43.77397257514656" lon="12.546527255350886"><ele>233.0</ele><time>2026-04-25T09:07:52Z</time></trkpt><trkpt lat="43.773879057415705" lon="12.54650204411264"><ele>233.0</ele><time>2026-04-25T09:07:53Z</time></trkpt><trkpt lat="43.77380374932573" lon="12.546572221596227"><ele>233.0</ele><time>2026-04-25T09:07:54Z</time></trkpt><trkpt lat="43.773687761781666" lon="12.546642467774939"><ele>233.0</ele><time>2026-04-25T09:07:56Z</time></trkpt><trkpt lat="43.77359609859521" lon="12.546684198674035"><ele>233.0</ele><time>2026-04-25T09:07:57Z</time></trkpt><trkpt lat="43.7734882885336" lon="12.546720066829588"><ele>229.33333333333334</ele><time>2026-04-25T09:07:58Z</time></trkpt><trkpt lat="43.773397787514114" lon="12.546754158467936"><ele>225.66666666666669</ele><time>2026-04-25T09:07:59Z</time></trkpt><trkpt lat="43.773313810348235" lon="12.546762963805929"><ele>222.0</ele><time>2026-04-25T09:08:00Z</time></trkpt><trkpt lat="43.773260083451355" lon="12.546820455234473"><ele>218.33333333333331</ele><time>2026-04-25T09:08:01Z</time></trkpt><trkpt lat="43.77318607703532" lon="12.546880170101804"><ele>214.66666666666666</ele><time>2026-04-25T09:08:02Z</time></trkpt><trkpt lat="43.77313691267475" lon="12.546950538976668"><ele>211.0</ele><time>2026-04-25T09:08:03Z</time></trkpt><trkpt lat="43.773092645472545" lon="12.547033725886132"><ele>210.99999999999997</ele><time>2026-04-25T09:08:04Z</time></trkpt><trkpt lat="43.77305250487718" lon="12.547144249545438"><ele>211.0</ele><time>2026-04-25T09:08:05Z</time></trkpt><trkpt lat="43.77303223419945" lon="12.547262555736703"><ele>211.0</ele><time>2026-04-25T09:08:06Z</time></trkpt><trkpt lat="43.77302591435962" lon="12.547382864380618"><ele>211.0</ele><time>2026-04-25T09:08:07Z</time></trkpt><trkpt lat="43.77302385870689" lon="12.547497816216117"><ele>210.99999999999997</ele><time>2026-04-25T09:08:08Z</time></trkpt><trkpt lat="43.77302654871332" lon="12.547611570089138"><ele>211.0</ele><time>2026-04-25T09:08:09Z</time></trkpt><trkpt lat="43.773010153610464" lon="12.547713938180944"><ele>210.99999999999997</ele><time>2026-04-25T09:08:10Z</time></trkpt><trkpt lat="43.772954356615394" lon="12.547766812363218"><ele>211.0</ele><time>2026-04-25T09:08:11Z</time></trkpt><trkpt lat="43.77290748241129" lon="12.547827614028913"><ele>211.0</ele><time>2026-04-25T09:08:12Z</time></trkpt><trkpt lat="43.772853103769506" lon="12.54791115538209"><ele>211.0</ele><time>2026-04-25T09:08:13Z</time></trkpt><trkpt lat="43.77279771285196" lon="12.548012655657912"><ele>210.99999999999997</ele><time>2026-04-25T09:08:14Z</time></trkpt><trkpt lat="43.77270412413061" lon="12.547996619976374"><ele>211.0</ele><time>2026-04-25T09:08:15Z</time></trkpt><trkpt lat="43.772612818113174" lon="12.548032182688488"><ele>207.8</ele><time>2026-04-25T09:08:16Z</time></trkpt><trkpt lat="43.772517051253764" lon="12.548008236902438"><ele>204.60000000000002</ele><time>2026-04-25T09:08:17Z</time></trkpt><trkpt lat="43.77241388471282" lon="12.54800012161149"><ele>201.4</ele><time>2026-04-25T09:08:18Z</time></trkpt><trkpt lat="43.77231905147041" lon="12.547998967498946"><ele>198.2</ele><time>2026-04-25T09:08:19Z</time></trkpt><trkpt lat="43.772228354240546" lon="12.54801260707111"><ele>195.0</ele><time>2026-04-25T09:08:20Z</time></trkpt><trkpt lat="43.7721309039216" lon="12.548066041256034"><ele>195.0</ele><time>2026-04-25T09:08:21Z</time></trkpt><trkpt lat="43.77204462852559" lon="12.548154860611254"><ele>195.0</ele><time>2026-04-25T09:08:22Z</time></trkpt><trkpt lat="43.771948682494376" lon="12.548253055669687"><ele>195.0</ele><time>2026-04-25T09:08:23Z</time></trkpt><trkpt lat="43.77185176726299" lon="12.548370313099108"><ele>195.0</ele><time>2026-04-25T09:08:24Z</time></trkpt><trkpt lat="43.77172193955645" lon="12.548482677348133"><ele>193.66666666666666</ele><time>2026-04-25T09:08:25Z</time></trkpt><trkpt lat="43.77160159518302" lon="12.548612156635215"><ele>192.33333333333331</ele><time>2026-04-25T09:08:26Z</time></trkpt><trkpt lat="43.77148675594174" lon="12.54876654840397"><ele>191.0</ele><time>2026-04-25T09:08:27Z</time></trkpt><trkpt lat="43.77135776913515" lon="12.548880544221493"><ele>190.25</ele><time>2026-04-25T09:08:28Z</time></trkpt><trkpt lat="43.771251930584604" lon="12.548998850462109"><ele>189.5</ele><time>2026-04-25T09:08:29Z</time></trkpt><trkpt lat="43.77115899693549" lon="12.549105431028087"><ele>188.75</ele><time>2026-04-25T09:08:30Z</time></trkpt><trkpt lat="43.77104967100567" lon="12.549200047762847"><ele>188.0</ele><time>2026-04-25T09:08:31Z</time></trkpt><trkpt lat="43.770955790650845" lon="12.549274980051731"><ele>187.60000000000002</ele><time>2026-04-25T09:08:32Z</time></trkpt><trkpt lat="43.770864123407485" lon="12.549300826233647"><ele>187.20000000000002</ele><time>2026-04-25T09:08:33Z</time></trkpt><trkpt lat="43.77078084389439" lon="12.549283982173845"><ele>186.8</ele><time>2026-04-25T09:08:34Z</time></trkpt><trkpt lat="43.77066645746508" lon="12.549292129728721"><ele>186.4</ele><time>2026-04-25T09:08:35Z</time></trkpt><trkpt lat="43.77054584345765" lon="12.54930162516136"><ele>186.0</ele><time>2026-04-25T09:08:36Z</time></trkpt><trkpt lat="43.77041638842033" lon="12.549311816577019"><ele>186.0</ele><time>2026-04-25T09:08:37Z</time></trkpt><trkpt lat="43.7702849964932" lon="12.549361575360997"><ele>186.0</ele><time>2026-04-25T09:08:38Z</time></trkpt><trkpt lat="43.77018787076201" lon="12.549428248976687"><ele>186.0</ele><time>2026-04-25T09:08:39Z</time></trkpt><trkpt lat="43.77012513361976" lon="12.549510959524412"><ele>186.0</ele><time>2026-04-25T09:08:40Z</time></trkpt><trkpt lat="43.770050538023" lon="12.549599136123211"><ele>186.0</ele><time>2026-04-25T09:08:41Z</time></trkpt><trkpt lat="43.76998329137182" lon="12.549657233240689"><ele>187.16666666666666</ele><time>2026-04-25T09:08:42Z</time></trkpt><trkpt lat="43.76991610649127" lon="12.549696294402018"><ele>188.33333333333331</ele><time>2026-04-25T09:08:43Z</time></trkpt><trkpt lat="43.76984614292362" lon="12.549623942082928"><ele>189.5</ele><time>2026-04-25T09:08:45Z</time></trkpt><trkpt lat="43.769850996984346" lon="12.549512542056796"><ele>190.66666666666666</ele><time>2026-04-25T09:08:47Z</time></trkpt><trkpt lat="43.76983795039301" lon="12.549416626549764"><ele>191.83333333333331</ele><time>2026-04-25T09:08:48Z</time></trkpt><trkpt lat="43.76981596635807" lon="12.549284439306694"><ele>193.0</ele><time>2026-04-25T09:08:49Z</time></trkpt><trkpt lat="43.76978530095724" lon="12.549144077034901"><ele>193.0</ele><time>2026-04-25T09:08:50Z</time></trkpt><trkpt lat="43.76974518043097" lon="12.54899130314821"><ele>193.0</ele><time>2026-04-25T09:08:51Z</time></trkpt><trkpt lat="43.76968008413412" lon="12.548868798128689"><ele>193.0</ele><time>2026-04-25T09:08:52Z</time></trkpt><trkpt lat="43.7696172061275" lon="12.548760528683625"><ele>193.0</ele><time>2026-04-25T09:08:53Z</time></trkpt><trkpt lat="43.76953370433785" lon="12.548661274479961"><ele>193.0</ele><time>2026-04-25T09:08:54Z</time></trkpt><trkpt lat="43.769424750157256" lon="12.54862291901536"><ele>198.75</ele><time>2026-04-25T09:08:55Z</time></trkpt><trkpt lat="43.769316195224484" lon="12.548585449118015"><ele>204.5</ele><time>2026-04-25T09:08:56Z</time></trkpt><trkpt lat="43.76918196843879" lon="12.548547404538324"><ele>210.25</ele><time>2026-04-25T09:08:57Z</time></trkpt><trkpt lat="43.76904632698935" lon="12.54851431064738"><ele>216.0</ele><time>2026-04-25T09:08:58Z</time></trkpt><trkpt lat="43.76891925721367" lon="12.548467044734432"><ele>216.0</ele><time>2026-04-25T09:08:59Z</time></trkpt><trkpt lat="43.76879545244268" lon="12.548419742172133"><ele>216.0</ele><time>2026-04-25T09:09:00Z</time></trkpt><trkpt lat="43.76868480360638" lon="12.548321895933354"><ele>216.0</ele><time>2026-04-25T09:09:01Z</time></trkpt><trkpt lat="43.76855772944837" lon="12.548216282290573"><ele>216.0</ele><time>2026-04-25T09:09:02Z</time></trkpt><trkpt lat="43.768422700612234" lon="12.548114278928402"><ele>213.0</ele><time>2026-04-25T09:09:03Z</time></trkpt><trkpt lat="43.768269116018935" lon="12.548030030320781"><ele>210.0</ele><time>2026-04-25T09:09:04Z</time></trkpt><trkpt lat="43.76810732581845" lon="12.547929661172066"><ele>207.0</ele><time>2026-04-25T09:09:05Z</time></trkpt><trkpt lat="43.767949682977076" lon="12.547823246027193"><ele>207.83333333333334</ele><time>2026-04-25T09:09:06Z</time></trkpt><trkpt lat="43.76781879764467" lon="12.547748051179646"><ele>208.66666666666669</ele><time>2026-04-25T09:09:07Z</time></trkpt><trkpt lat="43.76776478743913" lon="12.547665401712607"><ele>209.5</ele><time>2026-04-25T09:09:08Z</time></trkpt><trkpt lat="43.76771860090382" lon="12.547598196644985"><ele>210.33333333333334</ele><time>2026-04-25T09:09:09Z</time></trkpt><trkpt lat="43.76765748633963" lon="12.547512320235397"><ele>211.16666666666669</ele><time>2026-04-25T09:09:11Z</time></trkpt><trkpt lat="43.7676075886271" lon="12.547442546145245"><ele>212.0</ele><time>2026-04-25T09:09:13Z</time></trkpt><trkpt lat="43.767481426555044" lon="12.54751871219336"><ele>212.0</ele><time>2026-04-25T09:09:14Z</time></trkpt><trkpt lat="43.76739269821872" lon="12.54748050934488"><ele>212.0</ele><time>2026-04-25T09:09:15Z</time></trkpt><trkpt lat="43.7672828635104" lon="12.547406269882705"><ele>212.0</ele><time>2026-04-25T09:09:16Z</time></trkpt><trkpt lat="43.767173702158594" lon="12.547365449294006"><ele>212.0</ele><time>2026-04-25T09:09:17Z</time></trkpt><trkpt lat="43.76706621176288" lon="12.547346956447804"><ele>212.0</ele><time>2026-04-25T09:09:18Z</time></trkpt><trkpt lat="43.76696429489451" lon="12.547332388891853"><ele>210.2</ele><time>2026-04-25T09:09:19Z</time></trkpt><trkpt lat="43.76685863124305" lon="12.547358480160122"><ele>208.39999999999998</ele><time>2026-04-25T09:09:20Z</time></trkpt><trkpt lat="43.76676104997339" lon="12.547404366994138"><ele>206.60000000000002</ele><time>2026-04-25T09:09:21Z</time></trkpt><trkpt lat="43.766675348877264" lon="12.547447105030876"><ele>204.8</ele><time>2026-04-25T09:09:22Z</time></trkpt><trkpt lat="43.766586236955234" lon="12.547479511957436"><ele>203.0</ele><time>2026-04-25T09:09:23Z</time></trkpt><trkpt lat="43.766475923032836" lon="12.547523404925716"><ele>203.0</ele><time>2026-04-25T09:09:24Z</time></trkpt><trkpt lat="43.76634946108655" lon="12.547590925425556"><ele>203.0</ele><time>2026-04-25T09:09:25Z</time></trkpt><trkpt lat="43.76621791951256" lon="12.547677117497805"><ele>203.0</ele><time>2026-04-25T09:09:26Z</time></trkpt><trkpt lat="43.76607943483293" lon="12.547783833040233"><ele>203.0</ele><time>2026-04-25T09:09:27Z</time></trkpt><trkpt lat="43.76593364063498" lon="12.547908885428791"><ele>199.0</ele><time>2026-04-25T09:09:28Z</time></trkpt><trkpt lat="43.765795404066026" lon="12.54800990700332"><ele>195.0</ele><time>2026-04-25T09:09:29Z</time></trkpt><trkpt lat="43.76567591624843" lon="12.548087947766"><ele>191.0</ele><time>2026-04-25T09:09:30Z</time></trkpt><trkpt lat="43.76555907915964" lon="12.548118452686394"><ele>187.0</ele><time>2026-04-25T09:09:31Z</time></trkpt><trkpt lat="43.76546208871326" lon="12.548126921805173"><ele>187.0</ele><time>2026-04-25T09:09:32Z</time></trkpt><trkpt lat="43.765387174070554" lon="12.548137646762466"><ele>187.0</ele><time>2026-04-25T09:09:33Z</time></trkpt><trkpt lat="43.76530851758283" lon="12.548208235924081"><ele>187.0</ele><time>2026-04-25T09:09:35Z</time></trkpt><trkpt lat="43.765198991832456" lon="12.548182244062025"><ele>187.0</ele><time>2026-04-25T09:19:12Z</time></trkpt><trkpt lat="43.76513521110444" lon="12.548191366118514"><ele>187.0</ele><time>2026-04-25T09:19:13Z</time></trkpt><trkpt lat="43.765067174766195" lon="12.548190240230806"><ele>187.0</ele><time>2026-04-25T09:19:14Z</time></trkpt><trkpt lat="43.76499463380645" lon="12.548188886963178"><ele>187.33333333333334</ele><time>2026-04-25T09:19:15Z</time></trkpt><trkpt lat="43.7649198462694" lon="12.548193192548956"><ele>187.66666666666669</ele><time>2026-04-25T09:19:16Z</time></trkpt><trkpt lat="43.76484094998879" lon="12.548198590350813"><ele>188.0</ele><time>2026-04-25T09:19:17Z</time></trkpt><trkpt lat="43.76476147263858" lon="12.548206831573927"><ele>188.33333333333334</ele><time>2026-04-25T09:19:18Z</time></trkpt><trkpt lat="43.764684832255085" lon="12.5482064524817"><ele>188.66666666666666</ele><time>2026-04-25T09:19:19Z</time></trkpt><trkpt lat="43.76460774527885" lon="12.548192331852475"><ele>189.0</ele><time>2026-04-25T09:19:20Z</time></trkpt><trkpt lat="43.76452383267912" lon="12.54816316667102"><ele>189.0</ele><time>2026-04-25T09:19:21Z</time></trkpt><trkpt lat="43.76443743034506" lon="12.548116825129695"><ele>189.0</ele><time>2026-04-25T09:19:22Z</time></trkpt><trkpt lat="43.76435217038843" lon="12.548050770742071"><ele>189.0</ele><time>2026-04-25T09:19:23Z</time></trkpt><trkpt lat="43.76425307698603" lon="12.54799611576336"><ele>189.0</ele><time>2026-04-25T09:19:24Z</time></trkpt><trkpt lat="43.764154918541024" lon="12.54791987398256"><ele>189.0</ele><time>2026-04-25T09:19:25Z</time></trkpt><trkpt lat="43.764057090425815" lon="12.54784208578467"><ele>188.5</ele><time>2026-04-25T09:19:26Z</time></trkpt><trkpt lat="43.76396088447647" lon="12.547768499542842"><ele>188.0</ele><time>2026-04-25T09:19:27Z</time></trkpt><trkpt lat="43.76386306162468" lon="12.54769985866497"><ele>187.5</ele><time>2026-04-25T09:19:28Z</time></trkpt><trkpt lat="43.763762721566685" lon="12.547623727024213"><ele>187.0</ele><time>2026-04-25T09:19:29Z</time></trkpt><trkpt lat="43.76365428684389" lon="12.547547916463744"><ele>187.0</ele><time>2026-04-25T09:19:30Z</time></trkpt><trkpt lat="43.76353795950708" lon="12.547469033483646"><ele>187.0</ele><time>2026-04-25T09:19:31Z</time></trkpt><trkpt lat="43.76342073453353" lon="12.547389657139396"><ele>187.0</ele><time>2026-04-25T09:19:32Z</time></trkpt><trkpt lat="43.763291794414265" lon="12.547340419722508"><ele>187.0</ele><time>2026-04-25T09:19:33Z</time></trkpt><trkpt lat="43.76316487680281" lon="12.547300799894755"><ele>186.25</ele><time>2026-04-25T09:19:34Z</time></trkpt><trkpt lat="43.76304317224472" lon="12.547256030037664"><ele>185.5</ele><time>2026-04-25T09:19:35Z</time></trkpt><trkpt lat="43.76292790236307" lon="12.54720063954415"><ele>184.75</ele><time>2026-04-25T09:19:36Z</time></trkpt><trkpt lat="43.76284489045143" lon="12.547084565492382"><ele>184.0</ele><time>2026-04-25T09:19:37Z</time></trkpt><trkpt lat="43.7627631721012" lon="12.546992030806743"><ele>188.2</ele><time>2026-04-25T09:19:38Z</time></trkpt><trkpt lat="43.76267807237283" lon="12.546893979139307"><ele>192.39999999999998</ele><time>2026-04-25T09:19:39Z</time></trkpt><trkpt lat="43.762585976782724" lon="12.546804426974736"><ele>196.6</ele><time>2026-04-25T09:19:40Z</time></trkpt><trkpt lat="43.762490078226406" lon="12.54673912259553"><ele>200.8</ele><time>2026-04-25T09:19:41Z</time></trkpt><trkpt lat="43.76238892899809" lon="12.546690115811725"><ele>205.0</ele><time>2026-04-25T09:19:42Z</time></trkpt><trkpt lat="43.762299531489646" lon="12.546681541420446"><ele>204.99999999999997</ele><time>2026-04-25T09:19:43Z</time></trkpt><trkpt lat="43.76222326479328" lon="12.546666932710771"><ele>205.0</ele><time>2026-04-25T09:19:44Z</time></trkpt><trkpt lat="43.76216073234705" lon="12.546642352705433"><ele>205.0</ele><time>2026-04-25T09:19:46Z</time></trkpt><trkpt lat="43.76220484469524" lon="12.546559491291799"><ele>205.0</ele><time>2026-04-25T09:19:47Z</time></trkpt><trkpt lat="43.762181852893946" lon="12.546376863345941"><ele>204.99999999999997</ele><time>2026-04-25T09:19:49Z</time></trkpt><trkpt lat="43.762169995292005" lon="12.546262668773021"><ele>205.0</ele><time>2026-04-25T09:19:50Z</time></trkpt><trkpt lat="43.76215642346765" lon="12.546163520307992"><ele>202.8</ele><time>2026-04-25T09:19:51Z</time></trkpt><trkpt lat="43.762125154557104" lon="12.546064649023604"><ele>200.6</ele><time>2026-04-25T09:19:52Z</time></trkpt><trkpt lat="43.76210083300135" lon="12.545934509280913"><ele>198.39999999999998</ele><time>2026-04-25T09:19:53Z</time></trkpt><trkpt lat="43.762061126800525" lon="12.545787809943027"><ele>196.2</ele><time>2026-04-25T09:19:54Z</time></trkpt><trkpt lat="43.762000887581" lon="12.545632104425618"><ele>194.0</ele><time>2026-04-25T09:19:55Z</time></trkpt><trkpt lat="43.76192071538959" lon="12.54547010895078"><ele>197.33333333333334</ele><time>2026-04-25T09:19:56Z</time></trkpt><trkpt lat="43.761840979696856" lon="12.545289569813708"><ele>200.66666666666669</ele><time>2026-04-25T09:19:57Z</time></trkpt><trkpt lat="43.761747236449445" lon="12.545108775294343"><ele>204.0</ele><time>2026-04-25T09:19:58Z</time></trkpt><trkpt lat="43.76165069667064" lon="12.544920098286827"><ele>204.0</ele><time>2026-04-25T09:19:59Z</time></trkpt><trkpt lat="43.761555654937695" lon="12.544726518573826"><ele>204.0</ele><time>2026-04-25T09:20:00Z</time></trkpt><trkpt lat="43.76146025939743" lon="12.544537811337651"><ele>204.0</ele><time>2026-04-25T09:20:01Z</time></trkpt><trkpt lat="43.76136300821285" lon="12.54436305374227"><ele>203.33333333333331</ele><time>2026-04-25T09:20:02Z</time></trkpt><trkpt lat="43.76126946914165" lon="12.544191507014741"><ele>202.66666666666666</ele><time>2026-04-25T09:20:03Z</time></trkpt><trkpt lat="43.7611770858031" lon="12.544018976789381"><ele>202.0</ele><time>2026-04-25T09:20:04Z</time></trkpt><trkpt lat="43.7610817640039" lon="12.54385016873799"><ele>202.25</ele><time>2026-04-25T09:20:05Z</time></trkpt><trkpt lat="43.7609873350252" lon="12.543679184022118"><ele>202.5</ele><time>2026-04-25T09:20:06Z</time></trkpt><trkpt lat="43.76091246983554" lon="12.543506355611694"><ele>202.75</ele><time>2026-04-25T09:20:07Z</time></trkpt><trkpt lat="43.76081868871227" lon="12.543374682386984"><ele>203.0</ele><time>2026-04-25T09:20:08Z</time></trkpt><trkpt lat="43.760744554854014" lon="12.543239800397526"><ele>203.0</ele><time>2026-04-25T09:20:09Z</time></trkpt><trkpt lat="43.76067346021678" lon="12.543120314038376"><ele>203.0</ele><time>2026-04-25T09:20:10Z</time></trkpt><trkpt lat="43.76061956244293" lon="12.542990664940458"><ele>203.0</ele><time>2026-04-25T09:20:11Z</time></trkpt><trkpt lat="43.7605628757373" lon="12.542884436125966"><ele>203.0</ele><time>2026-04-25T09:20:12Z</time></trkpt><trkpt lat="43.76051205830729" lon="12.542789206112836"><ele>203.0</ele><time>2026-04-25T09:20:13Z</time></trkpt><trkpt lat="43.76046579671822" lon="12.542702513585498"><ele>203.83333333333334</ele><time>2026-04-25T09:20:14Z</time></trkpt><trkpt lat="43.76042466359787" lon="12.542632125419036"><ele>204.66666666666669</ele><time>2026-04-25T09:20:15Z</time></trkpt><trkpt lat="43.760355227219684" lon="12.542538220348781"><ele>205.5</ele><time>2026-04-25T09:20:17Z</time></trkpt><trkpt lat="43.760289668378825" lon="12.542475402251005"><ele>206.33333333333331</ele><time>2026-04-25T09:20:18Z</time></trkpt><trkpt lat="43.76022030354177" lon="12.542417033517022"><ele>207.16666666666666</ele><time>2026-04-25T09:20:19Z</time></trkpt><trkpt lat="43.760130536797995" lon="12.542338966203795"><ele>208.0</ele><time>2026-04-25T09:20:21Z</time></trkpt><trkpt lat="43.76004028598793" lon="12.542271442270216"><ele>207.99999999999997</ele><time>2026-04-25T09:20:23Z</time></trkpt><trkpt lat="43.75997141093016" lon="12.54220209808674"><ele>208.0</ele><time>2026-04-25T09:20:25Z</time></trkpt><trkpt lat="43.759910709682174" lon="12.542148540706771"><ele>208.0</ele><time>2026-04-25T09:20:28Z</time></trkpt><trkpt lat="43.759822373172035" lon="12.542101852207603"><ele>208.0</ele><time>2026-04-25T09:20:57Z</time></trkpt><trkpt lat="43.75975827063006" lon="12.542053260660852"><ele>207.99999999999997</ele><time>2026-04-25T09:20:58Z</time></trkpt><trkpt lat="43.75968689111427" lon="12.541948979173736"><ele>208.0</ele><time>2026-04-25T09:20:59Z</time></trkpt><trkpt lat="43.75959408955462" lon="12.54185740002341"><ele>210.33333333333331</ele><time>2026-04-25T09:21:00Z</time></trkpt><trkpt lat="43.75946698131469" lon="12.541741325491332"><ele>212.66666666666669</ele><time>2026-04-25T09:21:01Z</time></trkpt><trkpt lat="43.759310246699975" lon="12.541605899213891"><ele>215.0</ele><time>2026-04-25T09:21:02Z</time></trkpt><trkpt lat="43.7591177212455" lon="12.541466383362431"><ele>215.0</ele><time>2026-04-25T09:21:03Z</time></trkpt><trkpt lat="43.758924484677905" lon="12.541301314724182"><ele>215.0</ele><time>2026-04-25T09:21:04Z</time></trkpt><trkpt lat="43.75875139323905" lon="12.541133751058231"><ele>215.0</ele><time>2026-04-25T09:21:05Z</time></trkpt><trkpt lat="43.758593687549926" lon="12.54099709022146"><ele>215.5</ele><time>2026-04-25T09:21:06Z</time></trkpt><trkpt lat="43.75845946895907" lon="12.540867034031105"><ele>216.0</ele><time>2026-04-25T09:21:07Z</time></trkpt><trkpt lat="43.758344281521616" lon="12.540735627309765"><ele>216.5</ele><time>2026-04-25T09:21:08Z</time></trkpt><trkpt lat="43.758256768321644" lon="12.540596792327705"><ele>217.0</ele><time>2026-04-25T09:21:09Z</time></trkpt><trkpt lat="43.75818429145012" lon="12.540443982985215"><ele>213.0</ele><time>2026-04-25T09:21:10Z</time></trkpt><trkpt lat="43.758118093105715" lon="12.540275047646157"><ele>209.0</ele><time>2026-04-25T09:21:11Z</time></trkpt><trkpt lat="43.75805305762296" lon="12.540073600744472"><ele>205.0</ele><time>2026-04-25T09:21:12Z</time></trkpt><trkpt lat="43.75798680148419" lon="12.53985305659414"><ele>205.0</ele><time>2026-04-25T09:21:13Z</time></trkpt><trkpt lat="43.757931319379274" lon="12.53964828439876"><ele>205.0</ele><time>2026-04-25T09:21:14Z</time></trkpt><trkpt lat="43.75788005001651" lon="12.539455216328495"><ele>205.0</ele><time>2026-04-25T09:21:15Z</time></trkpt><trkpt lat="43.75783734061988" lon="12.53927171893926"><ele>205.0</ele><time>2026-04-25T09:21:16Z</time></trkpt><trkpt lat="43.75780161712564" lon="12.539078989513412"><ele>202.33333333333331</ele><time>2026-04-25T09:21:17Z</time></trkpt><trkpt lat="43.75778174257861" lon="12.538863041436233"><ele>199.66666666666669</ele><time>2026-04-25T09:21:18Z</time></trkpt><trkpt lat="43.75776051512453" lon="12.538646855133612"><ele>197.0</ele><time>2026-04-25T09:21:19Z</time></trkpt><trkpt lat="43.757740483276834" lon="12.538442258012715"><ele>197.0</ele><time>2026-04-25T09:21:20Z</time></trkpt><trkpt lat="43.75771878648613" lon="12.538259850687858"><ele>197.0</ele><time>2026-04-25T09:21:21Z</time></trkpt><trkpt lat="43.75769158125254" lon="12.53810702630746"><ele>197.0</ele><time>2026-04-25T09:21:22Z</time></trkpt><trkpt lat="43.75764586191155" lon="12.537976320983672"><ele>197.0</ele><time>2026-04-25T09:21:23Z</time></trkpt><trkpt lat="43.75756694824036" lon="12.537878499684378"><ele>198.75</ele><time>2026-04-25T09:21:24Z</time></trkpt><trkpt lat="43.75748483840068" lon="12.537748680402421"><ele>200.5</ele><time>2026-04-25T09:21:25Z</time></trkpt><trkpt lat="43.7573573516792" lon="12.537632020112515"><ele>202.25</ele><time>2026-04-25T09:21:26Z</time></trkpt><trkpt lat="43.7572370741866" lon="12.537498659490835"><ele>204.0</ele><time>2026-04-25T09:21:27Z</time></trkpt><trkpt lat="43.757115051038355" lon="12.537386479114641"><ele>204.0</ele><time>2026-04-25T09:21:28Z</time></trkpt><trkpt lat="43.75698089523387" lon="12.537302282140017"><ele>204.0</ele><time>2026-04-25T09:21:29Z</time></trkpt><trkpt lat="43.75684602117995" lon="12.5372369528491"><ele>204.0</ele><time>2026-04-25T09:21:30Z</time></trkpt><trkpt lat="43.75668692548417" lon="12.537239705340019"><ele>204.0</ele><time>2026-04-25T09:21:31Z</time></trkpt><trkpt lat="43.75649849746057" lon="12.537240068827028"><ele>203.5</ele><time>2026-04-25T09:21:32Z</time></trkpt><trkpt lat="43.75627199219937" lon="12.537239599832722"><ele>203.0</ele><time>2026-04-25T09:21:33Z</time></trkpt><trkpt lat="43.75603920533753" lon="12.537223861251215"><ele>202.75</ele><time>2026-04-25T09:21:34Z</time></trkpt><trkpt lat="43.75586543328335" lon="12.537213702748652"><ele>202.5</ele><time>2026-04-25T09:21:35Z</time></trkpt><trkpt lat="43.75574563237941" lon="12.537145053697788"><ele>202.25</ele><time>2026-04-25T09:21:36Z</time></trkpt><trkpt lat="43.755650815049925" lon="12.537075677133227"><ele>202.0</ele><time>2026-04-25T09:21:37Z</time></trkpt><trkpt lat="43.75552802074694" lon="12.537026787700933"><ele>202.75</ele><time>2026-04-25T09:21:38Z</time></trkpt><trkpt lat="43.75541187121863" lon="12.536899814432363"><ele>203.5</ele><time>2026-04-25T09:21:39Z</time></trkpt><trkpt lat="43.755310858950715" lon="12.536784321744538"><ele>204.25</ele><time>2026-04-25T09:21:40Z</time></trkpt><trkpt lat="43.75520350181462" lon="12.536651880679676"><ele>205.0</ele><time>2026-04-25T09:21:41Z</time></trkpt><trkpt lat="43.75510141745757" lon="12.536484904621679"><ele>205.0</ele><time>2026-04-25T09:21:42Z</time></trkpt><trkpt lat="43.75502882544194" lon="12.536300115730768"><ele>205.0</ele><time>2026-04-25T09:21:43Z</time></trkpt><trkpt lat="43.75490386828894" lon="12.536210374568755"><ele>205.0</ele><time>2026-04-25T09:21:44Z</time></trkpt><trkpt lat="43.75476883042332" lon="12.536127702178117"><ele>205.0</ele><time>2026-04-25T09:21:45Z</time></trkpt><trkpt lat="43.75460728568811" lon="12.536042410042555"><ele>208.0</ele><time>2026-04-25T09:21:46Z</time></trkpt><trkpt lat="43.75445251302746" lon="12.535982366594705"><ele>211.0</ele><time>2026-04-25T09:21:47Z</time></trkpt><trkpt lat="43.75429571459968" lon="12.535953854046976"><ele>214.0</ele><time>2026-04-25T09:21:48Z</time></trkpt><trkpt lat="43.75412291183007" lon="12.535951866895358"><ele>214.0</ele><time>2026-04-25T09:21:49Z</time></trkpt><trkpt lat="43.75395595479045" lon="12.535960165339016"><ele>214.0</ele><time>2026-04-25T09:21:50Z</time></trkpt><trkpt lat="43.75380625637375" lon="12.535979083114462"><ele>214.0</ele><time>2026-04-25T09:21:51Z</time></trkpt><trkpt lat="43.75367070316687" lon="12.536007634298734"><ele>214.0</ele><time>2026-04-25T09:21:52Z</time></trkpt><trkpt lat="43.753551674342134" lon="12.535997488126132"><ele>214.0</ele><time>2026-04-25T09:21:53Z</time></trkpt><trkpt lat="43.753449699055246" lon="12.535939610922913"><ele>214.0</ele><time>2026-04-25T09:21:54Z</time></trkpt><trkpt lat="43.753365578935686" lon="12.535860503842278"><ele>214.0</ele><time>2026-04-25T09:21:55Z</time></trkpt><trkpt lat="43.753271270454086" lon="12.53576136734422"><ele>214.5</ele><time>2026-04-25T09:21:56Z</time></trkpt><trkpt lat="43.753167878683" lon="12.535656701822806"><ele>215.0</ele><time>2026-04-25T09:21:57Z</time></trkpt><trkpt lat="43.75305251844404" lon="12.535544700413231"><ele>215.5</ele><time>2026-04-25T09:21:58Z</time></trkpt><trkpt lat="43.752966964971876" lon="12.535402466542363"><ele>216.0</ele><time>2026-04-25T09:21:59Z</time></trkpt><trkpt lat="43.75290589644772" lon="12.535250936583113"><ele>216.0</ele><time>2026-04-25T09:22:00Z</time></trkpt><trkpt lat="43.752844294501664" lon="12.535070220209631"><ele>216.0</ele><time>2026-04-25T09:22:01Z</time></trkpt><trkpt lat="43.7527779899034" lon="12.534881171688403"><ele>216.0</ele><time>2026-04-25T09:22:02Z</time></trkpt><trkpt lat="43.75272257869121" lon="12.534711898657543"><ele>216.0</ele><time>2026-04-25T09:22:03Z</time></trkpt><trkpt lat="43.75261170778148" lon="12.534359382506857"><ele>210.5</ele><time>2026-04-25T09:22:04Z</time></trkpt><trkpt lat="43.75249194662875" lon="12.534055850750036"><ele>205.0</ele><time>2026-04-25T09:22:05Z</time></trkpt><trkpt lat="43.752398400114444" lon="12.53379099714548"><ele>206.75</ele><time>2026-04-25T09:22:06Z</time></trkpt><trkpt lat="43.752317416743" lon="12.533568392977303"><ele>208.5</ele><time>2026-04-25T09:22:07Z</time></trkpt><trkpt lat="43.75226006788075" lon="12.533397096873115"><ele>210.25</ele><time>2026-04-25T09:22:08Z</time></trkpt><trkpt lat="43.75222802380289" lon="12.533248723825508"><ele>212.0</ele><time>2026-04-25T09:22:09Z</time></trkpt><trkpt lat="43.752230252817185" lon="12.533135949503707"><ele>212.0</ele><time>2026-04-25T09:22:10Z</time></trkpt><trkpt lat="43.752274249458154" lon="12.533012516393732"><ele>212.0</ele><time>2026-04-25T09:22:11Z</time></trkpt><trkpt lat="43.752308133057355" lon="12.532902403222195"><ele>212.0</ele><time>2026-04-25T09:22:12Z</time></trkpt><trkpt lat="43.752363682673305" lon="12.532780009741618"><ele>212.0</ele><time>2026-04-25T09:22:13Z</time></trkpt><trkpt lat="43.75239755692046" lon="12.532619775773943"><ele>212.0</ele><time>2026-04-25T09:22:14Z</time></trkpt><trkpt lat="43.75237268361385" lon="12.53245874840733"><ele>214.25</ele><time>2026-04-25T09:22:15Z</time></trkpt><trkpt lat="43.75228844397874" lon="12.532369858505747"><ele>216.5</ele><time>2026-04-25T09:22:16Z</time></trkpt><trkpt lat="43.752218541471606" lon="12.532271168080504"><ele>218.75</ele><time>2026-04-25T09:22:17Z</time></trkpt><trkpt lat="43.752133528476" lon="12.532160322772109"><ele>221.0</ele><time>2026-04-25T09:22:18Z</time></trkpt><trkpt lat="43.75202143509572" lon="12.532009084777739"><ele>221.66666666666669</ele><time>2026-04-25T09:22:19Z</time></trkpt><trkpt lat="43.75191727567208" lon="12.531833781811018"><ele>222.33333333333331</ele><time>2026-04-25T09:22:20Z</time></trkpt><trkpt lat="43.75180806283767" lon="12.53166910422522"><ele>223.0</ele><time>2026-04-25T09:22:21Z</time></trkpt><trkpt lat="43.75167724633299" lon="12.531479098669664"><ele>223.0</ele><time>2026-04-25T09:22:22Z</time></trkpt><trkpt lat="43.75151631428827" lon="12.531300544212462"><ele>223.0</ele><time>2026-04-25T09:22:23Z</time></trkpt><trkpt lat="43.75134804225424" lon="12.531105193598048"><ele>223.0</ele><time>2026-04-25T09:22:24Z</time></trkpt><trkpt lat="43.75116575115106" lon="12.530900698972685"><ele>223.5</ele><time>2026-04-25T09:22:25Z</time></trkpt><trkpt lat="43.750969437441604" lon="12.530703542657122"><ele>224.0</ele><time>2026-04-25T09:22:26Z</time></trkpt><trkpt lat="43.75076640043157" lon="12.530495402092754"><ele>231.5</ele><time>2026-04-25T09:22:27Z</time></trkpt><trkpt lat="43.750546541824335" lon="12.53027155852785"><ele>239.0</ele><time>2026-04-25T09:22:28Z</time></trkpt><trkpt lat="43.750341701564416" lon="12.53006770751804"><ele>233.5</ele><time>2026-04-25T09:22:29Z</time></trkpt><trkpt lat="43.750146958092955" lon="12.529833556648404"><ele>228.0</ele><time>2026-04-25T09:22:30Z</time></trkpt><trkpt lat="43.749974564135655" lon="12.529653812408414"><ele>232.0</ele><time>2026-04-25T09:22:31Z</time></trkpt><trkpt lat="43.749810766102556" lon="12.52948381558188"><ele>236.0</ele><time>2026-04-25T09:22:32Z</time></trkpt><trkpt lat="43.74967400497341" lon="12.52933320354932"><ele>240.0</ele><time>2026-04-25T09:22:33Z</time></trkpt><trkpt lat="43.749540008805724" lon="12.529191880905348"><ele>240.0</ele><time>2026-04-25T09:22:34Z</time></trkpt><trkpt lat="43.74940052332509" lon="12.529094894303906"><ele>240.0</ele><time>2026-04-25T09:22:35Z</time></trkpt><trkpt lat="43.74927463426335" lon="12.528998149210762"><ele>240.0</ele><time>2026-04-25T09:22:36Z</time></trkpt><trkpt lat="43.74914441802205" lon="12.52891291673482"><ele>240.0</ele><time>2026-04-25T09:22:37Z</time></trkpt><trkpt lat="43.748979664074895" lon="12.528849323602136"><ele>239.33333333333331</ele><time>2026-04-25T09:22:38Z</time></trkpt><trkpt lat="43.74878557756506" lon="12.52879847523103"><ele>238.66666666666666</ele><time>2026-04-25T09:22:39Z</time></trkpt><trkpt lat="43.748612258623155" lon="12.528745309368952"><ele>238.0</ele><time>2026-04-25T09:22:40Z</time></trkpt><trkpt lat="43.74846413770596" lon="12.528724973914963"><ele>240.25</ele><time>2026-04-25T09:22:41Z</time></trkpt><trkpt lat="43.748337295547884" lon="12.528710301407305"><ele>242.5</ele><time>2026-04-25T09:22:42Z</time></trkpt><trkpt lat="43.74824047435933" lon="12.528642937195288"><ele>244.75</ele><time>2026-04-25T09:22:43Z</time></trkpt><trkpt lat="43.74813440998188" lon="12.528569236909249"><ele>247.0</ele><time>2026-04-25T09:22:44Z</time></trkpt><trkpt lat="43.74801873792117" lon="12.528465279920356"><ele>247.0</ele><time>2026-04-25T09:22:45Z</time></trkpt><trkpt lat="43.747870262999164" lon="12.528385847910965"><ele>247.0</ele><time>2026-04-25T09:22:46Z</time></trkpt><trkpt lat="43.747738264572185" lon="12.528275156709473"><ele>247.0</ele><time>2026-04-25T09:22:47Z</time></trkpt><trkpt lat="43.74760713750266" lon="12.528215671934213"><ele>245.66666666666666</ele><time>2026-04-25T09:22:48Z</time></trkpt><trkpt lat="43.74745349349918" lon="12.528176381570653"><ele>244.33333333333331</ele><time>2026-04-25T09:22:49Z</time></trkpt><trkpt lat="43.74727736405052" lon="12.528144455868212"><ele>243.0</ele><time>2026-04-25T09:22:50Z</time></trkpt><trkpt lat="43.747099933312555" lon="12.528121187773081"><ele>243.0</ele><time>2026-04-25T09:22:51Z</time></trkpt><trkpt lat="43.74694419759638" lon="12.528085632123673"><ele>243.0</ele><time>2026-04-25T09:22:52Z</time></trkpt><trkpt lat="43.746802211649566" lon="12.528005034322474"><ele>243.0</ele><time>2026-04-25T09:22:53Z</time></trkpt><trkpt lat="43.74667898110136" lon="12.5279335916939"><ele>243.0</ele><time>2026-04-25T09:22:54Z</time></trkpt><trkpt lat="43.746574339880425" lon="12.527839271536054"><ele>247.0</ele><time>2026-04-25T09:22:55Z</time></trkpt><trkpt lat="43.746474603230915" lon="12.527722923395844"><ele>251.0</ele><time>2026-04-25T09:22:56Z</time></trkpt><trkpt lat="43.74636485393998" lon="12.527592780983175"><ele>255.0</ele><time>2026-04-25T09:22:57Z</time></trkpt><trkpt lat="43.74623677886955" lon="12.527467298271018"><ele>259.0</ele><time>2026-04-25T09:22:58Z</time></trkpt><trkpt lat="43.74611041205917" lon="12.52741646126988"><ele>255.25</ele><time>2026-04-25T09:22:59Z</time></trkpt><trkpt lat="43.745993739827675" lon="12.52737362745205"><ele>251.5</ele><time>2026-04-25T09:23:00Z</time></trkpt><trkpt lat="43.74586664432346" lon="12.527345202858232"><ele>247.75</ele><time>2026-04-25T09:23:01Z</time></trkpt><trkpt lat="43.74575857708306" lon="12.52731803812829"><ele>244.0</ele><time>2026-04-25T09:23:02Z</time></trkpt><trkpt lat="43.74567423830869" lon="12.527235979469092"><ele>244.0</ele><time>2026-04-25T09:23:03Z</time></trkpt><trkpt lat="43.74559586407317" lon="12.527141439823879"><ele>244.0</ele><time>2026-04-25T09:23:04Z</time></trkpt><trkpt lat="43.745575794765784" lon="12.527029675077674"><ele>244.0</ele><time>2026-04-25T09:23:05Z</time></trkpt><trkpt lat="43.74560981493062" lon="12.5268342057091"><ele>244.0</ele><time>2026-04-25T09:23:07Z</time></trkpt><trkpt lat="43.745647408305295" lon="12.526655315512365"><ele>246.25</ele><time>2026-04-25T09:23:08Z</time></trkpt><trkpt lat="43.745684332416324" lon="12.52645186650906"><ele>248.5</ele><time>2026-04-25T09:23:09Z</time></trkpt><trkpt lat="43.74570990044998" lon="12.526271570437439"><ele>250.75</ele><time>2026-04-25T09:23:10Z</time></trkpt><trkpt lat="43.7456782761583" lon="12.526106742495818"><ele>253.0</ele><time>2026-04-25T09:23:11Z</time></trkpt><trkpt lat="43.74562710889731" lon="12.526040146789645"><ele>253.0</ele><time>2026-04-25T09:23:12Z</time></trkpt><trkpt lat="43.74551731364253" lon="12.52603306150005"><ele>253.0</ele><time>2026-04-25T09:23:14Z</time></trkpt><trkpt lat="43.745428358491544" lon="12.526063861609408"><ele>253.0</ele><time>2026-04-25T09:23:15Z</time></trkpt><trkpt lat="43.74533979978172" lon="12.526149664367624"><ele>253.0</ele><time>2026-04-25T09:23:16Z</time></trkpt><trkpt lat="43.745262657686126" lon="12.526298214006491"><ele>253.0</ele><time>2026-04-25T09:23:17Z</time></trkpt><trkpt lat="43.74518538716158" lon="12.526460995831037"><ele>253.99999999999997</ele><time>2026-04-25T09:23:18Z</time></trkpt><trkpt lat="43.74511799797338" lon="12.52659052689562"><ele>255.0</ele><time>2026-04-25T09:23:19Z</time></trkpt><trkpt lat="43.74504984586743" lon="12.526600234619416"><ele>256.0</ele><time>2026-04-25T09:23:20Z</time></trkpt><trkpt lat="43.744983848357265" lon="12.526576313791917"><ele>257.0</ele><time>2026-04-25T09:23:21Z</time></trkpt><trkpt lat="43.745001245107865" lon="12.526418330113788"><ele>258.0</ele><time>2026-04-25T09:23:23Z</time></trkpt><trkpt lat="43.744969600483685" lon="12.526313661143401"><ele>259.0</ele><time>2026-04-25T09:23:24Z</time></trkpt><trkpt lat="43.744918313889954" lon="12.52614791254153"><ele>259.0</ele><time>2026-04-25T09:23:25Z</time></trkpt><trkpt lat="43.74485038298174" lon="12.525977971718302"><ele>259.0</ele><time>2026-04-25T09:23:26Z</time></trkpt><trkpt lat="43.74474522499272" lon="12.525831977069693"><ele>259.0</ele><time>2026-04-25T09:23:27Z</time></trkpt><trkpt lat="43.74463419593382" lon="12.525773033291607"><ele>259.0</ele><time>2026-04-25T09:23:28Z</time></trkpt><trkpt lat="43.74449935632064" lon="12.525706987482486"><ele>252.0</ele><time>2026-04-25T09:23:29Z</time></trkpt><trkpt lat="43.74433372750152" lon="12.525636484219435"><ele>245.0</ele><time>2026-04-25T09:23:30Z</time></trkpt><trkpt lat="43.744160252070024" lon="12.525573685706451"><ele>238.0</ele><time>2026-04-25T09:23:31Z</time></trkpt><trkpt lat="43.74400178291884" lon="12.525529438265938"><ele>238.0</ele><time>2026-04-25T09:23:32Z</time></trkpt><trkpt lat="43.743897123841435" lon="12.525431981242534"><ele>238.0</ele><time>2026-04-25T09:23:33Z</time></trkpt><trkpt lat="43.74375161613268" lon="12.525323429208278"><ele>238.0</ele><time>2026-04-25T09:23:34Z</time></trkpt><trkpt lat="43.74358799251688" lon="12.52521897952138"><ele>242.66666666666666</ele><time>2026-04-25T09:23:35Z</time></trkpt><trkpt lat="43.74339999694322" lon="12.525166997015729"><ele>247.33333333333331</ele><time>2026-04-25T09:23:36Z</time></trkpt><trkpt lat="43.743224245344756" lon="12.525093669948568"><ele>252.0</ele><time>2026-04-25T09:23:37Z</time></trkpt><trkpt lat="43.74305119021554" lon="12.525056948073757"><ele>252.0</ele><time>2026-04-25T09:23:38Z</time></trkpt><trkpt lat="43.74285289541817" lon="12.525052467183414"><ele>252.0</ele><time>2026-04-25T09:23:39Z</time></trkpt><trkpt lat="43.74264722953909" lon="12.52506438082097"><ele>252.0</ele><time>2026-04-25T09:23:40Z</time></trkpt><trkpt lat="43.74247729595402" lon="12.525077292516139"><ele>249.25</ele><time>2026-04-25T09:23:41Z</time></trkpt><trkpt lat="43.74234513101849" lon="12.525052417406426"><ele>246.5</ele><time>2026-04-25T09:23:42Z</time></trkpt><trkpt lat="43.742224260839926" lon="12.5250070570912"><ele>243.75</ele><time>2026-04-25T09:23:43Z</time></trkpt><trkpt lat="43.74208826831576" lon="12.524944937011284"><ele>241.0</ele><time>2026-04-25T09:23:44Z</time></trkpt><trkpt lat="43.74196453477588" lon="12.524891909837397"><ele>238.8</ele><time>2026-04-25T09:23:45Z</time></trkpt><trkpt lat="43.74185240662266" lon="12.524858233297579"><ele>236.60000000000002</ele><time>2026-04-25T09:23:46Z</time></trkpt><trkpt lat="43.74174347881331" lon="12.524830850028867"><ele>234.4</ele><time>2026-04-25T09:23:47Z</time></trkpt><trkpt lat="43.74164565259795" lon="12.524838478840296"><ele>232.2</ele><time>2026-04-25T09:23:48Z</time></trkpt><trkpt lat="43.74155893603797" lon="12.524858683018316"><ele>230.0</ele><time>2026-04-25T09:23:49Z</time></trkpt><trkpt lat="43.74147780914608" lon="12.524903684754259"><ele>230.00000000000003</ele><time>2026-04-25T09:23:50Z</time></trkpt><trkpt lat="43.74139967778878" lon="12.524941172722157"><ele>230.0</ele><time>2026-04-25T09:23:51Z</time></trkpt><trkpt lat="43.7413283813636" lon="12.52488987704269"><ele>230.0</ele><time>2026-04-25T09:23:52Z</time></trkpt><trkpt lat="43.741257423834256" lon="12.52481531477288"><ele>230.0</ele><time>2026-04-25T09:23:53Z</time></trkpt><trkpt lat="43.741204478066976" lon="12.524732579053223"><ele>230.00000000000003</ele><time>2026-04-25T09:23:54Z</time></trkpt><trkpt lat="43.74118213426308" lon="12.524607601565387"><ele>230.0</ele><time>2026-04-25T09:23:55Z</time></trkpt><trkpt lat="43.74113618956365" lon="12.524459622288097"><ele>231.4</ele><time>2026-04-25T09:23:56Z</time></trkpt><trkpt lat="43.7410789049113" lon="12.524330593864642"><ele>232.8</ele><time>2026-04-25T09:23:57Z</time></trkpt><trkpt lat="43.74098926593106" lon="12.52429387537614"><ele>234.2</ele><time>2026-04-25T09:23:58Z</time></trkpt><trkpt lat="43.74090960262917" lon="12.52430909948396"><ele>235.6</ele><time>2026-04-25T09:23:59Z</time></trkpt><trkpt lat="43.74083354679833" lon="12.524394812531023"><ele>237.0</ele><time>2026-04-25T09:24:00Z</time></trkpt><trkpt lat="43.74072701373316" lon="12.524404056047677"><ele>237.0</ele><time>2026-04-25T09:24:01Z</time></trkpt><trkpt lat="43.74060035155257" lon="12.52446561787296"><ele>237.0</ele><time>2026-04-25T09:24:02Z</time></trkpt><trkpt lat="43.740526641453066" lon="12.524349194818598"><ele>237.0</ele><time>2026-04-25T09:24:03Z</time></trkpt><trkpt lat="43.740456242663" lon="12.524265437576918"><ele>237.0</ele><time>2026-04-25T09:24:04Z</time></trkpt><trkpt lat="43.740349204839056" lon="12.524150272542366"><ele>237.0</ele><time>2026-04-25T09:24:05Z</time></trkpt><trkpt lat="43.740222071939534" lon="12.524018877137802"><ele>237.0</ele><time>2026-04-25T09:24:06Z</time></trkpt><trkpt lat="43.740088683083485" lon="12.523915263794741"><ele>237.0</ele><time>2026-04-25T09:24:07Z</time></trkpt><trkpt lat="43.73994942277339" lon="12.52383235727724"><ele>235.6</ele><time>2026-04-25T09:24:08Z</time></trkpt><trkpt lat="43.73981610324682" lon="12.523782026544804"><ele>234.2</ele><time>2026-04-25T09:24:09Z</time></trkpt><trkpt lat="43.739700299549234" lon="12.52376828462592"><ele>232.8</ele><time>2026-04-25T09:24:10Z</time></trkpt><trkpt lat="43.7396082551603" lon="12.523723272217964"><ele>231.4</ele><time>2026-04-25T09:24:11Z</time></trkpt><trkpt lat="43.73953595129036" lon="12.523652425516838"><ele>230.0</ele><time>2026-04-25T09:24:12Z</time></trkpt><trkpt lat="43.73940028772969" lon="12.52361111659859"><ele>230.2</ele><time>2026-04-25T09:24:14Z</time></trkpt><trkpt lat="43.73932108085282" lon="12.523623933846023"><ele>230.4</ele><time>2026-04-25T09:24:15Z</time></trkpt><trkpt lat="43.73927227042252" lon="12.523739118098277"><ele>230.60000000000002</ele><time>2026-04-25T09:24:16Z</time></trkpt><trkpt lat="43.73918250139783" lon="12.523827114935719"><ele>230.8</ele><time>2026-04-25T09:24:17Z</time></trkpt><trkpt lat="43.739131617727196" lon="12.523939072055965"><ele>231.0</ele><time>2026-04-25T09:24:18Z</time></trkpt><trkpt lat="43.739069809207926" lon="12.523982074974668"><ele>231.0</ele><time>2026-04-25T09:24:19Z</time></trkpt><trkpt lat="43.73898405062318" lon="12.524041517505161"><ele>231.0</ele><time>2026-04-25T09:24:20Z</time></trkpt><trkpt lat="43.73885755638171" lon="12.523966384886188"><ele>231.0</ele><time>2026-04-25T09:24:21Z</time></trkpt><trkpt lat="43.738762477012806" lon="12.523913896107013"><ele>231.0</ele><time>2026-04-25T09:24:22Z</time></trkpt><trkpt lat="43.738671428193655" lon="12.52381926955491"><ele>233.25</ele><time>2026-04-25T09:24:23Z</time></trkpt><trkpt lat="43.73857483247425" lon="12.523692108377212"><ele>235.5</ele><time>2026-04-25T09:24:24Z</time></trkpt><trkpt lat="43.738476187117165" lon="12.523553818242869"><ele>237.75</ele><time>2026-04-25T09:24:25Z</time></trkpt><trkpt lat="43.73838203602928" lon="12.523418572288845"><ele>240.0</ele><time>2026-04-25T09:24:26Z</time></trkpt><trkpt lat="43.73830208210155" lon="12.52330930527741"><ele>240.0</ele><time>2026-04-25T09:24:27Z</time></trkpt><trkpt lat="43.7382452266131" lon="12.523188282368016"><ele>240.0</ele><time>2026-04-25T09:24:28Z</time></trkpt><trkpt lat="43.738213101013535" lon="12.523065765491177"><ele>240.0</ele><time>2026-04-25T09:24:29Z</time></trkpt><trkpt lat="43.73819531246428" lon="12.522919652652574"><ele>240.0</ele><time>2026-04-25T09:24:30Z</time></trkpt><trkpt lat="43.73819142048558" lon="12.522783452701969"><ele>240.0</ele><time>2026-04-25T09:24:31Z</time></trkpt><trkpt lat="43.7381708102912" lon="12.522665982977166"><ele>241.0</ele><time>2026-04-25T09:24:32Z</time></trkpt><trkpt lat="43.73813946217599" lon="12.52256624068959"><ele>242.0</ele><time>2026-04-25T09:24:33Z</time></trkpt><trkpt lat="43.73808175800075" lon="12.522487707550512"><ele>243.0</ele><time>2026-04-25T09:24:34Z</time></trkpt><trkpt lat="43.73796615798025" lon="12.522436118502252"><ele>244.0</ele><time>2026-04-25T09:24:35Z</time></trkpt><trkpt lat="43.73784089441749" lon="12.522412520989281"><ele>245.0</ele><time>2026-04-25T09:24:36Z</time></trkpt><trkpt lat="43.73770030623465" lon="12.522415725090614"><ele>245.0</ele><time>2026-04-25T09:24:37Z</time></trkpt><trkpt lat="43.737544611269676" lon="12.522442222478185"><ele>245.0</ele><time>2026-04-25T09:24:38Z</time></trkpt><trkpt lat="43.737413445133924" lon="12.522468253798014"><ele>245.0</ele><time>2026-04-25T09:24:39Z</time></trkpt><trkpt lat="43.73730109272611" lon="12.52246044726141"><ele>245.0</ele><time>2026-04-25T09:24:40Z</time></trkpt><trkpt lat="43.737208496341324" lon="12.52242775157088"><ele>245.0</ele><time>2026-04-25T09:24:41Z</time></trkpt><trkpt lat="43.737124196836305" lon="12.522362862127954"><ele>245.0</ele><time>2026-04-25T09:24:42Z</time></trkpt><trkpt lat="43.73705520833809" lon="12.522258404945402"><ele>245.0</ele><time>2026-04-25T09:24:43Z</time></trkpt><trkpt lat="43.73698436426093" lon="12.522114301262972"><ele>245.0</ele><time>2026-04-25T09:24:44Z</time></trkpt><trkpt lat="43.73689361929495" lon="12.521945082310697"><ele>244.0</ele><time>2026-04-25T09:24:45Z</time></trkpt><trkpt lat="43.73678034642763" lon="12.521805722029777"><ele>243.0</ele><time>2026-04-25T09:24:46Z</time></trkpt><trkpt lat="43.736638927431514" lon="12.521679336015277"><ele>242.0</ele><time>2026-04-25T09:24:47Z</time></trkpt><trkpt lat="43.736510790184425" lon="12.521607643790587"><ele>242.0</ele><time>2026-04-25T09:24:48Z</time></trkpt><trkpt lat="43.73639665470932" lon="12.521527926968616"><ele>242.0</ele><time>2026-04-25T09:24:49Z</time></trkpt><trkpt lat="43.73627843592253" lon="12.521455419119016"><ele>242.0</ele><time>2026-04-25T09:24:50Z</time></trkpt><trkpt lat="43.73620005796995" lon="12.52139793107042"><ele>242.0</ele><time>2026-04-25T09:24:51Z</time></trkpt><trkpt lat="43.7361422570976" lon="12.521344663247453"><ele>242.0</ele><time>2026-04-25T09:24:52Z</time></trkpt><trkpt lat="43.7361112178476" lon="12.521265279572733"><ele>244.39999999999998</ele><time>2026-04-25T09:24:53Z</time></trkpt><trkpt lat="43.73612871945637" lon="12.521165015868267"><ele>246.79999999999998</ele><time>2026-04-25T09:24:54Z</time></trkpt><trkpt lat="43.736173917947" lon="12.521046273759714"><ele>249.2</ele><time>2026-04-25T09:24:55Z</time></trkpt><trkpt lat="43.73622805680189" lon="12.52092214835637"><ele>251.6</ele><time>2026-04-25T09:24:56Z</time></trkpt><trkpt lat="43.73623673951038" lon="12.52078410695223"><ele>254.0</ele><time>2026-04-25T09:24:57Z</time></trkpt><trkpt lat="43.736199406300564" lon="12.520659690997194"><ele>254.0</ele><time>2026-04-25T09:24:58Z</time></trkpt><trkpt lat="43.736158181581544" lon="12.520554593037245"><ele>254.0</ele><time>2026-04-25T09:24:59Z</time></trkpt><trkpt lat="43.73608411694786" lon="12.520449301721284"><ele>254.0</ele><time>2026-04-25T09:25:00Z</time></trkpt><trkpt lat="43.735975299967" lon="12.520353797516135"><ele>254.0</ele><time>2026-04-25T09:25:01Z</time></trkpt><trkpt lat="43.73584735479501" lon="12.520295119525441"><ele>254.25</ele><time>2026-04-25T09:25:02Z</time></trkpt><trkpt lat="43.73570509204643" lon="12.52024585895654"><ele>254.5</ele><time>2026-04-25T09:25:03Z</time></trkpt><trkpt lat="43.73555753062804" lon="12.520224626272945"><ele>254.75</ele><time>2026-04-25T09:25:04Z</time></trkpt><trkpt lat="43.73547976567878" lon="12.520169506385951"><ele>255.0</ele><time>2026-04-25T09:25:05Z</time></trkpt><trkpt lat="43.73537711525145" lon="12.520158664456874"><ele>255.0</ele><time>2026-04-25T09:25:06Z</time></trkpt><trkpt lat="43.73527697601195" lon="12.520169782622814"><ele>255.0</ele><time>2026-04-25T09:25:07Z</time></trkpt><trkpt lat="43.735190208360315" lon="12.520245836295972"><ele>255.0</ele><time>2026-04-25T09:25:08Z</time></trkpt><trkpt lat="43.73509887967324" lon="12.520333130734045"><ele>255.0</ele><time>2026-04-25T09:25:09Z</time></trkpt><trkpt lat="43.73503849337347" lon="12.520414622947"><ele>255.0</ele><time>2026-04-25T09:25:10Z</time></trkpt><trkpt lat="43.73498869929439" lon="12.520504850728754"><ele>251.6</ele><time>2026-04-25T09:25:11Z</time></trkpt><trkpt lat="43.73494745008262" lon="12.520608512647435"><ele>248.2</ele><time>2026-04-25T09:25:12Z</time></trkpt><trkpt lat="43.73491015467642" lon="12.520740292859152"><ele>244.8</ele><time>2026-04-25T09:25:13Z</time></trkpt><trkpt lat="43.73487096994696" lon="12.520886496123303"><ele>241.4</ele><time>2026-04-25T09:25:14Z</time></trkpt><trkpt lat="43.73482510989426" lon="12.521015636452105"><ele>238.0</ele><time>2026-04-25T09:25:15Z</time></trkpt><trkpt lat="43.734738929477274" lon="12.521110015305426"><ele>238.0</ele><time>2026-04-25T09:25:16Z</time></trkpt><trkpt lat="43.73463655769735" lon="12.521172894475438"><ele>238.0</ele><time>2026-04-25T09:25:17Z</time></trkpt><trkpt lat="43.73452739404855" lon="12.521215706810596"><ele>238.0</ele><time>2026-04-25T09:25:18Z</time></trkpt><trkpt lat="43.7344051421479" lon="12.52123263278753"><ele>238.0</ele><time>2026-04-25T09:25:19Z</time></trkpt><trkpt lat="43.73427376221816" lon="12.521237598335349"><ele>237.25</ele><time>2026-04-25T09:25:20Z</time></trkpt><trkpt lat="43.73413215780698" lon="12.52123762367853"><ele>236.5</ele><time>2026-04-25T09:25:21Z</time></trkpt><trkpt lat="43.73398205345749" lon="12.521231920990132"><ele>235.75</ele><time>2026-04-25T09:25:22Z</time></trkpt><trkpt lat="43.73384230150509" lon="12.521223605536617"><ele>235.0</ele><time>2026-04-25T09:25:23Z</time></trkpt><trkpt lat="43.73372458065235" lon="12.52121161808471"><ele>235.0</ele><time>2026-04-25T09:25:24Z</time></trkpt><trkpt lat="43.73359551141902" lon="12.521174651414034"><ele>235.0</ele><time>2026-04-25T09:25:25Z</time></trkpt><trkpt lat="43.73345816697653" lon="12.521090033106693"><ele>235.0</ele><time>2026-04-25T09:25:26Z</time></trkpt><trkpt lat="43.73332182758177" lon="12.52099296148988"><ele>235.0</ele><time>2026-04-25T09:25:27Z</time></trkpt><trkpt lat="43.733167402564774" lon="12.520891057947193"><ele>236.33333333333331</ele><time>2026-04-25T09:25:28Z</time></trkpt><trkpt lat="43.7330215897732" lon="12.520788853417047"><ele>237.66666666666669</ele><time>2026-04-25T09:25:29Z</time></trkpt><trkpt lat="43.73288212563437" lon="12.520668147392264"><ele>239.0</ele><time>2026-04-25T09:25:30Z</time></trkpt><trkpt lat="43.73275641810512" lon="12.520531187098452"><ele>242.66666666666669</ele><time>2026-04-25T09:25:31Z</time></trkpt><trkpt lat="43.73262722261229" lon="12.52037272270931"><ele>246.33333333333331</ele><time>2026-04-25T09:25:32Z</time></trkpt><trkpt lat="43.732502801147504" lon="12.520212017731868"><ele>250.0</ele><time>2026-04-25T09:25:33Z</time></trkpt><trkpt lat="43.7323975413527" lon="12.520044119908071"><ele>250.0</ele><time>2026-04-25T09:25:34Z</time></trkpt><trkpt lat="43.73231189307929" lon="12.519886239781544"><ele>250.0</ele><time>2026-04-25T09:25:35Z</time></trkpt><trkpt lat="43.73222979128441" lon="12.519763094166741"><ele>250.0</ele><time>2026-04-25T09:25:36Z</time></trkpt><trkpt lat="43.73216459684108" lon="12.519660724249382"><ele>250.0</ele><time>2026-04-25T09:25:37Z</time></trkpt><trkpt lat="43.73206414562608" lon="12.51958771316604"><ele>248.8</ele><time>2026-04-25T09:25:38Z</time></trkpt><trkpt lat="43.731957070964945" lon="12.51954653059137"><ele>247.6</ele><time>2026-04-25T09:25:39Z</time></trkpt><trkpt lat="43.731840102569706" lon="12.519550678284471"><ele>246.39999999999998</ele><time>2026-04-25T09:25:40Z</time></trkpt><trkpt lat="43.73175607035126" lon="12.519551941262748"><ele>245.2</ele><time>2026-04-25T09:25:41Z</time></trkpt><trkpt lat="43.73170099438142" lon="12.519469538076804"><ele>244.0</ele><time>2026-04-25T09:25:42Z</time></trkpt><trkpt lat="43.731657572651194" lon="12.519353977288802"><ele>244.0</ele><time>2026-04-25T09:25:43Z</time></trkpt><trkpt lat="43.731631116748005" lon="12.519204266019074"><ele>243.99999999999997</ele><time>2026-04-25T09:25:44Z</time></trkpt><trkpt lat="43.731613058228916" lon="12.51902595935963"><ele>243.99999999999997</ele><time>2026-04-25T09:25:45Z</time></trkpt><trkpt lat="43.73158843505181" lon="12.518890702000158"><ele>244.0</ele><time>2026-04-25T09:25:46Z</time></trkpt><trkpt lat="43.731552770458826" lon="12.51877555366299"><ele>244.0</ele><time>2026-04-25T09:25:47Z</time></trkpt><trkpt lat="43.73151536014209" lon="12.518685330374582"><ele>244.0</ele><time>2026-04-25T09:25:48Z</time></trkpt><trkpt lat="43.73143736546395" lon="12.51865609989526"><ele>243.99999999999997</ele><time>2026-04-25T09:25:49Z</time></trkpt><trkpt lat="43.73135345847913" lon="12.518686198938516"><ele>243.99999999999997</ele><time>2026-04-25T09:25:50Z</time></trkpt><trkpt lat="43.731251064803" lon="12.518765051223102"><ele>244.0</ele><time>2026-04-25T09:25:51Z</time></trkpt><trkpt lat="43.73112971767341" lon="12.518859172878125"><ele>244.0</ele><time>2026-04-25T09:25:52Z</time></trkpt><trkpt lat="43.73099333209366" lon="12.51895928589808"><ele>244.0</ele><time>2026-04-25T09:25:53Z</time></trkpt><trkpt lat="43.73088484087302" lon="12.519025821941153"><ele>243.99999999999997</ele><time>2026-04-25T09:25:54Z</time></trkpt><trkpt lat="43.73078284830278" lon="12.519068020907152"><ele>243.99999999999997</ele><time>2026-04-25T09:25:55Z</time></trkpt><trkpt lat="43.73070319095994" lon="12.519041040610952"><ele>244.0</ele><time>2026-04-25T09:25:56Z</time></trkpt><trkpt lat="43.73062923068931" lon="12.518985587855086"><ele>244.0</ele><time>2026-04-25T09:25:57Z</time></trkpt><trkpt lat="43.73058083534422" lon="12.51886607052739"><ele>246.25</ele><time>2026-04-25T09:25:58Z</time></trkpt><trkpt lat="43.73053081360931" lon="12.518716454266542"><ele>248.5</ele><time>2026-04-25T09:25:59Z</time></trkpt><trkpt lat="43.730490982657685" lon="12.518545408975951"><ele>250.75</ele><time>2026-04-25T09:26:00Z</time></trkpt><trkpt lat="43.7304486720297" lon="12.518389725480375"><ele>253.0</ele><time>2026-04-25T09:26:01Z</time></trkpt><trkpt lat="43.73040626635983" lon="12.51827414200454"><ele>252.99999999999997</ele><time>2026-04-25T09:26:02Z</time></trkpt><trkpt lat="43.7303361013562" lon="12.518186143898273"><ele>253.0</ele><time>2026-04-25T09:26:04Z</time></trkpt><trkpt lat="43.73026573163407" lon="12.518205658629984"><ele>253.0</ele><time>2026-04-25T09:26:09Z</time></trkpt><trkpt lat="43.73020081118854" lon="12.518300908598272"><ele>253.0</ele><time>2026-04-25T09:26:12Z</time></trkpt><trkpt lat="43.73015246154837" lon="12.518374730601485"><ele>252.99999999999997</ele><time>2026-04-25T09:26:14Z</time></trkpt><trkpt lat="43.73007900961285" lon="12.518351288212916"><ele>253.0</ele><time>2026-04-25T09:26:16Z</time></trkpt><trkpt lat="43.730001155902855" lon="12.51826410412537"><ele>251.8</ele><time>2026-04-25T09:26:18Z</time></trkpt><trkpt lat="43.72993716010659" lon="12.518152135493358"><ele>250.60000000000002</ele><time>2026-04-25T09:26:20Z</time></trkpt><trkpt lat="43.72984925354652" lon="12.518059042813375"><ele>249.39999999999998</ele><time>2026-04-25T09:26:22Z</time></trkpt><trkpt lat="43.72975765538379" lon="12.517981362122653"><ele>248.2</ele><time>2026-04-25T09:26:24Z</time></trkpt><trkpt lat="43.72965029924709" lon="12.517917714108336"><ele>247.0</ele><time>2026-04-25T09:26:26Z</time></trkpt><trkpt lat="43.72955107581012" lon="12.517886092377937"><ele>246.99999999999997</ele><time>2026-04-25T09:26:28Z</time></trkpt><trkpt lat="43.72945225179644" lon="12.517845741637386"><ele>247.0</ele><time>2026-04-25T09:26:30Z</time></trkpt><trkpt lat="43.72934474450728" lon="12.517832473881521"><ele>247.0</ele><time>2026-04-25T09:26:32Z</time></trkpt><trkpt lat="43.72924718939874" lon="12.517828290883209"><ele>247.0</ele><time>2026-04-25T09:26:34Z</time></trkpt><trkpt lat="43.72918649038456" lon="12.517852271672274"><ele>246.99999999999997</ele><time>2026-04-25T09:26:36Z</time></trkpt><trkpt lat="43.7291427322602" lon="12.51793100653738"><ele>247.0</ele><time>2026-04-25T09:26:53Z</time></trkpt><trkpt lat="43.72906421611691" lon="12.5180322650707"><ele>247.0</ele><time>2026-04-25T09:26:55Z</time></trkpt><trkpt lat="43.72903364354026" lon="12.518126511272037"><ele>247.0</ele><time>2026-04-25T09:26:56Z</time></trkpt><trkpt lat="43.729010211363345" lon="12.518251635858693"><ele>247.0</ele><time>2026-04-25T09:26:57Z</time></trkpt><trkpt lat="43.728978971460364" lon="12.518386082196155"><ele>247.0</ele><time>2026-04-25T09:26:58Z</time></trkpt><trkpt lat="43.72894587402002" lon="12.518503190220407"><ele>247.0</ele><time>2026-04-25T09:26:59Z</time></trkpt><trkpt lat="43.72890471926971" lon="12.518648309116246"><ele>247.39999999999998</ele><time>2026-04-25T09:27:00Z</time></trkpt><trkpt lat="43.72886529424197" lon="12.518801719322555"><ele>247.79999999999998</ele><time>2026-04-25T09:27:01Z</time></trkpt><trkpt lat="43.728829969688384" lon="12.518962210949747"><ele>248.2</ele><time>2026-04-25T09:27:02Z</time></trkpt><trkpt lat="43.72879941961762" lon="12.519088296448512"><ele>248.6</ele><time>2026-04-25T09:27:03Z</time></trkpt><trkpt lat="43.72876966872376" lon="12.519190924335508"><ele>249.0</ele><time>2026-04-25T09:27:04Z</time></trkpt><trkpt lat="43.72873869385828" lon="12.519285436421166"><ele>249.0</ele><time>2026-04-25T09:27:05Z</time></trkpt><trkpt lat="43.728685210221215" lon="12.519372130799228"><ele>248.99999999999997</ele><time>2026-04-25T09:27:06Z</time></trkpt><trkpt lat="43.728602730274694" lon="12.519432627551616"><ele>248.99999999999997</ele><time>2026-04-25T09:27:07Z</time></trkpt><trkpt lat="43.728508844182265" lon="12.519483077490378"><ele>249.0</ele><time>2026-04-25T09:27:08Z</time></trkpt><trkpt lat="43.72842041519405" lon="12.51948726274509"><ele>249.0</ele><time>2026-04-25T09:27:09Z</time></trkpt><trkpt lat="43.728320900814275" lon="12.519456458870465"><ele>249.5</ele><time>2026-04-25T09:27:10Z</time></trkpt><trkpt lat="43.728235841824464" lon="12.519407175687496"><ele>250.0</ele><time>2026-04-25T09:27:11Z</time></trkpt><trkpt lat="43.72817177713785" lon="12.519369803650173"><ele>250.5</ele><time>2026-04-25T09:27:12Z</time></trkpt><trkpt lat="43.728054105273195" lon="12.519325307898239"><ele>251.0</ele><time>2026-04-25T09:27:14Z</time></trkpt><trkpt lat="43.727990051139635" lon="12.519313352513208"><ele>251.5</ele><time>2026-04-25T09:27:15Z</time></trkpt><trkpt lat="43.7279184442683" lon="12.519286582769414"><ele>252.0</ele><time>2026-04-25T09:27:16Z</time></trkpt><trkpt lat="43.72783149717693" lon="12.519238515100723"><ele>252.0</ele><time>2026-04-25T09:27:17Z</time></trkpt><trkpt lat="43.72772815350138" lon="12.519168990472572"><ele>252.0</ele><time>2026-04-25T09:27:18Z</time></trkpt><trkpt lat="43.72763231302421" lon="12.519118603372945"><ele>252.0</ele><time>2026-04-25T09:27:19Z</time></trkpt><trkpt lat="43.72754478335049" lon="12.519075155348856"><ele>252.0</ele><time>2026-04-25T09:27:20Z</time></trkpt><trkpt lat="43.7274738291702" lon="12.519041250383774"><ele>252.0</ele><time>2026-04-25T09:27:21Z</time></trkpt><trkpt lat="43.727405310209576" lon="12.518903646468202"><ele>252.0</ele><time>2026-04-25T09:27:23Z</time></trkpt><trkpt lat="43.72739956724919" lon="12.518810244192833"><ele>252.0</ele><time>2026-04-25T09:27:24Z</time></trkpt><trkpt lat="43.72741516936165" lon="12.51870988244352"><ele>252.0</ele><time>2026-04-25T09:27:25Z</time></trkpt><trkpt lat="43.727482383441874" lon="12.51861264836523"><ele>252.0</ele><time>2026-04-25T09:27:26Z</time></trkpt><trkpt lat="43.72757823315881" lon="12.518510086909679"><ele>252.0</ele><time>2026-04-25T09:27:27Z</time></trkpt><trkpt lat="43.72767589797297" lon="12.518408148187941"><ele>251.25</ele><time>2026-04-25T09:27:28Z</time></trkpt><trkpt lat="43.72775913682684" lon="12.518274247320214"><ele>250.5</ele><time>2026-04-25T09:27:29Z</time></trkpt><trkpt lat="43.72782203115311" lon="12.518108710714529"><ele>249.75</ele><time>2026-04-25T09:27:30Z</time></trkpt><trkpt lat="43.72788255899197" lon="12.517937590514705"><ele>249.0</ele><time>2026-04-25T09:27:31Z</time></trkpt><trkpt lat="43.72790839648705" lon="12.517779517560394"><ele>248.5</ele><time>2026-04-25T09:27:32Z</time></trkpt><trkpt lat="43.72794268119252" lon="12.517627657485889"><ele>248.0</ele><time>2026-04-25T09:27:33Z</time></trkpt><trkpt lat="43.727945023675915" lon="12.517465549681713"><ele>247.5</ele><time>2026-04-25T09:27:34Z</time></trkpt><trkpt lat="43.72793065089771" lon="12.517295182783199"><ele>247.0</ele><time>2026-04-25T09:27:35Z</time></trkpt><trkpt lat="43.72789838039175" lon="12.517127567573176"><ele>247.39999999999998</ele><time>2026-04-25T09:27:36Z</time></trkpt><trkpt lat="43.727847429015945" lon="12.516986930124872"><ele>247.79999999999998</ele><time>2026-04-25T09:27:37Z</time></trkpt><trkpt lat="43.72779257449786" lon="12.51685331536016"><ele>248.2</ele><time>2026-04-25T09:27:38Z</time></trkpt><trkpt lat="43.72770980647604" lon="12.516772358462696"><ele>248.6</ele><time>2026-04-25T09:27:39Z</time></trkpt><trkpt lat="43.72761293477044" lon="12.516714699843368"><ele>249.0</ele><time>2026-04-25T09:27:40Z</time></trkpt><trkpt lat="43.727513106808374" lon="12.516682248699862"><ele>249.0</ele><time>2026-04-25T09:27:41Z</time></trkpt><trkpt lat="43.72741235032833" lon="12.51668721765324"><ele>248.99999999999997</ele><time>2026-04-25T09:27:42Z</time></trkpt><trkpt lat="43.72732807666099" lon="12.516744446141821"><ele>248.99999999999997</ele><time>2026-04-25T09:27:43Z</time></trkpt><trkpt lat="43.72723123676186" lon="12.516844860607398"><ele>249.0</ele><time>2026-04-25T09:27:44Z</time></trkpt><trkpt lat="43.72712198698108" lon="12.51693950227504"><ele>249.0</ele><time>2026-04-25T09:27:45Z</time></trkpt><trkpt lat="43.727007842115164" lon="12.517006675159926"><ele>252.25</ele><time>2026-04-25T09:27:46Z</time></trkpt><trkpt lat="43.7268798956626" lon="12.517024764806372"><ele>255.5</ele><time>2026-04-25T09:27:47Z</time></trkpt><trkpt lat="43.72678345756581" lon="12.516941745321445"><ele>258.75</ele><time>2026-04-25T09:27:48Z</time></trkpt><trkpt lat="43.72667395981211" lon="12.516843475999208"><ele>262.0</ele><time>2026-04-25T09:27:49Z</time></trkpt><trkpt lat="43.72658032741155" lon="12.516722410745057"><ele>262.0</ele><time>2026-04-25T09:27:50Z</time></trkpt><trkpt lat="43.72650634902075" lon="12.516567930583934"><ele>262.0</ele><time>2026-04-25T09:27:51Z</time></trkpt><trkpt lat="43.72641224105124" lon="12.516403080079819"><ele>262.0</ele><time>2026-04-25T09:27:52Z</time></trkpt><trkpt lat="43.72633303295909" lon="12.516202227851162"><ele>259.5</ele><time>2026-04-25T09:27:53Z</time></trkpt><trkpt lat="43.72626578174583" lon="12.515986770459424"><ele>257.0</ele><time>2026-04-25T09:27:54Z</time></trkpt><trkpt lat="43.72621295580587" lon="12.515802709503461"><ele>254.5</ele><time>2026-04-25T09:27:55Z</time></trkpt><trkpt lat="43.72616071715675" lon="12.515640381397377"><ele>252.0</ele><time>2026-04-25T09:27:56Z</time></trkpt><trkpt lat="43.72610485298165" lon="12.515487155699565"><ele>253.39999999999998</ele><time>2026-04-25T09:27:57Z</time></trkpt><trkpt lat="43.72604096613217" lon="12.515344494168547"><ele>254.79999999999998</ele><time>2026-04-25T09:27:58Z</time></trkpt><trkpt lat="43.72596517322066" lon="12.515237468845728"><ele>256.2</ele><time>2026-04-25T09:27:59Z</time></trkpt><trkpt lat="43.725874419889394" lon="12.515170773825396"><ele>257.59999999999997</ele><time>2026-04-25T09:28:00Z</time></trkpt><trkpt lat="43.725772253178334" lon="12.515122663160241"><ele>259.0</ele><time>2026-04-25T09:28:01Z</time></trkpt><trkpt lat="43.72566913027836" lon="12.51508103661286"><ele>259.0</ele><time>2026-04-25T09:28:02Z</time></trkpt><trkpt lat="43.72562047011291" lon="12.514987120480233"><ele>259.0</ele><time>2026-04-25T09:28:03Z</time></trkpt><trkpt lat="43.72562259984683" lon="12.514861747387286"><ele>259.0</ele><time>2026-04-25T09:28:04Z</time></trkpt><trkpt lat="43.72566481774761" lon="12.514750403580912"><ele>259.0</ele><time>2026-04-25T09:28:05Z</time></trkpt><trkpt lat="43.72570687404992" lon="12.514675765429239"><ele>259.0</ele><time>2026-04-25T09:28:06Z</time></trkpt><trkpt lat="43.72577268461019" lon="12.514598525958403"><ele>259.0</ele><time>2026-04-25T09:28:07Z</time></trkpt><trkpt lat="43.72587449479816" lon="12.514535535923843"><ele>258.59999999999997</ele><time>2026-04-25T09:28:08Z</time></trkpt><trkpt lat="43.7259898391324" lon="12.514479697215377"><ele>258.2</ele><time>2026-04-25T09:28:09Z</time></trkpt><trkpt lat="43.726069184679034" lon="12.514422121291775"><ele>257.79999999999995</ele><time>2026-04-25T09:28:10Z</time></trkpt><trkpt lat="43.726096500634135" lon="12.514312002420917"><ele>257.4</ele><time>2026-04-25T09:28:11Z</time></trkpt><trkpt lat="43.726068101025085" lon="12.514208159378775"><ele>257.0</ele><time>2026-04-25T09:28:12Z</time></trkpt><trkpt lat="43.72600813032306" lon="12.514100249032639"><ele>257.0</ele><time>2026-04-25T09:28:13Z</time></trkpt><trkpt lat="43.72592255863503" lon="12.513946829570882"><ele>257.0</ele><time>2026-04-25T09:28:14Z</time></trkpt><trkpt lat="43.72584483755124" lon="12.513756519430832"><ele>257.0</ele><time>2026-04-25T09:28:15Z</time></trkpt><trkpt lat="43.72580745737337" lon="12.51357278198705"><ele>257.0</ele><time>2026-04-25T09:28:16Z</time></trkpt><trkpt lat="43.72580458322141" lon="12.51336458566353"><ele>257.4</ele><time>2026-04-25T09:28:17Z</time></trkpt><trkpt lat="43.725806987571325" lon="12.513189616441338"><ele>257.79999999999995</ele><time>2026-04-25T09:28:18Z</time></trkpt><trkpt lat="43.72578559086991" lon="12.513042499578681"><ele>258.2</ele><time>2026-04-25T09:28:19Z</time></trkpt><trkpt lat="43.72573782377168" lon="12.512913335445795"><ele>258.59999999999997</ele><time>2026-04-25T09:28:20Z</time></trkpt><trkpt lat="43.72566377984095" lon="12.512843562042262"><ele>259.0</ele><time>2026-04-25T09:28:21Z</time></trkpt><trkpt lat="43.72557850399672" lon="12.512807041866733"><ele>259.5</ele><time>2026-04-25T09:28:22Z</time></trkpt><trkpt lat="43.725438626497684" lon="12.512777640912466"><ele>260.0</ele><time>2026-04-25T09:28:23Z</time></trkpt><trkpt lat="43.72530426990953" lon="12.512688455395304"><ele>260.5</ele><time>2026-04-25T09:28:24Z</time></trkpt><trkpt lat="43.72521361083532" lon="12.512566179387118"><ele>261.0</ele><time>2026-04-25T09:28:25Z</time></trkpt><trkpt lat="43.72516158419958" lon="12.512436796452306"><ele>261.6666666666667</ele><time>2026-04-25T09:28:26Z</time></trkpt><trkpt lat="43.725140107250745" lon="12.512268234073863"><ele>262.33333333333337</ele><time>2026-04-25T09:28:27Z</time></trkpt><trkpt lat="43.725140589652135" lon="12.512057745095138"><ele>263.0</ele><time>2026-04-25T09:28:28Z</time></trkpt><trkpt lat="43.725129039481715" lon="12.511808802109922"><ele>263.0</ele><time>2026-04-25T09:28:29Z</time></trkpt><trkpt lat="43.72511678900891" lon="12.511565639160633"><ele>263.0</ele><time>2026-04-25T09:28:30Z</time></trkpt><trkpt lat="43.725066183148435" lon="12.511354676394104"><ele>263.0</ele><time>2026-04-25T09:28:31Z</time></trkpt><trkpt lat="43.72498066589983" lon="12.511102124168744"><ele>262.33333333333337</ele><time>2026-04-25T09:28:32Z</time></trkpt><trkpt lat="43.72489337252211" lon="12.510841240583105"><ele>261.6666666666667</ele><time>2026-04-25T09:28:33Z</time></trkpt><trkpt lat="43.72480950709163" lon="12.510595681373355"><ele>261.0</ele><time>2026-04-25T09:28:34Z</time></trkpt><trkpt lat="43.724761488133936" lon="12.510430952401352"><ele>262.0</ele><time>2026-04-25T09:28:35Z</time></trkpt><trkpt lat="43.72474171095839" lon="12.510335279503057"><ele>263.0</ele><time>2026-04-25T09:28:36Z</time></trkpt><trkpt lat="43.7247848877085" lon="12.510202440479606"><ele>264.0</ele><time>2026-04-25T09:28:38Z</time></trkpt><trkpt lat="43.72481418330183" lon="12.510067277006275"><ele>265.0</ele><time>2026-04-25T09:28:40Z</time></trkpt><trkpt lat="43.72472447576704" lon="12.50993864068118"><ele>266.0</ele><time>2026-04-25T09:28:42Z</time></trkpt><trkpt lat="43.724624914198614" lon="12.509863983787417"><ele>266.0</ele><time>2026-04-25T09:28:43Z</time></trkpt><trkpt lat="43.724508799508015" lon="12.509733101340025"><ele>266.0</ele><time>2026-04-25T09:28:44Z</time></trkpt><trkpt lat="43.72436388802642" lon="12.509574999745784"><ele>266.0</ele><time>2026-04-25T09:28:45Z</time></trkpt><trkpt lat="43.72424454165356" lon="12.509426466584154"><ele>266.6666666666667</ele><time>2026-04-25T09:28:46Z</time></trkpt><trkpt lat="43.72413561264977" lon="12.509236271530922"><ele>267.3333333333333</ele><time>2026-04-25T09:28:47Z</time></trkpt><trkpt lat="43.72402148469654" lon="12.509010421588206"><ele>268.0</ele><time>2026-04-25T09:28:48Z</time></trkpt><trkpt lat="43.72390753780712" lon="12.508802641831368"><ele>269.0</ele><time>2026-04-25T09:28:49Z</time></trkpt><trkpt lat="43.72382711840321" lon="12.508633825550863"><ele>270.0</ele><time>2026-04-25T09:28:50Z</time></trkpt><trkpt lat="43.72375975137758" lon="12.508432576075899"><ele>271.0</ele><time>2026-04-25T09:28:51Z</time></trkpt><trkpt lat="43.72369038701066" lon="12.508233584669055"><ele>271.0</ele><time>2026-04-25T09:28:52Z</time></trkpt><trkpt lat="43.723643588261744" lon="12.50799354688593"><ele>271.0</ele><time>2026-04-25T09:28:53Z</time></trkpt><trkpt lat="43.7235819856961" lon="12.507730870779042"><ele>271.0</ele><time>2026-04-25T09:28:54Z</time></trkpt><trkpt lat="43.72353225177605" lon="12.50748294193383"><ele>271.0</ele><time>2026-04-25T09:28:55Z</time></trkpt><trkpt lat="43.72345973364528" lon="12.507297453955267"><ele>271.0</ele><time>2026-04-25T09:28:56Z</time></trkpt><trkpt lat="43.72338598833454" lon="12.507165131545507"><ele>271.0</ele><time>2026-04-25T09:28:57Z</time></trkpt><trkpt lat="43.72330191910323" lon="12.50704876080597"><ele>271.0</ele><time>2026-04-25T09:28:58Z</time></trkpt><trkpt lat="43.72318298037592" lon="12.506925216986138"><ele>271.0</ele><time>2026-04-25T09:28:59Z</time></trkpt><trkpt lat="43.723043147258146" lon="12.506775550432206"><ele>271.0</ele><time>2026-04-25T09:29:00Z</time></trkpt><trkpt lat="43.72287919277961" lon="12.506595925499562"><ele>271.0</ele><time>2026-04-25T09:29:01Z</time></trkpt><trkpt lat="43.72274409444738" lon="12.506406136433158"><ele>271.25</ele><time>2026-04-25T09:29:02Z</time></trkpt><trkpt lat="43.72265921800606" lon="12.506260655468713"><ele>271.5</ele><time>2026-04-25T09:29:03Z</time></trkpt><trkpt lat="43.722582186746465" lon="12.506116869131986"><ele>271.75</ele><time>2026-04-25T09:29:04Z</time></trkpt><trkpt lat="43.72251967306251" lon="12.505955743302499"><ele>272.0</ele><time>2026-04-25T09:29:05Z</time></trkpt><trkpt lat="43.722479961731985" lon="12.50581097534577"><ele>272.0</ele><time>2026-04-25T09:29:06Z</time></trkpt><trkpt lat="43.722449560828316" lon="12.505655417842155"><ele>272.0</ele><time>2026-04-25T09:29:07Z</time></trkpt><trkpt lat="43.72242745404456" lon="12.505511265716503"><ele>272.0</ele><time>2026-04-25T09:29:08Z</time></trkpt><trkpt lat="43.72239737016549" lon="12.505400864139608"><ele>272.0</ele><time>2026-04-25T09:29:09Z</time></trkpt><trkpt lat="43.72232807890922" lon="12.505309725473303"><ele>272.0</ele><time>2026-04-25T09:29:10Z</time></trkpt><trkpt lat="43.72223014706259" lon="12.50524865558725"><ele>273.75</ele><time>2026-04-25T09:29:11Z</time></trkpt><trkpt lat="43.722116087162455" lon="12.505196265625283"><ele>275.5</ele><time>2026-04-25T09:29:12Z</time></trkpt><trkpt lat="43.721978299863906" lon="12.505183011499032"><ele>277.25</ele><time>2026-04-25T09:29:13Z</time></trkpt><trkpt lat="43.72181664963579" lon="12.505201291516219"><ele>279.0</ele><time>2026-04-25T09:29:14Z</time></trkpt><trkpt lat="43.72164413243383" lon="12.505234952808411"><ele>279.0</ele><time>2026-04-25T09:29:15Z</time></trkpt><trkpt lat="43.72149896187959" lon="12.505254296740153"><ele>279.0</ele><time>2026-04-25T09:29:16Z</time></trkpt><trkpt lat="43.72137995748353" lon="12.505256550478927"><ele>279.0</ele><time>2026-04-25T09:29:17Z</time></trkpt><trkpt lat="43.7213080653449" lon="12.505201200623981"><ele>279.0</ele><time>2026-04-25T09:29:18Z</time></trkpt><trkpt lat="43.72124155844698" lon="12.50504816537247"><ele>279.0</ele><time>2026-04-25T09:29:19Z</time></trkpt><trkpt lat="43.72117383473106" lon="12.50484956278699"><ele>279.0</ele><time>2026-04-25T09:29:20Z</time></trkpt><trkpt lat="43.721095427339655" lon="12.504612722881562"><ele>279.0</ele><time>2026-04-25T09:29:21Z</time></trkpt><trkpt lat="43.72102721651879" lon="12.504380404745719"><ele>279.0</ele><time>2026-04-25T09:29:22Z</time></trkpt><trkpt lat="43.720980880607875" lon="12.504122749791387"><ele>279.0</ele><time>2026-04-25T09:29:23Z</time></trkpt><trkpt lat="43.72094373197711" lon="12.5038647791726"><ele>279.0</ele><time>2026-04-25T09:29:24Z</time></trkpt><trkpt lat="43.72092061920062" lon="12.503665505787264"><ele>279.0</ele><time>2026-04-25T09:29:25Z</time></trkpt><trkpt lat="43.720898421014915" lon="12.50350492020128"><ele>279.0</ele><time>2026-04-25T09:29:26Z</time></trkpt><trkpt lat="43.72088809535246" lon="12.503371667124423"><ele>279.0</ele><time>2026-04-25T09:29:27Z</time></trkpt><trkpt lat="43.72078475550415" lon="12.503267622292908"><ele>279.0</ele><time>2026-04-25T09:29:29Z</time></trkpt><trkpt lat="43.72062783800065" lon="12.50322319296291"><ele>279.0</ele><time>2026-04-25T09:29:30Z</time></trkpt><trkpt lat="43.72044734696542" lon="12.503149437078617"><ele>279.0</ele><time>2026-04-25T09:29:31Z</time></trkpt><trkpt lat="43.72031983402126" lon="12.503062451881513"><ele>279.0</ele><time>2026-04-25T09:29:32Z</time></trkpt><trkpt lat="43.720186308179926" lon="12.502940013373081"><ele>281.3333333333333</ele><time>2026-04-25T09:29:33Z</time></trkpt><trkpt lat="43.72004457178201" lon="12.502800286070604"><ele>283.66666666666663</ele><time>2026-04-25T09:29:34Z</time></trkpt><trkpt lat="43.71989168117924" lon="12.502691898713794"><ele>286.0</ele><time>2026-04-25T09:29:35Z</time></trkpt><trkpt lat="43.71971665341513" lon="12.50260745506791"><ele>286.0</ele><time>2026-04-25T09:29:36Z</time></trkpt><trkpt lat="43.71952564780658" lon="12.502534394746112"><ele>286.0</ele><time>2026-04-25T09:29:37Z</time></trkpt><trkpt lat="43.719312110660184" lon="12.5024572820491"><ele>286.0</ele><time>2026-04-25T09:29:38Z</time></trkpt><trkpt lat="43.71913299980104" lon="12.502399115991132"><ele>285.0</ele><time>2026-04-25T09:29:39Z</time></trkpt><trkpt lat="43.719007357756496" lon="12.5023551572168"><ele>284.0</ele><time>2026-04-25T09:29:40Z</time></trkpt><trkpt lat="43.718910731637294" lon="12.502290371085127"><ele>283.0</ele><time>2026-04-25T09:29:41Z</time></trkpt><trkpt lat="43.71882712934587" lon="12.502180087749391"><ele>282.0</ele><time>2026-04-25T09:29:42Z</time></trkpt><trkpt lat="43.718769109468" lon="12.502035526434444"><ele>282.0</ele><time>2026-04-25T09:29:43Z</time></trkpt><trkpt lat="43.71873971323797" lon="12.501867035996202"><ele>282.0</ele><time>2026-04-25T09:29:44Z</time></trkpt><trkpt lat="43.71871764141997" lon="12.50165571902854"><ele>282.0</ele><time>2026-04-25T09:29:45Z</time></trkpt><trkpt lat="43.71870604820881" lon="12.501480988682463"><ele>282.0</ele><time>2026-04-25T09:29:46Z</time></trkpt><trkpt lat="43.71868363120096" lon="12.501323035031236"><ele>281.8</ele><time>2026-04-25T09:29:47Z</time></trkpt><trkpt lat="43.71863420419336" lon="12.501246379058218"><ele>281.6</ele><time>2026-04-25T09:29:48Z</time></trkpt><trkpt lat="43.71853684842187" lon="12.501217125318046"><ele>281.40000000000003</ele><time>2026-04-25T09:29:49Z</time></trkpt><trkpt lat="43.71840536268365" lon="12.50116688616885"><ele>281.2</ele><time>2026-04-25T09:29:50Z</time></trkpt><trkpt lat="43.718272674914815" lon="12.501121292044939"><ele>281.0</ele><time>2026-04-25T09:29:51Z</time></trkpt><trkpt lat="43.718120618755805" lon="12.5010475721649"><ele>281.0</ele><time>2026-04-25T09:29:52Z</time></trkpt><trkpt lat="43.71800745794253" lon="12.500971741951476"><ele>281.0</ele><time>2026-04-25T09:29:53Z</time></trkpt><trkpt lat="43.71791385521891" lon="12.50085888542068"><ele>281.0</ele><time>2026-04-25T09:29:54Z</time></trkpt><trkpt lat="43.71782117400871" lon="12.500737095877819"><ele>281.0</ele><time>2026-04-25T09:29:55Z</time></trkpt><trkpt lat="43.7177346858045" lon="12.500636651368618"><ele>280.75</ele><time>2026-04-25T09:29:56Z</time></trkpt><trkpt lat="43.71766509398425" lon="12.500583246517616"><ele>280.5</ele><time>2026-04-25T09:29:57Z</time></trkpt><trkpt lat="43.71757041300662" lon="12.50056149122739"><ele>280.25</ele><time>2026-04-25T09:29:58Z</time></trkpt><trkpt lat="43.71744383485744" lon="12.500548061150562"><ele>280.0</ele><time>2026-04-25T09:29:59Z</time></trkpt><trkpt lat="43.717296636958345" lon="12.500498384607122"><ele>282.66666666666663</ele><time>2026-04-25T09:30:00Z</time></trkpt><trkpt lat="43.71714962146281" lon="12.500395619980264"><ele>285.3333333333333</ele><time>2026-04-25T09:30:01Z</time></trkpt><trkpt lat="43.71701313227246" lon="12.500270703139421"><ele>288.0</ele><time>2026-04-25T09:30:02Z</time></trkpt><trkpt lat="43.71688008629182" lon="12.500132819060678"><ele>288.0</ele><time>2026-04-25T09:30:03Z</time></trkpt><trkpt lat="43.716742805937365" lon="12.499962784619525"><ele>288.0</ele><time>2026-04-25T09:30:04Z</time></trkpt><trkpt lat="43.71661806484476" lon="12.499795770074526"><ele>288.0</ele><time>2026-04-25T09:30:05Z</time></trkpt><trkpt lat="43.71651312332916" lon="12.499672097586052"><ele>288.0</ele><time>2026-04-25T09:30:06Z</time></trkpt><trkpt lat="43.716416311510606" lon="12.499599593055402"><ele>288.0</ele><time>2026-04-25T09:30:07Z</time></trkpt><trkpt lat="43.71628283184027" lon="12.49954152799864"><ele>288.0</ele><time>2026-04-25T09:30:08Z</time></trkpt><trkpt lat="43.716150049317086" lon="12.499492666793056"><ele>288.0</ele><time>2026-04-25T09:30:09Z</time></trkpt><trkpt lat="43.716018114273744" lon="12.499487706231875"><ele>291.4</ele><time>2026-04-25T09:30:10Z</time></trkpt><trkpt lat="43.71589569516698" lon="12.499514785905417"><ele>294.8</ele><time>2026-04-25T09:30:11Z</time></trkpt><trkpt lat="43.71578311165329" lon="12.49954565805475"><ele>298.2</ele><time>2026-04-25T09:30:12Z</time></trkpt><trkpt lat="43.715693418378024" lon="12.499537281531866"><ele>301.6</ele><time>2026-04-25T09:30:13Z</time></trkpt><trkpt lat="43.71560460038461" lon="12.499512213402987"><ele>305.0</ele><time>2026-04-25T09:30:14Z</time></trkpt><trkpt lat="43.71550525849454" lon="12.49941874921381"><ele>305.0</ele><time>2026-04-25T09:30:15Z</time></trkpt><trkpt lat="43.71536715965485" lon="12.499319192647095"><ele>305.0</ele><time>2026-04-25T09:30:16Z</time></trkpt><trkpt lat="43.71524262149632" lon="12.49914420962277"><ele>305.0</ele><time>2026-04-25T09:30:17Z</time></trkpt><trkpt lat="43.715113728467095" lon="12.498948789652099"><ele>301.6666666666667</ele><time>2026-04-25T09:30:18Z</time></trkpt><trkpt lat="43.7149925136021" lon="12.49875204968712"><ele>298.3333333333333</ele><time>2026-04-25T09:30:19Z</time></trkpt><trkpt lat="43.714879839949475" lon="12.498600480765088"><ele>295.0</ele><time>2026-04-25T09:30:20Z</time></trkpt><trkpt lat="43.71478414154151" lon="12.498501704981523"><ele>295.0</ele><time>2026-04-25T09:30:21Z</time></trkpt><trkpt lat="43.714712228356284" lon="12.498402702368159"><ele>295.0</ele><time>2026-04-25T09:30:22Z</time></trkpt><trkpt lat="43.714641291914695" lon="12.498266731358322"><ele>295.0</ele><time>2026-04-25T09:30:23Z</time></trkpt><trkpt lat="43.714567285807206" lon="12.498090089189706"><ele>295.0</ele><time>2026-04-25T09:30:24Z</time></trkpt><trkpt lat="43.7144528925492" lon="12.497897003526196"><ele>292.75</ele><time>2026-04-25T09:30:25Z</time></trkpt><trkpt lat="43.71435292865004" lon="12.497737173515027"><ele>290.5</ele><time>2026-04-25T09:30:26Z</time></trkpt><trkpt lat="43.71428649436223" lon="12.497600417846783"><ele>288.25</ele><time>2026-04-25T09:30:27Z</time></trkpt><trkpt lat="43.71422306060872" lon="12.49748980481891"><ele>286.0</ele><time>2026-04-25T09:30:28Z</time></trkpt><trkpt lat="43.71414055980294" lon="12.497416633604868"><ele>286.0</ele><time>2026-04-25T09:30:29Z</time></trkpt><trkpt lat="43.714058687149574" lon="12.497342997320434"><ele>286.0</ele><time>2026-04-25T09:30:30Z</time></trkpt><trkpt lat="43.713977912106145" lon="12.4972510089705"><ele>286.0</ele><time>2026-04-25T09:30:31Z</time></trkpt><trkpt lat="43.71391268724341" lon="12.497109627838867"><ele>286.0</ele><time>2026-04-25T09:30:32Z</time></trkpt><trkpt lat="43.713843179141286" lon="12.496995927841894"><ele>286.0</ele><time>2026-04-25T09:30:33Z</time></trkpt><trkpt lat="43.71373887016261" lon="12.496852622546077"><ele>286.5</ele><time>2026-04-25T09:30:34Z</time></trkpt><trkpt lat="43.71362461862698" lon="12.496719111804317"><ele>287.0</ele><time>2026-04-25T09:30:35Z</time></trkpt><trkpt lat="43.713534072362094" lon="12.4966369425281"><ele>287.5</ele><time>2026-04-25T09:30:36Z</time></trkpt><trkpt lat="43.713444801870324" lon="12.496581941517544"><ele>288.0</ele><time>2026-04-25T09:30:37Z</time></trkpt><trkpt lat="43.71332254731727" lon="12.496564604533035"><ele>288.0</ele><time>2026-04-25T09:30:38Z</time></trkpt><trkpt lat="43.71314538462374" lon="12.496563039200419"><ele>288.0</ele><time>2026-04-25T09:30:39Z</time></trkpt><trkpt lat="43.712974306191356" lon="12.496550916164393"><ele>288.0</ele><time>2026-04-25T09:30:40Z</time></trkpt><trkpt lat="43.71281317962672" lon="12.496516245609174"><ele>288.6666666666667</ele><time>2026-04-25T09:30:41Z</time></trkpt><trkpt lat="43.71264225771086" lon="12.496441479845435"><ele>289.33333333333337</ele><time>2026-04-25T09:30:42Z</time></trkpt><trkpt lat="43.71250009580083" lon="12.496377027224794"><ele>290.0</ele><time>2026-04-25T09:30:43Z</time></trkpt><trkpt lat="43.712389874881175" lon="12.496301260432654"><ele>290.0</ele><time>2026-04-25T09:30:44Z</time></trkpt><trkpt lat="43.71227280931868" lon="12.496260017320335"><ele>290.0</ele><time>2026-04-25T09:30:45Z</time></trkpt><trkpt lat="43.712173029190275" lon="12.496267016461285"><ele>290.0</ele><time>2026-04-25T09:30:46Z</time></trkpt><trkpt lat="43.712092123291264" lon="12.49630655609877"><ele>290.0</ele><time>2026-04-25T09:30:47Z</time></trkpt><trkpt lat="43.71200046591783" lon="12.496402151133346"><ele>290.0</ele><time>2026-04-25T09:30:48Z</time></trkpt><trkpt lat="43.711914060968134" lon="12.496495973851813"><ele>291.25</ele><time>2026-04-25T09:30:49Z</time></trkpt><trkpt lat="43.71180196043647" lon="12.496518692163189"><ele>292.5</ele><time>2026-04-25T09:30:50Z</time></trkpt><trkpt lat="43.71167369742173" lon="12.496476210224607"><ele>293.75</ele><time>2026-04-25T09:30:51Z</time></trkpt><trkpt lat="43.7115432092982" lon="12.496412802968202"><ele>295.0</ele><time>2026-04-25T09:30:52Z</time></trkpt><trkpt lat="43.71144400109153" lon="12.496310364206215"><ele>294.3333333333333</ele><time>2026-04-25T09:30:53Z</time></trkpt><trkpt lat="43.71134463154948" lon="12.496167002546189"><ele>293.6666666666667</ele><time>2026-04-25T09:30:54Z</time></trkpt><trkpt lat="43.71126654555263" lon="12.495948649800411"><ele>293.0</ele><time>2026-04-25T09:30:55Z</time></trkpt><trkpt lat="43.71118004163199" lon="12.495706488329676"><ele>293.0</ele><time>2026-04-25T09:30:56Z</time></trkpt><trkpt lat="43.7110963818868" lon="12.4954707959648"><ele>293.0</ele><time>2026-04-25T09:30:57Z</time></trkpt><trkpt lat="43.71099216138864" lon="12.495233180835887"><ele>293.0</ele><time>2026-04-25T09:30:58Z</time></trkpt><trkpt lat="43.710834631444754" lon="12.495038809681091"><ele>293.0</ele><time>2026-04-25T09:30:59Z</time></trkpt><trkpt lat="43.71066257308429" lon="12.494807471966466"><ele>293.0</ele><time>2026-04-25T09:31:00Z</time></trkpt><trkpt lat="43.71051026923393" lon="12.494608413348045"><ele>293.0</ele><time>2026-04-25T09:31:01Z</time></trkpt><trkpt lat="43.710382999585676" lon="12.494469897933753"><ele>293.5</ele><time>2026-04-25T09:31:02Z</time></trkpt><trkpt lat="43.71030408014336" lon="12.49432881240424"><ele>294.0</ele><time>2026-04-25T09:31:03Z</time></trkpt><trkpt lat="43.71022722078741" lon="12.494168004342741"><ele>294.5</ele><time>2026-04-25T09:31:04Z</time></trkpt><trkpt lat="43.71015551614676" lon="12.49398968131943"><ele>295.0</ele><time>2026-04-25T09:31:05Z</time></trkpt><trkpt lat="43.71008735930263" lon="12.493832000182147"><ele>294.5</ele><time>2026-04-25T09:31:06Z</time></trkpt><trkpt lat="43.71000029033716" lon="12.493695489127573"><ele>294.0</ele><time>2026-04-25T09:31:07Z</time></trkpt><trkpt lat="43.70990969270148" lon="12.493597197612825"><ele>293.5</ele><time>2026-04-25T09:31:08Z</time></trkpt><trkpt lat="43.709820158108876" lon="12.493560372370384"><ele>293.0</ele><time>2026-04-25T09:31:09Z</time></trkpt><trkpt lat="43.70971023584313" lon="12.49354307442236"><ele>293.0</ele><time>2026-04-25T09:31:10Z</time></trkpt><trkpt lat="43.70960078759071" lon="12.49353430503301"><ele>293.0</ele><time>2026-04-25T09:31:11Z</time></trkpt><trkpt lat="43.709535827176104" lon="12.49352423243721"><ele>293.0</ele><time>2026-04-25T09:31:12Z</time></trkpt><trkpt lat="43.70947254569269" lon="12.493486981609413"><ele>293.0</ele><time>2026-04-25T09:31:13Z</time></trkpt><trkpt lat="43.70939310174183" lon="12.493414953724798"><ele>293.0</ele><time>2026-04-25T09:31:14Z</time></trkpt><trkpt lat="43.70932489737909" lon="12.493304372708632"><ele>293.0</ele><time>2026-04-25T09:31:15Z</time></trkpt><trkpt lat="43.70925429443785" lon="12.493153504364402"><ele>293.1666666666667</ele><time>2026-04-25T09:31:16Z</time></trkpt><trkpt lat="43.709202780178785" lon="12.493037893525171"><ele>293.33333333333337</ele><time>2026-04-25T09:31:17Z</time></trkpt><trkpt lat="43.7091634983616" lon="12.492958350958915"><ele>293.5</ele><time>2026-04-25T09:31:18Z</time></trkpt><trkpt lat="43.70911223394319" lon="12.492879727755772"><ele>293.6666666666667</ele><time>2026-04-25T09:31:20Z</time></trkpt><trkpt lat="43.70903588296618" lon="12.492837516155516"><ele>293.8333333333333</ele><time>2026-04-25T09:31:23Z</time></trkpt><trkpt lat="43.70896919817175" lon="12.492865965704857"><ele>294.0</ele><time>2026-04-25T09:31:25Z</time></trkpt><trkpt lat="43.70887130197199" lon="12.492923051464526"><ele>294.0</ele><time>2026-04-25T09:31:27Z</time></trkpt><trkpt lat="43.708757899622434" lon="12.492954261005174"><ele>294.0</ele><time>2026-04-25T09:31:29Z</time></trkpt><trkpt lat="43.7086468837866" lon="12.492989736290752"><ele>294.0</ele><time>2026-04-25T09:31:31Z</time></trkpt><trkpt lat="43.70855363130442" lon="12.493032697709069"><ele>294.0</ele><time>2026-04-25T09:31:33Z</time></trkpt><trkpt lat="43.708458346908344" lon="12.493074059133175"><ele>294.0</ele><time>2026-04-25T09:31:35Z</time></trkpt><trkpt lat="43.70837082353164" lon="12.493104253551143"><ele>295.3333333333333</ele><time>2026-04-25T09:31:37Z</time></trkpt><trkpt lat="43.70829065178746" lon="12.493125098865063"><ele>296.6666666666667</ele><time>2026-04-25T09:31:39Z</time></trkpt><trkpt lat="43.70822350877584" lon="12.493168299008001"><ele>298.0</ele><time>2026-04-25T09:32:01Z</time></trkpt><trkpt lat="43.708124950543" lon="12.493202862516272"><ele>299.33333333333337</ele><time>2026-04-25T09:32:03Z</time></trkpt><trkpt lat="43.70805947699554" lon="12.493230301533508"><ele>300.6666666666667</ele><time>2026-04-25T09:32:04Z</time></trkpt><trkpt lat="43.707992299536734" lon="12.493263296260462"><ele>302.0</ele><time>2026-04-25T09:32:05Z</time></trkpt><trkpt lat="43.70792057874213" lon="12.493292877260238"><ele>302.0</ele><time>2026-04-25T09:32:06Z</time></trkpt><trkpt lat="43.70784028544237" lon="12.493326839001286"><ele>302.0</ele><time>2026-04-25T09:32:07Z</time></trkpt><trkpt lat="43.70775595765517" lon="12.493367709120765"><ele>302.0</ele><time>2026-04-25T09:32:08Z</time></trkpt><trkpt lat="43.707669236548334" lon="12.493419954203299"><ele>302.0</ele><time>2026-04-25T09:32:09Z</time></trkpt><trkpt lat="43.70757827801132" lon="12.493487756435057"><ele>302.0</ele><time>2026-04-25T09:32:10Z</time></trkpt><trkpt lat="43.707480123986635" lon="12.493561579411088"><ele>303.0</ele><time>2026-04-25T09:32:11Z</time></trkpt><trkpt lat="43.7073886295159" lon="12.49364165974626"><ele>304.0</ele><time>2026-04-25T09:32:12Z</time></trkpt><trkpt lat="43.707299074629724" lon="12.493738884737473"><ele>305.0</ele><time>2026-04-25T09:32:13Z</time></trkpt><trkpt lat="43.707211820056536" lon="12.493845735226348"><ele>306.0</ele><time>2026-04-25T09:32:14Z</time></trkpt><trkpt lat="43.707122856147365" lon="12.49395815875529"><ele>306.0</ele><time>2026-04-25T09:32:15Z</time></trkpt><trkpt lat="43.70703856413965" lon="12.494091950279635"><ele>306.0</ele><time>2026-04-25T09:32:16Z</time></trkpt><trkpt lat="43.70695092762542" lon="12.494216426659015"><ele>306.0</ele><time>2026-04-25T09:32:17Z</time></trkpt><trkpt lat="43.70686908943649" lon="12.494326798384712"><ele>306.0</ele><time>2026-04-25T09:32:18Z</time></trkpt><trkpt lat="43.706807971426" lon="12.49442044226509"><ele>307.5</ele><time>2026-04-25T09:32:19Z</time></trkpt><trkpt lat="43.70674187193973" lon="12.494505830238616"><ele>309.0</ele><time>2026-04-25T09:32:20Z</time></trkpt><trkpt lat="43.70665962665103" lon="12.494577533238445"><ele>310.5</ele><time>2026-04-25T09:32:21Z</time></trkpt><trkpt lat="43.70656857596398" lon="12.494618640800288"><ele>312.0</ele><time>2026-04-25T09:32:22Z</time></trkpt><trkpt lat="43.70648715015769" lon="12.494624981509707"><ele>313.5</ele><time>2026-04-25T09:32:23Z</time></trkpt><trkpt lat="43.70641834675774" lon="12.494597432814508"><ele>315.0</ele><time>2026-04-25T09:32:24Z</time></trkpt><trkpt lat="43.70635290487941" lon="12.49453286575533"><ele>316.0</ele><time>2026-04-25T09:32:25Z</time></trkpt><trkpt lat="43.706309507372" lon="12.494429207348501"><ele>317.0</ele><time>2026-04-25T09:32:26Z</time></trkpt><trkpt lat="43.70628026138999" lon="12.494314124233801"><ele>318.0</ele><time>2026-04-25T09:32:27Z</time></trkpt><trkpt lat="43.70626559136066" lon="12.4941752718901"><ele>319.0</ele><time>2026-04-25T09:32:28Z</time></trkpt><trkpt lat="43.70627301601825" lon="12.49402340877456"><ele>320.0</ele><time>2026-04-25T09:32:29Z</time></trkpt><trkpt lat="43.70629371855245" lon="12.493848803234075"><ele>320.4</ele><time>2026-04-25T09:32:30Z</time></trkpt><trkpt lat="43.70631014016645" lon="12.493692306787615"><ele>320.8</ele><time>2026-04-25T09:32:31Z</time></trkpt><trkpt lat="43.70631076333738" lon="12.49355938137218"><ele>321.20000000000005</ele><time>2026-04-25T09:32:32Z</time></trkpt><trkpt lat="43.70628304397113" lon="12.493435530807867"><ele>321.6</ele><time>2026-04-25T09:32:33Z</time></trkpt><trkpt lat="43.7062221194284" lon="12.49332068892181"><ele>322.0</ele><time>2026-04-25T09:32:34Z</time></trkpt><trkpt lat="43.70613382429458" lon="12.493242749139185"><ele>324.40000000000003</ele><time>2026-04-25T09:32:35Z</time></trkpt><trkpt lat="43.706030144464705" lon="12.493210383701527"><ele>326.8</ele><time>2026-04-25T09:32:36Z</time></trkpt><trkpt lat="43.70594154965693" lon="12.493233238307905"><ele>329.2</ele><time>2026-04-25T09:32:37Z</time></trkpt><trkpt lat="43.70585386602815" lon="12.493322591971195"><ele>331.6</ele><time>2026-04-25T09:32:38Z</time></trkpt><trkpt lat="43.70575761695346" lon="12.493437684781144"><ele>334.0</ele><time>2026-04-25T09:32:39Z</time></trkpt><trkpt lat="43.705657147282544" lon="12.49357401869806"><ele>334.0</ele><time>2026-04-25T09:32:40Z</time></trkpt><trkpt lat="43.70555457092198" lon="12.493727287728195"><ele>334.0</ele><time>2026-04-25T09:32:41Z</time></trkpt><trkpt lat="43.705451732198874" lon="12.49388356680508"><ele>334.0</ele><time>2026-04-25T09:32:42Z</time></trkpt><trkpt lat="43.705366294781356" lon="12.494021887023681"><ele>334.0</ele><time>2026-04-25T09:32:43Z</time></trkpt><trkpt lat="43.70529883616975" lon="12.494129964806504"><ele>334.6</ele><time>2026-04-25T09:32:44Z</time></trkpt><trkpt lat="43.70524846071078" lon="12.494240181394069"><ele>335.2</ele><time>2026-04-25T09:32:45Z</time></trkpt><trkpt lat="43.70519020003913" lon="12.49436241186363"><ele>335.8</ele><time>2026-04-25T09:32:46Z</time></trkpt><trkpt lat="43.70511156579285" lon="12.494481536054646"><ele>336.40000000000003</ele><time>2026-04-25T09:32:47Z</time></trkpt><trkpt lat="43.705027750589416" lon="12.494615724063188"><ele>337.0</ele><time>2026-04-25T09:32:48Z</time></trkpt><trkpt lat="43.70494058563614" lon="12.494758389657887"><ele>337.0</ele><time>2026-04-25T09:32:49Z</time></trkpt><trkpt lat="43.70485300406072" lon="12.494903217949332"><ele>337.0</ele><time>2026-04-25T09:32:50Z</time></trkpt><trkpt lat="43.7047707826973" lon="12.495016722863149"><ele>337.0</ele><time>2026-04-25T09:32:51Z</time></trkpt><trkpt lat="43.704686048720276" lon="12.4951175165302"><ele>337.0</ele><time>2026-04-25T09:32:52Z</time></trkpt><trkpt lat="43.70459591829983" lon="12.495167503266888"><ele>337.0</ele><time>2026-04-25T09:32:53Z</time></trkpt><trkpt lat="43.70450324477413" lon="12.495190253573485"><ele>337.0</ele><time>2026-04-25T09:32:54Z</time></trkpt><trkpt lat="43.704411069506165" lon="12.495188702479531"><ele>337.0</ele><time>2026-04-25T09:32:55Z</time></trkpt><trkpt lat="43.704323947522454" lon="12.495164159926558"><ele>337.0</ele><time>2026-04-25T09:32:56Z</time></trkpt><trkpt lat="43.704242427748646" lon="12.495087416591177"><ele>337.0</ele><time>2026-04-25T09:32:57Z</time></trkpt><trkpt lat="43.70417093432463" lon="12.49497508278524"><ele>339.20000000000005</ele><time>2026-04-25T09:32:58Z</time></trkpt><trkpt lat="43.704126976516335" lon="12.494837200500161"><ele>341.4</ele><time>2026-04-25T09:32:59Z</time></trkpt><trkpt lat="43.704114459855155" lon="12.494700234734097"><ele>343.6</ele><time>2026-04-25T09:33:00Z</time></trkpt><trkpt lat="43.70414012376294" lon="12.494545506807393"><ele>345.79999999999995</ele><time>2026-04-25T09:33:01Z</time></trkpt><trkpt lat="43.70420186597069" lon="12.49440152655863"><ele>348.0</ele><time>2026-04-25T09:33:02Z</time></trkpt><trkpt lat="43.704298154307956" lon="12.494264301996619"><ele>346.3333333333333</ele><time>2026-04-25T09:33:03Z</time></trkpt><trkpt lat="43.70441143521209" lon="12.494127200862689"><ele>344.66666666666663</ele><time>2026-04-25T09:33:04Z</time></trkpt><trkpt lat="43.70452380223171" lon="12.493952282123871"><ele>343.0</ele><time>2026-04-25T09:33:05Z</time></trkpt><trkpt lat="43.70461730486289" lon="12.493774304338716"><ele>345.0</ele><time>2026-04-25T09:33:06Z</time></trkpt><trkpt lat="43.70470348083015" lon="12.493600092258788"><ele>347.0</ele><time>2026-04-25T09:33:07Z</time></trkpt><trkpt lat="43.704758910808074" lon="12.49342469682289"><ele>349.0</ele><time>2026-04-25T09:33:08Z</time></trkpt><trkpt lat="43.70479632278274" lon="12.493225468168891"><ele>351.0</ele><time>2026-04-25T09:33:09Z</time></trkpt><trkpt lat="43.70482847130896" lon="12.493030122897116"><ele>354.25</ele><time>2026-04-25T09:33:10Z</time></trkpt><trkpt lat="43.70486564368565" lon="12.492839441150254"><ele>357.5</ele><time>2026-04-25T09:33:11Z</time></trkpt><trkpt lat="43.70490554512096" lon="12.492650743917046"><ele>360.75</ele><time>2026-04-25T09:33:12Z</time></trkpt><trkpt lat="43.70495588983764" lon="12.492470080051124"><ele>364.0</ele><time>2026-04-25T09:33:13Z</time></trkpt><trkpt lat="43.70501888644484" lon="12.492306526131783"><ele>364.0</ele><time>2026-04-25T09:33:14Z</time></trkpt><trkpt lat="43.70506866941491" lon="12.492151992042478"><ele>364.0</ele><time>2026-04-25T09:33:15Z</time></trkpt><trkpt lat="43.705103672797385" lon="12.492012273164118"><ele>364.0</ele><time>2026-04-25T09:33:16Z</time></trkpt><trkpt lat="43.705103453522426" lon="12.49187640854227"><ele>364.0</ele><time>2026-04-25T09:33:17Z</time></trkpt><trkpt lat="43.70507075895634" lon="12.491724938495844"><ele>364.0</ele><time>2026-04-25T09:33:18Z</time></trkpt><trkpt lat="43.705014260733876" lon="12.491602640177684"><ele>364.6</ele><time>2026-04-25T09:33:19Z</time></trkpt><trkpt lat="43.70494353163065" lon="12.491500453348376"><ele>365.2</ele><time>2026-04-25T09:33:20Z</time></trkpt><trkpt lat="43.70485520119105" lon="12.491402385441601"><ele>365.8</ele><time>2026-04-25T09:33:21Z</time></trkpt><trkpt lat="43.70477207186446" lon="12.49134222491837"><ele>366.40000000000003</ele><time>2026-04-25T09:33:22Z</time></trkpt><trkpt lat="43.704673669078154" lon="12.49132824515986"><ele>367.0</ele><time>2026-04-25T09:33:23Z</time></trkpt><trkpt lat="43.70455577260867" lon="12.491359092873523"><ele>367.0</ele><time>2026-04-25T09:33:24Z</time></trkpt><trkpt lat="43.70444566943406" lon="12.491419665866383"><ele>367.0</ele><time>2026-04-25T09:33:25Z</time></trkpt><trkpt lat="43.70436375277627" lon="12.491497733310842"><ele>367.0</ele><time>2026-04-25T09:33:26Z</time></trkpt><trkpt lat="43.704273518847494" lon="12.491592831119908"><ele>367.0</ele><time>2026-04-25T09:33:27Z</time></trkpt><trkpt lat="43.70417149385048" lon="12.491687856649333"><ele>368.75</ele><time>2026-04-25T09:33:28Z</time></trkpt><trkpt lat="43.7040657178145" lon="12.491782694768784"><ele>370.5</ele><time>2026-04-25T09:33:29Z</time></trkpt><trkpt lat="43.703959638498866" lon="12.491883613140022"><ele>372.25</ele><time>2026-04-25T09:33:30Z</time></trkpt><trkpt lat="43.703841819026984" lon="12.491984992195867"><ele>374.0</ele><time>2026-04-25T09:33:31Z</time></trkpt><trkpt lat="43.70371781895577" lon="12.492095896329321"><ele>374.0</ele><time>2026-04-25T09:33:32Z</time></trkpt><trkpt lat="43.7035844742644" lon="12.492205317053985"><ele>374.0</ele><time>2026-04-25T09:33:33Z</time></trkpt><trkpt lat="43.70344786034851" lon="12.49230547370703"><ele>374.0</ele><time>2026-04-25T09:33:34Z</time></trkpt><trkpt lat="43.7033120210833" lon="12.492411369528728"><ele>376.0</ele><time>2026-04-25T09:33:35Z</time></trkpt><trkpt lat="43.70318478949844" lon="12.492502168410518"><ele>378.0</ele><time>2026-04-25T09:33:36Z</time></trkpt><trkpt lat="43.70307120521685" lon="12.492563413632466"><ele>380.0</ele><time>2026-04-25T09:33:37Z</time></trkpt><trkpt lat="43.702953355220664" lon="12.492657330409164"><ele>382.0</ele><time>2026-04-25T09:33:38Z</time></trkpt><trkpt lat="43.70283972390723" lon="12.492701759130478"><ele>384.0</ele><time>2026-04-25T09:33:39Z</time></trkpt><trkpt lat="43.7027050309611" lon="12.492659395230744"><ele>386.0</ele><time>2026-04-25T09:33:40Z</time></trkpt><trkpt lat="43.702584819836524" lon="12.49263748101788"><ele>388.0</ele><time>2026-04-25T09:33:41Z</time></trkpt><trkpt lat="43.70245897392286" lon="12.492620205163304"><ele>390.0</ele><time>2026-04-25T09:33:42Z</time></trkpt><trkpt lat="43.702327629833015" lon="12.492615760920573"><ele>390.0</ele><time>2026-04-25T09:33:43Z</time></trkpt><trkpt lat="43.70219199203662" lon="12.492619872105374"><ele>390.0</ele><time>2026-04-25T09:33:44Z</time></trkpt><trkpt lat="43.702055179148" lon="12.49262231026488"><ele>390.0</ele><time>2026-04-25T09:33:45Z</time></trkpt><trkpt lat="43.70191917362739" lon="12.4926165267892"><ele>390.0</ele><time>2026-04-25T09:33:46Z</time></trkpt><trkpt lat="43.70178938000177" lon="12.492593789047346"><ele>392.0</ele><time>2026-04-25T09:33:47Z</time></trkpt><trkpt lat="43.701672029566" lon="12.492552089218044"><ele>394.0</ele><time>2026-04-25T09:33:48Z</time></trkpt><trkpt lat="43.701564270105635" lon="12.492490604731039"><ele>396.0</ele><time>2026-04-25T09:33:49Z</time></trkpt><trkpt lat="43.70146706738148" lon="12.492390316796337"><ele>398.0</ele><time>2026-04-25T09:33:50Z</time></trkpt><trkpt lat="43.70137325274222" lon="12.492253277505736"><ele>400.0</ele><time>2026-04-25T09:33:51Z</time></trkpt><trkpt lat="43.70128807165243" lon="12.492082380124051"><ele>402.0</ele><time>2026-04-25T09:33:52Z</time></trkpt><trkpt lat="43.70123339575481" lon="12.491876685044586"><ele>404.0</ele><time>2026-04-25T09:33:53Z</time></trkpt><trkpt lat="43.70114752517439" lon="12.491717261508331"><ele>405.79999999999995</ele><time>2026-04-25T09:33:54Z</time></trkpt><trkpt lat="43.70107549114795" lon="12.491576642721215"><ele>407.59999999999997</ele><time>2026-04-25T09:33:55Z</time></trkpt><trkpt lat="43.70099544451669" lon="12.491468869718041"><ele>409.4</ele><time>2026-04-25T09:33:56Z</time></trkpt><trkpt lat="43.70090380857278" lon="12.491402110597582"><ele>411.2</ele><time>2026-04-25T09:33:57Z</time></trkpt><trkpt lat="43.700822990702505" lon="12.49138813481269"><ele>413.0</ele><time>2026-04-25T09:33:58Z</time></trkpt><trkpt lat="43.70073457018843" lon="12.491444857026938"><ele>413.0</ele><time>2026-04-25T09:33:59Z</time></trkpt><trkpt lat="43.7006449632006" lon="12.491521200536388"><ele>413.0</ele><time>2026-04-25T09:34:00Z</time></trkpt><trkpt lat="43.700541745045015" lon="12.491608853820102"><ele>413.0</ele><time>2026-04-25T09:34:01Z</time></trkpt><trkpt lat="43.70044920593767" lon="12.491732444447422"><ele>413.0</ele><time>2026-04-25T09:34:02Z</time></trkpt><trkpt lat="43.70035773446557" lon="12.491881433168338"><ele>413.0</ele><time>2026-04-25T09:34:03Z</time></trkpt><trkpt lat="43.700272856267134" lon="12.492065379721423"><ele>413.0</ele><time>2026-04-25T09:34:04Z</time></trkpt><trkpt lat="43.70019460349156" lon="12.492285395512104"><ele>413.0</ele><time>2026-04-25T09:34:05Z</time></trkpt><trkpt lat="43.70011293044821" lon="12.492525060280476"><ele>413.66666666666663</ele><time>2026-04-25T09:34:06Z</time></trkpt><trkpt lat="43.700032904822656" lon="12.492766972690491"><ele>414.33333333333337</ele><time>2026-04-25T09:34:07Z</time></trkpt><trkpt lat="43.699952244800976" lon="12.49300417888651"><ele>415.0</ele><time>2026-04-25T09:34:08Z</time></trkpt><trkpt lat="43.699870784636715" lon="12.493236979728266"><ele>415.0</ele><time>2026-04-25T09:34:09Z</time></trkpt><trkpt lat="43.69977202234239" lon="12.493444778833506"><ele>415.0</ele><time>2026-04-25T09:34:10Z</time></trkpt><trkpt lat="43.699668699103036" lon="12.493655351200799"><ele>415.0</ele><time>2026-04-25T09:34:11Z</time></trkpt><trkpt lat="43.699560244416325" lon="12.493862981228409"><ele>413.33333333333337</ele><time>2026-04-25T09:34:12Z</time></trkpt><trkpt lat="43.699443642204955" lon="12.494083639795653"><ele>411.66666666666663</ele><time>2026-04-25T09:34:13Z</time></trkpt><trkpt lat="43.699328477946196" lon="12.494290823231006"><ele>410.0</ele><time>2026-04-25T09:34:14Z</time></trkpt><trkpt lat="43.6992357844592" lon="12.494479709468424"><ele>413.75</ele><time>2026-04-25T09:34:15Z</time></trkpt><trkpt lat="43.6991408151832" lon="12.494637377994074"><ele>417.5</ele><time>2026-04-25T09:34:16Z</time></trkpt><trkpt lat="43.69906468603172" lon="12.494784895166669"><ele>421.25</ele><time>2026-04-25T09:34:17Z</time></trkpt><trkpt lat="43.69900904477793" lon="12.4949642013771"><ele>425.0</ele><time>2026-04-25T09:34:18Z</time></trkpt><trkpt lat="43.698955967989974" lon="12.495167443548478"><ele>425.0</ele><time>2026-04-25T09:34:19Z</time></trkpt><trkpt lat="43.69890456416665" lon="12.495389699854364"><ele>425.0</ele><time>2026-04-25T09:34:20Z</time></trkpt><trkpt lat="43.6988601669274" lon="12.495616389433728"><ele>425.0</ele><time>2026-04-25T09:34:21Z</time></trkpt><trkpt lat="43.69881374903569" lon="12.49586485029495"><ele>423.66666666666663</ele><time>2026-04-25T09:34:22Z</time></trkpt><trkpt lat="43.69877378531756" lon="12.496112628598356"><ele>422.33333333333337</ele><time>2026-04-25T09:34:23Z</time></trkpt><trkpt lat="43.6987421544343" lon="12.4963360896039"><ele>421.0</ele><time>2026-04-25T09:34:24Z</time></trkpt><trkpt lat="43.69868329627702" lon="12.496531458920302"><ele>420.6666666666667</ele><time>2026-04-25T09:34:25Z</time></trkpt><trkpt lat="43.69861674574264" lon="12.496714143665121"><ele>420.33333333333337</ele><time>2026-04-25T09:34:26Z</time></trkpt><trkpt lat="43.69853243475303" lon="12.496897352065215"><ele>420.0</ele><time>2026-04-25T09:34:27Z</time></trkpt><trkpt lat="43.69843125513615" lon="12.497089918825083"><ele>425.33333333333337</ele><time>2026-04-25T09:34:28Z</time></trkpt><trkpt lat="43.698331686676184" lon="12.497290223535318"><ele>430.6666666666667</ele><time>2026-04-25T09:34:29Z</time></trkpt><trkpt lat="43.698231606935735" lon="12.497492101477686"><ele>436.0</ele><time>2026-04-25T09:34:30Z</time></trkpt><trkpt lat="43.69813250361546" lon="12.497669705731324"><ele>436.0</ele><time>2026-04-25T09:34:31Z</time></trkpt><trkpt lat="43.6980328227159" lon="12.497799514863296"><ele>436.0</ele><time>2026-04-25T09:34:32Z</time></trkpt><trkpt lat="43.697927567337956" lon="12.497908860214714"><ele>436.0</ele><time>2026-04-25T09:34:33Z</time></trkpt><trkpt lat="43.6978047140349" lon="12.49798432392029"><ele>436.0</ele><time>2026-04-25T09:34:34Z</time></trkpt><trkpt lat="43.69766027136529" lon="12.498067992639287"><ele>438.6666666666667</ele><time>2026-04-25T09:34:35Z</time></trkpt><trkpt lat="43.69751150727307" lon="12.49815393540274"><ele>441.33333333333337</ele><time>2026-04-25T09:34:36Z</time></trkpt><trkpt lat="43.69736849732284" lon="12.498256128331102"><ele>444.0</ele><time>2026-04-25T09:34:37Z</time></trkpt><trkpt lat="43.697223992938326" lon="12.498330127655581"><ele>444.0</ele><time>2026-04-25T09:34:38Z</time></trkpt><trkpt lat="43.69709534533097" lon="12.498400732069978"><ele>444.0</ele><time>2026-04-25T09:34:39Z</time></trkpt><trkpt lat="43.69698636727194" lon="12.498460818086338"><ele>444.0</ele><time>2026-04-25T09:34:40Z</time></trkpt><trkpt lat="43.69690639180998" lon="12.498541491855773"><ele>444.0</ele><time>2026-04-25T09:34:41Z</time></trkpt><trkpt lat="43.69683991487491" lon="12.498641194228584"><ele>447.5</ele><time>2026-04-25T09:34:42Z</time></trkpt><trkpt lat="43.69678800218994" lon="12.498768189752543"><ele>451.0</ele><time>2026-04-25T09:34:43Z</time></trkpt><trkpt lat="43.696741980470975" lon="12.498917734021537"><ele>454.5</ele><time>2026-04-25T09:34:44Z</time></trkpt><trkpt lat="43.696682625064824" lon="12.499083206960297"><ele>458.0</ele><time>2026-04-25T09:34:45Z</time></trkpt><trkpt lat="43.69662797335584" lon="12.499251215201168"><ele>457.99999999999994</ele><time>2026-04-25T09:34:46Z</time></trkpt><trkpt lat="43.69655134733609" lon="12.49935395305012"><ele>458.0</ele><time>2026-04-25T09:34:47Z</time></trkpt><trkpt lat="43.69643988685428" lon="12.49934160403144"><ele>458.0</ele><time>2026-04-25T09:34:49Z</time></trkpt><trkpt lat="43.69637233301799" lon="12.499300861954067"><ele>458.0</ele><time>2026-04-25T09:34:50Z</time></trkpt><trkpt lat="43.69631605342299" lon="12.49923710117154"><ele>457.99999999999994</ele><time>2026-04-25T09:34:51Z</time></trkpt><trkpt lat="43.69625176117217" lon="12.499199884579488"><ele>458.0</ele><time>2026-04-25T09:34:53Z</time></trkpt><trkpt lat="43.69618947921136" lon="12.499245749489583"><ele>457.99999999999994</ele><time>2026-04-25T09:34:57Z</time></trkpt><trkpt lat="43.69613230784263" lon="12.499398014172968"><ele>458.0</ele><time>2026-04-25T09:34:59Z</time></trkpt><trkpt lat="43.696103806967244" lon="12.499482952019251"><ele>458.0</ele><time>2026-04-25T09:35:00Z</time></trkpt><trkpt lat="43.69605360025842" lon="12.499551374470814"><ele>458.0</ele><time>2026-04-25T09:35:01Z</time></trkpt><trkpt lat="43.69600601493302" lon="12.499642920387709"><ele>457.99999999999994</ele><time>2026-04-25T09:35:02Z</time></trkpt><trkpt lat="43.69595606017631" lon="12.499749571038766"><ele>458.0</ele><time>2026-04-25T09:35:03Z</time></trkpt><trkpt lat="43.69591865407674" lon="12.499871107512435"><ele>458.2</ele><time>2026-04-25T09:35:04Z</time></trkpt><trkpt lat="43.69588304849912" lon="12.499994102955844"><ele>458.4</ele><time>2026-04-25T09:35:05Z</time></trkpt><trkpt lat="43.69586468087694" lon="12.500141349767208"><ele>458.59999999999997</ele><time>2026-04-25T09:35:06Z</time></trkpt><trkpt lat="43.69584981739528" lon="12.50029778954949"><ele>458.79999999999995</ele><time>2026-04-25T09:35:07Z</time></trkpt><trkpt lat="43.69583310771003" lon="12.50043670356327"><ele>459.0</ele><time>2026-04-25T09:35:08Z</time></trkpt><trkpt lat="43.6957964320708" lon="12.500566538273272"><ele>459.5</ele><time>2026-04-25T09:35:09Z</time></trkpt><trkpt lat="43.695739040677594" lon="12.500657058028933"><ele>460.0</ele><time>2026-04-25T09:35:10Z</time></trkpt><trkpt lat="43.69569224186945" lon="12.500752247552134"><ele>460.5</ele><time>2026-04-25T09:35:11Z</time></trkpt><trkpt lat="43.695637887971195" lon="12.500844215897864"><ele>461.0</ele><time>2026-04-25T09:35:12Z</time></trkpt><trkpt lat="43.695573064323796" lon="12.500932970532377"><ele>461.5</ele><time>2026-04-25T09:35:13Z</time></trkpt><trkpt lat="43.69549001346116" lon="12.501012415236143"><ele>462.0</ele><time>2026-04-25T09:35:14Z</time></trkpt><trkpt lat="43.69538862258426" lon="12.501078950309623"><ele>462.0</ele><time>2026-04-25T09:35:15Z</time></trkpt><trkpt lat="43.69528501940095" lon="12.501161072465543"><ele>462.0</ele><time>2026-04-25T09:35:16Z</time></trkpt><trkpt lat="43.695166614848674" lon="12.501214920471124"><ele>462.0</ele><time>2026-04-25T09:35:17Z</time></trkpt><trkpt lat="43.6950419121797" lon="12.501275683177562"><ele>462.0</ele><time>2026-04-25T09:35:18Z</time></trkpt><trkpt lat="43.694916759150516" lon="12.501345049142415"><ele>461.5</ele><time>2026-04-25T09:35:19Z</time></trkpt><trkpt lat="43.69479990873268" lon="12.501408617377512"><ele>461.0</ele><time>2026-04-25T09:35:20Z</time></trkpt><trkpt lat="43.694690061609805" lon="12.501468396262052"><ele>460.5</ele><time>2026-04-25T09:35:21Z</time></trkpt><trkpt lat="43.69458483173621" lon="12.501534244672127"><ele>460.0</ele><time>2026-04-25T09:35:22Z</time></trkpt><trkpt lat="43.69449205343472" lon="12.501603659421905"><ele>454.25</ele><time>2026-04-25T09:35:23Z</time></trkpt><trkpt lat="43.69441633992471" lon="12.501697386128697"><ele>448.5</ele><time>2026-04-25T09:35:24Z</time></trkpt><trkpt lat="43.694361284039196" lon="12.50183535165819"><ele>442.75</ele><time>2026-04-25T09:35:25Z</time></trkpt><trkpt lat="43.694337263905936" lon="12.501997257218255"><ele>437.0</ele><time>2026-04-25T09:35:26Z</time></trkpt><trkpt lat="43.69434467646411" lon="12.502157422503483"><ele>437.0</ele><time>2026-04-25T09:35:27Z</time></trkpt><trkpt lat="43.69438735164024" lon="12.502341345665576"><ele>437.0</ele><time>2026-04-25T09:35:28Z</time></trkpt><trkpt lat="43.69444982707169" lon="12.502532989244596"><ele>437.0</ele><time>2026-04-25T09:35:29Z</time></trkpt><trkpt lat="43.69452018452716" lon="12.502705099841359"><ele>437.0</ele><time>2026-04-25T09:35:30Z</time></trkpt><trkpt lat="43.69451740213805" lon="12.502873931391823"><ele>437.0</ele><time>2026-04-25T09:35:31Z</time></trkpt><trkpt lat="43.694504189963624" lon="12.50303980641412"><ele>437.0</ele><time>2026-04-25T09:35:32Z</time></trkpt><trkpt lat="43.69445523915312" lon="12.503206448710042"><ele>437.0</ele><time>2026-04-25T09:35:33Z</time></trkpt><trkpt lat="43.69438965186153" lon="12.503387072642147"><ele>437.0</ele><time>2026-04-25T09:35:34Z</time></trkpt><trkpt lat="43.69430582889508" lon="12.50358384581475"><ele>439.66666666666663</ele><time>2026-04-25T09:35:35Z</time></trkpt><trkpt lat="43.694217768691445" lon="12.503785766708296"><ele>442.33333333333337</ele><time>2026-04-25T09:35:36Z</time></trkpt><trkpt lat="43.69412455533154" lon="12.503998109259022"><ele>445.0</ele><time>2026-04-25T09:35:37Z</time></trkpt><trkpt lat="43.69403333681341" lon="12.504200966079365"><ele>445.0</ele><time>2026-04-25T09:35:38Z</time></trkpt><trkpt lat="43.69395069468311" lon="12.504379070723665"><ele>445.0</ele><time>2026-04-25T09:35:39Z</time></trkpt><trkpt lat="43.69386802580463" lon="12.504532514871615"><ele>445.0</ele><time>2026-04-25T09:35:40Z</time></trkpt><trkpt lat="43.69377372717883" lon="12.504659682262204"><ele>445.0</ele><time>2026-04-25T09:35:41Z</time></trkpt><trkpt lat="43.6936646749362" lon="12.5047492213153"><ele>442.5</ele><time>2026-04-25T09:35:42Z</time></trkpt><trkpt lat="43.69354603257581" lon="12.504812106140646"><ele>440.0</ele><time>2026-04-25T09:35:43Z</time></trkpt><trkpt lat="43.69341030961621" lon="12.504861139081315"><ele>437.5</ele><time>2026-04-25T09:35:44Z</time></trkpt><trkpt lat="43.6932638470699" lon="12.504906408551298"><ele>435.0</ele><time>2026-04-25T09:35:45Z</time></trkpt><trkpt lat="43.69311969517495" lon="12.504938166129273"><ele>435.0</ele><time>2026-04-25T09:35:46Z</time></trkpt><trkpt lat="43.69298370125677" lon="12.504960349800092"><ele>435.0</ele><time>2026-04-25T09:35:47Z</time></trkpt><trkpt lat="43.6928555431739" lon="12.5049819105665"><ele>435.0</ele><time>2026-04-25T09:35:48Z</time></trkpt><trkpt lat="43.69272736474858" lon="12.505025281100066"><ele>435.0</ele><time>2026-04-25T09:35:49Z</time></trkpt><trkpt lat="43.692594114775524" lon="12.505096255050118"><ele>434.5</ele><time>2026-04-25T09:35:50Z</time></trkpt><trkpt lat="43.69247086105064" lon="12.505174477884959"><ele>434.0</ele><time>2026-04-25T09:35:51Z</time></trkpt><trkpt lat="43.692341164239345" lon="12.505258975410149"><ele>433.5</ele><time>2026-04-25T09:35:52Z</time></trkpt><trkpt lat="43.69220696576419" lon="12.505346113169866"><ele>433.0</ele><time>2026-04-25T09:35:53Z</time></trkpt><trkpt lat="43.69206486734747" lon="12.50544108325853"><ele>433.0</ele><time>2026-04-25T09:35:54Z</time></trkpt><trkpt lat="43.69193193112782" lon="12.505520285292762"><ele>433.0</ele><time>2026-04-25T09:35:55Z</time></trkpt><trkpt lat="43.69180128681615" lon="12.505595595278603"><ele>433.0</ele><time>2026-04-25T09:35:56Z</time></trkpt><trkpt lat="43.691669645636495" lon="12.505647484881818"><ele>433.0</ele><time>2026-04-25T09:35:57Z</time></trkpt><trkpt lat="43.69154530749913" lon="12.505633655379308"><ele>429.75</ele><time>2026-04-25T09:35:58Z</time></trkpt><trkpt lat="43.6914254825242" lon="12.505610781597147"><ele>426.5</ele><time>2026-04-25T09:35:59Z</time></trkpt><trkpt lat="43.69131331830663" lon="12.505560750874011"><ele>423.25</ele><time>2026-04-25T09:36:00Z</time></trkpt><trkpt lat="43.69121718615021" lon="12.505466035136276"><ele>420.0</ele><time>2026-04-25T09:36:01Z</time></trkpt><trkpt lat="43.69113491032439" lon="12.50534779840183"><ele>416.75</ele><time>2026-04-25T09:36:02Z</time></trkpt><trkpt lat="43.6910714434437" lon="12.505205029093291"><ele>413.5</ele><time>2026-04-25T09:36:03Z</time></trkpt><trkpt lat="43.691002700349266" lon="12.505047985038836"><ele>410.25</ele><time>2026-04-25T09:36:04Z</time></trkpt><trkpt lat="43.69091429737911" lon="12.504885350286502"><ele>407.0</ele><time>2026-04-25T09:36:05Z</time></trkpt><trkpt lat="43.690851672115755" lon="12.504700695159036"><ele>403.6</ele><time>2026-04-25T09:36:06Z</time></trkpt><trkpt lat="43.69077332182993" lon="12.504565752428514"><ele>400.20000000000005</ele><time>2026-04-25T09:36:07Z</time></trkpt><trkpt lat="43.69069162701541" lon="12.504515392321675"><ele>396.8</ele><time>2026-04-25T09:36:08Z</time></trkpt><trkpt lat="43.690617814734004" lon="12.504531768418653"><ele>393.4</ele><time>2026-04-25T09:36:09Z</time></trkpt><trkpt lat="43.69052146197766" lon="12.504542931254562"><ele>390.0</ele><time>2026-04-25T09:36:10Z</time></trkpt><trkpt lat="43.690380219417726" lon="12.504549314114762"><ele>389.0</ele><time>2026-04-25T09:36:11Z</time></trkpt><trkpt lat="43.69023466603073" lon="12.504539485421631"><ele>388.0</ele><time>2026-04-25T09:36:12Z</time></trkpt><trkpt lat="43.69004348249378" lon="12.504431612728759"><ele>387.0</ele><time>2026-04-25T09:36:13Z</time></trkpt><trkpt lat="43.689895350592444" lon="12.50438231671411"><ele>387.0</ele><time>2026-04-25T09:36:14Z</time></trkpt><trkpt lat="43.689780735544026" lon="12.504339452523688"><ele>387.0</ele><time>2026-04-25T09:36:15Z</time></trkpt><trkpt lat="43.68969368877914" lon="12.504281800983192"><ele>387.0</ele><time>2026-04-25T09:36:16Z</time></trkpt><trkpt lat="43.6896039403216" lon="12.504293171124539"><ele>387.0</ele><time>2026-04-25T09:36:17Z</time></trkpt><trkpt lat="43.68952299582685" lon="12.504336073810856"><ele>387.0</ele><time>2026-04-25T09:36:18Z</time></trkpt><trkpt lat="43.68944100304677" lon="12.504393255766477"><ele>383.8</ele><time>2026-04-25T09:36:19Z</time></trkpt><trkpt lat="43.6893764119661" lon="12.504494693322483"><ele>380.6</ele><time>2026-04-25T09:36:20Z</time></trkpt><trkpt lat="43.68933464678087" lon="12.504619357851436"><ele>377.40000000000003</ele><time>2026-04-25T09:36:21Z</time></trkpt><trkpt lat="43.68931905437715" lon="12.504759917242419"><ele>374.20000000000005</ele><time>2026-04-25T09:36:22Z</time></trkpt><trkpt lat="43.68935051430273" lon="12.504919248227365"><ele>371.0</ele><time>2026-04-25T09:36:23Z</time></trkpt><trkpt lat="43.689406524576924" lon="12.505078718703295"><ele>374.33333333333337</ele><time>2026-04-25T09:36:24Z</time></trkpt><trkpt lat="43.68951116407994" lon="12.505221041440318"><ele>377.6666666666667</ele><time>2026-04-25T09:36:25Z</time></trkpt><trkpt lat="43.68962970246356" lon="12.505371316666503"><ele>381.0</ele><time>2026-04-25T09:36:26Z</time></trkpt><trkpt lat="43.689722460338146" lon="12.505542700028938"><ele>381.0</ele><time>2026-04-25T09:36:27Z</time></trkpt><trkpt lat="43.68977538284584" lon="12.505693838975414"><ele>381.0</ele><time>2026-04-25T09:36:28Z</time></trkpt><trkpt lat="43.689796931551925" lon="12.505838982421368"><ele>381.0</ele><time>2026-04-25T09:36:29Z</time></trkpt><trkpt lat="43.68980047386668" lon="12.5059754180576"><ele>381.0</ele><time>2026-04-25T09:36:30Z</time></trkpt><trkpt lat="43.68978029630225" lon="12.506102889762982"><ele>381.0</ele><time>2026-04-25T09:36:31Z</time></trkpt><trkpt lat="43.68973372646962" lon="12.5062312701"><ele>381.75</ele><time>2026-04-25T09:36:32Z</time></trkpt><trkpt lat="43.68966192302818" lon="12.506388392447153"><ele>382.5</ele><time>2026-04-25T09:36:33Z</time></trkpt><trkpt lat="43.68957231348534" lon="12.506567869766819"><ele>383.25</ele><time>2026-04-25T09:36:34Z</time></trkpt><trkpt lat="43.68948338969543" lon="12.506735354316362"><ele>384.0</ele><time>2026-04-25T09:36:35Z</time></trkpt><trkpt lat="43.689384736953556" lon="12.506916132888843"><ele>380.0</ele><time>2026-04-25T09:36:36Z</time></trkpt><trkpt lat="43.689294892208395" lon="12.507071272491402"><ele>376.0</ele><time>2026-04-25T09:36:37Z</time></trkpt><trkpt lat="43.68919153907933" lon="12.507193597864557"><ele>372.0</ele><time>2026-04-25T09:36:38Z</time></trkpt><trkpt lat="43.68907013258799" lon="12.507261511686139"><ele>368.0</ele><time>2026-04-25T09:36:39Z</time></trkpt><trkpt lat="43.68892434009095" lon="12.507323678995999"><ele>368.0</ele><time>2026-04-25T09:36:40Z</time></trkpt><trkpt lat="43.688774232885045" lon="12.507372172034179"><ele>368.0</ele><time>2026-04-25T09:36:41Z</time></trkpt><trkpt lat="43.68862294736397" lon="12.507440625925373"><ele>368.0</ele><time>2026-04-25T09:36:42Z</time></trkpt><trkpt lat="43.68846523555122" lon="12.50745437320703"><ele>364.5</ele><time>2026-04-25T09:36:43Z</time></trkpt><trkpt lat="43.68832100799739" lon="12.507459474816212"><ele>361.0</ele><time>2026-04-25T09:36:44Z</time></trkpt><trkpt lat="43.68817518347238" lon="12.507436618780144"><ele>357.5</ele><time>2026-04-25T09:36:45Z</time></trkpt><trkpt lat="43.688049856891006" lon="12.507419198894382"><ele>354.0</ele><time>2026-04-25T09:36:46Z</time></trkpt><trkpt lat="43.68793874565736" lon="12.507430140729728"><ele>354.0</ele><time>2026-04-25T09:36:47Z</time></trkpt><trkpt lat="43.68782122282303" lon="12.50748835479618"><ele>354.0</ele><time>2026-04-25T09:36:48Z</time></trkpt><trkpt lat="43.68771002356277" lon="12.50757786861794"><ele>354.0</ele><time>2026-04-25T09:36:49Z</time></trkpt><trkpt lat="43.68761383880876" lon="12.507672540365064"><ele>354.0</ele><time>2026-04-25T09:36:50Z</time></trkpt><trkpt lat="43.68751883949752" lon="12.507789554106294"><ele>351.6</ele><time>2026-04-25T09:36:51Z</time></trkpt><trkpt lat="43.687440210156566" lon="12.507889762928281"><ele>349.2</ele><time>2026-04-25T09:36:52Z</time></trkpt><trkpt lat="43.687386794810294" lon="12.508013877362245"><ele>346.8</ele><time>2026-04-25T09:36:53Z</time></trkpt><trkpt lat="43.68736615300134" lon="12.508152482490274"><ele>344.40000000000003</ele><time>2026-04-25T09:36:54Z</time></trkpt><trkpt lat="43.687398753733746" lon="12.508296272078374"><ele>342.0</ele><time>2026-04-25T09:36:55Z</time></trkpt><trkpt lat="43.68745371145835" lon="12.508469028661542"><ele>342.0</ele><time>2026-04-25T09:36:56Z</time></trkpt><trkpt lat="43.687508644120946" lon="12.50863323393141"><ele>342.0</ele><time>2026-04-25T09:36:57Z</time></trkpt><trkpt lat="43.68751561479198" lon="12.50879960848936"><ele>342.0</ele><time>2026-04-25T09:36:58Z</time></trkpt><trkpt lat="43.68745439944554" lon="12.508926533168681"><ele>342.0</ele><time>2026-04-25T09:36:59Z</time></trkpt><trkpt lat="43.68736344722048" lon="12.5089853246373"><ele>341.6</ele><time>2026-04-25T09:37:00Z</time></trkpt><trkpt lat="43.68727085205462" lon="12.508980258413207"><ele>341.20000000000005</ele><time>2026-04-25T09:37:01Z</time></trkpt><trkpt lat="43.6871549129693" lon="12.5089978936315"><ele>340.8</ele><time>2026-04-25T09:37:02Z</time></trkpt><trkpt lat="43.68704118660189" lon="12.509015758616066"><ele>340.4</ele><time>2026-04-25T09:37:03Z</time></trkpt><trkpt lat="43.686923937736275" lon="12.509048660743716"><ele>340.0</ele><time>2026-04-25T09:37:04Z</time></trkpt><trkpt lat="43.68681866360885" lon="12.50910761995213"><ele>336.25</ele><time>2026-04-25T09:37:05Z</time></trkpt><trkpt lat="43.68672159667028" lon="12.50920095605937"><ele>332.5</ele><time>2026-04-25T09:37:06Z</time></trkpt><trkpt lat="43.68664000827852" lon="12.509357843460299"><ele>328.75</ele><time>2026-04-25T09:37:07Z</time></trkpt><trkpt lat="43.686577879900724" lon="12.509536108315205"><ele>325.0</ele><time>2026-04-25T09:37:08Z</time></trkpt><trkpt lat="43.68651698003004" lon="12.50973638090282"><ele>325.0</ele><time>2026-04-25T09:37:09Z</time></trkpt><trkpt lat="43.68644908873761" lon="12.509935478764039"><ele>325.0</ele><time>2026-04-25T09:37:10Z</time></trkpt><trkpt lat="43.686361015255976" lon="12.510114137315309"><ele>325.0</ele><time>2026-04-25T09:37:11Z</time></trkpt><trkpt lat="43.68627776221181" lon="12.510296276142595"><ele>325.66666666666663</ele><time>2026-04-25T09:37:12Z</time></trkpt><trkpt lat="43.68619144014342" lon="12.510474292644194"><ele>326.3333333333333</ele><time>2026-04-25T09:37:13Z</time></trkpt><trkpt lat="43.68609919228344" lon="12.51065122698562"><ele>327.0</ele><time>2026-04-25T09:37:14Z</time></trkpt><trkpt lat="43.68600575360857" lon="12.510821978112803"><ele>320.3333333333333</ele><time>2026-04-25T09:37:15Z</time></trkpt><trkpt lat="43.68591239617856" lon="12.510990440100404"><ele>313.66666666666663</ele><time>2026-04-25T09:37:16Z</time></trkpt><trkpt lat="43.6858169223899" lon="12.51116272122971"><ele>307.0</ele><time>2026-04-25T09:37:17Z</time></trkpt><trkpt lat="43.68572612455637" lon="12.51132502149904"><ele>307.0</ele><time>2026-04-25T09:37:18Z</time></trkpt><trkpt lat="43.685637875381346" lon="12.511482786902407"><ele>307.0</ele><time>2026-04-25T09:37:19Z</time></trkpt><trkpt lat="43.68557201085234" lon="12.511641187048976"><ele>307.0</ele><time>2026-04-25T09:37:20Z</time></trkpt><trkpt lat="43.68551029479251" lon="12.511770725125137"><ele>307.0</ele><time>2026-04-25T09:37:21Z</time></trkpt><trkpt lat="43.68546355757049" lon="12.511911182846395"><ele>307.0</ele><time>2026-04-25T09:37:22Z</time></trkpt><trkpt lat="43.685448758124366" lon="12.512062966048061"><ele>307.0</ele><time>2026-04-25T09:37:23Z</time></trkpt><trkpt lat="43.68547242766184" lon="12.512258087876447"><ele>307.0</ele><time>2026-04-25T09:37:24Z</time></trkpt><trkpt lat="43.68551134883609" lon="12.512490483943678"><ele>307.0</ele><time>2026-04-25T09:37:25Z</time></trkpt><trkpt lat="43.68555102137043" lon="12.512726987838604"><ele>303.25</ele><time>2026-04-25T09:37:26Z</time></trkpt><trkpt lat="43.685579358528855" lon="12.512933979084734"><ele>299.5</ele><time>2026-04-25T09:37:27Z</time></trkpt><trkpt lat="43.68559670744778" lon="12.513094306510478"><ele>295.75</ele><time>2026-04-25T09:37:28Z</time></trkpt><trkpt lat="43.685575377445275" lon="12.513227425747015"><ele>292.0</ele><time>2026-04-25T09:37:29Z</time></trkpt><trkpt lat="43.68550718583167" lon="12.513293690775832"><ele>292.0</ele><time>2026-04-25T09:37:31Z</time></trkpt><trkpt lat="43.6854036510764" lon="12.51325512690667"><ele>292.0</ele><time>2026-04-25T09:37:32Z</time></trkpt><trkpt lat="43.68525725869766" lon="12.513242492791361"><ele>292.0</ele><time>2026-04-25T09:37:33Z</time></trkpt><trkpt lat="43.68510013724181" lon="12.513242308682255"><ele>292.0</ele><time>2026-04-25T09:37:34Z</time></trkpt><trkpt lat="43.68496001054901" lon="12.513216803120535"><ele>290.25</ele><time>2026-04-25T09:37:35Z</time></trkpt><trkpt lat="43.684833401112016" lon="12.513197669524002"><ele>288.5</ele><time>2026-04-25T09:37:36Z</time></trkpt><trkpt lat="43.684711750779435" lon="12.513188677059428"><ele>286.75</ele><time>2026-04-25T09:37:37Z</time></trkpt><trkpt lat="43.68459304596528" lon="12.51319967608143"><ele>285.0</ele><time>2026-04-25T09:37:38Z</time></trkpt><trkpt lat="43.6845005801319" lon="12.51323865071528"><ele>285.25</ele><time>2026-04-25T09:37:39Z</time></trkpt><trkpt lat="43.6844154815445" lon="12.513367659885802"><ele>285.5</ele><time>2026-04-25T09:37:40Z</time></trkpt><trkpt lat="43.68434120823145" lon="12.513548587115624"><ele>285.75</ele><time>2026-04-25T09:37:41Z</time></trkpt><trkpt lat="43.68427324743038" lon="12.513717046601355"><ele>286.0</ele><time>2026-04-25T09:37:42Z</time></trkpt><trkpt lat="43.68419626936849" lon="12.51387276964291"><ele>286.0</ele><time>2026-04-25T09:37:43Z</time></trkpt><trkpt lat="43.68411286391478" lon="12.514020676368474"><ele>286.0</ele><time>2026-04-25T09:37:44Z</time></trkpt><trkpt lat="43.68402889070748" lon="12.514172164178024"><ele>286.0</ele><time>2026-04-25T09:37:45Z</time></trkpt><trkpt lat="43.683943854326245" lon="12.514331440934592"><ele>286.0</ele><time>2026-04-25T09:37:46Z</time></trkpt><trkpt lat="43.683856852465325" lon="12.514490709596291"><ele>284.75</ele><time>2026-04-25T09:37:47Z</time></trkpt><trkpt lat="43.683770223081986" lon="12.514633812980623"><ele>283.5</ele><time>2026-04-25T09:37:48Z</time></trkpt><trkpt lat="43.6836933030089" lon="12.514764003799623"><ele>282.25</ele><time>2026-04-25T09:37:49Z</time></trkpt><trkpt lat="43.68362736717739" lon="12.514888231289008"><ele>281.0</ele><time>2026-04-25T09:37:50Z</time></trkpt><trkpt lat="43.68356383894783" lon="12.515015324605695"><ele>281.0</ele><time>2026-04-25T09:37:51Z</time></trkpt><trkpt lat="43.68351083526592" lon="12.515152298879993"><ele>281.0</ele><time>2026-04-25T09:37:52Z</time></trkpt><trkpt lat="43.68346952158494" lon="12.515301143623452"><ele>281.0</ele><time>2026-04-25T09:37:53Z</time></trkpt><trkpt lat="43.68343736192205" lon="12.515458988618299"><ele>281.0</ele><time>2026-04-25T09:37:54Z</time></trkpt><trkpt lat="43.683407527751186" lon="12.515629541394475"><ele>281.75</ele><time>2026-04-25T09:37:55Z</time></trkpt><trkpt lat="43.683370636858996" lon="12.515820484162052"><ele>282.5</ele><time>2026-04-25T09:37:56Z</time></trkpt><trkpt lat="43.683331287312896" lon="12.516018470105324"><ele>283.25</ele><time>2026-04-25T09:37:57Z</time></trkpt><trkpt lat="43.68328971224482" lon="12.516219635818905"><ele>284.0</ele><time>2026-04-25T09:37:58Z</time></trkpt><trkpt lat="43.68320943512427" lon="12.516394147030312"><ele>286.6666666666667</ele><time>2026-04-25T09:37:59Z</time></trkpt><trkpt lat="43.68311784318574" lon="12.51656342504529"><ele>289.3333333333333</ele><time>2026-04-25T09:38:00Z</time></trkpt><trkpt lat="43.68301437541357" lon="12.516724892245481"><ele>292.0</ele><time>2026-04-25T09:38:01Z</time></trkpt><trkpt lat="43.68290652648106" lon="12.516895130768754"><ele>296.0</ele><time>2026-04-25T09:38:02Z</time></trkpt><trkpt lat="43.68281750087837" lon="12.517085772982343"><ele>300.0</ele><time>2026-04-25T09:38:03Z</time></trkpt><trkpt lat="43.68272858074634" lon="12.517278377011857"><ele>304.0</ele><time>2026-04-25T09:38:04Z</time></trkpt><trkpt lat="43.68264796878072" lon="12.517491591845474"><ele>300.0</ele><time>2026-04-25T09:38:05Z</time></trkpt><trkpt lat="43.68257512663918" lon="12.517702167724309"><ele>296.0</ele><time>2026-04-25T09:38:06Z</time></trkpt><trkpt lat="43.682502763152634" lon="12.517912973911674"><ele>292.0</ele><time>2026-04-25T09:38:07Z</time></trkpt><trkpt lat="43.68242600374238" lon="12.518118411601025"><ele>292.0</ele><time>2026-04-25T09:38:08Z</time></trkpt><trkpt lat="43.68234292209515" lon="12.51830877661377"><ele>292.0</ele><time>2026-04-25T09:38:09Z</time></trkpt><trkpt lat="43.68225739644766" lon="12.51849062991444"><ele>292.0</ele><time>2026-04-25T09:38:10Z</time></trkpt><trkpt lat="43.68215309122406" lon="12.518643669827823"><ele>291.0</ele><time>2026-04-25T09:38:11Z</time></trkpt><trkpt lat="43.68207123244192" lon="12.518818367002197"><ele>290.0</ele><time>2026-04-25T09:38:12Z</time></trkpt><trkpt lat="43.681966566677175" lon="12.51897345844205"><ele>289.0</ele><time>2026-04-25T09:38:13Z</time></trkpt><trkpt lat="43.68185756837643" lon="12.519123084345157"><ele>289.0</ele><time>2026-04-25T09:38:14Z</time></trkpt><trkpt lat="43.68175104259488" lon="12.519285133142844"><ele>289.0</ele><time>2026-04-25T09:38:15Z</time></trkpt><trkpt lat="43.68164404842711" lon="12.519450876119603"><ele>289.0</ele><time>2026-04-25T09:38:16Z</time></trkpt><trkpt lat="43.68153953183958" lon="12.519618959994007"><ele>290.5</ele><time>2026-04-25T09:38:17Z</time></trkpt><trkpt lat="43.6814503070779" lon="12.519794696772943"><ele>292.0</ele><time>2026-04-25T09:38:18Z</time></trkpt><trkpt lat="43.6813781425405" lon="12.519963600462342"><ele>293.5</ele><time>2026-04-25T09:38:19Z</time></trkpt><trkpt lat="43.68130258878349" lon="12.520125563322972"><ele>295.0</ele><time>2026-04-25T09:38:20Z</time></trkpt><trkpt lat="43.681194931426646" lon="12.52022280969366"><ele>296.0</ele><time>2026-04-25T09:38:21Z</time></trkpt><trkpt lat="43.68106635712077" lon="12.520296440408044"><ele>297.0</ele><time>2026-04-25T09:38:22Z</time></trkpt><trkpt lat="43.68093344901103" lon="12.52037461058081"><ele>298.0</ele><time>2026-04-25T09:38:23Z</time></trkpt><trkpt lat="43.68079639949919" lon="12.520472789545028"><ele>299.0</ele><time>2026-04-25T09:38:24Z</time></trkpt><trkpt lat="43.68064344701599" lon="12.520532866202972"><ele>299.0</ele><time>2026-04-25T09:38:25Z</time></trkpt><trkpt lat="43.68048455470973" lon="12.520589731984046"><ele>299.0</ele><time>2026-04-25T09:38:26Z</time></trkpt><trkpt lat="43.68031512972527" lon="12.52062890605773"><ele>299.0</ele><time>2026-04-25T09:38:27Z</time></trkpt><trkpt lat="43.68014230662759" lon="12.520664665985345"><ele>297.0</ele><time>2026-04-25T09:38:28Z</time></trkpt><trkpt lat="43.67997730950169" lon="12.520703587615618"><ele>295.0</ele><time>2026-04-25T09:38:29Z</time></trkpt><trkpt lat="43.67982911647481" lon="12.520739387524069"><ele>293.0</ele><time>2026-04-25T09:38:30Z</time></trkpt><trkpt lat="43.67969746141107" lon="12.520770336834302"><ele>293.0</ele><time>2026-04-25T09:38:31Z</time></trkpt><trkpt lat="43.67957848729461" lon="12.52079706989812"><ele>293.0</ele><time>2026-04-25T09:38:32Z</time></trkpt><trkpt lat="43.67947093528719" lon="12.520805654528578"><ele>293.0</ele><time>2026-04-25T09:38:33Z</time></trkpt><trkpt lat="43.67938319838993" lon="12.520806742097117"><ele>293.0</ele><time>2026-04-25T09:38:34Z</time></trkpt><trkpt lat="43.679304093956524" lon="12.520734882927739"><ele>293.0</ele><time>2026-04-25T09:38:35Z</time></trkpt><trkpt lat="43.67922408185093" lon="12.520714732141407"><ele>291.4</ele><time>2026-04-25T09:38:36Z</time></trkpt><trkpt lat="43.67915254435684" lon="12.520690034643263"><ele>289.8</ele><time>2026-04-25T09:38:37Z</time></trkpt><trkpt lat="43.6790947284087" lon="12.52075654181864"><ele>288.2</ele><time>2026-04-25T09:38:38Z</time></trkpt><trkpt lat="43.679059119892244" lon="12.520875995299095"><ele>286.6</ele><time>2026-04-25T09:38:39Z</time></trkpt><trkpt lat="43.67906066828621" lon="12.521032431582942"><ele>285.0</ele><time>2026-04-25T09:38:40Z</time></trkpt><trkpt lat="43.678918263728924" lon="12.521134393642118"><ele>285.0</ele><time>2026-04-25T09:38:41Z</time></trkpt><trkpt lat="43.67880101970155" lon="12.521216182459494"><ele>285.0</ele><time>2026-04-25T09:38:42Z</time></trkpt><trkpt lat="43.678670565286616" lon="12.521298152360265"><ele>285.0</ele><time>2026-04-25T09:38:43Z</time></trkpt><trkpt lat="43.678537387615435" lon="12.521384004328533"><ele>285.0</ele><time>2026-04-25T09:38:44Z</time></trkpt><trkpt lat="43.67840650506887" lon="12.521476971586878"><ele>286.3333333333333</ele><time>2026-04-25T09:38:45Z</time></trkpt><trkpt lat="43.67826025601407" lon="12.521562248532486"><ele>287.66666666666663</ele><time>2026-04-25T09:38:46Z</time></trkpt><trkpt lat="43.67811546869345" lon="12.521652418038963"><ele>289.0</ele><time>2026-04-25T09:38:47Z</time></trkpt><trkpt lat="43.67797591563004" lon="12.521736831994753"><ele>289.0</ele><time>2026-04-25T09:38:48Z</time></trkpt><trkpt lat="43.6778337774072" lon="12.52182552680812"><ele>289.0</ele><time>2026-04-25T09:38:49Z</time></trkpt><trkpt lat="43.67769413932562" lon="12.521914872388688"><ele>289.0</ele><time>2026-04-25T09:38:50Z</time></trkpt><trkpt lat="43.677557748676286" lon="12.522013845565247"><ele>290.0</ele><time>2026-04-25T09:38:51Z</time></trkpt><trkpt lat="43.67742984855048" lon="12.522124467435274"><ele>291.0</ele><time>2026-04-25T09:38:52Z</time></trkpt><trkpt lat="43.67731411775597" lon="12.522250400753444"><ele>292.0</ele><time>2026-04-25T09:38:53Z</time></trkpt><trkpt lat="43.6771990213458" lon="12.522379981750223"><ele>293.0</ele><time>2026-04-25T09:38:54Z</time></trkpt><trkpt lat="43.67708939071388" lon="12.522508772844166"><ele>293.0</ele><time>2026-04-25T09:38:55Z</time></trkpt><trkpt lat="43.67697620352241" lon="12.522629799100574"><ele>293.0</ele><time>2026-04-25T09:38:56Z</time></trkpt><trkpt lat="43.67686118269547" lon="12.522757331400976"><ele>293.0</ele><time>2026-04-25T09:38:57Z</time></trkpt><trkpt lat="43.67674696074131" lon="12.522892633020046"><ele>293.0</ele><time>2026-04-25T09:38:58Z</time></trkpt><trkpt lat="43.67663531798952" lon="12.523030327235766"><ele>293.0</ele><time>2026-04-25T09:38:59Z</time></trkpt><trkpt lat="43.676526631876484" lon="12.523174501922922"><ele>293.0</ele><time>2026-04-25T09:39:00Z</time></trkpt><trkpt lat="43.676420053485984" lon="12.523323134968415"><ele>293.0</ele><time>2026-04-25T09:39:01Z</time></trkpt><trkpt lat="43.6763127171665" lon="12.5234636992417"><ele>293.0</ele><time>2026-04-25T09:39:02Z</time></trkpt><trkpt lat="43.67620818737942" lon="12.523605029012838"><ele>293.0</ele><time>2026-04-25T09:39:03Z</time></trkpt><trkpt lat="43.67610039250417" lon="12.523746506130635"><ele>293.0</ele><time>2026-04-25T09:39:04Z</time></trkpt><trkpt lat="43.67599468372843" lon="12.52386687958601"><ele>293.0</ele><time>2026-04-25T09:39:05Z</time></trkpt><trkpt lat="43.675899989091235" lon="12.523963847239779"><ele>292.33333333333337</ele><time>2026-04-25T09:39:06Z</time></trkpt><trkpt lat="43.675819381728516" lon="12.524061530835594"><ele>291.6666666666667</ele><time>2026-04-25T09:39:07Z</time></trkpt><trkpt lat="43.67575047155429" lon="12.524134402118321"><ele>291.0</ele><time>2026-04-25T09:39:08Z</time></trkpt><trkpt lat="43.67569084313687" lon="12.52420466205349"><ele>290.3333333333333</ele><time>2026-04-25T09:39:09Z</time></trkpt><trkpt lat="43.67563250632855" lon="12.524263290634131"><ele>289.66666666666663</ele><time>2026-04-25T09:39:10Z</time></trkpt><trkpt lat="43.67557403771541" lon="12.524303820976614"><ele>289.0</ele><time>2026-04-25T09:39:11Z</time></trkpt><trkpt lat="43.6754520381475" lon="12.524287817505751"><ele>289.0</ele><time>2026-04-25T09:39:13Z</time></trkpt><trkpt lat="43.67541353088967" lon="12.524182894036917"><ele>289.0</ele><time>2026-04-25T09:39:19Z</time></trkpt><trkpt lat="43.675366783262795" lon="12.524038039171089"><ele>289.0</ele><time>2026-04-25T09:39:21Z</time></trkpt><trkpt lat="43.67532126302971" lon="12.523974662307612"><ele>289.0</ele><time>2026-04-25T09:39:22Z</time></trkpt><trkpt lat="43.675236406341355" lon="12.523946975935589"><ele>289.0</ele><time>2026-04-25T09:39:23Z</time></trkpt><trkpt lat="43.67513588973831" lon="12.523955275090461"><ele>288.2</ele><time>2026-04-25T09:39:24Z</time></trkpt><trkpt lat="43.67506617243115" lon="12.524014651871246"><ele>287.4</ele><time>2026-04-25T09:39:25Z</time></trkpt><trkpt lat="43.674998336559284" lon="12.524102173122074"><ele>286.6</ele><time>2026-04-25T09:39:26Z</time></trkpt><trkpt lat="43.674926818090576" lon="12.524180596511643"><ele>285.8</ele><time>2026-04-25T09:39:27Z</time></trkpt><trkpt lat="43.674827991753524" lon="12.524185421274204"><ele>285.0</ele><time>2026-04-25T09:39:28Z</time></trkpt><trkpt lat="43.674726098290705" lon="12.524176901317047"><ele>285.0</ele><time>2026-04-25T09:39:29Z</time></trkpt><trkpt lat="43.67463222539379" lon="12.524125268666662"><ele>285.0</ele><time>2026-04-25T09:39:30Z</time></trkpt><trkpt lat="43.67452287972299" lon="12.524073810113578"><ele>285.0</ele><time>2026-04-25T09:39:31Z</time></trkpt><trkpt lat="43.67442437594931" lon="12.524033521846935"><ele>285.0</ele><time>2026-04-25T09:39:32Z</time></trkpt><trkpt lat="43.67433017853735" lon="12.523989707047354"><ele>285.0</ele><time>2026-04-25T09:39:33Z</time></trkpt><trkpt lat="43.674231797085625" lon="12.523940018479808"><ele>284.75</ele><time>2026-04-25T09:39:34Z</time></trkpt><trkpt lat="43.674124073400804" lon="12.523888455756214"><ele>284.5</ele><time>2026-04-25T09:39:35Z</time></trkpt><trkpt lat="43.67400886098951" lon="12.523827663957244"><ele>284.25</ele><time>2026-04-25T09:39:36Z</time></trkpt><trkpt lat="43.67388779110252" lon="12.523767026954141"><ele>284.0</ele><time>2026-04-25T09:39:37Z</time></trkpt><trkpt lat="43.6737586821029" lon="12.52370567526547"><ele>283.5</ele><time>2026-04-25T09:39:38Z</time></trkpt><trkpt lat="43.67362395291531" lon="12.523640108685923"><ele>283.0</ele><time>2026-04-25T09:39:39Z</time></trkpt><trkpt lat="43.673487399849165" lon="12.523574167631878"><ele>282.5</ele><time>2026-04-25T09:39:40Z</time></trkpt><trkpt lat="43.67335743259004" lon="12.523508988738906"><ele>282.0</ele><time>2026-04-25T09:39:41Z</time></trkpt><trkpt lat="43.673236618980624" lon="12.523452774262068"><ele>281.25</ele><time>2026-04-25T09:39:42Z</time></trkpt><trkpt lat="43.67312160179892" lon="12.523401511351617"><ele>280.5</ele><time>2026-04-25T09:39:43Z</time></trkpt><trkpt lat="43.67301477382102" lon="12.523354943727325"><ele>279.75</ele><time>2026-04-25T09:39:44Z</time></trkpt><trkpt lat="43.67290603235929" lon="12.52330496365383"><ele>279.0</ele><time>2026-04-25T09:39:45Z</time></trkpt><trkpt lat="43.67279290112272" lon="12.523250748919038"><ele>278.8</ele><time>2026-04-25T09:39:46Z</time></trkpt><trkpt lat="43.672676572600004" lon="12.523197979957043"><ele>278.59999999999997</ele><time>2026-04-25T09:39:47Z</time></trkpt><trkpt lat="43.672564594057675" lon="12.523149861997785"><ele>278.4</ele><time>2026-04-25T09:39:48Z</time></trkpt><trkpt lat="43.672462544872076" lon="12.523103145632044"><ele>278.2</ele><time>2026-04-25T09:39:49Z</time></trkpt><trkpt lat="43.67237427565626" lon="12.523051005282161"><ele>278.0</ele><time>2026-04-25T09:39:50Z</time></trkpt><trkpt lat="43.67229434991844" lon="12.523001091998424"><ele>278.0</ele><time>2026-04-25T09:39:51Z</time></trkpt><trkpt lat="43.67222586961327" lon="12.522963055337643"><ele>278.0</ele><time>2026-04-25T09:39:52Z</time></trkpt><trkpt lat="43.672169843573904" lon="12.522912873360747"><ele>278.0</ele><time>2026-04-25T09:39:53Z</time></trkpt><trkpt lat="43.67213647221753" lon="12.522833050480612"><ele>278.0</ele><time>2026-04-25T09:39:54Z</time></trkpt><trkpt lat="43.672122955032606" lon="12.52273544651426"><ele>278.0</ele><time>2026-04-25T09:39:55Z</time></trkpt><trkpt lat="43.672106152967146" lon="12.522639899666444"><ele>278.0</ele><time>2026-04-25T09:39:56Z</time></trkpt><trkpt lat="43.67204491800819" lon="12.522555489396382"><ele>278.0</ele><time>2026-04-25T09:39:57Z</time></trkpt><trkpt lat="43.67196598448043" lon="12.522501957500051"><ele>277.8</ele><time>2026-04-25T09:39:58Z</time></trkpt><trkpt lat="43.67187187353854" lon="12.522472812482246"><ele>277.6</ele><time>2026-04-25T09:39:59Z</time></trkpt><trkpt lat="43.67177339589173" lon="12.52243347365751"><ele>277.4</ele><time>2026-04-25T09:40:00Z</time></trkpt><trkpt lat="43.671676341041575" lon="12.522364973324885"><ele>277.2</ele><time>2026-04-25T09:40:01Z</time></trkpt><trkpt lat="43.67158147945463" lon="12.52229898455382"><ele>277.0</ele><time>2026-04-25T09:40:02Z</time></trkpt><trkpt lat="43.67151610178285" lon="12.522159833780064"><ele>276.8333333333333</ele><time>2026-04-25T09:40:03Z</time></trkpt><trkpt lat="43.67145767125944" lon="12.522045850544337"><ele>276.66666666666663</ele><time>2026-04-25T09:40:04Z</time></trkpt><trkpt lat="43.671416304675624" lon="12.521931584264138"><ele>276.5</ele><time>2026-04-25T09:40:05Z</time></trkpt><trkpt lat="43.67138283245662" lon="12.521831057182007"><ele>276.3333333333333</ele><time>2026-04-25T09:40:06Z</time></trkpt><trkpt lat="43.67135259862671" lon="12.521745672353173"><ele>276.1666666666667</ele><time>2026-04-25T09:40:07Z</time></trkpt><trkpt lat="43.67132265155208" lon="12.521665240137054"><ele>276.0</ele><time>2026-04-25T09:40:08Z</time></trkpt><trkpt lat="43.671286891870864" lon="12.521542574843245"><ele>276.0</ele><time>2026-04-25T09:40:10Z</time></trkpt><trkpt lat="43.671259785690566" lon="12.521461806602808"><ele>276.0</ele><time>2026-04-25T09:40:12Z</time></trkpt><trkpt lat="43.67121845328368" lon="12.521547009192258"><ele>276.0</ele><time>2026-04-25T09:40:18Z</time></trkpt><trkpt lat="43.67128110449709" lon="12.521481266385821"><ele>276.0</ele><time>2026-04-25T09:53:35Z</time></trkpt><trkpt lat="43.671262468163185" lon="12.521326755479635"><ele>276.0</ele><time>2026-04-25T09:53:38Z</time></trkpt><trkpt lat="43.67124287762463" lon="12.521175054165061"><ele>276.0</ele><time>2026-04-25T09:53:40Z</time></trkpt><trkpt lat="43.671215826271805" lon="12.52100443512015"><ele>275.7142857142857</ele><time>2026-04-25T09:53:42Z</time></trkpt><trkpt lat="43.67120754075193" lon="12.520915045910156"><ele>275.42857142857144</ele><time>2026-04-25T09:53:43Z</time></trkpt><trkpt lat="43.67120127186533" lon="12.520820982554897"><ele>275.14285714285717</ele><time>2026-04-25T09:53:44Z</time></trkpt><trkpt lat="43.671193879101466" lon="12.520729325562165"><ele>274.8571428571429</ele><time>2026-04-25T09:53:45Z</time></trkpt><trkpt lat="43.67119459966894" lon="12.520639457440948"><ele>274.57142857142856</ele><time>2026-04-25T09:53:46Z</time></trkpt><trkpt lat="43.67119674825901" lon="12.5205456613692"><ele>274.28571428571433</ele><time>2026-04-25T09:53:47Z</time></trkpt><trkpt lat="43.6712023615509" lon="12.520454214002259"><ele>274.0</ele><time>2026-04-25T09:53:48Z</time></trkpt><trkpt lat="43.671209563455875" lon="12.52033775674275"><ele>272.0</ele><time>2026-04-25T09:53:49Z</time></trkpt><trkpt lat="43.67122020718389" lon="12.520202805741322"><ele>270.0</ele><time>2026-04-25T09:53:50Z</time></trkpt><trkpt lat="43.67123279123131" lon="12.520053313642244"><ele>268.0</ele><time>2026-04-25T09:53:51Z</time></trkpt><trkpt lat="43.671245508912605" lon="12.519894335965366"><ele>266.0</ele><time>2026-04-25T09:53:52Z</time></trkpt><trkpt lat="43.67125960726631" lon="12.519746964589979"><ele>264.0</ele><time>2026-04-25T09:53:53Z</time></trkpt><trkpt lat="43.67127321059375" lon="12.519591332379536"><ele>265.0</ele><time>2026-04-25T09:53:54Z</time></trkpt><trkpt lat="43.67128626380168" lon="12.519429073176255"><ele>266.0</ele><time>2026-04-25T09:53:55Z</time></trkpt><trkpt lat="43.67129867305251" lon="12.519270092317111"><ele>267.0</ele><time>2026-04-25T09:53:56Z</time></trkpt><trkpt lat="43.67130636919725" lon="12.519114541727978"><ele>268.0</ele><time>2026-04-25T09:53:57Z</time></trkpt><trkpt lat="43.67131368457885" lon="12.518960875860234"><ele>268.0</ele><time>2026-04-25T09:53:58Z</time></trkpt><trkpt lat="43.67132091014923" lon="12.518810146468336"><ele>268.0</ele><time>2026-04-25T09:53:59Z</time></trkpt><trkpt lat="43.67133635953784" lon="12.518669506683104"><ele>268.0</ele><time>2026-04-25T09:54:00Z</time></trkpt><trkpt lat="43.67135081589988" lon="12.518539440427906"><ele>268.0</ele><time>2026-04-25T09:54:01Z</time></trkpt><trkpt lat="43.671361647149425" lon="12.518430248045892"><ele>268.0</ele><time>2026-04-25T09:54:02Z</time></trkpt><trkpt lat="43.67137229138707" lon="12.518331472758751"><ele>270.0</ele><time>2026-04-25T09:54:03Z</time></trkpt><trkpt lat="43.671392566349034" lon="12.518222292190078"><ele>272.0</ele><time>2026-04-25T09:54:04Z</time></trkpt><trkpt lat="43.67142337775973" lon="12.518102562602195"><ele>274.0</ele><time>2026-04-25T09:54:05Z</time></trkpt><trkpt lat="43.671456768523115" lon="12.5179754706611"><ele>276.0</ele><time>2026-04-25T09:54:06Z</time></trkpt><trkpt lat="43.67149480787289" lon="12.517843656147136"><ele>278.0</ele><time>2026-04-25T09:54:07Z</time></trkpt><trkpt lat="43.671540610176976" lon="12.517711294412836"><ele>278.75</ele><time>2026-04-25T09:54:08Z</time></trkpt><trkpt lat="43.67159474772102" lon="12.517572767240557"><ele>279.5</ele><time>2026-04-25T09:54:09Z</time></trkpt><trkpt lat="43.67165529630557" lon="12.51743426505456"><ele>280.25</ele><time>2026-04-25T09:54:10Z</time></trkpt><trkpt lat="43.6717218032548" lon="12.517301563231387"><ele>281.0</ele><time>2026-04-25T09:54:11Z</time></trkpt><trkpt lat="43.67179669926683" lon="12.517174032325519"><ele>281.75</ele><time>2026-04-25T09:54:12Z</time></trkpt><trkpt lat="43.671874218146975" lon="12.517049110183248"><ele>282.5</ele><time>2026-04-25T09:54:13Z</time></trkpt><trkpt lat="43.67197625489279" lon="12.516952830537313"><ele>283.25</ele><time>2026-04-25T09:54:14Z</time></trkpt><trkpt lat="43.67206602164287" lon="12.516825847975175"><ele>284.0</ele><time>2026-04-25T09:54:15Z</time></trkpt><trkpt lat="43.67216968013982" lon="12.51671295707947"><ele>284.25</ele><time>2026-04-25T09:54:16Z</time></trkpt><trkpt lat="43.67227611931463" lon="12.516598526319813"><ele>284.5</ele><time>2026-04-25T09:54:17Z</time></trkpt><trkpt lat="43.672377873002084" lon="12.516482029391153"><ele>284.75</ele><time>2026-04-25T09:54:18Z</time></trkpt><trkpt lat="43.67247531539406" lon="12.516373715632719"><ele>285.0</ele><time>2026-04-25T09:54:19Z</time></trkpt><trkpt lat="43.672579995571006" lon="12.516263407428424"><ele>285.75</ele><time>2026-04-25T09:54:20Z</time></trkpt><trkpt lat="43.67269298152135" lon="12.516141536776153"><ele>286.5</ele><time>2026-04-25T09:54:21Z</time></trkpt><trkpt lat="43.67280800225916" lon="12.51601612174511"><ele>287.25</ele><time>2026-04-25T09:54:22Z</time></trkpt><trkpt lat="43.67292349731419" lon="12.515883737070132"><ele>288.0</ele><time>2026-04-25T09:54:23Z</time></trkpt><trkpt lat="43.6730367048863" lon="12.515749336208934"><ele>288.5</ele><time>2026-04-25T09:54:24Z</time></trkpt><trkpt lat="43.673148525396094" lon="12.515619025923627"><ele>289.0</ele><time>2026-04-25T09:54:25Z</time></trkpt><trkpt lat="43.67326270017376" lon="12.515492191216167"><ele>289.5</ele><time>2026-04-25T09:54:26Z</time></trkpt><trkpt lat="43.673381043213666" lon="12.515367966879229"><ele>290.0</ele><time>2026-04-25T09:54:27Z</time></trkpt><trkpt lat="43.67349876653636" lon="12.515243355165692"><ele>290.5</ele><time>2026-04-25T09:54:28Z</time></trkpt><trkpt lat="43.67361204973762" lon="12.515117499121084"><ele>291.0</ele><time>2026-04-25T09:54:29Z</time></trkpt><trkpt lat="43.67372757320899" lon="12.51500199855411"><ele>291.5</ele><time>2026-04-25T09:54:30Z</time></trkpt><trkpt lat="43.67384460349855" lon="12.51489615818342"><ele>292.0</ele><time>2026-04-25T09:54:31Z</time></trkpt><trkpt lat="43.673965495406534" lon="12.514792846546147"><ele>292.0</ele><time>2026-04-25T09:54:32Z</time></trkpt><trkpt lat="43.674084739591514" lon="12.514681988256935"><ele>292.0</ele><time>2026-04-25T09:54:33Z</time></trkpt><trkpt lat="43.67420611549659" lon="12.514571058549116"><ele>292.0</ele><time>2026-04-25T09:54:34Z</time></trkpt><trkpt lat="43.67432798866824" lon="12.514458706045364"><ele>292.0</ele><time>2026-04-25T09:54:35Z</time></trkpt><trkpt lat="43.674434960828584" lon="12.514347311138213"><ele>292.0</ele><time>2026-04-25T09:54:36Z</time></trkpt><trkpt lat="43.67453985488942" lon="12.514241574440126"><ele>292.0</ele><time>2026-04-25T09:54:37Z</time></trkpt><trkpt lat="43.67464415895756" lon="12.514142003602077"><ele>292.0</ele><time>2026-04-25T09:54:38Z</time></trkpt><trkpt lat="43.67474026685885" lon="12.514056630652174"><ele>292.0</ele><time>2026-04-25T09:54:39Z</time></trkpt><trkpt lat="43.67481710724512" lon="12.513978512209485"><ele>292.0</ele><time>2026-04-25T09:54:40Z</time></trkpt><trkpt lat="43.67488034598352" lon="12.513911373165536"><ele>292.0</ele><time>2026-04-25T09:54:41Z</time></trkpt><trkpt lat="43.67493742583697" lon="12.513857955900322"><ele>292.0</ele><time>2026-04-25T09:54:42Z</time></trkpt><trkpt lat="43.67501250068266" lon="12.513797822835402"><ele>292.0</ele><time>2026-04-25T09:54:44Z</time></trkpt><trkpt lat="43.674881340458725" lon="12.513716004236816"><ele>292.0</ele><time>2026-04-25T09:54:46Z</time></trkpt><trkpt lat="43.67481657480314" lon="12.513628564608515"><ele>292.0</ele><time>2026-04-25T09:54:47Z</time></trkpt><trkpt lat="43.6747543292932" lon="12.513518558046854"><ele>292.0</ele><time>2026-04-25T09:54:48Z</time></trkpt><trkpt lat="43.674692666264484" lon="12.51341571548476"><ele>292.0</ele><time>2026-04-25T09:54:49Z</time></trkpt><trkpt lat="43.67463130081294" lon="12.513299482112513"><ele>292.0</ele><time>2026-04-25T09:54:50Z</time></trkpt><trkpt lat="43.674576583221956" lon="12.513155595131892"><ele>292.0</ele><time>2026-04-25T09:54:51Z</time></trkpt><trkpt lat="43.67452377867637" lon="12.512994859873107"><ele>292.75</ele><time>2026-04-25T09:54:52Z</time></trkpt><trkpt lat="43.67446776459503" lon="12.512822619101492"><ele>293.5</ele><time>2026-04-25T09:54:53Z</time></trkpt><trkpt lat="43.67440750113373" lon="12.512642154133985"><ele>294.25</ele><time>2026-04-25T09:54:54Z</time></trkpt><trkpt lat="43.67434488687561" lon="12.512457577957983"><ele>295.0</ele><time>2026-04-25T09:54:55Z</time></trkpt><trkpt lat="43.674280886124556" lon="12.51226954788191"><ele>295.0</ele><time>2026-04-25T09:54:56Z</time></trkpt><trkpt lat="43.674221213276255" lon="12.51209259885639"><ele>295.0</ele><time>2026-04-25T09:54:57Z</time></trkpt><trkpt lat="43.67417243644416" lon="12.511929618616636"><ele>295.0</ele><time>2026-04-25T09:54:58Z</time></trkpt><trkpt lat="43.6741193941859" lon="12.511768909630899"><ele>295.0</ele><time>2026-04-25T09:54:59Z</time></trkpt><trkpt lat="43.67407322532351" lon="12.511632628391986"><ele>295.0</ele><time>2026-04-25T09:55:00Z</time></trkpt><trkpt lat="43.67403622010655" lon="12.51152321178559"><ele>295.0</ele><time>2026-04-25T09:55:01Z</time></trkpt><trkpt lat="43.67400634878679" lon="12.511438888963218"><ele>295.0</ele><time>2026-04-25T09:55:02Z</time></trkpt><trkpt lat="43.67395788966091" lon="12.511307166505155"><ele>295.0</ele><time>2026-04-25T09:55:04Z</time></trkpt><trkpt lat="43.67391855001273" lon="12.511201307872385"><ele>295.0</ele><time>2026-04-25T09:55:06Z</time></trkpt><trkpt lat="43.67376083623723" lon="12.511245508745716"><ele>294.8</ele><time>2026-04-25T09:55:08Z</time></trkpt><trkpt lat="43.67365899272101" lon="12.51126536067788"><ele>294.6</ele><time>2026-04-25T09:55:09Z</time></trkpt><trkpt lat="43.673547761972806" lon="12.51126016373909"><ele>294.4</ele><time>2026-04-25T09:55:10Z</time></trkpt><trkpt lat="43.67343673216068" lon="12.511297490457363"><ele>294.2</ele><time>2026-04-25T09:55:11Z</time></trkpt><trkpt lat="43.673322637140856" lon="12.511327800885477"><ele>294.0</ele><time>2026-04-25T09:55:12Z</time></trkpt><trkpt lat="43.67319586554323" lon="12.511362093903724"><ele>295.5</ele><time>2026-04-25T09:55:13Z</time></trkpt><trkpt lat="43.67306138317057" lon="12.511400046385452"><ele>297.0</ele><time>2026-04-25T09:55:14Z</time></trkpt><trkpt lat="43.67292649772634" lon="12.511444932143077"><ele>298.5</ele><time>2026-04-25T09:55:15Z</time></trkpt><trkpt lat="43.67279367785491" lon="12.511515937395085"><ele>300.0</ele><time>2026-04-25T09:55:16Z</time></trkpt><trkpt lat="43.67267832066509" lon="12.511606054394914"><ele>300.3333333333333</ele><time>2026-04-25T09:55:17Z</time></trkpt><trkpt lat="43.67256648809917" lon="12.51173916490639"><ele>300.66666666666663</ele><time>2026-04-25T09:55:18Z</time></trkpt><trkpt lat="43.67246194597211" lon="12.511915060842048"><ele>301.0</ele><time>2026-04-25T09:55:19Z</time></trkpt><trkpt lat="43.67236817858591" lon="12.512123899725713"><ele>300.0</ele><time>2026-04-25T09:55:20Z</time></trkpt><trkpt lat="43.67225801882204" lon="12.512342167980867"><ele>299.0</ele><time>2026-04-25T09:55:21Z</time></trkpt><trkpt lat="43.672128136665016" lon="12.512571786042908"><ele>298.0</ele><time>2026-04-25T09:55:22Z</time></trkpt><trkpt lat="43.67200951074977" lon="12.512796225690947"><ele>297.0</ele><time>2026-04-25T09:55:23Z</time></trkpt><trkpt lat="43.671901737976114" lon="12.51300863791488"><ele>296.0</ele><time>2026-04-25T09:55:24Z</time></trkpt><trkpt lat="43.67180386005383" lon="12.513197451989958"><ele>295.0</ele><time>2026-04-25T09:55:25Z</time></trkpt><trkpt lat="43.671707111050054" lon="12.513378472543032"><ele>295.0</ele><time>2026-04-25T09:55:26Z</time></trkpt><trkpt lat="43.67161257139231" lon="12.513550799101747"><ele>295.0</ele><time>2026-04-25T09:55:27Z</time></trkpt><trkpt lat="43.67152205092392" lon="12.513718793673956"><ele>295.0</ele><time>2026-04-25T09:55:28Z</time></trkpt><trkpt lat="43.671442628792725" lon="12.51387663714405"><ele>295.0</ele><time>2026-04-25T09:55:29Z</time></trkpt><trkpt lat="43.67136379998288" lon="12.514034476913604"><ele>294.25</ele><time>2026-04-25T09:55:30Z</time></trkpt><trkpt lat="43.67128301626281" lon="12.514183256132734"><ele>293.5</ele><time>2026-04-25T09:55:31Z</time></trkpt><trkpt lat="43.67121059154717" lon="12.514324596671313"><ele>292.75</ele><time>2026-04-25T09:55:32Z</time></trkpt><trkpt lat="43.671144663753616" lon="12.514456804595431"><ele>292.0</ele><time>2026-04-25T09:55:33Z</time></trkpt><trkpt lat="43.67107567941933" lon="12.514590214527729"><ele>292.0</ele><time>2026-04-25T09:55:34Z</time></trkpt><trkpt lat="43.671011563942976" lon="12.514726216636122"><ele>292.0</ele><time>2026-04-25T09:55:35Z</time></trkpt><trkpt lat="43.670944547395344" lon="12.514862345170048"><ele>292.0</ele><time>2026-04-25T09:55:36Z</time></trkpt><trkpt lat="43.67087032427297" lon="12.515000166767571"><ele>292.0</ele><time>2026-04-25T09:55:37Z</time></trkpt><trkpt lat="43.670788593955876" lon="12.515141119950721"><ele>292.0</ele><time>2026-04-25T09:55:38Z</time></trkpt><trkpt lat="43.67069661562619" lon="12.515279747494112"><ele>292.0</ele><time>2026-04-25T09:55:39Z</time></trkpt><trkpt lat="43.67059205609294" lon="12.51540796003432"><ele>292.0</ele><time>2026-04-25T09:55:40Z</time></trkpt><trkpt lat="43.67047958006952" lon="12.515535156547926"><ele>292.0</ele><time>2026-04-25T09:55:41Z</time></trkpt><trkpt lat="43.67036677502096" lon="12.515659375081901"><ele>292.0</ele><time>2026-04-25T09:55:42Z</time></trkpt><trkpt lat="43.670249313622854" lon="12.515784039163396"><ele>292.0</ele><time>2026-04-25T09:55:43Z</time></trkpt><trkpt lat="43.67013407239241" lon="12.515904136097085"><ele>292.0</ele><time>2026-04-25T09:55:44Z</time></trkpt><trkpt lat="43.67001693302233" lon="12.516028257940151"><ele>292.0</ele><time>2026-04-25T09:55:45Z</time></trkpt><trkpt lat="43.669902409638055" lon="12.516155721974282"><ele>290.25</ele><time>2026-04-25T09:55:46Z</time></trkpt><trkpt lat="43.6697870345903" lon="12.516274002326755"><ele>288.5</ele><time>2026-04-25T09:55:47Z</time></trkpt><trkpt lat="43.66967404574337" lon="12.516383895353954"><ele>286.75</ele><time>2026-04-25T09:55:48Z</time></trkpt><trkpt lat="43.6695611296698" lon="12.516482322370939"><ele>285.0</ele><time>2026-04-25T09:55:49Z</time></trkpt><trkpt lat="43.66944316669275" lon="12.5165696953552"><ele>285.75</ele><time>2026-04-25T09:55:50Z</time></trkpt><trkpt lat="43.66932006354854" lon="12.51663685855513"><ele>286.5</ele><time>2026-04-25T09:55:51Z</time></trkpt><trkpt lat="43.66919492055864" lon="12.516691071123732"><ele>287.25</ele><time>2026-04-25T09:55:52Z</time></trkpt><trkpt lat="43.669074938119444" lon="12.516735729263495"><ele>288.0</ele><time>2026-04-25T09:55:53Z</time></trkpt><trkpt lat="43.66896765303531" lon="12.516776592121444"><ele>288.0</ele><time>2026-04-25T09:55:54Z</time></trkpt><trkpt lat="43.668875191412646" lon="12.516814639415465"><ele>288.0</ele><time>2026-04-25T09:55:55Z</time></trkpt><trkpt lat="43.66879302124501" lon="12.516849725745278"><ele>288.0</ele><time>2026-04-25T09:55:56Z</time></trkpt><trkpt lat="43.66871937733863" lon="12.516883042384498"><ele>288.0</ele><time>2026-04-25T09:55:57Z</time></trkpt><trkpt lat="43.66865477453857" lon="12.5169174658126"><ele>288.0</ele><time>2026-04-25T09:55:58Z</time></trkpt><trkpt lat="43.668590792648274" lon="12.516951378972912"><ele>288.0</ele><time>2026-04-25T09:55:59Z</time></trkpt><trkpt lat="43.6684781056867" lon="12.517003128387119"><ele>287.6</ele><time>2026-04-25T09:56:01Z</time></trkpt><trkpt lat="43.668412803121875" lon="12.517027035493001"><ele>287.20000000000005</ele><time>2026-04-25T09:56:03Z</time></trkpt><trkpt lat="43.66825585548092" lon="12.517087908296364"><ele>286.8</ele><time>2026-04-25T09:56:11Z</time></trkpt><trkpt lat="43.66816325535817" lon="12.517128614865868"><ele>286.40000000000003</ele><time>2026-04-25T09:56:12Z</time></trkpt><trkpt lat="43.66805076508793" lon="12.517175547943319"><ele>286.0</ele><time>2026-04-25T09:56:13Z</time></trkpt><trkpt lat="43.66792888836185" lon="12.517213275107185"><ele>286.0</ele><time>2026-04-25T09:56:14Z</time></trkpt><trkpt lat="43.6678036643644" lon="12.517256061436965"><ele>286.0</ele><time>2026-04-25T09:56:15Z</time></trkpt><trkpt lat="43.667678788553474" lon="12.517308328577156"><ele>286.0</ele><time>2026-04-25T09:56:16Z</time></trkpt><trkpt lat="43.66756472642412" lon="12.51735920673691"><ele>286.0</ele><time>2026-04-25T09:56:17Z</time></trkpt><trkpt lat="43.66745240183569" lon="12.517405922700831"><ele>286.0</ele><time>2026-04-25T09:56:18Z</time></trkpt><trkpt lat="43.66733598749697" lon="12.517458291196343"><ele>286.0</ele><time>2026-04-25T09:56:19Z</time></trkpt><trkpt lat="43.667220951860365" lon="12.517518512467634"><ele>286.0</ele><time>2026-04-25T09:56:20Z</time></trkpt><trkpt lat="43.66711982143394" lon="12.517588547839154"><ele>286.0</ele><time>2026-04-25T09:56:21Z</time></trkpt><trkpt lat="43.667027746931254" lon="12.517653701126642"><ele>286.0</ele><time>2026-04-25T09:56:22Z</time></trkpt><trkpt lat="43.666949490741494" lon="12.51771248586655"><ele>286.0</ele><time>2026-04-25T09:56:23Z</time></trkpt><trkpt lat="43.66688555150841" lon="12.517759120210387"><ele>286.0</ele><time>2026-04-25T09:56:24Z</time></trkpt><trkpt lat="43.66679427381557" lon="12.517819074585091"><ele>286.0</ele><time>2026-04-25T09:56:26Z</time></trkpt><trkpt lat="43.66673893876006" lon="12.517647395940038"><ele>286.0</ele><time>2026-04-25T09:56:29Z</time></trkpt><trkpt lat="43.6667126017344" lon="12.517553006417476"><ele>286.2</ele><time>2026-04-25T09:56:30Z</time></trkpt><trkpt lat="43.66668836203466" lon="12.517450831772866"><ele>286.40000000000003</ele><time>2026-04-25T09:56:31Z</time></trkpt><trkpt lat="43.666661653754694" lon="12.51733028875257"><ele>286.6</ele><time>2026-04-25T09:56:32Z</time></trkpt><trkpt lat="43.666634352436695" lon="12.517196478427913"><ele>286.8</ele><time>2026-04-25T09:56:33Z</time></trkpt><trkpt lat="43.66661016581118" lon="12.517055986724172"><ele>287.0</ele><time>2026-04-25T09:56:34Z</time></trkpt><trkpt lat="43.66659338627126" lon="12.516907886797181"><ele>287.2</ele><time>2026-04-25T09:56:35Z</time></trkpt><trkpt lat="43.66657927398401" lon="12.516757060832383"><ele>287.4</ele><time>2026-04-25T09:56:36Z</time></trkpt><trkpt lat="43.66655817900846" lon="12.516612485700701"><ele>287.6</ele><time>2026-04-25T09:56:37Z</time></trkpt><trkpt lat="43.66652814474421" lon="12.516479076528364"><ele>287.8</ele><time>2026-04-25T09:56:38Z</time></trkpt><trkpt lat="43.66649127131132" lon="12.516363107526253"><ele>288.0</ele><time>2026-04-25T09:56:39Z</time></trkpt><trkpt lat="43.66643810424374" lon="12.516262510959052"><ele>290.6</ele><time>2026-04-25T09:56:40Z</time></trkpt><trkpt lat="43.66636758052994" lon="12.516163859824262"><ele>293.20000000000005</ele><time>2026-04-25T09:56:41Z</time></trkpt><trkpt lat="43.66628742310973" lon="12.51605566751044"><ele>295.8</ele><time>2026-04-25T09:56:42Z</time></trkpt><trkpt lat="43.66621231618576" lon="12.515934168208226"><ele>298.40000000000003</ele><time>2026-04-25T09:56:43Z</time></trkpt><trkpt lat="43.666159509400295" lon="12.515820840515419"><ele>301.0</ele><time>2026-04-25T09:56:44Z</time></trkpt><trkpt lat="43.66612466388801" lon="12.515716950943036"><ele>299.5</ele><time>2026-04-25T09:56:45Z</time></trkpt><trkpt lat="43.66609846614965" lon="12.515620871064373"><ele>298.0</ele><time>2026-04-25T09:56:46Z</time></trkpt><trkpt lat="43.66607285312418" lon="12.515516188726139"><ele>296.5</ele><time>2026-04-25T09:56:47Z</time></trkpt><trkpt lat="43.66605033370621" lon="12.515390659543792"><ele>295.0</ele><time>2026-04-25T09:56:48Z</time></trkpt><trkpt lat="43.6660380242753" lon="12.515260415299645"><ele>293.5</ele><time>2026-04-25T09:56:49Z</time></trkpt><trkpt lat="43.6660290591886" lon="12.515128031344155"><ele>292.0</ele><time>2026-04-25T09:56:50Z</time></trkpt><trkpt lat="43.66602340447241" lon="12.514991467971289"><ele>292.0</ele><time>2026-04-25T09:56:51Z</time></trkpt><trkpt lat="43.66602510488591" lon="12.514847593308321"><ele>292.0</ele><time>2026-04-25T09:56:52Z</time></trkpt><trkpt lat="43.66603346219075" lon="12.51469730166725"><ele>292.0</ele><time>2026-04-25T09:56:53Z</time></trkpt><trkpt lat="43.666049531130184" lon="12.514536453791223"><ele>292.0</ele><time>2026-04-25T09:56:54Z</time></trkpt><trkpt lat="43.66606047782762" lon="12.514379475747889"><ele>292.0</ele><time>2026-04-25T09:56:55Z</time></trkpt><trkpt lat="43.66607092549645" lon="12.514227573419243"><ele>293.25</ele><time>2026-04-25T09:56:56Z</time></trkpt><trkpt lat="43.66607789477323" lon="12.514075218351856"><ele>294.5</ele><time>2026-04-25T09:56:57Z</time></trkpt><trkpt lat="43.6660761897862" lon="12.51391644910887"><ele>295.75</ele><time>2026-04-25T09:56:58Z</time></trkpt><trkpt lat="43.66605983709083" lon="12.51374354572553"><ele>297.0</ele><time>2026-04-25T09:56:59Z</time></trkpt><trkpt lat="43.66603576169261" lon="12.513572369939693"><ele>297.8</ele><time>2026-04-25T09:57:00Z</time></trkpt><trkpt lat="43.66600820754685" lon="12.513424409070698"><ele>298.6</ele><time>2026-04-25T09:57:01Z</time></trkpt><trkpt lat="43.665980654998435" lon="12.513276884886242"><ele>299.40000000000003</ele><time>2026-04-25T09:57:02Z</time></trkpt><trkpt lat="43.66594826494709" lon="12.51313687535961"><ele>300.2</ele><time>2026-04-25T09:57:03Z</time></trkpt><trkpt lat="43.66590394593702" lon="12.513009878848024"><ele>301.0</ele><time>2026-04-25T09:57:04Z</time></trkpt><trkpt lat="43.6658259796897" lon="12.512886539756883"><ele>302.75</ele><time>2026-04-25T09:57:05Z</time></trkpt><trkpt lat="43.66574455781314" lon="12.512741075085886"><ele>304.5</ele><time>2026-04-25T09:57:06Z</time></trkpt><trkpt lat="43.66566494897894" lon="12.512593731952053"><ele>306.25</ele><time>2026-04-25T09:57:07Z</time></trkpt><trkpt lat="43.6656261241521" lon="12.512449081788972"><ele>308.0</ele><time>2026-04-25T09:57:08Z</time></trkpt><trkpt lat="43.66559492593604" lon="12.512310610945145"><ele>308.0</ele><time>2026-04-25T09:57:09Z</time></trkpt><trkpt lat="43.66557421623909" lon="12.512159315153983"><ele>308.0</ele><time>2026-04-25T09:57:10Z</time></trkpt><trkpt lat="43.6655607232565" lon="12.51198889520311"><ele>308.0</ele><time>2026-04-25T09:57:11Z</time></trkpt><trkpt lat="43.66552886723732" lon="12.511809072195188"><ele>308.0</ele><time>2026-04-25T09:57:12Z</time></trkpt><trkpt lat="43.66551451729479" lon="12.51166111131066"><ele>309.8</ele><time>2026-04-25T09:57:13Z</time></trkpt><trkpt lat="43.66548215339212" lon="12.51151676815172"><ele>311.6</ele><time>2026-04-25T09:57:14Z</time></trkpt><trkpt lat="43.665462751736754" lon="12.511380755981657"><ele>313.4</ele><time>2026-04-25T09:57:15Z</time></trkpt><trkpt lat="43.66543013134106" lon="12.511235861482772"><ele>315.2</ele><time>2026-04-25T09:57:16Z</time></trkpt><trkpt lat="43.66536784711094" lon="12.511083049728791"><ele>317.0</ele><time>2026-04-25T09:57:17Z</time></trkpt><trkpt lat="43.665304657041204" lon="12.510946786515076"><ele>314.5</ele><time>2026-04-25T09:57:18Z</time></trkpt><trkpt lat="43.66524043078426" lon="12.510811829847535"><ele>312.0</ele><time>2026-04-25T09:57:19Z</time></trkpt><trkpt lat="43.665172167600325" lon="12.510657619789752"><ele>309.5</ele><time>2026-04-25T09:57:20Z</time></trkpt><trkpt lat="43.665116432789326" lon="12.510495900365658"><ele>307.0</ele><time>2026-04-25T09:57:21Z</time></trkpt><trkpt lat="43.66506584403156" lon="12.510322347388442"><ele>307.0</ele><time>2026-04-25T09:57:22Z</time></trkpt><trkpt lat="43.66503942298336" lon="12.510123081355118"><ele>307.0</ele><time>2026-04-25T09:57:23Z</time></trkpt><trkpt lat="43.66501340351393" lon="12.50992150787539"><ele>307.0</ele><time>2026-04-25T09:57:24Z</time></trkpt><trkpt lat="43.66497982828702" lon="12.509736779908192"><ele>307.0</ele><time>2026-04-25T09:57:25Z</time></trkpt><trkpt lat="43.66492919805268" lon="12.50958515151696"><ele>309.5</ele><time>2026-04-25T09:57:26Z</time></trkpt><trkpt lat="43.66486063425873" lon="12.509470987814932"><ele>312.0</ele><time>2026-04-25T09:57:27Z</time></trkpt><trkpt lat="43.664788320911" lon="12.509369616314926"><ele>314.5</ele><time>2026-04-25T09:57:28Z</time></trkpt><trkpt lat="43.66469500645635" lon="12.509269643236177"><ele>317.0</ele><time>2026-04-25T09:57:29Z</time></trkpt><trkpt lat="43.66458166025825" lon="12.509146683120708"><ele>317.0</ele><time>2026-04-25T09:57:30Z</time></trkpt><trkpt lat="43.66446575319138" lon="12.509004800355903"><ele>317.0</ele><time>2026-04-25T09:57:31Z</time></trkpt><trkpt lat="43.664332731327846" lon="12.5088916958319"><ele>317.0</ele><time>2026-04-25T09:57:32Z</time></trkpt><trkpt lat="43.664185267562196" lon="12.508783929079184"><ele>317.25</ele><time>2026-04-25T09:57:33Z</time></trkpt><trkpt lat="43.664065015262544" lon="12.508702265762864"><ele>317.5</ele><time>2026-04-25T09:57:34Z</time></trkpt><trkpt lat="43.66398216598438" lon="12.50858199783104"><ele>317.75</ele><time>2026-04-25T09:57:35Z</time></trkpt><trkpt lat="43.66390887645227" lon="12.508462429886402"><ele>318.0</ele><time>2026-04-25T09:57:36Z</time></trkpt><trkpt lat="43.663847744078254" lon="12.508332495984423"><ele>318.0</ele><time>2026-04-25T09:57:37Z</time></trkpt><trkpt lat="43.66379235062877" lon="12.508172982754113"><ele>318.0</ele><time>2026-04-25T09:57:38Z</time></trkpt><trkpt lat="43.66374823231416" lon="12.508038080624868"><ele>318.0</ele><time>2026-04-25T09:57:39Z</time></trkpt><trkpt lat="43.66371168732795" lon="12.507922986392018"><ele>318.0</ele><time>2026-04-25T09:57:40Z</time></trkpt><trkpt lat="43.66367234966806" lon="12.507800682005724"><ele>318.0</ele><time>2026-04-25T09:57:41Z</time></trkpt><trkpt lat="43.66361317936679" lon="12.50767087274643"><ele>316.6666666666667</ele><time>2026-04-25T09:57:42Z</time></trkpt><trkpt lat="43.66356618115651" lon="12.507499731231482"><ele>315.33333333333337</ele><time>2026-04-25T09:57:43Z</time></trkpt><trkpt lat="43.66348318945837" lon="12.507294641839358"><ele>314.0</ele><time>2026-04-25T09:57:44Z</time></trkpt><trkpt lat="43.663374818103605" lon="12.5070526908903"><ele>314.0</ele><time>2026-04-25T09:57:45Z</time></trkpt><trkpt lat="43.66325011200091" lon="12.506811377890585"><ele>314.0</ele><time>2026-04-25T09:57:46Z</time></trkpt><trkpt lat="43.663136234947444" lon="12.506572966179894"><ele>314.0</ele><time>2026-04-25T09:57:47Z</time></trkpt><trkpt lat="43.663050441482454" lon="12.50635753804106"><ele>314.33333333333337</ele><time>2026-04-25T09:57:48Z</time></trkpt><trkpt lat="43.66297827376672" lon="12.506127572566585"><ele>314.6666666666667</ele><time>2026-04-25T09:57:49Z</time></trkpt><trkpt lat="43.66289947218407" lon="12.505898346470534"><ele>315.0</ele><time>2026-04-25T09:57:50Z</time></trkpt><trkpt lat="43.66281550256572" lon="12.505651880476965"><ele>316.0</ele><time>2026-04-25T09:57:51Z</time></trkpt><trkpt lat="43.66272953912787" lon="12.50540277919645"><ele>317.0</ele><time>2026-04-25T09:57:52Z</time></trkpt><trkpt lat="43.66263681188233" lon="12.505173497610398"><ele>318.0</ele><time>2026-04-25T09:57:53Z</time></trkpt><trkpt lat="43.66255045664657" lon="12.504945633837634"><ele>318.0</ele><time>2026-04-25T09:57:54Z</time></trkpt><trkpt lat="43.662450429353946" lon="12.504757796818609"><ele>318.0</ele><time>2026-04-25T09:57:55Z</time></trkpt><trkpt lat="43.662322802423" lon="12.50458045816118"><ele>318.0</ele><time>2026-04-25T09:57:56Z</time></trkpt><trkpt lat="43.66218656835346" lon="12.504391553600161"><ele>320.0</ele><time>2026-04-25T09:57:57Z</time></trkpt><trkpt lat="43.66204051153446" lon="12.504184290163925"><ele>322.0</ele><time>2026-04-25T09:57:58Z</time></trkpt><trkpt lat="43.66188802413741" lon="12.503954218661159"><ele>324.0</ele><time>2026-04-25T09:57:59Z</time></trkpt><trkpt lat="43.66173177314392" lon="12.503710639614251"><ele>326.3333333333333</ele><time>2026-04-25T09:58:00Z</time></trkpt><trkpt lat="43.661578895748924" lon="12.503494061604892"><ele>328.66666666666663</ele><time>2026-04-25T09:58:01Z</time></trkpt><trkpt lat="43.66147023174098" lon="12.503321821819354"><ele>331.0</ele><time>2026-04-25T09:58:02Z</time></trkpt><trkpt lat="43.66134093323311" lon="12.503137456043985"><ele>331.0</ele><time>2026-04-25T09:58:03Z</time></trkpt><trkpt lat="43.66120874612036" lon="12.50296042194344"><ele>331.0</ele><time>2026-04-25T09:58:04Z</time></trkpt><trkpt lat="43.66107074647094" lon="12.502780878399758"><ele>331.0</ele><time>2026-04-25T09:58:05Z</time></trkpt><trkpt lat="43.66093691232988" lon="12.502614254490355"><ele>333.5</ele><time>2026-04-25T09:58:06Z</time></trkpt><trkpt lat="43.66082473869586" lon="12.50246893080336"><ele>336.0</ele><time>2026-04-25T09:58:07Z</time></trkpt><trkpt lat="43.6607300819307" lon="12.50231745641269"><ele>338.5</ele><time>2026-04-25T09:58:08Z</time></trkpt><trkpt lat="43.66067065375922" lon="12.50213763048651"><ele>341.0</ele><time>2026-04-25T09:58:09Z</time></trkpt><trkpt lat="43.660616422166555" lon="12.501952101339587"><ele>342.25</ele><time>2026-04-25T09:58:10Z</time></trkpt><trkpt lat="43.66055380968782" lon="12.501736867125214"><ele>343.5</ele><time>2026-04-25T09:58:11Z</time></trkpt><trkpt lat="43.66048650362329" lon="12.501563479381685"><ele>344.75</ele><time>2026-04-25T09:58:12Z</time></trkpt><trkpt lat="43.66044374363278" lon="12.501413696019421"><ele>346.0</ele><time>2026-04-25T09:58:13Z</time></trkpt><trkpt lat="43.66039227014764" lon="12.501232796514618"><ele>349.3333333333333</ele><time>2026-04-25T09:58:14Z</time></trkpt><trkpt lat="43.6603516395444" lon="12.5010256406866"><ele>352.6666666666667</ele><time>2026-04-25T09:58:15Z</time></trkpt><trkpt lat="43.66029044723768" lon="12.500792330581218"><ele>356.0</ele><time>2026-04-25T09:58:16Z</time></trkpt><trkpt lat="43.66022641464641" lon="12.500545724421098"><ele>360.33333333333337</ele><time>2026-04-25T09:58:17Z</time></trkpt><trkpt lat="43.66016355604108" lon="12.50025915318861"><ele>364.6666666666667</ele><time>2026-04-25T09:58:18Z</time></trkpt><trkpt lat="43.66011493027716" lon="12.4999654623214"><ele>369.0</ele><time>2026-04-25T09:58:19Z</time></trkpt><trkpt lat="43.66006644990451" lon="12.499688079227504"><ele>373.0</ele><time>2026-04-25T09:58:20Z</time></trkpt><trkpt lat="43.65999799113287" lon="12.499412650922753"><ele>377.0</ele><time>2026-04-25T09:58:21Z</time></trkpt><trkpt lat="43.65993313595202" lon="12.499177078785634"><ele>381.0</ele><time>2026-04-25T09:58:22Z</time></trkpt><trkpt lat="43.65987495933124" lon="12.498974568662533"><ele>381.0</ele><time>2026-04-25T09:58:23Z</time></trkpt><trkpt lat="43.65983345501699" lon="12.498796787750974"><ele>381.0</ele><time>2026-04-25T09:58:24Z</time></trkpt><trkpt lat="43.659806642381994" lon="12.498658013323809"><ele>381.0</ele><time>2026-04-25T09:58:25Z</time></trkpt><trkpt lat="43.65979552008685" lon="12.49854578421406"><ele>381.0</ele><time>2026-04-25T09:58:26Z</time></trkpt><trkpt lat="43.659787650295506" lon="12.498456408252117"><ele>381.0</ele><time>2026-04-25T09:58:27Z</time></trkpt><trkpt lat="43.65969837026674" lon="12.498376609579076"><ele>381.5</ele><time>2026-04-25T09:58:28Z</time></trkpt><trkpt lat="43.65964015403817" lon="12.498272317706755"><ele>382.0</ele><time>2026-04-25T09:58:29Z</time></trkpt><trkpt lat="43.65954314423798" lon="12.498128729437083"><ele>382.5</ele><time>2026-04-25T09:58:30Z</time></trkpt><trkpt lat="43.65945229010213" lon="12.49798079930777"><ele>383.0</ele><time>2026-04-25T09:58:31Z</time></trkpt><trkpt lat="43.65937190540836" lon="12.49785864495224"><ele>383.0</ele><time>2026-04-25T09:58:32Z</time></trkpt><trkpt lat="43.65931070789775" lon="12.497757255441892"><ele>383.0</ele><time>2026-04-25T09:58:33Z</time></trkpt><trkpt lat="43.659252209084535" lon="12.497663313434037"><ele>383.0</ele><time>2026-04-25T09:58:34Z</time></trkpt><trkpt lat="43.65918847462494" lon="12.497559609566343"><ele>383.0</ele><time>2026-04-25T09:58:35Z</time></trkpt><trkpt lat="43.65912262024365" lon="12.497469191530367"><ele>383.0</ele><time>2026-04-25T09:58:36Z</time></trkpt><trkpt lat="43.6590540994863" lon="12.497385896493945"><ele>383.0</ele><time>2026-04-25T09:58:37Z</time></trkpt><trkpt lat="43.65896257712916" lon="12.497299658031928"><ele>383.0</ele><time>2026-04-25T09:58:38Z</time></trkpt><trkpt lat="43.658857507821544" lon="12.49723057073028"><ele>383.0</ele><time>2026-04-25T09:58:39Z</time></trkpt><trkpt lat="43.65874025818594" lon="12.497164455023725"><ele>383.0</ele><time>2026-04-25T09:58:40Z</time></trkpt><trkpt lat="43.65860054338374" lon="12.497100730205455"><ele>380.6666666666667</ele><time>2026-04-25T09:58:41Z</time></trkpt><trkpt lat="43.658446510763284" lon="12.497030318063139"><ele>378.3333333333333</ele><time>2026-04-25T09:58:42Z</time></trkpt><trkpt lat="43.658284698987366" lon="12.496960558950487"><ele>376.0</ele><time>2026-04-25T09:58:43Z</time></trkpt><trkpt lat="43.65811667246409" lon="12.496876135401072"><ele>376.0</ele><time>2026-04-25T09:58:44Z</time></trkpt><trkpt lat="43.65795041995348" lon="12.49675293709998"><ele>376.0</ele><time>2026-04-25T09:58:45Z</time></trkpt><trkpt lat="43.65776374937511" lon="12.496654310563052"><ele>376.0</ele><time>2026-04-25T09:58:46Z</time></trkpt><trkpt lat="43.65758822533743" lon="12.496535110980048"><ele>376.0</ele><time>2026-04-25T09:58:47Z</time></trkpt><trkpt lat="43.657443123955076" lon="12.496427786155145"><ele>376.0</ele><time>2026-04-25T09:58:48Z</time></trkpt><trkpt lat="43.65729487124755" lon="12.496314582246402"><ele>376.0</ele><time>2026-04-25T09:58:49Z</time></trkpt><trkpt lat="43.65714595933504" lon="12.496198569233137"><ele>376.0</ele><time>2026-04-25T09:58:50Z</time></trkpt><trkpt lat="43.65699410928535" lon="12.49610602206977"><ele>376.0</ele><time>2026-04-25T09:58:51Z</time></trkpt><trkpt lat="43.65687463272713" lon="12.496011134672122"><ele>376.0</ele><time>2026-04-25T09:58:52Z</time></trkpt><trkpt lat="43.65676957473194" lon="12.495947073438403"><ele>376.0</ele><time>2026-04-25T09:58:53Z</time></trkpt><trkpt lat="43.65668520464013" lon="12.495918575095795"><ele>379.8</ele><time>2026-04-25T09:58:54Z</time></trkpt><trkpt lat="43.65658766505321" lon="12.495907042625904"><ele>383.6</ele><time>2026-04-25T09:58:55Z</time></trkpt><trkpt lat="43.65647645736818" lon="12.495932311733544"><ele>387.4</ele><time>2026-04-25T09:58:56Z</time></trkpt><trkpt lat="43.656363781536925" lon="12.495964540297317"><ele>391.2</ele><time>2026-04-25T09:58:57Z</time></trkpt><trkpt lat="43.656253927426285" lon="12.495950097778763"><ele>395.0</ele><time>2026-04-25T09:58:58Z</time></trkpt><trkpt lat="43.65614203575446" lon="12.495932372552398"><ele>397.0</ele><time>2026-04-25T09:58:59Z</time></trkpt><trkpt lat="43.65604605584345" lon="12.495906813733152"><ele>399.0</ele><time>2026-04-25T09:59:00Z</time></trkpt><trkpt lat="43.65594986212166" lon="12.495876883215178"><ele>401.0</ele><time>2026-04-25T09:59:01Z</time></trkpt><trkpt lat="43.65583666815549" lon="12.495839492915756"><ele>403.0</ele><time>2026-04-25T09:59:02Z</time></trkpt><trkpt lat="43.65571141757879" lon="12.495794805162266"><ele>405.0</ele><time>2026-04-25T09:59:03Z</time></trkpt><trkpt lat="43.65557169699955" lon="12.49575192035375"><ele>405.0</ele><time>2026-04-25T09:59:04Z</time></trkpt><trkpt lat="43.6554218497478" lon="12.495735326524875"><ele>405.0</ele><time>2026-04-25T09:59:05Z</time></trkpt><trkpt lat="43.65528681469851" lon="12.495684421868647"><ele>405.0</ele><time>2026-04-25T09:59:06Z</time></trkpt><trkpt lat="43.655155202755665" lon="12.49566563873111"><ele>405.0</ele><time>2026-04-25T09:59:07Z</time></trkpt><trkpt lat="43.654991180734086" lon="12.495648885969924"><ele>408.0</ele><time>2026-04-25T09:59:08Z</time></trkpt><trkpt lat="43.654827227228715" lon="12.495651941211639"><ele>411.0</ele><time>2026-04-25T09:59:09Z</time></trkpt><trkpt lat="43.65467439340362" lon="12.495644512098252"><ele>414.0</ele><time>2026-04-25T09:59:10Z</time></trkpt><trkpt lat="43.65456407169167" lon="12.495610781400597"><ele>417.0</ele><time>2026-04-25T09:59:11Z</time></trkpt><trkpt lat="43.65449743632879" lon="12.495586884982002"><ele>420.1666666666667</ele><time>2026-04-25T09:59:12Z</time></trkpt><trkpt lat="43.65441985496001" lon="12.495536276764293"><ele>423.33333333333337</ele><time>2026-04-25T09:59:14Z</time></trkpt><trkpt lat="43.654356262078274" lon="12.495474472038891"><ele>426.5</ele><time>2026-04-25T09:59:15Z</time></trkpt><trkpt lat="43.65428377640839" lon="12.495428598424471"><ele>429.6666666666667</ele><time>2026-04-25T09:59:16Z</time></trkpt><trkpt lat="43.654235808546396" lon="12.495356790648668"><ele>432.83333333333337</ele><time>2026-04-25T09:59:17Z</time></trkpt><trkpt lat="43.65417919962138" lon="12.495317456821764"><ele>436.0</ele><time>2026-04-25T09:59:18Z</time></trkpt><trkpt lat="43.654085495984994" lon="12.495355885546696"><ele>436.0</ele><time>2026-04-25T09:59:19Z</time></trkpt><trkpt lat="43.65398406557685" lon="12.495407199744777"><ele>436.0</ele><time>2026-04-25T09:59:20Z</time></trkpt><trkpt lat="43.653872035397725" lon="12.495451433576218"><ele>436.0</ele><time>2026-04-25T09:59:21Z</time></trkpt><trkpt lat="43.65375326203557" lon="12.495488533928318"><ele>436.0</ele><time>2026-04-25T09:59:22Z</time></trkpt><trkpt lat="43.65364312300561" lon="12.495494304737948"><ele>442.4</ele><time>2026-04-25T09:59:23Z</time></trkpt><trkpt lat="43.65353027868611" lon="12.495500700312538"><ele>448.8</ele><time>2026-04-25T09:59:24Z</time></trkpt><trkpt lat="43.65341844646555" lon="12.495487780185893"><ele>455.19999999999993</ele><time>2026-04-25T09:59:25Z</time></trkpt><trkpt lat="43.653328616642895" lon="12.495497667783043"><ele>461.59999999999997</ele><time>2026-04-25T09:59:26Z</time></trkpt><trkpt lat="43.65324646746948" lon="12.495542202084227"><ele>468.0</ele><time>2026-04-25T09:59:28Z</time></trkpt><trkpt lat="43.65324999957239" lon="12.49543814352261"><ele>468.28571428571433</ele><time>2026-04-25T09:59:32Z</time></trkpt><trkpt lat="43.65328408279115" lon="12.495352517346015"><ele>468.5714285714286</ele><time>2026-04-25T09:59:33Z</time></trkpt><trkpt lat="43.653309481952235" lon="12.495252223392582"><ele>468.8571428571429</ele><time>2026-04-25T09:59:34Z</time></trkpt><trkpt lat="43.6533202926486" lon="12.495135654396941"><ele>469.1428571428571</ele><time>2026-04-25T09:59:35Z</time></trkpt><trkpt lat="43.653324684604" lon="12.495037132826502"><ele>469.4285714285714</ele><time>2026-04-25T09:59:36Z</time></trkpt><trkpt lat="43.653300617030276" lon="12.494954732387544"><ele>469.71428571428567</ele><time>2026-04-25T09:59:37Z</time></trkpt><trkpt lat="43.653290169497545" lon="12.49486826298461"><ele>470.0</ele><time>2026-04-25T09:59:38Z</time></trkpt><trkpt lat="43.65328257800486" lon="12.494781282990953"><ele>469.99999999999994</ele><time>2026-04-25T09:59:39Z</time></trkpt><trkpt lat="43.6532544038917" lon="12.494701193383055"><ele>470.0</ele><time>2026-04-25T09:59:40Z</time></trkpt><trkpt lat="43.65320803551965" lon="12.494631964450493"><ele>470.0</ele><time>2026-04-25T09:59:41Z</time></trkpt><trkpt lat="43.653146778360096" lon="12.494585638723967"><ele>470.0</ele><time>2026-04-25T09:59:42Z</time></trkpt><trkpt lat="43.65306335668434" lon="12.494552028351405"><ele>469.99999999999994</ele><time>2026-04-25T09:59:43Z</time></trkpt><trkpt lat="43.65297025235572" lon="12.494537983053608"><ele>470.0</ele><time>2026-04-25T09:59:44Z</time></trkpt><trkpt lat="43.65287688094468" lon="12.494540437282"><ele>472.75</ele><time>2026-04-25T09:59:45Z</time></trkpt><trkpt lat="43.6527762333135" lon="12.49449860643185"><ele>475.5</ele><time>2026-04-25T09:59:46Z</time></trkpt><trkpt lat="43.6526442068597" lon="12.494455928454055"><ele>478.25</ele><time>2026-04-25T09:59:47Z</time></trkpt><trkpt lat="43.652530317714024" lon="12.494441624353506"><ele>481.0</ele><time>2026-04-25T09:59:48Z</time></trkpt><trkpt lat="43.652433668258375" lon="12.49444147895833"><ele>481.0</ele><time>2026-04-25T09:59:49Z</time></trkpt><trkpt lat="43.65236020530067" lon="12.494433808387624"><ele>481.0</ele><time>2026-04-25T09:59:50Z</time></trkpt><trkpt lat="43.65230833159332" lon="12.494331973199673"><ele>481.0</ele><time>2026-04-25T09:59:55Z</time></trkpt><trkpt lat="43.65226702288429" lon="12.49415623335209"><ele>481.0</ele><time>2026-04-25T09:59:56Z</time></trkpt><trkpt lat="43.65222922951341" lon="12.49397038245784"><ele>481.0</ele><time>2026-04-25T09:59:57Z</time></trkpt><trkpt lat="43.65221437147126" lon="12.493833486561709"><ele>480.0</ele><time>2026-04-25T09:59:58Z</time></trkpt><trkpt lat="43.65221282507501" lon="12.493698150337744"><ele>479.0</ele><time>2026-04-25T09:59:59Z</time></trkpt><trkpt lat="43.65223087072191" lon="12.4935698189214"><ele>478.0</ele><time>2026-04-25T10:00:00Z</time></trkpt><trkpt lat="43.652227634235985" lon="12.49345475778314"><ele>477.0</ele><time>2026-04-25T10:00:01Z</time></trkpt><trkpt lat="43.65221632222369" lon="12.493305902185726"><ele>476.0</ele><time>2026-04-25T10:00:02Z</time></trkpt><trkpt lat="43.652186057247846" lon="12.493139019765204"><ele>476.0</ele><time>2026-04-25T10:00:03Z</time></trkpt><trkpt lat="43.652172235524816" lon="12.493003495405326"><ele>476.0</ele><time>2026-04-25T10:00:04Z</time></trkpt><trkpt lat="43.65217504169098" lon="12.49289000456671"><ele>476.0</ele><time>2026-04-25T10:00:05Z</time></trkpt><trkpt lat="43.65221538786231" lon="12.492762571208957"><ele>476.0</ele><time>2026-04-25T10:00:07Z</time></trkpt><trkpt lat="43.65231764899825" lon="12.49272080424597"><ele>476.0</ele><time>2026-04-25T10:00:09Z</time></trkpt><trkpt lat="43.65240143268524" lon="12.492675742346398"><ele>476.8333333333333</ele><time>2026-04-25T10:00:10Z</time></trkpt><trkpt lat="43.652484933392536" lon="12.492652732665599"><ele>477.66666666666663</ele><time>2026-04-25T10:00:11Z</time></trkpt><trkpt lat="43.65258048033197" lon="12.49260570962902"><ele>478.5</ele><time>2026-04-25T10:00:12Z</time></trkpt><trkpt lat="43.65266432188022" lon="12.492560649935857"><ele>479.33333333333337</ele><time>2026-04-25T10:00:13Z</time></trkpt><trkpt lat="43.65273791312791" lon="12.492504603551577"><ele>480.1666666666667</ele><time>2026-04-25T10:00:14Z</time></trkpt><trkpt lat="43.6528049079528" lon="12.49243167481116"><ele>481.0</ele><time>2026-04-25T10:00:15Z</time></trkpt><trkpt lat="43.652875049142324" lon="12.49233753379657"><ele>477.33333333333337</ele><time>2026-04-25T10:00:16Z</time></trkpt><trkpt lat="43.65297541576849" lon="12.492200084479455"><ele>473.66666666666663</ele><time>2026-04-25T10:00:17Z</time></trkpt><trkpt lat="43.653101478953765" lon="12.492042812394976"><ele>470.0</ele><time>2026-04-25T10:00:18Z</time></trkpt><trkpt lat="43.653227895230174" lon="12.491927719642648"><ele>470.0</ele><time>2026-04-25T10:00:19Z</time></trkpt><trkpt lat="43.65332603179018" lon="12.491818958697797"><ele>470.0</ele><time>2026-04-25T10:00:20Z</time></trkpt><trkpt lat="43.65341819523635" lon="12.491722626179982"><ele>470.0</ele><time>2026-04-25T10:00:21Z</time></trkpt><trkpt lat="43.653488162799384" lon="12.491639088681309"><ele>470.0</ele><time>2026-04-25T10:00:22Z</time></trkpt><trkpt lat="43.65352089071847" lon="12.491560656000393"><ele>470.0</ele><time>2026-04-25T10:00:23Z</time></trkpt><trkpt lat="43.653509359672995" lon="12.491425490898967"><ele>469.99999999999994</ele><time>2026-04-25T10:00:25Z</time></trkpt><trkpt lat="43.65348413855732" lon="12.49132303763048"><ele>470.0</ele><time>2026-04-25T10:00:27Z</time></trkpt><trkpt lat="43.65350947035255" lon="12.491234544047684"><ele>470.0</ele><time>2026-04-25T10:00:30Z</time></trkpt><trkpt lat="43.65355368635569" lon="12.491126259077133"><ele>470.0</ele><time>2026-04-25T10:00:34Z</time></trkpt><trkpt lat="43.65360208425962" lon="12.491029876131211"><ele>469.99999999999994</ele><time>2026-04-25T10:00:36Z</time></trkpt><trkpt lat="43.6536820293101" lon="12.490900808421056"><ele>470.0</ele><time>2026-04-25T10:00:38Z</time></trkpt><trkpt lat="43.65375109953739" lon="12.490801869247887"><ele>470.25</ele><time>2026-04-25T10:00:39Z</time></trkpt><trkpt lat="43.65382611797007" lon="12.490696655017125"><ele>470.5</ele><time>2026-04-25T10:00:40Z</time></trkpt><trkpt lat="43.653915767039365" lon="12.490578149658653"><ele>470.75</ele><time>2026-04-25T10:00:41Z</time></trkpt><trkpt lat="43.65402539842117" lon="12.490424631334882"><ele>471.0</ele><time>2026-04-25T10:00:42Z</time></trkpt><trkpt lat="43.6541538150861" lon="12.490308742315225"><ele>471.0</ele><time>2026-04-25T10:00:43Z</time></trkpt><trkpt lat="43.65422845875334" lon="12.49024430751312"><ele>471.0</ele><time>2026-04-25T10:00:44Z</time></trkpt><trkpt lat="43.65427954656959" lon="12.490180052747455"><ele>471.0</ele><time>2026-04-25T10:00:45Z</time></trkpt><trkpt lat="43.65431364328299" lon="12.490072541289356"><ele>471.0</ele><time>2026-04-25T10:00:47Z</time></trkpt><trkpt lat="43.65434622477945" lon="12.489983131233858"><ele>471.0</ele><time>2026-04-25T10:00:48Z</time></trkpt><trkpt lat="43.65438433801909" lon="12.489873761659373"><ele>471.0</ele><time>2026-04-25T10:00:49Z</time></trkpt><trkpt lat="43.6544209269325" lon="12.489763200573757"><ele>467.6666666666667</ele><time>2026-04-25T10:00:50Z</time></trkpt><trkpt lat="43.6544566680613" lon="12.489654281350873"><ele>464.33333333333337</ele><time>2026-04-25T10:00:51Z</time></trkpt><trkpt lat="43.65449114348692" lon="12.489543480681274"><ele>461.0</ele><time>2026-04-25T10:00:52Z</time></trkpt><trkpt lat="43.654518993543" lon="12.489456515665601"><ele>457.6666666666667</ele><time>2026-04-25T10:00:53Z</time></trkpt><trkpt lat="43.65454944384862" lon="12.489318965776413"><ele>454.33333333333337</ele><time>2026-04-25T10:00:55Z</time></trkpt><trkpt lat="43.65454855345535" lon="12.489196967756225"><ele>451.0</ele><time>2026-04-25T10:00:57Z</time></trkpt><trkpt lat="43.654508208736615" lon="12.489126661090422"><ele>454.20000000000005</ele><time>2026-04-25T10:00:59Z</time></trkpt><trkpt lat="43.654436652863815" lon="12.489069734567495"><ele>457.40000000000003</ele><time>2026-04-25T10:01:00Z</time></trkpt><trkpt lat="43.65435044780491" lon="12.489001108464553"><ele>460.6</ele><time>2026-04-25T10:01:01Z</time></trkpt><trkpt lat="43.65424560613451" lon="12.488936920848882"><ele>463.8</ele><time>2026-04-25T10:01:02Z</time></trkpt><trkpt lat="43.65411934352871" lon="12.48886200800484"><ele>467.0</ele><time>2026-04-25T10:01:03Z</time></trkpt><trkpt lat="43.653987924292124" lon="12.488792342400053"><ele>465.3333333333333</ele><time>2026-04-25T10:01:04Z</time></trkpt><trkpt lat="43.65384807200963" lon="12.48867592850187"><ele>463.66666666666663</ele><time>2026-04-25T10:01:05Z</time></trkpt><trkpt lat="43.65368896237949" lon="12.48862129543369"><ele>462.0</ele><time>2026-04-25T10:01:06Z</time></trkpt><trkpt lat="43.65357135763461" lon="12.488531451801148"><ele>462.0</ele><time>2026-04-25T10:01:07Z</time></trkpt><trkpt lat="43.65348507892635" lon="12.488421994763062"><ele>462.00000000000006</ele><time>2026-04-25T10:01:08Z</time></trkpt><trkpt lat="43.653416093936116" lon="12.488330214251073"><ele>462.00000000000006</ele><time>2026-04-25T10:01:09Z</time></trkpt><trkpt lat="43.653369394607466" lon="12.488239898843862"><ele>462.0</ele><time>2026-04-25T10:01:10Z</time></trkpt><trkpt lat="43.65333107714018" lon="12.488120417294985"><ele>462.0</ele><time>2026-04-25T10:01:11Z</time></trkpt><trkpt lat="43.65330335289979" lon="12.487963794492966"><ele>454.66666666666663</ele><time>2026-04-25T10:01:12Z</time></trkpt><trkpt lat="43.65329286119511" lon="12.487754768628188"><ele>447.3333333333333</ele><time>2026-04-25T10:01:13Z</time></trkpt><trkpt lat="43.65329272899507" lon="12.487527933435373"><ele>440.0</ele><time>2026-04-25T10:01:14Z</time></trkpt><trkpt lat="43.653290520119675" lon="12.487306766940833"><ele>440.0</ele><time>2026-04-25T10:01:15Z</time></trkpt><trkpt lat="43.65328347445927" lon="12.487116001890612"><ele>440.0</ele><time>2026-04-25T10:01:16Z</time></trkpt><trkpt lat="43.65326628146065" lon="12.486936566002765"><ele>440.0</ele><time>2026-04-25T10:01:17Z</time></trkpt><trkpt lat="43.65323129935439" lon="12.486763747017367"><ele>440.0</ele><time>2026-04-25T10:01:18Z</time></trkpt><trkpt lat="43.653207622406775" lon="12.486618098847437"><ele>438.4285714285714</ele><time>2026-04-25T10:01:19Z</time></trkpt><trkpt lat="43.6531863788516" lon="12.486510945887273"><ele>436.85714285714283</ele><time>2026-04-25T10:01:20Z</time></trkpt><trkpt lat="43.65315103957051" lon="12.486433120144266"><ele>435.2857142857143</ele><time>2026-04-25T10:01:21Z</time></trkpt><trkpt lat="43.65309676396812" lon="12.486376715440144"><ele>433.71428571428567</ele><time>2026-04-25T10:01:22Z</time></trkpt><trkpt lat="43.653033824376415" lon="12.486370226809646"><ele>432.14285714285717</ele><time>2026-04-25T10:01:23Z</time></trkpt><trkpt lat="43.65295441184851" lon="12.486384724178095"><ele>430.57142857142856</ele><time>2026-04-25T10:01:24Z</time></trkpt><trkpt lat="43.652888625620406" lon="12.486446041248298"><ele>429.0</ele><time>2026-04-25T10:01:25Z</time></trkpt><trkpt lat="43.652839815546535" lon="12.486558793721086"><ele>428.4</ele><time>2026-04-25T10:01:26Z</time></trkpt><trkpt lat="43.65278394532677" lon="12.486713505349867"><ele>427.79999999999995</ele><time>2026-04-25T10:01:27Z</time></trkpt><trkpt lat="43.65273316300912" lon="12.486874722201607"><ele>427.20000000000005</ele><time>2026-04-25T10:01:28Z</time></trkpt><trkpt lat="43.652657840074056" lon="12.486970399101208"><ele>426.6</ele><time>2026-04-25T10:01:29Z</time></trkpt><trkpt lat="43.65260861829292" lon="12.487032686528375"><ele>426.0</ele><time>2026-04-25T10:01:30Z</time></trkpt><trkpt lat="43.652535918320645" lon="12.486999107833455"><ele>426.0</ele><time>2026-04-25T10:01:31Z</time></trkpt><trkpt lat="43.65244184518005" lon="12.486980775565977"><ele>426.0</ele><time>2026-04-25T10:01:32Z</time></trkpt><trkpt lat="43.65232930044826" lon="12.486916167510996"><ele>426.0</ele><time>2026-04-25T10:01:33Z</time></trkpt><trkpt lat="43.65217687586886" lon="12.486824071741754"><ele>426.0</ele><time>2026-04-25T10:01:34Z</time></trkpt><trkpt lat="43.652042106657355" lon="12.486755392402406"><ele>426.0</ele><time>2026-04-25T10:01:35Z</time></trkpt><trkpt lat="43.65191975620121" lon="12.486714030385606"><ele>426.0</ele><time>2026-04-25T10:01:36Z</time></trkpt><trkpt lat="43.65182520933171" lon="12.486645460427725"><ele>426.0</ele><time>2026-04-25T10:01:37Z</time></trkpt><trkpt lat="43.65176478159333" lon="12.486557936136007"><ele>426.0</ele><time>2026-04-25T10:01:38Z</time></trkpt><trkpt lat="43.651717220703" lon="12.486459423318678"><ele>426.0</ele><time>2026-04-25T10:01:40Z</time></trkpt><trkpt lat="43.651771572028906" lon="12.48637739811934"><ele>426.0</ele><time>2026-04-25T10:01:42Z</time></trkpt><trkpt lat="43.6518457841748" lon="12.486359219988936"><ele>426.0</ele><time>2026-04-25T10:01:43Z</time></trkpt><trkpt lat="43.65195570673882" lon="12.486336615942335"><ele>426.0</ele><time>2026-04-25T10:01:44Z</time></trkpt><trkpt lat="43.65212033371837" lon="12.486285503937022"><ele>426.0</ele><time>2026-04-25T10:01:45Z</time></trkpt><trkpt lat="43.652269729701885" lon="12.486224702748256"><ele>423.75</ele><time>2026-04-25T10:01:46Z</time></trkpt><trkpt lat="43.65240140444471" lon="12.486123529226541"><ele>421.5</ele><time>2026-04-25T10:01:47Z</time></trkpt><trkpt lat="43.652502531079925" lon="12.486022559680274"><ele>419.25</ele><time>2026-04-25T10:01:48Z</time></trkpt><trkpt lat="43.65259149545823" lon="12.485916477224416"><ele>417.0</ele><time>2026-04-25T10:01:49Z</time></trkpt><trkpt lat="43.65265724319485" lon="12.485800116940455"><ele>417.0</ele><time>2026-04-25T10:01:50Z</time></trkpt><trkpt lat="43.65270354311804" lon="12.485672015921466"><ele>417.0</ele><time>2026-04-25T10:01:51Z</time></trkpt><trkpt lat="43.65275257992278" lon="12.48552790547796"><ele>417.0</ele><time>2026-04-25T10:01:52Z</time></trkpt><trkpt lat="43.652793157564005" lon="12.485398418799603"><ele>417.0</ele><time>2026-04-25T10:01:53Z</time></trkpt><trkpt lat="43.65286037579037" lon="12.485318512876624"><ele>417.0</ele><time>2026-04-25T10:01:54Z</time></trkpt><trkpt lat="43.65294942675636" lon="12.485229096658944"><ele>413.40000000000003</ele><time>2026-04-25T10:01:55Z</time></trkpt><trkpt lat="43.65303932323993" lon="12.4851416919854"><ele>409.8</ele><time>2026-04-25T10:01:56Z</time></trkpt><trkpt lat="43.6531190006836" lon="12.48506816028465"><ele>406.2</ele><time>2026-04-25T10:01:57Z</time></trkpt><trkpt lat="43.65318810509621" lon="12.485008650271247"><ele>402.6</ele><time>2026-04-25T10:01:58Z</time></trkpt><trkpt lat="43.6532489082199" lon="12.48495890227425"><ele>399.0</ele><time>2026-04-25T10:01:59Z</time></trkpt><trkpt lat="43.65332276147566" lon="12.484847668967467"><ele>399.0</ele><time>2026-04-25T10:02:01Z</time></trkpt><trkpt lat="43.653364418640614" lon="12.484697871406818"><ele>399.0</ele><time>2026-04-25T10:02:03Z</time></trkpt><trkpt lat="43.653428774475856" lon="12.484539860199234"><ele>399.0</ele><time>2026-04-25T10:02:05Z</time></trkpt><trkpt lat="43.65350655301095" lon="12.484462703499412"><ele>399.0</ele><time>2026-04-25T10:02:06Z</time></trkpt><trkpt lat="43.653557555734714" lon="12.484359305485366"><ele>399.0</ele><time>2026-04-25T10:02:07Z</time></trkpt><trkpt lat="43.65362619289616" lon="12.484294237361118"><ele>400.79999999999995</ele><time>2026-04-25T10:02:08Z</time></trkpt><trkpt lat="43.65368343083194" lon="12.484155910500386"><ele>402.59999999999997</ele><time>2026-04-25T10:02:09Z</time></trkpt><trkpt lat="43.653715573225284" lon="12.484033890485263"><ele>404.4</ele><time>2026-04-25T10:02:10Z</time></trkpt><trkpt lat="43.65374114369693" lon="12.483902697451335"><ele>406.2</ele><time>2026-04-25T10:02:11Z</time></trkpt><trkpt lat="43.65374896650677" lon="12.483796543486891"><ele>408.0</ele><time>2026-04-25T10:02:12Z</time></trkpt><trkpt lat="43.65374974901126" lon="12.483702287502387"><ele>408.0</ele><time>2026-04-25T10:02:13Z</time></trkpt><trkpt lat="43.6537607325567" lon="12.483575303559084"><ele>408.0</ele><time>2026-04-25T10:02:15Z</time></trkpt><trkpt lat="43.65386686286419" lon="12.483525657918706"><ele>408.0</ele><time>2026-04-25T10:02:17Z</time></trkpt><trkpt lat="43.65393423443104" lon="12.48352802927324"><ele>408.0</ele><time>2026-04-25T10:02:18Z</time></trkpt><trkpt lat="43.65399622934712" lon="12.483544977958639"><ele>408.0</ele><time>2026-04-25T10:02:19Z</time></trkpt><trkpt lat="43.65406992156243" lon="12.48357533421935"><ele>408.0</ele><time>2026-04-25T10:02:20Z</time></trkpt><trkpt lat="43.65414236928264" lon="12.483628122807232"><ele>408.0</ele><time>2026-04-25T10:02:21Z</time></trkpt><trkpt lat="43.65421040931603" lon="12.483641863818667"><ele>408.0</ele><time>2026-04-25T10:02:22Z</time></trkpt><trkpt lat="43.654279489366466" lon="12.483676800845057"><ele>408.0</ele><time>2026-04-25T10:02:24Z</time></trkpt><trkpt lat="43.65429627869707" lon="12.483579735206105"><ele>408.0</ele><time>2026-04-25T10:08:38Z</time></trkpt><trkpt lat="43.65420658566667" lon="12.483517404547563"><ele>408.0</ele><time>2026-04-25T10:08:42Z</time></trkpt><trkpt lat="43.654107019282854" lon="12.483441418835424"><ele>408.0</ele><time>2026-04-25T10:08:44Z</time></trkpt><trkpt lat="43.65405007737285" lon="12.483399292276108"><ele>408.0</ele><time>2026-04-25T10:08:45Z</time></trkpt><trkpt lat="43.65398699064245" lon="12.48335862469405"><ele>408.0</ele><time>2026-04-25T10:08:46Z</time></trkpt><trkpt lat="43.65392817224783" lon="12.483319761167614"><ele>408.0</ele><time>2026-04-25T10:08:47Z</time></trkpt><trkpt lat="43.65381014240444" lon="12.48323277805093"><ele>408.0</ele><time>2026-04-25T10:08:49Z</time></trkpt><trkpt lat="43.6537436978387" lon="12.483178087289168"><ele>408.0</ele><time>2026-04-25T10:08:50Z</time></trkpt><trkpt lat="43.653671639423" lon="12.483122745254454"><ele>408.0</ele><time>2026-04-25T10:08:51Z</time></trkpt><trkpt lat="43.65359878666378" lon="12.483066700345292"><ele>410.0</ele><time>2026-04-25T10:08:52Z</time></trkpt><trkpt lat="43.653525944723775" lon="12.483012080785713"><ele>412.0</ele><time>2026-04-25T10:08:53Z</time></trkpt><trkpt lat="43.653450914751325" lon="12.482959954660979"><ele>414.0</ele><time>2026-04-25T10:08:54Z</time></trkpt><trkpt lat="43.65337892613479" lon="12.482911852734299"><ele>416.0</ele><time>2026-04-25T10:08:55Z</time></trkpt><trkpt lat="43.6532962305972" lon="12.482865633070176"><ele>418.0</ele><time>2026-04-25T10:08:56Z</time></trkpt><trkpt lat="43.65319047347429" lon="12.482823350277286"><ele>420.0</ele><time>2026-04-25T10:08:57Z</time></trkpt><trkpt lat="43.65306556566913" lon="12.482781754181634"><ele>420.0</ele><time>2026-04-25T10:08:58Z</time></trkpt><trkpt lat="43.65292817568146" lon="12.482750429083929"><ele>420.0</ele><time>2026-04-25T10:08:59Z</time></trkpt><trkpt lat="43.65278089335125" lon="12.482721320098843"><ele>420.0</ele><time>2026-04-25T10:09:00Z</time></trkpt><trkpt lat="43.65262997312701" lon="12.482685894954821"><ele>420.0</ele><time>2026-04-25T10:09:01Z</time></trkpt><trkpt lat="43.652494048451786" lon="12.482656450305656"><ele>418.25</ele><time>2026-04-25T10:09:02Z</time></trkpt><trkpt lat="43.65236524355855" lon="12.482625909957775"><ele>416.5</ele><time>2026-04-25T10:09:03Z</time></trkpt><trkpt lat="43.65223655613869" lon="12.48257948964431"><ele>414.75</ele><time>2026-04-25T10:09:04Z</time></trkpt><trkpt lat="43.65211437761181" lon="12.482510579826688"><ele>413.0</ele><time>2026-04-25T10:09:05Z</time></trkpt><trkpt lat="43.651996328508616" lon="12.482433021212213"><ele>411.0</ele><time>2026-04-25T10:09:06Z</time></trkpt><trkpt lat="43.6518824091532" lon="12.482362355113352"><ele>409.0</ele><time>2026-04-25T10:09:07Z</time></trkpt><trkpt lat="43.651767482158036" lon="12.482296023785755"><ele>407.0</ele><time>2026-04-25T10:09:08Z</time></trkpt><trkpt lat="43.65164996088239" lon="12.482242587581625"><ele>405.0</ele><time>2026-04-25T10:09:09Z</time></trkpt><trkpt lat="43.651523111885695" lon="12.482219154302689"><ele>405.0</ele><time>2026-04-25T10:09:10Z</time></trkpt><trkpt lat="43.651392026997165" lon="12.482226735814885"><ele>405.0</ele><time>2026-04-25T10:09:11Z</time></trkpt><trkpt lat="43.65125798662064" lon="12.482277294617859"><ele>405.0</ele><time>2026-04-25T10:09:12Z</time></trkpt><trkpt lat="43.65112560897104" lon="12.482358516444929"><ele>405.0</ele><time>2026-04-25T10:09:13Z</time></trkpt><trkpt lat="43.650988651027056" lon="12.482461495722319"><ele>405.75</ele><time>2026-04-25T10:09:14Z</time></trkpt><trkpt lat="43.65084284805167" lon="12.48255650338488"><ele>406.5</ele><time>2026-04-25T10:09:15Z</time></trkpt><trkpt lat="43.65070587918789" lon="12.48263018256512"><ele>407.25</ele><time>2026-04-25T10:09:16Z</time></trkpt><trkpt lat="43.650570315732004" lon="12.482685440466906"><ele>408.0</ele><time>2026-04-25T10:09:17Z</time></trkpt><trkpt lat="43.65042860696375" lon="12.482700503252474"><ele>408.0</ele><time>2026-04-25T10:09:18Z</time></trkpt><trkpt lat="43.65028189531019" lon="12.482721052439137"><ele>408.0</ele><time>2026-04-25T10:09:19Z</time></trkpt><trkpt lat="43.65012962548066" lon="12.482745017370622"><ele>408.0</ele><time>2026-04-25T10:09:20Z</time></trkpt><trkpt lat="43.64997290357319" lon="12.482727269208375"><ele>408.0</ele><time>2026-04-25T10:09:21Z</time></trkpt><trkpt lat="43.64981333565386" lon="12.482672444830081"><ele>408.0</ele><time>2026-04-25T10:09:22Z</time></trkpt><trkpt lat="43.64965420228802" lon="12.48261802941642"><ele>408.0</ele><time>2026-04-25T10:09:23Z</time></trkpt><trkpt lat="43.64950125352899" lon="12.482533009003644"><ele>407.33333333333337</ele><time>2026-04-25T10:09:24Z</time></trkpt><trkpt lat="43.64934797174653" lon="12.482434395781413"><ele>406.6666666666667</ele><time>2026-04-25T10:09:25Z</time></trkpt><trkpt lat="43.64919571963266" lon="12.482331202265447"><ele>406.0</ele><time>2026-04-25T10:09:26Z</time></trkpt><trkpt lat="43.649057911954415" lon="12.482197427546145"><ele>410.33333333333337</ele><time>2026-04-25T10:09:27Z</time></trkpt><trkpt lat="43.64891579207034" lon="12.482050367309734"><ele>414.66666666666663</ele><time>2026-04-25T10:09:28Z</time></trkpt><trkpt lat="43.64876242656871" lon="12.481921938360536"><ele>419.0</ele><time>2026-04-25T10:09:29Z</time></trkpt><trkpt lat="43.648615512643175" lon="12.4817662763603"><ele>419.0</ele><time>2026-04-25T10:09:30Z</time></trkpt><trkpt lat="43.64846489501955" lon="12.481609079399536"><ele>419.0</ele><time>2026-04-25T10:09:31Z</time></trkpt><trkpt lat="43.648311351938744" lon="12.48145661527263"><ele>419.0</ele><time>2026-04-25T10:09:32Z</time></trkpt><trkpt lat="43.6481562802888" lon="12.481296765701599"><ele>419.66666666666663</ele><time>2026-04-25T10:09:33Z</time></trkpt><trkpt lat="43.64800244731394" lon="12.481146970251718"><ele>420.33333333333337</ele><time>2026-04-25T10:09:34Z</time></trkpt><trkpt lat="43.64784459690587" lon="12.481001874071966"><ele>421.0</ele><time>2026-04-25T10:09:35Z</time></trkpt><trkpt lat="43.64768470978583" lon="12.480872101421332"><ele>421.0</ele><time>2026-04-25T10:09:36Z</time></trkpt><trkpt lat="43.647519353559595" lon="12.480752833717608"><ele>421.0</ele><time>2026-04-25T10:09:37Z</time></trkpt><trkpt lat="43.64735219060939" lon="12.480640070091141"><ele>421.0</ele><time>2026-04-25T10:09:38Z</time></trkpt><trkpt lat="43.64718320398967" lon="12.4805322140812"><ele>425.33333333333337</ele><time>2026-04-25T10:09:39Z</time></trkpt><trkpt lat="43.647005595428716" lon="12.480422674871672"><ele>429.66666666666663</ele><time>2026-04-25T10:09:40Z</time></trkpt><trkpt lat="43.64682119838578" lon="12.480307342019564"><ele>434.0</ele><time>2026-04-25T10:09:41Z</time></trkpt><trkpt lat="43.64663121706371" lon="12.480187960298748"><ele>434.0</ele><time>2026-04-25T10:09:42Z</time></trkpt><trkpt lat="43.64644981976363" lon="12.480069252383876"><ele>434.0</ele><time>2026-04-25T10:09:43Z</time></trkpt><trkpt lat="43.646290610479475" lon="12.479962457398763"><ele>434.0</ele><time>2026-04-25T10:09:44Z</time></trkpt><trkpt lat="43.64614554154809" lon="12.479872327620884"><ele>432.25</ele><time>2026-04-25T10:09:45Z</time></trkpt><trkpt lat="43.646021224516005" lon="12.47979471845594"><ele>430.5</ele><time>2026-04-25T10:09:46Z</time></trkpt><trkpt lat="43.64590882659357" lon="12.479743516052725"><ele>428.75</ele><time>2026-04-25T10:09:47Z</time></trkpt><trkpt lat="43.64579453400218" lon="12.479716187022904"><ele>427.0</ele><time>2026-04-25T10:09:48Z</time></trkpt><trkpt lat="43.64565784447863" lon="12.479724845795834"><ele>427.0</ele><time>2026-04-25T10:09:49Z</time></trkpt><trkpt lat="43.64550489599994" lon="12.47975749680629"><ele>427.0</ele><time>2026-04-25T10:09:50Z</time></trkpt><trkpt lat="43.64535923727736" lon="12.479781656950411"><ele>427.0</ele><time>2026-04-25T10:09:51Z</time></trkpt><trkpt lat="43.645220262410724" lon="12.479771637563887"><ele>427.0</ele><time>2026-04-25T10:09:52Z</time></trkpt><trkpt lat="43.64506905007803" lon="12.47973025824526"><ele>429.6666666666667</ele><time>2026-04-25T10:09:53Z</time></trkpt><trkpt lat="43.64490656877305" lon="12.479653885188348"><ele>432.33333333333337</ele><time>2026-04-25T10:09:54Z</time></trkpt><trkpt lat="43.64473799606001" lon="12.47955020135213"><ele>435.0</ele><time>2026-04-25T10:09:55Z</time></trkpt><trkpt lat="43.644563786721825" lon="12.47944723985082"><ele>434.33333333333337</ele><time>2026-04-25T10:09:56Z</time></trkpt><trkpt lat="43.6443923327916" lon="12.479352965180977"><ele>433.6666666666667</ele><time>2026-04-25T10:09:57Z</time></trkpt><trkpt lat="43.6442243540355" lon="12.479252075704313"><ele>433.0</ele><time>2026-04-25T10:09:58Z</time></trkpt><trkpt lat="43.64405437581462" lon="12.479140866834067"><ele>433.0</ele><time>2026-04-25T10:09:59Z</time></trkpt><trkpt lat="43.64389920642792" lon="12.479003351592517"><ele>433.0</ele><time>2026-04-25T10:10:00Z</time></trkpt><trkpt lat="43.64375293183827" lon="12.478866263573192"><ele>433.0</ele><time>2026-04-25T10:10:01Z</time></trkpt><trkpt lat="43.64362052286372" lon="12.47870068820564"><ele>436.0</ele><time>2026-04-25T10:10:02Z</time></trkpt><trkpt lat="43.64349267845583" lon="12.478528406507847"><ele>439.0</ele><time>2026-04-25T10:10:03Z</time></trkpt><trkpt lat="43.64337040027049" lon="12.47834702004741"><ele>442.0</ele><time>2026-04-25T10:10:04Z</time></trkpt><trkpt lat="43.64324584496957" lon="12.478167365038974"><ele>442.0</ele><time>2026-04-25T10:10:05Z</time></trkpt><trkpt lat="43.643123034467926" lon="12.477984185194353"><ele>442.0</ele><time>2026-04-25T10:10:06Z</time></trkpt><trkpt lat="43.64300201465168" lon="12.47778883131833"><ele>442.0</ele><time>2026-04-25T10:10:07Z</time></trkpt><trkpt lat="43.64288776625987" lon="12.477583955416822"><ele>444.6666666666667</ele><time>2026-04-25T10:10:08Z</time></trkpt><trkpt lat="43.64277949345453" lon="12.477374677266932"><ele>447.33333333333337</ele><time>2026-04-25T10:10:09Z</time></trkpt><trkpt lat="43.642684304615756" lon="12.477176217545724"><ele>450.0</ele><time>2026-04-25T10:10:10Z</time></trkpt><trkpt lat="43.642601093571315" lon="12.477008365457177"><ele>450.0</ele><time>2026-04-25T10:10:11Z</time></trkpt><trkpt lat="43.64252383591181" lon="12.476862479527776"><ele>450.0</ele><time>2026-04-25T10:10:12Z</time></trkpt><trkpt lat="43.64244995128392" lon="12.476736708995979"><ele>450.0</ele><time>2026-04-25T10:10:13Z</time></trkpt><trkpt lat="43.64237581624819" lon="12.476622430908792"><ele>450.0</ele><time>2026-04-25T10:10:14Z</time></trkpt><trkpt lat="43.64228915114232" lon="12.476509551990354"><ele>450.0</ele><time>2026-04-25T10:10:15Z</time></trkpt><trkpt lat="43.642194660565536" lon="12.476392348672055"><ele>450.0</ele><time>2026-04-25T10:10:16Z</time></trkpt><trkpt lat="43.64209400410747" lon="12.4762753787951"><ele>450.0</ele><time>2026-04-25T10:10:17Z</time></trkpt><trkpt lat="43.64199594362099" lon="12.476149238844759"><ele>450.0</ele><time>2026-04-25T10:10:18Z</time></trkpt><trkpt lat="43.64190209339659" lon="12.476005652367087"><ele>450.25</ele><time>2026-04-25T10:10:19Z</time></trkpt><trkpt lat="43.64180939712522" lon="12.47585256297645"><ele>450.5</ele><time>2026-04-25T10:10:20Z</time></trkpt><trkpt lat="43.64172337373443" lon="12.475691041598031"><ele>450.75</ele><time>2026-04-25T10:10:21Z</time></trkpt><trkpt lat="43.64164011595775" lon="12.475528804252809"><ele>451.0</ele><time>2026-04-25T10:10:22Z</time></trkpt><trkpt lat="43.64155748157924" lon="12.47536236839195"><ele>451.0</ele><time>2026-04-25T10:10:23Z</time></trkpt><trkpt lat="43.64147702131218" lon="12.475185872001788"><ele>451.0</ele><time>2026-04-25T10:10:24Z</time></trkpt><trkpt lat="43.64139780840834" lon="12.475009606463509"><ele>451.0</ele><time>2026-04-25T10:10:25Z</time></trkpt><trkpt lat="43.6413160394642" lon="12.47483827198338"><ele>451.0</ele><time>2026-04-25T10:10:26Z</time></trkpt><trkpt lat="43.641228857454465" lon="12.474672036887771"><ele>451.0</ele><time>2026-04-25T10:10:27Z</time></trkpt><trkpt lat="43.64113672412047" lon="12.474512745605306"><ele>451.0</ele><time>2026-04-25T10:10:28Z</time></trkpt><trkpt lat="43.641036087015706" lon="12.474371285175835"><ele>451.0</ele><time>2026-04-25T10:10:29Z</time></trkpt><trkpt lat="43.640931576612054" lon="12.474236131504199"><ele>451.4</ele><time>2026-04-25T10:10:30Z</time></trkpt><trkpt lat="43.64082683203037" lon="12.474107187316223"><ele>451.8</ele><time>2026-04-25T10:10:31Z</time></trkpt><trkpt lat="43.640737539093365" lon="12.473997101234827"><ele>452.19999999999993</ele><time>2026-04-25T10:10:32Z</time></trkpt><trkpt lat="43.640658762026604" lon="12.473903919148537"><ele>452.59999999999997</ele><time>2026-04-25T10:10:33Z</time></trkpt><trkpt lat="43.640591733033254" lon="12.473830200662444"><ele>453.0</ele><time>2026-04-25T10:10:34Z</time></trkpt><trkpt lat="43.64053440426961" lon="12.47376230177202"><ele>453.0</ele><time>2026-04-25T10:10:35Z</time></trkpt><trkpt lat="43.64048638063309" lon="12.473700004198434"><ele>452.99999999999994</ele><time>2026-04-25T10:10:36Z</time></trkpt><trkpt lat="43.64039592719111" lon="12.47360013288213"><ele>452.99999999999994</ele><time>2026-04-25T10:10:38Z</time></trkpt><trkpt lat="43.64032476339947" lon="12.473492868283575"><ele>453.0</ele><time>2026-04-25T10:10:40Z</time></trkpt><trkpt lat="43.64024953927876" lon="12.473404375699294"><ele>453.0</ele><time>2026-04-25T10:10:42Z</time></trkpt><trkpt lat="43.6402004358201" lon="12.473336360709013"><ele>454.1666666666667</ele><time>2026-04-25T10:10:43Z</time></trkpt><trkpt lat="43.64014045635912" lon="12.473256759693376"><ele>455.33333333333337</ele><time>2026-04-25T10:10:44Z</time></trkpt><trkpt lat="43.640078200475834" lon="12.473167867805047"><ele>456.5</ele><time>2026-04-25T10:10:45Z</time></trkpt><trkpt lat="43.64001282391917" lon="12.473091572747197"><ele>457.6666666666667</ele><time>2026-04-25T10:10:46Z</time></trkpt><trkpt lat="43.63995145781802" lon="12.47302892032544"><ele>458.83333333333337</ele><time>2026-04-25T10:10:47Z</time></trkpt><trkpt lat="43.63985165142" lon="12.472950127480228"><ele>460.0</ele><time>2026-04-25T10:10:49Z</time></trkpt><trkpt lat="43.63973711709948" lon="12.47293029763509"><ele>460.0</ele><time>2026-04-25T10:10:51Z</time></trkpt><trkpt lat="43.63962105391107" lon="12.472910929506257"><ele>460.0</ele><time>2026-04-25T10:10:53Z</time></trkpt><trkpt lat="43.63949154639385" lon="12.472898912479726"><ele>460.0</ele><time>2026-04-25T10:10:55Z</time></trkpt><trkpt lat="43.63940360125804" lon="12.472895551302209"><ele>460.0</ele><time>2026-04-25T10:10:56Z</time></trkpt><trkpt lat="43.63931075341562" lon="12.4728912677037"><ele>460.0</ele><time>2026-04-25T10:10:57Z</time></trkpt><trkpt lat="43.63921150612668" lon="12.472879097021307"><ele>462.0</ele><time>2026-04-25T10:10:58Z</time></trkpt><trkpt lat="43.63910660939946" lon="12.472866968864498"><ele>464.0</ele><time>2026-04-25T10:10:59Z</time></trkpt><trkpt lat="43.63900670001701" lon="12.472855841991402"><ele>466.0</ele><time>2026-04-25T10:11:00Z</time></trkpt><trkpt lat="43.63891153780246" lon="12.472852681296944"><ele>468.0</ele><time>2026-04-25T10:11:01Z</time></trkpt><trkpt lat="43.63882934876153" lon="12.472842214650884"><ele>470.0</ele><time>2026-04-25T10:11:02Z</time></trkpt><trkpt lat="43.6387450399971" lon="12.472818591388094"><ele>470.0</ele><time>2026-04-25T10:11:03Z</time></trkpt><trkpt lat="43.63865716915183" lon="12.472765493383491"><ele>470.0</ele><time>2026-04-25T10:11:04Z</time></trkpt><trkpt lat="43.638571507658256" lon="12.472682953744902"><ele>470.0</ele><time>2026-04-25T10:11:05Z</time></trkpt><trkpt lat="43.6384889180656" lon="12.472562825626813"><ele>470.0</ele><time>2026-04-25T10:11:06Z</time></trkpt><trkpt lat="43.638407079177355" lon="12.472422841453792"><ele>472.0</ele><time>2026-04-25T10:11:07Z</time></trkpt><trkpt lat="43.6383171096917" lon="12.472279283469371"><ele>474.0</ele><time>2026-04-25T10:11:08Z</time></trkpt><trkpt lat="43.63823059578724" lon="12.472152745557368"><ele>476.0</ele><time>2026-04-25T10:11:09Z</time></trkpt><trkpt lat="43.638145545342844" lon="12.4720437509952"><ele>478.0</ele><time>2026-04-25T10:11:10Z</time></trkpt><trkpt lat="43.638049846697996" lon="12.471944862203838"><ele>478.0</ele><time>2026-04-25T10:11:11Z</time></trkpt><trkpt lat="43.63794452818229" lon="12.471860729395475"><ele>478.0</ele><time>2026-04-25T10:11:12Z</time></trkpt><trkpt lat="43.63782562281639" lon="12.47177926931051"><ele>478.0</ele><time>2026-04-25T10:11:13Z</time></trkpt><trkpt lat="43.63769581068637" lon="12.471708809388971"><ele>478.0</ele><time>2026-04-25T10:11:14Z</time></trkpt><trkpt lat="43.637563095810755" lon="12.47164121156744"><ele>482.25</ele><time>2026-04-25T10:11:15Z</time></trkpt><trkpt lat="43.637417820738314" lon="12.471561600392997"><ele>486.5</ele><time>2026-04-25T10:11:16Z</time></trkpt><trkpt lat="43.63727522054648" lon="12.47148700907358"><ele>490.75</ele><time>2026-04-25T10:11:17Z</time></trkpt><trkpt lat="43.63715359045582" lon="12.471426294369856"><ele>495.0</ele><time>2026-04-25T10:11:18Z</time></trkpt><trkpt lat="43.63705075516552" lon="12.471362469069168"><ele>499.0</ele><time>2026-04-25T10:11:19Z</time></trkpt><trkpt lat="43.63696692860355" lon="12.471267651888068"><ele>503.0</ele><time>2026-04-25T10:11:20Z</time></trkpt><trkpt lat="43.63689790191841" lon="12.471135865610787"><ele>507.0</ele><time>2026-04-25T10:11:21Z</time></trkpt><trkpt lat="43.63685095303558" lon="12.470966548763604"><ele>511.0</ele><time>2026-04-25T10:11:22Z</time></trkpt><trkpt lat="43.63682391183064" lon="12.470775889257878"><ele>511.0</ele><time>2026-04-25T10:11:23Z</time></trkpt><trkpt lat="43.63681101894358" lon="12.470571619029178"><ele>511.0</ele><time>2026-04-25T10:11:24Z</time></trkpt><trkpt lat="43.636810546950755" lon="12.470385654636063"><ele>511.0</ele><time>2026-04-25T10:11:25Z</time></trkpt><trkpt lat="43.63679975786299" lon="12.47021923764034"><ele>511.0</ele><time>2026-04-25T10:11:26Z</time></trkpt><trkpt lat="43.63675832122874" lon="12.470083229393405"><ele>508.8</ele><time>2026-04-25T10:11:27Z</time></trkpt><trkpt lat="43.63668786175411" lon="12.469983768741463"><ele>506.6</ele><time>2026-04-25T10:11:28Z</time></trkpt><trkpt lat="43.63659883480614" lon="12.469926643110744"><ele>504.4</ele><time>2026-04-25T10:11:29Z</time></trkpt><trkpt lat="43.63649260113648" lon="12.469916734440869"><ele>502.2</ele><time>2026-04-25T10:11:30Z</time></trkpt><trkpt lat="43.636382278719964" lon="12.469960388170971"><ele>500.0</ele><time>2026-04-25T10:11:31Z</time></trkpt><trkpt lat="43.63627265982299" lon="12.470057882681845"><ele>500.0</ele><time>2026-04-25T10:11:32Z</time></trkpt><trkpt lat="43.63616375076639" lon="12.47018415899059"><ele>500.0</ele><time>2026-04-25T10:11:33Z</time></trkpt><trkpt lat="43.63604375273961" lon="12.47031730047323"><ele>500.0</ele><time>2026-04-25T10:11:34Z</time></trkpt><trkpt lat="43.6359507116029" lon="12.470438064998987"><ele>500.0</ele><time>2026-04-25T10:11:35Z</time></trkpt><trkpt lat="43.635868073064124" lon="12.470537125913028"><ele>502.2</ele><time>2026-04-25T10:11:36Z</time></trkpt><trkpt lat="43.6357783496802" lon="12.470522818453762"><ele>504.4</ele><time>2026-04-25T10:11:37Z</time></trkpt><trkpt lat="43.635688799871424" lon="12.470496909374141"><ele>506.6</ele><time>2026-04-25T10:11:38Z</time></trkpt><trkpt lat="43.635593172019355" lon="12.470454816358853"><ele>508.8</ele><time>2026-04-25T10:11:39Z</time></trkpt><trkpt lat="43.635478375963146" lon="12.470399447705606"><ele>511.0</ele><time>2026-04-25T10:11:40Z</time></trkpt><trkpt lat="43.63535048419222" lon="12.470357767621065"><ele>511.6</ele><time>2026-04-25T10:11:41Z</time></trkpt><trkpt lat="43.63523010063173" lon="12.47030049657604"><ele>512.2</ele><time>2026-04-25T10:11:42Z</time></trkpt><trkpt lat="43.63512124943651" lon="12.47027690029973"><ele>512.8</ele><time>2026-04-25T10:11:43Z</time></trkpt><trkpt lat="43.63502718383487" lon="12.47028312516423"><ele>513.4</ele><time>2026-04-25T10:11:44Z</time></trkpt><trkpt lat="43.63493281933246" lon="12.470342247508354"><ele>514.0</ele><time>2026-04-25T10:11:45Z</time></trkpt><trkpt lat="43.63484289373552" lon="12.470454257401139"><ele>516.25</ele><time>2026-04-25T10:11:46Z</time></trkpt><trkpt lat="43.63476026180263" lon="12.470584625603147"><ele>518.5</ele><time>2026-04-25T10:11:47Z</time></trkpt><trkpt lat="43.63466961162135" lon="12.470721232496683"><ele>520.75</ele><time>2026-04-25T10:11:48Z</time></trkpt><trkpt lat="43.634578133289" lon="12.470855144264862"><ele>523.0</ele><time>2026-04-25T10:11:49Z</time></trkpt><trkpt lat="43.6344826099426" lon="12.470992705591442"><ele>522.25</ele><time>2026-04-25T10:11:50Z</time></trkpt><trkpt lat="43.63437022754443" lon="12.471108611859721"><ele>521.5</ele><time>2026-04-25T10:11:51Z</time></trkpt><trkpt lat="43.63426209690647" lon="12.47122081397276"><ele>520.75</ele><time>2026-04-25T10:11:52Z</time></trkpt><trkpt lat="43.634149957393085" lon="12.471309482937311"><ele>520.0</ele><time>2026-04-25T10:11:53Z</time></trkpt><trkpt lat="43.63402973448307" lon="12.471374514872807"><ele>523.5</ele><time>2026-04-25T10:11:54Z</time></trkpt><trkpt lat="43.63390174915769" lon="12.471422445461412"><ele>527.0</ele><time>2026-04-25T10:11:55Z</time></trkpt><trkpt lat="43.63377324726993" lon="12.471462578552297"><ele>530.5</ele><time>2026-04-25T10:11:56Z</time></trkpt><trkpt lat="43.63364493141786" lon="12.471475475342297"><ele>534.0</ele><time>2026-04-25T10:11:57Z</time></trkpt><trkpt lat="43.633522484252154" lon="12.471489933720612"><ele>534.0</ele><time>2026-04-25T10:11:58Z</time></trkpt><trkpt lat="43.633411225425334" lon="12.471535508599837"><ele>534.0</ele><time>2026-04-25T10:11:59Z</time></trkpt><trkpt lat="43.63330009611547" lon="12.471604609900282"><ele>534.0</ele><time>2026-04-25T10:12:00Z</time></trkpt><trkpt lat="43.63320355752562" lon="12.471712498259754"><ele>534.0</ele><time>2026-04-25T10:12:01Z</time></trkpt><trkpt lat="43.63312296889433" lon="12.47184534661834"><ele>534.0</ele><time>2026-04-25T10:12:02Z</time></trkpt><trkpt lat="43.63305086844473" lon="12.47198525139118"><ele>534.0</ele><time>2026-04-25T10:12:03Z</time></trkpt><trkpt lat="43.63298409856475" lon="12.472099871769487"><ele>534.0</ele><time>2026-04-25T10:12:04Z</time></trkpt><trkpt lat="43.63290352287024" lon="12.472175536177847"><ele>534.0</ele><time>2026-04-25T10:12:05Z</time></trkpt><trkpt lat="43.63281288562012" lon="12.47221735787462"><ele>534.0</ele><time>2026-04-25T10:12:06Z</time></trkpt><trkpt lat="43.63271940637984" lon="12.47216871572887"><ele>533.6</ele><time>2026-04-25T10:12:07Z</time></trkpt><trkpt lat="43.63263422450972" lon="12.472084553993984"><ele>533.2</ele><time>2026-04-25T10:12:08Z</time></trkpt><trkpt lat="43.63253635416768" lon="12.471992011510576"><ele>532.8000000000001</ele><time>2026-04-25T10:12:09Z</time></trkpt><trkpt lat="43.63243758870575" lon="12.471894744296527"><ele>532.4</ele><time>2026-04-25T10:12:10Z</time></trkpt><trkpt lat="43.632361262881865" lon="12.471796591137613"><ele>532.0</ele><time>2026-04-25T10:12:11Z</time></trkpt><trkpt lat="43.632277879735994" lon="12.471731503815862"><ele>532.0</ele><time>2026-04-25T10:12:12Z</time></trkpt><trkpt lat="43.632179230815716" lon="12.471728782045925"><ele>532.0</ele><time>2026-04-25T10:12:13Z</time></trkpt><trkpt lat="43.6320880838128" lon="12.471785657282972"><ele>532.0</ele><time>2026-04-25T10:12:14Z</time></trkpt><trkpt lat="43.632012963234516" lon="12.47188608313084"><ele>532.0</ele><time>2026-04-25T10:12:15Z</time></trkpt><trkpt lat="43.631950844632954" lon="12.472025504531521"><ele>532.0</ele><time>2026-04-25T10:12:16Z</time></trkpt><trkpt lat="43.63189533377708" lon="12.472184581967152"><ele>532.5</ele><time>2026-04-25T10:12:17Z</time></trkpt><trkpt lat="43.631829649591154" lon="12.472342993333898"><ele>533.0</ele><time>2026-04-25T10:12:18Z</time></trkpt><trkpt lat="43.6317569791338" lon="12.472502064575528"><ele>533.5</ele><time>2026-04-25T10:12:19Z</time></trkpt><trkpt lat="43.631682859274" lon="12.472651295771149"><ele>534.0</ele><time>2026-04-25T10:12:20Z</time></trkpt><trkpt lat="43.63160585719635" lon="12.47280556859732"><ele>535.75</ele><time>2026-04-25T10:12:21Z</time></trkpt><trkpt lat="43.63152226653533" lon="12.472957521661106"><ele>537.5</ele><time>2026-04-25T10:12:22Z</time></trkpt><trkpt lat="43.63142059356905" lon="12.473073815978596"><ele>539.25</ele><time>2026-04-25T10:12:23Z</time></trkpt><trkpt lat="43.631321175330704" lon="12.473189186075334"><ele>541.0</ele><time>2026-04-25T10:12:24Z</time></trkpt><trkpt lat="43.631216349273764" lon="12.473303722408417"><ele>540.0</ele><time>2026-04-25T10:12:25Z</time></trkpt><trkpt lat="43.63111703440063" lon="12.473430600208008"><ele>539.0</ele><time>2026-04-25T10:12:26Z</time></trkpt><trkpt lat="43.63100660108222" lon="12.473539861249426"><ele>538.0</ele><time>2026-04-25T10:12:27Z</time></trkpt><trkpt lat="43.63089349000833" lon="12.473654702864707"><ele>537.0</ele><time>2026-04-25T10:12:28Z</time></trkpt><trkpt lat="43.63078188512193" lon="12.473772777155776"><ele>537.0</ele><time>2026-04-25T10:12:29Z</time></trkpt><trkpt lat="43.63067536520763" lon="12.473885382938137"><ele>537.0</ele><time>2026-04-25T10:12:30Z</time></trkpt><trkpt lat="43.630565358730216" lon="12.473968355279226"><ele>537.0</ele><time>2026-04-25T10:12:31Z</time></trkpt><trkpt lat="43.63046772758233" lon="12.47407380844258"><ele>537.0</ele><time>2026-04-25T10:12:32Z</time></trkpt><trkpt lat="43.63038473626251" lon="12.474201424828594"><ele>535.5</ele><time>2026-04-25T10:12:33Z</time></trkpt><trkpt lat="43.630300017076515" lon="12.47432348818775"><ele>534.0</ele><time>2026-04-25T10:12:34Z</time></trkpt><trkpt lat="43.63021666843329" lon="12.474448061526601"><ele>532.5</ele><time>2026-04-25T10:12:35Z</time></trkpt><trkpt lat="43.63013979215545" lon="12.474572654895287"><ele>531.0</ele><time>2026-04-25T10:12:36Z</time></trkpt><trkpt lat="43.63006765050147" lon="12.474687740512858"><ele>531.0</ele><time>2026-04-25T10:12:37Z</time></trkpt><trkpt lat="43.62997748368825" lon="12.474772112398522"><ele>531.0</ele><time>2026-04-25T10:12:38Z</time></trkpt><trkpt lat="43.62989081695217" lon="12.47485345174402"><ele>531.0</ele><time>2026-04-25T10:12:39Z</time></trkpt><trkpt lat="43.62978221002041" lon="12.474825918355572"><ele>531.0</ele><time>2026-04-25T10:12:40Z</time></trkpt><trkpt lat="43.629682547517824" lon="12.474806545645029"><ele>531.0</ele><time>2026-04-25T10:12:41Z</time></trkpt><trkpt lat="43.6295636992799" lon="12.474804064933656"><ele>528.25</ele><time>2026-04-25T10:12:42Z</time></trkpt><trkpt lat="43.62944104946884" lon="12.47476536414728"><ele>525.5</ele><time>2026-04-25T10:12:43Z</time></trkpt><trkpt lat="43.6293242511632" lon="12.474733791162874"><ele>522.75</ele><time>2026-04-25T10:12:44Z</time></trkpt><trkpt lat="43.62921368773173" lon="12.47471300171962"><ele>520.0</ele><time>2026-04-25T10:12:45Z</time></trkpt><trkpt lat="43.62910759663297" lon="12.4747002072322"><ele>520.0</ele><time>2026-04-25T10:12:46Z</time></trkpt><trkpt lat="43.629002422961705" lon="12.474689778991092"><ele>520.0</ele><time>2026-04-25T10:12:47Z</time></trkpt><trkpt lat="43.62890068384323" lon="12.47469207987993"><ele>520.0</ele><time>2026-04-25T10:12:48Z</time></trkpt><trkpt lat="43.628810154890814" lon="12.474735165296783"><ele>520.0</ele><time>2026-04-25T10:12:49Z</time></trkpt><trkpt lat="43.62872880861936" lon="12.474823401160629"><ele>520.0</ele><time>2026-04-25T10:12:50Z</time></trkpt><trkpt lat="43.62865622962058" lon="12.474955236476427"><ele>519.25</ele><time>2026-04-25T10:12:51Z</time></trkpt><trkpt lat="43.6285912546128" lon="12.475101235690659"><ele>518.5</ele><time>2026-04-25T10:12:52Z</time></trkpt><trkpt lat="43.628524600285445" lon="12.475253458384532"><ele>517.75</ele><time>2026-04-25T10:12:53Z</time></trkpt><trkpt lat="43.62845344492853" lon="12.475382136445955"><ele>517.0</ele><time>2026-04-25T10:12:54Z</time></trkpt><trkpt lat="43.62836931283983" lon="12.475474669594298"><ele>517.0</ele><time>2026-04-25T10:12:55Z</time></trkpt><trkpt lat="43.6282602420763" lon="12.475517715835068"><ele>517.0</ele><time>2026-04-25T10:12:56Z</time></trkpt><trkpt lat="43.628147055766966" lon="12.475562556736936"><ele>517.0</ele><time>2026-04-25T10:12:57Z</time></trkpt><trkpt lat="43.628030527472184" lon="12.47562629296019"><ele>517.0</ele><time>2026-04-25T10:12:58Z</time></trkpt><trkpt lat="43.62790124038381" lon="12.475666793063727"><ele>514.0</ele><time>2026-04-25T10:12:59Z</time></trkpt><trkpt lat="43.62777181301685" lon="12.475711775469307"><ele>511.0</ele><time>2026-04-25T10:13:00Z</time></trkpt><trkpt lat="43.62763925324857" lon="12.475765685070497"><ele>508.0</ele><time>2026-04-25T10:13:01Z</time></trkpt><trkpt lat="43.62750541328624" lon="12.475819643695186"><ele>505.0</ele><time>2026-04-25T10:13:02Z</time></trkpt><trkpt lat="43.6273683195779" lon="12.475868194895499"><ele>505.0</ele><time>2026-04-25T10:13:03Z</time></trkpt><trkpt lat="43.6272286876651" lon="12.475911823433359"><ele>505.0</ele><time>2026-04-25T10:13:04Z</time></trkpt><trkpt lat="43.62709409666688" lon="12.475960421176504"><ele>505.0</ele><time>2026-04-25T10:13:05Z</time></trkpt><trkpt lat="43.62697103104424" lon="12.476005040318409"><ele>505.0</ele><time>2026-04-25T10:13:06Z</time></trkpt><trkpt lat="43.626853532541666" lon="12.4760522077666"><ele>503.4</ele><time>2026-04-25T10:13:07Z</time></trkpt><trkpt lat="43.626746044787474" lon="12.476093283985488"><ele>501.8</ele><time>2026-04-25T10:13:08Z</time></trkpt><trkpt lat="43.62664609249793" lon="12.47613255572965"><ele>500.20000000000005</ele><time>2026-04-25T10:13:09Z</time></trkpt><trkpt lat="43.626552078998" lon="12.47616472255943"><ele>498.6</ele><time>2026-04-25T10:13:10Z</time></trkpt><trkpt lat="43.62646537444133" lon="12.476180323824847"><ele>497.0</ele><time>2026-04-25T10:13:11Z</time></trkpt><trkpt lat="43.62637463143203" lon="12.476167962011713"><ele>497.0</ele><time>2026-04-25T10:13:12Z</time></trkpt><trkpt lat="43.62628697012309" lon="12.47612081300132"><ele>497.0</ele><time>2026-04-25T10:13:13Z</time></trkpt><trkpt lat="43.62619843353382" lon="12.47602946746352"><ele>497.0</ele><time>2026-04-25T10:13:14Z</time></trkpt><trkpt lat="43.626146566010014" lon="12.475870305573412"><ele>497.0</ele><time>2026-04-25T10:13:15Z</time></trkpt><trkpt lat="43.62607117162876" lon="12.475729999326356"><ele>494.0</ele><time>2026-04-25T10:13:16Z</time></trkpt><trkpt lat="43.625997729100376" lon="12.475597302421857"><ele>491.0</ele><time>2026-04-25T10:13:17Z</time></trkpt><trkpt lat="43.62594318726879" lon="12.475450588697946"><ele>488.0</ele><time>2026-04-25T10:13:18Z</time></trkpt><trkpt lat="43.62590980009744" lon="12.475299833858276"><ele>485.0</ele><time>2026-04-25T10:13:19Z</time></trkpt><trkpt lat="43.6259378537762" lon="12.475152687730532"><ele>484.8333333333333</ele><time>2026-04-25T10:13:20Z</time></trkpt><trkpt lat="43.62595174965469" lon="12.475011411469252"><ele>484.66666666666663</ele><time>2026-04-25T10:13:21Z</time></trkpt><trkpt lat="43.625948638505086" lon="12.474896264598192"><ele>484.5</ele><time>2026-04-25T10:13:22Z</time></trkpt><trkpt lat="43.62592871154253" lon="12.474790121372656"><ele>484.33333333333337</ele><time>2026-04-25T10:13:23Z</time></trkpt><trkpt lat="43.62587301817645" lon="12.474712430426553"><ele>484.1666666666667</ele><time>2026-04-25T10:13:24Z</time></trkpt><trkpt lat="43.6257973968988" lon="12.474673073020826"><ele>484.0</ele><time>2026-04-25T10:13:25Z</time></trkpt><trkpt lat="43.62571586762122" lon="12.474686244337402"><ele>484.0</ele><time>2026-04-25T10:13:26Z</time></trkpt><trkpt lat="43.62563490779953" lon="12.474745444858293"><ele>484.0</ele><time>2026-04-25T10:13:27Z</time></trkpt><trkpt lat="43.625565829576324" lon="12.47483570866495"><ele>484.0</ele><time>2026-04-25T10:13:28Z</time></trkpt><trkpt lat="43.625533713564415" lon="12.474961607377706"><ele>484.0</ele><time>2026-04-25T10:13:29Z</time></trkpt><trkpt lat="43.62553577462624" lon="12.475101869095662"><ele>484.0</ele><time>2026-04-25T10:13:30Z</time></trkpt><trkpt lat="43.62556172437524" lon="12.47524788499944"><ele>484.0</ele><time>2026-04-25T10:13:31Z</time></trkpt><trkpt lat="43.6256128777048" lon="12.475389735017078"><ele>484.0</ele><time>2026-04-25T10:13:32Z</time></trkpt><trkpt lat="43.62565979637259" lon="12.4755414892495"><ele>484.0</ele><time>2026-04-25T10:13:33Z</time></trkpt><trkpt lat="43.625706753640024" lon="12.475704765214855"><ele>484.0</ele><time>2026-04-25T10:13:34Z</time></trkpt><trkpt lat="43.62575349526802" lon="12.4758568619266"><ele>484.25</ele><time>2026-04-25T10:13:35Z</time></trkpt><trkpt lat="43.62579517931419" lon="12.476014737347661"><ele>484.5</ele><time>2026-04-25T10:13:36Z</time></trkpt><trkpt lat="43.625843812981685" lon="12.476173431438346"><ele>484.75</ele><time>2026-04-25T10:13:37Z</time></trkpt><trkpt lat="43.62589214620281" lon="12.476332933079892"><ele>485.0</ele><time>2026-04-25T10:13:38Z</time></trkpt><trkpt lat="43.625931975384795" lon="12.476489740343677"><ele>483.0</ele><time>2026-04-25T10:13:39Z</time></trkpt><trkpt lat="43.62598172464824" lon="12.476630755797173"><ele>481.0</ele><time>2026-04-25T10:13:40Z</time></trkpt><trkpt lat="43.62600318993321" lon="12.476774955801682"><ele>479.0</ele><time>2026-04-25T10:13:41Z</time></trkpt><trkpt lat="43.62603532613359" lon="12.476898631610734"><ele>477.0</ele><time>2026-04-25T10:13:42Z</time></trkpt><trkpt lat="43.62604973001223" lon="12.477009418912454"><ele>475.0</ele><time>2026-04-25T10:13:43Z</time></trkpt><trkpt lat="43.62604245083046" lon="12.477113096004219"><ele>475.00000000000006</ele><time>2026-04-25T10:13:44Z</time></trkpt><trkpt lat="43.62599136758208" lon="12.4771891308713"><ele>475.0</ele><time>2026-04-25T10:13:45Z</time></trkpt><trkpt lat="43.62591481724528" lon="12.477220513280525"><ele>475.0</ele><time>2026-04-25T10:13:46Z</time></trkpt><trkpt lat="43.62583425702571" lon="12.477222615042676"><ele>475.0</ele><time>2026-04-25T10:13:47Z</time></trkpt><trkpt lat="43.62576596079887" lon="12.477125767537226"><ele>475.00000000000006</ele><time>2026-04-25T10:13:48Z</time></trkpt><trkpt lat="43.62572395740867" lon="12.477015986346482"><ele>475.0</ele><time>2026-04-25T10:13:49Z</time></trkpt><trkpt lat="43.625695039317506" lon="12.476889016116143"><ele>475.0</ele><time>2026-04-25T10:13:50Z</time></trkpt><trkpt lat="43.625654797141955" lon="12.476750710432142"><ele>475.0</ele><time>2026-04-25T10:13:51Z</time></trkpt><trkpt lat="43.6256309288868" lon="12.476598974005283"><ele>475.0</ele><time>2026-04-25T10:13:52Z</time></trkpt><trkpt lat="43.625601105343584" lon="12.47644521935784"><ele>475.0</ele><time>2026-04-25T10:13:53Z</time></trkpt><trkpt lat="43.62557081057803" lon="12.476286589722832"><ele>477.5</ele><time>2026-04-25T10:13:54Z</time></trkpt><trkpt lat="43.62553702553314" lon="12.476124056770018"><ele>480.0</ele><time>2026-04-25T10:13:55Z</time></trkpt><trkpt lat="43.6254927046362" lon="12.475969343512265"><ele>482.5</ele><time>2026-04-25T10:13:56Z</time></trkpt><trkpt lat="43.625439481366776" lon="12.47580998298614"><ele>485.0</ele><time>2026-04-25T10:13:57Z</time></trkpt><trkpt lat="43.62537293421175" lon="12.475658108697623"><ele>479.0</ele><time>2026-04-25T10:13:58Z</time></trkpt><trkpt lat="43.62529678276044" lon="12.475519472628072"><ele>473.0</ele><time>2026-04-25T10:13:59Z</time></trkpt><trkpt lat="43.625213714786796" lon="12.475396462805422"><ele>467.0</ele><time>2026-04-25T10:14:00Z</time></trkpt><trkpt lat="43.6251333749607" lon="12.475289825952679"><ele>461.0</ele><time>2026-04-25T10:14:01Z</time></trkpt><trkpt lat="43.625062346367166" lon="12.47518860466715"><ele>461.0</ele><time>2026-04-25T10:14:02Z</time></trkpt><trkpt lat="43.62500830851651" lon="12.475075521928709"><ele>461.0</ele><time>2026-04-25T10:14:03Z</time></trkpt><trkpt lat="43.624975518263795" lon="12.474943455763038"><ele>461.0</ele><time>2026-04-25T10:14:04Z</time></trkpt><trkpt lat="43.62497377635069" lon="12.474810270872966"><ele>461.0</ele><time>2026-04-25T10:14:05Z</time></trkpt><trkpt lat="43.624974833696044" lon="12.47467668072381"><ele>461.0</ele><time>2026-04-25T10:14:06Z</time></trkpt><trkpt lat="43.62495266639425" lon="12.474564159680753"><ele>461.0</ele><time>2026-04-25T10:14:07Z</time></trkpt><trkpt lat="43.62489678246986" lon="12.474488065029341"><ele>461.0</ele><time>2026-04-25T10:14:08Z</time></trkpt><trkpt lat="43.62481457308227" lon="12.474465082096597"><ele>461.0</ele><time>2026-04-25T10:14:09Z</time></trkpt><trkpt lat="43.62472257426805" lon="12.474489813700087"><ele>461.0</ele><time>2026-04-25T10:14:10Z</time></trkpt><trkpt lat="43.624641340401006" lon="12.474572287798274"><ele>461.0</ele><time>2026-04-25T10:14:11Z</time></trkpt><trkpt lat="43.62459444107213" lon="12.47469934120937"><ele>461.0</ele><time>2026-04-25T10:14:12Z</time></trkpt><trkpt lat="43.624588947736626" lon="12.474849525458987"><ele>461.0</ele><time>2026-04-25T10:14:13Z</time></trkpt><trkpt lat="43.624617754565776" lon="12.47499941042005"><ele>461.0</ele><time>2026-04-25T10:14:14Z</time></trkpt><trkpt lat="43.624669689863694" lon="12.47514663663142"><ele>461.0</ele><time>2026-04-25T10:14:15Z</time></trkpt><trkpt lat="43.624733517287375" lon="12.475281498697889"><ele>461.0</ele><time>2026-04-25T10:14:16Z</time></trkpt><trkpt lat="43.624798523327755" lon="12.475418605291665"><ele>461.0</ele><time>2026-04-25T10:14:17Z</time></trkpt><trkpt lat="43.62485768376893" lon="12.47556149779289"><ele>461.0</ele><time>2026-04-25T10:14:18Z</time></trkpt><trkpt lat="43.62491911638712" lon="12.475705648539613"><ele>461.0</ele><time>2026-04-25T10:14:19Z</time></trkpt><trkpt lat="43.62495426711254" lon="12.47585784846949"><ele>459.8</ele><time>2026-04-25T10:14:20Z</time></trkpt><trkpt lat="43.624987488315206" lon="12.47599221130457"><ele>458.6</ele><time>2026-04-25T10:14:21Z</time></trkpt><trkpt lat="43.62499752828761" lon="12.476122993683333"><ele>457.4</ele><time>2026-04-25T10:14:22Z</time></trkpt><trkpt lat="43.624977310969335" lon="12.476240408259365"><ele>456.2</ele><time>2026-04-25T10:14:23Z</time></trkpt><trkpt lat="43.62493311204074" lon="12.476332644397033"><ele>455.0</ele><time>2026-04-25T10:14:24Z</time></trkpt><trkpt lat="43.62486753743391" lon="12.476418856147001"><ele>454.2</ele><time>2026-04-25T10:14:25Z</time></trkpt><trkpt lat="43.624780781423325" lon="12.47648996379156"><ele>453.4</ele><time>2026-04-25T10:14:26Z</time></trkpt><trkpt lat="43.6246832181323" lon="12.476558046834649"><ele>452.6</ele><time>2026-04-25T10:14:27Z</time></trkpt><trkpt lat="43.6245879887072" lon="12.476642940532512"><ele>451.8</ele><time>2026-04-25T10:14:28Z</time></trkpt><trkpt lat="43.6244966240809" lon="12.476706295559804"><ele>451.0</ele><time>2026-04-25T10:14:29Z</time></trkpt><trkpt lat="43.62440708742455" lon="12.47676029841154"><ele>450.0</ele><time>2026-04-25T10:14:30Z</time></trkpt><trkpt lat="43.62431592727764" lon="12.476770473223215"><ele>449.0</ele><time>2026-04-25T10:14:31Z</time></trkpt><trkpt lat="43.6242265928841" lon="12.476728553011775"><ele>448.0</ele><time>2026-04-25T10:14:32Z</time></trkpt><trkpt lat="43.62413667213921" lon="12.476644949714991"><ele>447.0</ele><time>2026-04-25T10:14:33Z</time></trkpt><trkpt lat="43.62405373205512" lon="12.476538679573814"><ele>446.0</ele><time>2026-04-25T10:14:34Z</time></trkpt><trkpt lat="43.62397725293274" lon="12.47641169723397"><ele>446.0</ele><time>2026-04-25T10:14:35Z</time></trkpt><trkpt lat="43.62389543672666" lon="12.476275809646806"><ele>446.0</ele><time>2026-04-25T10:14:36Z</time></trkpt><trkpt lat="43.62380366075158" lon="12.476149295702914"><ele>446.0</ele><time>2026-04-25T10:14:37Z</time></trkpt><trkpt lat="43.62370295815439" lon="12.476024383450504"><ele>446.0</ele><time>2026-04-25T10:14:38Z</time></trkpt><trkpt lat="43.623600165152425" lon="12.475892928640755"><ele>444.0</ele><time>2026-04-25T10:14:39Z</time></trkpt><trkpt lat="43.62350148740487" lon="12.475767331185029"><ele>442.0</ele><time>2026-04-25T10:14:40Z</time></trkpt><trkpt lat="43.623410104357816" lon="12.47565574822684"><ele>440.0</ele><time>2026-04-25T10:14:41Z</time></trkpt><trkpt lat="43.62330976346434" lon="12.47556369065094"><ele>438.0</ele><time>2026-04-25T10:14:42Z</time></trkpt><trkpt lat="43.62320399391803" lon="12.475497851823672"><ele>438.0</ele><time>2026-04-25T10:14:43Z</time></trkpt><trkpt lat="43.62308702773561" lon="12.475449828230554"><ele>438.0</ele><time>2026-04-25T10:14:44Z</time></trkpt><trkpt lat="43.62297400960278" lon="12.47540415122554"><ele>438.0</ele><time>2026-04-25T10:14:45Z</time></trkpt><trkpt lat="43.62287016892606" lon="12.475345678294179"><ele>438.0</ele><time>2026-04-25T10:14:46Z</time></trkpt><trkpt lat="43.622772604770276" lon="12.475278034060967"><ele>434.75</ele><time>2026-04-25T10:14:47Z</time></trkpt><trkpt lat="43.6227008375049" lon="12.475163218873808"><ele>431.5</ele><time>2026-04-25T10:14:48Z</time></trkpt><trkpt lat="43.62260865047252" lon="12.475067334877409"><ele>428.25</ele><time>2026-04-25T10:14:49Z</time></trkpt><trkpt lat="43.622534037916104" lon="12.474957138058457"><ele>425.0</ele><time>2026-04-25T10:14:50Z</time></trkpt><trkpt lat="43.622443320225045" lon="12.474856796211165"><ele>425.0</ele><time>2026-04-25T10:14:51Z</time></trkpt><trkpt lat="43.62233198389664" lon="12.474796040420834"><ele>425.0</ele><time>2026-04-25T10:14:52Z</time></trkpt><trkpt lat="43.62220818027849" lon="12.474772685384526"><ele>425.0</ele><time>2026-04-25T10:14:53Z</time></trkpt><trkpt lat="43.62208430934484" lon="12.474779482646346"><ele>425.0</ele><time>2026-04-25T10:14:54Z</time></trkpt><trkpt lat="43.62195718049078" lon="12.474802378795518"><ele>422.0</ele><time>2026-04-25T10:14:55Z</time></trkpt><trkpt lat="43.62183591716254" lon="12.474853418298132"><ele>419.0</ele><time>2026-04-25T10:14:56Z</time></trkpt><trkpt lat="43.621718278951974" lon="12.474920161881021"><ele>416.0</ele><time>2026-04-25T10:14:57Z</time></trkpt><trkpt lat="43.62161800400072" lon="12.475016129418933"><ele>413.0</ele><time>2026-04-25T10:14:58Z</time></trkpt><trkpt lat="43.62152860296955" lon="12.475136912893669"><ele>413.0</ele><time>2026-04-25T10:14:59Z</time></trkpt><trkpt lat="43.62145515331415" lon="12.475258843554423"><ele>413.0</ele><time>2026-04-25T10:15:00Z</time></trkpt><trkpt lat="43.621401126064015" lon="12.475388116966355"><ele>413.0</ele><time>2026-04-25T10:15:01Z</time></trkpt><trkpt lat="43.621350945222325" lon="12.475497578363491"><ele>413.0</ele><time>2026-04-25T10:15:02Z</time></trkpt><trkpt lat="43.62130514747982" lon="12.47559442117916"><ele>413.0</ele><time>2026-04-25T10:15:03Z</time></trkpt><trkpt lat="43.6212644664595" lon="12.475686316483694"><ele>412.2</ele><time>2026-04-25T10:15:04Z</time></trkpt><trkpt lat="43.62122284558192" lon="12.475783898834353"><ele>411.4</ele><time>2026-04-25T10:15:05Z</time></trkpt><trkpt lat="43.621153606824436" lon="12.47585488705225"><ele>410.59999999999997</ele><time>2026-04-25T10:15:06Z</time></trkpt><trkpt lat="43.62107523546898" lon="12.475917104786397"><ele>409.79999999999995</ele><time>2026-04-25T10:15:07Z</time></trkpt><trkpt lat="43.620982334731124" lon="12.475943381956153"><ele>409.0</ele><time>2026-04-25T10:15:08Z</time></trkpt><trkpt lat="43.62087677818941" lon="12.475958565287135"><ele>409.0</ele><time>2026-04-25T10:15:09Z</time></trkpt><trkpt lat="43.62077112006099" lon="12.475937119523273"><ele>409.0</ele><time>2026-04-25T10:15:10Z</time></trkpt><trkpt lat="43.620664225393114" lon="12.475893759702751"><ele>409.0</ele><time>2026-04-25T10:15:11Z</time></trkpt><trkpt lat="43.620546294092975" lon="12.475845059829883"><ele>409.0</ele><time>2026-04-25T10:15:12Z</time></trkpt><trkpt lat="43.62042506611159" lon="12.475804832943162"><ele>409.25</ele><time>2026-04-25T10:15:13Z</time></trkpt><trkpt lat="43.620304827780174" lon="12.475744578412684"><ele>409.5</ele><time>2026-04-25T10:15:14Z</time></trkpt><trkpt lat="43.62018523908967" lon="12.475689160454438"><ele>409.75</ele><time>2026-04-25T10:15:15Z</time></trkpt><trkpt lat="43.62006553921007" lon="12.475631680997202"><ele>410.0</ele><time>2026-04-25T10:15:16Z</time></trkpt><trkpt lat="43.619951140590196" lon="12.47557629216508"><ele>410.0</ele><time>2026-04-25T10:15:17Z</time></trkpt><trkpt lat="43.61983414907015" lon="12.47552387702425"><ele>410.0</ele><time>2026-04-25T10:15:18Z</time></trkpt><trkpt lat="43.619717805285454" lon="12.475476809354914"><ele>410.0</ele><time>2026-04-25T10:15:19Z</time></trkpt><trkpt lat="43.61960434033355" lon="12.475425339272126"><ele>410.0</ele><time>2026-04-25T10:15:20Z</time></trkpt><trkpt lat="43.61949434230018" lon="12.475370255124277"><ele>407.5</ele><time>2026-04-25T10:15:21Z</time></trkpt><trkpt lat="43.61938299458797" lon="12.4753158134964"><ele>405.0</ele><time>2026-04-25T10:15:22Z</time></trkpt><trkpt lat="43.61927019060487" lon="12.475255318268305"><ele>402.5</ele><time>2026-04-25T10:15:23Z</time></trkpt><trkpt lat="43.61915873418732" lon="12.475172828866143"><ele>400.0</ele><time>2026-04-25T10:15:24Z</time></trkpt><trkpt lat="43.61905672358066" lon="12.475052139096782"><ele>400.0</ele><time>2026-04-25T10:15:25Z</time></trkpt><trkpt lat="43.6189478551791" lon="12.47492982265837"><ele>400.0</ele><time>2026-04-25T10:15:26Z</time></trkpt><trkpt lat="43.61884108433424" lon="12.474804479212272"><ele>400.0</ele><time>2026-04-25T10:15:27Z</time></trkpt><trkpt lat="43.61872767760157" lon="12.474677598966128"><ele>400.0</ele><time>2026-04-25T10:15:28Z</time></trkpt><trkpt lat="43.61861423064404" lon="12.474543856522619"><ele>398.25</ele><time>2026-04-25T10:15:29Z</time></trkpt><trkpt lat="43.61850453650164" lon="12.474408258684521"><ele>396.5</ele><time>2026-04-25T10:15:30Z</time></trkpt><trkpt lat="43.618393293168495" lon="12.474270989621164"><ele>394.75</ele><time>2026-04-25T10:15:31Z</time></trkpt><trkpt lat="43.61828134216233" lon="12.47414671873009"><ele>393.0</ele><time>2026-04-25T10:15:32Z</time></trkpt><trkpt lat="43.61817409087127" lon="12.474025385987813"><ele>393.0</ele><time>2026-04-25T10:15:33Z</time></trkpt><trkpt lat="43.618072719038295" lon="12.473908033284015"><ele>393.0</ele><time>2026-04-25T10:15:34Z</time></trkpt><trkpt lat="43.61797079897892" lon="12.473792462599656"><ele>393.0</ele><time>2026-04-25T10:15:35Z</time></trkpt><trkpt lat="43.61786813795773" lon="12.47368387194085"><ele>393.0</ele><time>2026-04-25T10:15:36Z</time></trkpt><trkpt lat="43.61776101646824" lon="12.47357656295989"><ele>391.75</ele><time>2026-04-25T10:15:37Z</time></trkpt><trkpt lat="43.617649615106934" lon="12.47347694170152"><ele>390.5</ele><time>2026-04-25T10:15:38Z</time></trkpt><trkpt lat="43.61752708067387" lon="12.473388708417103"><ele>389.25</ele><time>2026-04-25T10:15:39Z</time></trkpt><trkpt lat="43.61739358412696" lon="12.473316832753902"><ele>388.0</ele><time>2026-04-25T10:15:40Z</time></trkpt><trkpt lat="43.61725355925708" lon="12.4732797743262"><ele>388.0</ele><time>2026-04-25T10:15:41Z</time></trkpt><trkpt lat="43.61711073402675" lon="12.473257819331016"><ele>388.0</ele><time>2026-04-25T10:15:42Z</time></trkpt><trkpt lat="43.61696413598728" lon="12.473247925015876"><ele>388.0</ele><time>2026-04-25T10:15:43Z</time></trkpt><trkpt lat="43.616814740683694" lon="12.473252142613022"><ele>388.0</ele><time>2026-04-25T10:15:44Z</time></trkpt><trkpt lat="43.616668559851746" lon="12.47327709626777"><ele>387.25</ele><time>2026-04-25T10:15:45Z</time></trkpt><trkpt lat="43.616524713827275" lon="12.473306338147555"><ele>386.5</ele><time>2026-04-25T10:15:46Z</time></trkpt><trkpt lat="43.616378907568766" lon="12.473343523522813"><ele>385.75</ele><time>2026-04-25T10:15:47Z</time></trkpt><trkpt lat="43.616232497067166" lon="12.473389097263379"><ele>385.0</ele><time>2026-04-25T10:15:48Z</time></trkpt><trkpt lat="43.61608365597306" lon="12.4734386238903"><ele>383.5</ele><time>2026-04-25T10:15:49Z</time></trkpt><trkpt lat="43.6159356671686" lon="12.473484379778993"><ele>382.0</ele><time>2026-04-25T10:15:50Z</time></trkpt><trkpt lat="43.61579015816873" lon="12.473524551748852"><ele>380.5</ele><time>2026-04-25T10:15:51Z</time></trkpt><trkpt lat="43.615646097700754" lon="12.473566526026644"><ele>379.0</ele><time>2026-04-25T10:15:52Z</time></trkpt><trkpt lat="43.61550394637509" lon="12.473599049629334"><ele>379.0</ele><time>2026-04-25T10:15:53Z</time></trkpt><trkpt lat="43.615366017828215" lon="12.473627531215564"><ele>379.0</ele><time>2026-04-25T10:15:54Z</time></trkpt><trkpt lat="43.615228815409644" lon="12.473660328669544"><ele>379.0</ele><time>2026-04-25T10:15:55Z</time></trkpt><trkpt lat="43.61510279325731" lon="12.473689539346507"><ele>379.0</ele><time>2026-04-25T10:15:56Z</time></trkpt><trkpt lat="43.61498228374805" lon="12.473718830856715"><ele>378.75</ele><time>2026-04-25T10:15:57Z</time></trkpt><trkpt lat="43.61486746768287" lon="12.473747077462018"><ele>378.5</ele><time>2026-04-25T10:15:58Z</time></trkpt><trkpt lat="43.61475312630448" lon="12.473781334991905"><ele>378.25</ele><time>2026-04-25T10:15:59Z</time></trkpt><trkpt lat="43.61464233384768" lon="12.473818410175843"><ele>378.0</ele><time>2026-04-25T10:16:00Z</time></trkpt><trkpt lat="43.61453665090371" lon="12.47386923235337"><ele>375.75</ele><time>2026-04-25T10:16:01Z</time></trkpt><trkpt lat="43.61444116763215" lon="12.4739378069069"><ele>373.5</ele><time>2026-04-25T10:16:02Z</time></trkpt><trkpt lat="43.614359616008855" lon="12.47403648877436"><ele>371.25</ele><time>2026-04-25T10:16:03Z</time></trkpt><trkpt lat="43.61429119922958" lon="12.474168702672943"><ele>369.0</ele><time>2026-04-25T10:16:04Z</time></trkpt><trkpt lat="43.61422247190099" lon="12.474315463536682"><ele>369.0</ele><time>2026-04-25T10:16:05Z</time></trkpt><trkpt lat="43.61416381701295" lon="12.474476478508919"><ele>369.0</ele><time>2026-04-25T10:16:06Z</time></trkpt><trkpt lat="43.61410185946209" lon="12.47463777973267"><ele>369.0</ele><time>2026-04-25T10:16:07Z</time></trkpt><trkpt lat="43.614032283113964" lon="12.474799501136555"><ele>369.0</ele><time>2026-04-25T10:16:08Z</time></trkpt><trkpt lat="43.61396215571905" lon="12.474967463845948"><ele>371.0</ele><time>2026-04-25T10:16:09Z</time></trkpt><trkpt lat="43.6138900288686" lon="12.475138038649375"><ele>373.0</ele><time>2026-04-25T10:16:10Z</time></trkpt><trkpt lat="43.61382279897831" lon="12.475306623530253"><ele>375.0</ele><time>2026-04-25T10:16:11Z</time></trkpt><trkpt lat="43.61375183534798" lon="12.475474031010853"><ele>377.0</ele><time>2026-04-25T10:16:12Z</time></trkpt><trkpt lat="43.61368147803116" lon="12.475637676157834"><ele>376.5</ele><time>2026-04-25T10:16:13Z</time></trkpt><trkpt lat="43.61361391813144" lon="12.475800450601284"><ele>376.0</ele><time>2026-04-25T10:16:14Z</time></trkpt><trkpt lat="43.61355102844387" lon="12.475959610552476"><ele>375.5</ele><time>2026-04-25T10:16:15Z</time></trkpt><trkpt lat="43.61348133592319" lon="12.47611446461586"><ele>375.0</ele><time>2026-04-25T10:16:16Z</time></trkpt><trkpt lat="43.6134155444232" lon="12.47627432171909"><ele>374.75</ele><time>2026-04-25T10:16:17Z</time></trkpt><trkpt lat="43.61335474666457" lon="12.476422588373058"><ele>374.5</ele><time>2026-04-25T10:16:18Z</time></trkpt><trkpt lat="43.61328569893209" lon="12.47656170301647"><ele>374.25</ele><time>2026-04-25T10:16:19Z</time></trkpt><trkpt lat="43.6132254772824" lon="12.476705828294278"><ele>374.0</ele><time>2026-04-25T10:16:20Z</time></trkpt><trkpt lat="43.613169739203364" lon="12.476840270130873"><ele>374.0</ele><time>2026-04-25T10:16:21Z</time></trkpt><trkpt lat="43.61310495139325" lon="12.476976374157351"><ele>374.0</ele><time>2026-04-25T10:16:22Z</time></trkpt><trkpt lat="43.61304696524975" lon="12.47710880484221"><ele>374.0</ele><time>2026-04-25T10:16:23Z</time></trkpt><trkpt lat="43.61298748364023" lon="12.477250421382564"><ele>374.0</ele><time>2026-04-25T10:16:24Z</time></trkpt><trkpt lat="43.61293657020863" lon="12.477394090228609"><ele>373.75</ele><time>2026-04-25T10:16:25Z</time></trkpt><trkpt lat="43.612876925544874" lon="12.477541382473065"><ele>373.5</ele><time>2026-04-25T10:16:26Z</time></trkpt><trkpt lat="43.61282183288168" lon="12.477714550856717"><ele>373.25</ele><time>2026-04-25T10:16:27Z</time></trkpt><trkpt lat="43.612766069828254" lon="12.477903436057248"><ele>373.0</ele><time>2026-04-25T10:16:28Z</time></trkpt><trkpt lat="43.61270225521551" lon="12.478100548372991"><ele>374.66666666666663</ele><time>2026-04-25T10:16:29Z</time></trkpt><trkpt lat="43.61263945161272" lon="12.478305222336093"><ele>376.3333333333333</ele><time>2026-04-25T10:16:30Z</time></trkpt><trkpt lat="43.61257436457429" lon="12.478514663309749"><ele>378.0</ele><time>2026-04-25T10:16:31Z</time></trkpt><trkpt lat="43.61251136581791" lon="12.478722050564182"><ele>378.3333333333333</ele><time>2026-04-25T10:16:32Z</time></trkpt><trkpt lat="43.612427155652384" lon="12.47892566780213"><ele>378.66666666666663</ele><time>2026-04-25T10:16:33Z</time></trkpt><trkpt lat="43.61235599209197" lon="12.479142979509566"><ele>379.0</ele><time>2026-04-25T10:16:34Z</time></trkpt><trkpt lat="43.61228714578692" lon="12.479353215140623"><ele>379.0</ele><time>2026-04-25T10:16:35Z</time></trkpt><trkpt lat="43.61223402215887" lon="12.479571201045355"><ele>379.0</ele><time>2026-04-25T10:16:36Z</time></trkpt><trkpt lat="43.61216277410008" lon="12.479779314451578"><ele>379.0</ele><time>2026-04-25T10:16:37Z</time></trkpt><trkpt lat="43.612087692434905" lon="12.479982115455083"><ele>379.3333333333333</ele><time>2026-04-25T10:16:38Z</time></trkpt><trkpt lat="43.61199309633219" lon="12.480168175405735"><ele>379.6666666666667</ele><time>2026-04-25T10:16:39Z</time></trkpt><trkpt lat="43.611907731110136" lon="12.48035333545422"><ele>380.0</ele><time>2026-04-25T10:16:40Z</time></trkpt><trkpt lat="43.61182573271455" lon="12.480536700764919"><ele>380.0</ele><time>2026-04-25T10:16:41Z</time></trkpt><trkpt lat="43.61172466242698" lon="12.480700321534101"><ele>380.0</ele><time>2026-04-25T10:16:42Z</time></trkpt><trkpt lat="43.61163076514813" lon="12.48087104193234"><ele>380.0</ele><time>2026-04-25T10:16:43Z</time></trkpt><trkpt lat="43.61153456588894" lon="12.481034434981881"><ele>380.0</ele><time>2026-04-25T10:16:44Z</time></trkpt><trkpt lat="43.611433607119096" lon="12.481194353693978"><ele>380.0</ele><time>2026-04-25T10:16:45Z</time></trkpt><trkpt lat="43.61134282328327" lon="12.481369817590654"><ele>380.0</ele><time>2026-04-25T10:16:46Z</time></trkpt><trkpt lat="43.611235797931755" lon="12.48152654483799"><ele>378.6666666666667</ele><time>2026-04-25T10:16:47Z</time></trkpt><trkpt lat="43.61112529016748" lon="12.481681857063736"><ele>377.3333333333333</ele><time>2026-04-25T10:16:48Z</time></trkpt><trkpt lat="43.61101722570486" lon="12.48183637821033"><ele>376.0</ele><time>2026-04-25T10:16:49Z</time></trkpt><trkpt lat="43.61091416797136" lon="12.481989935334735"><ele>377.75</ele><time>2026-04-25T10:16:50Z</time></trkpt><trkpt lat="43.61082276818559" lon="12.48213350281051"><ele>379.5</ele><time>2026-04-25T10:16:51Z</time></trkpt><trkpt lat="43.610746657211905" lon="12.482270308752929"><ele>381.25</ele><time>2026-04-25T10:16:52Z</time></trkpt><trkpt lat="43.610693162246235" lon="12.482416800884907"><ele>383.0</ele><time>2026-04-25T10:16:53Z</time></trkpt><trkpt lat="43.61065812086663" lon="12.482574530239944"><ele>383.0</ele><time>2026-04-25T10:16:54Z</time></trkpt><trkpt lat="43.61063753456845" lon="12.482748009620128"><ele>383.0</ele><time>2026-04-25T10:16:55Z</time></trkpt><trkpt lat="43.61063210324871" lon="12.482945662464699"><ele>383.0</ele><time>2026-04-25T10:16:56Z</time></trkpt><trkpt lat="43.610604842613455" lon="12.483160486951215"><ele>383.0</ele><time>2026-04-25T10:16:57Z</time></trkpt><trkpt lat="43.61058841337857" lon="12.483380315987251"><ele>382.33333333333337</ele><time>2026-04-25T10:16:58Z</time></trkpt><trkpt lat="43.61050718869865" lon="12.483567219704575"><ele>381.6666666666667</ele><time>2026-04-25T10:16:59Z</time></trkpt><trkpt lat="43.61041902602875" lon="12.483744395660839"><ele>381.0</ele><time>2026-04-25T10:17:00Z</time></trkpt><trkpt lat="43.61031159403547" lon="12.483897935855918"><ele>378.6666666666667</ele><time>2026-04-25T10:17:01Z</time></trkpt><trkpt lat="43.61019075475751" lon="12.484032071618087"><ele>376.33333333333337</ele><time>2026-04-25T10:17:02Z</time></trkpt><trkpt lat="43.61006771086036" lon="12.484163473441129"><ele>374.0</ele><time>2026-04-25T10:17:03Z</time></trkpt><trkpt lat="43.60993875068856" lon="12.48429332898717"><ele>374.0</ele><time>2026-04-25T10:17:04Z</time></trkpt><trkpt lat="43.60981066128998" lon="12.48442063750557"><ele>374.0</ele><time>2026-04-25T10:17:05Z</time></trkpt><trkpt lat="43.60968287229428" lon="12.484545316897426"><ele>374.0</ele><time>2026-04-25T10:17:06Z</time></trkpt><trkpt lat="43.609566237165" lon="12.484681001140306"><ele>374.75</ele><time>2026-04-25T10:17:07Z</time></trkpt><trkpt lat="43.60944468466809" lon="12.484799593281718"><ele>375.5</ele><time>2026-04-25T10:17:08Z</time></trkpt><trkpt lat="43.60932776857473" lon="12.484917138819341"><ele>376.25</ele><time>2026-04-25T10:17:09Z</time></trkpt><trkpt lat="43.609213956279234" lon="12.485029871865262"><ele>377.0</ele><time>2026-04-25T10:17:10Z</time></trkpt><trkpt lat="43.60909956848376" lon="12.4851437072465"><ele>377.0</ele><time>2026-04-25T10:17:11Z</time></trkpt><trkpt lat="43.6089947994728" lon="12.485264290684253"><ele>377.0</ele><time>2026-04-25T10:17:12Z</time></trkpt><trkpt lat="43.608898802680685" lon="12.48539701420167"><ele>377.0</ele><time>2026-04-25T10:17:13Z</time></trkpt><trkpt lat="43.608822308086324" lon="12.485543548986398"><ele>377.0</ele><time>2026-04-25T10:17:14Z</time></trkpt><trkpt lat="43.60875162415259" lon="12.485708342424916"><ele>376.75</ele><time>2026-04-25T10:17:15Z</time></trkpt><trkpt lat="43.60869084429856" lon="12.485881586259847"><ele>376.5</ele><time>2026-04-25T10:17:16Z</time></trkpt><trkpt lat="43.60863274320545" lon="12.486060181596452"><ele>376.25</ele><time>2026-04-25T10:17:17Z</time></trkpt><trkpt lat="43.60856008982289" lon="12.486222960693903"><ele>376.0</ele><time>2026-04-25T10:17:18Z</time></trkpt><trkpt lat="43.60848209219218" lon="12.486377690403248"><ele>376.0</ele><time>2026-04-25T10:17:19Z</time></trkpt><trkpt lat="43.60839299302364" lon="12.486525109275766"><ele>376.0</ele><time>2026-04-25T10:17:20Z</time></trkpt><trkpt lat="43.60829220431613" lon="12.48667376852353"><ele>376.0</ele><time>2026-04-25T10:17:21Z</time></trkpt><trkpt lat="43.60819012464412" lon="12.486824996534983"><ele>376.0</ele><time>2026-04-25T10:17:22Z</time></trkpt><trkpt lat="43.6080884453715" lon="12.486976620554765"><ele>373.66666666666663</ele><time>2026-04-25T10:17:23Z</time></trkpt><trkpt lat="43.607981492976336" lon="12.487131652497155"><ele>371.3333333333333</ele><time>2026-04-25T10:17:24Z</time></trkpt><trkpt lat="43.6078699942057" lon="12.487293274612144"><ele>369.0</ele><time>2026-04-25T10:17:25Z</time></trkpt><trkpt lat="43.607760513955284" lon="12.487451972186275"><ele>369.0</ele><time>2026-04-25T10:17:26Z</time></trkpt><trkpt lat="43.607653261259344" lon="12.48761010950148"><ele>369.0</ele><time>2026-04-25T10:17:27Z</time></trkpt><trkpt lat="43.60754917035781" lon="12.487762977074784"><ele>369.0</ele><time>2026-04-25T10:17:28Z</time></trkpt><trkpt lat="43.60745108425347" lon="12.487907413840519"><ele>371.0</ele><time>2026-04-25T10:17:29Z</time></trkpt><trkpt lat="43.607354061605506" lon="12.488050284479451"><ele>373.0</ele><time>2026-04-25T10:17:30Z</time></trkpt><trkpt lat="43.60726076428294" lon="12.48818766954562"><ele>375.0</ele><time>2026-04-25T10:17:31Z</time></trkpt><trkpt lat="43.607180310411415" lon="12.488336540761567"><ele>377.0</ele><time>2026-04-25T10:17:32Z</time></trkpt><trkpt lat="43.607084449683605" lon="12.488462222356317"><ele>376.25</ele><time>2026-04-25T10:17:33Z</time></trkpt><trkpt lat="43.606991437468636" lon="12.488589590542936"><ele>375.5</ele><time>2026-04-25T10:17:34Z</time></trkpt><trkpt lat="43.60689985733832" lon="12.488718705447063"><ele>374.75</ele><time>2026-04-25T10:17:35Z</time></trkpt><trkpt lat="43.606802929556935" lon="12.488843719972547"><ele>374.0</ele><time>2026-04-25T10:17:36Z</time></trkpt><trkpt lat="43.606702944265" lon="12.488955295060466"><ele>374.0</ele><time>2026-04-25T10:17:37Z</time></trkpt><trkpt lat="43.60658846166427" lon="12.489061752950974"><ele>374.0</ele><time>2026-04-25T10:17:38Z</time></trkpt><trkpt lat="43.60646199023634" lon="12.489152277381217"><ele>374.0</ele><time>2026-04-25T10:17:39Z</time></trkpt><trkpt lat="43.606327901822425" lon="12.489235729900209"><ele>374.0</ele><time>2026-04-25T10:17:40Z</time></trkpt><trkpt lat="43.606183899677085" lon="12.489291026979288"><ele>370.6666666666667</ele><time>2026-04-25T10:17:41Z</time></trkpt><trkpt lat="43.606044895834984" lon="12.48938428405752"><ele>367.3333333333333</ele><time>2026-04-25T10:17:42Z</time></trkpt><trkpt lat="43.60589743417462" lon="12.489456068708096"><ele>364.0</ele><time>2026-04-25T10:17:43Z</time></trkpt><trkpt lat="43.60574112343768" lon="12.489529851763768"><ele>363.3333333333333</ele><time>2026-04-25T10:17:44Z</time></trkpt><trkpt lat="43.60559487018503" lon="12.489612355807791"><ele>362.6666666666667</ele><time>2026-04-25T10:17:45Z</time></trkpt><trkpt lat="43.6054211962544" lon="12.489713257945224"><ele>362.0</ele><time>2026-04-25T10:17:46Z</time></trkpt><trkpt lat="43.6052865623168" lon="12.489792789057441"><ele>362.0</ele><time>2026-04-25T10:17:47Z</time></trkpt><trkpt lat="43.60515813221855" lon="12.489891364674667"><ele>362.0</ele><time>2026-04-25T10:17:48Z</time></trkpt><trkpt lat="43.6050362161176" lon="12.489978240464286"><ele>362.0</ele><time>2026-04-25T10:17:49Z</time></trkpt><trkpt lat="43.6049224864537" lon="12.490066348066835"><ele>362.0</ele><time>2026-04-25T10:17:50Z</time></trkpt><trkpt lat="43.60482485364292" lon="12.49017071891877"><ele>362.0</ele><time>2026-04-25T10:17:51Z</time></trkpt><trkpt lat="43.60473650600652" lon="12.49029728143212"><ele>362.0</ele><time>2026-04-25T10:17:52Z</time></trkpt><trkpt lat="43.60464477896152" lon="12.490451804025895"><ele>362.0</ele><time>2026-04-25T10:17:53Z</time></trkpt><trkpt lat="43.60455356068225" lon="12.49062610706952"><ele>362.0</ele><time>2026-04-25T10:17:54Z</time></trkpt><trkpt lat="43.60447401663561" lon="12.490808434057808"><ele>361.75</ele><time>2026-04-25T10:17:55Z</time></trkpt><trkpt lat="43.60439924658754" lon="12.490986166761045"><ele>361.5</ele><time>2026-04-25T10:17:56Z</time></trkpt><trkpt lat="43.60432494512759" lon="12.491163047478125"><ele>361.25</ele><time>2026-04-25T10:17:57Z</time></trkpt><trkpt lat="43.60424375166169" lon="12.491329461388158"><ele>361.0</ele><time>2026-04-25T10:17:58Z</time></trkpt><trkpt lat="43.6041651231755" lon="12.491494696047438"><ele>361.0</ele><time>2026-04-25T10:17:59Z</time></trkpt><trkpt lat="43.604087388492594" lon="12.491659477806065"><ele>361.0</ele><time>2026-04-25T10:18:00Z</time></trkpt><trkpt lat="43.60401441572253" lon="12.49181931276729"><ele>361.0</ele><time>2026-04-25T10:18:01Z</time></trkpt><trkpt lat="43.60394105415445" lon="12.491973971891753"><ele>361.0</ele><time>2026-04-25T10:18:02Z</time></trkpt><trkpt lat="43.603845252480255" lon="12.492107454046005"><ele>360.75</ele><time>2026-04-25T10:18:03Z</time></trkpt><trkpt lat="43.60376157721175" lon="12.492254726117043"><ele>360.5</ele><time>2026-04-25T10:18:04Z</time></trkpt><trkpt lat="43.60365771657444" lon="12.492355730748967"><ele>360.25</ele><time>2026-04-25T10:18:05Z</time></trkpt><trkpt lat="43.603580352853925" lon="12.492475183285578"><ele>360.0</ele><time>2026-04-25T10:18:06Z</time></trkpt><trkpt lat="43.60349927161039" lon="12.492576100153629"><ele>360.0</ele><time>2026-04-25T10:18:07Z</time></trkpt><trkpt lat="43.60342952181232" lon="12.492668001960897"><ele>360.0</ele><time>2026-04-25T10:18:08Z</time></trkpt><trkpt lat="43.60337354078593" lon="12.492759922835042"><ele>360.0</ele><time>2026-04-25T10:18:09Z</time></trkpt><trkpt lat="43.60331140719981" lon="12.49284076709868"><ele>360.0</ele><time>2026-04-25T10:18:10Z</time></trkpt><trkpt lat="43.603264050141966" lon="12.492920985545437"><ele>360.0</ele><time>2026-04-25T10:18:11Z</time></trkpt><trkpt lat="43.603203665018626" lon="12.493030098050692"><ele>360.0</ele><time>2026-04-25T10:18:13Z</time></trkpt><trkpt lat="43.60316801303775" lon="12.493120778231512"><ele>360.4</ele><time>2026-04-25T10:18:16Z</time></trkpt><trkpt lat="43.60325889282225" lon="12.493200514633038"><ele>360.8</ele><time>2026-04-25T10:18:18Z</time></trkpt><trkpt lat="43.603343718517046" lon="12.493269578485869"><ele>361.20000000000005</ele><time>2026-04-25T10:18:20Z</time></trkpt><trkpt lat="43.6034388609267" lon="12.493334571009806"><ele>361.6</ele><time>2026-04-25T10:18:22Z</time></trkpt><trkpt lat="43.6035079217481" lon="12.49338093359475"><ele>362.0</ele><time>2026-04-25T10:18:25Z</time></trkpt><trkpt lat="43.603587854928044" lon="12.493445108638843"><ele>362.0</ele><time>2026-04-25T10:18:28Z</time></trkpt><trkpt lat="43.6036427212846" lon="12.49348904601096"><ele>362.0</ele><time>2026-04-25T10:18:29Z</time></trkpt><trkpt lat="43.60370733707666" lon="12.493518470676717"><ele>362.0</ele><time>2026-04-25T10:18:30Z</time></trkpt><trkpt lat="43.60378979354457" lon="12.49352599971781"><ele>362.0</ele><time>2026-04-25T10:18:31Z</time></trkpt><trkpt lat="43.60388514782179" lon="12.493520978161888"><ele>362.0</ele><time>2026-04-25T10:18:32Z</time></trkpt><trkpt lat="43.6039794457813" lon="12.49353906015652"><ele>362.0</ele><time>2026-04-25T10:18:33Z</time></trkpt><trkpt lat="43.6040652937257" lon="12.493605195011094"><ele>364.25</ele><time>2026-04-25T10:18:34Z</time></trkpt><trkpt lat="43.60413323637999" lon="12.493728396299726"><ele>366.5</ele><time>2026-04-25T10:18:35Z</time></trkpt><trkpt lat="43.60422340654803" lon="12.49384966795715"><ele>368.75</ele><time>2026-04-25T10:18:36Z</time></trkpt><trkpt lat="43.60433412931152" lon="12.493966674774432"><ele>371.0</ele><time>2026-04-25T10:18:37Z</time></trkpt><trkpt lat="43.60443305007634" lon="12.494124233547742"><ele>373.5</ele><time>2026-04-25T10:18:38Z</time></trkpt><trkpt lat="43.604544762274294" lon="12.494266239210722"><ele>376.0</ele><time>2026-04-25T10:18:39Z</time></trkpt><trkpt lat="43.60465532477022" lon="12.494408646531056"><ele>378.5</ele><time>2026-04-25T10:18:40Z</time></trkpt><trkpt lat="43.604755377126935" lon="12.49454942253511"><ele>381.0</ele><time>2026-04-25T10:18:41Z</time></trkpt><trkpt lat="43.60485059205716" lon="12.494700719162436"><ele>382.0</ele><time>2026-04-25T10:18:42Z</time></trkpt><trkpt lat="43.60494286681658" lon="12.494856190967626"><ele>383.0</ele><time>2026-04-25T10:18:43Z</time></trkpt><trkpt lat="43.60502791061838" lon="12.494979628461925"><ele>384.0</ele><time>2026-04-25T10:18:44Z</time></trkpt><trkpt lat="43.60509585365561" lon="12.49508036774376"><ele>385.0</ele><time>2026-04-25T10:18:45Z</time></trkpt><trkpt lat="43.605157717919376" lon="12.495183004586918"><ele>385.0</ele><time>2026-04-25T10:18:46Z</time></trkpt><trkpt lat="43.605197949021424" lon="12.495278469648422"><ele>385.0</ele><time>2026-04-25T10:18:47Z</time></trkpt><trkpt lat="43.60516288410344" lon="12.495436139830243"><ele>385.0</ele><time>2026-04-25T10:18:49Z</time></trkpt><trkpt lat="43.60513301600136" lon="12.495559361656552"><ele>385.0</ele><time>2026-04-25T10:18:50Z</time></trkpt><trkpt lat="43.605112943828" lon="12.495688449472972"><ele>385.0</ele><time>2026-04-25T10:18:51Z</time></trkpt><trkpt lat="43.60509944795263" lon="12.495848504068304"><ele>388.25</ele><time>2026-04-25T10:18:52Z</time></trkpt><trkpt lat="43.60511817026801" lon="12.496025719233083"><ele>391.5</ele><time>2026-04-25T10:18:53Z</time></trkpt><trkpt lat="43.605143816818455" lon="12.496197255742256"><ele>394.75</ele><time>2026-04-25T10:18:54Z</time></trkpt><trkpt lat="43.60518656551306" lon="12.496376948086285"><ele>398.0</ele><time>2026-04-25T10:18:55Z</time></trkpt><trkpt lat="43.60524831162566" lon="12.49656928905793"><ele>401.66666666666663</ele><time>2026-04-25T10:18:56Z</time></trkpt><trkpt lat="43.6053108443491" lon="12.496769139342984"><ele>405.33333333333337</ele><time>2026-04-25T10:18:57Z</time></trkpt><trkpt lat="43.605371593489075" lon="12.49697715893562"><ele>409.0</ele><time>2026-04-25T10:18:58Z</time></trkpt><trkpt lat="43.60543004843348" lon="12.497196201153896"><ele>409.0</ele><time>2026-04-25T10:18:59Z</time></trkpt><trkpt lat="43.60548894732875" lon="12.497425445460056"><ele>409.0</ele><time>2026-04-25T10:19:00Z</time></trkpt><trkpt lat="43.605542979750055" lon="12.497646888527191"><ele>409.0</ele><time>2026-04-25T10:19:01Z</time></trkpt><trkpt lat="43.605604263904624" lon="12.497844687688717"><ele>412.0</ele><time>2026-04-25T10:19:02Z</time></trkpt><trkpt lat="43.60568788512176" lon="12.498010465034449"><ele>415.0</ele><time>2026-04-25T10:19:03Z</time></trkpt><trkpt lat="43.60574635175915" lon="12.498179196495949"><ele>418.0</ele><time>2026-04-25T10:19:04Z</time></trkpt><trkpt lat="43.60578828592985" lon="12.498314938703597"><ele>421.0</ele><time>2026-04-25T10:19:05Z</time></trkpt><trkpt lat="43.60580941132178" lon="12.498425921777432"><ele>421.00000000000006</ele><time>2026-04-25T10:19:06Z</time></trkpt><trkpt lat="43.60581518015072" lon="12.49853996433021"><ele>421.0</ele><time>2026-04-25T10:19:07Z</time></trkpt><trkpt lat="43.605812354197894" lon="12.498646616918382"><ele>421.0</ele><time>2026-04-25T10:19:08Z</time></trkpt><trkpt lat="43.60581103452364" lon="12.498777053666213"><ele>421.0</ele><time>2026-04-25T10:19:09Z</time></trkpt><trkpt lat="43.605811971560314" lon="12.498885141052396"><ele>421.00000000000006</ele><time>2026-04-25T10:19:10Z</time></trkpt><trkpt lat="43.60582695395326" lon="12.498993885949945"><ele>421.0</ele><time>2026-04-25T10:19:11Z</time></trkpt><trkpt lat="43.60591050158036" lon="12.499110787293308"><ele>422.6666666666667</ele><time>2026-04-25T10:19:12Z</time></trkpt><trkpt lat="43.60595877385118" lon="12.499234334734819"><ele>424.33333333333337</ele><time>2026-04-25T10:19:13Z</time></trkpt><trkpt lat="43.60598299345055" lon="12.499353926642733"><ele>426.0</ele><time>2026-04-25T10:19:14Z</time></trkpt><trkpt lat="43.60598441984054" lon="12.499469763318219"><ele>427.66666666666663</ele><time>2026-04-25T10:19:15Z</time></trkpt><trkpt lat="43.60595941124128" lon="12.499577654864485"><ele>429.3333333333333</ele><time>2026-04-25T10:19:16Z</time></trkpt><trkpt lat="43.60591066004519" lon="12.499661631116767"><ele>431.0</ele><time>2026-04-25T10:19:17Z</time></trkpt><trkpt lat="43.605929860467946" lon="12.499805286490425"><ele>434.0</ele><time>2026-04-25T10:19:22Z</time></trkpt><trkpt lat="43.605962363442984" lon="12.499884489753107"><ele>437.0</ele><time>2026-04-25T10:19:24Z</time></trkpt><trkpt lat="43.60606260746689" lon="12.500017415583745"><ele>440.0</ele><time>2026-04-25T10:19:27Z</time></trkpt><trkpt lat="43.60604578690694" lon="12.500146344641605"><ele>443.0</ele><time>2026-04-25T10:19:29Z</time></trkpt><trkpt lat="43.60592194269433" lon="12.500185039113592"><ele>446.0</ele><time>2026-04-25T10:19:31Z</time></trkpt><trkpt lat="43.60581476130243" lon="12.500227838575926"><ele>446.0</ele><time>2026-04-25T10:19:32Z</time></trkpt><trkpt lat="43.605665427693566" lon="12.500294724125546"><ele>446.0</ele><time>2026-04-25T10:19:33Z</time></trkpt><trkpt lat="43.605506053505685" lon="12.500400891857355"><ele>446.0</ele><time>2026-04-25T10:19:34Z</time></trkpt><trkpt lat="43.605371680093725" lon="12.500497985328149"><ele>449.0</ele><time>2026-04-25T10:19:35Z</time></trkpt><trkpt lat="43.605259581611" lon="12.50062896110953"><ele>452.0</ele><time>2026-04-25T10:19:36Z</time></trkpt><trkpt lat="43.60515345071157" lon="12.500755381075642"><ele>455.0</ele><time>2026-04-25T10:19:37Z</time></trkpt><trkpt lat="43.605059524297154" lon="12.500845606387582"><ele>458.0</ele><time>2026-04-25T10:19:38Z</time></trkpt><trkpt lat="43.60495510914388" lon="12.500926686830732"><ele>458.0</ele><time>2026-04-25T10:19:39Z</time></trkpt><trkpt lat="43.60483320564778" lon="12.501018043171065"><ele>458.0</ele><time>2026-04-25T10:19:40Z</time></trkpt><trkpt lat="43.60470702451483" lon="12.50110481455075"><ele>458.0</ele><time>2026-04-25T10:19:41Z</time></trkpt><trkpt lat="43.6045950319119" lon="12.501171517509988"><ele>458.0</ele><time>2026-04-25T10:19:42Z</time></trkpt><trkpt lat="43.604479824723924" lon="12.501210981222037"><ele>460.75</ele><time>2026-04-25T10:19:43Z</time></trkpt><trkpt lat="43.604341629158476" lon="12.501204407721197"><ele>463.5</ele><time>2026-04-25T10:19:44Z</time></trkpt><trkpt lat="43.60418580167641" lon="12.501222169548615"><ele>466.25</ele><time>2026-04-25T10:19:45Z</time></trkpt><trkpt lat="43.60406889873778" lon="12.50125857500221"><ele>469.0</ele><time>2026-04-25T10:19:46Z</time></trkpt><trkpt lat="43.603971303739556" lon="12.501257555012852"><ele>469.6</ele><time>2026-04-25T10:19:47Z</time></trkpt><trkpt lat="43.60387496880212" lon="12.50125165219376"><ele>470.2</ele><time>2026-04-25T10:19:48Z</time></trkpt><trkpt lat="43.603812956892575" lon="12.501410077664353"><ele>470.80000000000007</ele><time>2026-04-25T10:19:50Z</time></trkpt><trkpt lat="43.60379896621676" lon="12.501525983258665"><ele>471.40000000000003</ele><time>2026-04-25T10:19:51Z</time></trkpt><trkpt lat="43.603784918873195" lon="12.501648777808864"><ele>472.0</ele><time>2026-04-25T10:19:52Z</time></trkpt><trkpt lat="43.60376997473754" lon="12.50174829856811"><ele>472.00000000000006</ele><time>2026-04-25T10:19:53Z</time></trkpt><trkpt lat="43.60373803692958" lon="12.501848303058098"><ele>472.0</ele><time>2026-04-25T10:19:54Z</time></trkpt><trkpt lat="43.60373254768087" lon="12.50195559965656"><ele>472.0</ele><time>2026-04-25T10:19:55Z</time></trkpt><trkpt lat="43.603745870302205" lon="12.502057454683191"><ele>472.0</ele><time>2026-04-25T10:19:56Z</time></trkpt><trkpt lat="43.60373543272112" lon="12.502148963246649"><ele>472.00000000000006</ele><time>2026-04-25T10:19:57Z</time></trkpt><trkpt lat="43.60371569069588" lon="12.502264476781889"><ele>472.0</ele><time>2026-04-25T10:19:58Z</time></trkpt><trkpt lat="43.60368712771247" lon="12.502384636461993"><ele>472.25</ele><time>2026-04-25T10:19:59Z</time></trkpt><trkpt lat="43.603642496500505" lon="12.502527543680698"><ele>472.5</ele><time>2026-04-25T10:20:00Z</time></trkpt><trkpt lat="43.603602381847814" lon="12.502666504233868"><ele>472.75</ele><time>2026-04-25T10:20:01Z</time></trkpt><trkpt lat="43.60355928330651" lon="12.502825793781271"><ele>473.0</ele><time>2026-04-25T10:20:02Z</time></trkpt><trkpt lat="43.60351017322316" lon="12.502966539428712"><ele>473.0</ele><time>2026-04-25T10:20:03Z</time></trkpt><trkpt lat="43.60343947040302" lon="12.503121992425871"><ele>473.0</ele><time>2026-04-25T10:20:04Z</time></trkpt><trkpt lat="43.60336113566143" lon="12.503295473711441"><ele>473.0</ele><time>2026-04-25T10:20:05Z</time></trkpt><trkpt lat="43.603296909948526" lon="12.50343783714986"><ele>473.0</ele><time>2026-04-25T10:20:06Z</time></trkpt><trkpt lat="43.60323384300549" lon="12.50355267731811"><ele>473.0</ele><time>2026-04-25T10:20:07Z</time></trkpt><trkpt lat="43.603166337331366" lon="12.503633480957975"><ele>472.99999999999994</ele><time>2026-04-25T10:20:08Z</time></trkpt><trkpt lat="43.603083784137176" lon="12.503672854402934"><ele>472.99999999999994</ele><time>2026-04-25T10:20:09Z</time></trkpt><trkpt lat="43.60299153244668" lon="12.503711050184558"><ele>473.0</ele><time>2026-04-25T10:20:10Z</time></trkpt><trkpt lat="43.602868493541656" lon="12.503741523578666"><ele>473.0</ele><time>2026-04-25T10:20:11Z</time></trkpt><trkpt lat="43.602740423525255" lon="12.503781827366973"><ele>472.0</ele><time>2026-04-25T10:20:12Z</time></trkpt><trkpt lat="43.60262157878161" lon="12.503861193053165"><ele>470.99999999999994</ele><time>2026-04-25T10:20:13Z</time></trkpt><trkpt lat="43.60253286116524" lon="12.503925599182741"><ele>469.99999999999994</ele><time>2026-04-25T10:20:14Z</time></trkpt><trkpt lat="43.602461729650294" lon="12.50398751259532"><ele>469.0</ele><time>2026-04-25T10:20:15Z</time></trkpt><trkpt lat="43.60241462972341" lon="12.50412241384551"><ele>468.0</ele><time>2026-04-25T10:20:16Z</time></trkpt><trkpt lat="43.602343848944784" lon="12.504247153282016"><ele>468.0</ele><time>2026-04-25T10:20:17Z</time></trkpt><trkpt lat="43.60225773814636" lon="12.50434345078006"><ele>468.0</ele><time>2026-04-25T10:20:18Z</time></trkpt><trkpt lat="43.602153085197166" lon="12.504462314727286"><ele>468.0</ele><time>2026-04-25T10:20:19Z</time></trkpt><trkpt lat="43.60203655533339" lon="12.504562291904344"><ele>468.0</ele><time>2026-04-25T10:20:20Z</time></trkpt><trkpt lat="43.60190538794475" lon="12.504657797814179"><ele>468.2</ele><time>2026-04-25T10:20:21Z</time></trkpt><trkpt lat="43.60178838796849" lon="12.504713629759957"><ele>468.4</ele><time>2026-04-25T10:20:22Z</time></trkpt><trkpt lat="43.60168654851998" lon="12.504739613911582"><ele>468.59999999999997</ele><time>2026-04-25T10:20:23Z</time></trkpt><trkpt lat="43.60160597009844" lon="12.504739102940153"><ele>468.79999999999995</ele><time>2026-04-25T10:20:24Z</time></trkpt><trkpt lat="43.60154254377299" lon="12.504754303205145"><ele>469.0</ele><time>2026-04-25T10:20:25Z</time></trkpt><trkpt lat="43.601449782063774" lon="12.50481011536499"><ele>469.0</ele><time>2026-04-25T10:20:27Z</time></trkpt><trkpt lat="43.601459126866295" lon="12.50491645795118"><ele>469.0</ele><time>2026-04-25T10:20:28Z</time></trkpt><trkpt lat="43.601486103668236" lon="12.505071430669528"><ele>469.0</ele><time>2026-04-25T10:20:30Z</time></trkpt><trkpt lat="43.60151142125281" lon="12.505183682392508"><ele>469.0</ele><time>2026-04-25T10:20:31Z</time></trkpt><trkpt lat="43.601525076430924" lon="12.505269960675543"><ele>469.0</ele><time>2026-04-25T10:20:32Z</time></trkpt><trkpt lat="43.60142329531986" lon="12.505350630529124"><ele>468.6</ele><time>2026-04-25T10:20:34Z</time></trkpt><trkpt lat="43.60136511599098" lon="12.505477728989684"><ele>468.2</ele><time>2026-04-25T10:20:35Z</time></trkpt><trkpt lat="43.60133199421284" lon="12.505600562139952"><ele>467.80000000000007</ele><time>2026-04-25T10:20:36Z</time></trkpt><trkpt lat="43.60127428799873" lon="12.505686788741677"><ele>467.40000000000003</ele><time>2026-04-25T10:20:37Z</time></trkpt><trkpt lat="43.60119362805654" lon="12.505719548263398"><ele>467.0</ele><time>2026-04-25T10:20:38Z</time></trkpt><trkpt lat="43.60110653181079" lon="12.505712261768794"><ele>467.0</ele><time>2026-04-25T10:20:39Z</time></trkpt><trkpt lat="43.60099197207828" lon="12.505650873588285"><ele>467.0</ele><time>2026-04-25T10:20:40Z</time></trkpt><trkpt lat="43.60085622017482" lon="12.50565127850905"><ele>467.0</ele><time>2026-04-25T10:20:41Z</time></trkpt><trkpt lat="43.60073445859357" lon="12.505606220898839"><ele>467.0</ele><time>2026-04-25T10:20:42Z</time></trkpt><trkpt lat="43.60062863481515" lon="12.505551322234442"><ele>467.0</ele><time>2026-04-25T10:20:43Z</time></trkpt><trkpt lat="43.60054016129508" lon="12.505478942834662"><ele>467.00000000000006</ele><time>2026-04-25T10:20:44Z</time></trkpt><trkpt lat="43.60046121653544" lon="12.505407074869176"><ele>467.00000000000006</ele><time>2026-04-25T10:20:45Z</time></trkpt><trkpt lat="43.60038309059278" lon="12.505360049659993"><ele>467.0</ele><time>2026-04-25T10:20:46Z</time></trkpt><trkpt lat="43.60031129011321" lon="12.505308526791355"><ele>467.0</ele><time>2026-04-25T10:20:48Z</time></trkpt><trkpt lat="43.6002413885829" lon="12.505470358984885"><ele>463.40000000000003</ele><time>2026-04-25T10:20:51Z</time></trkpt><trkpt lat="43.60019852335733" lon="12.50555456738053"><ele>459.80000000000007</ele><time>2026-04-25T10:20:56Z</time></trkpt><trkpt lat="43.600147460121214" lon="12.50564614739856"><ele>456.2</ele><time>2026-04-25T10:20:57Z</time></trkpt><trkpt lat="43.60008996991558" lon="12.505744677625884"><ele>452.6</ele><time>2026-04-25T10:20:58Z</time></trkpt><trkpt lat="43.600003543037516" lon="12.50588248277051"><ele>449.0</ele><time>2026-04-25T10:20:59Z</time></trkpt><trkpt lat="43.599922813568604" lon="12.505976465069239"><ele>449.0</ele><time>2026-04-25T10:21:00Z</time></trkpt><trkpt lat="43.59981737981236" lon="12.506081051872382"><ele>449.0</ele><time>2026-04-25T10:21:01Z</time></trkpt><trkpt lat="43.59970442327173" lon="12.506185794613893"><ele>449.0</ele><time>2026-04-25T10:21:02Z</time></trkpt><trkpt lat="43.59960920163765" lon="12.506269537604222"><ele>449.0</ele><time>2026-04-25T10:21:03Z</time></trkpt><trkpt lat="43.59952660008804" lon="12.506364373528106"><ele>445.6</ele><time>2026-04-25T10:21:04Z</time></trkpt><trkpt lat="43.59946641018828" lon="12.506481284536227"><ele>442.2</ele><time>2026-04-25T10:21:05Z</time></trkpt><trkpt lat="43.599447625914614" lon="12.506620234334465"><ele>438.80000000000007</ele><time>2026-04-25T10:21:06Z</time></trkpt><trkpt lat="43.59942352787938" lon="12.506756967938557"><ele>435.40000000000003</ele><time>2026-04-25T10:21:07Z</time></trkpt><trkpt lat="43.599412416578474" lon="12.506919145392446"><ele>432.0</ele><time>2026-04-25T10:21:08Z</time></trkpt><trkpt lat="43.59942476768227" lon="12.507086109119205"><ele>432.0</ele><time>2026-04-25T10:21:09Z</time></trkpt><trkpt lat="43.59940219362894" lon="12.507259502684102"><ele>432.0</ele><time>2026-04-25T10:21:10Z</time></trkpt><trkpt lat="43.599383651207745" lon="12.507434395609359"><ele>432.0</ele><time>2026-04-25T10:21:11Z</time></trkpt><trkpt lat="43.599373557520664" lon="12.507641988652901"><ele>432.0</ele><time>2026-04-25T10:21:12Z</time></trkpt><trkpt lat="43.599371299877106" lon="12.507848572707639"><ele>433.6</ele><time>2026-04-25T10:21:13Z</time></trkpt><trkpt lat="43.59937768967502" lon="12.5080121819513"><ele>435.20000000000005</ele><time>2026-04-25T10:21:14Z</time></trkpt><trkpt lat="43.5993918962237" lon="12.508108850611702"><ele>436.8</ele><time>2026-04-25T10:21:15Z</time></trkpt><trkpt lat="43.599477663565004" lon="12.508174250766956"><ele>438.4</ele><time>2026-04-25T10:21:17Z</time></trkpt><trkpt lat="43.5995983272624" lon="12.508100980406239"><ele>440.0</ele><time>2026-04-25T10:21:19Z</time></trkpt><trkpt lat="43.59969365100113" lon="12.508075566880656"><ele>443.0</ele><time>2026-04-25T10:21:20Z</time></trkpt><trkpt lat="43.599825709681106" lon="12.508039428884919"><ele>446.0</ele><time>2026-04-25T10:21:21Z</time></trkpt><trkpt lat="43.59993324394975" lon="12.508069794202559"><ele>449.0</ele><time>2026-04-25T10:21:22Z</time></trkpt><trkpt lat="43.60005635857701" lon="12.50811304121151"><ele>452.0</ele><time>2026-04-25T10:21:23Z</time></trkpt><trkpt lat="43.60019312043749" lon="12.50817329565915"><ele>452.0</ele><time>2026-04-25T10:21:24Z</time></trkpt><trkpt lat="43.60030796328334" lon="12.508272610411591"><ele>452.0</ele><time>2026-04-25T10:21:25Z</time></trkpt><trkpt lat="43.600377424333914" lon="12.508368506752916"><ele>452.0</ele><time>2026-04-25T10:21:26Z</time></trkpt><trkpt lat="43.60044841188278" lon="12.508505202659293"><ele>452.0</ele><time>2026-04-25T10:21:27Z</time></trkpt><trkpt lat="43.60053863536714" lon="12.50866220732899"><ele>456.25</ele><time>2026-04-25T10:21:28Z</time></trkpt><trkpt lat="43.60063847000786" lon="12.508807884587155"><ele>460.5</ele><time>2026-04-25T10:21:29Z</time></trkpt><trkpt lat="43.60072311969222" lon="12.50890634008318"><ele>464.75</ele><time>2026-04-25T10:21:30Z</time></trkpt><trkpt lat="43.60083798967936" lon="12.5090085951798"><ele>469.0</ele><time>2026-04-25T10:21:31Z</time></trkpt><trkpt lat="43.60092962991503" lon="12.509114186958449"><ele>469.0</ele><time>2026-04-25T10:21:32Z</time></trkpt><trkpt lat="43.6009920398679" lon="12.50921492843386"><ele>469.0</ele><time>2026-04-25T10:21:33Z</time></trkpt><trkpt lat="43.60099514919317" lon="12.509307201040821"><ele>469.0</ele><time>2026-04-25T10:21:35Z</time></trkpt><trkpt lat="43.600929440132184" lon="12.509309983960527"><ele>469.0</ele><time>2026-04-25T10:21:36Z</time></trkpt><trkpt lat="43.60079959473618" lon="12.50933942215114"><ele>469.0</ele><time>2026-04-25T10:21:38Z</time></trkpt><trkpt lat="43.60066175327629" lon="12.50935205427794"><ele>469.0</ele><time>2026-04-25T10:21:39Z</time></trkpt><trkpt lat="43.60052024479239" lon="12.509396037824033"><ele>469.0</ele><time>2026-04-25T10:21:40Z</time></trkpt><trkpt lat="43.60039201622184" lon="12.50946096463193"><ele>469.0</ele><time>2026-04-25T10:21:41Z</time></trkpt><trkpt lat="43.60029577212033" lon="12.509504654942791"><ele>469.0</ele><time>2026-04-25T10:21:42Z</time></trkpt><trkpt lat="43.600226070469425" lon="12.509525106210104"><ele>467.6666666666667</ele><time>2026-04-25T10:21:43Z</time></trkpt><trkpt lat="43.60021966594929" lon="12.50936163452702"><ele>466.33333333333337</ele><time>2026-04-25T10:21:44Z</time></trkpt><trkpt lat="43.60017661323269" lon="12.509290773768399"><ele>465.0</ele><time>2026-04-25T10:21:45Z</time></trkpt><trkpt lat="43.60012597053044" lon="12.50923584938234"><ele>463.66666666666663</ele><time>2026-04-25T10:21:46Z</time></trkpt><trkpt lat="43.60006093804138" lon="12.509184335467197"><ele>462.3333333333333</ele><time>2026-04-25T10:21:47Z</time></trkpt><trkpt lat="43.59996777113648" lon="12.509149191073133"><ele>461.0</ele><time>2026-04-25T10:21:48Z</time></trkpt><trkpt lat="43.59982962362018" lon="12.50915423187601"><ele>461.0</ele><time>2026-04-25T10:21:49Z</time></trkpt><trkpt lat="43.599679274045" lon="12.509158592319213"><ele>461.0</ele><time>2026-04-25T10:21:50Z</time></trkpt><trkpt lat="43.59953559056978" lon="12.509178382671463"><ele>461.0</ele><time>2026-04-25T10:21:51Z</time></trkpt><trkpt lat="43.59937681728843" lon="12.509185555066935"><ele>462.25</ele><time>2026-04-25T10:21:52Z</time></trkpt><trkpt lat="43.59923037645089" lon="12.509248428313345"><ele>463.5</ele><time>2026-04-25T10:21:53Z</time></trkpt><trkpt lat="43.59908967228847" lon="12.509293749781916"><ele>464.75</ele><time>2026-04-25T10:21:54Z</time></trkpt><trkpt lat="43.59896429201305" lon="12.50928807814752"><ele>466.0</ele><time>2026-04-25T10:21:55Z</time></trkpt><trkpt lat="43.59884661081527" lon="12.509248011706006"><ele>466.0</ele><time>2026-04-25T10:21:56Z</time></trkpt><trkpt lat="43.59871100358929" lon="12.50920895426504"><ele>466.0</ele><time>2026-04-25T10:21:57Z</time></trkpt><trkpt lat="43.598646105970175" lon="12.509197722203453"><ele>466.0</ele><time>2026-04-25T10:21:58Z</time></trkpt><trkpt lat="43.598615984430246" lon="12.509314270617768"><ele>466.0</ele><time>2026-04-25T10:22:00Z</time></trkpt><trkpt lat="43.598682912984074" lon="12.509408770945871"><ele>466.0</ele><time>2026-04-25T10:22:02Z</time></trkpt><trkpt lat="43.59876157416294" lon="12.509436835777269"><ele>466.0</ele><time>2026-04-25T10:22:03Z</time></trkpt><trkpt lat="43.59886309136086" lon="12.509460646490417"><ele>466.0</ele><time>2026-04-25T10:22:04Z</time></trkpt><trkpt lat="43.598983436641944" lon="12.509481324859282"><ele>466.0</ele><time>2026-04-25T10:22:05Z</time></trkpt><trkpt lat="43.59912632921235" lon="12.50951001122321"><ele>466.0</ele><time>2026-04-25T10:22:06Z</time></trkpt><trkpt lat="43.5992621128781" lon="12.50954322393381"><ele>466.0</ele><time>2026-04-25T10:22:07Z</time></trkpt><trkpt lat="43.599398870749894" lon="12.509557291038554"><ele>466.0</ele><time>2026-04-25T10:22:08Z</time></trkpt><trkpt lat="43.599495631057145" lon="12.509620423232601"><ele>466.0</ele><time>2026-04-25T10:22:09Z</time></trkpt><trkpt lat="43.59961153812005" lon="12.509687900781968"><ele>466.0</ele><time>2026-04-25T10:22:10Z</time></trkpt><trkpt lat="43.59973828889906" lon="12.509757278482972"><ele>470.20000000000005</ele><time>2026-04-25T10:22:11Z</time></trkpt><trkpt lat="43.59984632544804" lon="12.509825382095196"><ele>474.40000000000003</ele><time>2026-04-25T10:22:12Z</time></trkpt><trkpt lat="43.5999260782624" lon="12.50989720255657"><ele>478.6</ele><time>2026-04-25T10:22:13Z</time></trkpt><trkpt lat="43.59998537663674" lon="12.509978304761812"><ele>482.8</ele><time>2026-04-25T10:22:14Z</time></trkpt><trkpt lat="43.600045066499916" lon="12.51009494860084"><ele>487.0</ele><time>2026-04-25T10:22:15Z</time></trkpt><trkpt lat="43.60012720971747" lon="12.51023786888907"><ele>487.0</ele><time>2026-04-25T10:22:16Z</time></trkpt><trkpt lat="43.60023590806867" lon="12.510369970094123"><ele>487.0</ele><time>2026-04-25T10:22:17Z</time></trkpt><trkpt lat="43.60033763967376" lon="12.510440913989179"><ele>487.0</ele><time>2026-04-25T10:22:18Z</time></trkpt><trkpt lat="43.60045591330507" lon="12.510488362102059"><ele>487.0</ele><time>2026-04-25T10:22:19Z</time></trkpt><trkpt lat="43.60057917214801" lon="12.51050012876076"><ele>486.0</ele><time>2026-04-25T10:22:20Z</time></trkpt><trkpt lat="43.600694803112454" lon="12.510483350758152"><ele>485.0</ele><time>2026-04-25T10:22:21Z</time></trkpt><trkpt lat="43.60081537077044" lon="12.510427020260984"><ele>484.0</ele><time>2026-04-25T10:22:22Z</time></trkpt><trkpt lat="43.60095172642796" lon="12.510401698298137"><ele>483.0</ele><time>2026-04-25T10:22:23Z</time></trkpt><trkpt lat="43.6010996651311" lon="12.510374991884888"><ele>492.75</ele><time>2026-04-25T10:22:24Z</time></trkpt><trkpt lat="43.60122622493399" lon="12.510412222393494"><ele>502.5</ele><time>2026-04-25T10:22:25Z</time></trkpt><trkpt lat="43.60135319572157" lon="12.510439871398322"><ele>512.25</ele><time>2026-04-25T10:22:26Z</time></trkpt><trkpt lat="43.60151824942909" lon="12.510474924730442"><ele>522.0</ele><time>2026-04-25T10:22:27Z</time></trkpt><trkpt lat="43.601664018966666" lon="12.5104857695575"><ele>522.0</ele><time>2026-04-25T10:22:28Z</time></trkpt><trkpt lat="43.6018062224106" lon="12.510496973282294"><ele>522.0</ele><time>2026-04-25T10:22:29Z</time></trkpt><trkpt lat="43.601901000515035" lon="12.51051360666688"><ele>522.0</ele><time>2026-04-25T10:22:30Z</time></trkpt><trkpt lat="43.6019361866952" lon="12.510610823420965"><ele>522.0</ele><time>2026-04-25T10:22:34Z</time></trkpt><trkpt lat="43.60184482793538" lon="12.51062727805579"><ele>522.0</ele><time>2026-04-25T10:22:35Z</time></trkpt><trkpt lat="43.60177647139733" lon="12.510670967405204"><ele>522.0</ele><time>2026-04-25T10:22:36Z</time></trkpt><trkpt lat="43.601680147738115" lon="12.510652903396657"><ele>522.0</ele><time>2026-04-25T10:22:37Z</time></trkpt><trkpt lat="43.60153514204732" lon="12.510652989483825"><ele>522.0</ele><time>2026-04-25T10:22:38Z</time></trkpt><trkpt lat="43.60139969876717" lon="12.510658275723511"><ele>522.0</ele><time>2026-04-25T10:22:39Z</time></trkpt><trkpt lat="43.60126435229631" lon="12.510673084790078"><ele>520.75</ele><time>2026-04-25T10:22:40Z</time></trkpt><trkpt lat="43.601086576183306" lon="12.510705266419022"><ele>519.5</ele><time>2026-04-25T10:22:41Z</time></trkpt><trkpt lat="43.60096725936288" lon="12.510733066603853"><ele>518.25</ele><time>2026-04-25T10:22:42Z</time></trkpt><trkpt lat="43.60090590229259" lon="12.510759170947866"><ele>517.0</ele><time>2026-04-25T10:22:43Z</time></trkpt><trkpt lat="43.600831583656976" lon="12.510868932195496"><ele>517.0</ele><time>2026-04-25T10:22:45Z</time></trkpt><trkpt lat="43.60078283447691" lon="12.510989423908338"><ele>517.0</ele><time>2026-04-25T10:22:46Z</time></trkpt><trkpt lat="43.600714139098095" lon="12.511077070678793"><ele>517.0</ele><time>2026-04-25T10:22:47Z</time></trkpt><trkpt lat="43.60063937429883" lon="12.511074597661686"><ele>517.0</ele><time>2026-04-25T10:22:48Z</time></trkpt><trkpt lat="43.60054839656679" lon="12.511049286832886"><ele>517.0</ele><time>2026-04-25T10:22:49Z</time></trkpt><trkpt lat="43.60044463849358" lon="12.51102545880727"><ele>517.0</ele><time>2026-04-25T10:22:50Z</time></trkpt><trkpt lat="43.60035680904531" lon="12.51094899007655"><ele>517.0</ele><time>2026-04-25T10:22:51Z</time></trkpt><trkpt lat="43.6002660547404" lon="12.510948990078695"><ele>517.0</ele><time>2026-04-25T10:22:53Z</time></trkpt><trkpt lat="43.6002910021451" lon="12.511084042303821"><ele>517.0</ele><time>2026-04-25T10:22:55Z</time></trkpt><trkpt lat="43.60037134366923" lon="12.511181412680102"><ele>517.0</ele><time>2026-04-25T10:22:57Z</time></trkpt><trkpt lat="43.60044797882672" lon="12.511229444164805"><ele>523.8000000000001</ele><time>2026-04-25T10:22:58Z</time></trkpt><trkpt lat="43.60053893916598" lon="12.511280463976219"><ele>530.6</ele><time>2026-04-25T10:22:59Z</time></trkpt><trkpt lat="43.60063850346466" lon="12.511337720154552"><ele>537.4000000000001</ele><time>2026-04-25T10:23:00Z</time></trkpt><trkpt lat="43.60075866758431" lon="12.511391625203103"><ele>544.2</ele><time>2026-04-25T10:23:01Z</time></trkpt><trkpt lat="43.600865230197535" lon="12.511409649714707"><ele>551.0</ele><time>2026-04-25T10:23:02Z</time></trkpt><trkpt lat="43.60095472959881" lon="12.511404348468488"><ele>551.0</ele><time>2026-04-25T10:23:03Z</time></trkpt><trkpt lat="43.60102676097774" lon="12.511352174636801"><ele>551.0</ele><time>2026-04-25T10:23:04Z</time></trkpt><trkpt lat="43.601063752786736" lon="12.511246815856524"><ele>551.0</ele><time>2026-04-25T10:23:05Z</time></trkpt><trkpt lat="43.6011234222923" lon="12.511191577266377"><ele>551.0</ele><time>2026-04-25T10:23:06Z</time></trkpt><trkpt lat="43.60123472434509" lon="12.511162375400296"><ele>551.0</ele><time>2026-04-25T10:23:08Z</time></trkpt><trkpt lat="43.60132814892055" lon="12.511283925447616"><ele>552.25</ele><time>2026-04-25T10:23:09Z</time></trkpt><trkpt lat="43.60146996458047" lon="12.511321831841851"><ele>553.5</ele><time>2026-04-25T10:23:10Z</time></trkpt><trkpt lat="43.601596505369066" lon="12.511363600484732"><ele>554.75</ele><time>2026-04-25T10:23:11Z</time></trkpt><trkpt lat="43.60168696114184" lon="12.511406586617099"><ele>556.0</ele><time>2026-04-25T10:23:12Z</time></trkpt><trkpt lat="43.60177500266722" lon="12.511472902659335"><ele>556.0</ele><time>2026-04-25T10:23:13Z</time></trkpt><trkpt lat="43.601865027382196" lon="12.511558476549503"><ele>556.0</ele><time>2026-04-25T10:23:14Z</time></trkpt><trkpt lat="43.60194945153371" lon="12.511658267594626"><ele>556.0</ele><time>2026-04-25T10:23:15Z</time></trkpt><trkpt lat="43.602037291102455" lon="12.51178811010409"><ele>556.0</ele><time>2026-04-25T10:23:16Z</time></trkpt><trkpt lat="43.60207427545929" lon="12.511907142126622"><ele>556.0</ele><time>2026-04-25T10:23:17Z</time></trkpt><trkpt lat="43.60210152667838" lon="12.512052040472607"><ele>559.6</ele><time>2026-04-25T10:23:18Z</time></trkpt><trkpt lat="43.60214204529159" lon="12.512208116369637"><ele>563.2</ele><time>2026-04-25T10:23:19Z</time></trkpt><trkpt lat="43.60218480554192" lon="12.512360427853391"><ele>566.8</ele><time>2026-04-25T10:23:20Z</time></trkpt><trkpt lat="43.60222505547051" lon="12.512444137825334"><ele>570.4</ele><time>2026-04-25T10:23:21Z</time></trkpt><trkpt lat="43.602347090561594" lon="12.512484973119237"><ele>574.0</ele><time>2026-04-25T10:23:23Z</time></trkpt><trkpt lat="43.602420566091055" lon="12.512387407412733"><ele>574.0</ele><time>2026-04-25T10:23:24Z</time></trkpt><trkpt lat="43.60251658713325" lon="12.512332105555064"><ele>574.0</ele><time>2026-04-25T10:23:25Z</time></trkpt><trkpt lat="43.602590692598675" lon="12.51235842246012"><ele>574.0</ele><time>2026-04-25T10:23:26Z</time></trkpt><trkpt lat="43.60264546605976" lon="12.512512062688407"><ele>574.0</ele><time>2026-04-25T10:23:28Z</time></trkpt><trkpt lat="43.60264907642916" lon="12.512619609091598"><ele>574.0</ele><time>2026-04-25T10:23:29Z</time></trkpt><trkpt lat="43.602605024752705" lon="12.512705880842796"><ele>574.0</ele><time>2026-04-25T10:23:30Z</time></trkpt><trkpt lat="43.60253042943517" lon="12.512758193485876"><ele>574.0</ele><time>2026-04-25T10:23:31Z</time></trkpt><trkpt lat="43.602426550745065" lon="12.51282335503022"><ele>574.0</ele><time>2026-04-25T10:23:32Z</time></trkpt><trkpt lat="43.60229815732826" lon="12.51289186057543"><ele>574.0</ele><time>2026-04-25T10:23:33Z</time></trkpt><trkpt lat="43.602217155925594" lon="12.512956937358974"><ele>574.0</ele><time>2026-04-25T10:23:34Z</time></trkpt><trkpt lat="43.60228920282612" lon="12.513136627270708"><ele>577.4</ele><time>2026-04-25T10:23:36Z</time></trkpt><trkpt lat="43.602356156598354" lon="12.513183710697446"><ele>580.8</ele><time>2026-04-25T10:23:37Z</time></trkpt><trkpt lat="43.602457539591626" lon="12.51317482230076"><ele>584.2</ele><time>2026-04-25T10:23:38Z</time></trkpt><trkpt lat="43.6025693939845" lon="12.513229731594851"><ele>587.6</ele><time>2026-04-25T10:23:39Z</time></trkpt><trkpt lat="43.60267013069568" lon="12.51336452706069"><ele>591.0</ele><time>2026-04-25T10:23:40Z</time></trkpt><trkpt lat="43.60275479709063" lon="12.51341187533983"><ele>596.0</ele><time>2026-04-25T10:23:41Z</time></trkpt><trkpt lat="43.602833629756795" lon="12.513397009673577"><ele>601.0</ele><time>2026-04-25T10:23:42Z</time></trkpt><trkpt lat="43.602886516235166" lon="12.513331111091691"><ele>606.0</ele><time>2026-04-25T10:23:43Z</time></trkpt><trkpt lat="43.60295350788959" lon="12.513236974234296"><ele>611.0</ele><time>2026-04-25T10:23:44Z</time></trkpt><trkpt lat="43.6029985445145" lon="12.513091593587534"><ele>616.0</ele><time>2026-04-25T10:23:45Z</time></trkpt><trkpt lat="43.603067952767994" lon="12.512922528615842"><ele>609.3333333333334</ele><time>2026-04-25T10:23:46Z</time></trkpt><trkpt lat="43.60315894568664" lon="12.512732140427808"><ele>602.6666666666666</ele><time>2026-04-25T10:23:47Z</time></trkpt><trkpt lat="43.60323387374289" lon="12.512518164340788"><ele>596.0</ele><time>2026-04-25T10:23:48Z</time></trkpt><trkpt lat="43.60330525488295" lon="12.512393289821764"><ele>596.0</ele><time>2026-04-25T10:23:49Z</time></trkpt><trkpt lat="43.60336337827022" lon="12.512342385914515"><ele>596.0</ele><time>2026-04-25T10:23:50Z</time></trkpt><trkpt lat="43.60342354137334" lon="12.512299906938274"><ele>596.0</ele><time>2026-04-25T10:23:51Z</time></trkpt><trkpt lat="43.603502016084036" lon="12.51225712483006"><ele>596.0</ele><time>2026-04-25T10:23:52Z</time></trkpt><trkpt lat="43.603613534987694" lon="12.512200204913247"><ele>596.0</ele><time>2026-04-25T10:23:53Z</time></trkpt><trkpt lat="43.603743090651655" lon="12.512143042544336"><ele>597.6666666666666</ele><time>2026-04-25T10:23:54Z</time></trkpt><trkpt lat="43.60387681619494" lon="12.512078905787204"><ele>599.3333333333334</ele><time>2026-04-25T10:23:55Z</time></trkpt><trkpt lat="43.604015734809366" lon="12.512001524706148"><ele>601.0</ele><time>2026-04-25T10:23:56Z</time></trkpt><trkpt lat="43.60417813439281" lon="12.511952488701654"><ele>601.0</ele><time>2026-04-25T10:23:57Z</time></trkpt><trkpt lat="43.60432096682628" lon="12.511913625288413"><ele>601.0</ele><time>2026-04-25T10:23:58Z</time></trkpt><trkpt lat="43.60443841256254" lon="12.511887188265758"><ele>601.0</ele><time>2026-04-25T10:23:59Z</time></trkpt><trkpt lat="43.60454561483769" lon="12.51189215973618"><ele>601.0</ele><time>2026-04-25T10:24:00Z</time></trkpt><trkpt lat="43.60467451594855" lon="12.511910368720208"><ele>603.6666666666667</ele><time>2026-04-25T10:24:01Z</time></trkpt><trkpt lat="43.60481399619746" lon="12.51191459565008"><ele>606.3333333333334</ele><time>2026-04-25T10:24:02Z</time></trkpt><trkpt lat="43.60498699230497" lon="12.511930829273698"><ele>609.0</ele><time>2026-04-25T10:24:03Z</time></trkpt><trkpt lat="43.605128064314634" lon="12.511966776379756"><ele>609.0</ele><time>2026-04-25T10:24:04Z</time></trkpt><trkpt lat="43.605255229853825" lon="12.512003615132082"><ele>609.0</ele><time>2026-04-25T10:24:05Z</time></trkpt><trkpt lat="43.60537487389427" lon="12.512050494482578"><ele>609.0</ele><time>2026-04-25T10:24:06Z</time></trkpt><trkpt lat="43.60550132112501" lon="12.512111417079591"><ele>609.0</ele><time>2026-04-25T10:24:07Z</time></trkpt><trkpt lat="43.605620382130944" lon="12.512173252899693"><ele>619.3333333333334</ele><time>2026-04-25T10:24:08Z</time></trkpt><trkpt lat="43.60576636561517" lon="12.512251858538491"><ele>629.6666666666667</ele><time>2026-04-25T10:24:09Z</time></trkpt><trkpt lat="43.605933926854334" lon="12.512324043735777"><ele>640.0</ele><time>2026-04-25T10:24:10Z</time></trkpt><trkpt lat="43.60610843447354" lon="12.512410538826604"><ele>639.0</ele><time>2026-04-25T10:24:11Z</time></trkpt><trkpt lat="43.60625363436293" lon="12.512473616802419"><ele>638.0</ele><time>2026-04-25T10:24:12Z</time></trkpt><trkpt lat="43.60633589572925" lon="12.512529045903682"><ele>637.0</ele><time>2026-04-25T10:24:13Z</time></trkpt><trkpt lat="43.6063807800629" lon="12.512663060613455"><ele>636.0</ele><time>2026-04-25T10:24:15Z</time></trkpt><trkpt lat="43.60643048797671" lon="12.51277920337018"><ele>635.0</ele><time>2026-04-25T10:24:16Z</time></trkpt><trkpt lat="43.60649941407895" lon="12.512931858214289"><ele>640.8</ele><time>2026-04-25T10:24:17Z</time></trkpt><trkpt lat="43.606563137689754" lon="12.513042989356034"><ele>646.6</ele><time>2026-04-25T10:24:18Z</time></trkpt><trkpt lat="43.60665067136738" lon="12.513121094136467"><ele>652.4000000000001</ele><time>2026-04-25T10:24:19Z</time></trkpt><trkpt lat="43.60673003670158" lon="12.51306969681335"><ele>658.2</ele><time>2026-04-25T10:24:20Z</time></trkpt><trkpt lat="43.606839607581506" lon="12.51307162201502"><ele>664.0</ele><time>2026-04-25T10:24:21Z</time></trkpt><trkpt lat="43.60699520273976" lon="12.513048767204463"><ele>666.3333333333334</ele><time>2026-04-25T10:24:22Z</time></trkpt><trkpt lat="43.607204624275234" lon="12.513050318399824"><ele>668.6666666666666</ele><time>2026-04-25T10:24:23Z</time></trkpt><trkpt lat="43.60736054356476" lon="12.513034731750013"><ele>671.0</ele><time>2026-04-25T10:24:24Z</time></trkpt><trkpt lat="43.607500007141276" lon="12.513086554673297"><ele>671.0</ele><time>2026-04-25T10:24:25Z</time></trkpt><trkpt lat="43.60764254721366" lon="12.513122229840315"><ele>671.0</ele><time>2026-04-25T10:24:26Z</time></trkpt><trkpt lat="43.60779220936283" lon="12.513157558696708"><ele>671.0</ele><time>2026-04-25T10:24:27Z</time></trkpt><trkpt lat="43.607927961566986" lon="12.513202654615528"><ele>671.0</ele><time>2026-04-25T10:24:28Z</time></trkpt><trkpt lat="43.60799887725862" lon="12.513251984371465"><ele>670.25</ele><time>2026-04-25T10:24:29Z</time></trkpt><trkpt lat="43.60803803112879" lon="12.513325220870154"><ele>669.5</ele><time>2026-04-25T10:24:30Z</time></trkpt><trkpt lat="43.608122884381665" lon="12.51342941256765"><ele>668.75</ele><time>2026-04-25T10:24:31Z</time></trkpt><trkpt lat="43.60823259428873" lon="12.513562907209828"><ele>668.0</ele><time>2026-04-25T10:24:32Z</time></trkpt><trkpt lat="43.60838707812112" lon="12.51371493041325"><ele>673.6666666666666</ele><time>2026-04-25T10:24:33Z</time></trkpt><trkpt lat="43.608534376279565" lon="12.513854759908448"><ele>679.3333333333334</ele><time>2026-04-25T10:24:34Z</time></trkpt><trkpt lat="43.60870784876507" lon="12.51398361024167"><ele>685.0</ele><time>2026-04-25T10:24:35Z</time></trkpt><trkpt lat="43.60884670898701" lon="12.514103668438228"><ele>685.0</ele><time>2026-04-25T10:24:36Z</time></trkpt><trkpt lat="43.60894463480896" lon="12.51418913229809"><ele>685.0</ele><time>2026-04-25T10:24:37Z</time></trkpt><trkpt lat="43.60899237108481" lon="12.514249415509004"><ele>685.0</ele><time>2026-04-25T10:24:41Z</time></trkpt><trkpt lat="43.60912824819761" lon="12.514339335713691"><ele>685.0</ele><time>2026-04-25T10:24:44Z</time></trkpt><trkpt lat="43.609216935865646" lon="12.51441489655679"><ele>685.0</ele><time>2026-04-25T10:24:46Z</time></trkpt><trkpt lat="43.609281984736036" lon="12.514481627645251"><ele>685.0</ele><time>2026-04-25T10:24:48Z</time></trkpt><trkpt lat="43.609352751282884" lon="12.514540313822492"><ele>685.0</ele><time>2026-04-25T10:24:50Z</time></trkpt><trkpt lat="43.60963355835682" lon="12.51408184214882"><ele>684.2</ele><time>2026-04-25T10:24:51Z</time></trkpt><trkpt lat="43.609690843003186" lon="12.51404527017949"><ele>683.4</ele><time>2026-04-25T10:24:52Z</time></trkpt><trkpt lat="43.60978199495415" lon="12.513961460619853"><ele>682.5999999999999</ele><time>2026-04-25T10:24:53Z</time></trkpt><trkpt lat="43.60987859496298" lon="12.513860153021279"><ele>681.8</ele><time>2026-04-25T10:24:54Z</time></trkpt><trkpt lat="43.60998516017132" lon="12.513753809024081"><ele>681.0</ele><time>2026-04-25T10:24:55Z</time></trkpt><trkpt lat="43.61007348582399" lon="12.513665306832213"><ele>681.0</ele><time>2026-04-25T10:24:56Z</time></trkpt><trkpt lat="43.61014562801843" lon="12.513619498696807"><ele>681.0</ele><time>2026-04-25T10:24:57Z</time></trkpt><trkpt lat="43.61023894434249" lon="12.513596800612786"><ele>681.0</ele><time>2026-04-25T10:24:58Z</time></trkpt><trkpt lat="43.610354405341496" lon="12.513589831176464"><ele>681.0</ele><time>2026-04-25T10:24:59Z</time></trkpt><trkpt lat="43.610474284710484" lon="12.513632846429473"><ele>681.0</ele><time>2026-04-25T10:25:00Z</time></trkpt><trkpt lat="43.61060508424733" lon="12.513698880291585"><ele>680.0</ele><time>2026-04-25T10:25:01Z</time></trkpt><trkpt lat="43.61076553097806" lon="12.51375412719947"><ele>679.0</ele><time>2026-04-25T10:25:02Z</time></trkpt><trkpt lat="43.610932318053834" lon="12.51379460729115"><ele>678.0</ele><time>2026-04-25T10:25:03Z</time></trkpt><trkpt lat="43.61107168629871" lon="12.513825416202284"><ele>679.25</ele><time>2026-04-25T10:25:04Z</time></trkpt><trkpt lat="43.61121166914937" lon="12.51385543603253"><ele>680.5</ele><time>2026-04-25T10:25:05Z</time></trkpt><trkpt lat="43.61136792067839" lon="12.51387999410893"><ele>681.75</ele><time>2026-04-25T10:25:06Z</time></trkpt><trkpt lat="43.61151581992967" lon="12.51389692888146"><ele>683.0</ele><time>2026-04-25T10:25:07Z</time></trkpt><trkpt lat="43.61164596205487" lon="12.513915605712517"><ele>683.0</ele><time>2026-04-25T10:25:08Z</time></trkpt><trkpt lat="43.61178490545469" lon="12.513942311855887"><ele>683.0</ele><time>2026-04-25T10:25:09Z</time></trkpt><trkpt lat="43.61193003965647" lon="12.513988247801715"><ele>683.0</ele><time>2026-04-25T10:25:10Z</time></trkpt><trkpt lat="43.612076450210374" lon="12.514047739580906"><ele>683.0</ele><time>2026-04-25T10:25:11Z</time></trkpt><trkpt lat="43.612230048408634" lon="12.514112942862305"><ele>685.75</ele><time>2026-04-25T10:25:12Z</time></trkpt><trkpt lat="43.61237324773496" lon="12.514178762917235"><ele>688.5</ele><time>2026-04-25T10:25:13Z</time></trkpt><trkpt lat="43.612496123064425" lon="12.514207863196432"><ele>691.25</ele><time>2026-04-25T10:25:14Z</time></trkpt><trkpt lat="43.61261242880551" lon="12.514208770578591"><ele>694.0</ele><time>2026-04-25T10:25:15Z</time></trkpt><trkpt lat="43.612740368112405" lon="12.514197153386586"><ele>696.25</ele><time>2026-04-25T10:25:16Z</time></trkpt><trkpt lat="43.61287079044756" lon="12.514173070972655"><ele>698.5</ele><time>2026-04-25T10:25:17Z</time></trkpt><trkpt lat="43.61300949651138" lon="12.514144395073794"><ele>700.75</ele><time>2026-04-25T10:25:18Z</time></trkpt><trkpt lat="43.613164104737145" lon="12.514133333624185"><ele>703.0</ele><time>2026-04-25T10:25:19Z</time></trkpt><trkpt lat="43.613335163603885" lon="12.514124524773832"><ele>703.0</ele><time>2026-04-25T10:25:20Z</time></trkpt><trkpt lat="43.61349024972173" lon="12.514126028779774"><ele>703.0</ele><time>2026-04-25T10:25:21Z</time></trkpt><trkpt lat="43.61363350761265" lon="12.51411370683497"><ele>703.0</ele><time>2026-04-25T10:25:22Z</time></trkpt><trkpt lat="43.61375433435931" lon="12.514094809599406"><ele>703.0</ele><time>2026-04-25T10:25:23Z</time></trkpt><trkpt lat="43.613861630544285" lon="12.514064627985466"><ele>704.75</ele><time>2026-04-25T10:25:24Z</time></trkpt><trkpt lat="43.61396490136912" lon="12.51401368606412"><ele>706.5</ele><time>2026-04-25T10:25:25Z</time></trkpt><trkpt lat="43.61407728910967" lon="12.513945381803738"><ele>708.25</ele><time>2026-04-25T10:25:26Z</time></trkpt><trkpt lat="43.614192291925754" lon="12.513880438415162"><ele>710.0</ele><time>2026-04-25T10:25:27Z</time></trkpt><trkpt lat="43.614320189518814" lon="12.513853343978043"><ele>710.0</ele><time>2026-04-25T10:25:28Z</time></trkpt><trkpt lat="43.614437370398875" lon="12.513824890172165"><ele>710.0</ele><time>2026-04-25T10:25:29Z</time></trkpt><trkpt lat="43.6145402194121" lon="12.513812707446412"><ele>710.0</ele><time>2026-04-25T10:25:30Z</time></trkpt><trkpt lat="43.61462868155059" lon="12.513801298650025"><ele>710.0</ele><time>2026-04-25T10:25:31Z</time></trkpt><trkpt lat="43.61471098786755" lon="12.513779675744813"><ele>710.0</ele><time>2026-04-25T10:25:32Z</time></trkpt><trkpt lat="43.61479050345194" lon="12.51363721314561"><ele>705.8</ele><time>2026-04-25T10:25:34Z</time></trkpt><trkpt lat="43.61479358005734" lon="12.51353961180502"><ele>701.6</ele><time>2026-04-25T10:25:35Z</time></trkpt><trkpt lat="43.61478073364275" lon="12.513436358102235"><ele>697.4000000000001</ele><time>2026-04-25T10:25:36Z</time></trkpt><trkpt lat="43.61475225133677" lon="12.513311636912"><ele>693.2</ele><time>2026-04-25T10:25:37Z</time></trkpt><trkpt lat="43.61471592533986" lon="12.513176954834266"><ele>689.0</ele><time>2026-04-25T10:25:38Z</time></trkpt><trkpt lat="43.61467649869966" lon="12.51304038482864"><ele>689.0</ele><time>2026-04-25T10:25:39Z</time></trkpt><trkpt lat="43.61464603539062" lon="12.512922967906979"><ele>689.0</ele><time>2026-04-25T10:25:40Z</time></trkpt><trkpt lat="43.61462206853209" lon="12.51280155711426"><ele>689.0</ele><time>2026-04-25T10:25:41Z</time></trkpt><trkpt lat="43.61458962991574" lon="12.512670157759093"><ele>689.0</ele><time>2026-04-25T10:25:42Z</time></trkpt><trkpt lat="43.614558014139355" lon="12.51253848594307"><ele>689.0</ele><time>2026-04-25T10:25:43Z</time></trkpt><trkpt lat="43.61452849293242" lon="12.51239659724585"><ele>691.5</ele><time>2026-04-25T10:25:44Z</time></trkpt><trkpt lat="43.614496347433196" lon="12.512239762945667"><ele>694.0</ele><time>2026-04-25T10:25:45Z</time></trkpt><trkpt lat="43.614458953939675" lon="12.512070471899747"><ele>696.5</ele><time>2026-04-25T10:25:46Z</time></trkpt><trkpt lat="43.614415125282726" lon="12.511900132719772"><ele>699.0</ele><time>2026-04-25T10:25:47Z</time></trkpt><trkpt lat="43.614373559169515" lon="12.511727160524366"><ele>699.0</ele><time>2026-04-25T10:25:48Z</time></trkpt><trkpt lat="43.61434336996592" lon="12.511527795448638"><ele>699.0</ele><time>2026-04-25T10:25:49Z</time></trkpt><trkpt lat="43.61430873513052" lon="12.511332645601732"><ele>699.0</ele><time>2026-04-25T10:25:50Z</time></trkpt><trkpt lat="43.61426447861797" lon="12.51111050505051"><ele>693.0</ele><time>2026-04-25T10:25:51Z</time></trkpt><trkpt lat="43.61421035177718" lon="12.510882279497464"><ele>687.0</ele><time>2026-04-25T10:25:52Z</time></trkpt><trkpt lat="43.61416461151893" lon="12.510662672786061"><ele>681.0</ele><time>2026-04-25T10:25:53Z</time></trkpt><trkpt lat="43.61411646389897" lon="12.510466330644482"><ele>677.25</ele><time>2026-04-25T10:25:54Z</time></trkpt><trkpt lat="43.6140732944472" lon="12.510288218664723"><ele>673.5</ele><time>2026-04-25T10:25:55Z</time></trkpt><trkpt lat="43.61403865101373" lon="12.510128074935535"><ele>669.75</ele><time>2026-04-25T10:25:56Z</time></trkpt><trkpt lat="43.61399818690461" lon="12.509987570720646"><ele>666.0</ele><time>2026-04-25T10:25:57Z</time></trkpt><trkpt lat="43.613972334997115" lon="12.509838142542804"><ele>666.0</ele><time>2026-04-25T10:25:58Z</time></trkpt><trkpt lat="43.61393776041928" lon="12.50972612505264"><ele>666.0</ele><time>2026-04-25T10:25:59Z</time></trkpt><trkpt lat="43.613909837355145" lon="12.509615214321004"><ele>666.0</ele><time>2026-04-25T10:26:00Z</time></trkpt><trkpt lat="43.613886052613395" lon="12.509505704945596"><ele>666.0</ele><time>2026-04-25T10:26:01Z</time></trkpt><trkpt lat="43.61384755388098" lon="12.509383180358462"><ele>666.0</ele><time>2026-04-25T10:26:02Z</time></trkpt><trkpt lat="43.61379804892934" lon="12.509249370950073"><ele>664.5999999999999</ele><time>2026-04-25T10:26:03Z</time></trkpt><trkpt lat="43.61374752103962" lon="12.50911243895365"><ele>663.2</ele><time>2026-04-25T10:26:04Z</time></trkpt><trkpt lat="43.613696099934586" lon="12.508975067302673"><ele>661.8</ele><time>2026-04-25T10:26:05Z</time></trkpt><trkpt lat="43.61366239944978" lon="12.508865400971107"><ele>660.4000000000001</ele><time>2026-04-25T10:26:06Z</time></trkpt><trkpt lat="43.61374513320136" lon="12.50872235328241"><ele>659.0</ele><time>2026-04-25T10:26:08Z</time></trkpt><trkpt lat="43.61379454707271" lon="12.508597233842972"><ele>658.5</ele><time>2026-04-25T10:26:10Z</time></trkpt><trkpt lat="43.61377014245558" lon="12.508473509617787"><ele>658.0</ele><time>2026-04-25T10:26:12Z</time></trkpt><trkpt lat="43.613816852328185" lon="12.508406666621696"><ele>657.5</ele><time>2026-04-25T10:26:27Z</time></trkpt><trkpt lat="43.6138044703013" lon="12.50823954617819"><ele>657.0</ele><time>2026-04-25T10:26:29Z</time></trkpt><trkpt lat="43.613795016781154" lon="12.508120683406347"><ele>656.5</ele><time>2026-04-25T10:26:30Z</time></trkpt><trkpt lat="43.6137864707349" lon="12.508026683300562"><ele>656.0</ele><time>2026-04-25T10:26:31Z</time></trkpt><trkpt lat="43.61379853627764" lon="12.50787175293867"><ele>657.2857142857142</ele><time>2026-04-25T10:26:33Z</time></trkpt><trkpt lat="43.61381774049073" lon="12.507785697055466"><ele>658.5714285714286</ele><time>2026-04-25T10:26:34Z</time></trkpt><trkpt lat="43.613839479235075" lon="12.507700623765047"><ele>659.8571428571429</ele><time>2026-04-25T10:26:35Z</time></trkpt><trkpt lat="43.61386488858573" lon="12.507545317876318"><ele>661.1428571428571</ele><time>2026-04-25T10:26:37Z</time></trkpt><trkpt lat="43.61387224661275" lon="12.507454924123458"><ele>662.4285714285714</ele><time>2026-04-25T10:26:38Z</time></trkpt><trkpt lat="43.613891021658475" lon="12.507364074037888"><ele>663.7142857142857</ele><time>2026-04-25T10:26:39Z</time></trkpt><trkpt lat="43.61393865977276" lon="12.507296001271964"><ele>665.0</ele><time>2026-04-25T10:26:40Z</time></trkpt><trkpt lat="43.614003466157364" lon="12.507265405898627"><ele>665.0</ele><time>2026-04-25T10:26:41Z</time></trkpt><trkpt lat="43.614083500615834" lon="12.507265028047948"><ele>665.0</ele><time>2026-04-25T10:26:42Z</time></trkpt><trkpt lat="43.61417404174486" lon="12.507281361605536"><ele>665.0</ele><time>2026-04-25T10:26:43Z</time></trkpt><trkpt lat="43.61428965837204" lon="12.507277592163867"><ele>665.0</ele><time>2026-04-25T10:26:44Z</time></trkpt><trkpt lat="43.6144090916645" lon="12.507289581441757"><ele>665.0</ele><time>2026-04-25T10:26:45Z</time></trkpt><trkpt lat="43.6145208824007" lon="12.507305586547458"><ele>662.4</ele><time>2026-04-25T10:26:46Z</time></trkpt><trkpt lat="43.614617610660034" lon="12.507333028302792"><ele>659.8</ele><time>2026-04-25T10:26:47Z</time></trkpt><trkpt lat="43.61471759829699" lon="12.507360744367192"><ele>657.2</ele><time>2026-04-25T10:26:48Z</time></trkpt><trkpt lat="43.61483811606754" lon="12.507393572065299"><ele>654.6</ele><time>2026-04-25T10:26:49Z</time></trkpt><trkpt lat="43.6149469791998" lon="12.507423352589967"><ele>652.0</ele><time>2026-04-25T10:26:50Z</time></trkpt><trkpt lat="43.61504807970224" lon="12.507436050139844"><ele>652.0</ele><time>2026-04-25T10:26:51Z</time></trkpt><trkpt lat="43.61513922124738" lon="12.50744271540717"><ele>652.0</ele><time>2026-04-25T10:26:52Z</time></trkpt><trkpt lat="43.61521241398114" lon="12.507442965051808"><ele>652.0</ele><time>2026-04-25T10:26:53Z</time></trkpt><trkpt lat="43.615274561245" lon="12.507407016876044"><ele>652.0</ele><time>2026-04-25T10:26:54Z</time></trkpt><trkpt lat="43.61531101330037" lon="12.507284382780757"><ele>652.0</ele><time>2026-04-25T10:26:56Z</time></trkpt><trkpt lat="43.6153207218756" lon="12.507178951917975"><ele>652.0</ele><time>2026-04-25T10:26:57Z</time></trkpt><trkpt lat="43.61530854027267" lon="12.507060412757703"><ele>654.6</ele><time>2026-04-25T10:26:58Z</time></trkpt><trkpt lat="43.61531789165613" lon="12.506911654142804"><ele>657.2</ele><time>2026-04-25T10:26:59Z</time></trkpt><trkpt lat="43.61534894737457" lon="12.506778105706509"><ele>659.8</ele><time>2026-04-25T10:27:00Z</time></trkpt><trkpt lat="43.615398925083504" lon="12.50670511880072"><ele>662.4</ele><time>2026-04-25T10:27:01Z</time></trkpt><trkpt lat="43.61548464759833" lon="12.506733016287546"><ele>665.0</ele><time>2026-04-25T10:27:03Z</time></trkpt><trkpt lat="43.61552598287555" lon="12.506864482735223"><ele>665.0</ele><time>2026-04-25T10:27:05Z</time></trkpt><trkpt lat="43.615479247037634" lon="12.507039548213085"><ele>665.0</ele><time>2026-04-25T10:27:07Z</time></trkpt><trkpt lat="43.61543763435592" lon="12.507142569119198"><ele>665.0</ele><time>2026-04-25T10:27:08Z</time></trkpt><trkpt lat="43.61539301604825" lon="12.507255130519251"><ele>665.0</ele><time>2026-04-25T10:27:09Z</time></trkpt><trkpt lat="43.615395289937986" lon="12.507389863335314"><ele>665.0</ele><time>2026-04-25T10:27:10Z</time></trkpt><trkpt lat="43.61542183660481" lon="12.50753567430089"><ele>662.8333333333333</ele><time>2026-04-25T10:27:11Z</time></trkpt><trkpt lat="43.6154615225173" lon="12.507663330539966"><ele>660.6666666666666</ele><time>2026-04-25T10:27:12Z</time></trkpt><trkpt lat="43.61547529345135" lon="12.5077568469965"><ele>658.5</ele><time>2026-04-25T10:27:13Z</time></trkpt><trkpt lat="43.61540630820989" lon="12.507831176565313"><ele>656.3333333333334</ele><time>2026-04-25T10:27:16Z</time></trkpt><trkpt lat="43.615309178883244" lon="12.507830073474713"><ele>654.1666666666667</ele><time>2026-04-25T10:27:18Z</time></trkpt><trkpt lat="43.615225588337815" lon="12.50782603078437"><ele>652.0</ele><time>2026-04-25T10:27:19Z</time></trkpt><trkpt lat="43.615150241945024" lon="12.50782795408023"><ele>652.0</ele><time>2026-04-25T10:27:20Z</time></trkpt><trkpt lat="43.6150641659982" lon="12.507819744204287"><ele>652.0</ele><time>2026-04-25T10:27:21Z</time></trkpt><trkpt lat="43.61495636449406" lon="12.507790454624889"><ele>652.0</ele><time>2026-04-25T10:27:22Z</time></trkpt><trkpt lat="43.61485375508588" lon="12.507767546455842"><ele>652.0</ele><time>2026-04-25T10:27:23Z</time></trkpt><trkpt lat="43.614733313665056" lon="12.507748980827198"><ele>652.0</ele><time>2026-04-25T10:27:24Z</time></trkpt><trkpt lat="43.61462411723581" lon="12.507743562169049"><ele>652.0</ele><time>2026-04-25T10:27:25Z</time></trkpt><trkpt lat="43.61453932177464" lon="12.507757533121074"><ele>652.0</ele><time>2026-04-25T10:27:26Z</time></trkpt><trkpt lat="43.614432926736" lon="12.507848225969978"><ele>652.0</ele><time>2026-04-25T10:27:28Z</time></trkpt><trkpt lat="43.61440932037179" lon="12.508005750301457"><ele>652.0</ele><time>2026-04-25T10:27:30Z</time></trkpt><trkpt lat="43.61450648079808" lon="12.5082086673542"><ele>646.4</ele><time>2026-04-25T10:27:32Z</time></trkpt><trkpt lat="43.614586622450574" lon="12.508332407229947"><ele>640.8000000000001</ele><time>2026-04-25T10:27:33Z</time></trkpt><trkpt lat="43.614643645617676" lon="12.508436516065593"><ele>635.2</ele><time>2026-04-25T10:27:34Z</time></trkpt><trkpt lat="43.61467631926069" lon="12.50857685091844"><ele>629.6</ele><time>2026-04-25T10:27:36Z</time></trkpt><trkpt lat="43.61464451834026" lon="12.508695301065329"><ele>624.0</ele><time>2026-04-25T10:27:38Z</time></trkpt><trkpt lat="43.614543812105985" lon="12.508780664442535"><ele>621.0</ele><time>2026-04-25T10:27:40Z</time></trkpt><trkpt lat="43.61447515257111" lon="12.508820365560306"><ele>618.0</ele><time>2026-04-25T10:27:41Z</time></trkpt><trkpt lat="43.6144131510492" lon="12.508861011143816"><ele>615.0</ele><time>2026-04-25T10:27:42Z</time></trkpt><trkpt lat="43.6144350398641" lon="12.5090331509477"><ele>612.0</ele><time>2026-04-25T10:27:44Z</time></trkpt><trkpt lat="43.614491630376946" lon="12.50909947644691"><ele>609.0</ele><time>2026-04-25T10:27:45Z</time></trkpt><trkpt lat="43.6145902799224" lon="12.50917214059997"><ele>609.0</ele><time>2026-04-25T10:27:46Z</time></trkpt><trkpt lat="43.61469680022227" lon="12.509256861853363"><ele>609.0</ele><time>2026-04-25T10:27:47Z</time></trkpt><trkpt lat="43.61477163714255" lon="12.509399275723926"><ele>609.0</ele><time>2026-04-25T10:27:49Z</time></trkpt><trkpt lat="43.61482232103866" lon="12.5095417674102"><ele>609.0</ele><time>2026-04-25T10:27:50Z</time></trkpt><trkpt lat="43.61489039394178" lon="12.509697599039217"><ele>611.5</ele><time>2026-04-25T10:27:51Z</time></trkpt><trkpt lat="43.61496373579047" lon="12.509858959080372"><ele>614.0</ele><time>2026-04-25T10:27:52Z</time></trkpt><trkpt lat="43.61504591314441" lon="12.510024113437796"><ele>616.5</ele><time>2026-04-25T10:27:53Z</time></trkpt><trkpt lat="43.61511001154055" lon="12.510151175540315"><ele>619.0</ele><time>2026-04-25T10:27:54Z</time></trkpt><trkpt lat="43.61518390291426" lon="12.510273109718495"><ele>619.0</ele><time>2026-04-25T10:27:55Z</time></trkpt><trkpt lat="43.615253981788854" lon="12.510395252974162"><ele>619.0</ele><time>2026-04-25T10:27:56Z</time></trkpt><trkpt lat="43.6153238590072" lon="12.51051412376089"><ele>619.0</ele><time>2026-04-25T10:27:57Z</time></trkpt><trkpt lat="43.615384164603086" lon="12.510631521392481"><ele>619.0</ele><time>2026-04-25T10:27:58Z</time></trkpt><trkpt lat="43.61545699337724" lon="12.51072793422504"><ele>619.0</ele><time>2026-04-25T10:27:59Z</time></trkpt><trkpt lat="43.61551928681844" lon="12.510828175022397"><ele>615.3333333333334</ele><time>2026-04-25T10:28:00Z</time></trkpt><trkpt lat="43.615571725869735" lon="12.510921828716553"><ele>611.6666666666667</ele><time>2026-04-25T10:28:01Z</time></trkpt><trkpt lat="43.61562876725938" lon="12.511019169219297"><ele>608.0</ele><time>2026-04-25T10:28:02Z</time></trkpt><trkpt lat="43.615681636772806" lon="12.51109272851291"><ele>604.3333333333334</ele><time>2026-04-25T10:28:03Z</time></trkpt><trkpt lat="43.61571968678378" lon="12.511172880567383"><ele>600.6666666666666</ele><time>2026-04-25T10:28:04Z</time></trkpt><trkpt lat="43.615755367312154" lon="12.511273815748245"><ele>597.0</ele><time>2026-04-25T10:28:05Z</time></trkpt><trkpt lat="43.61579485695019" lon="12.511391822951603"><ele>597.0</ele><time>2026-04-25T10:28:06Z</time></trkpt><trkpt lat="43.61582445808863" lon="12.511483919167897"><ele>597.0</ele><time>2026-04-25T10:28:07Z</time></trkpt><trkpt lat="43.61577710482031" lon="12.511628094229277"><ele>597.0</ele><time>2026-04-25T10:28:09Z</time></trkpt><trkpt lat="43.6157182954382" lon="12.511736380473677"><ele>597.0</ele><time>2026-04-25T10:28:11Z</time></trkpt><trkpt lat="43.61577543174158" lon="12.51182973586979"><ele>597.0</ele><time>2026-04-25T10:28:13Z</time></trkpt><trkpt lat="43.6158706464511" lon="12.51189327761145"><ele>597.0</ele><time>2026-04-25T10:28:14Z</time></trkpt><trkpt lat="43.61595818889465" lon="12.511967139489878"><ele>597.0</ele><time>2026-04-25T10:28:15Z</time></trkpt><trkpt lat="43.616014822124384" lon="12.512032450002607"><ele>597.0</ele><time>2026-04-25T10:28:16Z</time></trkpt><trkpt lat="43.61606390957582" lon="12.512133380881457"><ele>597.0</ele><time>2026-04-25T10:28:17Z</time></trkpt><trkpt lat="43.61610050834652" lon="12.512280311435301"><ele>597.0</ele><time>2026-04-25T10:28:18Z</time></trkpt><trkpt lat="43.61616774573345" lon="12.51247397504065"><ele>592.75</ele><time>2026-04-25T10:28:19Z</time></trkpt><trkpt lat="43.616248673172514" lon="12.512649528109268"><ele>588.5</ele><time>2026-04-25T10:28:20Z</time></trkpt><trkpt lat="43.61632807672879" lon="12.512815155700197"><ele>584.25</ele><time>2026-04-25T10:28:21Z</time></trkpt><trkpt lat="43.61639083682814" lon="12.5129621379354"><ele>580.0</ele><time>2026-04-25T10:28:22Z</time></trkpt><trkpt lat="43.61644957765742" lon="12.513073910830546"><ele>580.0</ele><time>2026-04-25T10:28:23Z</time></trkpt><trkpt lat="43.616495631502275" lon="12.51315448605036"><ele>580.0</ele><time>2026-04-25T10:28:24Z</time></trkpt><trkpt lat="43.61653300887834" lon="12.513305856888524"><ele>580.0</ele><time>2026-04-25T10:28:26Z</time></trkpt><trkpt lat="43.6165212970272" lon="12.513473338345143"><ele>580.0</ele><time>2026-04-25T10:28:28Z</time></trkpt><trkpt lat="43.61655824754278" lon="12.513634048896357"><ele>580.0</ele><time>2026-04-25T10:28:30Z</time></trkpt><trkpt lat="43.616628677637145" lon="12.51368203794565"><ele>580.0</ele><time>2026-04-25T10:28:31Z</time></trkpt><trkpt lat="43.61672413336855" lon="12.513708313213279"><ele>580.0</ele><time>2026-04-25T10:28:32Z</time></trkpt><trkpt lat="43.61678488761634" lon="12.513738941320385"><ele>580.0</ele><time>2026-04-25T10:28:33Z</time></trkpt><trkpt lat="43.61683512664334" lon="12.513825459594571"><ele>580.0</ele><time>2026-04-25T10:28:34Z</time></trkpt><trkpt lat="43.61688721013212" lon="12.51389684358533"><ele>580.0</ele><time>2026-04-25T10:28:35Z</time></trkpt><trkpt lat="43.616946135544545" lon="12.514015151626996"><ele>580.0</ele><time>2026-04-25T10:28:36Z</time></trkpt><trkpt lat="43.61702545950353" lon="12.51416062706405"><ele>578.0</ele><time>2026-04-25T10:28:37Z</time></trkpt><trkpt lat="43.617112290303595" lon="12.514304144284866"><ele>576.0</ele><time>2026-04-25T10:28:38Z</time></trkpt><trkpt lat="43.61719701900175" lon="12.514439839951553"><ele>574.0</ele><time>2026-04-25T10:28:39Z</time></trkpt><trkpt lat="43.617257827771695" lon="12.514562838043783"><ele>572.0</ele><time>2026-04-25T10:28:40Z</time></trkpt><trkpt lat="43.61733992981702" lon="12.514680252990036"><ele>572.0</ele><time>2026-04-25T10:28:41Z</time></trkpt><trkpt lat="43.617426120622724" lon="12.514801028291595"><ele>572.0</ele><time>2026-04-25T10:28:42Z</time></trkpt><trkpt lat="43.6174985750641" lon="12.514910659554946"><ele>572.0</ele><time>2026-04-25T10:28:43Z</time></trkpt><trkpt lat="43.61756070075294" lon="12.515022219605216"><ele>572.0</ele><time>2026-04-25T10:28:44Z</time></trkpt><trkpt lat="43.617635221127465" lon="12.515148378810883"><ele>572.0</ele><time>2026-04-25T10:28:45Z</time></trkpt><trkpt lat="43.61771889059577" lon="12.515275209478192"><ele>572.0</ele><time>2026-04-25T10:28:46Z</time></trkpt><trkpt lat="43.61780261101353" lon="12.515431454289425"><ele>572.0</ele><time>2026-04-25T10:28:47Z</time></trkpt><trkpt lat="43.617883217221625" lon="12.515569821493585"><ele>572.0</ele><time>2026-04-25T10:28:48Z</time></trkpt><trkpt lat="43.61795271149748" lon="12.51569950902674"><ele>567.8333333333333</ele><time>2026-04-25T10:28:49Z</time></trkpt><trkpt lat="43.6179809745471" lon="12.515792067223568"><ele>563.6666666666666</ele><time>2026-04-25T10:28:50Z</time></trkpt><trkpt lat="43.61799715411888" lon="12.515882383168393"><ele>559.5</ele><time>2026-04-25T10:28:51Z</time></trkpt><trkpt lat="43.618002920787646" lon="12.515983811109624"><ele>555.3333333333334</ele><time>2026-04-25T10:28:52Z</time></trkpt><trkpt lat="43.61800488623602" lon="12.516083128865851"><ele>551.1666666666667</ele><time>2026-04-25T10:28:53Z</time></trkpt><trkpt lat="43.61810411328368" lon="12.516202898421096"><ele>547.0</ele><time>2026-04-25T10:28:55Z</time></trkpt><trkpt lat="43.618179669332434" lon="12.516315319026296"><ele>547.0</ele><time>2026-04-25T10:28:56Z</time></trkpt><trkpt lat="43.61823992312501" lon="12.5164165566671"><ele>547.0</ele><time>2026-04-25T10:28:57Z</time></trkpt><trkpt lat="43.61830161724135" lon="12.516541143562508"><ele>547.0</ele><time>2026-04-25T10:28:58Z</time></trkpt><trkpt lat="43.618349354518124" lon="12.516660304069108"><ele>547.0</ele><time>2026-04-25T10:28:59Z</time></trkpt><trkpt lat="43.61838138741934" lon="12.516788258000572"><ele>547.0</ele><time>2026-04-25T10:29:00Z</time></trkpt><trkpt lat="43.618414704815365" lon="12.516913139981865"><ele>547.0</ele><time>2026-04-25T10:29:01Z</time></trkpt><trkpt lat="43.61844541724905" lon="12.517044344794407"><ele>547.0</ele><time>2026-04-25T10:29:02Z</time></trkpt><trkpt lat="43.61846896851213" lon="12.51717246189166"><ele>547.0</ele><time>2026-04-25T10:29:03Z</time></trkpt><trkpt lat="43.618482429445756" lon="12.517285946912672"><ele>547.0</ele><time>2026-04-25T10:29:04Z</time></trkpt><trkpt lat="43.61846257198953" lon="12.517415551311244"><ele>547.0</ele><time>2026-04-25T10:29:06Z</time></trkpt><trkpt lat="43.618382283416906" lon="12.517452410189705"><ele>545.0</ele><time>2026-04-25T10:29:08Z</time></trkpt><trkpt lat="43.618279474995106" lon="12.517441107030649"><ele>543.0</ele><time>2026-04-25T10:29:10Z</time></trkpt><trkpt lat="43.61821678738693" lon="12.517427915465873"><ele>541.0</ele><time>2026-04-25T10:29:11Z</time></trkpt><trkpt lat="43.61814205869372" lon="12.517411591184063"><ele>539.0</ele><time>2026-04-25T10:29:12Z</time></trkpt><trkpt lat="43.61806978822509" lon="12.517399400741365"><ele>537.0</ele><time>2026-04-25T10:29:13Z</time></trkpt><trkpt lat="43.617994049247" lon="12.517388637385123"><ele>535.0</ele><time>2026-04-25T10:29:14Z</time></trkpt><trkpt lat="43.617907772937755" lon="12.517373513151055"><ele>537.0</ele><time>2026-04-25T10:29:15Z</time></trkpt><trkpt lat="43.617808721696534" lon="12.517363656235364"><ele>539.0</ele><time>2026-04-25T10:29:16Z</time></trkpt><trkpt lat="43.617725564053416" lon="12.517341301983995"><ele>541.0</ele><time>2026-04-25T10:29:17Z</time></trkpt><trkpt lat="43.6176528749644" lon="12.517322610057372"><ele>543.0</ele><time>2026-04-25T10:29:18Z</time></trkpt><trkpt lat="43.61755783993138" lon="12.517352487524459"><ele>545.0</ele><time>2026-04-25T10:29:20Z</time></trkpt><trkpt lat="43.61750084554314" lon="12.51749700256062"><ele>545.0</ele><time>2026-04-25T10:29:22Z</time></trkpt><trkpt lat="43.617394454981984" lon="12.51763159289102"><ele>545.0</ele><time>2026-04-25T10:29:24Z</time></trkpt><trkpt lat="43.61733661916474" lon="12.517692775124369"><ele>545.0</ele><time>2026-04-25T10:29:25Z</time></trkpt><trkpt lat="43.6172950701838" lon="12.51776552614459"><ele>545.0</ele><time>2026-04-25T10:29:26Z</time></trkpt><trkpt lat="43.61726429897493" lon="12.517868495699823"><ele>545.0</ele><time>2026-04-25T10:29:27Z</time></trkpt><trkpt lat="43.617245640666475" lon="12.517993954592212"><ele>539.6666666666666</ele><time>2026-04-25T10:29:28Z</time></trkpt><trkpt lat="43.61723664688806" lon="12.518108073825926"><ele>534.3333333333333</ele><time>2026-04-25T10:29:29Z</time></trkpt><trkpt lat="43.617230009073516" lon="12.518207522186078"><ele>529.0</ele><time>2026-04-25T10:29:30Z</time></trkpt><trkpt lat="43.617217433790785" lon="12.518347373271535"><ele>523.6666666666666</ele><time>2026-04-25T10:29:32Z</time></trkpt><trkpt lat="43.617277197359094" lon="12.51838450598369"><ele>518.3333333333334</ele><time>2026-04-25T10:29:35Z</time></trkpt><trkpt lat="43.61733007086027" lon="12.518317212997522"><ele>513.0</ele><time>2026-04-25T10:29:37Z</time></trkpt><trkpt lat="43.617370000927075" lon="12.518180249389035"><ele>513.0</ele><time>2026-04-25T10:29:39Z</time></trkpt><trkpt lat="43.617366532890976" lon="12.518086126183485"><ele>513.0</ele><time>2026-04-25T10:29:40Z</time></trkpt><trkpt lat="43.61737148451618" lon="12.517998080709273"><ele>513.0</ele><time>2026-04-25T10:29:41Z</time></trkpt><trkpt lat="43.617393812339046" lon="12.517849771521712"><ele>513.0</ele><time>2026-04-25T10:29:43Z</time></trkpt><trkpt lat="43.617458018853554" lon="12.517733596300033"><ele>513.0</ele><time>2026-04-25T10:29:45Z</time></trkpt><trkpt lat="43.61755087712159" lon="12.517654026082218"><ele>516.1428571428572</ele><time>2026-04-25T10:29:47Z</time></trkpt><trkpt lat="43.61761854680054" lon="12.517617622050674"><ele>519.2857142857143</ele><time>2026-04-25T10:29:48Z</time></trkpt><trkpt lat="43.617691649581964" lon="12.517589165082164"><ele>522.4285714285714</ele><time>2026-04-25T10:29:49Z</time></trkpt><trkpt lat="43.61776089064992" lon="12.51758969972715"><ele>525.5714285714287</ele><time>2026-04-25T10:29:50Z</time></trkpt><trkpt lat="43.61782063036693" lon="12.517626348531675"><ele>528.7142857142858</ele><time>2026-04-25T10:29:51Z</time></trkpt><trkpt lat="43.61787096090231" lon="12.517698060954016"><ele>531.8571428571429</ele><time>2026-04-25T10:29:52Z</time></trkpt><trkpt lat="43.61792970890197" lon="12.517766978415464"><ele>535.0</ele><time>2026-04-25T10:29:53Z</time></trkpt><trkpt lat="43.61799790550442" lon="12.517828529122495"><ele>535.0</ele><time>2026-04-25T10:29:54Z</time></trkpt><trkpt lat="43.6180648834989" lon="12.517869067508824"><ele>535.0</ele><time>2026-04-25T10:29:55Z</time></trkpt><trkpt lat="43.618140595077165" lon="12.517913626893133"><ele>535.0</ele><time>2026-04-25T10:29:56Z</time></trkpt><trkpt lat="43.61823844968346" lon="12.51797147509545"><ele>535.0</ele><time>2026-04-25T10:29:57Z</time></trkpt><trkpt lat="43.61832415059276" lon="12.518047510755629"><ele>535.0</ele><time>2026-04-25T10:29:58Z</time></trkpt><trkpt lat="43.618390478766614" lon="12.518129480581056"><ele>528.6</ele><time>2026-04-25T10:29:59Z</time></trkpt><trkpt lat="43.618461217766416" lon="12.518193858063674"><ele>522.2</ele><time>2026-04-25T10:30:00Z</time></trkpt><trkpt lat="43.618545954450525" lon="12.51822525814236"><ele>515.8</ele><time>2026-04-25T10:30:01Z</time></trkpt><trkpt lat="43.618645963445566" lon="12.518254329973264"><ele>509.4</ele><time>2026-04-25T10:30:02Z</time></trkpt><trkpt lat="43.618753959859276" lon="12.518284911196412"><ele>503.0</ele><time>2026-04-25T10:30:03Z</time></trkpt><trkpt lat="43.61885027104908" lon="12.518334434831193"><ele>501.2</ele><time>2026-04-25T10:30:04Z</time></trkpt><trkpt lat="43.61893264295512" lon="12.518403358224512"><ele>499.4</ele><time>2026-04-25T10:30:05Z</time></trkpt><trkpt lat="43.61900751615995" lon="12.518487586616631"><ele>497.59999999999997</ele><time>2026-04-25T10:30:06Z</time></trkpt><trkpt lat="43.619074616318045" lon="12.518578476615154"><ele>495.79999999999995</ele><time>2026-04-25T10:30:07Z</time></trkpt><trkpt lat="43.61912159099796" lon="12.518655615265041"><ele>494.0</ele><time>2026-04-25T10:30:08Z</time></trkpt><trkpt lat="43.61921812280993" lon="12.518711079350256"><ele>494.0</ele><time>2026-04-25T10:30:10Z</time></trkpt><trkpt lat="43.61929320718826" lon="12.518698005995732"><ele>494.0</ele><time>2026-04-25T10:30:12Z</time></trkpt><trkpt lat="43.61935022177106" lon="12.518550053985255"><ele>494.0</ele><time>2026-04-25T10:30:14Z</time></trkpt><trkpt lat="43.61936552668123" lon="12.518381343156843"><ele>494.0</ele><time>2026-04-25T10:30:16Z</time></trkpt><trkpt lat="43.619368536425114" lon="12.51829405424158"><ele>494.0</ele><time>2026-04-25T10:30:17Z</time></trkpt><trkpt lat="43.61937505371602" lon="12.518179738804013"><ele>493.99999999999994</ele><time>2026-04-25T10:30:18Z</time></trkpt><trkpt lat="43.619381824726524" lon="12.518075199811195"><ele>494.0</ele><time>2026-04-25T10:30:19Z</time></trkpt><trkpt lat="43.61936972324539" lon="12.517951382413779"><ele>494.0</ele><time>2026-04-25T10:30:20Z</time></trkpt><trkpt lat="43.619370959298436" lon="12.51784047199833"><ele>494.0</ele><time>2026-04-25T10:30:21Z</time></trkpt><trkpt lat="43.619364425193595" lon="12.517722659361"><ele>493.99999999999994</ele><time>2026-04-25T10:30:22Z</time></trkpt><trkpt lat="43.619359997825775" lon="12.517618298110529"><ele>494.0</ele><time>2026-04-25T10:30:23Z</time></trkpt><trkpt lat="43.61934518115029" lon="12.517517444490839"><ele>494.16666666666663</ele><time>2026-04-25T10:30:24Z</time></trkpt><trkpt lat="43.61932982573579" lon="12.517420791412697"><ele>494.3333333333333</ele><time>2026-04-25T10:30:25Z</time></trkpt><trkpt lat="43.61931530865121" lon="12.517333277100501"><ele>494.5</ele><time>2026-04-25T10:30:26Z</time></trkpt><trkpt lat="43.619305971831025" lon="12.517173388918236"><ele>494.66666666666663</ele><time>2026-04-25T10:30:28Z</time></trkpt><trkpt lat="43.61928139499809" lon="12.517066533836736"><ele>494.8333333333333</ele><time>2026-04-25T10:30:30Z</time></trkpt><trkpt lat="43.619362366420624" lon="12.5170358360151"><ele>495.0</ele><time>2026-04-25T10:30:33Z</time></trkpt><trkpt lat="43.61939852861812" lon="12.51716741066914"><ele>495.0</ele><time>2026-04-25T10:30:35Z</time></trkpt><trkpt lat="43.61943429492784" lon="12.5173144048155"><ele>495.0</ele><time>2026-04-25T10:30:37Z</time></trkpt><trkpt lat="43.6194815183563" lon="12.517470208877501"><ele>495.0</ele><time>2026-04-25T10:30:39Z</time></trkpt><trkpt lat="43.61952173676605" lon="12.517557878447365"><ele>495.0</ele><time>2026-04-25T10:30:40Z</time></trkpt><trkpt lat="43.619560261970626" lon="12.517643842410282"><ele>495.0</ele><time>2026-04-25T10:30:41Z</time></trkpt><trkpt lat="43.61959586949813" lon="12.517735184983982"><ele>488.0</ele><time>2026-04-25T10:30:42Z</time></trkpt><trkpt lat="43.619622322782725" lon="12.517836288262453"><ele>481.0</ele><time>2026-04-25T10:30:43Z</time></trkpt><trkpt lat="43.61965722362121" lon="12.51793717504851"><ele>474.0</ele><time>2026-04-25T10:30:44Z</time></trkpt><trkpt lat="43.61968082690564" lon="12.518039679553588"><ele>467.0</ele><time>2026-04-25T10:30:45Z</time></trkpt><trkpt lat="43.61970030700032" lon="12.51814294682588"><ele>460.0</ele><time>2026-04-25T10:30:46Z</time></trkpt><trkpt lat="43.61971785377071" lon="12.518241318160205"><ele>453.0</ele><time>2026-04-25T10:30:47Z</time></trkpt><trkpt lat="43.61975039513108" lon="12.518407740947618"><ele>452.0</ele><time>2026-04-25T10:30:49Z</time></trkpt><trkpt lat="43.61977854689665" lon="12.518486639772716"><ele>451.0</ele><time>2026-04-25T10:30:50Z</time></trkpt><trkpt lat="43.619824868139524" lon="12.518560519001614"><ele>450.0</ele><time>2026-04-25T10:30:51Z</time></trkpt><trkpt lat="43.61988228839046" lon="12.518636853089298"><ele>449.0</ele><time>2026-04-25T10:30:52Z</time></trkpt><trkpt lat="43.61994651808523" lon="12.518717415472869"><ele>448.0</ele><time>2026-04-25T10:30:53Z</time></trkpt><trkpt lat="43.62000165549595" lon="12.518802430837034"><ele>447.0</ele><time>2026-04-25T10:30:54Z</time></trkpt><trkpt lat="43.620053008475125" lon="12.518882922998179"><ele>447.0</ele><time>2026-04-25T10:30:55Z</time></trkpt><trkpt lat="43.62008755189692" lon="12.519012037227446"><ele>447.0</ele><time>2026-04-25T10:30:57Z</time></trkpt><trkpt lat="43.62011551305716" lon="12.519181260467729"><ele>447.0</ele><time>2026-04-25T10:30:59Z</time></trkpt><trkpt lat="43.620120598484995" lon="12.519284285076585"><ele>447.0</ele><time>2026-04-25T10:31:00Z</time></trkpt><trkpt lat="43.62012638622782" lon="12.519395746013103"><ele>447.0</ele><time>2026-04-25T10:31:01Z</time></trkpt><trkpt lat="43.62012636578761" lon="12.519484267108691"><ele>447.0</ele><time>2026-04-25T10:31:02Z</time></trkpt><trkpt lat="43.62012734525056" lon="12.519575181456721"><ele>446.5</ele><time>2026-04-25T10:31:04Z</time></trkpt><trkpt lat="43.62013732625279" lon="12.519662096179314"><ele>446.0</ele><time>2026-04-25T10:31:07Z</time></trkpt><trkpt lat="43.62022121129597" lon="12.519658446364065"><ele>445.5</ele><time>2026-04-25T10:31:09Z</time></trkpt><trkpt lat="43.62027871216152" lon="12.519585142296124"><ele>445.0</ele><time>2026-04-25T10:31:11Z</time></trkpt><trkpt lat="43.62032563392943" lon="12.519522248832507"><ele>444.5</ele><time>2026-04-25T10:31:13Z</time></trkpt><trkpt lat="43.62040959651875" lon="12.519599109454747"><ele>444.0</ele><time>2026-04-25T10:31:15Z</time></trkpt><trkpt lat="43.620462264941864" lon="12.51965580287858"><ele>444.0</ele><time>2026-04-25T10:31:16Z</time></trkpt><trkpt lat="43.620554846181925" lon="12.51977255130371"><ele>444.0</ele><time>2026-04-25T10:31:18Z</time></trkpt><trkpt lat="43.620593016583975" lon="12.519908130634791"><ele>444.0</ele><time>2026-04-25T10:31:20Z</time></trkpt><trkpt lat="43.62063403013315" lon="12.519990327929316"><ele>444.0</ele><time>2026-04-25T10:31:21Z</time></trkpt><trkpt lat="43.62066768328392" lon="12.520082308392274"><ele>444.0</ele><time>2026-04-25T10:31:22Z</time></trkpt><trkpt lat="43.62069995450488" lon="12.52017369303677"><ele>444.0</ele><time>2026-04-25T10:31:23Z</time></trkpt><trkpt lat="43.62073027708563" lon="12.520264608459094"><ele>444.0</ele><time>2026-04-25T10:31:24Z</time></trkpt><trkpt lat="43.62077213282876" lon="12.520359086492904"><ele>444.0</ele><time>2026-04-25T10:31:25Z</time></trkpt><trkpt lat="43.62082020433839" lon="12.52045773227786"><ele>444.0</ele><time>2026-04-25T10:31:26Z</time></trkpt><trkpt lat="43.62087715937508" lon="12.520558745265129"><ele>444.0</ele><time>2026-04-25T10:31:27Z</time></trkpt><trkpt lat="43.62093945177451" lon="12.52065791058663"><ele>444.0</ele><time>2026-04-25T10:31:28Z</time></trkpt><trkpt lat="43.62100954140501" lon="12.520758521895297"><ele>442.1666666666667</ele><time>2026-04-25T10:31:29Z</time></trkpt><trkpt lat="43.62107007553151" lon="12.520862583377502"><ele>440.33333333333337</ele><time>2026-04-25T10:31:30Z</time></trkpt><trkpt lat="43.62111168427189" lon="12.520968519449452"><ele>438.5</ele><time>2026-04-25T10:31:31Z</time></trkpt><trkpt lat="43.621146462392744" lon="12.52108045765953"><ele>436.6666666666667</ele><time>2026-04-25T10:31:32Z</time></trkpt><trkpt lat="43.62118088789202" lon="12.521184513046732"><ele>434.83333333333337</ele><time>2026-04-25T10:31:33Z</time></trkpt><trkpt lat="43.621232825561776" lon="12.521284770408846"><ele>433.0</ele><time>2026-04-25T10:31:34Z</time></trkpt><trkpt lat="43.62128546288375" lon="12.521370582359737"><ele>432.33333333333337</ele><time>2026-04-25T10:31:35Z</time></trkpt><trkpt lat="43.62133206160249" lon="12.52145256688403"><ele>431.6666666666667</ele><time>2026-04-25T10:31:36Z</time></trkpt><trkpt lat="43.62137269389806" lon="12.521526348587141"><ele>431.0</ele><time>2026-04-25T10:31:37Z</time></trkpt><trkpt lat="43.62144573403873" lon="12.521654106646523"><ele>430.33333333333337</ele><time>2026-04-25T10:31:39Z</time></trkpt><trkpt lat="43.621524125223715" lon="12.52178274052564"><ele>429.6666666666667</ele><time>2026-04-25T10:31:41Z</time></trkpt><trkpt lat="43.621569604046464" lon="12.52184476326081"><ele>429.0</ele><time>2026-04-25T10:31:42Z</time></trkpt><trkpt lat="43.621618764155976" lon="12.521900296596645"><ele>429.0</ele><time>2026-04-25T10:31:43Z</time></trkpt><trkpt lat="43.62171185048784" lon="12.521999550113243"><ele>429.0</ele><time>2026-04-25T10:31:45Z</time></trkpt><trkpt lat="43.6217660401743" lon="12.522156217981282"><ele>429.0</ele><time>2026-04-25T10:31:47Z</time></trkpt><trkpt lat="43.62178388445593" lon="12.522284768608127"><ele>429.0</ele><time>2026-04-25T10:31:48Z</time></trkpt><trkpt lat="43.62181551666677" lon="12.522406961486329"><ele>429.0</ele><time>2026-04-25T10:31:49Z</time></trkpt><trkpt lat="43.62184865478057" lon="12.522501845439537"><ele>428.79999999999995</ele><time>2026-04-25T10:31:50Z</time></trkpt><trkpt lat="43.62189174220744" lon="12.522589808870093"><ele>428.59999999999997</ele><time>2026-04-25T10:31:51Z</time></trkpt><trkpt lat="43.621938949179686" lon="12.522701813329718"><ele>428.4</ele><time>2026-04-25T10:31:52Z</time></trkpt><trkpt lat="43.6219967794414" lon="12.522828621047424"><ele>428.2</ele><time>2026-04-25T10:31:53Z</time></trkpt><trkpt lat="43.62207387933707" lon="12.522963287659223"><ele>428.0</ele><time>2026-04-25T10:31:54Z</time></trkpt><trkpt lat="43.62215391384811" lon="12.523090387901167"><ele>424.59999999999997</ele><time>2026-04-25T10:31:55Z</time></trkpt><trkpt lat="43.62224575407603" lon="12.523188256578536"><ele>421.19999999999993</ele><time>2026-04-25T10:31:56Z</time></trkpt><trkpt lat="43.62232795238839" lon="12.523222331759344"><ele>417.8</ele><time>2026-04-25T10:31:57Z</time></trkpt><trkpt lat="43.62242939193938" lon="12.523243396504546"><ele>414.4</ele><time>2026-04-25T10:31:58Z</time></trkpt><trkpt lat="43.62253670186172" lon="12.523256243305458"><ele>411.0</ele><time>2026-04-25T10:31:59Z</time></trkpt><trkpt lat="43.62265403710842" lon="12.523244025819622"><ele>411.0</ele><time>2026-04-25T10:32:00Z</time></trkpt><trkpt lat="43.62279888637695" lon="12.52321672739717"><ele>411.0</ele><time>2026-04-25T10:32:01Z</time></trkpt><trkpt lat="43.62294720907482" lon="12.523192674806786"><ele>411.0</ele><time>2026-04-25T10:32:02Z</time></trkpt><trkpt lat="43.623123825816215" lon="12.523196279276293"><ele>412.66666666666663</ele><time>2026-04-25T10:32:03Z</time></trkpt><trkpt lat="43.62331415104523" lon="12.523224253574162"><ele>414.3333333333333</ele><time>2026-04-25T10:32:04Z</time></trkpt><trkpt lat="43.62347374035045" lon="12.523259065792406"><ele>416.0</ele><time>2026-04-25T10:32:05Z</time></trkpt><trkpt lat="43.623605057360336" lon="12.523301277694435"><ele>415.4</ele><time>2026-04-25T10:32:06Z</time></trkpt><trkpt lat="43.62370495509049" lon="12.523349188328046"><ele>414.8</ele><time>2026-04-25T10:32:07Z</time></trkpt><trkpt lat="43.6237807295805" lon="12.523416167916443"><ele>414.2</ele><time>2026-04-25T10:32:08Z</time></trkpt><trkpt lat="43.62384463199839" lon="12.523520634211344"><ele>413.59999999999997</ele><time>2026-04-25T10:32:09Z</time></trkpt><trkpt lat="43.62393358193496" lon="12.523656239976832"><ele>413.0</ele><time>2026-04-25T10:32:10Z</time></trkpt><trkpt lat="43.62402015888404" lon="12.52380586004831"><ele>413.0</ele><time>2026-04-25T10:32:11Z</time></trkpt><trkpt lat="43.624087114634285" lon="12.523948859461237"><ele>413.0</ele><time>2026-04-25T10:32:12Z</time></trkpt><trkpt lat="43.62414274983334" lon="12.524069861957269"><ele>413.0</ele><time>2026-04-25T10:32:13Z</time></trkpt><trkpt lat="43.62420540695789" lon="12.524169152997002"><ele>413.0</ele><time>2026-04-25T10:32:14Z</time></trkpt><trkpt lat="43.624285934385405" lon="12.52423768134459"><ele>413.0</ele><time>2026-04-25T10:32:15Z</time></trkpt><trkpt lat="43.624373403318955" lon="12.524299090947581"><ele>413.0</ele><time>2026-04-25T10:32:16Z</time></trkpt><trkpt lat="43.624457319302365" lon="12.524357540253412"><ele>413.0</ele><time>2026-04-25T10:32:17Z</time></trkpt><trkpt lat="43.62453235088293" lon="12.52438496755082"><ele>413.0</ele><time>2026-04-25T10:32:18Z</time></trkpt><trkpt lat="43.624649285267466" lon="12.524422449779056"><ele>413.0</ele><time>2026-04-25T10:32:19Z</time></trkpt><trkpt lat="43.624757469416934" lon="12.524455088930965"><ele>413.0</ele><time>2026-04-25T10:32:20Z</time></trkpt><trkpt lat="43.62487755715053" lon="12.524498892748289"><ele>410.0</ele><time>2026-04-25T10:32:21Z</time></trkpt><trkpt lat="43.62497686747741" lon="12.524571363515077"><ele>407.0</ele><time>2026-04-25T10:32:22Z</time></trkpt><trkpt lat="43.625086900698406" lon="12.524658143394506"><ele>404.0</ele><time>2026-04-25T10:32:23Z</time></trkpt><trkpt lat="43.62519257178961" lon="12.524732390820194"><ele>401.0</ele><time>2026-04-25T10:32:24Z</time></trkpt><trkpt lat="43.62529678368008" lon="12.524783700880114"><ele>400.4</ele><time>2026-04-25T10:32:25Z</time></trkpt><trkpt lat="43.62539866859187" lon="12.524814047390947"><ele>399.8</ele><time>2026-04-25T10:32:26Z</time></trkpt><trkpt lat="43.6254888058376" lon="12.524838720700807"><ele>399.2</ele><time>2026-04-25T10:32:27Z</time></trkpt><trkpt lat="43.62557933133399" lon="12.524871386793592"><ele>398.59999999999997</ele><time>2026-04-25T10:32:28Z</time></trkpt><trkpt lat="43.62566026735667" lon="12.524933838597745"><ele>398.0</ele><time>2026-04-25T10:32:29Z</time></trkpt><trkpt lat="43.6257457936344" lon="12.525003142494425"><ele>398.0</ele><time>2026-04-25T10:32:30Z</time></trkpt><trkpt lat="43.625841369326544" lon="12.525077908163174"><ele>398.0</ele><time>2026-04-25T10:32:31Z</time></trkpt><trkpt lat="43.62593095514279" lon="12.525144516020504"><ele>398.0</ele><time>2026-04-25T10:32:32Z</time></trkpt><trkpt lat="43.62602434804478" lon="12.525192769580102"><ele>398.0</ele><time>2026-04-25T10:32:33Z</time></trkpt><trkpt lat="43.62610469263999" lon="12.525223720800884"><ele>398.0</ele><time>2026-04-25T10:32:34Z</time></trkpt><trkpt lat="43.626178860156344" lon="12.52524549135166"><ele>398.99999999999994</ele><time>2026-04-25T10:32:35Z</time></trkpt><trkpt lat="43.62627843232957" lon="12.52525850165969"><ele>400.0</ele><time>2026-04-25T10:32:36Z</time></trkpt><trkpt lat="43.62637033019651" lon="12.525267716597268"><ele>401.0</ele><time>2026-04-25T10:32:37Z</time></trkpt><trkpt lat="43.62644949700199" lon="12.525270655837678"><ele>402.0</ele><time>2026-04-25T10:32:38Z</time></trkpt><trkpt lat="43.62654736074677" lon="12.525281677420738"><ele>402.99999999999994</ele><time>2026-04-25T10:32:39Z</time></trkpt><trkpt lat="43.626623780079896" lon="12.52529500390469"><ele>404.0</ele><time>2026-04-25T10:32:40Z</time></trkpt><trkpt lat="43.62670839713043" lon="12.52531131067156"><ele>404.0</ele><time>2026-04-25T10:32:41Z</time></trkpt><trkpt lat="43.6268163384295" lon="12.52531672424305"><ele>404.0</ele><time>2026-04-25T10:32:42Z</time></trkpt><trkpt lat="43.626938864269185" lon="12.525315016737313"><ele>404.0</ele><time>2026-04-25T10:32:43Z</time></trkpt><trkpt lat="43.62706943219494" lon="12.525306701142615"><ele>404.0</ele><time>2026-04-25T10:32:44Z</time></trkpt><trkpt lat="43.62719512440874" lon="12.525297203106158"><ele>404.0</ele><time>2026-04-25T10:32:45Z</time></trkpt><trkpt lat="43.62731337138503" lon="12.525285796035082"><ele>404.0</ele><time>2026-04-25T10:32:46Z</time></trkpt><trkpt lat="43.62741381155858" lon="12.525274735498279"><ele>404.0</ele><time>2026-04-25T10:32:47Z</time></trkpt><trkpt lat="43.62749706820173" lon="12.525262828238377"><ele>404.0</ele><time>2026-04-25T10:32:48Z</time></trkpt><trkpt lat="43.627601261333716" lon="12.525256942842082"><ele>404.0</ele><time>2026-04-25T10:32:49Z</time></trkpt><trkpt lat="43.6277173645884" lon="12.525264889054863"><ele>403.0</ele><time>2026-04-25T10:32:50Z</time></trkpt><trkpt lat="43.62783529454687" lon="12.525290843844163"><ele>402.0</ele><time>2026-04-25T10:32:51Z</time></trkpt><trkpt lat="43.62792927826235" lon="12.525321953596256"><ele>401.0</ele><time>2026-04-25T10:32:52Z</time></trkpt><trkpt lat="43.62800438779271" lon="12.525341505213428"><ele>400.0</ele><time>2026-04-25T10:32:53Z</time></trkpt><trkpt lat="43.6280691879293" lon="12.525349684066533"><ele>399.0</ele><time>2026-04-25T10:32:54Z</time></trkpt><trkpt lat="43.62819042823077" lon="12.525400743371573"><ele>399.0</ele><time>2026-04-25T10:32:56Z</time></trkpt><trkpt lat="43.62826608538847" lon="12.525455472627813"><ele>399.0</ele><time>2026-04-25T10:32:57Z</time></trkpt><trkpt lat="43.62835202029445" lon="12.525504469366686"><ele>399.0</ele><time>2026-04-25T10:32:58Z</time></trkpt><trkpt lat="43.628438650543956" lon="12.525548493148227"><ele>399.0</ele><time>2026-04-25T10:32:59Z</time></trkpt><trkpt lat="43.628520749984894" lon="12.525590411321454"><ele>399.0</ele><time>2026-04-25T10:33:00Z</time></trkpt><trkpt lat="43.628591123145945" lon="12.525652730012022"><ele>399.0</ele><time>2026-04-25T10:33:01Z</time></trkpt><trkpt lat="43.62864251849739" lon="12.525748974269744"><ele>399.0</ele><time>2026-04-25T10:33:02Z</time></trkpt><trkpt lat="43.628663552296665" lon="12.525869483667584"><ele>399.0</ele><time>2026-04-25T10:33:03Z</time></trkpt><trkpt lat="43.628650236076766" lon="12.525987022556075"><ele>399.0</ele><time>2026-04-25T10:33:04Z</time></trkpt><trkpt lat="43.62859787774873" lon="12.52607601144952"><ele>399.0</ele><time>2026-04-25T10:33:05Z</time></trkpt><trkpt lat="43.6285197301559" lon="12.526134417635053"><ele>399.0</ele><time>2026-04-25T10:33:06Z</time></trkpt><trkpt lat="43.62841710673664" lon="12.526179159602084"><ele>399.0</ele><time>2026-04-25T10:33:07Z</time></trkpt><trkpt lat="43.62830904265894" lon="12.52622248365247"><ele>399.0</ele><time>2026-04-25T10:33:08Z</time></trkpt><trkpt lat="43.628210085832734" lon="12.526259119515897"><ele>399.0</ele><time>2026-04-25T10:33:09Z</time></trkpt><trkpt lat="43.62811068205134" lon="12.52629453787114"><ele>399.0</ele><time>2026-04-25T10:33:10Z</time></trkpt><trkpt lat="43.628021485310626" lon="12.526319926717843"><ele>399.0</ele><time>2026-04-25T10:33:11Z</time></trkpt><trkpt lat="43.627948285989014" lon="12.52636451005114"><ele>397.4</ele><time>2026-04-25T10:33:12Z</time></trkpt><trkpt lat="43.627887723278086" lon="12.526442609573174"><ele>395.79999999999995</ele><time>2026-04-25T10:33:13Z</time></trkpt><trkpt lat="43.62786376328764" lon="12.526537325991681"><ele>394.20000000000005</ele><time>2026-04-25T10:33:14Z</time></trkpt><trkpt lat="43.627849605125974" lon="12.526662335355766"><ele>392.6</ele><time>2026-04-25T10:33:15Z</time></trkpt><trkpt lat="43.6278387948266" lon="12.526806181377573"><ele>391.0</ele><time>2026-04-25T10:33:16Z</time></trkpt><trkpt lat="43.62783231023201" lon="12.526965532242917"><ele>388.5</ele><time>2026-04-25T10:33:17Z</time></trkpt><trkpt lat="43.627820534165416" lon="12.527156064366268"><ele>386.0</ele><time>2026-04-25T10:33:18Z</time></trkpt><trkpt lat="43.627812342784694" lon="12.527321803785144"><ele>383.5</ele><time>2026-04-25T10:33:19Z</time></trkpt><trkpt lat="43.62780488870131" lon="12.527504256423196"><ele>381.0</ele><time>2026-04-25T10:33:20Z</time></trkpt><trkpt lat="43.627798463864856" lon="12.527662874131924"><ele>381.0</ele><time>2026-04-25T10:33:21Z</time></trkpt><trkpt lat="43.627789221228255" lon="12.527789673088298"><ele>381.0</ele><time>2026-04-25T10:33:22Z</time></trkpt><trkpt lat="43.627785108472324" lon="12.527893976090738"><ele>381.0</ele><time>2026-04-25T10:33:23Z</time></trkpt><trkpt lat="43.62781952648613" lon="12.528046773146507"><ele>381.0</ele><time>2026-04-25T10:33:25Z</time></trkpt><trkpt lat="43.62789333280087" lon="12.528133748741421"><ele>381.0</ele><time>2026-04-25T10:33:27Z</time></trkpt><trkpt lat="43.62799994686597" lon="12.52819520203353"><ele>380.85714285714283</ele><time>2026-04-25T10:33:29Z</time></trkpt><trkpt lat="43.62806353188918" lon="12.528228800594327"><ele>380.7142857142857</ele><time>2026-04-25T10:33:30Z</time></trkpt><trkpt lat="43.628129824204024" lon="12.52826596169537"><ele>380.57142857142856</ele><time>2026-04-25T10:33:31Z</time></trkpt><trkpt lat="43.62819634342521" lon="12.528295289483994"><ele>380.42857142857144</ele><time>2026-04-25T10:33:32Z</time></trkpt><trkpt lat="43.628260784366" lon="12.528326969313014"><ele>380.28571428571433</ele><time>2026-04-25T10:33:33Z</time></trkpt><trkpt lat="43.628328616853096" lon="12.528363604832565"><ele>380.14285714285717</ele><time>2026-04-25T10:33:34Z</time></trkpt><trkpt lat="43.62839357823675" lon="12.52842403214981"><ele>380.0</ele><time>2026-04-25T10:33:35Z</time></trkpt><trkpt lat="43.62844936268236" lon="12.52850126212387"><ele>380.0</ele><time>2026-04-25T10:33:36Z</time></trkpt><trkpt lat="43.62848984304515" lon="12.528593777969826"><ele>380.0</ele><time>2026-04-25T10:33:37Z</time></trkpt><trkpt lat="43.628510047507994" lon="12.528705286862735"><ele>380.0</ele><time>2026-04-25T10:33:38Z</time></trkpt><trkpt lat="43.62850298762545" lon="12.528847189553778"><ele>380.0</ele><time>2026-04-25T10:33:39Z</time></trkpt><trkpt lat="43.628481364984474" lon="12.529007032291123"><ele>380.0</ele><time>2026-04-25T10:33:40Z</time></trkpt><trkpt lat="43.628449715551795" lon="12.529174747371293"><ele>379.5</ele><time>2026-04-25T10:33:41Z</time></trkpt><trkpt lat="43.628420218431586" lon="12.52935019213928"><ele>379.0</ele><time>2026-04-25T10:33:42Z</time></trkpt><trkpt lat="43.628410175566906" lon="12.529521302696185"><ele>378.5</ele><time>2026-04-25T10:33:43Z</time></trkpt><trkpt lat="43.6284200283137" lon="12.52968970177091"><ele>378.0</ele><time>2026-04-25T10:33:44Z</time></trkpt><trkpt lat="43.62846440467251" lon="12.529858784129297"><ele>378.0</ele><time>2026-04-25T10:33:45Z</time></trkpt><trkpt lat="43.628532750104526" lon="12.530043733268586"><ele>378.0</ele><time>2026-04-25T10:33:46Z</time></trkpt><trkpt lat="43.62860192598497" lon="12.530243974744563"><ele>378.0</ele><time>2026-04-25T10:33:47Z</time></trkpt><trkpt lat="43.62866379399054" lon="12.530427650376811"><ele>374.75</ele><time>2026-04-25T10:33:48Z</time></trkpt><trkpt lat="43.62871396080398" lon="12.530599836124606"><ele>371.5</ele><time>2026-04-25T10:33:49Z</time></trkpt><trkpt lat="43.62876040352666" lon="12.530751279918487"><ele>368.25</ele><time>2026-04-25T10:33:50Z</time></trkpt><trkpt lat="43.628808753588835" lon="12.530906007294131"><ele>365.0</ele><time>2026-04-25T10:33:51Z</time></trkpt><trkpt lat="43.62885164984424" lon="12.531073140594117"><ele>369.0</ele><time>2026-04-25T10:33:52Z</time></trkpt><trkpt lat="43.62889094257782" lon="12.531246318115246"><ele>373.0</ele><time>2026-04-25T10:33:53Z</time></trkpt><trkpt lat="43.62893577182947" lon="12.531411941016483"><ele>377.0</ele><time>2026-04-25T10:33:54Z</time></trkpt><trkpt lat="43.62899390971028" lon="12.531563990569621"><ele>381.0</ele><time>2026-04-25T10:33:55Z</time></trkpt><trkpt lat="43.629069775317426" lon="12.531704081522482"><ele>381.0</ele><time>2026-04-25T10:33:56Z</time></trkpt><trkpt lat="43.62916535913563" lon="12.53182241770456"><ele>381.0</ele><time>2026-04-25T10:33:57Z</time></trkpt><trkpt lat="43.629281714547574" lon="12.531930605667997"><ele>381.0</ele><time>2026-04-25T10:33:58Z</time></trkpt><trkpt lat="43.62938724414566" lon="12.53202033420529"><ele>381.0</ele><time>2026-04-25T10:33:59Z</time></trkpt><trkpt lat="43.62947416518185" lon="12.532096830450376"><ele>381.6</ele><time>2026-04-25T10:34:00Z</time></trkpt><trkpt lat="43.629535405944814" lon="12.532203785206137"><ele>382.20000000000005</ele><time>2026-04-25T10:34:01Z</time></trkpt><trkpt lat="43.629581590624966" lon="12.532349318180895"><ele>382.79999999999995</ele><time>2026-04-25T10:34:02Z</time></trkpt><trkpt lat="43.629605928091394" lon="12.532499876764598"><ele>383.4</ele><time>2026-04-25T10:34:03Z</time></trkpt><trkpt lat="43.629612995486134" lon="12.532645846080527"><ele>384.0</ele><time>2026-04-25T10:34:04Z</time></trkpt><trkpt lat="43.62960528439957" lon="12.532768154837996"><ele>384.0</ele><time>2026-04-25T10:34:05Z</time></trkpt><trkpt lat="43.62950732103315" lon="12.532840200530742"><ele>384.0</ele><time>2026-04-25T10:34:06Z</time></trkpt><trkpt lat="43.62945321685728" lon="12.5329161796148"><ele>384.0</ele><time>2026-04-25T10:34:07Z</time></trkpt><trkpt lat="43.62933387648558" lon="12.532997578013426"><ele>384.0</ele><time>2026-04-25T10:34:09Z</time></trkpt><trkpt lat="43.6292345023696" lon="12.533058759051237"><ele>384.0</ele><time>2026-04-25T10:34:10Z</time></trkpt><trkpt lat="43.62912308875797" lon="12.53311294518576"><ele>384.75</ele><time>2026-04-25T10:34:11Z</time></trkpt><trkpt lat="43.62898905101164" lon="12.533173389279744"><ele>385.5</ele><time>2026-04-25T10:34:12Z</time></trkpt><trkpt lat="43.62884134743773" lon="12.533233754855063"><ele>386.25</ele><time>2026-04-25T10:34:13Z</time></trkpt><trkpt lat="43.628695766120785" lon="12.533305044062413"><ele>387.0</ele><time>2026-04-25T10:34:14Z</time></trkpt><trkpt lat="43.62857365563765" lon="12.533390045851313"><ele>387.0</ele><time>2026-04-25T10:34:15Z</time></trkpt><trkpt lat="43.62846584283182" lon="12.533490161731153"><ele>387.0</ele><time>2026-04-25T10:34:16Z</time></trkpt><trkpt lat="43.628382325815785" lon="12.533619142213182"><ele>387.0</ele><time>2026-04-25T10:34:17Z</time></trkpt><trkpt lat="43.62832555564182" lon="12.533754524436194"><ele>387.0</ele><time>2026-04-25T10:34:18Z</time></trkpt><trkpt lat="43.62830344870944" lon="12.533908823292265"><ele>384.1666666666667</ele><time>2026-04-25T10:34:19Z</time></trkpt><trkpt lat="43.6282383761878" lon="12.53401253146537"><ele>381.3333333333333</ele><time>2026-04-25T10:34:20Z</time></trkpt><trkpt lat="43.62818269050301" lon="12.534104775987698"><ele>378.5</ele><time>2026-04-25T10:34:21Z</time></trkpt><trkpt lat="43.62811657240532" lon="12.534165204200935"><ele>375.66666666666663</ele><time>2026-04-25T10:34:22Z</time></trkpt><trkpt lat="43.62803618067706" lon="12.534211014807884"><ele>372.8333333333333</ele><time>2026-04-25T10:34:23Z</time></trkpt><trkpt lat="43.62797812040147" lon="12.534268061970618"><ele>370.0</ele><time>2026-04-25T10:34:24Z</time></trkpt><trkpt lat="43.62792511991412" lon="12.534320137653413"><ele>370.0</ele><time>2026-04-25T10:34:25Z</time></trkpt><trkpt lat="43.627887737306686" lon="12.534392516309229"><ele>370.0</ele><time>2026-04-25T10:34:26Z</time></trkpt><trkpt lat="43.62790992738066" lon="12.53452754380781"><ele>370.0</ele><time>2026-04-25T10:34:27Z</time></trkpt><trkpt lat="43.627981748911616" lon="12.534626066510691"><ele>370.0</ele><time>2026-04-25T10:34:28Z</time></trkpt><trkpt lat="43.62804926768555" lon="12.534751193220295"><ele>370.0</ele><time>2026-04-25T10:34:29Z</time></trkpt><trkpt lat="43.62813063725791" lon="12.534870261338465"><ele>367.75</ele><time>2026-04-25T10:34:30Z</time></trkpt><trkpt lat="43.628220754836796" lon="12.53498885274109"><ele>365.5</ele><time>2026-04-25T10:34:31Z</time></trkpt><trkpt lat="43.6283012454105" lon="12.535120959665264"><ele>363.25</ele><time>2026-04-25T10:34:32Z</time></trkpt><trkpt lat="43.62838889100739" lon="12.535227070195972"><ele>361.0</ele><time>2026-04-25T10:34:33Z</time></trkpt><trkpt lat="43.62847325367749" lon="12.535327119292601"><ele>361.4</ele><time>2026-04-25T10:34:34Z</time></trkpt><trkpt lat="43.62855478464664" lon="12.535415230059762"><ele>361.8</ele><time>2026-04-25T10:34:35Z</time></trkpt><trkpt lat="43.628640648912814" lon="12.535481719170427"><ele>362.2</ele><time>2026-04-25T10:34:36Z</time></trkpt><trkpt lat="43.628688759862555" lon="12.535564204160895"><ele>362.59999999999997</ele><time>2026-04-25T10:34:38Z</time></trkpt><trkpt lat="43.62857414981726" lon="12.535550899463804"><ele>363.0</ele><time>2026-04-25T10:34:41Z</time></trkpt><trkpt lat="43.62850383183454" lon="12.53561648038923"><ele>363.0</ele><time>2026-04-25T10:34:43Z</time></trkpt><trkpt lat="43.62841576740077" lon="12.535721720961355"><ele>363.0</ele><time>2026-04-25T10:34:45Z</time></trkpt><trkpt lat="43.628354434937975" lon="12.535780537455684"><ele>363.0</ele><time>2026-04-25T10:34:46Z</time></trkpt><trkpt lat="43.6282803800697" lon="12.535864996206543"><ele>363.0</ele><time>2026-04-25T10:34:47Z</time></trkpt><trkpt lat="43.62819164090701" lon="12.535962243856057"><ele>363.0</ele><time>2026-04-25T10:34:48Z</time></trkpt><trkpt lat="43.628089589600535" lon="12.5360866371808"><ele>366.0</ele><time>2026-04-25T10:34:49Z</time></trkpt><trkpt lat="43.627986436923834" lon="12.536232047998023"><ele>369.0</ele><time>2026-04-25T10:34:50Z</time></trkpt><trkpt lat="43.62789926842085" lon="12.536368948421"><ele>372.0</ele><time>2026-04-25T10:34:51Z</time></trkpt><trkpt lat="43.62783247602919" lon="12.536511017109506"><ele>375.0</ele><time>2026-04-25T10:34:52Z</time></trkpt><trkpt lat="43.627764313794266" lon="12.536657366392333"><ele>375.0</ele><time>2026-04-25T10:34:53Z</time></trkpt><trkpt lat="43.62769077048389" lon="12.536800869425797"><ele>375.0</ele><time>2026-04-25T10:34:54Z</time></trkpt><trkpt lat="43.627615685062025" lon="12.536945941189874"><ele>375.0</ele><time>2026-04-25T10:34:55Z</time></trkpt><trkpt lat="43.627537599584684" lon="12.53710169189204"><ele>375.0</ele><time>2026-04-25T10:34:56Z</time></trkpt><trkpt lat="43.62745861290335" lon="12.53726465198596"><ele>377.25</ele><time>2026-04-25T10:34:57Z</time></trkpt><trkpt lat="43.627383503612926" lon="12.537422395933653"><ele>379.5</ele><time>2026-04-25T10:34:58Z</time></trkpt><trkpt lat="43.62731345200392" lon="12.537570586414803"><ele>381.75</ele><time>2026-04-25T10:34:59Z</time></trkpt><trkpt lat="43.62724399531691" lon="12.5377175184928"><ele>384.0</ele><time>2026-04-25T10:35:00Z</time></trkpt><trkpt lat="43.62718282841731" lon="12.537871381617238"><ele>383.75</ele><time>2026-04-25T10:35:01Z</time></trkpt><trkpt lat="43.62712656498508" lon="12.538026822445362"><ele>383.5</ele><time>2026-04-25T10:35:02Z</time></trkpt><trkpt lat="43.62707078818733" lon="12.538195952555204"><ele>383.25</ele><time>2026-04-25T10:35:03Z</time></trkpt><trkpt lat="43.627021133866286" lon="12.538368239217178"><ele>383.0</ele><time>2026-04-25T10:35:04Z</time></trkpt><trkpt lat="43.62699518108846" lon="12.538544268525232"><ele>384.0</ele><time>2026-04-25T10:35:05Z</time></trkpt><trkpt lat="43.62694897966887" lon="12.538701002147628"><ele>385.0</ele><time>2026-04-25T10:35:06Z</time></trkpt><trkpt lat="43.626883962792235" lon="12.538812104791322"><ele>386.0</ele><time>2026-04-25T10:35:07Z</time></trkpt><trkpt lat="43.62682236058257" lon="12.538900990027921"><ele>387.0</ele><time>2026-04-25T10:35:08Z</time></trkpt><trkpt lat="43.62675821514236" lon="12.53897354019519"><ele>388.0</ele><time>2026-04-25T10:35:09Z</time></trkpt><trkpt lat="43.626661511555625" lon="12.539046178300502"><ele>389.75</ele><time>2026-04-25T10:35:10Z</time></trkpt><trkpt lat="43.62653803968752" lon="12.539136276597587"><ele>391.5</ele><time>2026-04-25T10:35:11Z</time></trkpt><trkpt lat="43.62642329478684" lon="12.539233293807445"><ele>393.25</ele><time>2026-04-25T10:35:12Z</time></trkpt><trkpt lat="43.62630972360034" lon="12.539346953789646"><ele>395.0</ele><time>2026-04-25T10:35:13Z</time></trkpt><trkpt lat="43.626195447436544" lon="12.53949456065365"><ele>399.0</ele><time>2026-04-25T10:35:14Z</time></trkpt><trkpt lat="43.626090213750864" lon="12.539642967143864"><ele>403.0</ele><time>2026-04-25T10:35:15Z</time></trkpt><trkpt lat="43.62597668686354" lon="12.539776084220618"><ele>407.0</ele><time>2026-04-25T10:35:16Z</time></trkpt><trkpt lat="43.62585935386694" lon="12.539919794987519"><ele>407.0</ele><time>2026-04-25T10:35:17Z</time></trkpt><trkpt lat="43.62575503371657" lon="12.540048947223056"><ele>407.0</ele><time>2026-04-25T10:35:18Z</time></trkpt><trkpt lat="43.625649058111534" lon="12.540151260337225"><ele>407.0</ele><time>2026-04-25T10:35:19Z</time></trkpt><trkpt lat="43.62554900030986" lon="12.540232388283204"><ele>407.0</ele><time>2026-04-25T10:35:20Z</time></trkpt><trkpt lat="43.62545047776834" lon="12.540287137248962"><ele>407.0</ele><time>2026-04-25T10:35:21Z</time></trkpt><trkpt lat="43.62536452738942" lon="12.540346632217616"><ele>407.0</ele><time>2026-04-25T10:35:22Z</time></trkpt><trkpt lat="43.625280352386994" lon="12.5404180255337"><ele>407.0</ele><time>2026-04-25T10:35:23Z</time></trkpt><trkpt lat="43.62525326268965" lon="12.540576563452772"><ele>407.0</ele><time>2026-04-25T10:35:24Z</time></trkpt><trkpt lat="43.625205118613735" lon="12.540679085365097"><ele>407.0</ele><time>2026-04-25T10:35:25Z</time></trkpt><trkpt lat="43.62516465464254" lon="12.540830653828566"><ele>412.75</ele><time>2026-04-25T10:35:26Z</time></trkpt><trkpt lat="43.625085319572406" lon="12.54098957116389"><ele>418.5</ele><time>2026-04-25T10:35:27Z</time></trkpt><trkpt lat="43.62501352475348" lon="12.541153713816247"><ele>424.25</ele><time>2026-04-25T10:35:28Z</time></trkpt><trkpt lat="43.624942299575984" lon="12.541311397361982"><ele>430.0</ele><time>2026-04-25T10:35:29Z</time></trkpt><trkpt lat="43.62486276888847" lon="12.54146614168945"><ele>433.0</ele><time>2026-04-25T10:35:30Z</time></trkpt><trkpt lat="43.624776035419394" lon="12.54160055651727"><ele>436.0</ele><time>2026-04-25T10:35:31Z</time></trkpt><trkpt lat="43.6246867426897" lon="12.541724712757118"><ele>439.0</ele><time>2026-04-25T10:35:32Z</time></trkpt><trkpt lat="43.62459727063878" lon="12.54184831450131"><ele>442.0</ele><time>2026-04-25T10:35:33Z</time></trkpt><trkpt lat="43.624506594608" lon="12.541971521779569"><ele>444.8</ele><time>2026-04-25T10:35:34Z</time></trkpt><trkpt lat="43.62442694172328" lon="12.542078097727536"><ele>447.6</ele><time>2026-04-25T10:35:35Z</time></trkpt><trkpt lat="43.62434846057179" lon="12.54217906866414"><ele>450.40000000000003</ele><time>2026-04-25T10:35:36Z</time></trkpt><trkpt lat="43.624268444330895" lon="12.542278237269903"><ele>453.20000000000005</ele><time>2026-04-25T10:35:37Z</time></trkpt><trkpt lat="43.6241936370141" lon="12.542362557262377"><ele>456.0</ele><time>2026-04-25T10:35:38Z</time></trkpt><trkpt lat="43.62411387669366" lon="12.542431412122918"><ele>456.0</ele><time>2026-04-25T10:35:39Z</time></trkpt><trkpt lat="43.62403176337937" lon="12.542474264430904"><ele>456.0</ele><time>2026-04-25T10:35:40Z</time></trkpt><trkpt lat="43.62395645788469" lon="12.542486921540169"><ele>456.0</ele><time>2026-04-25T10:35:41Z</time></trkpt><trkpt lat="43.62387675032847" lon="12.542485550872604"><ele>456.0</ele><time>2026-04-25T10:35:42Z</time></trkpt><trkpt lat="43.62378696068047" lon="12.542487578973674"><ele>456.0</ele><time>2026-04-25T10:35:43Z</time></trkpt><trkpt lat="43.62370520899593" lon="12.542487578975262"><ele>456.0</ele><time>2026-04-25T10:35:44Z</time></trkpt><trkpt lat="43.62363609028252" lon="12.542507925850092"><ele>456.4</ele><time>2026-04-25T10:35:45Z</time></trkpt><trkpt lat="43.62356305156716" lon="12.542629230135882"><ele>456.8</ele><time>2026-04-25T10:35:47Z</time></trkpt><trkpt lat="43.62354470797718" lon="12.542737710297748"><ele>457.19999999999993</ele><time>2026-04-25T10:35:48Z</time></trkpt><trkpt lat="43.6235095323759" lon="12.542865631198513"><ele>457.59999999999997</ele><time>2026-04-25T10:35:49Z</time></trkpt><trkpt lat="43.62346088577474" lon="12.543001958880575"><ele>458.0</ele><time>2026-04-25T10:35:50Z</time></trkpt><trkpt lat="43.62341619417678" lon="12.543111578342382"><ele>457.99999999999994</ele><time>2026-04-25T10:35:51Z</time></trkpt><trkpt lat="43.623374826365605" lon="12.543205691210426"><ele>458.0</ele><time>2026-04-25T10:35:52Z</time></trkpt><trkpt lat="43.623335886667434" lon="12.543294455484993"><ele>458.0</ele><time>2026-04-25T10:35:53Z</time></trkpt><trkpt lat="43.62330180771016" lon="12.543371951433162"><ele>458.0</ele><time>2026-04-25T10:35:54Z</time></trkpt><trkpt lat="43.62324867592639" lon="12.543491409996108"><ele>457.99999999999994</ele><time>2026-04-25T10:35:56Z</time></trkpt><trkpt lat="43.62319751699679" lon="12.543605012893536"><ele>458.0</ele><time>2026-04-25T10:35:58Z</time></trkpt><trkpt lat="43.62315181151482" lon="12.543706505989903"><ele>457.2</ele><time>2026-04-25T10:36:00Z</time></trkpt><trkpt lat="43.62308646588389" lon="12.543851087386296"><ele>456.4</ele><time>2026-04-25T10:36:02Z</time></trkpt><trkpt lat="43.623040527353396" lon="12.543952330869882"><ele>455.59999999999997</ele><time>2026-04-25T10:36:03Z</time></trkpt><trkpt lat="43.622991166743404" lon="12.544061116244169"><ele>454.79999999999995</ele><time>2026-04-25T10:36:04Z</time></trkpt><trkpt lat="43.62293586715936" lon="12.54417995245957"><ele>454.0</ele><time>2026-04-25T10:36:05Z</time></trkpt><trkpt lat="43.62287166120487" lon="12.544315974822597"><ele>451.4</ele><time>2026-04-25T10:36:06Z</time></trkpt><trkpt lat="43.62280661556215" lon="12.544452828800255"><ele>448.79999999999995</ele><time>2026-04-25T10:36:07Z</time></trkpt><trkpt lat="43.622751536088444" lon="12.544569829043589"><ele>446.20000000000005</ele><time>2026-04-25T10:36:08Z</time></trkpt><trkpt lat="43.62270540482814" lon="12.544667978237253"><ele>443.6</ele><time>2026-04-25T10:36:09Z</time></trkpt><trkpt lat="43.62266542360366" lon="12.54475588266011"><ele>441.0</ele><time>2026-04-25T10:36:10Z</time></trkpt><trkpt lat="43.62262548907342" lon="12.54484569782081"><ele>441.0</ele><time>2026-04-25T10:36:11Z</time></trkpt><trkpt lat="43.62258603292038" lon="12.54493743081851"><ele>441.0</ele><time>2026-04-25T10:36:12Z</time></trkpt><trkpt lat="43.6225482465476" lon="12.545027156284295"><ele>441.0</ele><time>2026-04-25T10:36:13Z</time></trkpt><trkpt lat="43.622510012551366" lon="12.545116902862219"><ele>441.0</ele><time>2026-04-25T10:36:14Z</time></trkpt><trkpt lat="43.62247144557695" lon="12.545204157636311"><ele>441.0</ele><time>2026-04-25T10:36:15Z</time></trkpt><trkpt lat="43.62243343428493" lon="12.545287710158627"><ele>441.0</ele><time>2026-04-25T10:36:16Z</time></trkpt><trkpt lat="43.622393296024775" lon="12.545363670174655"><ele>441.0</ele><time>2026-04-25T10:36:17Z</time></trkpt><trkpt lat="43.62234642307619" lon="12.545438011866755"><ele>439.4</ele><time>2026-04-25T10:36:18Z</time></trkpt><trkpt lat="43.62229543405825" lon="12.545506227036341"><ele>437.8</ele><time>2026-04-25T10:36:19Z</time></trkpt><trkpt lat="43.62223526552482" lon="12.545569011881863"><ele>436.19999999999993</ele><time>2026-04-25T10:36:20Z</time></trkpt><trkpt lat="43.62215277217054" lon="12.545616149244713"><ele>434.59999999999997</ele><time>2026-04-25T10:36:21Z</time></trkpt><trkpt lat="43.62204469274944" lon="12.545678523741632"><ele>433.0</ele><time>2026-04-25T10:36:22Z</time></trkpt><trkpt lat="43.62192301700554" lon="12.545743770696427"><ele>430.4</ele><time>2026-04-25T10:36:23Z</time></trkpt><trkpt lat="43.62181969473624" lon="12.545804333623249"><ele>427.79999999999995</ele><time>2026-04-25T10:36:24Z</time></trkpt><trkpt lat="43.6217357002991" lon="12.545871946477012"><ele>425.2</ele><time>2026-04-25T10:36:25Z</time></trkpt><trkpt lat="43.621663634704575" lon="12.54596799212761"><ele>422.6</ele><time>2026-04-25T10:36:26Z</time></trkpt><trkpt lat="43.621567637097094" lon="12.546048588115045"><ele>420.0</ele><time>2026-04-25T10:36:27Z</time></trkpt><trkpt lat="43.62148917071755" lon="12.54617253371761"><ele>419.5</ele><time>2026-04-25T10:36:28Z</time></trkpt><trkpt lat="43.621407720173615" lon="12.546277813533665"><ele>419.0</ele><time>2026-04-25T10:36:29Z</time></trkpt><trkpt lat="43.6213337193538" lon="12.5463700217413"><ele>418.5</ele><time>2026-04-25T10:36:30Z</time></trkpt><trkpt lat="43.62125136097201" lon="12.546408979327271"><ele>418.0</ele><time>2026-04-25T10:36:31Z</time></trkpt><trkpt lat="43.62118105942361" lon="12.546439393957117"><ele>417.5</ele><time>2026-04-25T10:36:32Z</time></trkpt><trkpt lat="43.62110834151323" lon="12.546411680904354"><ele>417.0</ele><time>2026-04-25T10:36:33Z</time></trkpt><trkpt lat="43.62103597500598" lon="12.546372160517773"><ele>415.5</ele><time>2026-04-25T10:36:34Z</time></trkpt><trkpt lat="43.62096017872687" lon="12.546291128054246"><ele>414.0</ele><time>2026-04-25T10:36:35Z</time></trkpt><trkpt lat="43.62086859970491" lon="12.546182574540177"><ele>412.5</ele><time>2026-04-25T10:36:36Z</time></trkpt><trkpt lat="43.62075877931943" lon="12.546068795930239"><ele>411.0</ele><time>2026-04-25T10:36:37Z</time></trkpt><trkpt lat="43.620637491776414" lon="12.545957962772452"><ele>411.0</ele><time>2026-04-25T10:36:38Z</time></trkpt><trkpt lat="43.62051704749098" lon="12.545827974516444"><ele>411.0</ele><time>2026-04-25T10:36:39Z</time></trkpt><trkpt lat="43.620400092123994" lon="12.545687509012803"><ele>411.0</ele><time>2026-04-25T10:36:40Z</time></trkpt><trkpt lat="43.62028666140939" lon="12.545564640784765"><ele>410.6</ele><time>2026-04-25T10:36:41Z</time></trkpt><trkpt lat="43.6201913465249" lon="12.545469649721236"><ele>410.20000000000005</ele><time>2026-04-25T10:36:42Z</time></trkpt><trkpt lat="43.62010917233162" lon="12.545396620698707"><ele>409.79999999999995</ele><time>2026-04-25T10:36:43Z</time></trkpt><trkpt lat="43.62002177008399" lon="12.545366720814068"><ele>409.4</ele><time>2026-04-25T10:36:44Z</time></trkpt><trkpt lat="43.6199326817818" lon="12.545376826349795"><ele>409.0</ele><time>2026-04-25T10:36:45Z</time></trkpt><trkpt lat="43.61982195888856" lon="12.54537811546343"><ele>409.0</ele><time>2026-04-25T10:36:46Z</time></trkpt><trkpt lat="43.61970334467938" lon="12.545427726543315"><ele>409.0</ele><time>2026-04-25T10:36:47Z</time></trkpt><trkpt lat="43.61960536558921" lon="12.545499088572997"><ele>409.0</ele><time>2026-04-25T10:36:48Z</time></trkpt><trkpt lat="43.619503748292715" lon="12.545551507293137"><ele>409.0</ele><time>2026-04-25T10:36:49Z</time></trkpt><trkpt lat="43.61940745098273" lon="12.545625397750815"><ele>410.5</ele><time>2026-04-25T10:36:50Z</time></trkpt><trkpt lat="43.61929317839426" lon="12.545717085439346"><ele>412.0</ele><time>2026-04-25T10:36:51Z</time></trkpt><trkpt lat="43.619167007808194" lon="12.545819978873748"><ele>413.5</ele><time>2026-04-25T10:36:52Z</time></trkpt><trkpt lat="43.61902811527478" lon="12.545915020719947"><ele>415.0</ele><time>2026-04-25T10:36:53Z</time></trkpt><trkpt lat="43.6189087176363" lon="12.546050189337263"><ele>415.0</ele><time>2026-04-25T10:36:54Z</time></trkpt><trkpt lat="43.61879849319316" lon="12.546159541721051"><ele>415.0</ele><time>2026-04-25T10:36:55Z</time></trkpt><trkpt lat="43.61867916155242" lon="12.546256306997645"><ele>415.0</ele><time>2026-04-25T10:36:56Z</time></trkpt><trkpt lat="43.6185527192416" lon="12.54639867773951"><ele>415.0</ele><time>2026-04-25T10:36:57Z</time></trkpt><trkpt lat="43.61843354537005" lon="12.546545622539474"><ele>412.5</ele><time>2026-04-25T10:36:58Z</time></trkpt><trkpt lat="43.61832977342381" lon="12.54668001235462"><ele>410.0</ele><time>2026-04-25T10:36:59Z</time></trkpt><trkpt lat="43.6182331294274" lon="12.546809494839401"><ele>407.5</ele><time>2026-04-25T10:37:00Z</time></trkpt><trkpt lat="43.618156051751434" lon="12.546934485344098"><ele>405.0</ele><time>2026-04-25T10:37:01Z</time></trkpt><trkpt lat="43.618081805741895" lon="12.547075364818355"><ele>401.6</ele><time>2026-04-25T10:37:02Z</time></trkpt><trkpt lat="43.618024275831324" lon="12.547203942122517"><ele>398.2</ele><time>2026-04-25T10:37:03Z</time></trkpt><trkpt lat="43.6179890498601" lon="12.54733425964431"><ele>394.79999999999995</ele><time>2026-04-25T10:37:04Z</time></trkpt><trkpt lat="43.61799170292416" lon="12.547467910828109"><ele>391.4</ele><time>2026-04-25T10:37:05Z</time></trkpt><trkpt lat="43.6179445934304" lon="12.547578662641493"><ele>388.0</ele><time>2026-04-25T10:37:06Z</time></trkpt><trkpt lat="43.61790961646159" lon="12.547676495144238"><ele>388.00000000000006</ele><time>2026-04-25T10:37:07Z</time></trkpt><trkpt lat="43.61786171352489" lon="12.547759445216482"><ele>388.0</ele><time>2026-04-25T10:37:08Z</time></trkpt><trkpt lat="43.61777469536186" lon="12.5478320620579"><ele>388.0</ele><time>2026-04-25T10:37:10Z</time></trkpt><trkpt lat="43.617715136200836" lon="12.547796822314924"><ele>388.0</ele><time>2026-04-25T10:37:13Z</time></trkpt><trkpt lat="43.61766920721509" lon="12.547718079560994"><ele>388.00000000000006</ele><time>2026-04-25T10:37:15Z</time></trkpt><trkpt lat="43.61757265877871" lon="12.547613498668095"><ele>388.0</ele><time>2026-04-25T10:37:17Z</time></trkpt><trkpt lat="43.61751066094769" lon="12.547671577108485"><ele>389.59999999999997</ele><time>2026-04-25T10:37:18Z</time></trkpt><trkpt lat="43.617408808234366" lon="12.547653346345712"><ele>391.2</ele><time>2026-04-25T10:37:19Z</time></trkpt><trkpt lat="43.61730073322461" lon="12.54762576885556"><ele>392.8</ele><time>2026-04-25T10:37:20Z</time></trkpt><trkpt lat="43.617199786370435" lon="12.54755657970412"><ele>394.4</ele><time>2026-04-25T10:37:21Z</time></trkpt><trkpt lat="43.61712431574432" lon="12.547480194181189"><ele>396.0</ele><time>2026-04-25T10:37:22Z</time></trkpt><trkpt lat="43.61707565751798" lon="12.547417074410742"><ele>396.0</ele><time>2026-04-25T10:37:23Z</time></trkpt><trkpt lat="43.6169850449011" lon="12.547435228678694"><ele>396.0</ele><time>2026-04-25T10:37:25Z</time></trkpt><trkpt lat="43.616967794681784" lon="12.547580407489129"><ele>396.0</ele><time>2026-04-25T10:37:27Z</time></trkpt><trkpt lat="43.61696335582856" lon="12.547669264634083"><ele>396.0</ele><time>2026-04-25T10:37:28Z</time></trkpt><trkpt lat="43.617018552058944" lon="12.547779403328105"><ele>396.0</ele><time>2026-04-25T10:37:29Z</time></trkpt><trkpt lat="43.61705782735095" lon="12.547988437753066"><ele>393.0</ele><time>2026-04-25T10:37:30Z</time></trkpt><trkpt lat="43.61707253443694" lon="12.548191483048779"><ele>390.0</ele><time>2026-04-25T10:37:31Z</time></trkpt><trkpt lat="43.61709283871854" lon="12.548380565879105"><ele>387.0</ele><time>2026-04-25T10:37:32Z</time></trkpt><trkpt lat="43.617108752690456" lon="12.548530558462973"><ele>384.0</ele><time>2026-04-25T10:37:33Z</time></trkpt><trkpt lat="43.61709406037664" lon="12.548772874490956"><ele>381.0</ele><time>2026-04-25T10:37:34Z</time></trkpt><trkpt lat="43.617079688428824" lon="12.549007611411813"><ele>378.0</ele><time>2026-04-25T10:37:35Z</time></trkpt><trkpt lat="43.61706479941766" lon="12.549265412696801"><ele>375.0</ele><time>2026-04-25T10:37:36Z</time></trkpt><trkpt lat="43.617055734328126" lon="12.54949347768309"><ele>373.0</ele><time>2026-04-25T10:37:37Z</time></trkpt><trkpt lat="43.61704465089827" lon="12.549694844121309"><ele>371.0</ele><time>2026-04-25T10:37:38Z</time></trkpt><trkpt lat="43.617034430270785" lon="12.549874100608912"><ele>369.0</ele><time>2026-04-25T10:37:39Z</time></trkpt><trkpt lat="43.61702649814648" lon="12.550049134369981"><ele>367.0</ele><time>2026-04-25T10:37:40Z</time></trkpt><trkpt lat="43.61702903154146" lon="12.55022338720415"><ele>363.5</ele><time>2026-04-25T10:37:41Z</time></trkpt><trkpt lat="43.61703681170922" lon="12.550387019781882"><ele>360.0</ele><time>2026-04-25T10:37:42Z</time></trkpt><trkpt lat="43.61705095942258" lon="12.55053275977145"><ele>356.5</ele><time>2026-04-25T10:37:43Z</time></trkpt><trkpt lat="43.61708781334349" lon="12.550705723806205"><ele>353.0</ele><time>2026-04-25T10:37:44Z</time></trkpt><trkpt lat="43.617156071579984" lon="12.55090065921458"><ele>353.0</ele><time>2026-04-25T10:37:45Z</time></trkpt><trkpt lat="43.61721344714809" lon="12.551129473340259"><ele>353.0</ele><time>2026-04-25T10:37:46Z</time></trkpt><trkpt lat="43.61726191889262" lon="12.551334680703091"><ele>353.0</ele><time>2026-04-25T10:37:47Z</time></trkpt><trkpt lat="43.61729097560851" lon="12.551540052854573"><ele>352.0</ele><time>2026-04-25T10:37:48Z</time></trkpt><trkpt lat="43.61731167853702" lon="12.551728449875384"><ele>351.0</ele><time>2026-04-25T10:37:49Z</time></trkpt><trkpt lat="43.617327473768626" lon="12.55191934851088"><ele>350.0</ele><time>2026-04-25T10:37:50Z</time></trkpt><trkpt lat="43.61735203730861" lon="12.55216138918672"><ele>350.0</ele><time>2026-04-25T10:37:51Z</time></trkpt><trkpt lat="43.61738024081695" lon="12.552409010392998"><ele>350.0</ele><time>2026-04-25T10:37:52Z</time></trkpt><trkpt lat="43.617400041308734" lon="12.55261007165179"><ele>350.0</ele><time>2026-04-25T10:37:53Z</time></trkpt><trkpt lat="43.61740760494565" lon="12.552767074901787"><ele>350.0</ele><time>2026-04-25T10:37:54Z</time></trkpt><trkpt lat="43.61743589866463" lon="12.55288562379404"><ele>351.0</ele><time>2026-04-25T10:37:55Z</time></trkpt><trkpt lat="43.61751763655221" lon="12.552988483474055"><ele>352.0</ele><time>2026-04-25T10:37:57Z</time></trkpt><trkpt lat="43.61765103536941" lon="12.552996343491792"><ele>353.0</ele><time>2026-04-25T10:37:59Z</time></trkpt><trkpt lat="43.61773159701615" lon="12.55298989491805"><ele>354.0</ele><time>2026-04-25T10:38:00Z</time></trkpt><trkpt lat="43.61783567728893" lon="12.552975579421867"><ele>355.0</ele><time>2026-04-25T10:38:01Z</time></trkpt><trkpt lat="43.61797349007186" lon="12.553029892118014"><ele>356.0</ele><time>2026-04-25T10:38:02Z</time></trkpt><trkpt lat="43.618129150012585" lon="12.553076967658631"><ele>357.0</ele><time>2026-04-25T10:38:03Z</time></trkpt><trkpt lat="43.618284377612085" lon="12.553138516829573"><ele>358.0</ele><time>2026-04-25T10:38:04Z</time></trkpt><trkpt lat="43.61842822056096" lon="12.553248143796681"><ele>358.0</ele><time>2026-04-25T10:38:05Z</time></trkpt><trkpt lat="43.61856795501605" lon="12.553348987751322"><ele>358.0</ele><time>2026-04-25T10:38:06Z</time></trkpt><trkpt lat="43.61870616321334" lon="12.55340472117604"><ele>358.0</ele><time>2026-04-25T10:38:07Z</time></trkpt><trkpt lat="43.61883245274181" lon="12.553475676536925"><ele>358.0</ele><time>2026-04-25T10:38:08Z</time></trkpt><trkpt lat="43.618923470023056" lon="12.553599898706375"><ele>359.79999999999995</ele><time>2026-04-25T10:38:09Z</time></trkpt><trkpt lat="43.61901335369143" lon="12.553714571246047"><ele>361.6</ele><time>2026-04-25T10:38:10Z</time></trkpt><trkpt lat="43.619081007128024" lon="12.55383402431899"><ele>363.4</ele><time>2026-04-25T10:38:11Z</time></trkpt><trkpt lat="43.61911984193264" lon="12.553933075041606"><ele>365.20000000000005</ele><time>2026-04-25T10:38:12Z</time></trkpt><trkpt lat="43.619093612566225" lon="12.554040548305428"><ele>367.0</ele><time>2026-04-25T10:38:13Z</time></trkpt><trkpt lat="43.6191226147183" lon="12.554183939083847"><ele>367.0</ele><time>2026-04-25T10:38:14Z</time></trkpt><trkpt lat="43.6191559012713" lon="12.554314265992792"><ele>367.0</ele><time>2026-04-25T10:38:15Z</time></trkpt><trkpt lat="43.61919354257931" lon="12.554436309533257"><ele>367.0</ele><time>2026-04-25T10:38:16Z</time></trkpt><trkpt lat="43.61920423007825" lon="12.554550633934891"><ele>367.0</ele><time>2026-04-25T10:38:17Z</time></trkpt><trkpt lat="43.61918797810674" lon="12.554644777036751"><ele>367.0</ele><time>2026-04-25T10:38:18Z</time></trkpt><trkpt lat="43.61916477199395" lon="12.55475788764168"><ele>367.0</ele><time>2026-04-25T10:38:19Z</time></trkpt><trkpt lat="43.619053083307115" lon="12.554800442760774"><ele>366.3333333333333</ele><time>2026-04-25T10:38:20Z</time></trkpt><trkpt lat="43.618951957942876" lon="12.554908774909318"><ele>365.6666666666667</ele><time>2026-04-25T10:38:21Z</time></trkpt><trkpt lat="43.61881357894124" lon="12.555027177738333"><ele>365.0</ele><time>2026-04-25T10:38:22Z</time></trkpt><trkpt lat="43.618665154528706" lon="12.55518440084723"><ele>365.6666666666667</ele><time>2026-04-25T10:38:23Z</time></trkpt><trkpt lat="43.61854810095656" lon="12.55537103511925"><ele>366.3333333333333</ele><time>2026-04-25T10:38:24Z</time></trkpt><trkpt lat="43.618414884534104" lon="12.555606320107206"><ele>367.0</ele><time>2026-04-25T10:38:25Z</time></trkpt><trkpt lat="43.618279745258896" lon="12.55585319358615"><ele>367.0</ele><time>2026-04-25T10:38:26Z</time></trkpt><trkpt lat="43.61815723567596" lon="12.556070688399359"><ele>367.0</ele><time>2026-04-25T10:38:27Z</time></trkpt><trkpt lat="43.61808613542341" lon="12.556309307851102"><ele>367.0</ele><time>2026-04-25T10:38:28Z</time></trkpt><trkpt lat="43.61802208705975" lon="12.556503409235978"><ele>367.8</ele><time>2026-04-25T10:38:29Z</time></trkpt><trkpt lat="43.61795531427283" lon="12.556625498243221"><ele>368.6</ele><time>2026-04-25T10:38:30Z</time></trkpt><trkpt lat="43.617881338656034" lon="12.556715932370718"><ele>369.40000000000003</ele><time>2026-04-25T10:38:31Z</time></trkpt><trkpt lat="43.617799618129695" lon="12.556829145140426"><ele>370.20000000000005</ele><time>2026-04-25T10:38:32Z</time></trkpt><trkpt lat="43.61774024694318" lon="12.556906827629799"><ele>371.0</ele><time>2026-04-25T10:38:33Z</time></trkpt><trkpt lat="43.617685351014224" lon="12.556950488935486"><ele>371.0</ele><time>2026-04-25T10:38:34Z</time></trkpt><trkpt lat="43.617615472941004" lon="12.556961541496708"><ele>371.0</ele><time>2026-04-25T10:38:35Z</time></trkpt><trkpt lat="43.617550966385224" lon="12.556897294609584"><ele>371.0</ele><time>2026-04-25T10:38:36Z</time></trkpt><trkpt lat="43.61742175732729" lon="12.556850060719409"><ele>371.0</ele><time>2026-04-25T10:38:37Z</time></trkpt><trkpt lat="43.617272882667514" lon="12.556809542159707"><ele>371.0</ele><time>2026-04-25T10:38:38Z</time></trkpt><trkpt lat="43.61711196728489" lon="12.556794599299486"><ele>372.25</ele><time>2026-04-25T10:38:39Z</time></trkpt><trkpt lat="43.61697606243193" lon="12.55681507373045"><ele>373.5</ele><time>2026-04-25T10:38:40Z</time></trkpt><trkpt lat="43.616857343319786" lon="12.556887330601109"><ele>374.75</ele><time>2026-04-25T10:38:41Z</time></trkpt><trkpt lat="43.61674935305433" lon="12.556982478908447"><ele>376.0</ele><time>2026-04-25T10:38:42Z</time></trkpt><trkpt lat="43.616647911290606" lon="12.557119837479203"><ele>371.3333333333333</ele><time>2026-04-25T10:38:43Z</time></trkpt><trkpt lat="43.61653947316227" lon="12.557294251091507"><ele>366.6666666666667</ele><time>2026-04-25T10:38:44Z</time></trkpt><trkpt lat="43.61639521885547" lon="12.557485807732242"><ele>362.0</ele><time>2026-04-25T10:38:45Z</time></trkpt><trkpt lat="43.616271157726416" lon="12.557747918053652"><ele>358.6666666666667</ele><time>2026-04-25T10:38:46Z</time></trkpt><trkpt lat="43.61615657034136" lon="12.557939819144629"><ele>355.3333333333333</ele><time>2026-04-25T10:38:47Z</time></trkpt><trkpt lat="43.6160537716607" lon="12.558085252173735"><ele>352.0</ele><time>2026-04-25T10:38:48Z</time></trkpt><trkpt lat="43.6159523404064" lon="12.55818247162307"><ele>352.0</ele><time>2026-04-25T10:38:49Z</time></trkpt><trkpt lat="43.615867645713394" lon="12.558307231752117"><ele>352.0</ele><time>2026-04-25T10:38:50Z</time></trkpt><trkpt lat="43.615842991802204" lon="12.558453493840467"><ele>352.0</ele><time>2026-04-25T10:38:51Z</time></trkpt><trkpt lat="43.61580246620728" lon="12.558591229271965"><ele>352.0</ele><time>2026-04-25T10:38:52Z</time></trkpt><trkpt lat="43.615770615761015" lon="12.558761497706346"><ele>352.66666666666663</ele><time>2026-04-25T10:38:53Z</time></trkpt><trkpt lat="43.615731973787135" lon="12.558970948638326"><ele>353.3333333333333</ele><time>2026-04-25T10:38:54Z</time></trkpt><trkpt lat="43.6156912327279" lon="12.559169565318967"><ele>354.0</ele><time>2026-04-25T10:38:55Z</time></trkpt><trkpt lat="43.61562912230437" lon="12.559352801171254"><ele>352.25</ele><time>2026-04-25T10:38:56Z</time></trkpt><trkpt lat="43.615583720398526" lon="12.559538487424948"><ele>350.5</ele><time>2026-04-25T10:38:57Z</time></trkpt><trkpt lat="43.615543347462356" lon="12.559705822293866"><ele>348.75</ele><time>2026-04-25T10:38:58Z</time></trkpt><trkpt lat="43.61550419855923" lon="12.55984988288072"><ele>347.0</ele><time>2026-04-25T10:38:59Z</time></trkpt><trkpt lat="43.615463932967934" lon="12.559974532531992"><ele>347.0</ele><time>2026-04-25T10:39:00Z</time></trkpt><trkpt lat="43.61541946430885" lon="12.560085957292397"><ele>347.0</ele><time>2026-04-25T10:39:01Z</time></trkpt><trkpt lat="43.61536193746975" lon="12.560204957232301"><ele>347.0</ele><time>2026-04-25T10:39:02Z</time></trkpt><trkpt lat="43.615301542261996" lon="12.560306962642189"><ele>347.0</ele><time>2026-04-25T10:39:03Z</time></trkpt><trkpt lat="43.61523607257529" lon="12.560385567104086"><ele>347.0</ele><time>2026-04-25T10:39:04Z</time></trkpt><trkpt lat="43.61516400576255" lon="12.560450456018316"><ele>343.5</ele><time>2026-04-25T10:39:05Z</time></trkpt><trkpt lat="43.61506293191076" lon="12.560508982560691"><ele>340.0</ele><time>2026-04-25T10:39:06Z</time></trkpt><trkpt lat="43.614944523566166" lon="12.560607071873152"><ele>336.5</ele><time>2026-04-25T10:39:07Z</time></trkpt><trkpt lat="43.61478062205074" lon="12.560657336858814"><ele>333.0</ele><time>2026-04-25T10:39:08Z</time></trkpt><trkpt lat="43.61458984020266" lon="12.560698490221654"><ele>330.0</ele><time>2026-04-25T10:39:09Z</time></trkpt><trkpt lat="43.614416095354635" lon="12.560738318862363"><ele>327.0</ele><time>2026-04-25T10:39:10Z</time></trkpt><trkpt lat="43.614243933185506" lon="12.560729676831086"><ele>324.0</ele><time>2026-04-25T10:39:11Z</time></trkpt><trkpt lat="43.61408910155381" lon="12.560772227824357"><ele>324.0</ele><time>2026-04-25T10:39:12Z</time></trkpt><trkpt lat="43.61395219293237" lon="12.560816123803168"><ele>324.0</ele><time>2026-04-25T10:39:13Z</time></trkpt><trkpt lat="43.61381176759011" lon="12.560877445584627"><ele>324.0</ele><time>2026-04-25T10:39:14Z</time></trkpt><trkpt lat="43.6136639775859" lon="12.560952652426451"><ele>324.0</ele><time>2026-04-25T10:39:15Z</time></trkpt><trkpt lat="43.613524374714075" lon="12.561027724152712"><ele>323.25</ele><time>2026-04-25T10:39:16Z</time></trkpt><trkpt lat="43.61339748151346" lon="12.561101146869115"><ele>322.5</ele><time>2026-04-25T10:39:17Z</time></trkpt><trkpt lat="43.613279165318346" lon="12.561172447308"><ele>321.75</ele><time>2026-04-25T10:39:18Z</time></trkpt><trkpt lat="43.613170191624825" lon="12.561232993949886"><ele>321.0</ele><time>2026-04-25T10:39:19Z</time></trkpt><trkpt lat="43.613071841587725" lon="12.561275828091308"><ele>321.0</ele><time>2026-04-25T10:39:20Z</time></trkpt><trkpt lat="43.61299963008769" lon="12.561289736174562"><ele>321.0</ele><time>2026-04-25T10:39:21Z</time></trkpt><trkpt lat="43.612900397802406" lon="12.561278756767361"><ele>321.0</ele><time>2026-04-25T10:39:23Z</time></trkpt><trkpt lat="43.61279837420922" lon="12.56118861558142"><ele>321.0</ele><time>2026-04-25T10:39:25Z</time></trkpt><trkpt lat="43.61280588417971" lon="12.5610500113394"><ele>321.0</ele><time>2026-04-25T10:39:26Z</time></trkpt><trkpt lat="43.612770416492275" lon="12.5609172915506"><ele>317.6666666666667</ele><time>2026-04-25T10:39:27Z</time></trkpt><trkpt lat="43.61272312754894" lon="12.560830500239547"><ele>314.3333333333333</ele><time>2026-04-25T10:39:28Z</time></trkpt><trkpt lat="43.61267145386247" lon="12.560755486793227"><ele>311.0</ele><time>2026-04-25T10:39:29Z</time></trkpt><trkpt lat="43.612609664536485" lon="12.560716505232039"><ele>307.66666666666663</ele><time>2026-04-25T10:39:30Z</time></trkpt><trkpt lat="43.61254624358229" lon="12.560745267713346"><ele>304.3333333333333</ele><time>2026-04-25T10:39:31Z</time></trkpt><trkpt lat="43.61245679293503" lon="12.560798764013562"><ele>301.0</ele><time>2026-04-25T10:39:32Z</time></trkpt><trkpt lat="43.61233850929006" lon="12.56085678350996"><ele>301.0</ele><time>2026-04-25T10:39:33Z</time></trkpt><trkpt lat="43.612182829062014" lon="12.560923724703331"><ele>301.0</ele><time>2026-04-25T10:39:34Z</time></trkpt><trkpt lat="43.61202232932539" lon="12.560929566794082"><ele>301.0</ele><time>2026-04-25T10:39:35Z</time></trkpt><trkpt lat="43.61188445774136" lon="12.560942003427241"><ele>301.0</ele><time>2026-04-25T10:39:36Z</time></trkpt><trkpt lat="43.611755082432296" lon="12.560946975736726"><ele>301.0</ele><time>2026-04-25T10:39:37Z</time></trkpt><trkpt lat="43.61164404584673" lon="12.56094664792079"><ele>301.0</ele><time>2026-04-25T10:39:38Z</time></trkpt><trkpt lat="43.61154433857075" lon="12.560948290720182"><ele>301.0</ele><time>2026-04-25T10:39:39Z</time></trkpt><trkpt lat="43.6114766597886" lon="12.56095895201784"><ele>301.0</ele><time>2026-04-25T10:39:40Z</time></trkpt><trkpt lat="43.611402319444174" lon="12.560985148699096"><ele>301.0</ele><time>2026-04-25T10:39:41Z</time></trkpt><trkpt lat="43.61132369115473" lon="12.561050781481326"><ele>301.0</ele><time>2026-04-25T10:39:42Z</time></trkpt><trkpt lat="43.61123144559577" lon="12.56112530590284"><ele>301.0</ele><time>2026-04-25T10:39:43Z</time></trkpt><trkpt lat="43.61112854809753" lon="12.561209160734458"><ele>301.0</ele><time>2026-04-25T10:39:44Z</time></trkpt><trkpt lat="43.61102121285229" lon="12.56129642326153"><ele>301.0</ele><time>2026-04-25T10:39:45Z</time></trkpt><trkpt lat="43.610916823557815" lon="12.56138060942757"><ele>297.40000000000003</ele><time>2026-04-25T10:39:46Z</time></trkpt><trkpt lat="43.61082788504962" lon="12.561452335155247"><ele>293.8</ele><time>2026-04-25T10:39:47Z</time></trkpt><trkpt lat="43.610757318720864" lon="12.561534726331999"><ele>290.20000000000005</ele><time>2026-04-25T10:39:48Z</time></trkpt><trkpt lat="43.61068693276981" lon="12.561566628401495"><ele>286.6</ele><time>2026-04-25T10:39:49Z</time></trkpt><trkpt lat="43.610608291924855" lon="12.561611177165936"><ele>283.0</ele><time>2026-04-25T10:39:51Z</time></trkpt><trkpt lat="43.61059738144385" lon="12.561801833966"><ele>283.0</ele><time>2026-04-25T10:39:53Z</time></trkpt><trkpt lat="43.610594880219324" lon="12.561989802385236"><ele>283.0</ele><time>2026-04-25T10:39:55Z</time></trkpt><trkpt lat="43.610626402900905" lon="12.562129436051137"><ele>283.0</ele><time>2026-04-25T10:39:56Z</time></trkpt><trkpt lat="43.610696388348316" lon="12.562299971398216"><ele>283.0</ele><time>2026-04-25T10:39:57Z</time></trkpt><trkpt lat="43.61077261702293" lon="12.562437961987019"><ele>283.0</ele><time>2026-04-25T10:39:58Z</time></trkpt><trkpt lat="43.61086701273521" lon="12.562580364285381"><ele>283.0</ele><time>2026-04-25T10:39:59Z</time></trkpt><trkpt lat="43.61097807262506" lon="12.562729209251843"><ele>283.0</ele><time>2026-04-25T10:40:00Z</time></trkpt><trkpt lat="43.611111958156904" lon="12.562852657870293"><ele>285.3333333333333</ele><time>2026-04-25T10:40:01Z</time></trkpt><trkpt lat="43.61125502994998" lon="12.562981195432982"><ele>287.6666666666667</ele><time>2026-04-25T10:40:02Z</time></trkpt><trkpt lat="43.61136223219209" lon="12.563112560853183"><ele>290.0</ele><time>2026-04-25T10:40:03Z</time></trkpt><trkpt lat="43.61146975918673" lon="12.563232632773747"><ele>290.0</ele><time>2026-04-25T10:40:04Z</time></trkpt><trkpt lat="43.61158003520285" lon="12.56334682068465"><ele>290.0</ele><time>2026-04-25T10:40:05Z</time></trkpt><trkpt lat="43.61168662268746" lon="12.563442898788814"><ele>290.0</ele><time>2026-04-25T10:40:06Z</time></trkpt><trkpt lat="43.61180081407924" lon="12.563525326117174"><ele>290.0</ele><time>2026-04-25T10:40:07Z</time></trkpt><trkpt lat="43.61193407437313" lon="12.563562432194985"><ele>290.75</ele><time>2026-04-25T10:40:08Z</time></trkpt><trkpt lat="43.612060891053346" lon="12.563629844934006"><ele>291.5</ele><time>2026-04-25T10:40:09Z</time></trkpt><trkpt lat="43.61219476343239" lon="12.563671858132171"><ele>292.25</ele><time>2026-04-25T10:40:10Z</time></trkpt><trkpt lat="43.61231661840973" lon="12.563671213839113"><ele>293.0</ele><time>2026-04-25T10:40:11Z</time></trkpt><trkpt lat="43.612449254799564" lon="12.563680706864274"><ele>293.0</ele><time>2026-04-25T10:40:12Z</time></trkpt><trkpt lat="43.61258659438943" lon="12.5636663116454"><ele>293.0</ele><time>2026-04-25T10:40:13Z</time></trkpt><trkpt lat="43.61273139399257" lon="12.563625882674488"><ele>293.0</ele><time>2026-04-25T10:40:14Z</time></trkpt><trkpt lat="43.61287388876139" lon="12.563559531295436"><ele>293.0</ele><time>2026-04-25T10:40:15Z</time></trkpt><trkpt lat="43.613018744490674" lon="12.56348066927994"><ele>294.75</ele><time>2026-04-25T10:40:16Z</time></trkpt><trkpt lat="43.613160543969826" lon="12.563454797626036"><ele>296.5</ele><time>2026-04-25T10:40:17Z</time></trkpt><trkpt lat="43.61329520209069" lon="12.56343852701325"><ele>298.25</ele><time>2026-04-25T10:40:18Z</time></trkpt><trkpt lat="43.613414194104884" lon="12.56342304549992"><ele>300.0</ele><time>2026-04-25T10:40:19Z</time></trkpt><trkpt lat="43.61350847723646" lon="12.56342491600456"><ele>300.0</ele><time>2026-04-25T10:40:20Z</time></trkpt><trkpt lat="43.613552221171034" lon="12.563498278722546"><ele>300.0</ele><time>2026-04-25T10:40:22Z</time></trkpt><trkpt lat="43.61355613367711" lon="12.563627819992597"><ele>300.0</ele><time>2026-04-25T10:40:24Z</time></trkpt><trkpt lat="43.6135600210915" lon="12.563745050921668"><ele>300.0</ele><time>2026-04-25T10:40:25Z</time></trkpt><trkpt lat="43.613562596003646" lon="12.563870267547017"><ele>300.0</ele><time>2026-04-25T10:40:26Z</time></trkpt><trkpt lat="43.61345960149548" lon="12.563859741080028"><ele>300.0</ele><time>2026-04-25T10:40:27Z</time></trkpt><trkpt lat="43.613335444996274" lon="12.563951215065714"><ele>302.0</ele><time>2026-04-25T10:40:28Z</time></trkpt><trkpt lat="43.61321283385484" lon="12.56409158438773"><ele>304.0</ele><time>2026-04-25T10:40:29Z</time></trkpt><trkpt lat="43.61313019240046" lon="12.564222976774868"><ele>306.0</ele><time>2026-04-25T10:40:30Z</time></trkpt><trkpt lat="43.61306157860508" lon="12.564400595290817"><ele>308.0</ele><time>2026-04-25T10:40:31Z</time></trkpt><trkpt lat="43.61297122322481" lon="12.564571597315744"><ele>304.75</ele><time>2026-04-25T10:40:32Z</time></trkpt><trkpt lat="43.61290882275548" lon="12.564704982220361"><ele>301.5</ele><time>2026-04-25T10:40:33Z</time></trkpt><trkpt lat="43.612861278214815" lon="12.564832603878346"><ele>298.25</ele><time>2026-04-25T10:40:34Z</time></trkpt><trkpt lat="43.61282429447941" lon="12.565006520008673"><ele>295.0</ele><time>2026-04-25T10:40:35Z</time></trkpt><trkpt lat="43.612786954594675" lon="12.565212308489572"><ele>295.75</ele><time>2026-04-25T10:40:36Z</time></trkpt><trkpt lat="43.61274971606599" lon="12.565386431263828"><ele>296.5</ele><time>2026-04-25T10:40:37Z</time></trkpt><trkpt lat="43.6127332166815" lon="12.565570903356896"><ele>297.25</ele><time>2026-04-25T10:40:38Z</time></trkpt><trkpt lat="43.6127181623668" lon="12.565742614543941"><ele>298.0</ele><time>2026-04-25T10:40:39Z</time></trkpt><trkpt lat="43.612728670413745" lon="12.565936723370239"><ele>298.0</ele><time>2026-04-25T10:40:40Z</time></trkpt><trkpt lat="43.61272898138572" lon="12.566127661339497"><ele>298.0</ele><time>2026-04-25T10:40:41Z</time></trkpt><trkpt lat="43.6127060240158" lon="12.566298087990258"><ele>298.0</ele><time>2026-04-25T10:40:42Z</time></trkpt><trkpt lat="43.61267354138342" lon="12.566457887218489"><ele>298.0</ele><time>2026-04-25T10:40:43Z</time></trkpt><trkpt lat="43.61263483925687" lon="12.566592775022018"><ele>297.75</ele><time>2026-04-25T10:40:44Z</time></trkpt><trkpt lat="43.61257232466891" lon="12.566706417063742"><ele>297.5</ele><time>2026-04-25T10:40:45Z</time></trkpt><trkpt lat="43.61250289044426" lon="12.566830899465593"><ele>297.25</ele><time>2026-04-25T10:40:46Z</time></trkpt><trkpt lat="43.612428244739604" lon="12.566968871717389"><ele>297.0</ele><time>2026-04-25T10:40:47Z</time></trkpt><trkpt lat="43.61237235178491" lon="12.567118173820871"><ele>299.5</ele><time>2026-04-25T10:40:48Z</time></trkpt><trkpt lat="43.61232927194504" lon="12.56729885698167"><ele>302.0</ele><time>2026-04-25T10:40:49Z</time></trkpt><trkpt lat="43.612278506023486" lon="12.567459650979437"><ele>304.5</ele><time>2026-04-25T10:40:50Z</time></trkpt><trkpt lat="43.61221371638859" lon="12.567581873149006"><ele>307.0</ele><time>2026-04-25T10:40:51Z</time></trkpt><trkpt lat="43.61214076637984" lon="12.567683428268287"><ele>307.0</ele><time>2026-04-25T10:40:52Z</time></trkpt><trkpt lat="43.6120523147897" lon="12.567781322652475"><ele>307.0</ele><time>2026-04-25T10:40:53Z</time></trkpt><trkpt lat="43.61194682288408" lon="12.567894002728115"><ele>307.0</ele><time>2026-04-25T10:40:54Z</time></trkpt><trkpt lat="43.611834386297225" lon="12.56801932587212"><ele>307.0</ele><time>2026-04-25T10:40:55Z</time></trkpt><trkpt lat="43.611731029716225" lon="12.56813726255572"><ele>306.0</ele><time>2026-04-25T10:40:56Z</time></trkpt><trkpt lat="43.611639859691984" lon="12.56826155814152"><ele>305.0</ele><time>2026-04-25T10:40:57Z</time></trkpt><trkpt lat="43.61153457034319" lon="12.568370045609823"><ele>304.0</ele><time>2026-04-25T10:40:58Z</time></trkpt><trkpt lat="43.61143700021183" lon="12.568491618819666"><ele>303.0</ele><time>2026-04-25T10:40:59Z</time></trkpt><trkpt lat="43.61134273270903" lon="12.568645422389404"><ele>307.5</ele><time>2026-04-25T10:41:00Z</time></trkpt><trkpt lat="43.611272811598" lon="12.568809213096648"><ele>312.0</ele><time>2026-04-25T10:41:01Z</time></trkpt><trkpt lat="43.611222484506996" lon="12.568951093773657"><ele>316.5</ele><time>2026-04-25T10:41:02Z</time></trkpt><trkpt lat="43.61119372525545" lon="12.569093470628475"><ele>321.0</ele><time>2026-04-25T10:41:03Z</time></trkpt><trkpt lat="43.61118375192516" lon="12.56924528008088"><ele>310.6666666666667</ele><time>2026-04-25T10:41:04Z</time></trkpt><trkpt lat="43.61115048687997" lon="12.569430765175445"><ele>300.33333333333337</ele><time>2026-04-25T10:41:05Z</time></trkpt><trkpt lat="43.61112063629405" lon="12.569621307028076"><ele>290.0</ele><time>2026-04-25T10:41:06Z</time></trkpt><trkpt lat="43.611071602317246" lon="12.569859513117642"><ele>290.0</ele><time>2026-04-25T10:41:07Z</time></trkpt><trkpt lat="43.61103598912488" lon="12.570076384122007"><ele>290.0</ele><time>2026-04-25T10:41:08Z</time></trkpt><trkpt lat="43.61100667875798" lon="12.570296554672712"><ele>290.0</ele><time>2026-04-25T10:41:09Z</time></trkpt><trkpt lat="43.61098861717065" lon="12.570516097763983"><ele>291.0</ele><time>2026-04-25T10:41:10Z</time></trkpt><trkpt lat="43.610979190917426" lon="12.570755038224311"><ele>292.0</ele><time>2026-04-25T10:41:11Z</time></trkpt><trkpt lat="43.61097108076598" lon="12.570998944719673"><ele>293.0</ele><time>2026-04-25T10:41:12Z</time></trkpt><trkpt lat="43.61096641905" lon="12.571210248823332"><ele>291.5</ele><time>2026-04-25T10:41:13Z</time></trkpt><trkpt lat="43.61095880377634" lon="12.571398045392339"><ele>290.0</ele><time>2026-04-25T10:41:14Z</time></trkpt><trkpt lat="43.61094267451281" lon="12.57156301927784"><ele>288.5</ele><time>2026-04-25T10:41:15Z</time></trkpt><trkpt lat="43.610913661300955" lon="12.571734125919301"><ele>287.0</ele><time>2026-04-25T10:41:16Z</time></trkpt><trkpt lat="43.61088044568888" lon="12.571922190177817"><ele>286.75</ele><time>2026-04-25T10:41:17Z</time></trkpt><trkpt lat="43.61084861577105" lon="12.572099429321227"><ele>286.5</ele><time>2026-04-25T10:41:18Z</time></trkpt><trkpt lat="43.61082560089383" lon="12.57226759887721"><ele>286.25</ele><time>2026-04-25T10:41:19Z</time></trkpt><trkpt lat="43.610805592401775" lon="12.572448247401786"><ele>286.0</ele><time>2026-04-25T10:41:20Z</time></trkpt><trkpt lat="43.61078744866477" lon="12.572615617054243"><ele>286.0</ele><time>2026-04-25T10:41:21Z</time></trkpt><trkpt lat="43.61077177329604" lon="12.572749525546923"><ele>286.0</ele><time>2026-04-25T10:41:22Z</time></trkpt><trkpt lat="43.610764032561555" lon="12.572890278796057"><ele>286.0</ele><time>2026-04-25T10:41:23Z</time></trkpt><trkpt lat="43.61076921095278" lon="12.57299506641339"><ele>286.0</ele><time>2026-04-25T10:41:24Z</time></trkpt><trkpt lat="43.61082462301421" lon="12.573083997327803"><ele>286.0</ele><time>2026-04-25T10:41:25Z</time></trkpt><trkpt lat="43.6108969667024" lon="12.57318667410487"><ele>284.75</ele><time>2026-04-25T10:41:26Z</time></trkpt><trkpt lat="43.6109854126543" lon="12.573323284643203"><ele>283.5</ele><time>2026-04-25T10:41:27Z</time></trkpt><trkpt lat="43.61097531569955" lon="12.573515437965328"><ele>282.25</ele><time>2026-04-25T10:41:28Z</time></trkpt><trkpt lat="43.611021176138806" lon="12.573685719146049"><ele>281.0</ele><time>2026-04-25T10:41:29Z</time></trkpt><trkpt lat="43.611118326047496" lon="12.573807010252674"><ele>284.75</ele><time>2026-04-25T10:41:30Z</time></trkpt><trkpt lat="43.61120074067359" lon="12.573950593814248"><ele>288.5</ele><time>2026-04-25T10:41:31Z</time></trkpt><trkpt lat="43.61130552888449" lon="12.574114161892007"><ele>292.25</ele><time>2026-04-25T10:41:32Z</time></trkpt><trkpt lat="43.61137393202054" lon="12.574269027324014"><ele>296.0</ele><time>2026-04-25T10:41:33Z</time></trkpt><trkpt lat="43.61144293931151" lon="12.57439710536631"><ele>293.40000000000003</ele><time>2026-04-25T10:41:34Z</time></trkpt><trkpt lat="43.611524165470115" lon="12.57452660589658"><ele>290.8</ele><time>2026-04-25T10:41:35Z</time></trkpt><trkpt lat="43.6116084944562" lon="12.574609979673994"><ele>288.20000000000005</ele><time>2026-04-25T10:41:36Z</time></trkpt><trkpt lat="43.6116823559336" lon="12.574696034998745"><ele>285.6</ele><time>2026-04-25T10:41:37Z</time></trkpt><trkpt lat="43.611739956612205" lon="12.57476565202801"><ele>283.0</ele><time>2026-04-25T10:41:38Z</time></trkpt><trkpt lat="43.611778653410425" lon="12.574868656713534"><ele>283.0</ele><time>2026-04-25T10:41:39Z</time></trkpt><trkpt lat="43.61174696462521" lon="12.574979192435332"><ele>283.0</ele><time>2026-04-25T10:41:40Z</time></trkpt><trkpt lat="43.611662894721974" lon="12.575061799314211"><ele>283.0</ele><time>2026-04-25T10:41:41Z</time></trkpt><trkpt lat="43.61164400457531" lon="12.575189523380782"><ele>283.0</ele><time>2026-04-25T10:41:42Z</time></trkpt><trkpt lat="43.61170132354039" lon="12.575344368413644"><ele>283.0</ele><time>2026-04-25T10:41:43Z</time></trkpt><trkpt lat="43.61173176111733" lon="12.575504093062492"><ele>282.66666666666663</ele><time>2026-04-25T10:41:44Z</time></trkpt><trkpt lat="43.61178732199794" lon="12.575712564834216"><ele>282.3333333333333</ele><time>2026-04-25T10:41:45Z</time></trkpt><trkpt lat="43.611831438813404" lon="12.575975728769336"><ele>282.0</ele><time>2026-04-25T10:41:46Z</time></trkpt><trkpt lat="43.61188966988082" lon="12.576190399385101"><ele>282.0</ele><time>2026-04-25T10:41:47Z</time></trkpt><trkpt lat="43.6119476904982" lon="12.576356888086037"><ele>282.0</ele><time>2026-04-25T10:41:48Z</time></trkpt><trkpt lat="43.61199278733701" lon="12.576470307983081"><ele>282.0</ele><time>2026-04-25T10:41:49Z</time></trkpt><trkpt lat="43.61201877557508" lon="12.576563010470409"><ele>282.0</ele><time>2026-04-25T10:41:50Z</time></trkpt><trkpt lat="43.61203575151044" lon="12.576660284184104"><ele>282.0</ele><time>2026-04-25T10:41:51Z</time></trkpt><trkpt lat="43.61203179840538" lon="12.576784035191974"><ele>288.5</ele><time>2026-04-25T10:41:52Z</time></trkpt><trkpt lat="43.612038580515" lon="12.576919173546752"><ele>295.0</ele><time>2026-04-25T10:41:53Z</time></trkpt><trkpt lat="43.61204665016462" lon="12.57706845138117"><ele>301.5</ele><time>2026-04-25T10:41:54Z</time></trkpt><trkpt lat="43.61205809338266" lon="12.577249750830209"><ele>308.0</ele><time>2026-04-25T10:41:55Z</time></trkpt><trkpt lat="43.612082273935535" lon="12.577405452609243"><ele>308.0</ele><time>2026-04-25T10:41:56Z</time></trkpt><trkpt lat="43.61211314528918" lon="12.577544631874288"><ele>308.0</ele><time>2026-04-25T10:41:57Z</time></trkpt><trkpt lat="43.612111760659" lon="12.577707595581016"><ele>308.0</ele><time>2026-04-25T10:41:58Z</time></trkpt><trkpt lat="43.61212250500108" lon="12.57787602465139"><ele>308.0</ele><time>2026-04-25T10:41:59Z</time></trkpt><trkpt lat="43.61213567865982" lon="12.578064412139964"><ele>306.2</ele><time>2026-04-25T10:42:00Z</time></trkpt><trkpt lat="43.61214474032926" lon="12.578221772163886"><ele>304.4</ele><time>2026-04-25T10:42:01Z</time></trkpt><trkpt lat="43.61214738134274" lon="12.57837636342643"><ele>302.59999999999997</ele><time>2026-04-25T10:42:02Z</time></trkpt><trkpt lat="43.61214365993303" lon="12.578536878905565"><ele>300.8</ele><time>2026-04-25T10:42:03Z</time></trkpt><trkpt lat="43.61213603950156" lon="12.57865962409488"><ele>299.0</ele><time>2026-04-25T10:42:04Z</time></trkpt><trkpt lat="43.61212388923341" lon="12.578774142610808"><ele>296.8</ele><time>2026-04-25T10:42:05Z</time></trkpt><trkpt lat="43.6121076996841" lon="12.578858791286418"><ele>294.59999999999997</ele><time>2026-04-25T10:42:06Z</time></trkpt><trkpt lat="43.612032046661085" lon="12.578966501662535"><ele>292.4</ele><time>2026-04-25T10:42:08Z</time></trkpt><trkpt lat="43.611894084474045" lon="12.579000764253305"><ele>290.2</ele><time>2026-04-25T10:42:10Z</time></trkpt><trkpt lat="43.61178849492738" lon="12.579044163419109"><ele>288.0</ele><time>2026-04-25T10:42:11Z</time></trkpt><trkpt lat="43.61166858210739" lon="12.579079499850243"><ele>285.8</ele><time>2026-04-25T10:42:12Z</time></trkpt><trkpt lat="43.6115525858562" lon="12.579104925501307"><ele>283.6</ele><time>2026-04-25T10:42:13Z</time></trkpt><trkpt lat="43.61144566917193" lon="12.579109483911846"><ele>281.4</ele><time>2026-04-25T10:42:14Z</time></trkpt><trkpt lat="43.61136204575618" lon="12.579105571445572"><ele>279.2</ele><time>2026-04-25T10:42:15Z</time></trkpt><trkpt lat="43.611275408677486" lon="12.57910278392381"><ele>277.0</ele><time>2026-04-25T10:42:17Z</time></trkpt><trkpt lat="43.61135926782576" lon="12.579224705626158"><ele>277.0</ele><time>2026-04-25T10:42:21Z</time></trkpt><trkpt lat="43.61148931635905" lon="12.579267430332008"><ele>277.0</ele><time>2026-04-25T10:42:23Z</time></trkpt><trkpt lat="43.61157233485396" lon="12.579288571712217"><ele>277.0</ele><time>2026-04-25T10:42:24Z</time></trkpt><trkpt lat="43.61166185580784" lon="12.579372965648032"><ele>277.0</ele><time>2026-04-25T10:42:25Z</time></trkpt><trkpt lat="43.61178093306677" lon="12.579452369768678"><ele>277.66666666666663</ele><time>2026-04-25T10:42:26Z</time></trkpt><trkpt lat="43.61191964057479" lon="12.57952993666784"><ele>278.3333333333333</ele><time>2026-04-25T10:42:27Z</time></trkpt><trkpt lat="43.61208015011947" lon="12.579568547504934"><ele>279.0</ele><time>2026-04-25T10:42:28Z</time></trkpt><trkpt lat="43.6122439859723" lon="12.57963347962938"><ele>281.6666666666667</ele><time>2026-04-25T10:42:29Z</time></trkpt><trkpt lat="43.61240861656032" lon="12.579729990370561"><ele>284.33333333333337</ele><time>2026-04-25T10:42:30Z</time></trkpt><trkpt lat="43.61256562653064" lon="12.579808382601144"><ele>287.0</ele><time>2026-04-25T10:42:31Z</time></trkpt><trkpt lat="43.61271264725011" lon="12.579857817898667"><ele>289.5</ele><time>2026-04-25T10:42:32Z</time></trkpt><trkpt lat="43.612858907351146" lon="12.579869519735631"><ele>292.0</ele><time>2026-04-25T10:42:33Z</time></trkpt><trkpt lat="43.61298324496621" lon="12.57988264968003"><ele>294.5</ele><time>2026-04-25T10:42:34Z</time></trkpt><trkpt lat="43.61309110525321" lon="12.579869533748617"><ele>297.0</ele><time>2026-04-25T10:42:35Z</time></trkpt><trkpt lat="43.61320061318402" lon="12.579854960233922"><ele>297.0</ele><time>2026-04-25T10:42:36Z</time></trkpt><trkpt lat="43.613311229541345" lon="12.579839391688386"><ele>297.0</ele><time>2026-04-25T10:42:37Z</time></trkpt><trkpt lat="43.613420595142536" lon="12.579813354535407"><ele>297.0</ele><time>2026-04-25T10:42:38Z</time></trkpt><trkpt lat="43.61353183830951" lon="12.57975819816904"><ele>297.0</ele><time>2026-04-25T10:42:39Z</time></trkpt><trkpt lat="43.61362339604262" lon="12.579648151227854"><ele>297.4</ele><time>2026-04-25T10:42:40Z</time></trkpt><trkpt lat="43.61370462097875" lon="12.579580521163102"><ele>297.79999999999995</ele><time>2026-04-25T10:42:41Z</time></trkpt><trkpt lat="43.61377545986693" lon="12.579508536409667"><ele>298.2</ele><time>2026-04-25T10:42:42Z</time></trkpt><trkpt lat="43.613873775068086" lon="12.579483761414847"><ele>298.59999999999997</ele><time>2026-04-25T10:42:43Z</time></trkpt><trkpt lat="43.613973020713225" lon="12.57948072045632"><ele>299.0</ele><time>2026-04-25T10:42:44Z</time></trkpt><trkpt lat="43.614068678487186" lon="12.579485340853493"><ele>299.0</ele><time>2026-04-25T10:42:45Z</time></trkpt><trkpt lat="43.61417883765985" lon="12.579500259433578"><ele>299.0</ele><time>2026-04-25T10:42:46Z</time></trkpt><trkpt lat="43.61428135926693" lon="12.579530191285793"><ele>299.0</ele><time>2026-04-25T10:42:47Z</time></trkpt><trkpt lat="43.614364882599475" lon="12.579584637802215"><ele>299.0</ele><time>2026-04-25T10:42:48Z</time></trkpt><trkpt lat="43.614415302044705" lon="12.579697468517647"><ele>299.0</ele><time>2026-04-25T10:42:49Z</time></trkpt><trkpt lat="43.6144703954509" lon="12.57983083372625"><ele>300.75</ele><time>2026-04-25T10:42:50Z</time></trkpt><trkpt lat="43.614544555271586" lon="12.579978919132325"><ele>302.5</ele><time>2026-04-25T10:42:51Z</time></trkpt><trkpt lat="43.61462479708759" lon="12.580113167703479"><ele>304.25</ele><time>2026-04-25T10:42:52Z</time></trkpt><trkpt lat="43.61473902269416" lon="12.580202874702568"><ele>306.0</ele><time>2026-04-25T10:42:53Z</time></trkpt><trkpt lat="43.61486895861132" lon="12.580224526237807"><ele>306.0</ele><time>2026-04-25T10:42:54Z</time></trkpt><trkpt lat="43.61498132617162" lon="12.580250887344807"><ele>306.0</ele><time>2026-04-25T10:42:55Z</time></trkpt><trkpt lat="43.61507021314365" lon="12.580343320213414"><ele>306.0</ele><time>2026-04-25T10:42:56Z</time></trkpt><trkpt lat="43.61512568450911" lon="12.580476335403013"><ele>306.0</ele><time>2026-04-25T10:42:57Z</time></trkpt><trkpt lat="43.61517068443668" lon="12.580611906128572"><ele>306.0</ele><time>2026-04-25T10:42:58Z</time></trkpt><trkpt lat="43.61523424696711" lon="12.580785438671347"><ele>307.5</ele><time>2026-04-25T10:42:59Z</time></trkpt><trkpt lat="43.61530930502832" lon="12.580936295731588"><ele>309.0</ele><time>2026-04-25T10:43:00Z</time></trkpt><trkpt lat="43.615393436678474" lon="12.581074277530426"><ele>310.5</ele><time>2026-04-25T10:43:01Z</time></trkpt><trkpt lat="43.615479675756006" lon="12.581200299226452"><ele>312.0</ele><time>2026-04-25T10:43:02Z</time></trkpt><trkpt lat="43.615582362300685" lon="12.581303227639635"><ele>315.5</ele><time>2026-04-25T10:43:03Z</time></trkpt><trkpt lat="43.61566135254784" lon="12.58139894420064"><ele>319.0</ele><time>2026-04-25T10:43:04Z</time></trkpt><trkpt lat="43.61575935173498" lon="12.581476889637083"><ele>322.5</ele><time>2026-04-25T10:43:05Z</time></trkpt><trkpt lat="43.6158726092628" lon="12.581516834928232"><ele>326.0</ele><time>2026-04-25T10:43:06Z</time></trkpt><trkpt lat="43.616000119101216" lon="12.58151103408064"><ele>326.0</ele><time>2026-04-25T10:43:07Z</time></trkpt><trkpt lat="43.61612519560962" lon="12.581523349047842"><ele>326.0</ele><time>2026-04-25T10:43:08Z</time></trkpt><trkpt lat="43.616227253700856" lon="12.581575023658171"><ele>326.0</ele><time>2026-04-25T10:43:09Z</time></trkpt><trkpt lat="43.61631892412782" lon="12.58168867390846"><ele>326.0</ele><time>2026-04-25T10:43:10Z</time></trkpt><trkpt lat="43.616419262262156" lon="12.581729093304288"><ele>329.25</ele><time>2026-04-25T10:43:11Z</time></trkpt><trkpt lat="43.616513829763385" lon="12.581722630440902"><ele>332.5</ele><time>2026-04-25T10:43:12Z</time></trkpt><trkpt lat="43.616610201628056" lon="12.581699587880507"><ele>335.75</ele><time>2026-04-25T10:43:13Z</time></trkpt><trkpt lat="43.61670275635487" lon="12.581635190267578"><ele>339.0</ele><time>2026-04-25T10:43:14Z</time></trkpt><trkpt lat="43.616846188829115" lon="12.5815407410117"><ele>342.3333333333333</ele><time>2026-04-25T10:43:15Z</time></trkpt><trkpt lat="43.617004387141186" lon="12.581451687833288"><ele>345.66666666666663</ele><time>2026-04-25T10:43:16Z</time></trkpt><trkpt lat="43.617172695411945" lon="12.58140822161851"><ele>349.0</ele><time>2026-04-25T10:43:17Z</time></trkpt><trkpt lat="43.6173101266894" lon="12.581369646260944"><ele>349.0</ele><time>2026-04-25T10:43:18Z</time></trkpt><trkpt lat="43.61742967161865" lon="12.581339581892177"><ele>349.0</ele><time>2026-04-25T10:43:19Z</time></trkpt><trkpt lat="43.61754996227989" lon="12.5813176995871"><ele>349.0</ele><time>2026-04-25T10:43:20Z</time></trkpt><trkpt lat="43.617692328476785" lon="12.581299096722702"><ele>349.0</ele><time>2026-04-25T10:43:21Z</time></trkpt><trkpt lat="43.61784802949074" lon="12.581302184235232"><ele>353.0</ele><time>2026-04-25T10:43:22Z</time></trkpt><trkpt lat="43.618009838650856" lon="12.581321081725198"><ele>357.0</ele><time>2026-04-25T10:43:23Z</time></trkpt><trkpt lat="43.61817121743598" lon="12.581333013033802"><ele>361.0</ele><time>2026-04-25T10:43:24Z</time></trkpt><trkpt lat="43.618328877985526" lon="12.581343086060338"><ele>361.0</ele><time>2026-04-25T10:43:25Z</time></trkpt><trkpt lat="43.61847288150366" lon="12.581352567161131"><ele>361.0</ele><time>2026-04-25T10:43:26Z</time></trkpt><trkpt lat="43.618611494934" lon="12.581361779303787"><ele>361.0</ele><time>2026-04-25T10:43:27Z</time></trkpt><trkpt lat="43.618737540988384" lon="12.581361356150497"><ele>361.0</ele><time>2026-04-25T10:43:28Z</time></trkpt><trkpt lat="43.61883808133781" lon="12.581362392534409"><ele>364.20000000000005</ele><time>2026-04-25T10:43:29Z</time></trkpt><trkpt lat="43.61891221815516" lon="12.58136891643074"><ele>367.40000000000003</ele><time>2026-04-25T10:43:30Z</time></trkpt><trkpt lat="43.61897109703236" lon="12.581451108025004"><ele>370.6</ele><time>2026-04-25T10:43:32Z</time></trkpt><trkpt lat="43.618893275741975" lon="12.581581583525168"><ele>373.8</ele><time>2026-04-25T10:43:34Z</time></trkpt><trkpt lat="43.61883018366351" lon="12.581658142719519"><ele>377.0</ele><time>2026-04-25T10:43:35Z</time></trkpt><trkpt lat="43.618774515700565" lon="12.581783021027984"><ele>377.0</ele><time>2026-04-25T10:43:36Z</time></trkpt><trkpt lat="43.61873965241499" lon="12.581948769009855"><ele>377.0</ele><time>2026-04-25T10:43:37Z</time></trkpt><trkpt lat="43.61882186756079" lon="12.582125517339751"><ele>377.0</ele><time>2026-04-25T10:43:38Z</time></trkpt><trkpt lat="43.61888796302668" lon="12.582233730280809"><ele>377.0</ele><time>2026-04-25T10:43:39Z</time></trkpt><trkpt lat="43.618967305090784" lon="12.582256048961536"><ele>377.0</ele><time>2026-04-25T10:43:40Z</time></trkpt><trkpt lat="43.61902078835522" lon="12.582207714230723"><ele>377.0</ele><time>2026-04-25T10:43:41Z</time></trkpt><trkpt lat="43.61905544046167" lon="12.582107780220992"><ele>377.0</ele><time>2026-04-25T10:43:42Z</time></trkpt><trkpt lat="43.61907370852611" lon="12.581980890497904"><ele>377.0</ele><time>2026-04-25T10:43:43Z</time></trkpt><trkpt lat="43.619119434967644" lon="12.581860433275823"><ele>377.0</ele><time>2026-04-25T10:43:44Z</time></trkpt><trkpt lat="43.619199332979804" lon="12.581777268614443"><ele>377.0</ele><time>2026-04-25T10:43:45Z</time></trkpt><trkpt lat="43.61927575724455" lon="12.581754791252939"><ele>377.0</ele><time>2026-04-25T10:43:46Z</time></trkpt><trkpt lat="43.619326760584144" lon="12.581846007479347"><ele>377.0</ele><time>2026-04-25T10:43:47Z</time></trkpt><trkpt lat="43.61933803010908" lon="12.58197576419213"><ele>377.0</ele><time>2026-04-25T10:43:49Z</time></trkpt><trkpt lat="43.61934859862043" lon="12.582098747629955"><ele>377.0</ele><time>2026-04-25T10:43:50Z</time></trkpt><trkpt lat="43.61933909539946" lon="12.582254289699103"><ele>377.0</ele><time>2026-04-25T10:43:51Z</time></trkpt><trkpt lat="43.61934140108055" lon="12.582429008577385"><ele>380.25</ele><time>2026-04-25T10:43:52Z</time></trkpt><trkpt lat="43.61934909256139" lon="12.582632745043796"><ele>383.5</ele><time>2026-04-25T10:43:53Z</time></trkpt><trkpt lat="43.61935881572593" lon="12.58284223394325"><ele>386.75</ele><time>2026-04-25T10:43:54Z</time></trkpt><trkpt lat="43.61937042186874" lon="12.583036955123044"><ele>390.0</ele><time>2026-04-25T10:43:55Z</time></trkpt><trkpt lat="43.619394489208695" lon="12.58322228593469"><ele>391.4</ele><time>2026-04-25T10:43:56Z</time></trkpt><trkpt lat="43.61944915145015" lon="12.583382429643024"><ele>392.8</ele><time>2026-04-25T10:43:57Z</time></trkpt><trkpt lat="43.61948532332718" lon="12.583537398994714"><ele>394.20000000000005</ele><time>2026-04-25T10:43:58Z</time></trkpt><trkpt lat="43.619530856655096" lon="12.583649107591317"><ele>395.6</ele><time>2026-04-25T10:43:59Z</time></trkpt><trkpt lat="43.61956544155925" lon="12.583745731619791"><ele>397.0</ele><time>2026-04-25T10:44:00Z</time></trkpt><trkpt lat="43.61959845048239" lon="12.58384350415252"><ele>398.6</ele><time>2026-04-25T10:44:01Z</time></trkpt><trkpt lat="43.619639860208025" lon="12.58392852364771"><ele>400.20000000000005</ele><time>2026-04-25T10:44:02Z</time></trkpt><trkpt lat="43.619649966435695" lon="12.584085469155843"><ele>401.8</ele><time>2026-04-25T10:44:04Z</time></trkpt><trkpt lat="43.61965636389203" lon="12.584262071145288"><ele>403.4</ele><time>2026-04-25T10:44:06Z</time></trkpt><trkpt lat="43.61967382054468" lon="12.584430017986021"><ele>405.0</ele><time>2026-04-25T10:44:08Z</time></trkpt><trkpt lat="43.619612841520514" lon="12.584478808901512"><ele>405.6</ele><time>2026-04-25T10:44:09Z</time></trkpt><trkpt lat="43.619560751287295" lon="12.584556621003332"><ele>406.2</ele><time>2026-04-25T10:44:10Z</time></trkpt><trkpt lat="43.6194939673683" lon="12.584656382440352"><ele>406.79999999999995</ele><time>2026-04-25T10:44:11Z</time></trkpt><trkpt lat="43.61941190996712" lon="12.584778959415365"><ele>407.4</ele><time>2026-04-25T10:44:12Z</time></trkpt><trkpt lat="43.61931144876145" lon="12.584921309001306"><ele>408.0</ele><time>2026-04-25T10:44:13Z</time></trkpt><trkpt lat="43.619208088665744" lon="12.58507813420044"><ele>408.4</ele><time>2026-04-25T10:44:14Z</time></trkpt><trkpt lat="43.61913360722054" lon="12.585234669031285"><ele>408.79999999999995</ele><time>2026-04-25T10:44:15Z</time></trkpt><trkpt lat="43.61906620407979" lon="12.585348423297422"><ele>409.2</ele><time>2026-04-25T10:44:16Z</time></trkpt><trkpt lat="43.61902594827058" lon="12.585466574256566"><ele>409.6</ele><time>2026-04-25T10:44:17Z</time></trkpt><trkpt lat="43.619031681847865" lon="12.585580511082192"><ele>410.0</ele><time>2026-04-25T10:44:18Z</time></trkpt><trkpt lat="43.619076318555024" lon="12.585705486178691"><ele>414.0</ele><time>2026-04-25T10:44:19Z</time></trkpt><trkpt lat="43.61916000858837" lon="12.585847696945569"><ele>418.0</ele><time>2026-04-25T10:44:20Z</time></trkpt><trkpt lat="43.6192224154915" lon="12.586041072882182"><ele>422.0</ele><time>2026-04-25T10:44:21Z</time></trkpt><trkpt lat="43.61929581655509" lon="12.586253511567906"><ele>425.0</ele><time>2026-04-25T10:44:22Z</time></trkpt><trkpt lat="43.61937848612981" lon="12.586483011946436"><ele>428.0</ele><time>2026-04-25T10:44:23Z</time></trkpt><trkpt lat="43.61944962874074" lon="12.586672019999554"><ele>431.0</ele><time>2026-04-25T10:44:24Z</time></trkpt><trkpt lat="43.619509390644" lon="12.586818753418388"><ele>428.25</ele><time>2026-04-25T10:44:25Z</time></trkpt><trkpt lat="43.61956771526152" lon="12.586954458451435"><ele>425.5</ele><time>2026-04-25T10:44:26Z</time></trkpt><trkpt lat="43.61963760991133" lon="12.587096154156345"><ele>422.75</ele><time>2026-04-25T10:44:27Z</time></trkpt><trkpt lat="43.61971099090605" lon="12.587226037826463"><ele>420.0</ele><time>2026-04-25T10:44:28Z</time></trkpt><trkpt lat="43.619813500064765" lon="12.587359399934561"><ele>420.0</ele><time>2026-04-25T10:44:29Z</time></trkpt><trkpt lat="43.61992039261165" lon="12.587528567843345"><ele>420.0</ele><time>2026-04-25T10:44:30Z</time></trkpt><trkpt lat="43.6200299389215" lon="12.587704061655943"><ele>420.0</ele><time>2026-04-25T10:44:31Z</time></trkpt><trkpt lat="43.62014312175455" lon="12.587862827563221"><ele>419.0</ele><time>2026-04-25T10:44:32Z</time></trkpt><trkpt lat="43.620248181154444" lon="12.58799968304071"><ele>418.0</ele><time>2026-04-25T10:44:33Z</time></trkpt><trkpt lat="43.62034694898217" lon="12.588128267751902"><ele>417.0</ele><time>2026-04-25T10:44:34Z</time></trkpt><trkpt lat="43.62044109968367" lon="12.588258180630072"><ele>416.0</ele><time>2026-04-25T10:44:35Z</time></trkpt><trkpt lat="43.620520736976296" lon="12.588394132492677"><ele>415.49999999999994</ele><time>2026-04-25T10:44:36Z</time></trkpt><trkpt lat="43.62058433481619" lon="12.588513015361439"><ele>415.0</ele><time>2026-04-25T10:44:37Z</time></trkpt><trkpt lat="43.62063598902252" lon="12.588603208470435"><ele>414.5</ele><time>2026-04-25T10:44:38Z</time></trkpt><trkpt lat="43.62067947507382" lon="12.58868268183253"><ele>414.0</ele><time>2026-04-25T10:44:39Z</time></trkpt><trkpt lat="43.62068081532878" lon="12.588817513932495"><ele>413.49999999999994</ele><time>2026-04-25T10:44:41Z</time></trkpt><trkpt lat="43.62061793841863" lon="12.588885290982336"><ele>413.0</ele><time>2026-04-25T10:44:43Z</time></trkpt><trkpt lat="43.620554805468764" lon="12.588900769496695"><ele>411.59999999999997</ele><time>2026-04-25T10:44:44Z</time></trkpt><trkpt lat="43.62047012730162" lon="12.588918278908327"><ele>410.2</ele><time>2026-04-25T10:44:45Z</time></trkpt><trkpt lat="43.62036606730162" lon="12.588939897492303"><ele>408.8</ele><time>2026-04-25T10:44:46Z</time></trkpt><trkpt lat="43.62025532758229" lon="12.588962591685764"><ele>407.4</ele><time>2026-04-25T10:44:47Z</time></trkpt><trkpt lat="43.62013587547423" lon="12.589006613466218"><ele>406.0</ele><time>2026-04-25T10:44:48Z</time></trkpt><trkpt lat="43.620013496172156" lon="12.589017298975982"><ele>405.0</ele><time>2026-04-25T10:44:49Z</time></trkpt><trkpt lat="43.61988584941214" lon="12.589029187629166"><ele>404.0</ele><time>2026-04-25T10:44:50Z</time></trkpt><trkpt lat="43.61977227714503" lon="12.589054798296262"><ele>403.0</ele><time>2026-04-25T10:44:51Z</time></trkpt><trkpt lat="43.61965504900733" lon="12.589095656658085"><ele>402.0</ele><time>2026-04-25T10:44:52Z</time></trkpt><trkpt lat="43.61954359119565" lon="12.589150099503682"><ele>403.0</ele><time>2026-04-25T10:44:53Z</time></trkpt><trkpt lat="43.61944715080228" lon="12.589245266518402"><ele>404.0</ele><time>2026-04-25T10:44:54Z</time></trkpt><trkpt lat="43.61935895065715" lon="12.589335290170492"><ele>405.0</ele><time>2026-04-25T10:44:55Z</time></trkpt><trkpt lat="43.61928892893923" lon="12.589429971571938"><ele>406.0</ele><time>2026-04-25T10:44:56Z</time></trkpt><trkpt lat="43.61924230518285" lon="12.589542420839301"><ele>407.0</ele><time>2026-04-25T10:44:57Z</time></trkpt><trkpt lat="43.61919067873519" lon="12.589674607192421"><ele>403.25</ele><time>2026-04-25T10:44:58Z</time></trkpt><trkpt lat="43.61911725564234" lon="12.589844386366686"><ele>399.5</ele><time>2026-04-25T10:44:59Z</time></trkpt><trkpt lat="43.619051819105" lon="12.5899938550406"><ele>395.75</ele><time>2026-04-25T10:45:00Z</time></trkpt><trkpt lat="43.618989491081216" lon="12.59013357801421"><ele>392.0</ele><time>2026-04-25T10:45:01Z</time></trkpt><trkpt lat="43.618938100460355" lon="12.590269536789899"><ele>390.0</ele><time>2026-04-25T10:45:02Z</time></trkpt><trkpt lat="43.61889602513669" lon="12.590414783227764"><ele>388.0</ele><time>2026-04-25T10:45:03Z</time></trkpt><trkpt lat="43.61887844378317" lon="12.590571420649754"><ele>386.0</ele><time>2026-04-25T10:45:04Z</time></trkpt><trkpt lat="43.61889587072894" lon="12.590733251860819"><ele>384.0</ele><time>2026-04-25T10:45:05Z</time></trkpt><trkpt lat="43.618959796990126" lon="12.590881612718372"><ele>384.0</ele><time>2026-04-25T10:45:06Z</time></trkpt><trkpt lat="43.619020483584414" lon="12.59102347682437"><ele>384.0</ele><time>2026-04-25T10:45:07Z</time></trkpt><trkpt lat="43.619093023367874" lon="12.591162356818124"><ele>384.0</ele><time>2026-04-25T10:45:08Z</time></trkpt><trkpt lat="43.619156380667114" lon="12.591296253124188"><ele>384.0</ele><time>2026-04-25T10:45:09Z</time></trkpt><trkpt lat="43.61922686415614" lon="12.591408197084824"><ele>385.4</ele><time>2026-04-25T10:45:10Z</time></trkpt><trkpt lat="43.619314685712844" lon="12.591496441400764"><ele>386.79999999999995</ele><time>2026-04-25T10:45:11Z</time></trkpt><trkpt lat="43.6194221837192" lon="12.59149789654205"><ele>388.20000000000005</ele><time>2026-04-25T10:45:12Z</time></trkpt><trkpt lat="43.61952093194609" lon="12.59145718623869"><ele>389.6</ele><time>2026-04-25T10:45:13Z</time></trkpt><trkpt lat="43.6196302318042" lon="12.591424183967108"><ele>391.0</ele><time>2026-04-25T10:45:14Z</time></trkpt><trkpt lat="43.61974569190969" lon="12.591419501194755"><ele>391.0</ele><time>2026-04-25T10:45:15Z</time></trkpt><trkpt lat="43.61982605176416" lon="12.591444608854523"><ele>391.0</ele><time>2026-04-25T10:45:16Z</time></trkpt><trkpt lat="43.61989345869668" lon="12.591558623935326"><ele>391.0</ele><time>2026-04-25T10:45:18Z</time></trkpt><trkpt lat="43.6197999195169" lon="12.591681189346177"><ele>391.0</ele><time>2026-04-25T10:45:20Z</time></trkpt><trkpt lat="43.61972148278085" lon="12.591750425549122"><ele>391.0</ele><time>2026-04-25T10:45:21Z</time></trkpt><trkpt lat="43.61964055196448" lon="12.591863219641075"><ele>391.0</ele><time>2026-04-25T10:45:22Z</time></trkpt><trkpt lat="43.61954929430973" lon="12.591998754496244"><ele>391.0</ele><time>2026-04-25T10:45:23Z</time></trkpt><trkpt lat="43.619462239601376" lon="12.592159111385307"><ele>391.0</ele><time>2026-04-25T10:45:24Z</time></trkpt><trkpt lat="43.61939756724227" lon="12.592313642666946"><ele>391.0</ele><time>2026-04-25T10:45:25Z</time></trkpt><trkpt lat="43.61936148764122" lon="12.592432257088507"><ele>391.5</ele><time>2026-04-25T10:45:26Z</time></trkpt><trkpt lat="43.61938402402364" lon="12.59255942980258"><ele>392.0</ele><time>2026-04-25T10:45:27Z</time></trkpt><trkpt lat="43.61942737218088" lon="12.59273186306813"><ele>392.5</ele><time>2026-04-25T10:45:28Z</time></trkpt><trkpt lat="43.61949205794565" lon="12.59292552602002"><ele>393.0</ele><time>2026-04-25T10:45:29Z</time></trkpt><trkpt lat="43.61956821856437" lon="12.593137147654737"><ele>393.0</ele><time>2026-04-25T10:45:30Z</time></trkpt><trkpt lat="43.6196259500836" lon="12.593312692728338"><ele>393.0</ele><time>2026-04-25T10:45:31Z</time></trkpt><trkpt lat="43.61963735529659" lon="12.59347283265959"><ele>393.0</ele><time>2026-04-25T10:45:32Z</time></trkpt><trkpt lat="43.6196145407049" lon="12.59360701093803"><ele>393.0</ele><time>2026-04-25T10:45:33Z</time></trkpt><trkpt lat="43.619599520906846" lon="12.593786104155653"><ele>392.5</ele><time>2026-04-25T10:45:34Z</time></trkpt><trkpt lat="43.61958483356047" lon="12.593962257543055"><ele>392.0</ele><time>2026-04-25T10:45:35Z</time></trkpt><trkpt lat="43.6195618197601" lon="12.59418413350318"><ele>391.5</ele><time>2026-04-25T10:45:36Z</time></trkpt><trkpt lat="43.61953731681732" lon="12.59438155388378"><ele>391.0</ele><time>2026-04-25T10:45:37Z</time></trkpt><trkpt lat="43.61954022358975" lon="12.594562155442327"><ele>391.0</ele><time>2026-04-25T10:45:38Z</time></trkpt><trkpt lat="43.61955707873936" lon="12.594717802651251"><ele>391.0</ele><time>2026-04-25T10:45:39Z</time></trkpt><trkpt lat="43.619584064016735" lon="12.594868767807025"><ele>391.0</ele><time>2026-04-25T10:45:40Z</time></trkpt><trkpt lat="43.61962337741544" lon="12.595020008171938"><ele>391.0</ele><time>2026-04-25T10:45:41Z</time></trkpt><trkpt lat="43.61966666667976" lon="12.595153091636803"><ele>391.0</ele><time>2026-04-25T10:45:42Z</time></trkpt><trkpt lat="43.61971956712323" lon="12.595312556844256"><ele>390.20000000000005</ele><time>2026-04-25T10:45:43Z</time></trkpt><trkpt lat="43.61977328332947" lon="12.595466477257455"><ele>389.40000000000003</ele><time>2026-04-25T10:45:44Z</time></trkpt><trkpt lat="43.619819697636494" lon="12.595607738250868"><ele>388.6</ele><time>2026-04-25T10:45:45Z</time></trkpt><trkpt lat="43.61985184780499" lon="12.595713477642688"><ele>387.8</ele><time>2026-04-25T10:45:46Z</time></trkpt><trkpt lat="43.61987513204301" lon="12.595804681301452"><ele>387.0</ele><time>2026-04-25T10:45:47Z</time></trkpt><trkpt lat="43.619899810452175" lon="12.595920240171758"><ele>387.0</ele><time>2026-04-25T10:45:49Z</time></trkpt><trkpt lat="43.62003450874955" lon="12.59593890275547"><ele>387.0</ele><time>2026-04-25T10:45:51Z</time></trkpt><trkpt lat="43.62011768429981" lon="12.595943763770864"><ele>387.0</ele><time>2026-04-25T10:45:53Z</time></trkpt><trkpt lat="43.62020566838619" lon="12.595973065297759"><ele>387.0</ele><time>2026-04-25T10:45:55Z</time></trkpt><trkpt lat="43.620271381501695" lon="12.59598815443208"><ele>387.0</ele><time>2026-04-25T10:45:56Z</time></trkpt><trkpt lat="43.620357345829504" lon="12.595995932007312"><ele>386.25</ele><time>2026-04-25T10:45:57Z</time></trkpt><trkpt lat="43.62049476217968" lon="12.596002341006939"><ele>385.5</ele><time>2026-04-25T10:45:58Z</time></trkpt><trkpt lat="43.62063334948813" lon="12.595999031917982"><ele>384.75</ele><time>2026-04-25T10:45:59Z</time></trkpt><trkpt lat="43.62073466373398" lon="12.595989822209873"><ele>384.0</ele><time>2026-04-25T10:46:00Z</time></trkpt><trkpt lat="43.620807629169335" lon="12.596043845995313"><ele>384.0</ele><time>2026-04-25T10:46:01Z</time></trkpt><trkpt lat="43.62088469968869" lon="12.596112353276258"><ele>384.0</ele><time>2026-04-25T10:46:02Z</time></trkpt><trkpt lat="43.62095701082178" lon="12.596199481978257"><ele>384.0</ele><time>2026-04-25T10:46:03Z</time></trkpt><trkpt lat="43.62101349266051" lon="12.596274312070872"><ele>384.0</ele><time>2026-04-25T10:46:04Z</time></trkpt><trkpt lat="43.62107299304221" lon="12.596362427066591"><ele>384.0</ele><time>2026-04-25T10:46:05Z</time></trkpt><trkpt lat="43.62113658659441" lon="12.596459987426327"><ele>384.0</ele><time>2026-04-25T10:46:06Z</time></trkpt><trkpt lat="43.62121117894239" lon="12.596578581469354"><ele>384.0</ele><time>2026-04-25T10:46:07Z</time></trkpt><trkpt lat="43.6213123467764" lon="12.596702585348883"><ele>384.0</ele><time>2026-04-25T10:46:08Z</time></trkpt><trkpt lat="43.62141819734031" lon="12.596812665714198"><ele>384.0</ele><time>2026-04-25T10:46:09Z</time></trkpt><trkpt lat="43.621538043827094" lon="12.59693635960525"><ele>384.0</ele><time>2026-04-25T10:46:10Z</time></trkpt><trkpt lat="43.621634195505465" lon="12.597042950399619"><ele>384.2</ele><time>2026-04-25T10:46:11Z</time></trkpt><trkpt lat="43.621711559283405" lon="12.59715359485992"><ele>384.4</ele><time>2026-04-25T10:46:12Z</time></trkpt><trkpt lat="43.621768714522595" lon="12.597271557923593"><ele>384.6</ele><time>2026-04-25T10:46:13Z</time></trkpt><trkpt lat="43.62182205898754" lon="12.597402674520573"><ele>384.8</ele><time>2026-04-25T10:46:14Z</time></trkpt><trkpt lat="43.62187241773866" lon="12.597521627129318"><ele>385.0</ele><time>2026-04-25T10:46:15Z</time></trkpt><trkpt lat="43.62191930560576" lon="12.597630434283769"><ele>385.00000000000006</ele><time>2026-04-25T10:46:16Z</time></trkpt><trkpt lat="43.621966778969295" lon="12.597734426597992"><ele>385.0</ele><time>2026-04-25T10:46:17Z</time></trkpt><trkpt lat="43.6220154265129" lon="12.597835755401029"><ele>385.0</ele><time>2026-04-25T10:46:18Z</time></trkpt><trkpt lat="43.622068100080085" lon="12.597934186377348"><ele>385.0</ele><time>2026-04-25T10:46:19Z</time></trkpt><trkpt lat="43.62211897223089" lon="12.598024616215428"><ele>385.00000000000006</ele><time>2026-04-25T10:46:20Z</time></trkpt><trkpt lat="43.622172406760804" lon="12.59810571474476"><ele>385.0</ele><time>2026-04-25T10:46:21Z</time></trkpt><trkpt lat="43.62222825245793" lon="12.598179463211755"><ele>385.00000000000006</ele><time>2026-04-25T10:46:22Z</time></trkpt><trkpt lat="43.62229851476444" lon="12.598216958278897"><ele>385.0</ele><time>2026-04-25T10:46:23Z</time></trkpt><trkpt lat="43.62236041146547" lon="12.598263091578984"><ele>385.0</ele><time>2026-04-25T10:46:24Z</time></trkpt><trkpt lat="43.622435305445315" lon="12.598294343489627"><ele>385.0</ele><time>2026-04-25T10:46:25Z</time></trkpt><trkpt lat="43.622510996353135" lon="12.598304239561193"><ele>385.00000000000006</ele><time>2026-04-25T10:46:26Z</time></trkpt><trkpt lat="43.622594462339336" lon="12.59827933708583"><ele>385.0</ele><time>2026-04-25T10:46:27Z</time></trkpt><trkpt lat="43.62269747882276" lon="12.59823032319854"><ele>384.75</ele><time>2026-04-25T10:46:28Z</time></trkpt><trkpt lat="43.6228152763539" lon="12.598173906456388"><ele>384.5</ele><time>2026-04-25T10:46:29Z</time></trkpt><trkpt lat="43.62293863997896" lon="12.598125004128367"><ele>384.25</ele><time>2026-04-25T10:46:30Z</time></trkpt><trkpt lat="43.623047638319115" lon="12.598069623441916"><ele>384.0</ele><time>2026-04-25T10:46:31Z</time></trkpt><trkpt lat="43.62315501218834" lon="12.597985745698441"><ele>384.0</ele><time>2026-04-25T10:46:32Z</time></trkpt><trkpt lat="43.62326578238988" lon="12.597878193549771"><ele>384.0</ele><time>2026-04-25T10:46:33Z</time></trkpt><trkpt lat="43.62336886187295" lon="12.597747928675927"><ele>384.0</ele><time>2026-04-25T10:46:34Z</time></trkpt><trkpt lat="43.62346102334345" lon="12.597637131609423"><ele>384.0</ele><time>2026-04-25T10:46:35Z</time></trkpt><trkpt lat="43.62353875370308" lon="12.597528534841633"><ele>381.5</ele><time>2026-04-25T10:46:36Z</time></trkpt><trkpt lat="43.62361435385866" lon="12.597432855220488"><ele>379.0</ele><time>2026-04-25T10:46:37Z</time></trkpt><trkpt lat="43.623682796374325" lon="12.597341375823497"><ele>376.5</ele><time>2026-04-25T10:46:38Z</time></trkpt><trkpt lat="43.623745932179666" lon="12.597261629845814"><ele>374.0</ele><time>2026-04-25T10:46:39Z</time></trkpt><trkpt lat="43.62380697299274" lon="12.597192871087447"><ele>371.5</ele><time>2026-04-25T10:46:40Z</time></trkpt><trkpt lat="43.62388208632622" lon="12.597170403692951"><ele>369.0</ele><time>2026-04-25T10:46:41Z</time></trkpt><trkpt lat="43.624007075504" lon="12.597145477948692"><ele>367.8333333333333</ele><time>2026-04-25T10:46:43Z</time></trkpt><trkpt lat="43.624049622933626" lon="12.59721545405468"><ele>366.6666666666667</ele><time>2026-04-25T10:46:44Z</time></trkpt><trkpt lat="43.624068629809514" lon="12.597315955172077"><ele>365.5</ele><time>2026-04-25T10:46:46Z</time></trkpt><trkpt lat="43.624078986596516" lon="12.597438831997897"><ele>364.33333333333337</ele><time>2026-04-25T10:46:48Z</time></trkpt><trkpt lat="43.62406928756474" lon="12.597529907010959"><ele>363.1666666666667</ele><time>2026-04-25T10:46:49Z</time></trkpt><trkpt lat="43.62405504681677" lon="12.597647309229998"><ele>362.0</ele><time>2026-04-25T10:46:50Z</time></trkpt><trkpt lat="43.624033459324565" lon="12.597779835192055"><ele>364.0</ele><time>2026-04-25T10:46:51Z</time></trkpt><trkpt lat="43.62401012528633" lon="12.597924921724337"><ele>366.0</ele><time>2026-04-25T10:46:52Z</time></trkpt><trkpt lat="43.623989764626856" lon="12.598091749792985"><ele>368.0</ele><time>2026-04-25T10:46:53Z</time></trkpt><trkpt lat="43.62399924680689" lon="12.598251943414986"><ele>370.0</ele><time>2026-04-25T10:46:54Z</time></trkpt><trkpt lat="43.624047878926525" lon="12.59839712072924"><ele>370.0</ele><time>2026-04-25T10:46:55Z</time></trkpt><trkpt lat="43.62408461483426" lon="12.598522734242243"><ele>370.0</ele><time>2026-04-25T10:46:56Z</time></trkpt><trkpt lat="43.62414830591652" lon="12.598638004927952"><ele>370.0</ele><time>2026-04-25T10:46:57Z</time></trkpt><trkpt lat="43.62422884663788" lon="12.598790937845024"><ele>370.0</ele><time>2026-04-25T10:46:58Z</time></trkpt><trkpt lat="43.6243420035968" lon="12.598986279633278"><ele>371.3333333333333</ele><time>2026-04-25T10:46:59Z</time></trkpt><trkpt lat="43.62444079517702" lon="12.599190215560256"><ele>372.6666666666667</ele><time>2026-04-25T10:47:00Z</time></trkpt><trkpt lat="43.6245384114067" lon="12.599414767049835"><ele>374.0</ele><time>2026-04-25T10:47:01Z</time></trkpt><trkpt lat="43.62462488215198" lon="12.599601835569514"><ele>370.25</ele><time>2026-04-25T10:47:02Z</time></trkpt><trkpt lat="43.624687037177736" lon="12.599758522725923"><ele>366.5</ele><time>2026-04-25T10:47:03Z</time></trkpt><trkpt lat="43.62473052946617" lon="12.599902426991473"><ele>362.75</ele><time>2026-04-25T10:47:04Z</time></trkpt><trkpt lat="43.624761124671586" lon="12.600086186729895"><ele>359.0</ele><time>2026-04-25T10:47:05Z</time></trkpt><trkpt lat="43.62479582097377" lon="12.600304539892214"><ele>359.75</ele><time>2026-04-25T10:47:06Z</time></trkpt><trkpt lat="43.62481897091877" lon="12.60054387355665"><ele>360.5</ele><time>2026-04-25T10:47:07Z</time></trkpt><trkpt lat="43.624832087897545" lon="12.600743897257267"><ele>361.25</ele><time>2026-04-25T10:47:08Z</time></trkpt><trkpt lat="43.624854235357496" lon="12.600896810170555"><ele>362.0</ele><time>2026-04-25T10:47:09Z</time></trkpt><trkpt lat="43.62487797156693" lon="12.600998136934361"><ele>362.0</ele><time>2026-04-25T10:47:10Z</time></trkpt><trkpt lat="43.62494705052039" lon="12.601127385011896"><ele>362.0</ele><time>2026-04-25T10:47:12Z</time></trkpt><trkpt lat="43.62503027046531" lon="12.60114157396635"><ele>362.0</ele><time>2026-04-25T10:47:13Z</time></trkpt><trkpt lat="43.62511664135947" lon="12.601163235782847"><ele>362.0</ele><time>2026-04-25T10:47:14Z</time></trkpt><trkpt lat="43.62520237032242" lon="12.601166638271513"><ele>362.0</ele><time>2026-04-25T10:47:15Z</time></trkpt><trkpt lat="43.62528444857574" lon="12.601157645319432"><ele>361.6</ele><time>2026-04-25T10:47:16Z</time></trkpt><trkpt lat="43.625362379908736" lon="12.60114716036456"><ele>361.20000000000005</ele><time>2026-04-25T10:47:17Z</time></trkpt><trkpt lat="43.62546704392357" lon="12.60124146868208"><ele>360.8</ele><time>2026-04-25T10:47:19Z</time></trkpt><trkpt lat="43.625469723531396" lon="12.601347131873736"><ele>360.4</ele><time>2026-04-25T10:47:20Z</time></trkpt><trkpt lat="43.625515190202634" lon="12.60149174698727"><ele>360.0</ele><time>2026-04-25T10:47:21Z</time></trkpt><trkpt lat="43.62556931842724" lon="12.601664038718377"><ele>360.0</ele><time>2026-04-25T10:47:22Z</time></trkpt><trkpt lat="43.62563979745125" lon="12.601862189982317"><ele>360.0</ele><time>2026-04-25T10:47:23Z</time></trkpt><trkpt lat="43.62573711534444" lon="12.602017360556916"><ele>360.0</ele><time>2026-04-25T10:47:24Z</time></trkpt><trkpt lat="43.62581523571587" lon="12.602115328169727"><ele>360.0</ele><time>2026-04-25T10:47:25Z</time></trkpt><trkpt lat="43.62588081588061" lon="12.60219291082603"><ele>359.2</ele><time>2026-04-25T10:47:26Z</time></trkpt><trkpt lat="43.6259636670708" lon="12.602236984811016"><ele>358.4</ele><time>2026-04-25T10:47:27Z</time></trkpt><trkpt lat="43.626032847355525" lon="12.602272221770855"><ele>357.6</ele><time>2026-04-25T10:47:28Z</time></trkpt><trkpt lat="43.6261130223672" lon="12.602328658798246"><ele>356.8</ele><time>2026-04-25T10:47:30Z</time></trkpt><trkpt lat="43.62619767231383" lon="12.60238644591479"><ele>356.0</ele><time>2026-04-25T10:47:32Z</time></trkpt><trkpt lat="43.626304193552784" lon="12.602453476171092"><ele>355.8</ele><time>2026-04-25T10:47:34Z</time></trkpt><trkpt lat="43.62633638065646" lon="12.602538853065694"><ele>355.6</ele><time>2026-04-25T10:47:35Z</time></trkpt><trkpt lat="43.62638688310668" lon="12.602627236002961"><ele>355.4</ele><time>2026-04-25T10:47:36Z</time></trkpt><trkpt lat="43.62645476473645" lon="12.60271964030097"><ele>355.2</ele><time>2026-04-25T10:47:37Z</time></trkpt><trkpt lat="43.62654014943411" lon="12.602780720558023"><ele>355.0</ele><time>2026-04-25T10:47:38Z</time></trkpt><trkpt lat="43.62663997681231" lon="12.602858296146994"><ele>352.75</ele><time>2026-04-25T10:47:39Z</time></trkpt><trkpt lat="43.62675666849788" lon="12.602936208921344"><ele>350.5</ele><time>2026-04-25T10:47:40Z</time></trkpt><trkpt lat="43.62688440005173" lon="12.603004991119592"><ele>348.25</ele><time>2026-04-25T10:47:41Z</time></trkpt><trkpt lat="43.62701344673137" lon="12.603064516052287"><ele>346.0</ele><time>2026-04-25T10:47:42Z</time></trkpt><trkpt lat="43.627140781784256" lon="12.603106472813229"><ele>345.8</ele><time>2026-04-25T10:47:43Z</time></trkpt><trkpt lat="43.62726391985938" lon="12.60313636254934"><ele>345.6</ele><time>2026-04-25T10:47:44Z</time></trkpt><trkpt lat="43.62737351436716" lon="12.603148934232784"><ele>345.4</ele><time>2026-04-25T10:47:45Z</time></trkpt><trkpt lat="43.62747287971617" lon="12.603163001853096"><ele>345.2</ele><time>2026-04-25T10:47:46Z</time></trkpt><trkpt lat="43.62756380865608" lon="12.603200927536692"><ele>345.0</ele><time>2026-04-25T10:47:47Z</time></trkpt><trkpt lat="43.62762034698643" lon="12.60330719304029"><ele>345.0</ele><time>2026-04-25T10:47:48Z</time></trkpt><trkpt lat="43.62769117638744" lon="12.60341413979193"><ele>345.0</ele><time>2026-04-25T10:47:49Z</time></trkpt><trkpt lat="43.627762628588215" lon="12.603545403461643"><ele>345.0</ele><time>2026-04-25T10:47:50Z</time></trkpt><trkpt lat="43.62783446314525" lon="12.603690715733471"><ele>345.0</ele><time>2026-04-25T10:47:51Z</time></trkpt><trkpt lat="43.627889615370556" lon="12.603836750599545"><ele>342.25</ele><time>2026-04-25T10:47:52Z</time></trkpt><trkpt lat="43.627933431605506" lon="12.603991128977748"><ele>339.5</ele><time>2026-04-25T10:47:53Z</time></trkpt><trkpt lat="43.62797126570316" lon="12.604176500490977"><ele>336.75</ele><time>2026-04-25T10:47:54Z</time></trkpt><trkpt lat="43.62798670788685" lon="12.604365182914828"><ele>334.0</ele><time>2026-04-25T10:47:55Z</time></trkpt><trkpt lat="43.62798785152227" lon="12.60456518314704"><ele>334.0</ele><time>2026-04-25T10:47:56Z</time></trkpt><trkpt lat="43.62796324864678" lon="12.60473413477614"><ele>334.0</ele><time>2026-04-25T10:47:57Z</time></trkpt><trkpt lat="43.62793026790519" lon="12.604903905898317"><ele>334.0</ele><time>2026-04-25T10:47:58Z</time></trkpt><trkpt lat="43.62790023125936" lon="12.605068888879542"><ele>334.0</ele><time>2026-04-25T10:47:59Z</time></trkpt><trkpt lat="43.62787518834067" lon="12.60519472225702"><ele>334.0</ele><time>2026-04-25T10:48:00Z</time></trkpt><trkpt lat="43.62786338047439" lon="12.60531701996402"><ele>334.0</ele><time>2026-04-25T10:48:01Z</time></trkpt><trkpt lat="43.627880135938184" lon="12.605425646738787"><ele>334.0</ele><time>2026-04-25T10:48:02Z</time></trkpt><trkpt lat="43.62795573690877" lon="12.605514369722213"><ele>334.0</ele><time>2026-04-25T10:48:03Z</time></trkpt><trkpt lat="43.628005753667864" lon="12.605628812776063"><ele>334.0</ele><time>2026-04-25T10:48:04Z</time></trkpt><trkpt lat="43.628091171000854" lon="12.605763540954438"><ele>332.75</ele><time>2026-04-25T10:48:05Z</time></trkpt><trkpt lat="43.628186194506085" lon="12.605919545976015"><ele>331.5</ele><time>2026-04-25T10:48:06Z</time></trkpt><trkpt lat="43.62828653641064" lon="12.606064397262886"><ele>330.25</ele><time>2026-04-25T10:48:07Z</time></trkpt><trkpt lat="43.628379572934236" lon="12.606193177070924"><ele>329.0</ele><time>2026-04-25T10:48:08Z</time></trkpt><trkpt lat="43.62847583539337" lon="12.606299487661435"><ele>329.6</ele><time>2026-04-25T10:48:09Z</time></trkpt><trkpt lat="43.628552481799225" lon="12.606403056377433"><ele>330.2</ele><time>2026-04-25T10:48:10Z</time></trkpt><trkpt lat="43.62861889721596" lon="12.606478613936206"><ele>330.8</ele><time>2026-04-25T10:48:11Z</time></trkpt><trkpt lat="43.62868989685135" lon="12.606538922588552"><ele>331.40000000000003</ele><time>2026-04-25T10:48:13Z</time></trkpt><trkpt lat="43.62880819816537" lon="12.606509098349958"><ele>332.0</ele><time>2026-04-25T10:48:22Z</time></trkpt><trkpt lat="43.62884731048465" lon="12.60630741549861"><ele>332.0</ele><time>2026-04-25T10:48:23Z</time></trkpt><trkpt lat="43.6289207244569" lon="12.606178451034989"><ele>332.0</ele><time>2026-04-25T10:48:25Z</time></trkpt><trkpt lat="43.628986166023616" lon="12.606031011451687"><ele>332.0</ele><time>2026-04-25T10:48:27Z</time></trkpt><trkpt lat="43.62901844188914" lon="12.605942217187916"><ele>332.0</ele><time>2026-04-25T10:48:28Z</time></trkpt><trkpt lat="43.62905140626921" lon="12.605858018325561"><ele>332.0</ele><time>2026-04-25T10:48:29Z</time></trkpt><trkpt lat="43.629083498735525" lon="12.605775190695603"><ele>331.33333333333337</ele><time>2026-04-25T10:48:30Z</time></trkpt><trkpt lat="43.62913851569684" lon="12.605642527400677"><ele>330.6666666666667</ele><time>2026-04-25T10:48:32Z</time></trkpt><trkpt lat="43.62919075034176" lon="12.605517915534039"><ele>330.0</ele><time>2026-04-25T10:48:34Z</time></trkpt><trkpt lat="43.629232544606474" lon="12.605428509412826"><ele>329.3333333333333</ele><time>2026-04-25T10:48:36Z</time></trkpt><trkpt lat="43.62927107055256" lon="12.60534637367338"><ele>328.66666666666663</ele><time>2026-04-25T10:48:38Z</time></trkpt><trkpt lat="43.62931845956028" lon="12.605273648661324"><ele>328.0</ele><time>2026-04-25T10:48:40Z</time></trkpt><trkpt lat="43.62937270896994" lon="12.60521918910267"><ele>327.4</ele><time>2026-04-25T10:48:43Z</time></trkpt><trkpt lat="43.62946311660993" lon="12.605243422831867"><ele>326.79999999999995</ele><time>2026-04-25T10:49:39Z</time></trkpt><trkpt lat="43.629580657243416" lon="12.605273993557814"><ele>326.2</ele><time>2026-04-25T10:49:41Z</time></trkpt><trkpt lat="43.629656949803326" lon="12.605290317464481"><ele>325.6</ele><time>2026-04-25T10:49:42Z</time></trkpt><trkpt lat="43.62972999236356" lon="12.605310863036332"><ele>325.0</ele><time>2026-04-25T10:49:43Z</time></trkpt><trkpt lat="43.62981635655975" lon="12.605335999161952"><ele>325.0</ele><time>2026-04-25T10:49:44Z</time></trkpt><trkpt lat="43.62990747982982" lon="12.605362814094091"><ele>325.0</ele><time>2026-04-25T10:49:45Z</time></trkpt><trkpt lat="43.63000155464411" lon="12.605395501251113"><ele>325.0</ele><time>2026-04-25T10:49:46Z</time></trkpt><trkpt lat="43.630090376545425" lon="12.605421195764617"><ele>325.0</ele><time>2026-04-25T10:49:47Z</time></trkpt><trkpt lat="43.630171598007" lon="12.605444975292263"><ele>325.0</ele><time>2026-04-25T10:49:48Z</time></trkpt><trkpt lat="43.63025600522599" lon="12.6054683007503"><ele>324.2</ele><time>2026-04-25T10:49:49Z</time></trkpt><trkpt lat="43.630344128790256" lon="12.605493674922684"><ele>323.4</ele><time>2026-04-25T10:49:50Z</time></trkpt><trkpt lat="43.63043667826946" lon="12.605531061193474"><ele>322.6</ele><time>2026-04-25T10:49:51Z</time></trkpt><trkpt lat="43.630533280771225" lon="12.605570847029774"><ele>321.8</ele><time>2026-04-25T10:49:52Z</time></trkpt><trkpt lat="43.6306305206405" lon="12.605616741645015"><ele>321.0</ele><time>2026-04-25T10:49:53Z</time></trkpt><trkpt lat="43.63072638194773" lon="12.605663015811295"><ele>321.0</ele><time>2026-04-25T10:49:54Z</time></trkpt><trkpt lat="43.630823534642694" lon="12.605708028794957"><ele>321.0</ele><time>2026-04-25T10:49:55Z</time></trkpt><trkpt lat="43.63092520708431" lon="12.605747260345039"><ele>321.0</ele><time>2026-04-25T10:49:56Z</time></trkpt><trkpt lat="43.631018140177424" lon="12.605778208450625"><ele>321.0</ele><time>2026-04-25T10:49:57Z</time></trkpt><trkpt lat="43.63110727025506" lon="12.605812023029667"><ele>321.0</ele><time>2026-04-25T10:49:58Z</time></trkpt><trkpt lat="43.631184618616956" lon="12.605843325660809"><ele>321.3333333333333</ele><time>2026-04-25T10:49:59Z</time></trkpt><trkpt lat="43.6312738083358" lon="12.60587467104628"><ele>321.6666666666667</ele><time>2026-04-25T10:50:00Z</time></trkpt><trkpt lat="43.631359218719716" lon="12.605906597274325"><ele>322.0</ele><time>2026-04-25T10:50:01Z</time></trkpt><trkpt lat="43.63143809514626" lon="12.605933619259616"><ele>322.33333333333337</ele><time>2026-04-25T10:50:02Z</time></trkpt><trkpt lat="43.63154377941597" lon="12.605971535955216"><ele>322.6666666666667</ele><time>2026-04-25T10:50:04Z</time></trkpt><trkpt lat="43.631587895355636" lon="12.606048780664002"><ele>323.0</ele><time>2026-04-25T10:50:06Z</time></trkpt><trkpt lat="43.63148328441065" lon="12.606180788607173"><ele>323.0</ele><time>2026-04-25T10:50:09Z</time></trkpt><trkpt lat="43.631428138812474" lon="12.60633441766182"><ele>323.0</ele><time>2026-04-25T10:50:11Z</time></trkpt><trkpt lat="43.63137414224152" lon="12.606487262432788"><ele>323.0</ele><time>2026-04-25T10:50:13Z</time></trkpt><trkpt lat="43.63134621394076" lon="12.60656631735916"><ele>323.0</ele><time>2026-04-25T10:50:14Z</time></trkpt><trkpt lat="43.631306128338785" lon="12.606678896038835"><ele>323.0</ele><time>2026-04-25T10:50:16Z</time></trkpt><trkpt lat="43.631264423689444" lon="12.606791697691934"><ele>323.0</ele><time>2026-04-25T10:50:19Z</time></trkpt><trkpt lat="43.631206797483145" lon="12.60694756356222"><ele>323.0</ele><time>2026-04-25T10:50:21Z</time></trkpt><trkpt lat="43.63117274706676" lon="12.607039661548523"><ele>323.0</ele><time>2026-04-25T10:50:22Z</time></trkpt><trkpt lat="43.631136913333414" lon="12.607140321667456"><ele>323.0</ele><time>2026-04-25T10:50:23Z</time></trkpt><trkpt lat="43.631101767249014" lon="12.607247244933072"><ele>323.0</ele><time>2026-04-25T10:50:24Z</time></trkpt><trkpt lat="43.63106925864338" lon="12.607348527616471"><ele>323.0</ele><time>2026-04-25T10:50:25Z</time></trkpt><trkpt lat="43.631034512592585" lon="12.60743798707336"><ele>326.0</ele><time>2026-04-25T10:50:26Z</time></trkpt><trkpt lat="43.63098844472668" lon="12.607510846909966"><ele>329.0</ele><time>2026-04-25T10:50:27Z</time></trkpt><trkpt lat="43.63092958790596" lon="12.6075768771168"><ele>332.0</ele><time>2026-04-25T10:50:28Z</time></trkpt><trkpt lat="43.63085793076247" lon="12.607608914027663"><ele>335.0</ele><time>2026-04-25T10:50:29Z</time></trkpt><trkpt lat="43.63078200261019" lon="12.607650652729733"><ele>338.0</ele><time>2026-04-25T10:50:30Z</time></trkpt><trkpt lat="43.63069902950526" lon="12.607701712092364"><ele>341.0</ele><time>2026-04-25T10:50:31Z</time></trkpt><trkpt lat="43.63062324628398" lon="12.607757939794823"><ele>341.0</ele><time>2026-04-25T10:50:32Z</time></trkpt><trkpt lat="43.630553903202795" lon="12.607813935234125"><ele>341.0</ele><time>2026-04-25T10:50:33Z</time></trkpt><trkpt lat="43.6304882427754" lon="12.607873913332222"><ele>341.0</ele><time>2026-04-25T10:50:34Z</time></trkpt><trkpt lat="43.63043871642189" lon="12.60795588128072"><ele>341.0</ele><time>2026-04-25T10:50:35Z</time></trkpt><trkpt lat="43.63038343927033" lon="12.60801372864184"><ele>341.0</ele><time>2026-04-25T10:50:36Z</time></trkpt><trkpt lat="43.63032790363095" lon="12.608093659191935"><ele>341.0</ele><time>2026-04-25T10:50:37Z</time></trkpt><trkpt lat="43.630263468017596" lon="12.608202529748143"><ele>342.20000000000005</ele><time>2026-04-25T10:50:38Z</time></trkpt><trkpt lat="43.630196201015856" lon="12.608286880058342"><ele>343.40000000000003</ele><time>2026-04-25T10:50:39Z</time></trkpt><trkpt lat="43.63013365660347" lon="12.608394117551043"><ele>344.6</ele><time>2026-04-25T10:50:40Z</time></trkpt><trkpt lat="43.630057244065526" lon="12.608519202010264"><ele>345.8</ele><time>2026-04-25T10:50:41Z</time></trkpt><trkpt lat="43.62999168713769" lon="12.608652440305292"><ele>347.0</ele><time>2026-04-25T10:50:42Z</time></trkpt><trkpt lat="43.62995135983658" lon="12.60876792918357"><ele>349.6</ele><time>2026-04-25T10:50:43Z</time></trkpt><trkpt lat="43.62993479134222" lon="12.608890466106121"><ele>352.20000000000005</ele><time>2026-04-25T10:50:44Z</time></trkpt><trkpt lat="43.629982839835996" lon="12.609022997871001"><ele>354.8</ele><time>2026-04-25T10:50:45Z</time></trkpt><trkpt lat="43.630068455451635" lon="12.60911958866893"><ele>357.4</ele><time>2026-04-25T10:50:46Z</time></trkpt><trkpt lat="43.63014956068162" lon="12.609236833334567"><ele>360.0</ele><time>2026-04-25T10:50:47Z</time></trkpt><trkpt lat="43.63023136662722" lon="12.609351868284179"><ele>360.0</ele><time>2026-04-25T10:50:48Z</time></trkpt><trkpt lat="43.630291614498404" lon="12.609488322277446"><ele>360.0</ele><time>2026-04-25T10:50:49Z</time></trkpt><trkpt lat="43.630369932317514" lon="12.609604343974377"><ele>360.0</ele><time>2026-04-25T10:50:50Z</time></trkpt><trkpt lat="43.63042359420264" lon="12.60974011549835"><ele>360.0</ele><time>2026-04-25T10:50:51Z</time></trkpt><trkpt lat="43.630483837389576" lon="12.609855832450222"><ele>360.0</ele><time>2026-04-25T10:50:52Z</time></trkpt><trkpt lat="43.6305466611057" lon="12.609966211755122"><ele>361.8</ele><time>2026-04-25T10:50:53Z</time></trkpt><trkpt lat="43.63063460306003" lon="12.610042816595767"><ele>363.6</ele><time>2026-04-25T10:50:54Z</time></trkpt><trkpt lat="43.630739350707984" lon="12.610115239663056"><ele>365.4</ele><time>2026-04-25T10:50:55Z</time></trkpt><trkpt lat="43.63085571561169" lon="12.610167316608642"><ele>367.2</ele><time>2026-04-25T10:50:56Z</time></trkpt><trkpt lat="43.63095210626353" lon="12.610189505614727"><ele>369.0</ele><time>2026-04-25T10:50:57Z</time></trkpt><trkpt lat="43.631013996351776" lon="12.610208315436651"><ele>368.4</ele><time>2026-04-25T10:50:58Z</time></trkpt><trkpt lat="43.6310346984868" lon="12.610328141167948"><ele>367.79999999999995</ele><time>2026-04-25T10:51:00Z</time></trkpt><trkpt lat="43.631035182206396" lon="12.610429842589332"><ele>367.20000000000005</ele><time>2026-04-25T10:51:01Z</time></trkpt><trkpt lat="43.63107955852384" lon="12.610557851810347"><ele>366.6</ele><time>2026-04-25T10:51:02Z</time></trkpt><trkpt lat="43.63114630792848" lon="12.610707313592904"><ele>366.0</ele><time>2026-04-25T10:51:03Z</time></trkpt><trkpt lat="43.631219143425696" lon="12.61086944444054"><ele>366.0</ele><time>2026-04-25T10:51:04Z</time></trkpt><trkpt lat="43.63130338559193" lon="12.611021191892705"><ele>366.0</ele><time>2026-04-25T10:51:05Z</time></trkpt><trkpt lat="43.63135053959333" lon="12.611200088373083"><ele>366.0</ele><time>2026-04-25T10:51:06Z</time></trkpt><trkpt lat="43.631412375910145" lon="12.611371642848527"><ele>366.0</ele><time>2026-04-25T10:51:07Z</time></trkpt><trkpt lat="43.631478137908005" lon="12.611562002592564"><ele>364.5</ele><time>2026-04-25T10:51:08Z</time></trkpt><trkpt lat="43.63154021907372" lon="12.611741707495973"><ele>363.0</ele><time>2026-04-25T10:51:09Z</time></trkpt><trkpt lat="43.63159882747566" lon="12.611912535363986"><ele>361.5</ele><time>2026-04-25T10:51:10Z</time></trkpt><trkpt lat="43.631655518319725" lon="12.612080581051393"><ele>360.0</ele><time>2026-04-25T10:51:11Z</time></trkpt><trkpt lat="43.63171542398031" lon="12.612245521095637"><ele>360.0</ele><time>2026-04-25T10:51:12Z</time></trkpt><trkpt lat="43.631781380549874" lon="12.612405690014173"><ele>360.0</ele><time>2026-04-25T10:51:13Z</time></trkpt><trkpt lat="43.6318590997563" lon="12.612582743112634"><ele>360.0</ele><time>2026-04-25T10:51:14Z</time></trkpt><trkpt lat="43.631936311884864" lon="12.612763187761823"><ele>360.0</ele><time>2026-04-25T10:51:15Z</time></trkpt><trkpt lat="43.632030610832246" lon="12.612935372374906"><ele>354.3333333333333</ele><time>2026-04-25T10:51:16Z</time></trkpt><trkpt lat="43.63210282021403" lon="12.613096227438046"><ele>348.66666666666663</ele><time>2026-04-25T10:51:17Z</time></trkpt><trkpt lat="43.63218077290209" lon="12.613276913669825"><ele>343.0</ele><time>2026-04-25T10:51:18Z</time></trkpt><trkpt lat="43.63226903352399" lon="12.613487098160851"><ele>345.3333333333333</ele><time>2026-04-25T10:51:19Z</time></trkpt><trkpt lat="43.63237448678102" lon="12.61369105317594"><ele>347.6666666666667</ele><time>2026-04-25T10:51:20Z</time></trkpt><trkpt lat="43.632495577126086" lon="12.613899135596077"><ele>350.0</ele><time>2026-04-25T10:51:21Z</time></trkpt><trkpt lat="43.632607827555965" lon="12.61407094301739"><ele>350.0</ele><time>2026-04-25T10:51:22Z</time></trkpt><trkpt lat="43.63272141291023" lon="12.614223870205164"><ele>350.0</ele><time>2026-04-25T10:51:23Z</time></trkpt><trkpt lat="43.63280447217873" lon="12.61437873061448"><ele>350.0</ele><time>2026-04-25T10:51:24Z</time></trkpt><trkpt lat="43.63287391451019" lon="12.61451008242782"><ele>350.0</ele><time>2026-04-25T10:51:25Z</time></trkpt><trkpt lat="43.63289752305208" lon="12.61461589848653"><ele>348.1666666666667</ele><time>2026-04-25T10:51:26Z</time></trkpt><trkpt lat="43.6329175353985" lon="12.614727553704261"><ele>346.33333333333337</ele><time>2026-04-25T10:51:27Z</time></trkpt><trkpt lat="43.63293364522558" lon="12.614856074475831"><ele>344.5</ele><time>2026-04-25T10:51:28Z</time></trkpt><trkpt lat="43.632964790276155" lon="12.614975251038308"><ele>342.6666666666667</ele><time>2026-04-25T10:51:29Z</time></trkpt><trkpt lat="43.63300230447182" lon="12.615072931991905"><ele>340.8333333333333</ele><time>2026-04-25T10:51:30Z</time></trkpt><trkpt lat="43.63306243456862" lon="12.615156523442453"><ele>339.0</ele><time>2026-04-25T10:51:31Z</time></trkpt><trkpt lat="43.63314352626701" lon="12.615202513219234"><ele>339.0</ele><time>2026-04-25T10:51:32Z</time></trkpt><trkpt lat="43.6332584912251" lon="12.615131992105708"><ele>339.0</ele><time>2026-04-25T10:51:33Z</time></trkpt><trkpt lat="43.63335165757758" lon="12.615151218798234"><ele>339.0</ele><time>2026-04-25T10:51:34Z</time></trkpt><trkpt lat="43.63343335599368" lon="12.615166381154317"><ele>339.0</ele><time>2026-04-25T10:51:35Z</time></trkpt><trkpt lat="43.6334875020983" lon="12.615258144315037"><ele>339.0</ele><time>2026-04-25T10:51:36Z</time></trkpt><trkpt lat="43.633551074504645" lon="12.615378578130207"><ele>340.5</ele><time>2026-04-25T10:51:37Z</time></trkpt><trkpt lat="43.63362357826835" lon="12.615522579282645"><ele>342.0</ele><time>2026-04-25T10:51:38Z</time></trkpt><trkpt lat="43.633705174353956" lon="12.615700330133896"><ele>343.5</ele><time>2026-04-25T10:51:39Z</time></trkpt><trkpt lat="43.6337840350575" lon="12.615886191627835"><ele>345.0</ele><time>2026-04-25T10:51:40Z</time></trkpt><trkpt lat="43.633858444911745" lon="12.616075366880615"><ele>341.0</ele><time>2026-04-25T10:51:41Z</time></trkpt><trkpt lat="43.63392574336519" lon="12.61628110850225"><ele>337.0</ele><time>2026-04-25T10:51:42Z</time></trkpt><trkpt lat="43.6339995297763" lon="12.616521688610101"><ele>333.0</ele><time>2026-04-25T10:51:43Z</time></trkpt><trkpt lat="43.634089163984065" lon="12.616737278285417"><ele>333.0</ele><time>2026-04-25T10:51:44Z</time></trkpt><trkpt lat="43.634203979550726" lon="12.616906348209396"><ele>333.0</ele><time>2026-04-25T10:51:45Z</time></trkpt><trkpt lat="43.63430403564158" lon="12.617067218823575"><ele>333.0</ele><time>2026-04-25T10:51:46Z</time></trkpt><trkpt lat="43.63445107185388" lon="12.617231137119237"><ele>332.6666666666667</ele><time>2026-04-25T10:51:47Z</time></trkpt><trkpt lat="43.634608518732" lon="12.617391652538887"><ele>332.33333333333337</ele><time>2026-04-25T10:51:48Z</time></trkpt><trkpt lat="43.63477311991715" lon="12.617565567892226"><ele>332.0</ele><time>2026-04-25T10:51:49Z</time></trkpt><trkpt lat="43.63491887633203" lon="12.617720177565618"><ele>334.0</ele><time>2026-04-25T10:51:50Z</time></trkpt><trkpt lat="43.63504294880611" lon="12.617889835228475"><ele>336.0</ele><time>2026-04-25T10:51:51Z</time></trkpt><trkpt lat="43.63518112940541" lon="12.618056491269561"><ele>338.0</ele><time>2026-04-25T10:51:52Z</time></trkpt><trkpt lat="43.635314618419386" lon="12.61822120236632"><ele>338.0</ele><time>2026-04-25T10:51:53Z</time></trkpt><trkpt lat="43.63543334414108" lon="12.618375686419917"><ele>338.0</ele><time>2026-04-25T10:51:54Z</time></trkpt><trkpt lat="43.635555019580835" lon="12.618542108611638"><ele>338.0</ele><time>2026-04-25T10:51:55Z</time></trkpt><trkpt lat="43.63567007612677" lon="12.618701104958536"><ele>339.5</ele><time>2026-04-25T10:51:56Z</time></trkpt><trkpt lat="43.63577681707624" lon="12.618848610193204"><ele>341.0</ele><time>2026-04-25T10:51:57Z</time></trkpt><trkpt lat="43.635880842718805" lon="12.618992363053396"><ele>342.5</ele><time>2026-04-25T10:51:58Z</time></trkpt><trkpt lat="43.63598581809633" lon="12.619138812125"><ele>344.0</ele><time>2026-04-25T10:51:59Z</time></trkpt><trkpt lat="43.63608173130069" lon="12.619274875403908"><ele>343.5</ele><time>2026-04-25T10:52:00Z</time></trkpt><trkpt lat="43.636172390909756" lon="12.619408522020734"><ele>343.0</ele><time>2026-04-25T10:52:01Z</time></trkpt><trkpt lat="43.636277445349" lon="12.619510494351399"><ele>342.5</ele><time>2026-04-25T10:52:02Z</time></trkpt><trkpt lat="43.63639504365877" lon="12.619640783367254"><ele>342.0</ele><time>2026-04-25T10:52:03Z</time></trkpt><trkpt lat="43.63649899367942" lon="12.619745605824406"><ele>342.0</ele><time>2026-04-25T10:52:04Z</time></trkpt><trkpt lat="43.63659109646363" lon="12.619817475646881"><ele>342.0</ele><time>2026-04-25T10:52:05Z</time></trkpt><trkpt lat="43.636674471931215" lon="12.619867861071011"><ele>342.0</ele><time>2026-04-25T10:52:06Z</time></trkpt><trkpt lat="43.636748797864485" lon="12.619928099796931"><ele>342.0</ele><time>2026-04-25T10:52:07Z</time></trkpt><trkpt lat="43.63682556104647" lon="12.619983101261298"><ele>342.0</ele><time>2026-04-25T10:52:08Z</time></trkpt><trkpt lat="43.636900547929606" lon="12.620033889521222"><ele>342.0</ele><time>2026-04-25T10:52:09Z</time></trkpt><trkpt lat="43.6369580886256" lon="12.620104350522885"><ele>342.0</ele><time>2026-04-25T10:52:10Z</time></trkpt><trkpt lat="43.6370239950817" lon="12.62018660508943"><ele>342.0</ele><time>2026-04-25T10:52:11Z</time></trkpt><trkpt lat="43.63708313771032" lon="12.620315313116526"><ele>342.0</ele><time>2026-04-25T10:52:12Z</time></trkpt><trkpt lat="43.6371514045848" lon="12.620489977077971"><ele>342.0</ele><time>2026-04-25T10:52:13Z</time></trkpt><trkpt lat="43.63720565615799" lon="12.620670263025037"><ele>340.25</ele><time>2026-04-25T10:52:14Z</time></trkpt><trkpt lat="43.637246783273184" lon="12.620852518565089"><ele>338.5</ele><time>2026-04-25T10:52:15Z</time></trkpt><trkpt lat="43.637273699312054" lon="12.621022040840096"><ele>336.75</ele><time>2026-04-25T10:52:16Z</time></trkpt><trkpt lat="43.63728762642692" lon="12.62121070294591"><ele>335.0</ele><time>2026-04-25T10:52:17Z</time></trkpt><trkpt lat="43.63726942780104" lon="12.621415402609944"><ele>334.75</ele><time>2026-04-25T10:52:18Z</time></trkpt><trkpt lat="43.63726245235268" lon="12.621620879687615"><ele>334.5</ele><time>2026-04-25T10:52:19Z</time></trkpt><trkpt lat="43.63726469581562" lon="12.621808506577636"><ele>334.25</ele><time>2026-04-25T10:52:20Z</time></trkpt><trkpt lat="43.63727476890879" lon="12.621989159276431"><ele>334.0</ele><time>2026-04-25T10:52:21Z</time></trkpt><trkpt lat="43.63729643779598" lon="12.62215117380399"><ele>334.75</ele><time>2026-04-25T10:52:22Z</time></trkpt><trkpt lat="43.63731120245852" lon="12.622306831841358"><ele>335.5</ele><time>2026-04-25T10:52:23Z</time></trkpt><trkpt lat="43.63733436258638" lon="12.62246121983011"><ele>336.25</ele><time>2026-04-25T10:52:24Z</time></trkpt><trkpt lat="43.637378363313815" lon="12.62261335975248"><ele>337.0</ele><time>2026-04-25T10:52:25Z</time></trkpt><trkpt lat="43.63742922483099" lon="12.622757582827203"><ele>337.25</ele><time>2026-04-25T10:52:26Z</time></trkpt><trkpt lat="43.63748748828023" lon="12.62290945542609"><ele>337.5</ele><time>2026-04-25T10:52:27Z</time></trkpt><trkpt lat="43.637559210291016" lon="12.623070236896396"><ele>337.75</ele><time>2026-04-25T10:52:28Z</time></trkpt><trkpt lat="43.637642356605426" lon="12.623238653569443"><ele>338.0</ele><time>2026-04-25T10:52:29Z</time></trkpt><trkpt lat="43.63771766568678" lon="12.623396975178048"><ele>338.0</ele><time>2026-04-25T10:52:30Z</time></trkpt><trkpt lat="43.637786532413195" lon="12.623531257355326"><ele>338.0</ele><time>2026-04-25T10:52:31Z</time></trkpt><trkpt lat="43.63783172206877" lon="12.623669275160566"><ele>338.0</ele><time>2026-04-25T10:52:32Z</time></trkpt><trkpt lat="43.63787255339479" lon="12.623813581363619"><ele>338.0</ele><time>2026-04-25T10:52:33Z</time></trkpt><trkpt lat="43.63790866416948" lon="12.623966830299208"><ele>339.75</ele><time>2026-04-25T10:52:34Z</time></trkpt><trkpt lat="43.637928293942615" lon="12.624128444009665"><ele>341.5</ele><time>2026-04-25T10:52:35Z</time></trkpt><trkpt lat="43.63792904999714" lon="12.624286592375563"><ele>343.25</ele><time>2026-04-25T10:52:36Z</time></trkpt><trkpt lat="43.637920032913925" lon="12.624459027118307"><ele>345.0</ele><time>2026-04-25T10:52:37Z</time></trkpt><trkpt lat="43.63790253842256" lon="12.624636677115495"><ele>344.25</ele><time>2026-04-25T10:52:38Z</time></trkpt><trkpt lat="43.63788641160729" lon="12.624818138724978"><ele>343.5</ele><time>2026-04-25T10:52:39Z</time></trkpt><trkpt lat="43.6378784440103" lon="12.624992900165237"><ele>342.75</ele><time>2026-04-25T10:52:40Z</time></trkpt><trkpt lat="43.637882484925456" lon="12.625162673496957"><ele>342.0</ele><time>2026-04-25T10:52:41Z</time></trkpt><trkpt lat="43.63792027079613" lon="12.625341882387625"><ele>342.0</ele><time>2026-04-25T10:52:42Z</time></trkpt><trkpt lat="43.63795030738626" lon="12.625513365742066"><ele>342.0</ele><time>2026-04-25T10:52:43Z</time></trkpt><trkpt lat="43.637987179565954" lon="12.625664892492276"><ele>342.0</ele><time>2026-04-25T10:52:44Z</time></trkpt><trkpt lat="43.638034990982256" lon="12.625813182892259"><ele>342.0</ele><time>2026-04-25T10:52:45Z</time></trkpt><trkpt lat="43.63810641295217" lon="12.6259695965465"><ele>342.0</ele><time>2026-04-25T10:52:46Z</time></trkpt><trkpt lat="43.638181201638936" lon="12.626132356473045"><ele>342.0</ele><time>2026-04-25T10:52:47Z</time></trkpt><trkpt lat="43.63826093891706" lon="12.626326252923183"><ele>342.0</ele><time>2026-04-25T10:52:48Z</time></trkpt><trkpt lat="43.638348720734456" lon="12.626549999011175"><ele>339.6666666666667</ele><time>2026-04-25T10:52:49Z</time></trkpt><trkpt lat="43.63843795665664" lon="12.626764744333274"><ele>337.33333333333337</ele><time>2026-04-25T10:52:50Z</time></trkpt><trkpt lat="43.63853828946079" lon="12.626973207673593"><ele>335.0</ele><time>2026-04-25T10:52:51Z</time></trkpt><trkpt lat="43.63859329687995" lon="12.627175178350363"><ele>335.0</ele><time>2026-04-25T10:52:52Z</time></trkpt><trkpt lat="43.63863757467471" lon="12.627355300595081"><ele>335.0</ele><time>2026-04-25T10:52:53Z</time></trkpt><trkpt lat="43.63863752861481" lon="12.627509872107622"><ele>335.0</ele><time>2026-04-25T10:52:54Z</time></trkpt><trkpt lat="43.63863286833624" lon="12.627711608867738"><ele>335.0</ele><time>2026-04-25T10:52:55Z</time></trkpt><trkpt lat="43.638621459691635" lon="12.627954413650011"><ele>337.33333333333337</ele><time>2026-04-25T10:52:56Z</time></trkpt><trkpt lat="43.63859767898402" lon="12.62821201988643"><ele>339.6666666666667</ele><time>2026-04-25T10:52:57Z</time></trkpt><trkpt lat="43.638580215169036" lon="12.628454037756288"><ele>342.0</ele><time>2026-04-25T10:52:58Z</time></trkpt><trkpt lat="43.63856964471965" lon="12.628695009995925"><ele>343.3333333333333</ele><time>2026-04-25T10:52:59Z</time></trkpt><trkpt lat="43.63857822594061" lon="12.628948846258414"><ele>344.66666666666663</ele><time>2026-04-25T10:53:00Z</time></trkpt><trkpt lat="43.638609746513296" lon="12.629199199713232"><ele>346.0</ele><time>2026-04-25T10:53:01Z</time></trkpt><trkpt lat="43.638668426950666" lon="12.629424761408401"><ele>347.66666666666663</ele><time>2026-04-25T10:53:02Z</time></trkpt><trkpt lat="43.63871239105657" lon="12.629655153940885"><ele>349.3333333333333</ele><time>2026-04-25T10:53:03Z</time></trkpt><trkpt lat="43.63873092915957" lon="12.629873815883279"><ele>351.0</ele><time>2026-04-25T10:53:04Z</time></trkpt><trkpt lat="43.638756367185294" lon="12.630072430597584"><ele>351.0</ele><time>2026-04-25T10:53:05Z</time></trkpt><trkpt lat="43.63876969687354" lon="12.6302499189256"><ele>351.0</ele><time>2026-04-25T10:53:06Z</time></trkpt><trkpt lat="43.638767257256575" lon="12.630428441174537"><ele>351.0</ele><time>2026-04-25T10:53:07Z</time></trkpt><trkpt lat="43.63875405169245" lon="12.630630928516208"><ele>351.0</ele><time>2026-04-25T10:53:08Z</time></trkpt><trkpt lat="43.6387266274656" lon="12.630852915045146"><ele>352.6666666666667</ele><time>2026-04-25T10:53:09Z</time></trkpt><trkpt lat="43.638684243032735" lon="12.631100982131851"><ele>354.33333333333337</ele><time>2026-04-25T10:53:10Z</time></trkpt><trkpt lat="43.63864714154993" lon="12.63130632930525"><ele>356.0</ele><time>2026-04-25T10:53:11Z</time></trkpt><trkpt lat="43.638612108550184" lon="12.631491853226008"><ele>358.0</ele><time>2026-04-25T10:53:12Z</time></trkpt><trkpt lat="43.638575770000536" lon="12.631680751295272"><ele>360.0</ele><time>2026-04-25T10:53:13Z</time></trkpt><trkpt lat="43.63854068788457" lon="12.63186018120576"><ele>362.0</ele><time>2026-04-25T10:53:14Z</time></trkpt><trkpt lat="43.638506086744435" lon="12.632025354823453"><ele>364.0</ele><time>2026-04-25T10:53:15Z</time></trkpt><trkpt lat="43.63847337377321" lon="12.632162954896835"><ele>365.2</ele><time>2026-04-25T10:53:16Z</time></trkpt><trkpt lat="43.6384448716776" lon="12.632301180823747"><ele>366.4</ele><time>2026-04-25T10:53:17Z</time></trkpt><trkpt lat="43.63844047347568" lon="12.632454056341608"><ele>367.6</ele><time>2026-04-25T10:53:18Z</time></trkpt><trkpt lat="43.63842390324555" lon="12.632602014951015"><ele>368.8</ele><time>2026-04-25T10:53:19Z</time></trkpt><trkpt lat="43.63840290445609" lon="12.632756282345918"><ele>370.0</ele><time>2026-04-25T10:53:20Z</time></trkpt><trkpt lat="43.63838911149514" lon="12.632932678086505"><ele>370.75</ele><time>2026-04-25T10:53:21Z</time></trkpt><trkpt lat="43.63834748274176" lon="12.633109776443336"><ele>371.5</ele><time>2026-04-25T10:53:22Z</time></trkpt><trkpt lat="43.638327816381285" lon="12.633290595098016"><ele>372.25</ele><time>2026-04-25T10:53:23Z</time></trkpt><trkpt lat="43.638333404583584" lon="12.6334521975253"><ele>373.0</ele><time>2026-04-25T10:53:24Z</time></trkpt><trkpt lat="43.638325008709764" lon="12.633627563680491"><ele>373.5</ele><time>2026-04-25T10:53:25Z</time></trkpt><trkpt lat="43.63830144029363" lon="12.633807310965926"><ele>374.0</ele><time>2026-04-25T10:53:26Z</time></trkpt><trkpt lat="43.638215538739885" lon="12.633969725966821"><ele>374.5</ele><time>2026-04-25T10:53:27Z</time></trkpt><trkpt lat="43.6381798770553" lon="12.634160231715262"><ele>375.0</ele><time>2026-04-25T10:53:28Z</time></trkpt><trkpt lat="43.638142301570085" lon="12.634358087906183"><ele>376.0</ele><time>2026-04-25T10:53:29Z</time></trkpt><trkpt lat="43.63809453236145" lon="12.634562217085449"><ele>377.0</ele><time>2026-04-25T10:53:30Z</time></trkpt><trkpt lat="43.638044041073485" lon="12.634777978307596"><ele>378.0</ele><time>2026-04-25T10:53:31Z</time></trkpt><trkpt lat="43.637993397612654" lon="12.634994389819264"><ele>378.0</ele><time>2026-04-25T10:53:32Z</time></trkpt><trkpt lat="43.63793680971676" lon="12.635197119378834"><ele>378.0</ele><time>2026-04-25T10:53:33Z</time></trkpt><trkpt lat="43.63788115798679" lon="12.635383378895522"><ele>378.0</ele><time>2026-04-25T10:53:34Z</time></trkpt><trkpt lat="43.637819897558785" lon="12.635566137409288"><ele>378.0</ele><time>2026-04-25T10:53:35Z</time></trkpt><trkpt lat="43.637746535461" lon="12.635736070289752"><ele>380.0</ele><time>2026-04-25T10:53:36Z</time></trkpt><trkpt lat="43.637732336033906" lon="12.635971369250914"><ele>382.0</ele><time>2026-04-25T10:53:37Z</time></trkpt><trkpt lat="43.63766512262637" lon="12.636163389089573"><ele>384.0</ele><time>2026-04-25T10:53:38Z</time></trkpt><trkpt lat="43.637594897543615" lon="12.636379848980672"><ele>386.75</ele><time>2026-04-25T10:53:39Z</time></trkpt><trkpt lat="43.637534302396865" lon="12.636561840301821"><ele>389.5</ele><time>2026-04-25T10:53:40Z</time></trkpt><trkpt lat="43.63747828218913" lon="12.63671014719564"><ele>392.25</ele><time>2026-04-25T10:53:41Z</time></trkpt><trkpt lat="43.63744705595766" lon="12.636825536336751"><ele>395.0</ele><time>2026-04-25T10:53:42Z</time></trkpt><trkpt lat="43.6374889217176" lon="12.636983818221639"><ele>400.25</ele><time>2026-04-25T10:53:44Z</time></trkpt><trkpt lat="43.63760768793231" lon="12.637080499016069"><ele>405.5</ele><time>2026-04-25T10:53:46Z</time></trkpt><trkpt lat="43.63770556128918" lon="12.637119296438664"><ele>410.75</ele><time>2026-04-25T10:53:47Z</time></trkpt><trkpt lat="43.637825784326715" lon="12.637151807624898"><ele>416.0</ele><time>2026-04-25T10:53:48Z</time></trkpt><trkpt lat="43.63797732906298" lon="12.637202244442856"><ele>417.25</ele><time>2026-04-25T10:53:49Z</time></trkpt><trkpt lat="43.63812539437243" lon="12.63725613189316"><ele>418.5</ele><time>2026-04-25T10:53:50Z</time></trkpt><trkpt lat="43.63824448805238" lon="12.637361113264046"><ele>419.75</ele><time>2026-04-25T10:53:51Z</time></trkpt><trkpt lat="43.638337528611515" lon="12.63747252379988"><ele>421.0</ele><time>2026-04-25T10:53:52Z</time></trkpt><trkpt lat="43.638388782067764" lon="12.63759681996725"><ele>421.0</ele><time>2026-04-25T10:53:53Z</time></trkpt><trkpt lat="43.638465279340394" lon="12.637755591764003"><ele>421.0</ele><time>2026-04-25T10:53:54Z</time></trkpt><trkpt lat="43.63854812402442" lon="12.637860176896917"><ele>421.0</ele><time>2026-04-25T10:53:55Z</time></trkpt><trkpt lat="43.638624724792685" lon="12.637889800104407"><ele>421.0</ele><time>2026-04-25T10:53:56Z</time></trkpt><trkpt lat="43.638710668039224" lon="12.63787957401978"><ele>421.0</ele><time>2026-04-25T10:53:57Z</time></trkpt><trkpt lat="43.638817663339324" lon="12.637888276340744"><ele>429.6666666666667</ele><time>2026-04-25T10:53:58Z</time></trkpt><trkpt lat="43.638965598492625" lon="12.637914109839134"><ele>438.33333333333337</ele><time>2026-04-25T10:53:59Z</time></trkpt><trkpt lat="43.63915631031441" lon="12.6378829864575"><ele>447.0</ele><time>2026-04-25T10:54:00Z</time></trkpt><trkpt lat="43.63932061365241" lon="12.637851178530465"><ele>448.0</ele><time>2026-04-25T10:54:01Z</time></trkpt><trkpt lat="43.63947082286094" lon="12.637811742429767"><ele>449.0</ele><time>2026-04-25T10:54:02Z</time></trkpt><trkpt lat="43.639605143947044" lon="12.637758716463274"><ele>450.0</ele><time>2026-04-25T10:54:03Z</time></trkpt><trkpt lat="43.63973156668424" lon="12.637701028693549"><ele>451.0</ele><time>2026-04-25T10:54:04Z</time></trkpt><trkpt lat="43.63984102568178" lon="12.637649621086538"><ele>446.0</ele><time>2026-04-25T10:54:05Z</time></trkpt><trkpt lat="43.63995576758782" lon="12.637613695578738"><ele>441.0</ele><time>2026-04-25T10:54:06Z</time></trkpt><trkpt lat="43.6400660680375" lon="12.637608816944045"><ele>436.0</ele><time>2026-04-25T10:54:07Z</time></trkpt><trkpt lat="43.640164629252745" lon="12.637579848081739"><ele>431.0</ele><time>2026-04-25T10:54:08Z</time></trkpt><trkpt lat="43.64027019405263" lon="12.637585130981666"><ele>426.0</ele><time>2026-04-25T10:54:09Z</time></trkpt><trkpt lat="43.64035812744719" lon="12.637597969208548"><ele>426.0</ele><time>2026-04-25T10:54:10Z</time></trkpt><trkpt lat="43.640436100533776" lon="12.637604914282232"><ele>426.0</ele><time>2026-04-25T10:54:11Z</time></trkpt><trkpt lat="43.6405078212028" lon="12.637622152175489"><ele>426.0</ele><time>2026-04-25T10:54:12Z</time></trkpt><trkpt lat="43.64055657725458" lon="12.637729728881002"><ele>426.0</ele><time>2026-04-25T10:54:14Z</time></trkpt><trkpt lat="43.64044702861187" lon="12.637781286997814"><ele>426.0</ele><time>2026-04-25T10:54:16Z</time></trkpt><trkpt lat="43.640283325902075" lon="12.63777904313246"><ele>434.33333333333337</ele><time>2026-04-25T10:54:18Z</time></trkpt><trkpt lat="43.64013087955081" lon="12.637805126059416"><ele>442.6666666666667</ele><time>2026-04-25T10:54:19Z</time></trkpt><trkpt lat="43.639939679963454" lon="12.63784210391064"><ele>451.0</ele><time>2026-04-25T10:54:20Z</time></trkpt><trkpt lat="43.639754379775674" lon="12.637887425693322"><ele>451.0</ele><time>2026-04-25T10:54:21Z</time></trkpt><trkpt lat="43.639636761542704" lon="12.637951376053458"><ele>451.0</ele><time>2026-04-25T10:54:22Z</time></trkpt><trkpt lat="43.63956112901946" lon="12.638030910066473"><ele>451.0</ele><time>2026-04-25T10:54:23Z</time></trkpt><trkpt lat="43.6394805505782" lon="12.638168841791263"><ele>451.0</ele><time>2026-04-25T10:54:24Z</time></trkpt><trkpt lat="43.63934679899585" lon="12.638341840334835"><ele>450.0</ele><time>2026-04-25T10:54:25Z</time></trkpt><trkpt lat="43.639215914549446" lon="12.638508169918673"><ele>449.0</ele><time>2026-04-25T10:54:26Z</time></trkpt><trkpt lat="43.63910460659118" lon="12.638632658472746"><ele>448.0</ele><time>2026-04-25T10:54:27Z</time></trkpt><trkpt lat="43.63899919936927" lon="12.638716565457116"><ele>447.0</ele><time>2026-04-25T10:54:28Z</time></trkpt><trkpt lat="43.638893951444125" lon="12.63874866671063"><ele>451.5</ele><time>2026-04-25T10:54:29Z</time></trkpt><trkpt lat="43.63875966313328" lon="12.638791431340188"><ele>456.0</ele><time>2026-04-25T10:54:30Z</time></trkpt><trkpt lat="43.63861727481371" lon="12.638832758764154"><ele>460.5</ele><time>2026-04-25T10:54:31Z</time></trkpt><trkpt lat="43.63848465146165" lon="12.638877385362804"><ele>465.0</ele><time>2026-04-25T10:54:32Z</time></trkpt><trkpt lat="43.63837732722598" lon="12.638958501799882"><ele>465.0</ele><time>2026-04-25T10:54:33Z</time></trkpt><trkpt lat="43.63825933999463" lon="12.639014418082422"><ele>465.0</ele><time>2026-04-25T10:54:34Z</time></trkpt><trkpt lat="43.63812700913851" lon="12.63909623539911"><ele>465.0</ele><time>2026-04-25T10:54:35Z</time></trkpt><trkpt lat="43.638002279756016" lon="12.639190438214925"><ele>465.0</ele><time>2026-04-25T10:54:36Z</time></trkpt><trkpt lat="43.63790161255153" lon="12.63929878908676"><ele>465.0</ele><time>2026-04-25T10:54:37Z</time></trkpt><trkpt lat="43.637808939103216" lon="12.639450288068716"><ele>465.0</ele><time>2026-04-25T10:54:38Z</time></trkpt><trkpt lat="43.6377187870249" lon="12.6396248023453"><ele>465.0</ele><time>2026-04-25T10:54:39Z</time></trkpt><trkpt lat="43.63761828420581" lon="12.639812718995518"><ele>464.75</ele><time>2026-04-25T10:54:40Z</time></trkpt><trkpt lat="43.63751915454959" lon="12.639996387126581"><ele>464.5</ele><time>2026-04-25T10:54:41Z</time></trkpt><trkpt lat="43.63742936371297" lon="12.640157554095909"><ele>464.25</ele><time>2026-04-25T10:54:42Z</time></trkpt><trkpt lat="43.63732156134397" lon="12.640251475138177"><ele>464.0</ele><time>2026-04-25T10:54:43Z</time></trkpt><trkpt lat="43.637220756997735" lon="12.640345737960832"><ele>464.5</ele><time>2026-04-25T10:54:44Z</time></trkpt><trkpt lat="43.63710464544844" lon="12.640435259062915"><ele>465.0</ele><time>2026-04-25T10:54:45Z</time></trkpt><trkpt lat="43.636976474437056" lon="12.640505657095401"><ele>465.5</ele><time>2026-04-25T10:54:46Z</time></trkpt><trkpt lat="43.636825319182826" lon="12.640545557576239"><ele>466.0</ele><time>2026-04-25T10:54:47Z</time></trkpt><trkpt lat="43.63665495194514" lon="12.640572196161004"><ele>469.33333333333337</ele><time>2026-04-25T10:54:48Z</time></trkpt><trkpt lat="43.6364975358789" lon="12.64059941308322"><ele>472.66666666666663</ele><time>2026-04-25T10:54:49Z</time></trkpt><trkpt lat="43.63634732535658" lon="12.640655092035525"><ele>476.0</ele><time>2026-04-25T10:54:50Z</time></trkpt><trkpt lat="43.636204687457926" lon="12.640730220653014"><ele>474.75</ele><time>2026-04-25T10:54:51Z</time></trkpt><trkpt lat="43.63606808111848" lon="12.640803022865546"><ele>473.5</ele><time>2026-04-25T10:54:52Z</time></trkpt><trkpt lat="43.63595402959175" lon="12.640906800309969"><ele>472.25</ele><time>2026-04-25T10:54:53Z</time></trkpt><trkpt lat="43.63584080878163" lon="12.641040343695051"><ele>471.0</ele><time>2026-04-25T10:54:54Z</time></trkpt><trkpt lat="43.63572353325484" lon="12.641196935296582"><ele>474.25</ele><time>2026-04-25T10:54:55Z</time></trkpt><trkpt lat="43.635598300946185" lon="12.641303686947676"><ele>477.5</ele><time>2026-04-25T10:54:56Z</time></trkpt><trkpt lat="43.63547843260104" lon="12.641363962003716"><ele>480.75</ele><time>2026-04-25T10:54:57Z</time></trkpt><trkpt lat="43.635365507265966" lon="12.641406380462401"><ele>484.0</ele><time>2026-04-25T10:54:58Z</time></trkpt><trkpt lat="43.635225643595845" lon="12.641452105089531"><ele>485.6666666666667</ele><time>2026-04-25T10:54:59Z</time></trkpt><trkpt lat="43.635059367961134" lon="12.641512914343584"><ele>487.33333333333337</ele><time>2026-04-25T10:55:00Z</time></trkpt><trkpt lat="43.63490109700405" lon="12.641578571087267"><ele>489.0</ele><time>2026-04-25T10:55:01Z</time></trkpt><trkpt lat="43.63476497569561" lon="12.641640828216806"><ele>489.0</ele><time>2026-04-25T10:55:02Z</time></trkpt><trkpt lat="43.634647280813695" lon="12.64172212856814"><ele>489.0</ele><time>2026-04-25T10:55:03Z</time></trkpt><trkpt lat="43.63456959234888" lon="12.641772253850814"><ele>489.0</ele><time>2026-04-25T10:55:04Z</time></trkpt><trkpt lat="43.63452881550257" lon="12.641884905538499"><ele>489.0</ele><time>2026-04-25T10:55:05Z</time></trkpt><trkpt lat="43.634504900558746" lon="12.64203992097481"><ele>489.0</ele><time>2026-04-25T10:55:06Z</time></trkpt><trkpt lat="43.634494883564386" lon="12.642244946427038"><ele>491.0</ele><time>2026-04-25T10:55:07Z</time></trkpt><trkpt lat="43.634463883279324" lon="12.642502043337815"><ele>493.0</ele><time>2026-04-25T10:55:08Z</time></trkpt><trkpt lat="43.6344399126703" lon="12.642790438491634"><ele>495.0</ele><time>2026-04-25T10:55:09Z</time></trkpt><trkpt lat="43.634418162598216" lon="12.643052117843814"><ele>497.0</ele><time>2026-04-25T10:55:10Z</time></trkpt><trkpt lat="43.63438190677053" lon="12.64326681532951"><ele>499.0</ele><time>2026-04-25T10:55:11Z</time></trkpt><trkpt lat="43.634323372050154" lon="12.643459730670042"><ele>501.0</ele><time>2026-04-25T10:55:12Z</time></trkpt><trkpt lat="43.63425408402758" lon="12.643671307228924"><ele>501.0</ele><time>2026-04-25T10:55:13Z</time></trkpt><trkpt lat="43.63419373932853" lon="12.64389160828013"><ele>501.0</ele><time>2026-04-25T10:55:14Z</time></trkpt><trkpt lat="43.63410077640985" lon="12.64409909408352"><ele>501.0</ele><time>2026-04-25T10:55:15Z</time></trkpt><trkpt lat="43.63398239458092" lon="12.644300230227534"><ele>499.33333333333337</ele><time>2026-04-25T10:55:16Z</time></trkpt><trkpt lat="43.633865735470636" lon="12.644503495643647"><ele>497.6666666666667</ele><time>2026-04-25T10:55:17Z</time></trkpt><trkpt lat="43.633770029100795" lon="12.644722009856233"><ele>496.0</ele><time>2026-04-25T10:55:18Z</time></trkpt><trkpt lat="43.63372047531311" lon="12.644920547001522"><ele>496.0</ele><time>2026-04-25T10:55:19Z</time></trkpt><trkpt lat="43.63370659809146" lon="12.645131531723157"><ele>496.0</ele><time>2026-04-25T10:55:20Z</time></trkpt><trkpt lat="43.633688975411204" lon="12.645350955853008"><ele>496.0</ele><time>2026-04-25T10:55:21Z</time></trkpt><trkpt lat="43.63364999308126" lon="12.645571954404632"><ele>497.25</ele><time>2026-04-25T10:55:22Z</time></trkpt><trkpt lat="43.633631747164856" lon="12.645778463223653"><ele>498.5</ele><time>2026-04-25T10:55:23Z</time></trkpt><trkpt lat="43.63365922482063" lon="12.645918026938592"><ele>499.75</ele><time>2026-04-25T10:55:24Z</time></trkpt><trkpt lat="43.633697150443226" lon="12.646055744054918"><ele>501.0</ele><time>2026-04-25T10:55:25Z</time></trkpt><trkpt lat="43.63376922403605" lon="12.646182234287625"><ele>502.0</ele><time>2026-04-25T10:55:26Z</time></trkpt><trkpt lat="43.6338612359075" lon="12.646337908268924"><ele>503.0</ele><time>2026-04-25T10:55:27Z</time></trkpt><trkpt lat="43.633978650061856" lon="12.646522908815896"><ele>504.0</ele><time>2026-04-25T10:55:28Z</time></trkpt><trkpt lat="43.63405179447221" lon="12.646702427225334"><ele>504.0</ele><time>2026-04-25T10:55:29Z</time></trkpt><trkpt lat="43.6340902281187" lon="12.646840462341908"><ele>504.0</ele><time>2026-04-25T10:55:30Z</time></trkpt><trkpt lat="43.634106254082845" lon="12.646960455609205"><ele>504.0</ele><time>2026-04-25T10:55:31Z</time></trkpt><trkpt lat="43.634111435314104" lon="12.647118955380122"><ele>504.0</ele><time>2026-04-25T10:55:32Z</time></trkpt><trkpt lat="43.63411545059174" lon="12.647307338605675"><ele>504.0</ele><time>2026-04-25T10:55:33Z</time></trkpt><trkpt lat="43.63411841104509" lon="12.647589758908442"><ele>502.5</ele><time>2026-04-25T10:55:34Z</time></trkpt><trkpt lat="43.63412343129165" lon="12.647911459482803"><ele>501.0</ele><time>2026-04-25T10:55:35Z</time></trkpt><trkpt lat="43.634136614982715" lon="12.648231723944715"><ele>501.0</ele><time>2026-04-25T10:55:36Z</time></trkpt><trkpt lat="43.63416914746304" lon="12.648579926349832"><ele>501.0</ele><time>2026-04-25T10:55:37Z</time></trkpt><trkpt lat="43.63417652097621" lon="12.648892676980047"><ele>501.0</ele><time>2026-04-25T10:55:38Z</time></trkpt><trkpt lat="43.63416941372412" lon="12.649177129674529"><ele>501.0</ele><time>2026-04-25T10:55:39Z</time></trkpt><trkpt lat="43.63416859149903" lon="12.649410849174469"><ele>501.0</ele><time>2026-04-25T10:55:40Z</time></trkpt><trkpt lat="43.63418681300024" lon="12.649633921173521"><ele>502.0</ele><time>2026-04-25T10:55:41Z</time></trkpt><trkpt lat="43.6342169878735" lon="12.649831551173186"><ele>503.0</ele><time>2026-04-25T10:55:42Z</time></trkpt><trkpt lat="43.634257289396636" lon="12.650059850014621"><ele>504.0</ele><time>2026-04-25T10:55:43Z</time></trkpt><trkpt lat="43.634306839484196" lon="12.650327089358068"><ele>504.5</ele><time>2026-04-25T10:55:44Z</time></trkpt><trkpt lat="43.63436853730883" lon="12.650645414446336"><ele>505.0</ele><time>2026-04-25T10:55:45Z</time></trkpt><trkpt lat="43.63442754664964" lon="12.65095825027277"><ele>507.6666666666667</ele><time>2026-04-25T10:55:46Z</time></trkpt><trkpt lat="43.634472544692926" lon="12.651241108745484"><ele>510.33333333333337</ele><time>2026-04-25T10:55:47Z</time></trkpt><trkpt lat="43.634499855345055" lon="12.651482997739341"><ele>513.0</ele><time>2026-04-25T10:55:48Z</time></trkpt><trkpt lat="43.6345313030398" lon="12.651701225825178"><ele>513.0</ele><time>2026-04-25T10:55:49Z</time></trkpt><trkpt lat="43.634579900297574" lon="12.651919685528583"><ele>513.0</ele><time>2026-04-25T10:55:50Z</time></trkpt><trkpt lat="43.63463475271848" lon="12.652130395676137"><ele>513.0</ele><time>2026-04-25T10:55:51Z</time></trkpt><trkpt lat="43.634696002517515" lon="12.652309652967949"><ele>511.75</ele><time>2026-04-25T10:55:52Z</time></trkpt><trkpt lat="43.63474891972057" lon="12.652476629990563"><ele>510.5</ele><time>2026-04-25T10:55:53Z</time></trkpt><trkpt lat="43.63478623185172" lon="12.652643807246637"><ele>509.25</ele><time>2026-04-25T10:55:54Z</time></trkpt><trkpt lat="43.63482233108467" lon="12.65284592754697"><ele>508.0</ele><time>2026-04-25T10:55:55Z</time></trkpt><trkpt lat="43.63486197150156" lon="12.653074526056265"><ele>508.0</ele><time>2026-04-25T10:55:56Z</time></trkpt><trkpt lat="43.63489845601674" lon="12.653287759181298"><ele>508.0</ele><time>2026-04-25T10:55:57Z</time></trkpt><trkpt lat="43.634922225358736" lon="12.653479663042186"><ele>508.0</ele><time>2026-04-25T10:55:58Z</time></trkpt><trkpt lat="43.63492660195782" lon="12.653634830563767"><ele>508.0</ele><time>2026-04-25T10:55:59Z</time></trkpt><trkpt lat="43.63489702519143" lon="12.653741658006997"><ele>510.25</ele><time>2026-04-25T10:56:00Z</time></trkpt><trkpt lat="43.63484348563916" lon="12.653843596688827"><ele>512.5</ele><time>2026-04-25T10:56:01Z</time></trkpt><trkpt lat="43.63477430267468" lon="12.653965860201742"><ele>514.75</ele><time>2026-04-25T10:56:02Z</time></trkpt><trkpt lat="43.63468292439299" lon="12.654091822708708"><ele>517.0</ele><time>2026-04-25T10:56:03Z</time></trkpt><trkpt lat="43.634565719115486" lon="12.654232301249442"><ele>515.2</ele><time>2026-04-25T10:56:04Z</time></trkpt><trkpt lat="43.634453278495975" lon="12.654344820048587"><ele>513.4000000000001</ele><time>2026-04-25T10:56:05Z</time></trkpt><trkpt lat="43.63437159400565" lon="12.654458909046525"><ele>511.59999999999997</ele><time>2026-04-25T10:56:06Z</time></trkpt><trkpt lat="43.6343879771596" lon="12.654601739877151"><ele>509.79999999999995</ele><time>2026-04-25T10:56:07Z</time></trkpt><trkpt lat="43.63440258578431" lon="12.654689987847833"><ele>508.0</ele><time>2026-04-25T10:56:08Z</time></trkpt><trkpt lat="43.63438880122566" lon="12.654796339696748"><ele>507.25</ele><time>2026-04-25T10:56:10Z</time></trkpt><trkpt lat="43.6342597676802" lon="12.65474045098778"><ele>506.5</ele><time>2026-04-25T10:56:11Z</time></trkpt><trkpt lat="43.63414024697008" lon="12.654742007461497"><ele>505.75</ele><time>2026-04-25T10:56:12Z</time></trkpt><trkpt lat="43.63400995860799" lon="12.654746355769143"><ele>505.0</ele><time>2026-04-25T10:56:13Z</time></trkpt><trkpt lat="43.6338898717437" lon="12.654753698939402"><ele>505.0</ele><time>2026-04-25T10:56:14Z</time></trkpt><trkpt lat="43.633775133746376" lon="12.654769649155538"><ele>505.0</ele><time>2026-04-25T10:56:15Z</time></trkpt><trkpt lat="43.63367901285983" lon="12.654783355353782"><ele>505.0</ele><time>2026-04-25T10:56:16Z</time></trkpt><trkpt lat="43.63360368712495" lon="12.654785057531512"><ele>505.0</ele><time>2026-04-25T10:56:17Z</time></trkpt><trkpt lat="43.63348936769125" lon="12.654769580697296"><ele>505.0</ele><time>2026-04-25T10:56:19Z</time></trkpt><trkpt lat="43.63344466602647" lon="12.654693200852986"><ele>505.6</ele><time>2026-04-25T10:56:20Z</time></trkpt><trkpt lat="43.633430319982104" lon="12.65459297976775"><ele>506.2</ele><time>2026-04-25T10:56:21Z</time></trkpt><trkpt lat="43.63344941455518" lon="12.65449044700711"><ele>506.79999999999995</ele><time>2026-04-25T10:56:22Z</time></trkpt><trkpt lat="43.6335261017811" lon="12.65440453982495"><ele>507.4</ele><time>2026-04-25T10:56:23Z</time></trkpt><trkpt lat="43.633609789084055" lon="12.654290912402601"><ele>508.0</ele><time>2026-04-25T10:56:24Z</time></trkpt><trkpt lat="43.633717360576235" lon="12.654199684603189"><ele>508.0</ele><time>2026-04-25T10:56:25Z</time></trkpt><trkpt lat="43.63384035510395" lon="12.654110466128571"><ele>508.0</ele><time>2026-04-25T10:56:26Z</time></trkpt><trkpt lat="43.6339560788219" lon="12.654034627660785"><ele>508.0</ele><time>2026-04-25T10:56:27Z</time></trkpt><trkpt lat="43.63407191390062" lon="12.653975189584038"><ele>508.0</ele><time>2026-04-25T10:56:28Z</time></trkpt><trkpt lat="43.634159368225454" lon="12.653885517772798"><ele>508.00000000000006</ele><time>2026-04-25T10:56:29Z</time></trkpt><trkpt lat="43.63424456438104" lon="12.653829655165548"><ele>508.0</ele><time>2026-04-25T10:56:30Z</time></trkpt><trkpt lat="43.63430733250025" lon="12.653744973957876"><ele>508.0</ele><time>2026-04-25T10:56:31Z</time></trkpt><trkpt lat="43.63433418694728" lon="12.653627110192186"><ele>508.0</ele><time>2026-04-25T10:56:32Z</time></trkpt><trkpt lat="43.6343552294414" lon="12.653515470189827"><ele>508.00000000000006</ele><time>2026-04-25T10:56:33Z</time></trkpt><trkpt lat="43.634374587971706" lon="12.653402841987617"><ele>508.0</ele><time>2026-04-25T10:56:34Z</time></trkpt><trkpt lat="43.63432367151396" lon="12.6532912131117"><ele>506.0</ele><time>2026-04-25T10:56:35Z</time></trkpt><trkpt lat="43.63424783888339" lon="12.653204698184963"><ele>504.0</ele><time>2026-04-25T10:56:36Z</time></trkpt><trkpt lat="43.634164760289025" lon="12.653066468332344"><ele>502.0</ele><time>2026-04-25T10:56:37Z</time></trkpt><trkpt lat="43.63406980620631" lon="12.652874030934427"><ele>500.0</ele><time>2026-04-25T10:56:38Z</time></trkpt><trkpt lat="43.63396463828497" lon="12.652678266492652"><ele>500.0</ele><time>2026-04-25T10:56:39Z</time></trkpt><trkpt lat="43.63389811356697" lon="12.65249362960589"><ele>500.0</ele><time>2026-04-25T10:56:40Z</time></trkpt><trkpt lat="43.633823473616154" lon="12.652320301161339"><ele>500.0</ele><time>2026-04-25T10:56:41Z</time></trkpt><trkpt lat="43.633766171609125" lon="12.652155317803807"><ele>500.0</ele><time>2026-04-25T10:56:42Z</time></trkpt><trkpt lat="43.633711805512974" lon="12.652022653603385"><ele>500.6</ele><time>2026-04-25T10:56:43Z</time></trkpt><trkpt lat="43.63366768210111" lon="12.651943355350339"><ele>501.2</ele><time>2026-04-25T10:56:44Z</time></trkpt><trkpt lat="43.63360050227311" lon="12.651892295257246"><ele>501.79999999999995</ele><time>2026-04-25T10:56:46Z</time></trkpt><trkpt lat="43.63349976541397" lon="12.652005082267722"><ele>502.4</ele><time>2026-04-25T10:56:48Z</time></trkpt><trkpt lat="43.63351605650196" lon="12.652167059853584"><ele>503.0</ele><time>2026-04-25T10:56:49Z</time></trkpt><trkpt lat="43.633525601597256" lon="12.652371473439887"><ele>497.66666666666663</ele><time>2026-04-25T10:56:50Z</time></trkpt><trkpt lat="43.633483241546536" lon="12.652589878829046"><ele>492.33333333333337</ele><time>2026-04-25T10:56:51Z</time></trkpt><trkpt lat="43.633432372310715" lon="12.65276970648393"><ele>487.0</ele><time>2026-04-25T10:56:52Z</time></trkpt><trkpt lat="43.63335203113172" lon="12.652943524097115"><ele>487.0</ele><time>2026-04-25T10:56:53Z</time></trkpt><trkpt lat="43.63325268298812" lon="12.65312506579496"><ele>487.0</ele><time>2026-04-25T10:56:54Z</time></trkpt><trkpt lat="43.63316479329344" lon="12.653275576296766"><ele>487.0</ele><time>2026-04-25T10:56:55Z</time></trkpt><trkpt lat="43.63306499165862" lon="12.653395754011665"><ele>487.0</ele><time>2026-04-25T10:56:56Z</time></trkpt><trkpt lat="43.6329380065259" lon="12.653492463659342"><ele>485.33333333333337</ele><time>2026-04-25T10:56:57Z</time></trkpt><trkpt lat="43.63278321406288" lon="12.653588956937238"><ele>483.66666666666663</ele><time>2026-04-25T10:56:58Z</time></trkpt><trkpt lat="43.63263016835873" lon="12.653705290168041"><ele>482.0</ele><time>2026-04-25T10:56:59Z</time></trkpt><trkpt lat="43.63250357516351" lon="12.653807378575227"><ele>482.0</ele><time>2026-04-25T10:57:00Z</time></trkpt><trkpt lat="43.632390960015606" lon="12.653893125678056"><ele>482.0</ele><time>2026-04-25T10:57:01Z</time></trkpt><trkpt lat="43.632272348581374" lon="12.653969814457657"><ele>482.0</ele><time>2026-04-25T10:57:02Z</time></trkpt><trkpt lat="43.63214601782998" lon="12.653979795611992"><ele>482.0</ele><time>2026-04-25T10:57:03Z</time></trkpt><trkpt lat="43.632019678759185" lon="12.653962530428744"><ele>478.0</ele><time>2026-04-25T10:57:04Z</time></trkpt><trkpt lat="43.63187972898964" lon="12.653925785654323"><ele>474.0</ele><time>2026-04-25T10:57:05Z</time></trkpt><trkpt lat="43.6317216518777" lon="12.6538671231503"><ele>470.0</ele><time>2026-04-25T10:57:06Z</time></trkpt><trkpt lat="43.63154584721984" lon="12.653789270790128"><ele>470.0</ele><time>2026-04-25T10:57:07Z</time></trkpt><trkpt lat="43.63139444206897" lon="12.653693421413028"><ele>470.0</ele><time>2026-04-25T10:57:08Z</time></trkpt><trkpt lat="43.631244048387" lon="12.653633945355688"><ele>470.0</ele><time>2026-04-25T10:57:09Z</time></trkpt><trkpt lat="43.63111232762469" lon="12.653619508675906"><ele>470.75</ele><time>2026-04-25T10:57:10Z</time></trkpt><trkpt lat="43.63099206980697" lon="12.653634242278672"><ele>471.5</ele><time>2026-04-25T10:57:11Z</time></trkpt><trkpt lat="43.630849228875086" lon="12.653661280264663"><ele>472.25</ele><time>2026-04-25T10:57:12Z</time></trkpt><trkpt lat="43.630689528278715" lon="12.653690089217172"><ele>473.0</ele><time>2026-04-25T10:57:13Z</time></trkpt><trkpt lat="43.63054393065944" lon="12.653727289581946"><ele>473.0</ele><time>2026-04-25T10:57:14Z</time></trkpt><trkpt lat="43.63042057961689" lon="12.653771231357943"><ele>473.0</ele><time>2026-04-25T10:57:15Z</time></trkpt><trkpt lat="43.6302970767789" lon="12.653810579884846"><ele>473.0</ele><time>2026-04-25T10:57:16Z</time></trkpt><trkpt lat="43.63015075399394" lon="12.653845264294642"><ele>473.0</ele><time>2026-04-25T10:57:17Z</time></trkpt><trkpt lat="43.629998258590184" lon="12.653841893749236"><ele>475.0</ele><time>2026-04-25T10:57:18Z</time></trkpt><trkpt lat="43.62985410793152" lon="12.653840099391434"><ele>477.0</ele><time>2026-04-25T10:57:19Z</time></trkpt><trkpt lat="43.62973190015297" lon="12.653833440937902"><ele>479.0</ele><time>2026-04-25T10:57:20Z</time></trkpt><trkpt lat="43.62963891833085" lon="12.653828124855481"><ele>481.0</ele><time>2026-04-25T10:57:21Z</time></trkpt><trkpt lat="43.62954879638735" lon="12.653822972301462"><ele>478.6</ele><time>2026-04-25T10:57:22Z</time></trkpt><trkpt lat="43.62944954328883" lon="12.653814365445742"><ele>476.20000000000005</ele><time>2026-04-25T10:57:23Z</time></trkpt><trkpt lat="43.62936483298324" lon="12.653833694769935"><ele>473.79999999999995</ele><time>2026-04-25T10:57:24Z</time></trkpt><trkpt lat="43.62929269109142" lon="12.65384259143339"><ele>471.4</ele><time>2026-04-25T10:57:25Z</time></trkpt><trkpt lat="43.6291872217577" lon="12.653938676443493"><ele>469.0</ele><time>2026-04-25T10:57:27Z</time></trkpt><trkpt lat="43.6291850890058" lon="12.654059479201688"><ele>469.0</ele><time>2026-04-25T10:57:28Z</time></trkpt><trkpt lat="43.62918431851655" lon="12.654174226553081"><ele>469.0</ele><time>2026-04-25T10:57:29Z</time></trkpt><trkpt lat="43.6292020554495" lon="12.654321374759501"><ele>469.0</ele><time>2026-04-25T10:57:30Z</time></trkpt><trkpt lat="43.629212174105916" lon="12.654473473258708"><ele>469.0</ele><time>2026-04-25T10:57:31Z</time></trkpt><trkpt lat="43.629186530250855" lon="12.654630194763923"><ele>469.0</ele><time>2026-04-25T10:57:32Z</time></trkpt><trkpt lat="43.629164265905004" lon="12.654781430547088"><ele>468.75</ele><time>2026-04-25T10:57:33Z</time></trkpt><trkpt lat="43.62913759355145" lon="12.65492384261212"><ele>468.5</ele><time>2026-04-25T10:57:34Z</time></trkpt><trkpt lat="43.629107637119716" lon="12.655064448581603"><ele>468.25</ele><time>2026-04-25T10:57:35Z</time></trkpt><trkpt lat="43.629065039039986" lon="12.655223936885365"><ele>468.0</ele><time>2026-04-25T10:57:36Z</time></trkpt><trkpt lat="43.629000474020046" lon="12.655410573462499"><ele>467.33333333333337</ele><time>2026-04-25T10:57:37Z</time></trkpt><trkpt lat="43.62891536731233" lon="12.655640107490811"><ele>466.6666666666667</ele><time>2026-04-25T10:57:38Z</time></trkpt><trkpt lat="43.62884478703258" lon="12.655844912509492"><ele>466.0</ele><time>2026-04-25T10:57:39Z</time></trkpt><trkpt lat="43.62878452351504" lon="12.656029377698705"><ele>465.0</ele><time>2026-04-25T10:57:40Z</time></trkpt><trkpt lat="43.62872765623367" lon="12.656207040206366"><ele>464.0</ele><time>2026-04-25T10:57:41Z</time></trkpt><trkpt lat="43.62866992518765" lon="12.656383915514066"><ele>463.0</ele><time>2026-04-25T10:57:42Z</time></trkpt><trkpt lat="43.628605711272655" lon="12.656576554933773"><ele>462.0</ele><time>2026-04-25T10:57:43Z</time></trkpt><trkpt lat="43.62853857736578" lon="12.65676211321194"><ele>462.33333333333337</ele><time>2026-04-25T10:57:44Z</time></trkpt><trkpt lat="43.6284592148355" lon="12.656945597524672"><ele>462.6666666666667</ele><time>2026-04-25T10:57:45Z</time></trkpt><trkpt lat="43.62835848339264" lon="12.657137641420178"><ele>463.0</ele><time>2026-04-25T10:57:46Z</time></trkpt><trkpt lat="43.62824298310963" lon="12.657356530316845"><ele>463.0</ele><time>2026-04-25T10:57:47Z</time></trkpt><trkpt lat="43.6281241247693" lon="12.657565697745307"><ele>463.0</ele><time>2026-04-25T10:57:48Z</time></trkpt><trkpt lat="43.62800856370611" lon="12.657758330680732"><ele>463.0</ele><time>2026-04-25T10:57:49Z</time></trkpt><trkpt lat="43.627910857240416" lon="12.65794595780385"><ele>460.75</ele><time>2026-04-25T10:57:50Z</time></trkpt><trkpt lat="43.62782539708732" lon="12.658115750186822"><ele>458.5</ele><time>2026-04-25T10:57:51Z</time></trkpt><trkpt lat="43.62774208947321" lon="12.658255258006877"><ele>456.25</ele><time>2026-04-25T10:57:52Z</time></trkpt><trkpt lat="43.62764360366231" lon="12.658394708031178"><ele>454.0</ele><time>2026-04-25T10:57:53Z</time></trkpt><trkpt lat="43.62752032877422" lon="12.658532266105334"><ele>456.0</ele><time>2026-04-25T10:57:54Z</time></trkpt><trkpt lat="43.62737505248389" lon="12.65868283420371"><ele>458.0</ele><time>2026-04-25T10:57:55Z</time></trkpt><trkpt lat="43.62725900064226" lon="12.658847760608033"><ele>460.0</ele><time>2026-04-25T10:57:56Z</time></trkpt><trkpt lat="43.62713794863486" lon="12.658987861453658"><ele>460.0</ele><time>2026-04-25T10:57:57Z</time></trkpt><trkpt lat="43.6270133061476" lon="12.659118957196169"><ele>460.0</ele><time>2026-04-25T10:57:58Z</time></trkpt><trkpt lat="43.62688511569239" lon="12.659238442141568"><ele>460.0</ele><time>2026-04-25T10:57:59Z</time></trkpt><trkpt lat="43.62675119289568" lon="12.65935254750636"><ele>462.33333333333337</ele><time>2026-04-25T10:58:00Z</time></trkpt><trkpt lat="43.62661286698725" lon="12.659470700898602"><ele>464.66666666666663</ele><time>2026-04-25T10:58:01Z</time></trkpt><trkpt lat="43.626462080349356" lon="12.659599619734891"><ele>467.0</ele><time>2026-04-25T10:58:02Z</time></trkpt><trkpt lat="43.62630609321634" lon="12.659736102938334"><ele>467.0</ele><time>2026-04-25T10:58:03Z</time></trkpt><trkpt lat="43.62614965158497" lon="12.659872983812463"><ele>467.0</ele><time>2026-04-25T10:58:04Z</time></trkpt><trkpt lat="43.626013386184205" lon="12.659980836129206"><ele>467.0</ele><time>2026-04-25T10:58:05Z</time></trkpt><trkpt lat="43.62589491713299" lon="12.660044532947104"><ele>466.25</ele><time>2026-04-25T10:58:06Z</time></trkpt><trkpt lat="43.6257665659787" lon="12.660079991906803"><ele>465.5</ele><time>2026-04-25T10:58:07Z</time></trkpt><trkpt lat="43.625626420389494" lon="12.660157296779357"><ele>464.75</ele><time>2026-04-25T10:58:08Z</time></trkpt><trkpt lat="43.62550487063706" lon="12.66024523853824"><ele>464.0</ele><time>2026-04-25T10:58:09Z</time></trkpt><trkpt lat="43.62538573346637" lon="12.660374344304795"><ele>461.0</ele><time>2026-04-25T10:58:10Z</time></trkpt><trkpt lat="43.62525746485144" lon="12.660510654640566"><ele>458.0</ele><time>2026-04-25T10:58:11Z</time></trkpt><trkpt lat="43.625123621066415" lon="12.660656971079716"><ele>455.0</ele><time>2026-04-25T10:58:12Z</time></trkpt><trkpt lat="43.62501030722158" lon="12.660814422032033"><ele>455.0</ele><time>2026-04-25T10:58:13Z</time></trkpt><trkpt lat="43.624929016852725" lon="12.660964397096135"><ele>455.0</ele><time>2026-04-25T10:58:14Z</time></trkpt><trkpt lat="43.62490760281537" lon="12.661088465004243"><ele>455.0</ele><time>2026-04-25T10:58:15Z</time></trkpt><trkpt lat="43.624931319405825" lon="12.661191943492767"><ele>455.0</ele><time>2026-04-25T10:58:17Z</time></trkpt><trkpt lat="43.625047983727995" lon="12.66127319953116"><ele>455.0</ele><time>2026-04-25T10:58:19Z</time></trkpt><trkpt lat="43.62517457715339" lon="12.661328806607791"><ele>453.3333333333333</ele><time>2026-04-25T10:58:20Z</time></trkpt><trkpt lat="43.62533504021101" lon="12.661400675101888"><ele>451.66666666666663</ele><time>2026-04-25T10:58:21Z</time></trkpt><trkpt lat="43.625514091830524" lon="12.661510627171817"><ele>450.0</ele><time>2026-04-25T10:58:22Z</time></trkpt><trkpt lat="43.62571805121351" lon="12.661653618507527"><ele>450.0</ele><time>2026-04-25T10:58:23Z</time></trkpt><trkpt lat="43.62593835437352" lon="12.66179082549482"><ele>450.0</ele><time>2026-04-25T10:58:24Z</time></trkpt><trkpt lat="43.626125485060584" lon="12.661914379043866"><ele>450.0</ele><time>2026-04-25T10:58:25Z</time></trkpt><trkpt lat="43.62628535438317" lon="12.662030270245058"><ele>446.5</ele><time>2026-04-25T10:58:26Z</time></trkpt><trkpt lat="43.626417562496485" lon="12.662126718326565"><ele>443.0</ele><time>2026-04-25T10:58:27Z</time></trkpt><trkpt lat="43.626531061952484" lon="12.662213232053727"><ele>439.5</ele><time>2026-04-25T10:58:28Z</time></trkpt><trkpt lat="43.62664206705543" lon="12.66228521547636"><ele>436.0</ele><time>2026-04-25T10:58:29Z</time></trkpt><trkpt lat="43.626754563780466" lon="12.662315627915264"><ele>436.0</ele><time>2026-04-25T10:58:30Z</time></trkpt><trkpt lat="43.62687119935904" lon="12.662314452150945"><ele>436.0</ele><time>2026-04-25T10:58:31Z</time></trkpt><trkpt lat="43.626977427051735" lon="12.662281344208973"><ele>436.0</ele><time>2026-04-25T10:58:32Z</time></trkpt><trkpt lat="43.62706157550567" lon="12.66218274791847"><ele>436.0</ele><time>2026-04-25T10:58:33Z</time></trkpt><trkpt lat="43.62715456662939" lon="12.66206206400846"><ele>434.0</ele><time>2026-04-25T10:58:34Z</time></trkpt><trkpt lat="43.62725587678896" lon="12.661907399728149"><ele>432.0</ele><time>2026-04-25T10:58:35Z</time></trkpt><trkpt lat="43.627375231068804" lon="12.661688836825082"><ele>430.0</ele><time>2026-04-25T10:58:36Z</time></trkpt><trkpt lat="43.62750498474462" lon="12.66144117612224"><ele>430.0</ele><time>2026-04-25T10:58:37Z</time></trkpt><trkpt lat="43.62761489070238" lon="12.661218378630583"><ele>430.0</ele><time>2026-04-25T10:58:38Z</time></trkpt><trkpt lat="43.62770429285768" lon="12.661075359407754"><ele>430.0</ele><time>2026-04-25T10:58:39Z</time></trkpt><trkpt lat="43.627778118103045" lon="12.660987145442641"><ele>430.0</ele><time>2026-04-25T10:58:40Z</time></trkpt><trkpt lat="43.627835847015014" lon="12.6609265747366"><ele>430.0</ele><time>2026-04-25T10:58:41Z</time></trkpt><trkpt lat="43.62791411930054" lon="12.660985899318172"><ele>430.0</ele><time>2026-04-25T10:58:43Z</time></trkpt><trkpt lat="43.62790886503486" lon="12.661135983897545"><ele>430.0</ele><time>2026-04-25T10:58:45Z</time></trkpt><trkpt lat="43.62788196889168" lon="12.661231307496381"><ele>430.0</ele><time>2026-04-25T10:58:46Z</time></trkpt><trkpt lat="43.6277990830661" lon="12.661322565624465"><ele>430.0</ele><time>2026-04-25T10:58:47Z</time></trkpt><trkpt lat="43.627735850262795" lon="12.661492320879514"><ele>430.0</ele><time>2026-04-25T10:58:48Z</time></trkpt><trkpt lat="43.627709121926614" lon="12.661681763859027"><ele>430.0</ele><time>2026-04-25T10:58:49Z</time></trkpt><trkpt lat="43.62772995094186" lon="12.661879686702816"><ele>430.0</ele><time>2026-04-25T10:58:50Z</time></trkpt><trkpt lat="43.627697529504296" lon="12.662044965245418"><ele>430.0</ele><time>2026-04-25T10:58:51Z</time></trkpt><trkpt lat="43.627652759488015" lon="12.662156389960387"><ele>426.25</ele><time>2026-04-25T10:58:52Z</time></trkpt><trkpt lat="43.62759788403921" lon="12.662234432950845"><ele>422.5</ele><time>2026-04-25T10:58:53Z</time></trkpt><trkpt lat="43.627500638591975" lon="12.662307498537587"><ele>418.75</ele><time>2026-04-25T10:58:54Z</time></trkpt><trkpt lat="43.62737024936454" lon="12.662399897275598"><ele>415.0</ele><time>2026-04-25T10:58:55Z</time></trkpt><trkpt lat="43.62727127140805" lon="12.662538570614696"><ele>415.0</ele><time>2026-04-25T10:58:56Z</time></trkpt><trkpt lat="43.62717776185009" lon="12.662679839301244"><ele>415.0</ele><time>2026-04-25T10:58:57Z</time></trkpt><trkpt lat="43.627090116919774" lon="12.662863308990183"><ele>415.0</ele><time>2026-04-25T10:58:58Z</time></trkpt><trkpt lat="43.62703401020882" lon="12.663049915162299"><ele>415.0</ele><time>2026-04-25T10:58:59Z</time></trkpt><trkpt lat="43.62698089843182" lon="12.663201086942575"><ele>413.4</ele><time>2026-04-25T10:59:00Z</time></trkpt><trkpt lat="43.626916890300805" lon="12.663308545826444"><ele>411.8</ele><time>2026-04-25T10:59:01Z</time></trkpt><trkpt lat="43.626849192311006" lon="12.663377140485032"><ele>410.20000000000005</ele><time>2026-04-25T10:59:02Z</time></trkpt><trkpt lat="43.626766522755574" lon="12.663378256319898"><ele>408.6</ele><time>2026-04-25T10:59:03Z</time></trkpt><trkpt lat="43.62666341905134" lon="12.663387277802917"><ele>407.0</ele><time>2026-04-25T10:59:04Z</time></trkpt><trkpt lat="43.62649971405093" lon="12.66338105800412"><ele>407.0</ele><time>2026-04-25T10:59:05Z</time></trkpt><trkpt lat="43.62634191797246" lon="12.663402521995684"><ele>407.0</ele><time>2026-04-25T10:59:06Z</time></trkpt><trkpt lat="43.626214469273584" lon="12.663397013593457"><ele>407.0</ele><time>2026-04-25T10:59:07Z</time></trkpt><trkpt lat="43.6261060666953" lon="12.663377275729188"><ele>407.0</ele><time>2026-04-25T10:59:08Z</time></trkpt><trkpt lat="43.62600990945889" lon="12.663328850104111"><ele>406.20000000000005</ele><time>2026-04-25T10:59:09Z</time></trkpt><trkpt lat="43.62590572920196" lon="12.663249198970782"><ele>405.4</ele><time>2026-04-25T10:59:10Z</time></trkpt><trkpt lat="43.62581743296682" lon="12.66321146844857"><ele>404.6</ele><time>2026-04-25T10:59:11Z</time></trkpt><trkpt lat="43.62573658468313" lon="12.66320182262394"><ele>403.79999999999995</ele><time>2026-04-25T10:59:12Z</time></trkpt><trkpt lat="43.6256593096036" lon="12.663303289583345"><ele>403.0</ele><time>2026-04-25T10:59:13Z</time></trkpt><trkpt lat="43.62556649819869" lon="12.663389642955195"><ele>403.0</ele><time>2026-04-25T10:59:14Z</time></trkpt><trkpt lat="43.62542783967429" lon="12.663493399516526"><ele>403.0</ele><time>2026-04-25T10:59:15Z</time></trkpt><trkpt lat="43.62531902050671" lon="12.663629709180363"><ele>403.0</ele><time>2026-04-25T10:59:16Z</time></trkpt><trkpt lat="43.6252487998058" lon="12.663814392759782"><ele>400.5</ele><time>2026-04-25T10:59:17Z</time></trkpt><trkpt lat="43.625156726933064" lon="12.664004146103384"><ele>398.0</ele><time>2026-04-25T10:59:18Z</time></trkpt><trkpt lat="43.62508561360294" lon="12.664167941770991"><ele>395.5</ele><time>2026-04-25T10:59:19Z</time></trkpt><trkpt lat="43.62500897277216" lon="12.664241742155133"><ele>393.0</ele><time>2026-04-25T10:59:20Z</time></trkpt><trkpt lat="43.62490824854956" lon="12.664373595247314"><ele>385.0</ele><time>2026-04-25T10:59:21Z</time></trkpt><trkpt lat="43.624816375508416" lon="12.664529578679197"><ele>377.0</ele><time>2026-04-25T10:59:22Z</time></trkpt><trkpt lat="43.62473825383741" lon="12.664748306791331"><ele>369.0</ele><time>2026-04-25T10:59:23Z</time></trkpt><trkpt lat="43.62465049574452" lon="12.664979946377365"><ele>369.0</ele><time>2026-04-25T10:59:24Z</time></trkpt><trkpt lat="43.62459496274994" lon="12.66516329334244"><ele>369.0</ele><time>2026-04-25T10:59:25Z</time></trkpt><trkpt lat="43.62452910321009" lon="12.665372124453722"><ele>369.0</ele><time>2026-04-25T10:59:26Z</time></trkpt><trkpt lat="43.624443807710534" lon="12.665587832921481"><ele>369.6666666666667</ele><time>2026-04-25T10:59:27Z</time></trkpt><trkpt lat="43.62435614611778" lon="12.665810012531928"><ele>370.33333333333337</ele><time>2026-04-25T10:59:28Z</time></trkpt><trkpt lat="43.624270986055514" lon="12.66600519580085"><ele>371.0</ele><time>2026-04-25T10:59:29Z</time></trkpt><trkpt lat="43.62419723814287" lon="12.66618284128416"><ele>368.83333333333337</ele><time>2026-04-25T10:59:30Z</time></trkpt><trkpt lat="43.624131756891785" lon="12.666315132061893"><ele>366.6666666666667</ele><time>2026-04-25T10:59:31Z</time></trkpt><trkpt lat="43.624065904460004" lon="12.666419846216424"><ele>364.5</ele><time>2026-04-25T10:59:32Z</time></trkpt><trkpt lat="43.623998754085314" lon="12.66646913622357"><ele>362.3333333333333</ele><time>2026-04-25T10:59:33Z</time></trkpt><trkpt lat="43.62393394897467" lon="12.666493451255814"><ele>360.16666666666663</ele><time>2026-04-25T10:59:34Z</time></trkpt><trkpt lat="43.623854812786504" lon="12.66648941845647"><ele>358.0</ele><time>2026-04-25T10:59:35Z</time></trkpt><trkpt lat="43.62376118776762" lon="12.666459307505887"><ele>356.25</ele><time>2026-04-25T10:59:36Z</time></trkpt><trkpt lat="43.62362884325626" lon="12.666411029383863"><ele>354.5</ele><time>2026-04-25T10:59:37Z</time></trkpt><trkpt lat="43.62348691813589" lon="12.666355547952056"><ele>352.75</ele><time>2026-04-25T10:59:38Z</time></trkpt><trkpt lat="43.62334692792127" lon="12.66630148818383"><ele>351.0</ele><time>2026-04-25T10:59:39Z</time></trkpt><trkpt lat="43.623204597597194" lon="12.666289329901504"><ele>351.0</ele><time>2026-04-25T10:59:40Z</time></trkpt><trkpt lat="43.623062296308646" lon="12.666316940129528"><ele>351.0</ele><time>2026-04-25T10:59:41Z</time></trkpt><trkpt lat="43.622925866771105" lon="12.666346168260265"><ele>351.0</ele><time>2026-04-25T10:59:42Z</time></trkpt><trkpt lat="43.62281140982245" lon="12.66639459009616"><ele>351.0</ele><time>2026-04-25T10:59:43Z</time></trkpt><trkpt lat="43.62271504563318" lon="12.666415832080828"><ele>351.0</ele><time>2026-04-25T10:59:44Z</time></trkpt><trkpt lat="43.62264966000656" lon="12.666421015149222"><ele>351.0</ele><time>2026-04-25T10:59:45Z</time></trkpt><trkpt lat="43.62265288130467" lon="12.666324040185186"><ele>351.0</ele><time>2026-04-25T10:59:48Z</time></trkpt><trkpt lat="43.62274308137232" lon="12.666289757022478"><ele>351.0</ele><time>2026-04-25T10:59:49Z</time></trkpt><trkpt lat="43.62282620490665" lon="12.666205252007716"><ele>351.0</ele><time>2026-04-25T10:59:50Z</time></trkpt><trkpt lat="43.6228962031368" lon="12.666120136991545"><ele>351.0</ele><time>2026-04-25T10:59:51Z</time></trkpt><trkpt lat="43.62296245961569" lon="12.66607464994037"><ele>349.6</ele><time>2026-04-25T10:59:52Z</time></trkpt><trkpt lat="43.622935011776576" lon="12.665944063433994"><ele>348.20000000000005</ele><time>2026-04-25T10:59:54Z</time></trkpt><trkpt lat="43.62281291966059" lon="12.665939606238608"><ele>346.79999999999995</ele><time>2026-04-25T10:59:56Z</time></trkpt><trkpt lat="43.62272135769234" lon="12.666003271606096"><ele>345.4</ele><time>2026-04-25T10:59:57Z</time></trkpt><trkpt lat="43.622608253204135" lon="12.666056104276228"><ele>344.0</ele><time>2026-04-25T10:59:58Z</time></trkpt><trkpt lat="43.62247881426577" lon="12.66611934288398"><ele>343.75</ele><time>2026-04-25T10:59:59Z</time></trkpt><trkpt lat="43.62235442011829" lon="12.666186621770784"><ele>343.5</ele><time>2026-04-25T11:00:00Z</time></trkpt><trkpt lat="43.62224582027186" lon="12.666288411165178"><ele>343.25</ele><time>2026-04-25T11:00:01Z</time></trkpt><trkpt lat="43.62214102948386" lon="12.666388693456746"><ele>343.0</ele><time>2026-04-25T11:00:02Z</time></trkpt><trkpt lat="43.62203878938893" lon="12.666494855347661"><ele>337.0</ele><time>2026-04-25T11:00:03Z</time></trkpt><trkpt lat="43.621940275958195" lon="12.666598966660246"><ele>331.0</ele><time>2026-04-25T11:00:04Z</time></trkpt><trkpt lat="43.62184161571266" lon="12.66670375850381"><ele>325.0</ele><time>2026-04-25T11:00:05Z</time></trkpt><trkpt lat="43.621732264295076" lon="12.66678782926619"><ele>319.0</ele><time>2026-04-25T11:00:06Z</time></trkpt><trkpt lat="43.621633940530934" lon="12.66689854375243"><ele>321.0</ele><time>2026-04-25T11:00:07Z</time></trkpt><trkpt lat="43.62154096572768" lon="12.667015694637895"><ele>323.0</ele><time>2026-04-25T11:00:08Z</time></trkpt><trkpt lat="43.6214566842016" lon="12.667133627681356"><ele>325.0</ele><time>2026-04-25T11:00:09Z</time></trkpt><trkpt lat="43.62139143648288" lon="12.667274882386474"><ele>327.0</ele><time>2026-04-25T11:00:10Z</time></trkpt><trkpt lat="43.62130429765406" lon="12.667389662154338"><ele>327.0</ele><time>2026-04-25T11:00:11Z</time></trkpt><trkpt lat="43.621231701631004" lon="12.667524749874339"><ele>327.0</ele><time>2026-04-25T11:00:12Z</time></trkpt><trkpt lat="43.62116322442281" lon="12.667668142839464"><ele>327.0</ele><time>2026-04-25T11:00:13Z</time></trkpt><trkpt lat="43.62109773463814" lon="12.66781822025518"><ele>327.0</ele><time>2026-04-25T11:00:14Z</time></trkpt><trkpt lat="43.62103500961652" lon="12.667977049769307"><ele>317.0</ele><time>2026-04-25T11:00:15Z</time></trkpt><trkpt lat="43.62097544417152" lon="12.668147093539542"><ele>307.0</ele><time>2026-04-25T11:00:16Z</time></trkpt><trkpt lat="43.6209319465394" lon="12.66833623467411"><ele>297.0</ele><time>2026-04-25T11:00:17Z</time></trkpt><trkpt lat="43.62086833662466" lon="12.668520671890683"><ele>287.0</ele><time>2026-04-25T11:00:18Z</time></trkpt><trkpt lat="43.62080031000425" lon="12.668682467534026"><ele>286.6</ele><time>2026-04-25T11:00:19Z</time></trkpt><trkpt lat="43.620748281246755" lon="12.668830541920675"><ele>286.2</ele><time>2026-04-25T11:00:20Z</time></trkpt><trkpt lat="43.620700328060444" lon="12.668962253322006"><ele>285.8</ele><time>2026-04-25T11:00:21Z</time></trkpt><trkpt lat="43.62065396659117" lon="12.669080518783213"><ele>285.4</ele><time>2026-04-25T11:00:22Z</time></trkpt><trkpt lat="43.62060791636866" lon="12.669186619196656"><ele>285.0</ele><time>2026-04-25T11:00:23Z</time></trkpt><trkpt lat="43.62055621996048" lon="12.669293481180862"><ele>285.0</ele><time>2026-04-25T11:00:24Z</time></trkpt><trkpt lat="43.620499507504924" lon="12.66940395603847"><ele>285.0</ele><time>2026-04-25T11:00:25Z</time></trkpt><trkpt lat="43.620438343239265" lon="12.66951837030717"><ele>285.0</ele><time>2026-04-25T11:00:26Z</time></trkpt><trkpt lat="43.62037757547932" lon="12.669640379190335"><ele>285.0</ele><time>2026-04-25T11:00:27Z</time></trkpt><trkpt lat="43.620332645053665" lon="12.669753342457888"><ele>285.0</ele><time>2026-04-25T11:00:28Z</time></trkpt><trkpt lat="43.620316608769954" lon="12.669862656355011"><ele>278.2</ele><time>2026-04-25T11:00:29Z</time></trkpt><trkpt lat="43.6202701258425" lon="12.66994192624443"><ele>271.4</ele><time>2026-04-25T11:00:30Z</time></trkpt><trkpt lat="43.6202131583477" lon="12.67004267579497"><ele>264.6</ele><time>2026-04-25T11:00:32Z</time></trkpt><trkpt lat="43.62021935582621" lon="12.669904647031096"><ele>257.8</ele><time>2026-04-25T11:00:35Z</time></trkpt><trkpt lat="43.6202420885402" lon="12.669754905443392"><ele>251.0</ele><time>2026-04-25T11:00:36Z</time></trkpt><trkpt lat="43.620272345602345" lon="12.66959840298228"><ele>251.0</ele><time>2026-04-25T11:00:37Z</time></trkpt><trkpt lat="43.62029838554497" lon="12.669442225984715"><ele>251.00000000000003</ele><time>2026-04-25T11:00:38Z</time></trkpt><trkpt lat="43.62031791082378" lon="12.669281555262565"><ele>251.00000000000003</ele><time>2026-04-25T11:00:39Z</time></trkpt><trkpt lat="43.620335378548525" lon="12.669134790786547"><ele>251.0</ele><time>2026-04-25T11:00:40Z</time></trkpt><trkpt lat="43.62035564714105" lon="12.668992232960294"><ele>251.0</ele><time>2026-04-25T11:00:41Z</time></trkpt><trkpt lat="43.620371765139524" lon="12.668863902364166"><ele>256.6</ele><time>2026-04-25T11:00:42Z</time></trkpt><trkpt lat="43.62038585762905" lon="12.668736746248939"><ele>262.20000000000005</ele><time>2026-04-25T11:00:43Z</time></trkpt><trkpt lat="43.62037289168456" lon="12.668626942781586"><ele>267.79999999999995</ele><time>2026-04-25T11:00:44Z</time></trkpt><trkpt lat="43.620359816924" lon="12.668498202166095"><ele>273.4</ele><time>2026-04-25T11:00:46Z</time></trkpt><trkpt lat="43.620235953087864" lon="12.668475979287914"><ele>279.0</ele><time>2026-04-25T11:00:48Z</time></trkpt><trkpt lat="43.62017323361331" lon="12.668525405901631"><ele>279.0</ele><time>2026-04-25T11:00:49Z</time></trkpt><trkpt lat="43.62012938916165" lon="12.668608422788074"><ele>279.0</ele><time>2026-04-25T11:00:50Z</time></trkpt><trkpt lat="43.620083624459944" lon="12.668715917801201"><ele>279.0</ele><time>2026-04-25T11:00:51Z</time></trkpt><trkpt lat="43.6200299884402" lon="12.668837227660479"><ele>279.0</ele><time>2026-04-25T11:00:52Z</time></trkpt><trkpt lat="43.61997296647645" lon="12.668966000713649"><ele>279.0</ele><time>2026-04-25T11:00:53Z</time></trkpt><trkpt lat="43.619916792675" lon="12.669082735331758"><ele>275.0</ele><time>2026-04-25T11:00:54Z</time></trkpt><trkpt lat="43.61985956855051" lon="12.66919424877196"><ele>271.0</ele><time>2026-04-25T11:00:55Z</time></trkpt><trkpt lat="43.61980290196943" lon="12.669311009224144"><ele>267.0</ele><time>2026-04-25T11:00:56Z</time></trkpt><trkpt lat="43.61977084229165" lon="12.669436507057595"><ele>263.0</ele><time>2026-04-25T11:00:57Z</time></trkpt><trkpt lat="43.61972882913785" lon="12.66955991106076"><ele>259.0</ele><time>2026-04-25T11:00:58Z</time></trkpt><trkpt lat="43.61969346245252" lon="12.669685082726044"><ele>257.66666666666663</ele><time>2026-04-25T11:00:59Z</time></trkpt><trkpt lat="43.61965920000066" lon="12.669814465346965"><ele>256.3333333333333</ele><time>2026-04-25T11:01:00Z</time></trkpt><trkpt lat="43.61963446599715" lon="12.6699249193515"><ele>255.0</ele><time>2026-04-25T11:01:01Z</time></trkpt><trkpt lat="43.61965134593557" lon="12.670044268251008"><ele>253.66666666666669</ele><time>2026-04-25T11:01:02Z</time></trkpt><trkpt lat="43.61967843072358" lon="12.670158663988111"><ele>252.33333333333334</ele><time>2026-04-25T11:01:03Z</time></trkpt><trkpt lat="43.619720097115724" lon="12.670263635698861"><ele>251.0</ele><time>2026-04-25T11:01:04Z</time></trkpt><trkpt lat="43.61977870966157" lon="12.670372401249448"><ele>248.20000000000002</ele><time>2026-04-25T11:01:05Z</time></trkpt><trkpt lat="43.61984221838318" lon="12.67049004787246"><ele>245.40000000000003</ele><time>2026-04-25T11:01:06Z</time></trkpt><trkpt lat="43.619921341051196" lon="12.670604875237629"><ele>242.6</ele><time>2026-04-25T11:01:07Z</time></trkpt><trkpt lat="43.620000919914304" lon="12.670702895820662"><ele>239.8</ele><time>2026-04-25T11:01:08Z</time></trkpt><trkpt lat="43.62006613003175" lon="12.670784474402222"><ele>237.0</ele><time>2026-04-25T11:01:09Z</time></trkpt><trkpt lat="43.62010221411867" lon="12.670864657759338"><ele>237.0</ele><time>2026-04-25T11:01:10Z</time></trkpt><trkpt lat="43.62008238715641" lon="12.670953891245482"><ele>237.0</ele><time>2026-04-25T11:01:11Z</time></trkpt><trkpt lat="43.620013322472296" lon="12.671065583465932"><ele>237.0</ele><time>2026-04-25T11:01:13Z</time></trkpt><trkpt lat="43.61995150365551" lon="12.671090274673885"><ele>237.0</ele><time>2026-04-25T11:01:14Z</time></trkpt><trkpt lat="43.61986415061985" lon="12.671059832551766"><ele>237.0</ele><time>2026-04-25T11:01:15Z</time></trkpt><trkpt lat="43.6197734575523" lon="12.671023271498509"><ele>237.0</ele><time>2026-04-25T11:01:16Z</time></trkpt><trkpt lat="43.61966766828674" lon="12.671003736500795"><ele>237.0</ele><time>2026-04-25T11:01:17Z</time></trkpt><trkpt lat="43.61956418733629" lon="12.670963812164349"><ele>237.0</ele><time>2026-04-25T11:01:18Z</time></trkpt><trkpt lat="43.61944498234369" lon="12.670980799246056"><ele>237.0</ele><time>2026-04-25T11:01:19Z</time></trkpt><trkpt lat="43.61933152625136" lon="12.671010063252446"><ele>237.0</ele><time>2026-04-25T11:01:20Z</time></trkpt><trkpt lat="43.61921533515044" lon="12.671054972702605"><ele>234.5</ele><time>2026-04-25T11:01:21Z</time></trkpt><trkpt lat="43.61909925491569" lon="12.671096916276419"><ele>232.0</ele><time>2026-04-25T11:01:22Z</time></trkpt><trkpt lat="43.61898737563148" lon="12.671110825564966"><ele>229.5</ele><time>2026-04-25T11:01:23Z</time></trkpt><trkpt lat="43.61887797405241" lon="12.67112951698328"><ele>227.0</ele><time>2026-04-25T11:01:24Z</time></trkpt><trkpt lat="43.61876817517668" lon="12.671136870943748"><ele>222.75</ele><time>2026-04-25T11:01:25Z</time></trkpt><trkpt lat="43.61866193423807" lon="12.671144082627608"><ele>218.5</ele><time>2026-04-25T11:01:26Z</time></trkpt><trkpt lat="43.618545660366685" lon="12.671152422300587"><ele>214.25</ele><time>2026-04-25T11:01:27Z</time></trkpt><trkpt lat="43.61842217063292" lon="12.671167071295821"><ele>210.0</ele><time>2026-04-25T11:01:28Z</time></trkpt><trkpt lat="43.61830174942316" lon="12.671180481201425"><ele>209.2</ele><time>2026-04-25T11:01:29Z</time></trkpt><trkpt lat="43.618180401744794" lon="12.671170506067684"><ele>208.4</ele><time>2026-04-25T11:01:30Z</time></trkpt><trkpt lat="43.618067352961575" lon="12.671181768286365"><ele>207.60000000000002</ele><time>2026-04-25T11:01:31Z</time></trkpt><trkpt lat="43.61796350607903" lon="12.671202718691847"><ele>206.8</ele><time>2026-04-25T11:01:32Z</time></trkpt><trkpt lat="43.617881736857036" lon="12.671227423812635"><ele>206.0</ele><time>2026-04-25T11:01:33Z</time></trkpt><trkpt lat="43.617819197161815" lon="12.671274871634868"><ele>205.66666666666669</ele><time>2026-04-25T11:01:34Z</time></trkpt><trkpt lat="43.6177481471047" lon="12.671296982008212"><ele>205.33333333333334</ele><time>2026-04-25T11:01:35Z</time></trkpt><trkpt lat="43.61767161892146" lon="12.671320980069035"><ele>205.0</ele><time>2026-04-25T11:01:36Z</time></trkpt><trkpt lat="43.6176241424941" lon="12.671383223057344"><ele>204.66666666666669</ele><time>2026-04-25T11:01:37Z</time></trkpt><trkpt lat="43.61753828533093" lon="12.671329468366935"><ele>204.33333333333334</ele><time>2026-04-25T11:01:38Z</time></trkpt><trkpt lat="43.6174771789239" lon="12.67129750803414"><ele>204.0</ele><time>2026-04-25T11:01:40Z</time></trkpt><trkpt lat="43.61737486468562" lon="12.671282537483235"><ele>204.0</ele><time>2026-04-25T11:01:42Z</time></trkpt><trkpt lat="43.61730533835737" lon="12.671283021589593"><ele>204.0</ele><time>2026-04-25T11:01:43Z</time></trkpt><trkpt lat="43.61724157484006" lon="12.671277067204068"><ele>204.0</ele><time>2026-04-25T11:01:44Z</time></trkpt><trkpt lat="43.61712865927544" lon="12.671246948985495"><ele>204.0</ele><time>2026-04-25T11:01:46Z</time></trkpt><trkpt lat="43.61706196140963" lon="12.6712348832244"><ele>204.0</ele><time>2026-04-25T11:01:48Z</time></trkpt><trkpt lat="43.61699552559995" lon="12.671208780240676"><ele>204.0</ele><time>2026-04-25T11:01:50Z</time></trkpt><trkpt lat="43.61693406155111" lon="12.671182718774565"><ele>204.0</ele><time>2026-04-25T11:01:52Z</time></trkpt><trkpt lat="43.61684715938981" lon="12.671170207858413"><ele>204.16666666666666</ele><time>2026-04-25T11:01:55Z</time></trkpt><trkpt lat="43.61680699094593" lon="12.671061045780238"><ele>204.33333333333331</ele><time>2026-04-25T11:01:59Z</time></trkpt><trkpt lat="43.616825616506084" lon="12.670961654325275"><ele>204.5</ele><time>2026-04-25T11:02:01Z</time></trkpt><trkpt lat="43.61683701136889" lon="12.670853045871377"><ele>204.66666666666666</ele><time>2026-04-25T11:02:03Z</time></trkpt><trkpt lat="43.616847643771905" lon="12.670767242255371"><ele>204.83333333333331</ele><time>2026-04-25T11:02:05Z</time></trkpt><trkpt lat="43.61683811386838" lon="12.670669577502226"><ele>205.0</ele><time>2026-04-25T11:02:32Z</time></trkpt><trkpt lat="43.61685360247662" lon="12.670564273917103"><ele>204.99999999999997</ele><time>2026-04-25T11:02:34Z</time></trkpt><trkpt lat="43.61689264197182" lon="12.67044718246659"><ele>205.0</ele><time>2026-04-25T11:02:37Z</time></trkpt><trkpt lat="43.616854175762924" lon="12.670549724143573"><ele>205.0</ele><time>2026-04-25T11:02:46Z</time></trkpt><trkpt lat="43.61684288889657" lon="12.670652874728383"><ele>205.0</ele><time>2026-04-25T11:02:48Z</time></trkpt><trkpt lat="43.616843635325445" lon="12.670779661533743"><ele>204.99999999999997</ele><time>2026-04-25T11:03:00Z</time></trkpt><trkpt lat="43.616825412478754" lon="12.670874602810322"><ele>205.0</ele><time>2026-04-25T11:03:02Z</time></trkpt><trkpt lat="43.61682394150235" lon="12.670999182404287"><ele>205.0</ele><time>2026-04-25T11:03:05Z</time></trkpt><trkpt lat="43.6168086969287" lon="12.671117523729915"><ele>205.0</ele><time>2026-04-25T11:03:08Z</time></trkpt><trkpt lat="43.61674437760889" lon="12.671173889572641"><ele>205.0</ele><time>2026-04-25T11:03:12Z</time></trkpt><trkpt lat="43.61667578138546" lon="12.671154122459207"><ele>205.0</ele><time>2026-04-25T11:03:14Z</time></trkpt><trkpt lat="43.616611360397584" lon="12.671104869516915"><ele>205.0</ele><time>2026-04-25T11:03:17Z</time></trkpt><trkpt lat="43.616584927744434" lon="12.671015166364741"><ele>205.0</ele><time>2026-04-25T11:03:21Z</time></trkpt><trkpt lat="43.616612013979825" lon="12.670935373318489"><ele>205.0</ele><time>2026-04-25T11:03:25Z</time></trkpt><trkpt lat="43.616620267053335" lon="12.670825334292234"><ele>205.0</ele><time>2026-04-25T11:03:49Z</time></trkpt><trkpt lat="43.61664800722859" lon="12.670743653103278"><ele>205.0</ele><time>2026-04-25T11:04:09Z</time></trkpt><trkpt lat="43.61668772841332" lon="12.670817686539989"><ele>205.0</ele><time>2026-04-25T11:06:23Z</time></trkpt><trkpt lat="43.61667620655226" lon="12.670915921621244"><ele>205.0</ele><time>2026-04-25T11:06:30Z</time></trkpt><trkpt lat="43.616664886520894" lon="12.671003230080741"><ele>205.0</ele><time>2026-04-25T11:06:35Z</time></trkpt><trkpt lat="43.61664644261398" lon="12.671087233551589"><ele>205.0</ele><time>2026-04-25T11:06:40Z</time></trkpt><trkpt lat="43.616711308433324" lon="12.671137148250029"><ele>205.0</ele><time>2026-04-25T11:06:54Z</time></trkpt><trkpt lat="43.61677706113322" lon="12.671114503206123"><ele>204.85714285714286</ele><time>2026-04-25T11:06:59Z</time></trkpt><trkpt lat="43.6167837366918" lon="12.671208914488556"><ele>204.7142857142857</ele><time>2026-04-25T11:07:08Z</time></trkpt><trkpt lat="43.61674580773908" lon="12.671302938578966"><ele>204.57142857142856</ele><time>2026-04-25T11:07:26Z</time></trkpt><trkpt lat="43.61681637714608" lon="12.671292094900107"><ele>204.42857142857144</ele><time>2026-04-25T11:09:26Z</time></trkpt><trkpt lat="43.61675227001907" lon="12.671267289021172"><ele>204.28571428571428</ele><time>2026-04-25T11:09:47Z</time></trkpt><trkpt lat="43.61681735620014" lon="12.67128526262875"><ele>204.14285714285714</ele><time>2026-04-25T11:13:27Z</time></trkpt><trkpt lat="43.616750719506534" lon="12.671261412947008"><ele>204.0</ele><time>2026-04-25T11:14:04Z</time></trkpt><trkpt lat="43.616826171614846" lon="12.671266589028654"><ele>204.0</ele><time>2026-04-25T11:20:38Z</time></trkpt><trkpt lat="43.61675106525703" lon="12.671247121633266"><ele>204.0</ele><time>2026-04-25T11:25:19Z</time></trkpt><trkpt lat="43.61680640528718" lon="12.671291559630694"><ele>204.0</ele><time>2026-04-25T11:46:37Z</time></trkpt><trkpt lat="43.61673959775943" lon="12.671273070933795"><ele>204.0</ele><time>2026-04-25T11:50:00Z</time></trkpt><trkpt lat="43.61670494906837" lon="12.67134939558963"><ele>204.0</ele><time>2026-04-25T11:50:15Z</time></trkpt><trkpt lat="43.61671895083654" lon="12.671467555288334"><ele>204.0</ele><time>2026-04-25T11:50:30Z</time></trkpt><trkpt lat="43.61676740159977" lon="12.67159371745321"><ele>204.0</ele><time>2026-04-25T11:50:31.026Z</time></trkpt><trkpt lat="43.61688979721783" lon="12.671520575566916"><ele>204.0</ele><time>2026-04-25T11:50:32.025Z</time></trkpt><trkpt lat="43.61689960546082" lon="12.671399281160019"><ele>204.0</ele><time>2026-04-25T11:50:34Z</time></trkpt><trkpt lat="43.61679493796052" lon="12.67139418855241"><ele>204.0</ele><time>2026-04-25T11:50:35Z</time></trkpt><trkpt lat="43.6167200757794" lon="12.671350546513114"><ele>204.0</ele><time>2026-04-25T11:50:38Z</time></trkpt><trkpt lat="43.616657845846454" lon="12.671307590134377"><ele>204.0</ele><time>2026-04-25T11:50:56Z</time></trkpt><trkpt lat="43.6167133976468" lon="12.67135960504881"><ele>204.0</ele><time>2026-04-25T11:51:18Z</time></trkpt><trkpt lat="43.61673826786661" lon="12.671255583380713"><ele>204.0</ele><time>2026-04-25T11:52:16Z</time></trkpt><trkpt lat="43.616795583126496" lon="12.67120789734741"><ele>204.0</ele><time>2026-04-25T11:53:20Z</time></trkpt><trkpt lat="43.616867820797665" lon="12.671204653398162"><ele>204.0</ele><time>2026-04-25T11:53:27Z</time></trkpt><trkpt lat="43.616839712455175" lon="12.671297739777021"><ele>204.0</ele><time>2026-04-25T11:53:37Z</time></trkpt><trkpt lat="43.616860932371075" lon="12.671205902925779"><ele>204.0</ele><time>2026-04-25T11:53:43Z</time></trkpt><trkpt lat="43.6169205219325" lon="12.671262440342883"><ele>204.0</ele><time>2026-04-25T11:53:47Z</time></trkpt><trkpt lat="43.61692143663337" lon="12.671154349274234"><ele>204.0</ele><time>2026-04-25T11:53:51Z</time></trkpt><trkpt lat="43.61683374808317" lon="12.671160630141848"><ele>204.0</ele><time>2026-04-25T11:53:55Z</time></trkpt><trkpt lat="43.616844523118544" lon="12.671033200724484"><ele>204.0</ele><time>2026-04-25T11:54:02Z</time></trkpt><trkpt lat="43.61690684739888" lon="12.671010205665326"><ele>204.0</ele><time>2026-04-25T11:54:09Z</time></trkpt><trkpt lat="43.61688180468267" lon="12.67110332057262"><ele>204.0</ele><time>2026-04-25T11:54:24Z</time></trkpt><trkpt lat="43.616888360571174" lon="12.671195074613152"><ele>204.2</ele><time>2026-04-25T11:54:29Z</time></trkpt><trkpt lat="43.61692938585732" lon="12.671061620615527"><ele>204.39999999999998</ele><time>2026-04-25T11:54:50.726Z</time></trkpt><trkpt lat="43.616854655755425" lon="12.671097633634163"><ele>204.6</ele><time>2026-04-25T11:54:53.576Z</time></trkpt><trkpt lat="43.616946629559806" lon="12.671020287586227"><ele>204.8</ele><time>2026-04-25T11:54:55.876Z</time></trkpt><trkpt lat="43.61686022483201" lon="12.671055367080148"><ele>205.0</ele><time>2026-04-25T11:54:57.35Z</time></trkpt><trkpt lat="43.61692554685376" lon="12.671091732608009"><ele>204.99999999999997</ele><time>2026-04-25T11:55:20Z</time></trkpt><trkpt lat="43.6169714363051" lon="12.671166803957792"><ele>205.0</ele><time>2026-04-25T11:55:24Z</time></trkpt><trkpt lat="43.61701621283194" lon="12.671093191906673"><ele>205.0</ele><time>2026-04-25T11:55:36Z</time></trkpt><trkpt lat="43.61703986901946" lon="12.670992398805302"><ele>205.0</ele><time>2026-04-25T11:55:42Z</time></trkpt><trkpt lat="43.61695633579889" lon="12.671026981227058"><ele>204.99999999999997</ele><time>2026-04-25T11:56:19Z</time></trkpt><trkpt lat="43.61703612424619" lon="12.671095541928805"><ele>205.0</ele><time>2026-04-25T11:56:42Z</time></trkpt><trkpt lat="43.61700079669682" lon="12.671016888323233"><ele>205.0</ele><time>2026-04-25T11:57:02Z</time></trkpt><trkpt lat="43.6169819360289" lon="12.6711048252593"><ele>205.0</ele><time>2026-04-25T11:57:15Z</time></trkpt><trkpt lat="43.617005889333974" lon="12.671197418256885"><ele>205.0</ele><time>2026-04-25T11:57:45Z</time></trkpt><trkpt lat="43.6169563421797" lon="12.6711185644025"><ele>205.0</ele><time>2026-04-25T11:57:54Z</time></trkpt><trkpt lat="43.616896202754404" lon="12.671145199201373"><ele>205.0</ele><time>2026-04-25T11:58:00Z</time></trkpt><trkpt lat="43.61682391899386" lon="12.671147455900806"><ele>205.0</ele><time>2026-04-25T11:58:05Z</time></trkpt><trkpt lat="43.616756516906925" lon="12.671174262979873"><ele>205.0</ele><time>2026-04-25T11:58:12Z</time></trkpt><trkpt lat="43.616823126103505" lon="12.671151700422437"><ele>204.85714285714286</ele><time>2026-04-25T11:58:31Z</time></trkpt><trkpt lat="43.61676172477549" lon="12.671181969932098"><ele>204.7142857142857</ele><time>2026-04-25T11:58:46Z</time></trkpt><trkpt lat="43.616702524901264" lon="12.671293163867059"><ele>204.57142857142856</ele><time>2026-04-25T11:59:10Z</time></trkpt><trkpt lat="43.616727740545656" lon="12.671209864153203"><ele>204.42857142857144</ele><time>2026-04-25T11:59:52Z</time></trkpt><trkpt lat="43.61676843190552" lon="12.671134786473031"><ele>204.28571428571428</ele><time>2026-04-25T11:59:58Z</time></trkpt><trkpt lat="43.6167925666092" lon="12.67121604185795"><ele>204.14285714285714</ele><time>2026-04-25T12:00:23Z</time></trkpt><trkpt lat="43.616803732069954" lon="12.67112073529512"><ele>204.0</ele><time>2026-04-25T12:01:04Z</time></trkpt><trkpt lat="43.616760782432124" lon="12.67119963877384"><ele>204.0</ele><time>2026-04-25T12:01:09Z</time></trkpt><trkpt lat="43.61671011356581" lon="12.671268718695455"><ele>204.0</ele><time>2026-04-25T12:01:14Z</time></trkpt><trkpt lat="43.61673503699238" lon="12.671175483025387"><ele>204.0</ele><time>2026-04-25T12:02:11Z</time></trkpt><trkpt lat="43.61672183533334" lon="12.671264958792914"><ele>204.0</ele><time>2026-04-25T12:02:18Z</time></trkpt><trkpt lat="43.61674705640242" lon="12.671182304523"><ele>204.0</ele><time>2026-04-25T12:02:40Z</time></trkpt><trkpt lat="43.616766184366114" lon="12.6710924585053"><ele>204.0</ele><time>2026-04-25T12:03:09Z</time></trkpt><trkpt lat="43.616809625874836" lon="12.671166562602197"><ele>204.0</ele><time>2026-04-25T12:03:32Z</time></trkpt><trkpt lat="43.61676516052477" lon="12.67110365029163"><ele>204.0</ele><time>2026-04-25T12:03:45Z</time></trkpt><trkpt lat="43.61670485539877" lon="12.671163883653449"><ele>204.0</ele><time>2026-04-25T12:04:40Z</time></trkpt><trkpt lat="43.616632455082" lon="12.671168700554839"><ele>204.0</ele><time>2026-04-25T12:04:44Z</time></trkpt><trkpt lat="43.616640118913" lon="12.671058965968763"><ele>204.0</ele><time>2026-04-25T12:04:52Z</time></trkpt><trkpt lat="43.61664205705256" lon="12.670967935079297"><ele>204.0</ele><time>2026-04-25T12:04:56Z</time></trkpt><trkpt lat="43.616657828699566" lon="12.670869587924244"><ele>204.0</ele><time>2026-04-25T12:05:02Z</time></trkpt><trkpt lat="43.61664582678629" lon="12.670777681804093"><ele>204.0</ele><time>2026-04-25T12:05:10Z</time></trkpt><trkpt lat="43.61664683780973" lon="12.670674062964302"><ele>204.16666666666666</ele><time>2026-04-25T12:12:30Z</time></trkpt><trkpt lat="43.61657404644541" lon="12.670684410374747"><ele>204.33333333333331</ele><time>2026-04-25T12:18:51Z</time></trkpt><trkpt lat="43.61666580346166" lon="12.670751886961808"><ele>204.5</ele><time>2026-04-25T12:20:48Z</time></trkpt><trkpt lat="43.61661668409677" lon="12.6706936785628"><ele>204.66666666666666</ele><time>2026-04-25T12:21:22Z</time></trkpt><trkpt lat="43.61668388145559" lon="12.670770483699952"><ele>204.83333333333331</ele><time>2026-04-25T12:21:45Z</time></trkpt><trkpt lat="43.6166560489897" lon="12.670687913131646"><ele>205.0</ele><time>2026-04-25T12:25:15Z</time></trkpt><trkpt lat="43.61666606612432" lon="12.6705960088857"><ele>204.99999999999997</ele><time>2026-04-25T12:25:18Z</time></trkpt><trkpt lat="43.616751605782156" lon="12.670586313947775"><ele>205.0</ele><time>2026-04-25T12:25:22Z</time></trkpt><trkpt lat="43.616819451110594" lon="12.670574130526266"><ele>205.0</ele><time>2026-04-25T12:25:24Z</time></trkpt><trkpt lat="43.61685787375803" lon="12.670457160802473"><ele>205.0</ele><time>2026-04-25T12:25:27Z</time></trkpt><trkpt lat="43.61692299715155" lon="12.670385677065303"><ele>204.99999999999997</ele><time>2026-04-25T12:25:30Z</time></trkpt><trkpt lat="43.61699586159914" lon="12.670438712056068"><ele>205.0</ele><time>2026-04-25T12:25:32Z</time></trkpt><trkpt lat="43.617042393664256" lon="12.670563106165428"><ele>205.49999999999997</ele><time>2026-04-25T12:25:34Z</time></trkpt><trkpt lat="43.617114916674105" lon="12.670685720340122"><ele>206.0</ele><time>2026-04-25T12:25:36Z</time></trkpt><trkpt lat="43.61716194275794" lon="12.670745946640727"><ele>206.5</ele><time>2026-04-25T12:25:37Z</time></trkpt><trkpt lat="43.617215293541896" lon="12.670818112694052"><ele>207.0</ele><time>2026-04-25T12:25:38Z</time></trkpt><trkpt lat="43.61727112772552" lon="12.67089340407235"><ele>207.49999999999997</ele><time>2026-04-25T12:25:39Z</time></trkpt><trkpt lat="43.617316379400656" lon="12.670977966870682"><ele>208.0</ele><time>2026-04-25T12:25:40Z</time></trkpt><trkpt lat="43.61736014093235" lon="12.671069374018595"><ele>207.2</ele><time>2026-04-25T12:25:41Z</time></trkpt><trkpt lat="43.617411245909935" lon="12.671154483085113"><ele>206.4</ele><time>2026-04-25T12:25:42Z</time></trkpt><trkpt lat="43.61745675710113" lon="12.671225977637658"><ele>205.6</ele><time>2026-04-25T12:25:43Z</time></trkpt><trkpt lat="43.61751207442033" lon="12.671347559449137"><ele>204.79999999999998</ele><time>2026-04-25T12:25:45Z</time></trkpt><trkpt lat="43.61756618818702" lon="12.671437154641865"><ele>204.0</ele><time>2026-04-25T12:25:48Z</time></trkpt><trkpt lat="43.617680593514486" lon="12.671372743829046"><ele>204.0</ele><time>2026-04-25T12:25:50Z</time></trkpt><trkpt lat="43.61777611101623" lon="12.671401139997332"><ele>204.0</ele><time>2026-04-25T12:25:53Z</time></trkpt><trkpt lat="43.61785045940022" lon="12.671475138999433"><ele>204.0</ele><time>2026-04-25T12:25:55Z</time></trkpt><trkpt lat="43.617933623175205" lon="12.671520096943597"><ele>204.0</ele><time>2026-04-25T12:25:57Z</time></trkpt><trkpt lat="43.61801821730918" lon="12.671566727094856"><ele>204.0</ele><time>2026-04-25T12:25:59Z</time></trkpt><trkpt lat="43.61807768185044" lon="12.671599505227109"><ele>204.0</ele><time>2026-04-25T12:26:01Z</time></trkpt><trkpt lat="43.61798668218616" lon="12.671549344289422"><ele>204.0</ele><time>2026-04-25T12:26:06Z</time></trkpt><trkpt lat="43.617951081957536" lon="12.67147710624509"><ele>204.0</ele><time>2026-04-25T12:26:07Z</time></trkpt><trkpt lat="43.61785348532917" lon="12.671450357199262"><ele>204.0</ele><time>2026-04-25T12:26:09Z</time></trkpt><trkpt lat="43.617787351226724" lon="12.67140570653983"><ele>204.0</ele><time>2026-04-25T12:26:11Z</time></trkpt><trkpt lat="43.61779638395285" lon="12.671291542204274"><ele>204.0</ele><time>2026-04-25T12:26:13Z</time></trkpt><trkpt lat="43.61787234048536" lon="12.671221999630353"><ele>204.0</ele><time>2026-04-25T12:26:15Z</time></trkpt><trkpt lat="43.61796558192231" lon="12.671208797623096"><ele>204.39999999999998</ele><time>2026-04-25T12:26:17Z</time></trkpt><trkpt lat="43.61808048166737" lon="12.671202351756033"><ele>204.8</ele><time>2026-04-25T12:26:19Z</time></trkpt><trkpt lat="43.61820349176311" lon="12.671215385467645"><ele>205.2</ele><time>2026-04-25T12:26:21Z</time></trkpt><trkpt lat="43.61827177031176" lon="12.671212486164215"><ele>205.60000000000002</ele><time>2026-04-25T12:26:22Z</time></trkpt><trkpt lat="43.618340951783026" lon="12.671209837544843"><ele>206.0</ele><time>2026-04-25T12:26:23Z</time></trkpt><trkpt lat="43.61841482144593" lon="12.67120311513848"><ele>206.0</ele><time>2026-04-25T12:26:24Z</time></trkpt><trkpt lat="43.618551222401315" lon="12.671191116707842"><ele>206.0</ele><time>2026-04-25T12:26:26Z</time></trkpt><trkpt lat="43.61863574081771" lon="12.671172031076628"><ele>206.0</ele><time>2026-04-25T12:26:27Z</time></trkpt><trkpt lat="43.618713816830216" lon="12.671163174073872"><ele>206.0</ele><time>2026-04-25T12:26:28Z</time></trkpt><trkpt lat="43.618797064245584" lon="12.671159564276193"><ele>206.0</ele><time>2026-04-25T12:26:29Z</time></trkpt><trkpt lat="43.61888286071227" lon="12.67115946869306"><ele>206.8</ele><time>2026-04-25T12:26:30Z</time></trkpt><trkpt lat="43.61897420368058" lon="12.671168974942022"><ele>207.60000000000002</ele><time>2026-04-25T12:26:31Z</time></trkpt><trkpt lat="43.619063317856316" lon="12.67115913767062"><ele>208.4</ele><time>2026-04-25T12:26:32Z</time></trkpt><trkpt lat="43.6191543023496" lon="12.671138117558945"><ele>209.2</ele><time>2026-04-25T12:26:33Z</time></trkpt><trkpt lat="43.61924164788426" lon="12.671104671617806"><ele>210.0</ele><time>2026-04-25T12:26:34Z</time></trkpt><trkpt lat="43.61933527600153" lon="12.671071626333887"><ele>213.4</ele><time>2026-04-25T12:26:36Z</time></trkpt><trkpt lat="43.61941530998542" lon="12.671041042158393"><ele>216.8</ele><time>2026-04-25T12:26:37Z</time></trkpt><trkpt lat="43.61953843408757" lon="12.671017957413552"><ele>220.2</ele><time>2026-04-25T12:26:38Z</time></trkpt><trkpt lat="43.61963318807004" lon="12.671011753783251"><ele>223.6</ele><time>2026-04-25T12:26:39Z</time></trkpt><trkpt lat="43.61972242301456" lon="12.67104705908832"><ele>227.0</ele><time>2026-04-25T12:26:40Z</time></trkpt><trkpt lat="43.61980628956972" lon="12.671086226514259"><ele>229.0</ele><time>2026-04-25T12:26:41Z</time></trkpt><trkpt lat="43.61992602121715" lon="12.671134595237168"><ele>231.0</ele><time>2026-04-25T12:26:42Z</time></trkpt><trkpt lat="43.62002810831548" lon="12.671102616182813"><ele>233.0</ele><time>2026-04-25T12:26:44Z</time></trkpt><trkpt lat="43.620076700558094" lon="12.671040919494745"><ele>235.0</ele><time>2026-04-25T12:26:45Z</time></trkpt><trkpt lat="43.62009595106832" lon="12.670940876194697"><ele>237.0</ele><time>2026-04-25T12:26:46Z</time></trkpt><trkpt lat="43.62010375033882" lon="12.670821167556786"><ele>237.0</ele><time>2026-04-25T12:26:47Z</time></trkpt><trkpt lat="43.6200775086646" lon="12.670708084388544"><ele>237.0</ele><time>2026-04-25T12:26:48Z</time></trkpt><trkpt lat="43.61998212146523" lon="12.67062518123107"><ele>237.0</ele><time>2026-04-25T12:26:49Z</time></trkpt><trkpt lat="43.6199155109957" lon="12.670533031703528"><ele>237.0</ele><time>2026-04-25T12:26:50Z</time></trkpt><trkpt lat="43.61984482022641" lon="12.670440497587263"><ele>237.0</ele><time>2026-04-25T12:26:51Z</time></trkpt><trkpt lat="43.61979321587463" lon="12.67034602913083"><ele>239.33333333333334</ele><time>2026-04-25T12:26:52Z</time></trkpt><trkpt lat="43.61974589159788" lon="12.6702443551373"><ele>241.66666666666669</ele><time>2026-04-25T12:26:53Z</time></trkpt><trkpt lat="43.619708834991044" lon="12.670136154870892"><ele>244.0</ele><time>2026-04-25T12:26:54Z</time></trkpt><trkpt lat="43.619681875684755" lon="12.670024654196007"><ele>246.33333333333334</ele><time>2026-04-25T12:26:55Z</time></trkpt><trkpt lat="43.61967222461086" lon="12.669907178475327"><ele>248.66666666666669</ele><time>2026-04-25T12:26:56Z</time></trkpt><trkpt lat="43.619693148713516" lon="12.669786627141818"><ele>251.0</ele><time>2026-04-25T12:26:57Z</time></trkpt><trkpt lat="43.61973240886525" lon="12.669673700787424"><ele>251.0</ele><time>2026-04-25T12:26:58Z</time></trkpt><trkpt lat="43.61976753464818" lon="12.669549381699245"><ele>251.00000000000003</ele><time>2026-04-25T12:26:59Z</time></trkpt><trkpt lat="43.619805815328526" lon="12.669418095735255"><ele>251.00000000000003</ele><time>2026-04-25T12:27:00Z</time></trkpt><trkpt lat="43.619849391946" lon="12.669288621553916"><ele>251.0</ele><time>2026-04-25T12:27:01Z</time></trkpt><trkpt lat="43.61991007551168" lon="12.669162083404702"><ele>251.0</ele><time>2026-04-25T12:27:02Z</time></trkpt><trkpt lat="43.61997750765576" lon="12.669023920236693"><ele>252.60000000000002</ele><time>2026-04-25T12:27:03Z</time></trkpt><trkpt lat="43.62003969414278" lon="12.668889401428627"><ele>254.20000000000002</ele><time>2026-04-25T12:27:04Z</time></trkpt><trkpt lat="43.62010008186271" lon="12.668758773643704"><ele>255.79999999999998</ele><time>2026-04-25T12:27:05Z</time></trkpt><trkpt lat="43.620148351371945" lon="12.668657349189816"><ele>257.4</ele><time>2026-04-25T12:27:06Z</time></trkpt><trkpt lat="43.62018595250252" lon="12.668584808236877"><ele>259.0</ele><time>2026-04-25T12:27:07Z</time></trkpt><trkpt lat="43.62024439068138" lon="12.66849312097618"><ele>259.0</ele><time>2026-04-25T12:27:09Z</time></trkpt><trkpt lat="43.62032207784465" lon="12.668601315652934"><ele>259.0</ele><time>2026-04-25T12:27:11Z</time></trkpt><trkpt lat="43.6203328769411" lon="12.668698219094674"><ele>259.0</ele><time>2026-04-25T12:27:12Z</time></trkpt><trkpt lat="43.62031997138249" lon="12.668823290268643"><ele>259.0</ele><time>2026-04-25T12:27:13Z</time></trkpt><trkpt lat="43.62029420387778" lon="12.668962353142746"><ele>259.0</ele><time>2026-04-25T12:27:14Z</time></trkpt><trkpt lat="43.62026824968991" lon="12.669111890731743"><ele>259.0</ele><time>2026-04-25T12:27:15Z</time></trkpt><trkpt lat="43.62024633116761" lon="12.669273411221457"><ele>259.0</ele><time>2026-04-25T12:27:16Z</time></trkpt><trkpt lat="43.62021976780305" lon="12.669445164199903"><ele>259.0</ele><time>2026-04-25T12:27:17Z</time></trkpt><trkpt lat="43.62020172554774" lon="12.669620794897305"><ele>259.0</ele><time>2026-04-25T12:27:18Z</time></trkpt><trkpt lat="43.62018113979687" lon="12.669786113335253"><ele>257.4</ele><time>2026-04-25T12:27:19Z</time></trkpt><trkpt lat="43.62016774548584" lon="12.669920156739833"><ele>255.79999999999998</ele><time>2026-04-25T12:27:20Z</time></trkpt><trkpt lat="43.62015341294469" lon="12.670025966481386"><ele>254.20000000000002</ele><time>2026-04-25T12:27:21Z</time></trkpt><trkpt lat="43.620194345900536" lon="12.670145085632647"><ele>252.60000000000002</ele><time>2026-04-25T12:27:23Z</time></trkpt><trkpt lat="43.62016843983466" lon="12.670237015394555"><ele>251.0</ele><time>2026-04-25T12:27:25Z</time></trkpt><trkpt lat="43.620238988414165" lon="12.670061155084234"><ele>251.00000000000003</ele><time>2026-04-25T12:27:26Z</time></trkpt><trkpt lat="43.62026366358153" lon="12.669961512476183"><ele>251.0</ele><time>2026-04-25T12:27:27Z</time></trkpt><trkpt lat="43.62028547129453" lon="12.669853218344107"><ele>251.0</ele><time>2026-04-25T12:27:28Z</time></trkpt><trkpt lat="43.6203151726411" lon="12.669759868094578"><ele>251.0</ele><time>2026-04-25T12:27:29Z</time></trkpt><trkpt lat="43.62039575490402" lon="12.669687998625234"><ele>251.00000000000003</ele><time>2026-04-25T12:27:30Z</time></trkpt><trkpt lat="43.620437625204445" lon="12.669598833151376"><ele>251.0</ele><time>2026-04-25T12:27:31Z</time></trkpt><trkpt lat="43.620485771144104" lon="12.669506611956407"><ele>256.6666666666667</ele><time>2026-04-25T12:27:32Z</time></trkpt><trkpt lat="43.62053427750149" lon="12.669416330440823"><ele>262.33333333333337</ele><time>2026-04-25T12:27:33Z</time></trkpt><trkpt lat="43.62057905853951" lon="12.669328662325185"><ele>268.0</ele><time>2026-04-25T12:27:34Z</time></trkpt><trkpt lat="43.62062328014799" lon="12.669238856682364"><ele>273.6666666666667</ele><time>2026-04-25T12:27:35Z</time></trkpt><trkpt lat="43.62066869714762" lon="12.669138651159471"><ele>279.3333333333333</ele><time>2026-04-25T12:27:36Z</time></trkpt><trkpt lat="43.620710451137825" lon="12.669034492289546"><ele>285.0</ele><time>2026-04-25T12:27:37Z</time></trkpt><trkpt lat="43.62075104407747" lon="12.66892526241282"><ele>285.0</ele><time>2026-04-25T12:27:38Z</time></trkpt><trkpt lat="43.62078978771528" lon="12.668818846479844"><ele>285.0</ele><time>2026-04-25T12:27:39Z</time></trkpt><trkpt lat="43.62082572162761" lon="12.668715816295993"><ele>285.0</ele><time>2026-04-25T12:27:40Z</time></trkpt><trkpt lat="43.620862141355836" lon="12.668607349119501"><ele>285.0</ele><time>2026-04-25T12:27:41Z</time></trkpt><trkpt lat="43.62089846992875" lon="12.668495725027771"><ele>285.0</ele><time>2026-04-25T12:27:42Z</time></trkpt><trkpt lat="43.620933493374196" lon="12.668388111069218"><ele>285.0</ele><time>2026-04-25T12:27:43Z</time></trkpt><trkpt lat="43.62096745728614" lon="12.668283752655444"><ele>285.3333333333333</ele><time>2026-04-25T12:27:44Z</time></trkpt><trkpt lat="43.62099738981282" lon="12.668169068324023"><ele>285.6666666666667</ele><time>2026-04-25T12:27:45Z</time></trkpt><trkpt lat="43.62103616492101" lon="12.668066191156191"><ele>286.0</ele><time>2026-04-25T12:27:46Z</time></trkpt><trkpt lat="43.62107592716849" lon="12.667957132181776"><ele>286.33333333333337</ele><time>2026-04-25T12:27:47Z</time></trkpt><trkpt lat="43.621118137355076" lon="12.667849046354887"><ele>286.6666666666667</ele><time>2026-04-25T12:27:48Z</time></trkpt><trkpt lat="43.6211631161291" lon="12.667737768366049"><ele>287.0</ele><time>2026-04-25T12:27:49Z</time></trkpt><trkpt lat="43.621212619656355" lon="12.667619604916805"><ele>295.0</ele><time>2026-04-25T12:27:50Z</time></trkpt><trkpt lat="43.621270501475024" lon="12.66750417163924"><ele>303.0</ele><time>2026-04-25T12:27:51Z</time></trkpt><trkpt lat="43.62133002405156" lon="12.667383357095211"><ele>311.0</ele><time>2026-04-25T12:27:52Z</time></trkpt><trkpt lat="43.621399458825756" lon="12.667264422819617"><ele>319.0</ele><time>2026-04-25T12:27:53Z</time></trkpt><trkpt lat="43.62147627656271" lon="12.667150202507775"><ele>327.0</ele><time>2026-04-25T12:27:54Z</time></trkpt><trkpt lat="43.62155640617227" lon="12.667037728749026"><ele>325.0</ele><time>2026-04-25T12:27:55Z</time></trkpt><trkpt lat="43.621643436274944" lon="12.66693510639374"><ele>323.0</ele><time>2026-04-25T12:27:56Z</time></trkpt><trkpt lat="43.62173526275137" lon="12.666835747240675"><ele>321.0</ele><time>2026-04-25T12:27:57Z</time></trkpt><trkpt lat="43.62182915724194" lon="12.666730029787892"><ele>319.0</ele><time>2026-04-25T12:27:58Z</time></trkpt><trkpt lat="43.621927224565084" lon="12.666623032087475"><ele>325.0</ele><time>2026-04-25T12:27:59Z</time></trkpt><trkpt lat="43.62203635018493" lon="12.666515475301646"><ele>331.0</ele><time>2026-04-25T12:28:00Z</time></trkpt><trkpt lat="43.6221459541015" lon="12.666406354725051"><ele>337.0</ele><time>2026-04-25T12:28:01Z</time></trkpt><trkpt lat="43.6222503449255" lon="12.666299851572077"><ele>343.0</ele><time>2026-04-25T12:28:02Z</time></trkpt><trkpt lat="43.622350528379606" lon="12.666214609186776"><ele>343.0</ele><time>2026-04-25T12:28:03Z</time></trkpt><trkpt lat="43.62246883998495" lon="12.666171959895628"><ele>343.0</ele><time>2026-04-25T12:28:04Z</time></trkpt><trkpt lat="43.62259141233374" lon="12.666113911952923"><ele>343.0</ele><time>2026-04-25T12:28:05Z</time></trkpt><trkpt lat="43.62268866901819" lon="12.666063169326701"><ele>343.0</ele><time>2026-04-25T12:28:06Z</time></trkpt><trkpt lat="43.6227447549888" lon="12.66601076605191"><ele>343.0</ele><time>2026-04-25T12:28:07Z</time></trkpt><trkpt lat="43.622814125951706" lon="12.665994727702426"><ele>343.0</ele><time>2026-04-25T12:28:08Z</time></trkpt><trkpt lat="43.622898186401976" lon="12.665979786661422"><ele>343.0</ele><time>2026-04-25T12:28:10Z</time></trkpt><trkpt lat="43.622898894429305" lon="12.666090485077573"><ele>343.0</ele><time>2026-04-25T12:28:13Z</time></trkpt><trkpt lat="43.6228114613246" lon="12.666162530539257"><ele>343.0</ele><time>2026-04-25T12:28:15Z</time></trkpt><trkpt lat="43.62270021680918" lon="12.666279401923488"><ele>343.0</ele><time>2026-04-25T12:28:17Z</time></trkpt><trkpt lat="43.622653247269454" lon="12.666347658082163"><ele>343.0</ele><time>2026-04-25T12:28:18Z</time></trkpt><trkpt lat="43.622649293170774" lon="12.666453120199318"><ele>343.0</ele><time>2026-04-25T12:28:20Z</time></trkpt><trkpt lat="43.62272837793912" lon="12.666487596219909"><ele>343.0</ele><time>2026-04-25T12:28:22Z</time></trkpt><trkpt lat="43.62282805512396" lon="12.666433373244365"><ele>343.0</ele><time>2026-04-25T12:28:24Z</time></trkpt><trkpt lat="43.62288933521377" lon="12.666405806005518"><ele>343.0</ele><time>2026-04-25T12:28:25Z</time></trkpt><trkpt lat="43.62295872101783" lon="12.666381966323595"><ele>343.0</ele><time>2026-04-25T12:28:26Z</time></trkpt><trkpt lat="43.623034092714164" lon="12.666353373093491"><ele>344.59999999999997</ele><time>2026-04-25T12:28:27Z</time></trkpt><trkpt lat="43.6231220503889" lon="12.66633135196255"><ele>346.2</ele><time>2026-04-25T12:28:28Z</time></trkpt><trkpt lat="43.62321442598351" lon="12.66631876977681"><ele>347.8</ele><time>2026-04-25T12:28:29Z</time></trkpt><trkpt lat="43.62331104698097" lon="12.66632198986695"><ele>349.4</ele><time>2026-04-25T12:28:30Z</time></trkpt><trkpt lat="43.62340829878894" lon="12.666348941040605"><ele>351.0</ele><time>2026-04-25T12:28:31Z</time></trkpt><trkpt lat="43.6235083309661" lon="12.66638365599527"><ele>351.0</ele><time>2026-04-25T12:28:32Z</time></trkpt><trkpt lat="43.62361641097006" lon="12.666424364339084"><ele>351.0</ele><time>2026-04-25T12:28:33Z</time></trkpt><trkpt lat="43.6237265371838" lon="12.666466588463221"><ele>351.0</ele><time>2026-04-25T12:28:34Z</time></trkpt><trkpt lat="43.62383150166119" lon="12.666503415232572"><ele>351.0</ele><time>2026-04-25T12:28:35Z</time></trkpt><trkpt lat="43.623911259657106" lon="12.666528476462684"><ele>351.0</ele><time>2026-04-25T12:28:36Z</time></trkpt><trkpt lat="43.6239919826865" lon="12.666521921351215"><ele>352.1666666666667</ele><time>2026-04-25T12:28:37Z</time></trkpt><trkpt lat="43.62406254134181" lon="12.666481610365455"><ele>353.3333333333333</ele><time>2026-04-25T12:28:38Z</time></trkpt><trkpt lat="43.624114512281125" lon="12.666412209704978"><ele>354.5</ele><time>2026-04-25T12:28:39Z</time></trkpt><trkpt lat="43.62416642976624" lon="12.666324013472126"><ele>355.66666666666663</ele><time>2026-04-25T12:28:40Z</time></trkpt><trkpt lat="43.62421282231385" lon="12.666235014680709"><ele>356.8333333333333</ele><time>2026-04-25T12:28:41Z</time></trkpt><trkpt lat="43.62427531191152" lon="12.666085675411713"><ele>358.0</ele><time>2026-04-25T12:28:42Z</time></trkpt><trkpt lat="43.6243204145739" lon="12.665937137860686"><ele>356.25</ele><time>2026-04-25T12:28:43Z</time></trkpt><trkpt lat="43.624395045804725" lon="12.665792456172356"><ele>354.5</ele><time>2026-04-25T12:28:44Z</time></trkpt><trkpt lat="43.62447669019887" lon="12.665650317661973"><ele>352.75</ele><time>2026-04-25T12:28:45Z</time></trkpt><trkpt lat="43.62451608339199" lon="12.665448362032578"><ele>351.0</ele><time>2026-04-25T12:28:46Z</time></trkpt><trkpt lat="43.62458814641915" lon="12.665280424607218"><ele>355.5</ele><time>2026-04-25T12:28:47Z</time></trkpt><trkpt lat="43.624645524050244" lon="12.665102719083668"><ele>360.0</ele><time>2026-04-25T12:28:48Z</time></trkpt><trkpt lat="43.62469597886196" lon="12.664946363524262"><ele>364.5</ele><time>2026-04-25T12:28:49Z</time></trkpt><trkpt lat="43.624753669896386" lon="12.664788716297325"><ele>369.0</ele><time>2026-04-25T12:28:50Z</time></trkpt><trkpt lat="43.62481442769415" lon="12.66462879982807"><ele>369.0</ele><time>2026-04-25T12:28:51Z</time></trkpt><trkpt lat="43.624890044461196" lon="12.664469717475948"><ele>369.0</ele><time>2026-04-25T12:28:52Z</time></trkpt><trkpt lat="43.62498108477432" lon="12.66433617431802"><ele>369.0</ele><time>2026-04-25T12:28:53Z</time></trkpt><trkpt lat="43.62506480080524" lon="12.66423557128033"><ele>369.0</ele><time>2026-04-25T12:28:54Z</time></trkpt><trkpt lat="43.62513985050816" lon="12.66413808757821"><ele>370.6</ele><time>2026-04-25T12:28:55Z</time></trkpt><trkpt lat="43.625194026446636" lon="12.664037655982192"><ele>372.2</ele><time>2026-04-25T12:28:56Z</time></trkpt><trkpt lat="43.62524295212305" lon="12.663915017833062"><ele>373.8</ele><time>2026-04-25T12:28:57Z</time></trkpt><trkpt lat="43.625286595695165" lon="12.663789324383995"><ele>375.40000000000003</ele><time>2026-04-25T12:28:58Z</time></trkpt><trkpt lat="43.62534476249527" lon="12.663658230859548"><ele>377.0</ele><time>2026-04-25T12:28:59Z</time></trkpt><trkpt lat="43.62542455889983" lon="12.663551772659677"><ele>382.20000000000005</ele><time>2026-04-25T12:29:00Z</time></trkpt><trkpt lat="43.62552364106077" lon="12.663458413270709"><ele>387.4</ele><time>2026-04-25T12:29:01Z</time></trkpt><trkpt lat="43.62561480966338" lon="12.663385667040707"><ele>392.6</ele><time>2026-04-25T12:29:02Z</time></trkpt><trkpt lat="43.62568777748297" lon="12.663334551023157"><ele>397.79999999999995</ele><time>2026-04-25T12:29:03Z</time></trkpt><trkpt lat="43.62575499363127" lon="12.66329407856204"><ele>403.0</ele><time>2026-04-25T12:29:04Z</time></trkpt><trkpt lat="43.62587249130344" lon="12.663260831048634"><ele>403.0</ele><time>2026-04-25T12:29:06Z</time></trkpt><trkpt lat="43.6259442986058" lon="12.663292733897167"><ele>403.0</ele><time>2026-04-25T12:29:07Z</time></trkpt><trkpt lat="43.62601737464996" lon="12.663380608365376"><ele>403.0</ele><time>2026-04-25T12:29:08Z</time></trkpt><trkpt lat="43.626102789691316" lon="12.66341568164581"><ele>403.0</ele><time>2026-04-25T12:29:09Z</time></trkpt><trkpt lat="43.62622010393011" lon="12.663447058046378"><ele>403.0</ele><time>2026-04-25T12:29:10Z</time></trkpt><trkpt lat="43.6263448705268" lon="12.663450759483112"><ele>404.0</ele><time>2026-04-25T12:29:11Z</time></trkpt><trkpt lat="43.626470108566735" lon="12.66344541787355"><ele>405.0</ele><time>2026-04-25T12:29:12Z</time></trkpt><trkpt lat="43.626602588414194" lon="12.663445535834633"><ele>406.0</ele><time>2026-04-25T12:29:13Z</time></trkpt><trkpt lat="43.62671008933329" lon="12.663444325654096"><ele>407.0</ele><time>2026-04-25T12:29:14Z</time></trkpt><trkpt lat="43.62682107037304" lon="12.663424810794329"><ele>407.0</ele><time>2026-04-25T12:29:15Z</time></trkpt><trkpt lat="43.62691872867642" lon="12.663377351217848"><ele>407.0</ele><time>2026-04-25T12:29:16Z</time></trkpt><trkpt lat="43.62699602967238" lon="12.663291707050995"><ele>407.0</ele><time>2026-04-25T12:29:17Z</time></trkpt><trkpt lat="43.62705195185356" lon="12.66317327431138"><ele>407.0</ele><time>2026-04-25T12:29:18Z</time></trkpt><trkpt lat="43.62709968009468" lon="12.663049416708958"><ele>407.0</ele><time>2026-04-25T12:29:19Z</time></trkpt><trkpt lat="43.627151143553725" lon="12.66286797083226"><ele>409.0</ele><time>2026-04-25T12:29:20Z</time></trkpt><trkpt lat="43.62720525021616" lon="12.662691489903919"><ele>411.0</ele><time>2026-04-25T12:29:21Z</time></trkpt><trkpt lat="43.627295988650886" lon="12.662569304353383"><ele>413.0</ele><time>2026-04-25T12:29:22Z</time></trkpt><trkpt lat="43.62737203496642" lon="12.662453532762122"><ele>415.0</ele><time>2026-04-25T12:29:23Z</time></trkpt><trkpt lat="43.62745344897173" lon="12.66237413879005"><ele>415.0</ele><time>2026-04-25T12:29:24Z</time></trkpt><trkpt lat="43.62754440622422" lon="12.662323426052303"><ele>415.0</ele><time>2026-04-25T12:29:25Z</time></trkpt><trkpt lat="43.627616148962545" lon="12.662260400098178"><ele>415.0</ele><time>2026-04-25T12:29:26Z</time></trkpt><trkpt lat="43.627686294269125" lon="12.662163218286803"><ele>415.0</ele><time>2026-04-25T12:29:27Z</time></trkpt><trkpt lat="43.627723135034756" lon="12.662042031911398"><ele>415.0</ele><time>2026-04-25T12:29:28Z</time></trkpt><trkpt lat="43.62774983314917" lon="12.661914338623236"><ele>411.75</ele><time>2026-04-25T12:29:29Z</time></trkpt><trkpt lat="43.6277516390534" lon="12.661775624517166"><ele>408.5</ele><time>2026-04-25T12:29:30Z</time></trkpt><trkpt lat="43.62775188947979" lon="12.661607898338241"><ele>405.25</ele><time>2026-04-25T12:29:31Z</time></trkpt><trkpt lat="43.62777600423478" lon="12.66144548099551"><ele>402.0</ele><time>2026-04-25T12:29:32Z</time></trkpt><trkpt lat="43.627843379427496" lon="12.66130942140979"><ele>402.0</ele><time>2026-04-25T12:29:33Z</time></trkpt><trkpt lat="43.62790878055751" lon="12.661200848715998"><ele>402.0</ele><time>2026-04-25T12:29:34Z</time></trkpt><trkpt lat="43.62794223508517" lon="12.661045546801887"><ele>402.0</ele><time>2026-04-25T12:29:36Z</time></trkpt><trkpt lat="43.62790199205597" lon="12.660953323717969"><ele>402.0</ele><time>2026-04-25T12:29:37Z</time></trkpt><trkpt lat="43.627841088358075" lon="12.660912128841057"><ele>402.0</ele><time>2026-04-25T12:29:38Z</time></trkpt><trkpt lat="43.62775053587661" lon="12.660929579931766"><ele>407.6</ele><time>2026-04-25T12:29:39Z</time></trkpt><trkpt lat="43.62768139472395" lon="12.66103947610409"><ele>413.20000000000005</ele><time>2026-04-25T12:29:40Z</time></trkpt><trkpt lat="43.62762993295261" lon="12.661115689925522"><ele>418.8</ele><time>2026-04-25T12:29:41Z</time></trkpt><trkpt lat="43.62757258706948" lon="12.661219822112177"><ele>424.4</ele><time>2026-04-25T12:29:42Z</time></trkpt><trkpt lat="43.627502072127676" lon="12.661339908731476"><ele>430.0</ele><time>2026-04-25T12:29:43Z</time></trkpt><trkpt lat="43.62741713907403" lon="12.661486422207041"><ele>430.0</ele><time>2026-04-25T12:29:44Z</time></trkpt><trkpt lat="43.627324250999926" lon="12.661664870579644"><ele>430.0</ele><time>2026-04-25T12:29:45Z</time></trkpt><trkpt lat="43.6272153967865" lon="12.661857882358005"><ele>430.0</ele><time>2026-04-25T12:29:46Z</time></trkpt><trkpt lat="43.627128322140116" lon="12.662011954740448"><ele>431.2</ele><time>2026-04-25T12:29:47Z</time></trkpt><trkpt lat="43.627041148208455" lon="12.662117832959447"><ele>432.4</ele><time>2026-04-25T12:29:48Z</time></trkpt><trkpt lat="43.62696511823234" lon="12.662186739798662"><ele>433.6</ele><time>2026-04-25T12:29:49Z</time></trkpt><trkpt lat="43.62688527133797" lon="12.662239608525141"><ele>434.8</ele><time>2026-04-25T12:29:50Z</time></trkpt><trkpt lat="43.62680535904854" lon="12.662274194377051"><ele>436.0</ele><time>2026-04-25T12:29:51Z</time></trkpt><trkpt lat="43.62670081379825" lon="12.66227217998729"><ele>436.0</ele><time>2026-04-25T12:29:52Z</time></trkpt><trkpt lat="43.626612599770546" lon="12.66222183853334"><ele>436.0</ele><time>2026-04-25T12:29:53Z</time></trkpt><trkpt lat="43.62651079096352" lon="12.662164324283632"><ele>436.0</ele><time>2026-04-25T12:29:54Z</time></trkpt><trkpt lat="43.62640306990545" lon="12.66208584630056"><ele>436.0</ele><time>2026-04-25T12:29:55Z</time></trkpt><trkpt lat="43.62628043040372" lon="12.661994623484137"><ele>440.6666666666667</ele><time>2026-04-25T12:29:56Z</time></trkpt><trkpt lat="43.62613395320198" lon="12.661884990983305"><ele>445.33333333333337</ele><time>2026-04-25T12:29:57Z</time></trkpt><trkpt lat="43.625971687168054" lon="12.661780525618378"><ele>450.0</ele><time>2026-04-25T12:29:58Z</time></trkpt><trkpt lat="43.625849516115004" lon="12.661696583755507"><ele>450.0</ele><time>2026-04-25T12:29:59Z</time></trkpt><trkpt lat="43.625763554351856" lon="12.661634658699693"><ele>450.0</ele><time>2026-04-25T12:30:00Z</time></trkpt><trkpt lat="43.625685479864174" lon="12.661578415496296"><ele>450.0</ele><time>2026-04-25T12:30:01Z</time></trkpt><trkpt lat="43.62559487176317" lon="12.661513404696722"><ele>450.0</ele><time>2026-04-25T12:30:02Z</time></trkpt><trkpt lat="43.625494172028155" lon="12.661444910811781"><ele>450.0</ele><time>2026-04-25T12:30:03Z</time></trkpt><trkpt lat="43.625388095137446" lon="12.661375821001899"><ele>450.2</ele><time>2026-04-25T12:30:04Z</time></trkpt><trkpt lat="43.62527561687224" lon="12.66130474281723"><ele>450.4</ele><time>2026-04-25T12:30:05Z</time></trkpt><trkpt lat="43.62517993877839" lon="12.661250164018984"><ele>450.6</ele><time>2026-04-25T12:30:06Z</time></trkpt><trkpt lat="43.62510209020419" lon="12.661209651009779"><ele>450.8</ele><time>2026-04-25T12:30:07Z</time></trkpt><trkpt lat="43.62500193372921" lon="12.661134681488358"><ele>451.0</ele><time>2026-04-25T12:30:09Z</time></trkpt><trkpt lat="43.624956499874344" lon="12.661016167337685"><ele>451.8</ele><time>2026-04-25T12:30:11Z</time></trkpt><trkpt lat="43.62500830078779" lon="12.660873293827946"><ele>452.6</ele><time>2026-04-25T12:30:13Z</time></trkpt><trkpt lat="43.62506433522101" lon="12.660798177966562"><ele>453.4</ele><time>2026-04-25T12:30:14Z</time></trkpt><trkpt lat="43.62513868138472" lon="12.660700389057201"><ele>454.2</ele><time>2026-04-25T12:30:15Z</time></trkpt><trkpt lat="43.62524385478616" lon="12.66058236985406"><ele>455.0</ele><time>2026-04-25T12:30:16Z</time></trkpt><trkpt lat="43.62537815380644" lon="12.660442269620853"><ele>456.3333333333333</ele><time>2026-04-25T12:30:17Z</time></trkpt><trkpt lat="43.62551640307702" lon="12.660291157581133"><ele>457.66666666666663</ele><time>2026-04-25T12:30:18Z</time></trkpt><trkpt lat="43.625640923885335" lon="12.660198783332493"><ele>459.0</ele><time>2026-04-25T12:30:19Z</time></trkpt><trkpt lat="43.62578789945324" lon="12.660118332802169"><ele>459.0</ele><time>2026-04-25T12:30:20Z</time></trkpt><trkpt lat="43.62597204099586" lon="12.660054267827274"><ele>459.0</ele><time>2026-04-25T12:30:21Z</time></trkpt><trkpt lat="43.62615701762933" lon="12.659920855964245"><ele>459.0</ele><time>2026-04-25T12:30:22Z</time></trkpt><trkpt lat="43.62631232761174" lon="12.65977670746581"><ele>461.66666666666663</ele><time>2026-04-25T12:30:23Z</time></trkpt><trkpt lat="43.626453964302364" lon="12.659650727811535"><ele>464.3333333333333</ele><time>2026-04-25T12:30:24Z</time></trkpt><trkpt lat="43.62659952420438" lon="12.659536046717784"><ele>467.0</ele><time>2026-04-25T12:30:25Z</time></trkpt><trkpt lat="43.62673157629134" lon="12.65942325222304"><ele>469.0</ele><time>2026-04-25T12:30:26Z</time></trkpt><trkpt lat="43.62685170356899" lon="12.659320643488702"><ele>471.0</ele><time>2026-04-25T12:30:27Z</time></trkpt><trkpt lat="43.62697175871252" lon="12.659191736518292"><ele>473.0</ele><time>2026-04-25T12:30:28Z</time></trkpt><trkpt lat="43.627103832167315" lon="12.659061949315221"><ele>468.66666666666663</ele><time>2026-04-25T12:30:29Z</time></trkpt><trkpt lat="43.62723828557593" lon="12.658934544182756"><ele>464.33333333333337</ele><time>2026-04-25T12:30:30Z</time></trkpt><trkpt lat="43.62733569693987" lon="12.658772256651353"><ele>460.0</ele><time>2026-04-25T12:30:31Z</time></trkpt><trkpt lat="43.62743721688136" lon="12.6586498564529"><ele>458.8</ele><time>2026-04-25T12:30:32Z</time></trkpt><trkpt lat="43.62753371362529" lon="12.658546713623364"><ele>457.6</ele><time>2026-04-25T12:30:33Z</time></trkpt><trkpt lat="43.62763652715269" lon="12.65846416908557"><ele>456.4</ele><time>2026-04-25T12:30:34Z</time></trkpt><trkpt lat="43.62769704527804" lon="12.65835995644518"><ele>455.2</ele><time>2026-04-25T12:30:35Z</time></trkpt><trkpt lat="43.62778283235594" lon="12.658261681512508"><ele>454.0</ele><time>2026-04-25T12:30:36Z</time></trkpt><trkpt lat="43.6278646928269" lon="12.65811992043472"><ele>454.0</ele><time>2026-04-25T12:30:37Z</time></trkpt><trkpt lat="43.62793883137693" lon="12.657932526635216"><ele>454.0</ele><time>2026-04-25T12:30:38Z</time></trkpt><trkpt lat="43.628037402549324" lon="12.65775856791029"><ele>454.0</ele><time>2026-04-25T12:30:39Z</time></trkpt><trkpt lat="43.62813785205725" lon="12.65757970672836"><ele>456.25</ele><time>2026-04-25T12:30:40Z</time></trkpt><trkpt lat="43.62823848859053" lon="12.657441244145343"><ele>458.5</ele><time>2026-04-25T12:30:41Z</time></trkpt><trkpt lat="43.62830887476558" lon="12.657308862942688"><ele>460.75</ele><time>2026-04-25T12:30:42Z</time></trkpt><trkpt lat="43.62836890707678" lon="12.657165516684827"><ele>463.0</ele><time>2026-04-25T12:30:43Z</time></trkpt><trkpt lat="43.62845292317173" lon="12.65703928300552"><ele>462.75</ele><time>2026-04-25T12:30:44Z</time></trkpt><trkpt lat="43.62850625715553" lon="12.656889154961497"><ele>462.5</ele><time>2026-04-25T12:30:45Z</time></trkpt><trkpt lat="43.628572975514764" lon="12.656770402336743"><ele>462.25</ele><time>2026-04-25T12:30:46Z</time></trkpt><trkpt lat="43.62863147792063" lon="12.656608571078438"><ele>462.0</ele><time>2026-04-25T12:30:47Z</time></trkpt><trkpt lat="43.62868970460911" lon="12.656435017182398"><ele>462.0</ele><time>2026-04-25T12:30:48Z</time></trkpt><trkpt lat="43.62875219163725" lon="12.656244072565023"><ele>462.0</ele><time>2026-04-25T12:30:49Z</time></trkpt><trkpt lat="43.62880718678928" lon="12.656072259032019"><ele>462.0</ele><time>2026-04-25T12:30:50Z</time></trkpt><trkpt lat="43.62885820437051" lon="12.65591398995905"><ele>462.0</ele><time>2026-04-25T12:30:51Z</time></trkpt><trkpt lat="43.62891490674831" lon="12.655745854395013"><ele>463.0</ele><time>2026-04-25T12:30:52Z</time></trkpt><trkpt lat="43.62897600439135" lon="12.655576228916175"><ele>464.0</ele><time>2026-04-25T12:30:53Z</time></trkpt><trkpt lat="43.629033748107084" lon="12.655421743740545"><ele>465.0</ele><time>2026-04-25T12:30:54Z</time></trkpt><trkpt lat="43.6290849907271" lon="12.655276596388402"><ele>466.0</ele><time>2026-04-25T12:30:55Z</time></trkpt><trkpt lat="43.62913196127472" lon="12.65511488708802"><ele>466.5</ele><time>2026-04-25T12:30:56Z</time></trkpt><trkpt lat="43.62917016117303" lon="12.65493372952844"><ele>467.0</ele><time>2026-04-25T12:30:57Z</time></trkpt><trkpt lat="43.62920114232098" lon="12.65476114896813"><ele>467.5</ele><time>2026-04-25T12:30:58Z</time></trkpt><trkpt lat="43.62922245254791" lon="12.654611208391215"><ele>468.0</ele><time>2026-04-25T12:30:59Z</time></trkpt><trkpt lat="43.629235103221" lon="12.654489440180289"><ele>468.2</ele><time>2026-04-25T12:31:00Z</time></trkpt><trkpt lat="43.62923027507903" lon="12.654349175285555"><ele>468.4</ele><time>2026-04-25T12:31:01Z</time></trkpt><trkpt lat="43.62921455170307" lon="12.654205128126614"><ele>468.59999999999997</ele><time>2026-04-25T12:31:02Z</time></trkpt><trkpt lat="43.62921514819599" lon="12.654076769228759"><ele>468.79999999999995</ele><time>2026-04-25T12:31:03Z</time></trkpt><trkpt lat="43.629222534550685" lon="12.653980252673648"><ele>469.0</ele><time>2026-04-25T12:31:04Z</time></trkpt><trkpt lat="43.62928023251613" lon="12.653826595518064"><ele>469.0</ele><time>2026-04-25T12:31:06Z</time></trkpt><trkpt lat="43.62936049051188" lon="12.653821990897184"><ele>469.0</ele><time>2026-04-25T12:31:07Z</time></trkpt><trkpt lat="43.62949415248935" lon="12.653864047530892"><ele>469.0</ele><time>2026-04-25T12:31:09Z</time></trkpt><trkpt lat="43.62959084485642" lon="12.653872186179118"><ele>469.0</ele><time>2026-04-25T12:31:10Z</time></trkpt><trkpt lat="43.62970967555253" lon="12.653878053449244"><ele>469.0</ele><time>2026-04-25T12:31:11Z</time></trkpt><trkpt lat="43.62985006403768" lon="12.65388581714185"><ele>470.33333333333337</ele><time>2026-04-25T12:31:12Z</time></trkpt><trkpt lat="43.630011503824804" lon="12.65388720015517"><ele>471.66666666666663</ele><time>2026-04-25T12:31:13Z</time></trkpt><trkpt lat="43.630197223968125" lon="12.653864767620002"><ele>473.0</ele><time>2026-04-25T12:31:14Z</time></trkpt><trkpt lat="43.63038790897628" lon="12.653802153685946"><ele>473.0</ele><time>2026-04-25T12:31:15Z</time></trkpt><trkpt lat="43.63056394298245" lon="12.653763333699958"><ele>473.0</ele><time>2026-04-25T12:31:16Z</time></trkpt><trkpt lat="43.630704940724414" lon="12.65372419034608"><ele>473.0</ele><time>2026-04-25T12:31:17Z</time></trkpt><trkpt lat="43.6308305826893" lon="12.653728414370567"><ele>473.0</ele><time>2026-04-25T12:31:18Z</time></trkpt><trkpt lat="43.63094695096172" lon="12.653717348291115"><ele>473.0</ele><time>2026-04-25T12:31:19Z</time></trkpt><trkpt lat="43.63104414896363" lon="12.653708105211855"><ele>472.99999999999994</ele><time>2026-04-25T12:31:20Z</time></trkpt><trkpt lat="43.63114043900168" lon="12.653696853377424"><ele>472.99999999999994</ele><time>2026-04-25T12:31:21Z</time></trkpt><trkpt lat="43.63122870981549" lon="12.653685227298562"><ele>473.0</ele><time>2026-04-25T12:31:22Z</time></trkpt><trkpt lat="43.6313199463415" lon="12.65370072161869"><ele>473.0</ele><time>2026-04-25T12:31:23Z</time></trkpt><trkpt lat="43.63141771855244" lon="12.653755285851231"><ele>472.25</ele><time>2026-04-25T12:31:24Z</time></trkpt><trkpt lat="43.63153258833409" lon="12.653831507094264"><ele>471.5</ele><time>2026-04-25T12:31:25Z</time></trkpt><trkpt lat="43.63165785553131" lon="12.653888402188043"><ele>470.75</ele><time>2026-04-25T12:31:26Z</time></trkpt><trkpt lat="43.63178651606847" lon="12.653939892037862"><ele>470.0</ele><time>2026-04-25T12:31:27Z</time></trkpt><trkpt lat="43.631928177161086" lon="12.653987833548067"><ele>473.0</ele><time>2026-04-25T12:31:28Z</time></trkpt><trkpt lat="43.63205515075041" lon="12.654013624182953"><ele>476.0</ele><time>2026-04-25T12:31:29Z</time></trkpt><trkpt lat="43.63216302987016" lon="12.654023068130048"><ele>479.0</ele><time>2026-04-25T12:31:30Z</time></trkpt><trkpt lat="43.63227318709064" lon="12.654013538996251"><ele>482.0</ele><time>2026-04-25T12:31:31Z</time></trkpt><trkpt lat="43.63237225178533" lon="12.653943204702813"><ele>482.0</ele><time>2026-04-25T12:31:32Z</time></trkpt><trkpt lat="43.632468367908594" lon="12.65387807772868"><ele>482.00000000000006</ele><time>2026-04-25T12:31:33Z</time></trkpt><trkpt lat="43.632563759729024" lon="12.653788354092594"><ele>482.00000000000006</ele><time>2026-04-25T12:31:34Z</time></trkpt><trkpt lat="43.63266132981829" lon="12.65370764890192"><ele>482.0</ele><time>2026-04-25T12:31:35Z</time></trkpt><trkpt lat="43.63275987952577" lon="12.653640965008263"><ele>482.0</ele><time>2026-04-25T12:31:36Z</time></trkpt><trkpt lat="43.63285450321665" lon="12.653570850594894"><ele>483.0</ele><time>2026-04-25T12:31:37Z</time></trkpt><trkpt lat="43.632943185721565" lon="12.65351315745686"><ele>484.00000000000006</ele><time>2026-04-25T12:31:38Z</time></trkpt><trkpt lat="43.63304466623812" lon="12.65346885694474"><ele>485.00000000000006</ele><time>2026-04-25T12:31:39Z</time></trkpt><trkpt lat="43.633135936860356" lon="12.65337884435842"><ele>486.0</ele><time>2026-04-25T12:31:40Z</time></trkpt><trkpt lat="43.63320959557074" lon="12.653248342798843"><ele>487.0</ele><time>2026-04-25T12:31:41Z</time></trkpt><trkpt lat="43.63328092526976" lon="12.653125702795716"><ele>487.0</ele><time>2026-04-25T12:31:42Z</time></trkpt><trkpt lat="43.633366881358896" lon="12.652994072119181"><ele>487.0</ele><time>2026-04-25T12:31:43Z</time></trkpt><trkpt lat="43.6334360683252" lon="12.652851165008432"><ele>487.0</ele><time>2026-04-25T12:31:44Z</time></trkpt><trkpt lat="43.63348703554524" lon="12.652716590930524"><ele>487.0</ele><time>2026-04-25T12:31:45Z</time></trkpt><trkpt lat="43.633519472071015" lon="12.65257837926606"><ele>485.83333333333337</ele><time>2026-04-25T12:31:46Z</time></trkpt><trkpt lat="43.63353890785067" lon="12.65243147423001"><ele>484.6666666666667</ele><time>2026-04-25T12:31:47Z</time></trkpt><trkpt lat="43.63354799217307" lon="12.652279969524963"><ele>483.5</ele><time>2026-04-25T12:31:48Z</time></trkpt><trkpt lat="43.63354555539687" lon="12.652156840006372"><ele>482.33333333333337</ele><time>2026-04-25T12:31:49Z</time></trkpt><trkpt lat="43.633550074745976" lon="12.65206239886984"><ele>481.1666666666667</ele><time>2026-04-25T12:31:50Z</time></trkpt><trkpt lat="43.63355915831266" lon="12.651975469024741"><ele>480.0</ele><time>2026-04-25T12:31:51Z</time></trkpt><trkpt lat="43.63360839288435" lon="12.651906842419164"><ele>484.0</ele><time>2026-04-25T12:31:53Z</time></trkpt><trkpt lat="43.63368121132898" lon="12.652001381618634"><ele>488.0</ele><time>2026-04-25T12:31:55Z</time></trkpt><trkpt lat="43.63371270006887" lon="12.652078608475005"><ele>492.0</ele><time>2026-04-25T12:31:56Z</time></trkpt><trkpt lat="43.633741033189644" lon="12.652179301914636"><ele>496.0</ele><time>2026-04-25T12:31:57Z</time></trkpt><trkpt lat="43.633778371785866" lon="12.65230531498436"><ele>500.0</ele><time>2026-04-25T12:31:58Z</time></trkpt><trkpt lat="43.63383586106113" lon="12.652447185316303"><ele>500.0</ele><time>2026-04-25T12:31:59Z</time></trkpt><trkpt lat="43.633904850133995" lon="12.652603565596324"><ele>500.0</ele><time>2026-04-25T12:32:00Z</time></trkpt><trkpt lat="43.63398827229089" lon="12.652790528166468"><ele>500.0</ele><time>2026-04-25T12:32:01Z</time></trkpt><trkpt lat="43.634053036030274" lon="12.65295964280326"><ele>500.0</ele><time>2026-04-25T12:32:02Z</time></trkpt><trkpt lat="43.63413105435841" lon="12.653112772043285"><ele>499.6</ele><time>2026-04-25T12:32:03Z</time></trkpt><trkpt lat="43.63420230124962" lon="12.65322445606359"><ele>499.2</ele><time>2026-04-25T12:32:04Z</time></trkpt><trkpt lat="43.63427345980799" lon="12.653338647808729"><ele>498.79999999999995</ele><time>2026-04-25T12:32:05Z</time></trkpt><trkpt lat="43.63430617859282" lon="12.653430891197733"><ele>498.4</ele><time>2026-04-25T12:32:06Z</time></trkpt><trkpt lat="43.634322915960375" lon="12.653537908134872"><ele>498.0</ele><time>2026-04-25T12:32:07Z</time></trkpt><trkpt lat="43.634276345727976" lon="12.65363769194633"><ele>500.0</ele><time>2026-04-25T12:32:08Z</time></trkpt><trkpt lat="43.63423627711599" lon="12.653743433357674"><ele>501.99999999999994</ele><time>2026-04-25T12:32:09Z</time></trkpt><trkpt lat="43.6341694668292" lon="12.653836180792892"><ele>503.99999999999994</ele><time>2026-04-25T12:32:10Z</time></trkpt><trkpt lat="43.63409425909564" lon="12.653907537440057"><ele>506.0</ele><time>2026-04-25T12:32:11Z</time></trkpt><trkpt lat="43.634002442992404" lon="12.653969281072213"><ele>508.0</ele><time>2026-04-25T12:32:12Z</time></trkpt><trkpt lat="43.63388822293574" lon="12.65402642514602"><ele>508.0</ele><time>2026-04-25T12:32:13Z</time></trkpt><trkpt lat="43.6337798348753" lon="12.654101902177864"><ele>508.0</ele><time>2026-04-25T12:32:14Z</time></trkpt><trkpt lat="43.63367191715642" lon="12.654183410764448"><ele>508.0</ele><time>2026-04-25T12:32:15Z</time></trkpt><trkpt lat="43.633570621839525" lon="12.654274390403293"><ele>508.0</ele><time>2026-04-25T12:32:16Z</time></trkpt><trkpt lat="43.63351152732777" lon="12.654382665788516"><ele>506.42857142857144</ele><time>2026-04-25T12:32:17Z</time></trkpt><trkpt lat="43.63345495529862" lon="12.654460929779992"><ele>504.85714285714283</ele><time>2026-04-25T12:32:18Z</time></trkpt><trkpt lat="43.63342076221692" lon="12.654549525592271"><ele>503.2857142857143</ele><time>2026-04-25T12:32:19Z</time></trkpt><trkpt lat="43.633405891351266" lon="12.654655629161262"><ele>501.7142857142857</ele><time>2026-04-25T12:32:20Z</time></trkpt><trkpt lat="43.63342082475127" lon="12.654751824363379"><ele>500.1428571428571</ele><time>2026-04-25T12:32:21Z</time></trkpt><trkpt lat="43.633468330779195" lon="12.65481114263081"><ele>498.57142857142856</ele><time>2026-04-25T12:32:22Z</time></trkpt><trkpt lat="43.63353146839425" lon="12.654843582691692"><ele>497.0</ele><time>2026-04-25T12:32:23Z</time></trkpt><trkpt lat="43.63360764830003" lon="12.654852285081708"><ele>499.0</ele><time>2026-04-25T12:32:24Z</time></trkpt><trkpt lat="43.63370163076426" lon="12.654832874504491"><ele>501.0</ele><time>2026-04-25T12:32:25Z</time></trkpt><trkpt lat="43.63382123472309" lon="12.654805158434188"><ele>503.0</ele><time>2026-04-25T12:32:26Z</time></trkpt><trkpt lat="43.63396173679107" lon="12.654784182466791"><ele>505.0</ele><time>2026-04-25T12:32:27Z</time></trkpt><trkpt lat="43.63412117592738" lon="12.654766399127318"><ele>505.0</ele><time>2026-04-25T12:32:28Z</time></trkpt><trkpt lat="43.634252547089275" lon="12.654781875960154"><ele>505.0</ele><time>2026-04-25T12:32:29Z</time></trkpt><trkpt lat="43.63440215597674" lon="12.654750259760101"><ele>505.0</ele><time>2026-04-25T12:32:30Z</time></trkpt><trkpt lat="43.63452520640097" lon="12.654714188627308"><ele>505.0</ele><time>2026-04-25T12:32:31Z</time></trkpt><trkpt lat="43.634639989327724" lon="12.65475811057164"><ele>507.25</ele><time>2026-04-25T12:32:32Z</time></trkpt><trkpt lat="43.634754581764845" lon="12.65478825160363"><ele>509.5</ele><time>2026-04-25T12:32:33Z</time></trkpt><trkpt lat="43.63488150332932" lon="12.65482598423712"><ele>511.75</ele><time>2026-04-25T12:32:34Z</time></trkpt><trkpt lat="43.63500991714685" lon="12.654872775535809"><ele>514.0</ele><time>2026-04-25T12:32:35Z</time></trkpt><trkpt lat="43.63514762603955" lon="12.654879323586421"><ele>514.0</ele><time>2026-04-25T12:32:36Z</time></trkpt><trkpt lat="43.63525936077518" lon="12.654859356710979"><ele>514.0</ele><time>2026-04-25T12:32:37Z</time></trkpt><trkpt lat="43.635361984682575" lon="12.654862244097599"><ele>514.0</ele><time>2026-04-25T12:32:38Z</time></trkpt><trkpt lat="43.63546829996337" lon="12.654851960314632"><ele>514.0</ele><time>2026-04-25T12:32:39Z</time></trkpt><trkpt lat="43.63554926841271" lon="12.65482693046679"><ele>514.0</ele><time>2026-04-25T12:32:40Z</time></trkpt><trkpt lat="43.63562495514342" lon="12.65481547943451"><ele>513.6</ele><time>2026-04-25T12:32:41Z</time></trkpt><trkpt lat="43.635691527630236" lon="12.654829629151438"><ele>513.2</ele><time>2026-04-25T12:32:42Z</time></trkpt><trkpt lat="43.63575601625117" lon="12.65487528351028"><ele>512.8000000000001</ele><time>2026-04-25T12:32:43Z</time></trkpt><trkpt lat="43.63580117078999" lon="12.654985534511264"><ele>512.4</ele><time>2026-04-25T12:32:44Z</time></trkpt><trkpt lat="43.63590008898175" lon="12.655090033445703"><ele>512.0</ele><time>2026-04-25T12:32:45Z</time></trkpt><trkpt lat="43.63599707108613" lon="12.655178584448295"><ele>512.0</ele><time>2026-04-25T12:32:46Z</time></trkpt><trkpt lat="43.63608882163615" lon="12.655239454008482"><ele>512.0</ele><time>2026-04-25T12:32:47Z</time></trkpt><trkpt lat="43.63618481054448" lon="12.655270810786831"><ele>512.0</ele><time>2026-04-25T12:32:48Z</time></trkpt><trkpt lat="43.636267964833955" lon="12.65531980299356"><ele>512.0</ele><time>2026-04-25T12:32:49Z</time></trkpt><trkpt lat="43.63634831608363" lon="12.655363754373148"><ele>512.0</ele><time>2026-04-25T12:32:50Z</time></trkpt><trkpt lat="43.63642588059336" lon="12.65539339155208"><ele>514.25</ele><time>2026-04-25T12:32:51Z</time></trkpt><trkpt lat="43.63657667347728" lon="12.655393531314402"><ele>516.5</ele><time>2026-04-25T12:32:53Z</time></trkpt><trkpt lat="43.636691714928645" lon="12.65535067963523"><ele>518.75</ele><time>2026-04-25T12:32:54Z</time></trkpt><trkpt lat="43.636798025951414" lon="12.65529171355176"><ele>521.0</ele><time>2026-04-25T12:32:55Z</time></trkpt><trkpt lat="43.63689659550773" lon="12.6552427093328"><ele>521.6</ele><time>2026-04-25T12:32:56Z</time></trkpt><trkpt lat="43.636996271333" lon="12.655221229541674"><ele>522.2</ele><time>2026-04-25T12:32:57Z</time></trkpt><trkpt lat="43.63708006627991" lon="12.65524590730394"><ele>522.8</ele><time>2026-04-25T12:32:58Z</time></trkpt><trkpt lat="43.63720704100713" lon="12.655270199737013"><ele>523.4</ele><time>2026-04-25T12:32:59Z</time></trkpt><trkpt lat="43.637327241034434" lon="12.655300563270005"><ele>524.0</ele><time>2026-04-25T12:33:00Z</time></trkpt><trkpt lat="43.63739878396707" lon="12.655294444958018"><ele>524.0</ele><time>2026-04-25T12:33:01Z</time></trkpt><trkpt lat="43.63746667076509" lon="12.655308309452751"><ele>524.0</ele><time>2026-04-25T12:33:02Z</time></trkpt><trkpt lat="43.63758725550108" lon="12.655243262546"><ele>524.0</ele><time>2026-04-25T12:33:04Z</time></trkpt><trkpt lat="43.63766424930101" lon="12.655205545462035"><ele>524.0</ele><time>2026-04-25T12:33:05Z</time></trkpt><trkpt lat="43.637769554479945" lon="12.655145717566894"><ele>524.0</ele><time>2026-04-25T12:33:06Z</time></trkpt><trkpt lat="43.63787733640208" lon="12.65508560567964"><ele>521.0</ele><time>2026-04-25T12:33:07Z</time></trkpt><trkpt lat="43.6379942893837" lon="12.655017850524118"><ele>518.0</ele><time>2026-04-25T12:33:08Z</time></trkpt><trkpt lat="43.6381051514548" lon="12.654949660736534"><ele>515.0</ele><time>2026-04-25T12:33:09Z</time></trkpt><trkpt lat="43.63819784548489" lon="12.654887490457314"><ele>512.0</ele><time>2026-04-25T12:33:10Z</time></trkpt><trkpt lat="43.63826860551721" lon="12.654832923920964"><ele>509.0</ele><time>2026-04-25T12:33:11Z</time></trkpt><trkpt lat="43.63832473887089" lon="12.654787162182163"><ele>509.0</ele><time>2026-04-25T12:33:12Z</time></trkpt><trkpt lat="43.63840056546595" lon="12.654715264915717"><ele>509.0</ele><time>2026-04-25T12:33:13Z</time></trkpt><trkpt lat="43.63848296492413" lon="12.654620555663499"><ele>509.0</ele><time>2026-04-25T12:33:14Z</time></trkpt><trkpt lat="43.63855235824985" lon="12.654541522586644"><ele>509.0</ele><time>2026-04-25T12:33:15Z</time></trkpt><trkpt lat="43.638624012089394" lon="12.654477963370589"><ele>509.0</ele><time>2026-04-25T12:33:16Z</time></trkpt><trkpt lat="43.638711841036574" lon="12.654407208889088"><ele>505.25</ele><time>2026-04-25T12:33:17Z</time></trkpt><trkpt lat="43.63882597400647" lon="12.654345038800791"><ele>501.5</ele><time>2026-04-25T12:33:18Z</time></trkpt><trkpt lat="43.638948032287175" lon="12.654303582450556"><ele>497.75</ele><time>2026-04-25T12:33:19Z</time></trkpt><trkpt lat="43.6390659484644" lon="12.654275731965814"><ele>494.0</ele><time>2026-04-25T12:33:20Z</time></trkpt><trkpt lat="43.639156845156414" lon="12.654256542420573"><ele>494.0</ele><time>2026-04-25T12:33:21Z</time></trkpt><trkpt lat="43.63928364693478" lon="12.654231496371764"><ele>494.0</ele><time>2026-04-25T12:33:22Z</time></trkpt><trkpt lat="43.639402385200135" lon="12.654208043023038"><ele>494.0</ele><time>2026-04-25T12:33:23Z</time></trkpt><trkpt lat="43.63952173712453" lon="12.654184470113123"><ele>494.0</ele><time>2026-04-25T12:33:24Z</time></trkpt><trkpt lat="43.639650888081874" lon="12.654171285313389"><ele>495.25</ele><time>2026-04-25T12:33:25Z</time></trkpt><trkpt lat="43.6397644281623" lon="12.654180627717663"><ele>496.5</ele><time>2026-04-25T12:33:26Z</time></trkpt><trkpt lat="43.63989711882657" lon="12.654205028151376"><ele>497.75</ele><time>2026-04-25T12:33:27Z</time></trkpt><trkpt lat="43.64001164743969" lon="12.654216815629777"><ele>499.0</ele><time>2026-04-25T12:33:28Z</time></trkpt><trkpt lat="43.640120250436645" lon="12.654189820149584"><ele>499.0</ele><time>2026-04-25T12:33:29Z</time></trkpt><trkpt lat="43.64022796528165" lon="12.654169963037688"><ele>499.0</ele><time>2026-04-25T12:33:30Z</time></trkpt><trkpt lat="43.64034513961073" lon="12.654134621814897"><ele>499.0</ele><time>2026-04-25T12:33:31Z</time></trkpt><trkpt lat="43.640463217493334" lon="12.654099582237984"><ele>499.0</ele><time>2026-04-25T12:33:32Z</time></trkpt><trkpt lat="43.64058874651217" lon="12.654064936688107"><ele>499.6</ele><time>2026-04-25T12:33:33Z</time></trkpt><trkpt lat="43.64071228902974" lon="12.654026457945351"><ele>500.2</ele><time>2026-04-25T12:33:34Z</time></trkpt><trkpt lat="43.64083136953243" lon="12.653988168363805"><ele>500.80000000000007</ele><time>2026-04-25T12:33:35Z</time></trkpt><trkpt lat="43.64094201202605" lon="12.653990245212794"><ele>501.40000000000003</ele><time>2026-04-25T12:33:36Z</time></trkpt><trkpt lat="43.641019164523584" lon="12.653984663671974"><ele>502.0</ele><time>2026-04-25T12:33:37Z</time></trkpt><trkpt lat="43.64108421877573" lon="12.653987106241855"><ele>502.00000000000006</ele><time>2026-04-25T12:33:38Z</time></trkpt><trkpt lat="43.6411215407561" lon="12.654061229764554"><ele>502.0</ele><time>2026-04-25T12:33:39Z</time></trkpt><trkpt lat="43.641152863071" lon="12.65414011346424"><ele>502.0</ele><time>2026-04-25T12:33:40Z</time></trkpt><trkpt lat="43.641105531551375" lon="12.654232346892048"><ele>502.0</ele><time>2026-04-25T12:33:41Z</time></trkpt><trkpt lat="43.64104786189175" lon="12.654273956546032"><ele>502.00000000000006</ele><time>2026-04-25T12:33:42Z</time></trkpt><trkpt lat="43.64100632267716" lon="12.65440283604567"><ele>502.0</ele><time>2026-04-25T12:33:43Z</time></trkpt><trkpt lat="43.640969884090225" lon="12.654566788401642"><ele>501.6666666666667</ele><time>2026-04-25T12:33:44Z</time></trkpt><trkpt lat="43.64088515137466" lon="12.65474093251955"><ele>501.33333333333337</ele><time>2026-04-25T12:33:45Z</time></trkpt><trkpt lat="43.64084321159374" lon="12.65492472096003"><ele>501.0</ele><time>2026-04-25T12:33:46Z</time></trkpt><trkpt lat="43.64079551813529" lon="12.655180127248702"><ele>500.0</ele><time>2026-04-25T12:33:47Z</time></trkpt><trkpt lat="43.64075120232322" lon="12.655396640061452"><ele>499.0</ele><time>2026-04-25T12:33:48Z</time></trkpt><trkpt lat="43.640693308789835" lon="12.655552991152126"><ele>498.0</ele><time>2026-04-25T12:33:49Z</time></trkpt><trkpt lat="43.640712250859444" lon="12.655709670064887"><ele>497.0</ele><time>2026-04-25T12:33:50Z</time></trkpt><trkpt lat="43.640761893716444" lon="12.655861989030585"><ele>497.0</ele><time>2026-04-25T12:33:51Z</time></trkpt><trkpt lat="43.64078027900589" lon="12.655997529668074"><ele>497.00000000000006</ele><time>2026-04-25T12:33:52Z</time></trkpt><trkpt lat="43.640769100887084" lon="12.656158799561146"><ele>497.00000000000006</ele><time>2026-04-25T12:33:53Z</time></trkpt><trkpt lat="43.6407393288628" lon="12.656303832602346"><ele>497.0</ele><time>2026-04-25T12:33:54Z</time></trkpt><trkpt lat="43.640695321512105" lon="12.656424400132963"><ele>497.0</ele><time>2026-04-25T12:33:55Z</time></trkpt><trkpt lat="43.64065509896623" lon="12.656503382390543"><ele>494.99999999999994</ele><time>2026-04-25T12:33:56Z</time></trkpt><trkpt lat="43.640602264981894" lon="12.656557472887446"><ele>493.0</ele><time>2026-04-25T12:33:57Z</time></trkpt><trkpt lat="43.64051022320729" lon="12.65659809904589"><ele>491.0</ele><time>2026-04-25T12:33:58Z</time></trkpt><trkpt lat="43.64043698843749" lon="12.65665470179649"><ele>489.0</ele><time>2026-04-25T12:33:59Z</time></trkpt><trkpt lat="43.64038762134147" lon="12.656735314872806"><ele>486.99999999999994</ele><time>2026-04-25T12:34:00Z</time></trkpt><trkpt lat="43.64039158564294" lon="12.65687984098385"><ele>485.0</ele><time>2026-04-25T12:34:01Z</time></trkpt><trkpt lat="43.64039651928485" lon="12.657015265008974"><ele>483.0</ele><time>2026-04-25T12:34:02Z</time></trkpt><trkpt lat="43.64041094362733" lon="12.657167593553623"><ele>481.0</ele><time>2026-04-25T12:34:03Z</time></trkpt><trkpt lat="43.64041000448839" lon="12.657326205463374"><ele>479.0</ele><time>2026-04-25T12:34:04.001Z</time></trkpt><trkpt lat="43.64040530046973" lon="12.657476646934871"><ele>477.0</ele><time>2026-04-25T12:34:05Z</time></trkpt><trkpt lat="43.64040169101583" lon="12.657617915864932"><ele>475.0</ele><time>2026-04-25T12:34:06Z</time></trkpt><trkpt lat="43.64039475354957" lon="12.657753391493348"><ele>473.8</ele><time>2026-04-25T12:34:07Z</time></trkpt><trkpt lat="43.64038480644923" lon="12.657896346688444"><ele>472.6</ele><time>2026-04-25T12:34:08Z</time></trkpt><trkpt lat="43.64038367862747" lon="12.658042209961987"><ele>471.4</ele><time>2026-04-25T12:34:09Z</time></trkpt><trkpt lat="43.64040457090592" lon="12.658185778058062"><ele>470.2</ele><time>2026-04-25T12:34:10Z</time></trkpt><trkpt lat="43.64042141549572" lon="12.658322901581043"><ele>469.0</ele><time>2026-04-25T12:34:11Z</time></trkpt><trkpt lat="43.6404407272523" lon="12.658454705204765"><ele>469.00000000000006</ele><time>2026-04-25T12:34:12Z</time></trkpt><trkpt lat="43.640456231739016" lon="12.658578983144395"><ele>469.0</ele><time>2026-04-25T12:34:13Z</time></trkpt><trkpt lat="43.64047008503125" lon="12.658695024306454"><ele>469.0</ele><time>2026-04-25T12:34:14Z</time></trkpt><trkpt lat="43.64048121419432" lon="12.658811975837967"><ele>469.0</ele><time>2026-04-25T12:34:15Z</time></trkpt><trkpt lat="43.64049310739489" lon="12.658924141880483"><ele>469.00000000000006</ele><time>2026-04-25T12:34:16Z</time></trkpt><trkpt lat="43.64051235583093" lon="12.659029918628113"><ele>469.0</ele><time>2026-04-25T12:34:17Z</time></trkpt><trkpt lat="43.64053492883123" lon="12.65915325413361"><ele>468.6</ele><time>2026-04-25T12:34:18Z</time></trkpt><trkpt lat="43.64056244473175" lon="12.65926728957543"><ele>468.2</ele><time>2026-04-25T12:34:19Z</time></trkpt><trkpt lat="43.64058743520662" lon="12.659362970004045"><ele>467.80000000000007</ele><time>2026-04-25T12:34:20Z</time></trkpt><trkpt lat="43.640609953035536" lon="12.65950422331079"><ele>467.40000000000003</ele><time>2026-04-25T12:34:22Z</time></trkpt><trkpt lat="43.640687560250115" lon="12.659588918042061"><ele>467.0</ele><time>2026-04-25T12:35:31Z</time></trkpt><trkpt lat="43.64076244556256" lon="12.659673673148653"><ele>466.8333333333333</ele><time>2026-04-25T12:35:33Z</time></trkpt><trkpt lat="43.64083521625259" lon="12.659742250983149"><ele>466.66666666666663</ele><time>2026-04-25T12:35:35Z</time></trkpt><trkpt lat="43.64090924314433" lon="12.659800254470186"><ele>466.5</ele><time>2026-04-25T12:35:37Z</time></trkpt><trkpt lat="43.640983941793166" lon="12.659832112819453"><ele>466.33333333333337</ele><time>2026-04-25T12:35:39Z</time></trkpt><trkpt lat="43.641055137354215" lon="12.659871370161516"><ele>466.1666666666667</ele><time>2026-04-25T12:35:41Z</time></trkpt><trkpt lat="43.64116532301794" lon="12.659909572818622"><ele>466.0</ele><time>2026-04-25T12:35:43Z</time></trkpt><trkpt lat="43.64122804156612" lon="12.65992356856124"><ele>466.8571428571429</ele><time>2026-04-25T12:35:44Z</time></trkpt><trkpt lat="43.641294200258024" lon="12.65993926912202"><ele>467.71428571428567</ele><time>2026-04-25T12:35:45Z</time></trkpt><trkpt lat="43.64136375204506" lon="12.659966347963536"><ele>468.57142857142856</ele><time>2026-04-25T12:35:46Z</time></trkpt><trkpt lat="43.64143147929861" lon="12.660000671521919"><ele>469.42857142857144</ele><time>2026-04-25T12:35:47Z</time></trkpt><trkpt lat="43.64149723476131" lon="12.66004083018802"><ele>470.28571428571433</ele><time>2026-04-25T12:35:48Z</time></trkpt><trkpt lat="43.6415608506399" lon="12.660078493470396"><ele>471.1428571428571</ele><time>2026-04-25T12:35:49Z</time></trkpt><trkpt lat="43.641624722556564" lon="12.66011410770605"><ele>472.0</ele><time>2026-04-25T12:35:50Z</time></trkpt><trkpt lat="43.64168667440486" lon="12.66015187116205"><ele>472.00000000000006</ele><time>2026-04-25T12:35:51Z</time></trkpt><trkpt lat="43.641754868761005" lon="12.660193119260287"><ele>472.0</ele><time>2026-04-25T12:35:52Z</time></trkpt><trkpt lat="43.641832748016455" lon="12.660234923234615"><ele>472.0</ele><time>2026-04-25T12:35:53Z</time></trkpt><trkpt lat="43.641922693158335" lon="12.660266238522205"><ele>472.0</ele><time>2026-04-25T12:35:54Z</time></trkpt><trkpt lat="43.642012042382134" lon="12.660274225482997"><ele>472.00000000000006</ele><time>2026-04-25T12:35:55Z</time></trkpt><trkpt lat="43.642112794383564" lon="12.660281012861478"><ele>472.0</ele><time>2026-04-25T12:35:56Z</time></trkpt><trkpt lat="43.64222050779972" lon="12.660296272237401"><ele>472.6666666666667</ele><time>2026-04-25T12:35:57Z</time></trkpt><trkpt lat="43.64231561657863" lon="12.660315828534237"><ele>473.33333333333337</ele><time>2026-04-25T12:35:58Z</time></trkpt><trkpt lat="43.64240104755471" lon="12.660330583728483"><ele>474.0</ele><time>2026-04-25T12:35:59Z</time></trkpt><trkpt lat="43.642482742349685" lon="12.660325326395464"><ele>474.66666666666663</ele><time>2026-04-25T12:36:00Z</time></trkpt><trkpt lat="43.642552595358666" lon="12.660318694364484"><ele>475.3333333333333</ele><time>2026-04-25T12:36:01Z</time></trkpt><trkpt lat="43.64261992830917" lon="12.660297081508421"><ele>476.0</ele><time>2026-04-25T12:36:02Z</time></trkpt><trkpt lat="43.642689079142386" lon="12.660246324009542"><ele>475.99999999999994</ele><time>2026-04-25T12:36:03Z</time></trkpt><trkpt lat="43.642756866275036" lon="12.660177757926592"><ele>476.0</ele><time>2026-04-25T12:36:04Z</time></trkpt><trkpt lat="43.642824704546996" lon="12.660115160981936"><ele>476.0</ele><time>2026-04-25T12:36:05Z</time></trkpt><trkpt lat="43.64289260578597" lon="12.660059086514112"><ele>476.0</ele><time>2026-04-25T12:36:06Z</time></trkpt><trkpt lat="43.64297329672179" lon="12.660005530975244"><ele>475.99999999999994</ele><time>2026-04-25T12:36:07Z</time></trkpt><trkpt lat="43.643074252709724" lon="12.659992845903526"><ele>476.0</ele><time>2026-04-25T12:36:08Z</time></trkpt><trkpt lat="43.643159814313684" lon="12.659946214513937"><ele>476.8333333333333</ele><time>2026-04-25T12:36:09Z</time></trkpt><trkpt lat="43.643240366717855" lon="12.659886483357532"><ele>477.66666666666663</ele><time>2026-04-25T12:36:10Z</time></trkpt><trkpt lat="43.64332138003282" lon="12.659817916552155"><ele>478.5</ele><time>2026-04-25T12:36:11Z</time></trkpt><trkpt lat="43.64340274259643" lon="12.65978257997234"><ele>479.33333333333337</ele><time>2026-04-25T12:36:12Z</time></trkpt><trkpt lat="43.64348197468476" lon="12.659759287378618"><ele>480.1666666666667</ele><time>2026-04-25T12:36:13Z</time></trkpt><trkpt lat="43.64356399031028" lon="12.659778243030866"><ele>481.0</ele><time>2026-04-25T12:36:14Z</time></trkpt><trkpt lat="43.64364267622398" lon="12.659811540697978"><ele>481.00000000000006</ele><time>2026-04-25T12:36:15Z</time></trkpt><trkpt lat="43.64373010838962" lon="12.659854281236944"><ele>481.0</ele><time>2026-04-25T12:36:16Z</time></trkpt><trkpt lat="43.643817212056476" lon="12.659903773251237"><ele>481.0</ele><time>2026-04-25T12:36:17Z</time></trkpt><trkpt lat="43.64390361269343" lon="12.659923664250245"><ele>481.0</ele><time>2026-04-25T12:36:18Z</time></trkpt><trkpt lat="43.643982264908246" lon="12.659901217594191"><ele>481.00000000000006</ele><time>2026-04-25T12:36:19Z</time></trkpt><trkpt lat="43.64404614566445" lon="12.659882230952508"><ele>481.0</ele><time>2026-04-25T12:36:20Z</time></trkpt><trkpt lat="43.64413632564318" lon="12.659787007735916"><ele>481.00000000000006</ele><time>2026-04-25T12:36:22Z</time></trkpt><trkpt lat="43.64423801160108" lon="12.659699004425692"><ele>481.0</ele><time>2026-04-25T12:36:24Z</time></trkpt><trkpt lat="43.64432014045038" lon="12.659606879529994"><ele>481.0</ele><time>2026-04-25T12:36:26Z</time></trkpt><trkpt lat="43.64438359634261" lon="12.659568044257732"><ele>481.0</ele><time>2026-04-25T12:36:27Z</time></trkpt><trkpt lat="43.64445162396449" lon="12.65953752163853"><ele>481.00000000000006</ele><time>2026-04-25T12:36:28Z</time></trkpt><trkpt lat="43.64452436046255" lon="12.659543966436418"><ele>481.0</ele><time>2026-04-25T12:36:29Z</time></trkpt><trkpt lat="43.64463222356771" lon="12.65957527252444"><ele>480.20000000000005</ele><time>2026-04-25T12:36:31Z</time></trkpt><trkpt lat="43.64471161226697" lon="12.65970225173663"><ele>479.40000000000003</ele><time>2026-04-25T12:36:33Z</time></trkpt><trkpt lat="43.64475545862877" lon="12.659814046535752"><ele>478.6</ele><time>2026-04-25T12:36:34Z</time></trkpt><trkpt lat="43.64478817355248" lon="12.65993830659511"><ele>477.8</ele><time>2026-04-25T12:36:35Z</time></trkpt><trkpt lat="43.644823353748635" lon="12.660055859660416"><ele>477.0</ele><time>2026-04-25T12:36:36Z</time></trkpt><trkpt lat="43.6448545487207" lon="12.660157304495199"><ele>477.0</ele><time>2026-04-25T12:36:37Z</time></trkpt><trkpt lat="43.644883205300225" lon="12.660248279441214"><ele>477.0</ele><time>2026-04-25T12:36:38Z</time></trkpt><trkpt lat="43.64492814112405" lon="12.660315455701037"><ele>477.0</ele><time>2026-04-25T12:36:39Z</time></trkpt><trkpt lat="43.6449941087649" lon="12.660431848283917"><ele>477.0</ele><time>2026-04-25T12:36:41Z</time></trkpt><trkpt lat="43.6450594750202" lon="12.660435621822165"><ele>477.0</ele><time>2026-04-25T12:36:42Z</time></trkpt><trkpt lat="43.6451685762508" lon="12.660369183001652"><ele>477.0</ele><time>2026-04-25T12:36:44Z</time></trkpt><trkpt lat="43.64523236078689" lon="12.660366956190053"><ele>477.1428571428571</ele><time>2026-04-25T12:36:45Z</time></trkpt><trkpt lat="43.64527663249375" lon="12.66030258546548"><ele>477.2857142857142</ele><time>2026-04-25T12:36:46Z</time></trkpt><trkpt lat="43.645304184462965" lon="12.660219618956635"><ele>477.42857142857144</ele><time>2026-04-25T12:36:47Z</time></trkpt><trkpt lat="43.64534307358949" lon="12.660144524391463"><ele>477.57142857142856</ele><time>2026-04-25T12:36:48Z</time></trkpt><trkpt lat="43.64539725561242" lon="12.660072030114154"><ele>477.7142857142857</ele><time>2026-04-25T12:36:49Z</time></trkpt><trkpt lat="43.645435645610604" lon="12.659971190287996"><ele>477.8571428571429</ele><time>2026-04-25T12:36:50Z</time></trkpt><trkpt lat="43.64545848000862" lon="12.65985066042883"><ele>478.00000000000006</ele><time>2026-04-25T12:36:51Z</time></trkpt><trkpt lat="43.64551341630456" lon="12.659718384963037"><ele>477.0</ele><time>2026-04-25T12:36:52Z</time></trkpt><trkpt lat="43.64556314197005" lon="12.659579858835079"><ele>475.99999999999994</ele><time>2026-04-25T12:36:53Z</time></trkpt><trkpt lat="43.64561384148396" lon="12.659466137772691"><ele>474.99999999999994</ele><time>2026-04-25T12:36:54Z</time></trkpt><trkpt lat="43.64565512303188" lon="12.659364310109442"><ele>474.0</ele><time>2026-04-25T12:36:55Z</time></trkpt><trkpt lat="43.64570350945854" lon="12.65927850930924"><ele>473.0</ele><time>2026-04-25T12:36:56Z</time></trkpt><trkpt lat="43.64575568183721" lon="12.659198056679022"><ele>472.99999999999994</ele><time>2026-04-25T12:36:57Z</time></trkpt><trkpt lat="43.64581132681922" lon="12.659141149377449"><ele>473.0</ele><time>2026-04-25T12:36:58Z</time></trkpt><trkpt lat="43.64587095394782" lon="12.659089227340019"><ele>473.0</ele><time>2026-04-25T12:36:59Z</time></trkpt><trkpt lat="43.645943646992144" lon="12.659072706544189"><ele>473.0</ele><time>2026-04-25T12:37:00Z</time></trkpt><trkpt lat="43.64602756569706" lon="12.659028604137108"><ele>472.99999999999994</ele><time>2026-04-25T12:37:01Z</time></trkpt><trkpt lat="43.64611172899" lon="12.658976167652659"><ele>473.0</ele><time>2026-04-25T12:37:02Z</time></trkpt><trkpt lat="43.64618728845773" lon="12.658906655164522"><ele>472.8333333333333</ele><time>2026-04-25T12:37:03Z</time></trkpt><trkpt lat="43.64625803185291" lon="12.658856131619244"><ele>472.66666666666663</ele><time>2026-04-25T12:37:04Z</time></trkpt><trkpt lat="43.6463186563397" lon="12.658796335558383"><ele>472.5</ele><time>2026-04-25T12:37:05Z</time></trkpt><trkpt lat="43.64640064777214" lon="12.65870770681614"><ele>472.33333333333337</ele><time>2026-04-25T12:37:07Z</time></trkpt><trkpt lat="43.64646177247856" lon="12.658608594530467"><ele>472.1666666666667</ele><time>2026-04-25T12:37:29Z</time></trkpt><trkpt lat="43.646525419189764" lon="12.658520276503154"><ele>472.0</ele><time>2026-04-25T12:37:30Z</time></trkpt><trkpt lat="43.64658428211682" lon="12.658409852712216"><ele>472.0</ele><time>2026-04-25T12:37:31Z</time></trkpt><trkpt lat="43.64662347767623" lon="12.658313469777625"><ele>472.00000000000006</ele><time>2026-04-25T12:37:32Z</time></trkpt><trkpt lat="43.64665996746916" lon="12.65819469322302"><ele>472.00000000000006</ele><time>2026-04-25T12:37:33Z</time></trkpt><trkpt lat="43.64669222545061" lon="12.65804042760018"><ele>472.0</ele><time>2026-04-25T12:37:34Z</time></trkpt><trkpt lat="43.64672395475489" lon="12.657902689288159"><ele>472.0</ele><time>2026-04-25T12:37:35Z</time></trkpt><trkpt lat="43.64676240578415" lon="12.657793252802676"><ele>473.20000000000005</ele><time>2026-04-25T12:37:36Z</time></trkpt><trkpt lat="43.646814050307036" lon="12.657695226656895"><ele>474.40000000000003</ele><time>2026-04-25T12:37:37Z</time></trkpt><trkpt lat="43.64688475224639" lon="12.65759253988926"><ele>475.59999999999997</ele><time>2026-04-25T12:37:38Z</time></trkpt><trkpt lat="43.646955192322544" lon="12.657480945745663"><ele>476.79999999999995</ele><time>2026-04-25T12:37:39Z</time></trkpt><trkpt lat="43.647026690843724" lon="12.657366850999685"><ele>478.0</ele><time>2026-04-25T12:37:40Z</time></trkpt><trkpt lat="43.647094010161666" lon="12.657256306988588"><ele>478.0</ele><time>2026-04-25T12:37:41Z</time></trkpt><trkpt lat="43.64717230852996" lon="12.657198231895974"><ele>478.0</ele><time>2026-04-25T12:37:42Z</time></trkpt><trkpt lat="43.64726751356075" lon="12.657150646215824"><ele>478.0</ele><time>2026-04-25T12:37:44Z</time></trkpt><trkpt lat="43.64744234939216" lon="12.657173571077216"><ele>478.0</ele><time>2026-04-25T12:37:46Z</time></trkpt><trkpt lat="43.64755588285943" lon="12.65715767938178"><ele>478.0</ele><time>2026-04-25T12:37:47Z</time></trkpt><trkpt lat="43.64770369156972" lon="12.657111117447696"><ele>478.0</ele><time>2026-04-25T12:37:48Z</time></trkpt><trkpt lat="43.6478608849541" lon="12.657061297987843"><ele>478.0</ele><time>2026-04-25T12:37:49Z</time></trkpt><trkpt lat="43.64803035565029" lon="12.65694688273478"><ele>474.5</ele><time>2026-04-25T12:37:50Z</time></trkpt><trkpt lat="43.648175882299746" lon="12.656832058603548"><ele>471.0</ele><time>2026-04-25T12:37:51Z</time></trkpt><trkpt lat="43.64828520314928" lon="12.65672642983975"><ele>467.5</ele><time>2026-04-25T12:37:52Z</time></trkpt><trkpt lat="43.648401365239316" lon="12.656625611731187"><ele>464.0</ele><time>2026-04-25T12:37:53Z</time></trkpt><trkpt lat="43.648540362713504" lon="12.656512251538484"><ele>466.6</ele><time>2026-04-25T12:37:54Z</time></trkpt><trkpt lat="43.64866982678288" lon="12.656404415258061"><ele>469.2</ele><time>2026-04-25T12:37:55Z</time></trkpt><trkpt lat="43.6487664313404" lon="12.656334069880312"><ele>471.80000000000007</ele><time>2026-04-25T12:37:56Z</time></trkpt><trkpt lat="43.648851644018215" lon="12.656294973810114"><ele>474.40000000000003</ele><time>2026-04-25T12:37:57Z</time></trkpt><trkpt lat="43.64893038926888" lon="12.65628487997216"><ele>477.0</ele><time>2026-04-25T12:37:58Z</time></trkpt><trkpt lat="43.649030906179846" lon="12.65629294164009"><ele>477.0</ele><time>2026-04-25T12:37:59Z</time></trkpt><trkpt lat="43.649164424437544" lon="12.656296616276123"><ele>477.0</ele><time>2026-04-25T12:38:00Z</time></trkpt><trkpt lat="43.64932866617634" lon="12.656290252401371"><ele>477.0</ele><time>2026-04-25T12:38:01Z</time></trkpt><trkpt lat="43.649465149430284" lon="12.6562756028646"><ele>477.0</ele><time>2026-04-25T12:38:02Z</time></trkpt><trkpt lat="43.649593466953164" lon="12.65624029212021"><ele>473.5</ele><time>2026-04-25T12:38:03Z</time></trkpt><trkpt lat="43.64971353217063" lon="12.656193683404194"><ele>470.0</ele><time>2026-04-25T12:38:04Z</time></trkpt><trkpt lat="43.64982862192199" lon="12.656144526468784"><ele>466.5</ele><time>2026-04-25T12:38:05Z</time></trkpt><trkpt lat="43.650019791201274" lon="12.656059154549558"><ele>463.0</ele><time>2026-04-25T12:38:06Z</time></trkpt><trkpt lat="43.65014920866955" lon="12.656011562807393"><ele>461.33333333333337</ele><time>2026-04-25T12:38:07Z</time></trkpt><trkpt lat="43.650239645837466" lon="12.655962468148223"><ele>459.6666666666667</ele><time>2026-04-25T12:38:08Z</time></trkpt><trkpt lat="43.650299193255584" lon="12.655928145254771"><ele>458.0</ele><time>2026-04-25T12:38:09Z</time></trkpt><trkpt lat="43.650368455378356" lon="12.655901660208814"><ele>456.33333333333337</ele><time>2026-04-25T12:38:11Z</time></trkpt><trkpt lat="43.65039161347075" lon="12.655818826040152"><ele>454.6666666666667</ele><time>2026-04-25T12:38:12Z</time></trkpt><trkpt lat="43.65038850178067" lon="12.655715034013795"><ele>453.0</ele><time>2026-04-25T12:38:13Z</time></trkpt><trkpt lat="43.65040239091564" lon="12.655556890824283"><ele>452.25</ele><time>2026-04-25T12:38:14Z</time></trkpt><trkpt lat="43.65044746408038" lon="12.655438443202751"><ele>451.5</ele><time>2026-04-25T12:38:15Z</time></trkpt><trkpt lat="43.650513318717536" lon="12.655337090972836"><ele>450.75</ele><time>2026-04-25T12:38:16Z</time></trkpt><trkpt lat="43.65061789471694" lon="12.655215613956234"><ele>450.0</ele><time>2026-04-25T12:38:17Z</time></trkpt><trkpt lat="43.65071641340674" lon="12.655082504677383"><ele>450.0</ele><time>2026-04-25T12:38:18Z</time></trkpt><trkpt lat="43.65080012736707" lon="12.65488325198062"><ele>450.0</ele><time>2026-04-25T12:38:19Z</time></trkpt><trkpt lat="43.65087907794965" lon="12.654667526466902"><ele>450.0</ele><time>2026-04-25T12:38:20Z</time></trkpt><trkpt lat="43.65098309898261" lon="12.65440313402385"><ele>447.0</ele><time>2026-04-25T12:38:21Z</time></trkpt><trkpt lat="43.651044256889165" lon="12.654161303072387"><ele>444.0</ele><time>2026-04-25T12:38:22Z</time></trkpt><trkpt lat="43.651121352290616" lon="12.653956449153423"><ele>441.0</ele><time>2026-04-25T12:38:23Z</time></trkpt><trkpt lat="43.65118940193066" lon="12.65376621846049"><ele>449.0</ele><time>2026-04-25T12:38:24Z</time></trkpt><trkpt lat="43.65126892568739" lon="12.653564638958443"><ele>457.0</ele><time>2026-04-25T12:38:25Z</time></trkpt><trkpt lat="43.65134115682314" lon="12.653342868701932"><ele>465.0</ele><time>2026-04-25T12:38:26Z</time></trkpt><trkpt lat="43.651398898396735" lon="12.653127154467937"><ele>465.0</ele><time>2026-04-25T12:38:27Z</time></trkpt><trkpt lat="43.65145808827424" lon="12.652920920704736"><ele>465.0</ele><time>2026-04-25T12:38:28Z</time></trkpt><trkpt lat="43.65151903835405" lon="12.65272850171881"><ele>465.0</ele><time>2026-04-25T12:38:29Z</time></trkpt><trkpt lat="43.65157884164394" lon="12.652574576365922"><ele>465.0</ele><time>2026-04-25T12:38:30Z</time></trkpt><trkpt lat="43.651648222423866" lon="12.652432308727768"><ele>462.66666666666663</ele><time>2026-04-25T12:38:31Z</time></trkpt><trkpt lat="43.65173708029498" lon="12.652266609717167"><ele>460.3333333333333</ele><time>2026-04-25T12:38:32Z</time></trkpt><trkpt lat="43.651860564209315" lon="12.652103656891894"><ele>458.0</ele><time>2026-04-25T12:38:33Z</time></trkpt><trkpt lat="43.65198555544944" lon="12.651911237898172"><ele>458.0</ele><time>2026-04-25T12:38:34Z</time></trkpt><trkpt lat="43.65209096722687" lon="12.651726493453959"><ele>458.0</ele><time>2026-04-25T12:38:35Z</time></trkpt><trkpt lat="43.652175609112675" lon="12.651505191672113"><ele>458.0</ele><time>2026-04-25T12:38:36Z</time></trkpt><trkpt lat="43.652254323297726" lon="12.65131144935959"><ele>458.0</ele><time>2026-04-25T12:38:37Z</time></trkpt><trkpt lat="43.652317182888375" lon="12.651138235470944"><ele>457.99999999999994</ele><time>2026-04-25T12:38:38Z</time></trkpt><trkpt lat="43.65235384517273" lon="12.651021499224788"><ele>457.99999999999994</ele><time>2026-04-25T12:38:39Z</time></trkpt><trkpt lat="43.65238321779382" lon="12.650943554686586"><ele>458.0</ele><time>2026-04-25T12:38:40Z</time></trkpt><trkpt lat="43.652451649418005" lon="12.650839500175067"><ele>458.0</ele><time>2026-04-25T12:38:42Z</time></trkpt><trkpt lat="43.652583017780636" lon="12.65082229803708"><ele>455.0</ele><time>2026-04-25T12:38:44Z</time></trkpt><trkpt lat="43.652697110333676" lon="12.650799013216014"><ele>452.0</ele><time>2026-04-25T12:38:45Z</time></trkpt><trkpt lat="43.652836366472556" lon="12.650804739265833"><ele>449.0</ele><time>2026-04-25T12:38:46Z</time></trkpt><trkpt lat="43.652986735888796" lon="12.65086020015843"><ele>446.0</ele><time>2026-04-25T12:38:47Z</time></trkpt><trkpt lat="43.65311601236261" lon="12.650880017109447"><ele>443.4</ele><time>2026-04-25T12:38:48Z</time></trkpt><trkpt lat="43.65323948007858" lon="12.650872127276735"><ele>440.8</ele><time>2026-04-25T12:38:49Z</time></trkpt><trkpt lat="43.653319503955444" lon="12.650834058410112"><ele>438.19999999999993</ele><time>2026-04-25T12:38:50Z</time></trkpt><trkpt lat="43.6534009681603" lon="12.650801039266174"><ele>435.59999999999997</ele><time>2026-04-25T12:38:52Z</time></trkpt><trkpt lat="43.65346381802035" lon="12.650731008477411"><ele>433.0</ele><time>2026-04-25T12:38:54Z</time></trkpt><trkpt lat="43.653529009056655" lon="12.650677035430455"><ele>433.0</ele><time>2026-04-25T12:38:55Z</time></trkpt><trkpt lat="43.65361571279921" lon="12.650606310291126"><ele>433.0</ele><time>2026-04-25T12:38:56Z</time></trkpt><trkpt lat="43.653731882572906" lon="12.650513265547687"><ele>433.0</ele><time>2026-04-25T12:38:57Z</time></trkpt><trkpt lat="43.65384103838179" lon="12.650420601819564"><ele>433.0</ele><time>2026-04-25T12:38:58Z</time></trkpt><trkpt lat="43.65392851378411" lon="12.650310397018306"><ele>431.2</ele><time>2026-04-25T12:38:59Z</time></trkpt><trkpt lat="43.65401698109383" lon="12.65022384084662"><ele>429.4</ele><time>2026-04-25T12:39:00Z</time></trkpt><trkpt lat="43.65409795907572" lon="12.650137724894714"><ele>427.59999999999997</ele><time>2026-04-25T12:39:01Z</time></trkpt><trkpt lat="43.65418285418086" lon="12.650049157584396"><ele>425.79999999999995</ele><time>2026-04-25T12:39:02Z</time></trkpt><trkpt lat="43.65427141428409" lon="12.649926134099598"><ele>424.0</ele><time>2026-04-25T12:39:03Z</time></trkpt><trkpt lat="43.65435096956334" lon="12.64981443893372"><ele>424.0</ele><time>2026-04-25T12:39:04Z</time></trkpt><trkpt lat="43.654441497756395" lon="12.649708721270818"><ele>424.0</ele><time>2026-04-25T12:39:05Z</time></trkpt><trkpt lat="43.6545588844879" lon="12.649581548667085"><ele>424.0</ele><time>2026-04-25T12:39:06Z</time></trkpt><trkpt lat="43.65466389854748" lon="12.649466487793884"><ele>424.0</ele><time>2026-04-25T12:39:07Z</time></trkpt><trkpt lat="43.65476168156532" lon="12.649371048349948"><ele>421.25</ele><time>2026-04-25T12:39:08Z</time></trkpt><trkpt lat="43.65484730585151" lon="12.649299617705795"><ele>418.5</ele><time>2026-04-25T12:39:09Z</time></trkpt><trkpt lat="43.65494760898698" lon="12.64924256477921"><ele>415.75</ele><time>2026-04-25T12:39:10Z</time></trkpt><trkpt lat="43.6550731781152" lon="12.649196881200947"><ele>413.0</ele><time>2026-04-25T12:39:11Z</time></trkpt><trkpt lat="43.65519512650911" lon="12.649150990386577"><ele>411.3333333333333</ele><time>2026-04-25T12:39:12Z</time></trkpt><trkpt lat="43.65532788640505" lon="12.649108825608058"><ele>409.66666666666663</ele><time>2026-04-25T12:39:13Z</time></trkpt><trkpt lat="43.655464805661055" lon="12.648999865643"><ele>408.0</ele><time>2026-04-25T12:39:14Z</time></trkpt><trkpt lat="43.655605233804614" lon="12.64890608218177"><ele>408.0</ele><time>2026-04-25T12:39:15Z</time></trkpt><trkpt lat="43.65572710962238" lon="12.64886722052765"><ele>408.0</ele><time>2026-04-25T12:39:16Z</time></trkpt><trkpt lat="43.65580914117839" lon="12.648856120041632"><ele>408.0</ele><time>2026-04-25T12:39:17Z</time></trkpt><trkpt lat="43.655891591705696" lon="12.648884894679071"><ele>408.0</ele><time>2026-04-25T12:39:19Z</time></trkpt><trkpt lat="43.656011229285035" lon="12.648853538961896"><ele>408.0</ele><time>2026-04-25T12:39:21Z</time></trkpt><trkpt lat="43.656115789467165" lon="12.648807325770715"><ele>406.0</ele><time>2026-04-25T12:39:22Z</time></trkpt><trkpt lat="43.65621877239249" lon="12.648736005462844"><ele>404.0</ele><time>2026-04-25T12:39:23Z</time></trkpt><trkpt lat="43.656357538854564" lon="12.648630320896002"><ele>402.0</ele><time>2026-04-25T12:39:24Z</time></trkpt><trkpt lat="43.65647457429704" lon="12.648561551477068"><ele>400.0</ele><time>2026-04-25T12:39:25Z</time></trkpt><trkpt lat="43.65657949258283" lon="12.64849950093653"><ele>400.0</ele><time>2026-04-25T12:39:26Z</time></trkpt><trkpt lat="43.656653049214846" lon="12.6484415140886"><ele>400.0</ele><time>2026-04-25T12:39:27Z</time></trkpt><trkpt lat="43.65673425399517" lon="12.648350920800299"><ele>400.0</ele><time>2026-04-25T12:39:28Z</time></trkpt><trkpt lat="43.656804846232994" lon="12.648215828351423"><ele>400.0</ele><time>2026-04-25T12:39:29Z</time></trkpt><trkpt lat="43.65687818334249" lon="12.64805008373604"><ele>394.75</ele><time>2026-04-25T12:39:30Z</time></trkpt><trkpt lat="43.656960647006294" lon="12.647860983250455"><ele>389.5</ele><time>2026-04-25T12:39:31Z</time></trkpt><trkpt lat="43.657035133871986" lon="12.647692508006745"><ele>384.25</ele><time>2026-04-25T12:39:32Z</time></trkpt><trkpt lat="43.65710782575886" lon="12.647527878973737"><ele>379.0</ele><time>2026-04-25T12:39:33Z</time></trkpt><trkpt lat="43.657176698073414" lon="12.647371093795567"><ele>379.0</ele><time>2026-04-25T12:39:34Z</time></trkpt><trkpt lat="43.65723433253945" lon="12.647232422690044"><ele>379.0</ele><time>2026-04-25T12:39:35Z</time></trkpt><trkpt lat="43.6572824422446" lon="12.647111423797563"><ele>379.0</ele><time>2026-04-25T12:39:36Z</time></trkpt><trkpt lat="43.65732706867787" lon="12.647008076824644"><ele>379.0</ele><time>2026-04-25T12:39:37Z</time></trkpt><trkpt lat="43.65737891534878" lon="12.646913504340802"><ele>379.0</ele><time>2026-04-25T12:39:38Z</time></trkpt><trkpt lat="43.657437412837616" lon="12.646826135543748"><ele>378.5</ele><time>2026-04-25T12:39:39Z</time></trkpt><trkpt lat="43.65749312402368" lon="12.64673965553069"><ele>378.0</ele><time>2026-04-25T12:39:40Z</time></trkpt><trkpt lat="43.65754239908573" lon="12.646660723154211"><ele>377.5</ele><time>2026-04-25T12:39:41Z</time></trkpt><trkpt lat="43.65759012227719" lon="12.646585414207799"><ele>377.0</ele><time>2026-04-25T12:39:42Z</time></trkpt><trkpt lat="43.657632164260484" lon="12.646519219561375"><ele>376.5</ele><time>2026-04-25T12:39:43Z</time></trkpt><trkpt lat="43.657710668130214" lon="12.646403559294592"><ele>376.0</ele><time>2026-04-25T12:39:45Z</time></trkpt><trkpt lat="43.65778557883043" lon="12.646294858662898"><ele>374.8333333333333</ele><time>2026-04-25T12:39:47Z</time></trkpt><trkpt lat="43.65783141441766" lon="12.64622834961185"><ele>373.66666666666663</ele><time>2026-04-25T12:39:48Z</time></trkpt><trkpt lat="43.65787989024129" lon="12.646125195740456"><ele>372.5</ele><time>2026-04-25T12:39:49Z</time></trkpt><trkpt lat="43.65793724929045" lon="12.646027337798177"><ele>371.3333333333333</ele><time>2026-04-25T12:39:50Z</time></trkpt><trkpt lat="43.65799843266441" lon="12.64593343752903"><ele>370.1666666666667</ele><time>2026-04-25T12:39:51Z</time></trkpt><trkpt lat="43.65806779358683" lon="12.645832783121293"><ele>369.0</ele><time>2026-04-25T12:39:52Z</time></trkpt><trkpt lat="43.658134958663574" lon="12.64573955106218"><ele>369.0</ele><time>2026-04-25T12:39:53Z</time></trkpt><trkpt lat="43.658207644168755" lon="12.64564172490358"><ele>369.0</ele><time>2026-04-25T12:39:54Z</time></trkpt><trkpt lat="43.658288235647355" lon="12.645538310384467"><ele>369.0</ele><time>2026-04-25T12:39:55Z</time></trkpt><trkpt lat="43.65837419965241" lon="12.645436271250636"><ele>369.0</ele><time>2026-04-25T12:39:56Z</time></trkpt><trkpt lat="43.65846089650246" lon="12.645340838656445"><ele>369.0</ele><time>2026-04-25T12:39:57Z</time></trkpt><trkpt lat="43.65854864183696" lon="12.64524916825327"><ele>367.6</ele><time>2026-04-25T12:39:58Z</time></trkpt><trkpt lat="43.658636260741716" lon="12.645162521269816"><ele>366.2</ele><time>2026-04-25T12:39:59Z</time></trkpt><trkpt lat="43.65871954265322" lon="12.645082560444914"><ele>364.8</ele><time>2026-04-25T12:40:00Z</time></trkpt><trkpt lat="43.658802430826945" lon="12.644991872826711"><ele>363.40000000000003</ele><time>2026-04-25T12:40:01Z</time></trkpt><trkpt lat="43.658904924372884" lon="12.64489797681921"><ele>362.0</ele><time>2026-04-25T12:40:02Z</time></trkpt><trkpt lat="43.65900177950382" lon="12.644802948318029"><ele>362.0</ele><time>2026-04-25T12:40:03Z</time></trkpt><trkpt lat="43.65909075489163" lon="12.644708497508372"><ele>362.0</ele><time>2026-04-25T12:40:04Z</time></trkpt><trkpt lat="43.6591757137996" lon="12.644618566724464"><ele>362.0</ele><time>2026-04-25T12:40:05Z</time></trkpt><trkpt lat="43.659248457313126" lon="12.644520397124987"><ele>362.0</ele><time>2026-04-25T12:40:06Z</time></trkpt><trkpt lat="43.659318288259776" lon="12.644424507703853"><ele>362.0</ele><time>2026-04-25T12:40:07Z</time></trkpt><trkpt lat="43.65940281620934" lon="12.64431948763474"><ele>359.5</ele><time>2026-04-25T12:40:08Z</time></trkpt><trkpt lat="43.659493607754236" lon="12.644198102207538"><ele>357.0</ele><time>2026-04-25T12:40:09Z</time></trkpt><trkpt lat="43.65958769567588" lon="12.644070599969115"><ele>354.5</ele><time>2026-04-25T12:40:10Z</time></trkpt><trkpt lat="43.659692408088006" lon="12.643957859972431"><ele>352.0</ele><time>2026-04-25T12:40:11Z</time></trkpt><trkpt lat="43.659784210212045" lon="12.643831701197023"><ele>352.0</ele><time>2026-04-25T12:40:12Z</time></trkpt><trkpt lat="43.65987076965974" lon="12.643707503242092"><ele>352.0</ele><time>2026-04-25T12:40:13Z</time></trkpt><trkpt lat="43.65996293163637" lon="12.643563369562331"><ele>352.0</ele><time>2026-04-25T12:40:14Z</time></trkpt><trkpt lat="43.660058104340536" lon="12.643408360668177"><ele>352.0</ele><time>2026-04-25T12:40:15Z</time></trkpt><trkpt lat="43.66013850451008" lon="12.643275927186254"><ele>350.6</ele><time>2026-04-25T12:40:16Z</time></trkpt><trkpt lat="43.660202751236596" lon="12.643165415148575"><ele>349.20000000000005</ele><time>2026-04-25T12:40:17Z</time></trkpt><trkpt lat="43.660260293793925" lon="12.643072044486427"><ele>347.8</ele><time>2026-04-25T12:40:18Z</time></trkpt><trkpt lat="43.6603226767128" lon="12.642982591223106"><ele>346.4</ele><time>2026-04-25T12:40:19Z</time></trkpt><trkpt lat="43.660387925698096" lon="12.64290368321435"><ele>345.0</ele><time>2026-04-25T12:40:20Z</time></trkpt><trkpt lat="43.66046072059238" lon="12.64283627569812"><ele>343.8</ele><time>2026-04-25T12:40:21Z</time></trkpt><trkpt lat="43.66053803122003" lon="12.642802253446492"><ele>342.6</ele><time>2026-04-25T12:40:22Z</time></trkpt><trkpt lat="43.66060542714297" lon="12.642792903969058"><ele>341.4</ele><time>2026-04-25T12:40:23Z</time></trkpt><trkpt lat="43.66069318377895" lon="12.64284696897583"><ele>340.2</ele><time>2026-04-25T12:40:25Z</time></trkpt><trkpt lat="43.660827913763086" lon="12.642730394905602"><ele>339.0</ele><time>2026-04-25T12:40:29Z</time></trkpt><trkpt lat="43.66088785520428" lon="12.642635575598536"><ele>339.0</ele><time>2026-04-25T12:40:31Z</time></trkpt><trkpt lat="43.660888140120065" lon="12.642548031218967"><ele>339.0</ele><time>2026-04-25T12:41:43Z</time></trkpt><trkpt lat="43.660954526826806" lon="12.642476707187924"><ele>339.0</ele><time>2026-04-25T12:41:45Z</time></trkpt><trkpt lat="43.66103303946134" lon="12.642401213947243"><ele>339.0</ele><time>2026-04-25T12:41:47Z</time></trkpt><trkpt lat="43.66110421019893" lon="12.642315007969328"><ele>339.0</ele><time>2026-04-25T12:41:49Z</time></trkpt><trkpt lat="43.66119366675077" lon="12.642183066478983"><ele>337.6666666666667</ele><time>2026-04-25T12:41:51Z</time></trkpt><trkpt lat="43.66125892741679" lon="12.642133695670415"><ele>336.3333333333333</ele><time>2026-04-25T12:41:52Z</time></trkpt><trkpt lat="43.661314578964735" lon="12.642051340241823"><ele>335.0</ele><time>2026-04-25T12:41:54Z</time></trkpt><trkpt lat="43.66135971932074" lon="12.641974201148976"><ele>333.66666666666663</ele><time>2026-04-25T12:41:56Z</time></trkpt><trkpt lat="43.66140177030044" lon="12.64188579045923"><ele>332.3333333333333</ele><time>2026-04-25T12:41:58Z</time></trkpt><trkpt lat="43.661437386375155" lon="12.64176556035057"><ele>331.0</ele><time>2026-04-25T12:42:00Z</time></trkpt><trkpt lat="43.66149276011681" lon="12.641616563742916"><ele>331.0</ele><time>2026-04-25T12:42:02Z</time></trkpt><trkpt lat="43.66154463123238" lon="12.641499191868942"><ele>331.0</ele><time>2026-04-25T12:42:04Z</time></trkpt><trkpt lat="43.66158894846985" lon="12.641409841056266"><ele>331.0</ele><time>2026-04-25T12:42:06Z</time></trkpt><trkpt lat="43.66164003355906" lon="12.641321120255697"><ele>331.0</ele><time>2026-04-25T12:42:09Z</time></trkpt><trkpt lat="43.661685724306565" lon="12.641251557534833"><ele>331.0</ele><time>2026-04-25T12:42:12Z</time></trkpt><trkpt lat="43.66165586504917" lon="12.641170483685425"><ele>331.0</ele><time>2026-04-25T12:42:20Z</time></trkpt><trkpt lat="43.66169655657749" lon="12.641081207386375"><ele>329.8571428571429</ele><time>2026-04-25T12:42:35Z</time></trkpt><trkpt lat="43.66175943589081" lon="12.64102841283215"><ele>328.7142857142857</ele><time>2026-04-25T12:42:39Z</time></trkpt><trkpt lat="43.66181663439534" lon="12.6409822696127"><ele>327.57142857142856</ele><time>2026-04-25T12:42:44Z</time></trkpt><trkpt lat="43.661881546213394" lon="12.640924884258197"><ele>326.42857142857144</ele><time>2026-04-25T12:42:47Z</time></trkpt><trkpt lat="43.661936180640595" lon="12.640865828175357"><ele>325.2857142857143</ele><time>2026-04-25T12:42:50Z</time></trkpt><trkpt lat="43.66198906457495" lon="12.640788902875885"><ele>324.14285714285717</ele><time>2026-04-25T12:43:23Z</time></trkpt><trkpt lat="43.66205815432283" lon="12.640742405121223"><ele>323.0</ele><time>2026-04-25T12:43:25Z</time></trkpt><trkpt lat="43.6621367846147" lon="12.640670914606725"><ele>323.0</ele><time>2026-04-25T12:43:27Z</time></trkpt><trkpt lat="43.662217648940086" lon="12.640582372125332"><ele>323.0</ele><time>2026-04-25T12:43:29Z</time></trkpt><trkpt lat="43.66230383024641" lon="12.640521646764105"><ele>323.0</ele><time>2026-04-25T12:43:31Z</time></trkpt><trkpt lat="43.662375179346974" lon="12.640482006692189"><ele>323.0</ele><time>2026-04-25T12:43:33Z</time></trkpt><trkpt lat="43.66240495902677" lon="12.640389480089521"><ele>323.0</ele><time>2026-04-25T12:44:58Z</time></trkpt><trkpt lat="43.66247216125746" lon="12.640313865383272"><ele>323.0</ele><time>2026-04-25T12:45:02Z</time></trkpt><trkpt lat="43.66253070457318" lon="12.64022609990144"><ele>319.5</ele><time>2026-04-25T12:45:05Z</time></trkpt><trkpt lat="43.662608133986964" lon="12.640149165163182"><ele>316.0</ele><time>2026-04-25T12:45:08Z</time></trkpt><trkpt lat="43.662678144683674" lon="12.640097633924483"><ele>312.5</ele><time>2026-04-25T12:45:12Z</time></trkpt><trkpt lat="43.66275032491933" lon="12.640013293986767"><ele>309.0</ele><time>2026-04-25T12:45:14Z</time></trkpt><trkpt lat="43.66282680567294" lon="12.639957025117543"><ele>305.5</ele><time>2026-04-25T12:45:16Z</time></trkpt><trkpt lat="43.6629057227984" lon="12.639916721178222"><ele>302.0</ele><time>2026-04-25T12:45:18Z</time></trkpt><trkpt lat="43.662994443877494" lon="12.639886011971596"><ele>300.83333333333337</ele><time>2026-04-25T12:45:20Z</time></trkpt><trkpt lat="43.66307930972505" lon="12.639866995374687"><ele>299.6666666666667</ele><time>2026-04-25T12:45:22Z</time></trkpt><trkpt lat="43.66314800227133" lon="12.639863107124624"><ele>298.5</ele><time>2026-04-25T12:45:24Z</time></trkpt><trkpt lat="43.66323125315171" lon="12.639883454016232"><ele>297.3333333333333</ele><time>2026-04-25T12:45:26Z</time></trkpt><trkpt lat="43.66331447452095" lon="12.63991243182225"><ele>296.16666666666663</ele><time>2026-04-25T12:45:28Z</time></trkpt><trkpt lat="43.6633788094123" lon="12.639944328467047"><ele>295.0</ele><time>2026-04-25T12:45:30Z</time></trkpt><trkpt lat="43.663474526759195" lon="12.639996773168921"><ele>295.0</ele><time>2026-04-25T12:45:33Z</time></trkpt><trkpt lat="43.66354243621599" lon="12.63998171241782"><ele>295.0</ele><time>2026-04-25T12:45:52Z</time></trkpt><trkpt lat="43.66351904101841" lon="12.639876488894709"><ele>295.0</ele><time>2026-04-25T12:45:58Z</time></trkpt><trkpt lat="43.66347193675042" lon="12.639761054082967"><ele>295.0</ele><time>2026-04-25T12:46:00Z</time></trkpt><trkpt lat="43.66341822107771" lon="12.639678311089977"><ele>295.0</ele><time>2026-04-25T12:46:02Z</time></trkpt><trkpt lat="43.663367326596365" lon="12.63959725790804"><ele>295.0</ele><time>2026-04-25T12:46:04Z</time></trkpt><trkpt lat="43.663319980379136" lon="12.639485463222991"><ele>292.0</ele><time>2026-04-25T12:46:06Z</time></trkpt><trkpt lat="43.66326513818008" lon="12.639399542979081"><ele>289.0</ele><time>2026-04-25T12:46:08Z</time></trkpt><trkpt lat="43.66320778958764" lon="12.639304867670063"><ele>286.0</ele><time>2026-04-25T12:46:10Z</time></trkpt><trkpt lat="43.66315828962406" lon="12.63921202201489"><ele>283.0</ele><time>2026-04-25T12:46:12Z</time></trkpt><trkpt lat="43.66310156478676" lon="12.639115983666803"><ele>280.0</ele><time>2026-04-25T12:46:14Z</time></trkpt><trkpt lat="43.66302460643473" lon="12.63902927380115"><ele>277.0</ele><time>2026-04-25T12:46:16Z</time></trkpt><trkpt lat="43.66297154465337" lon="12.638939740320941"><ele>277.0</ele><time>2026-04-25T12:46:18Z</time></trkpt><trkpt lat="43.66290741845077" lon="12.638838390384725"><ele>277.0</ele><time>2026-04-25T12:46:21Z</time></trkpt><trkpt lat="43.66288554186577" lon="12.638734718104436"><ele>277.0</ele><time>2026-04-25T12:46:29Z</time></trkpt><trkpt lat="43.66294582978557" lon="12.6387846551484"><ele>277.0</ele><time>2026-04-25T12:46:36Z</time></trkpt><trkpt lat="43.66301541162114" lon="12.638801940987998"><ele>277.0</ele><time>2026-04-25T12:47:56Z</time></trkpt><trkpt lat="43.66308134396349" lon="12.638827900043301"><ele>277.0</ele><time>2026-04-25T12:48:00Z</time></trkpt><trkpt lat="43.66316032279149" lon="12.63889125688833"><ele>277.0</ele><time>2026-04-25T12:48:04Z</time></trkpt><trkpt lat="43.663226426227915" lon="12.638953432311943"><ele>277.0</ele><time>2026-04-25T12:48:06Z</time></trkpt><trkpt lat="43.66328775345628" lon="12.639011520030161"><ele>277.0</ele><time>2026-04-25T12:48:08Z</time></trkpt><trkpt lat="43.66338566931348" lon="12.639111418567994"><ele>277.0</ele><time>2026-04-25T12:48:10Z</time></trkpt><trkpt lat="43.66349113412453" lon="12.639189301955618"><ele>277.0</ele><time>2026-04-25T12:48:12Z</time></trkpt><trkpt lat="43.66355325548023" lon="12.63924186168019"><ele>274.5</ele><time>2026-04-25T12:48:13Z</time></trkpt><trkpt lat="43.663617857603235" lon="12.639292193140598"><ele>272.0</ele><time>2026-04-25T12:48:14Z</time></trkpt><trkpt lat="43.66368130263502" lon="12.63934486915401"><ele>269.5</ele><time>2026-04-25T12:48:15Z</time></trkpt><trkpt lat="43.66375525703043" lon="12.639401107029094"><ele>267.0</ele><time>2026-04-25T12:48:16Z</time></trkpt><trkpt lat="43.663833191467084" lon="12.639461180065737"><ele>264.5</ele><time>2026-04-25T12:48:17Z</time></trkpt><trkpt lat="43.66390199602154" lon="12.639521358077419"><ele>262.0</ele><time>2026-04-25T12:48:18Z</time></trkpt><trkpt lat="43.66396836160278" lon="12.639581847109634"><ele>262.0</ele><time>2026-04-25T12:48:19Z</time></trkpt><trkpt lat="43.66402723866123" lon="12.639636313723289"><ele>262.0</ele><time>2026-04-25T12:48:20Z</time></trkpt><trkpt lat="43.66407892259257" lon="12.639692312290604"><ele>262.0</ele><time>2026-04-25T12:48:21Z</time></trkpt><trkpt lat="43.664123204216516" lon="12.63975870514047"><ele>262.0</ele><time>2026-04-25T12:48:22Z</time></trkpt><trkpt lat="43.66415952021442" lon="12.639829979569889"><ele>262.0</ele><time>2026-04-25T12:48:23Z</time></trkpt><trkpt lat="43.66418250491908" lon="12.639928427699079"><ele>262.0</ele><time>2026-04-25T12:48:24Z</time></trkpt><trkpt lat="43.66420389940807" lon="12.640015303145882"><ele>262.0</ele><time>2026-04-25T12:48:25Z</time></trkpt><trkpt lat="43.66422863186665" lon="12.640098871925584"><ele>262.0</ele><time>2026-04-25T12:48:26Z</time></trkpt><trkpt lat="43.664224516869844" lon="12.640193966613962"><ele>262.0</ele><time>2026-04-25T12:48:27Z</time></trkpt><trkpt lat="43.664221405172064" lon="12.640304497957349"><ele>262.0</ele><time>2026-04-25T12:48:28Z</time></trkpt><trkpt lat="43.664224941509545" lon="12.640423024588612"><ele>262.0</ele><time>2026-04-25T12:48:29Z</time></trkpt><trkpt lat="43.664220533850845" lon="12.640554165240726"><ele>262.0</ele><time>2026-04-25T12:48:30Z</time></trkpt><trkpt lat="43.66421994412905" lon="12.640683833073446"><ele>262.0</ele><time>2026-04-25T12:48:31Z</time></trkpt><trkpt lat="43.664223429481865" lon="12.640800044155034"><ele>262.0</ele><time>2026-04-25T12:48:32Z</time></trkpt><trkpt lat="43.66422532156328" lon="12.6409076297039"><ele>262.0</ele><time>2026-04-25T12:48:33Z</time></trkpt><trkpt lat="43.6642239132383" lon="12.641005139843221"><ele>262.0</ele><time>2026-04-25T12:48:34Z</time></trkpt><trkpt lat="43.66425583252946" lon="12.64109655388214"><ele>262.0</ele><time>2026-04-25T12:48:35Z</time></trkpt><trkpt lat="43.66429395894587" lon="12.64117977679249"><ele>262.0</ele><time>2026-04-25T12:48:36Z</time></trkpt><trkpt lat="43.66433825225042" lon="12.641244531695955"><ele>262.0</ele><time>2026-04-25T12:48:37Z</time></trkpt><trkpt lat="43.66438902123114" lon="12.641356224944309"><ele>257.8</ele><time>2026-04-25T12:48:39Z</time></trkpt><trkpt lat="43.664448231576685" lon="12.641388681248813"><ele>253.6</ele><time>2026-04-25T12:48:40Z</time></trkpt><trkpt lat="43.664501794090846" lon="12.641445275143214"><ele>249.40000000000003</ele><time>2026-04-25T12:48:41Z</time></trkpt><trkpt lat="43.664582112457445" lon="12.641563208624298"><ele>245.20000000000002</ele><time>2026-04-25T12:48:43Z</time></trkpt><trkpt lat="43.664682888540376" lon="12.641679643258971"><ele>241.0</ele><time>2026-04-25T12:48:45Z</time></trkpt><trkpt lat="43.66473545011224" lon="12.641747944864612"><ele>240.99999999999997</ele><time>2026-04-25T12:48:46Z</time></trkpt><trkpt lat="43.664785894441785" lon="12.641833223526064"><ele>241.0</ele><time>2026-04-25T12:48:47Z</time></trkpt><trkpt lat="43.664822658055726" lon="12.641913830094065"><ele>241.0</ele><time>2026-04-25T12:48:48Z</time></trkpt><trkpt lat="43.66485952968827" lon="12.641993210009554"><ele>241.0</ele><time>2026-04-25T12:48:49Z</time></trkpt><trkpt lat="43.66487241411364" lon="12.642106026828586"><ele>240.99999999999997</ele><time>2026-04-25T12:48:50Z</time></trkpt><trkpt lat="43.664887074402664" lon="12.642240196893514"><ele>241.0</ele><time>2026-04-25T12:48:51Z</time></trkpt><trkpt lat="43.66489327867328" lon="12.642351252641348"><ele>241.49999999999997</ele><time>2026-04-25T12:48:52Z</time></trkpt><trkpt lat="43.664902997603086" lon="12.642442757974589"><ele>242.0</ele><time>2026-04-25T12:48:53Z</time></trkpt><trkpt lat="43.66491394009826" lon="12.64253342641984"><ele>242.5</ele><time>2026-04-25T12:48:54Z</time></trkpt><trkpt lat="43.6649496917749" lon="12.642704654876713"><ele>243.0</ele><time>2026-04-25T12:48:56Z</time></trkpt><trkpt lat="43.66497194345705" lon="12.642859827154629"><ele>243.49999999999997</ele><time>2026-04-25T12:48:58Z</time></trkpt><trkpt lat="43.6650092034898" lon="12.642936417042526"><ele>244.0</ele><time>2026-04-25T12:49:00Z</time></trkpt><trkpt lat="43.66510209566096" lon="12.642963535569375"><ele>242.57142857142856</ele><time>2026-04-25T12:49:02Z</time></trkpt><trkpt lat="43.66517064790046" lon="12.642913210694765"><ele>241.14285714285714</ele><time>2026-04-25T12:49:03Z</time></trkpt><trkpt lat="43.665216932444125" lon="12.64281982159467"><ele>239.71428571428572</ele><time>2026-04-25T12:49:04Z</time></trkpt><trkpt lat="43.66528203967538" lon="12.642772807763764"><ele>238.28571428571428</ele><time>2026-04-25T12:49:05Z</time></trkpt><trkpt lat="43.66533779748152" lon="12.642712834722635"><ele>236.8571428571429</ele><time>2026-04-25T12:49:06Z</time></trkpt><trkpt lat="43.66539207672067" lon="12.642654128302029"><ele>235.42857142857144</ele><time>2026-04-25T12:49:07Z</time></trkpt><trkpt lat="43.66544634257402" lon="12.642595317036488"><ele>234.0</ele><time>2026-04-25T12:49:08Z</time></trkpt><trkpt lat="43.66549987921346" lon="12.642537877110177"><ele>232.66666666666666</ele><time>2026-04-25T12:49:09Z</time></trkpt><trkpt lat="43.665553549560215" lon="12.642483068826118"><ele>231.33333333333331</ele><time>2026-04-25T12:49:10Z</time></trkpt><trkpt lat="43.66563106185896" lon="12.642406869397318"><ele>230.0</ele><time>2026-04-25T12:49:12Z</time></trkpt><trkpt lat="43.66568351547285" lon="12.642500369084651"><ele>228.66666666666666</ele><time>2026-04-25T12:49:15Z</time></trkpt><trkpt lat="43.665777709759496" lon="12.642626389369942"><ele>227.33333333333331</ele><time>2026-04-25T12:49:17Z</time></trkpt><trkpt lat="43.66583069738039" lon="12.642681886526553"><ele>226.0</ele><time>2026-04-25T12:49:18Z</time></trkpt><trkpt lat="43.66587213113757" lon="12.642755825060572"><ele>224.99999999999997</ele><time>2026-04-25T12:49:19Z</time></trkpt><trkpt lat="43.665925892116114" lon="12.642817423093323"><ele>224.0</ele><time>2026-04-25T12:49:20Z</time></trkpt><trkpt lat="43.66598663150597" lon="12.642858509583112"><ele>223.0</ele><time>2026-04-25T12:49:21Z</time></trkpt><trkpt lat="43.66607933432928" lon="12.642960414396413"><ele>222.0</ele><time>2026-04-25T12:49:23Z</time></trkpt><trkpt lat="43.66614863373546" lon="12.642991654384254"><ele>220.99999999999997</ele><time>2026-04-25T12:49:24Z</time></trkpt><trkpt lat="43.66621188065743" lon="12.643053479802425"><ele>220.0</ele><time>2026-04-25T12:49:25Z</time></trkpt><trkpt lat="43.666285025415704" lon="12.643093989213225"><ele>218.49999999999997</ele><time>2026-04-25T12:49:26Z</time></trkpt><trkpt lat="43.66636942449285" lon="12.64312470011426"><ele>217.0</ele><time>2026-04-25T12:49:27Z</time></trkpt><trkpt lat="43.666447140391696" lon="12.643139898154944"><ele>215.5</ele><time>2026-04-25T12:49:28Z</time></trkpt><trkpt lat="43.66653624755791" lon="12.643133641887417"><ele>214.0</ele><time>2026-04-25T12:49:29Z</time></trkpt><trkpt lat="43.66663368190704" lon="12.643108874010144"><ele>212.49999999999997</ele><time>2026-04-25T12:49:30Z</time></trkpt><trkpt lat="43.66672337245654" lon="12.643116972695923"><ele>211.0</ele><time>2026-04-25T12:49:31Z</time></trkpt><trkpt lat="43.666815556851326" lon="12.643122421746696"><ele>210.99999999999997</ele><time>2026-04-25T12:49:32Z</time></trkpt><trkpt lat="43.66690252546174" lon="12.643164824855686"><ele>211.0</ele><time>2026-04-25T12:49:33Z</time></trkpt><trkpt lat="43.666984036113476" lon="12.643194085473137"><ele>211.0</ele><time>2026-04-25T12:49:34Z</time></trkpt><trkpt lat="43.66706027580164" lon="12.643225747350765"><ele>211.0</ele><time>2026-04-25T12:49:35Z</time></trkpt><trkpt lat="43.6671514091719" lon="12.643271112256418"><ele>210.99999999999997</ele><time>2026-04-25T12:49:36Z</time></trkpt><trkpt lat="43.667237818345555" lon="12.643329391193062"><ele>211.0</ele><time>2026-04-25T12:49:37Z</time></trkpt><trkpt lat="43.66731609648376" lon="12.643404509240126"><ele>210.99999999999997</ele><time>2026-04-25T12:49:38Z</time></trkpt><trkpt lat="43.66738663889811" lon="12.643471998471027"><ele>211.0</ele><time>2026-04-25T12:49:39Z</time></trkpt><trkpt lat="43.66745116030207" lon="12.643537676028135"><ele>211.0</ele><time>2026-04-25T12:49:40Z</time></trkpt><trkpt lat="43.667512588879106" lon="12.64360020635823"><ele>211.0</ele><time>2026-04-25T12:49:41Z</time></trkpt><trkpt lat="43.66756693052285" lon="12.643647409690658"><ele>210.99999999999997</ele><time>2026-04-25T12:49:42Z</time></trkpt><trkpt lat="43.66766595689212" lon="12.643700479243074"><ele>211.0</ele><time>2026-04-25T12:49:44Z</time></trkpt><trkpt lat="43.66773015076109" lon="12.643763769207021"><ele>210.33333333333331</ele><time>2026-04-25T12:49:46Z</time></trkpt><trkpt lat="43.66780261689063" lon="12.643835328076277"><ele>209.66666666666666</ele><time>2026-04-25T12:49:48Z</time></trkpt><trkpt lat="43.66787410988973" lon="12.643891668999956"><ele>209.0</ele><time>2026-04-25T12:49:50Z</time></trkpt><trkpt lat="43.66793158192756" lon="12.643999981086086"><ele>208.33333333333331</ele><time>2026-04-25T12:49:52Z</time></trkpt><trkpt lat="43.66795022788632" lon="12.644083229410786"><ele>207.66666666666666</ele><time>2026-04-25T12:49:53Z</time></trkpt><trkpt lat="43.667967446444926" lon="12.644237078693152"><ele>207.0</ele><time>2026-04-25T12:49:55Z</time></trkpt><trkpt lat="43.66796397226794" lon="12.644339898179279"><ele>207.0</ele><time>2026-04-25T12:49:57Z</time></trkpt><trkpt lat="43.667985930146614" lon="12.6444232863596"><ele>207.0</ele><time>2026-04-25T12:50:00Z</time></trkpt><trkpt lat="43.66808531051463" lon="12.644476401010348"><ele>207.0</ele><time>2026-04-25T12:50:04Z</time></trkpt><trkpt lat="43.66820835631228" lon="12.64443746570664"><ele>207.0</ele><time>2026-04-25T12:50:06Z</time></trkpt><trkpt lat="43.66827375087006" lon="12.644416772987439"><ele>207.0</ele><time>2026-04-25T12:50:07Z</time></trkpt><trkpt lat="43.66833677795991" lon="12.644396831189631"><ele>207.0</ele><time>2026-04-25T12:50:08Z</time></trkpt><trkpt lat="43.668407395008984" lon="12.644374485901736"><ele>207.0</ele><time>2026-04-25T12:50:09Z</time></trkpt><trkpt lat="43.66848248005285" lon="12.64434986537424"><ele>207.0</ele><time>2026-04-25T12:50:10Z</time></trkpt><trkpt lat="43.66855073219112" lon="12.644326072447175"><ele>207.0</ele><time>2026-04-25T12:50:11Z</time></trkpt><trkpt lat="43.66867357042496" lon="12.644283250635402"><ele>207.0</ele><time>2026-04-25T12:50:13Z</time></trkpt><trkpt lat="43.66873727003389" lon="12.64424740968734"><ele>207.0</ele><time>2026-04-25T12:50:14Z</time></trkpt><trkpt lat="43.66884900804448" lon="12.644209953376983"><ele>207.0</ele><time>2026-04-25T12:50:16Z</time></trkpt><trkpt lat="43.66895782810427" lon="12.644174296453066"><ele>207.0</ele><time>2026-04-25T12:50:18Z</time></trkpt><trkpt lat="43.66905569714338" lon="12.644151913770948"><ele>207.0</ele><time>2026-04-25T12:50:20Z</time></trkpt><trkpt lat="43.669125702190954" lon="12.644144407485516"><ele>207.0</ele><time>2026-04-25T12:50:22Z</time></trkpt><trkpt lat="43.66919140148068" lon="12.6441417591043"><ele>207.0</ele><time>2026-04-25T12:50:24Z</time></trkpt><trkpt lat="43.66920080082176" lon="12.644344318689296"><ele>207.39999999999998</ele><time>2026-04-25T12:50:26Z</time></trkpt><trkpt lat="43.66919643023021" lon="12.64451524161263"><ele>207.79999999999998</ele><time>2026-04-25T12:50:28Z</time></trkpt><trkpt lat="43.669192388479814" lon="12.644673304318312"><ele>208.2</ele><time>2026-04-25T12:50:30Z</time></trkpt><trkpt lat="43.66919420703296" lon="12.644830013850054"><ele>208.6</ele><time>2026-04-25T12:50:32Z</time></trkpt><trkpt lat="43.66919522489528" lon="12.64491738871207"><ele>209.0</ele><time>2026-04-25T12:50:33Z</time></trkpt><trkpt lat="43.66918864289797" lon="12.645013099582401"><ele>209.00000000000003</ele><time>2026-04-25T12:50:34Z</time></trkpt><trkpt lat="43.66918286669927" lon="12.645114736489147"><ele>209.0</ele><time>2026-04-25T12:50:35Z</time></trkpt><trkpt lat="43.669178476186595" lon="12.645220920376106"><ele>209.0</ele><time>2026-04-25T12:50:36Z</time></trkpt><trkpt lat="43.66917295397705" lon="12.645327679730032"><ele>209.0</ele><time>2026-04-25T12:50:37Z</time></trkpt><trkpt lat="43.669166772522054" lon="12.645450500125248"><ele>209.00000000000003</ele><time>2026-04-25T12:50:38Z</time></trkpt><trkpt lat="43.66916397873295" lon="12.645577955412207"><ele>209.0</ele><time>2026-04-25T12:50:39Z</time></trkpt><trkpt lat="43.669162431456876" lon="12.64571001880998"><ele>209.2</ele><time>2026-04-25T12:50:40Z</time></trkpt><trkpt lat="43.66915739430662" lon="12.645841971929427"><ele>209.39999999999998</ele><time>2026-04-25T12:50:41Z</time></trkpt><trkpt lat="43.66915689657259" lon="12.645974105580375"><ele>209.6</ele><time>2026-04-25T12:50:42Z</time></trkpt><trkpt lat="43.66915534460254" lon="12.646105847393383"><ele>209.8</ele><time>2026-04-25T12:50:43Z</time></trkpt><trkpt lat="43.669149518182536" lon="12.646232984081745"><ele>210.0</ele><time>2026-04-25T12:50:44Z</time></trkpt><trkpt lat="43.66914190300764" lon="12.646362442889094"><ele>210.2</ele><time>2026-04-25T12:50:45Z</time></trkpt><trkpt lat="43.669138301062304" lon="12.646493517614655"><ele>210.4</ele><time>2026-04-25T12:50:46Z</time></trkpt><trkpt lat="43.66913788687709" lon="12.646643000683738"><ele>210.60000000000002</ele><time>2026-04-25T12:50:47Z</time></trkpt><trkpt lat="43.66913362869862" lon="12.64677292093625"><ele>210.8</ele><time>2026-04-25T12:50:48Z</time></trkpt><trkpt lat="43.66913061593932" lon="12.646882117367268"><ele>211.0</ele><time>2026-04-25T12:50:49Z</time></trkpt><trkpt lat="43.66914992947233" lon="12.647016605091183"><ele>211.0</ele><time>2026-04-25T12:50:51Z</time></trkpt><trkpt lat="43.669232948739584" lon="12.64712226837941"><ele>211.0</ele><time>2026-04-25T12:50:53Z</time></trkpt><trkpt lat="43.66929196582285" lon="12.647175316724573"><ele>211.0</ele><time>2026-04-25T12:50:54Z</time></trkpt><trkpt lat="43.66935186482034" lon="12.647231110188267"><ele>211.0</ele><time>2026-04-25T12:50:55Z</time></trkpt><trkpt lat="43.66940585089491" lon="12.647283900534157"><ele>211.0</ele><time>2026-04-25T12:50:56Z</time></trkpt><trkpt lat="43.66953258554789" lon="12.647329321193682"><ele>211.4</ele><time>2026-04-25T12:50:58Z</time></trkpt><trkpt lat="43.669619048219026" lon="12.647328890059633"><ele>211.8</ele><time>2026-04-25T12:50:59Z</time></trkpt><trkpt lat="43.669713384248546" lon="12.647307157253941"><ele>212.20000000000002</ele><time>2026-04-25T12:51:00Z</time></trkpt><trkpt lat="43.669801947785686" lon="12.647335431182217"><ele>212.60000000000002</ele><time>2026-04-25T12:51:01Z</time></trkpt><trkpt lat="43.6698926202036" lon="12.647348800405648"><ele>213.0</ele><time>2026-04-25T12:51:02Z</time></trkpt><trkpt lat="43.66998068801211" lon="12.647371301695204"><ele>213.0</ele><time>2026-04-25T12:51:03Z</time></trkpt><trkpt lat="43.67005787240538" lon="12.647380898288402"><ele>213.0</ele><time>2026-04-25T12:51:04Z</time></trkpt><trkpt lat="43.670119369106246" lon="12.647422995150016"><ele>213.0</ele><time>2026-04-25T12:51:05Z</time></trkpt><trkpt lat="43.67021991523329" lon="12.64747635588699"><ele>213.0</ele><time>2026-04-25T12:51:07Z</time></trkpt><trkpt lat="43.67029364710124" lon="12.647553662024617"><ele>213.0</ele><time>2026-04-25T12:51:09Z</time></trkpt><trkpt lat="43.67040891760594" lon="12.647627117790805"><ele>212.16666666666666</ele><time>2026-04-25T12:51:11Z</time></trkpt><trkpt lat="43.67047610593761" lon="12.647664884803103"><ele>211.33333333333331</ele><time>2026-04-25T12:51:12Z</time></trkpt><trkpt lat="43.67056079315864" lon="12.647696775363118"><ele>210.5</ele><time>2026-04-25T12:51:13Z</time></trkpt><trkpt lat="43.67064212857173" lon="12.647716552337794"><ele>209.66666666666666</ele><time>2026-04-25T12:51:14Z</time></trkpt><trkpt lat="43.670735417396486" lon="12.647727509640477"><ele>208.83333333333331</ele><time>2026-04-25T12:51:15Z</time></trkpt><trkpt lat="43.67083017947012" lon="12.64772773754682"><ele>208.0</ele><time>2026-04-25T12:51:16Z</time></trkpt><trkpt lat="43.670932630563456" lon="12.647717349532101"><ele>208.0</ele><time>2026-04-25T12:51:17Z</time></trkpt><trkpt lat="43.67102839714179" lon="12.647702518190872"><ele>208.0</ele><time>2026-04-25T12:51:18Z</time></trkpt><trkpt lat="43.671124413484634" lon="12.647686346510868"><ele>208.0</ele><time>2026-04-25T12:51:19Z</time></trkpt><trkpt lat="43.6712154817798" lon="12.647671122864004"><ele>208.0</ele><time>2026-04-25T12:51:20Z</time></trkpt><trkpt lat="43.67130529178743" lon="12.647657099873134"><ele>208.0</ele><time>2026-04-25T12:51:21Z</time></trkpt><trkpt lat="43.67139583719186" lon="12.647642962016828"><ele>207.66666666666666</ele><time>2026-04-25T12:51:22Z</time></trkpt><trkpt lat="43.67148446130736" lon="12.64761026388918"><ele>207.33333333333331</ele><time>2026-04-25T12:51:23Z</time></trkpt><trkpt lat="43.67156870050256" lon="12.647616879024564"><ele>207.0</ele><time>2026-04-25T12:51:24Z</time></trkpt><trkpt lat="43.67164688322232" lon="12.647637630937046"><ele>206.66666666666669</ele><time>2026-04-25T12:51:25Z</time></trkpt><trkpt lat="43.6717243774624" lon="12.647678964132012"><ele>206.33333333333334</ele><time>2026-04-25T12:51:26Z</time></trkpt><trkpt lat="43.67177761316304" lon="12.647777543500284"><ele>206.0</ele><time>2026-04-25T12:51:27Z</time></trkpt><trkpt lat="43.671831359534615" lon="12.647866637348056"><ele>207.66666666666669</ele><time>2026-04-25T12:51:28Z</time></trkpt><trkpt lat="43.67189456342502" lon="12.647949706630266"><ele>209.33333333333334</ele><time>2026-04-25T12:51:29Z</time></trkpt><trkpt lat="43.671931174665836" lon="12.648041481554547"><ele>211.0</ele><time>2026-04-25T12:51:30Z</time></trkpt><trkpt lat="43.671964839968055" lon="12.648125551819888"><ele>212.66666666666669</ele><time>2026-04-25T12:51:31Z</time></trkpt><trkpt lat="43.67201936554449" lon="12.648235618295002"><ele>214.33333333333334</ele><time>2026-04-25T12:51:33Z</time></trkpt><trkpt lat="43.67207130379169" lon="12.648294211870937"><ele>216.0</ele><time>2026-04-25T12:51:36Z</time></trkpt><trkpt lat="43.67221037849916" lon="12.64826243014522"><ele>216.20000000000002</ele><time>2026-04-25T12:51:38Z</time></trkpt><trkpt lat="43.67229118806395" lon="12.648231420196524"><ele>216.40000000000003</ele><time>2026-04-25T12:51:39Z</time></trkpt><trkpt lat="43.6723799401542" lon="12.648186612288868"><ele>216.6</ele><time>2026-04-25T12:51:40Z</time></trkpt><trkpt lat="43.67247403210205" lon="12.648138671712772"><ele>216.8</ele><time>2026-04-25T12:51:41Z</time></trkpt><trkpt lat="43.67257506436743" lon="12.64809925387005"><ele>217.0</ele><time>2026-04-25T12:51:42Z</time></trkpt><trkpt lat="43.672684320012216" lon="12.648055218607652"><ele>216.39999999999998</ele><time>2026-04-25T12:51:43Z</time></trkpt><trkpt lat="43.67279233321049" lon="12.648002864413668"><ele>215.79999999999998</ele><time>2026-04-25T12:51:44Z</time></trkpt><trkpt lat="43.67289140436027" lon="12.647948648544142"><ele>215.2</ele><time>2026-04-25T12:51:45Z</time></trkpt><trkpt lat="43.67297738578574" lon="12.647889408196168"><ele>214.6</ele><time>2026-04-25T12:51:46Z</time></trkpt><trkpt lat="43.67306212895057" lon="12.64784845253922"><ele>214.0</ele><time>2026-04-25T12:51:47Z</time></trkpt><trkpt lat="43.67314172658901" lon="12.647810736282716"><ele>214.0</ele><time>2026-04-25T12:51:48Z</time></trkpt><trkpt lat="43.6732053373484" lon="12.647770536332164"><ele>213.99999999999997</ele><time>2026-04-25T12:51:49Z</time></trkpt><trkpt lat="43.673359922863156" lon="12.647826160664687"><ele>213.99999999999997</ele><time>2026-04-25T12:51:51Z</time></trkpt><trkpt lat="43.67344161525835" lon="12.647843796040242"><ele>214.0</ele><time>2026-04-25T12:51:52Z</time></trkpt><trkpt lat="43.673528040092194" lon="12.64785629713133"><ele>214.0</ele><time>2026-04-25T12:51:53Z</time></trkpt><trkpt lat="43.673607365063994" lon="12.647866140383337"><ele>212.79999999999998</ele><time>2026-04-25T12:51:54Z</time></trkpt><trkpt lat="43.67367287477305" lon="12.647877232924648"><ele>211.59999999999997</ele><time>2026-04-25T12:51:55Z</time></trkpt><trkpt lat="43.67376170414573" lon="12.64791578287102"><ele>210.4</ele><time>2026-04-25T12:51:57Z</time></trkpt><trkpt lat="43.673738259447894" lon="12.64814607516361"><ele>209.2</ele><time>2026-04-25T12:52:01Z</time></trkpt><trkpt lat="43.67368233863483" lon="12.648230279068596"><ele>208.0</ele><time>2026-04-25T12:52:02Z</time></trkpt><trkpt lat="43.673605917879435" lon="12.64833458453102"><ele>208.99999999999997</ele><time>2026-04-25T12:52:03Z</time></trkpt><trkpt lat="43.67353026309674" lon="12.648432803447074"><ele>210.0</ele><time>2026-04-25T12:52:04Z</time></trkpt><trkpt lat="43.67348054423337" lon="12.648520472136289"><ele>211.0</ele><time>2026-04-25T12:52:05Z</time></trkpt><trkpt lat="43.67342654361353" lon="12.648623357887754"><ele>212.0</ele><time>2026-04-25T12:52:06Z</time></trkpt><trkpt lat="43.67339229227544" lon="12.648727897249278"><ele>212.99999999999997</ele><time>2026-04-25T12:52:07Z</time></trkpt><trkpt lat="43.67339082724163" lon="12.648823711295744"><ele>214.0</ele><time>2026-04-25T12:52:08Z</time></trkpt><trkpt lat="43.67345205714595" lon="12.649027878034234"><ele>216.0</ele><time>2026-04-25T12:52:10Z</time></trkpt><trkpt lat="43.67348883833458" lon="12.649169403189818"><ele>218.0</ele><time>2026-04-25T12:52:11Z</time></trkpt><trkpt lat="43.673527326823624" lon="12.649321845418665"><ele>220.0</ele><time>2026-04-25T12:52:12Z</time></trkpt><trkpt lat="43.67356340806753" lon="12.649485720007242"><ele>222.0</ele><time>2026-04-25T12:52:13Z</time></trkpt><trkpt lat="43.67359642344302" lon="12.649657229117055"><ele>224.0</ele><time>2026-04-25T12:52:14Z</time></trkpt><trkpt lat="43.67361838643771" lon="12.649834258487738"><ele>226.0</ele><time>2026-04-25T12:52:15Z</time></trkpt><trkpt lat="43.67363667139245" lon="12.650003851637788"><ele>228.0</ele><time>2026-04-25T12:52:16Z</time></trkpt><trkpt lat="43.67365014248417" lon="12.650136819182743"><ele>230.0</ele><time>2026-04-25T12:52:17Z</time></trkpt><trkpt lat="43.67367818610207" lon="12.65022982785585"><ele>232.0</ele><time>2026-04-25T12:52:18Z</time></trkpt><trkpt lat="43.67376378582389" lon="12.650281714828225"><ele>232.0</ele><time>2026-04-25T12:52:20Z</time></trkpt><trkpt lat="43.673866285454245" lon="12.650178590443653"><ele>232.0</ele><time>2026-04-25T12:52:22Z</time></trkpt><trkpt lat="43.6739168456088" lon="12.650058073230792"><ele>232.0</ele><time>2026-04-25T12:52:23Z</time></trkpt><trkpt lat="43.67398091081535" lon="12.649939749316337"><ele>232.0</ele><time>2026-04-25T12:52:24Z</time></trkpt><trkpt lat="43.674032554321506" lon="12.64984892499096"><ele>232.0</ele><time>2026-04-25T12:52:25Z</time></trkpt><trkpt lat="43.674130355430556" lon="12.649916096856003"><ele>232.0</ele><time>2026-04-25T12:52:27Z</time></trkpt><trkpt lat="43.674277890521545" lon="12.65001824003742"><ele>232.0</ele><time>2026-04-25T12:52:29Z</time></trkpt><trkpt lat="43.674383327433766" lon="12.650092507547543"><ele>232.0</ele><time>2026-04-25T12:52:30Z</time></trkpt><trkpt lat="43.674498758119334" lon="12.650154292370734"><ele>232.0</ele><time>2026-04-25T12:52:31Z</time></trkpt><trkpt lat="43.674604066536354" lon="12.650253500618915"><ele>236.25</ele><time>2026-04-25T12:52:32Z</time></trkpt><trkpt lat="43.67471419682755" lon="12.650358422271562"><ele>240.5</ele><time>2026-04-25T12:52:33Z</time></trkpt><trkpt lat="43.67481261076082" lon="12.650431616216503"><ele>244.75</ele><time>2026-04-25T12:52:34Z</time></trkpt><trkpt lat="43.67490874994967" lon="12.65047269737538"><ele>249.0</ele><time>2026-04-25T12:52:35Z</time></trkpt><trkpt lat="43.675021056180704" lon="12.650485153046155"><ele>249.0</ele><time>2026-04-25T12:52:36Z</time></trkpt><trkpt lat="43.675136556531946" lon="12.650471219455863"><ele>248.99999999999997</ele><time>2026-04-25T12:52:37Z</time></trkpt><trkpt lat="43.6752245729953" lon="12.650449191247192"><ele>248.99999999999997</ele><time>2026-04-25T12:52:38Z</time></trkpt><trkpt lat="43.67528978656958" lon="12.650443218634209"><ele>249.0</ele><time>2026-04-25T12:52:39Z</time></trkpt><trkpt lat="43.67537114990176" lon="12.650490891583543"><ele>249.0</ele><time>2026-04-25T12:52:41Z</time></trkpt><trkpt lat="43.67554082100477" lon="12.65061367858576"><ele>249.75</ele><time>2026-04-25T12:52:43Z</time></trkpt><trkpt lat="43.67566824921214" lon="12.65069338822159"><ele>250.5</ele><time>2026-04-25T12:52:44Z</time></trkpt><trkpt lat="43.67581895545415" lon="12.650762506293018"><ele>251.25</ele><time>2026-04-25T12:52:45Z</time></trkpt><trkpt lat="43.67594608339087" lon="12.650850538583848"><ele>252.0</ele><time>2026-04-25T12:52:46Z</time></trkpt><trkpt lat="43.676053787661715" lon="12.65092491651063"><ele>253.0</ele><time>2026-04-25T12:52:47Z</time></trkpt><trkpt lat="43.67614832036755" lon="12.650964689423013"><ele>254.0</ele><time>2026-04-25T12:52:48Z</time></trkpt><trkpt lat="43.67623251319612" lon="12.650984569948497"><ele>255.0</ele><time>2026-04-25T12:52:49Z</time></trkpt><trkpt lat="43.67635286408354" lon="12.650950011106387"><ele>256.0</ele><time>2026-04-25T12:52:50Z</time></trkpt><trkpt lat="43.67647836080288" lon="12.650889465690328"><ele>257.0</ele><time>2026-04-25T12:52:51Z</time></trkpt><trkpt lat="43.67660677119965" lon="12.6508471943272"><ele>257.0</ele><time>2026-04-25T12:52:52Z</time></trkpt><trkpt lat="43.676717303234625" lon="12.650836680925744"><ele>257.0</ele><time>2026-04-25T12:52:53Z</time></trkpt><trkpt lat="43.67684381462479" lon="12.65080853134882"><ele>257.0</ele><time>2026-04-25T12:52:54Z</time></trkpt><trkpt lat="43.67696538009421" lon="12.6507626084221"><ele>257.0</ele><time>2026-04-25T12:52:55Z</time></trkpt><trkpt lat="43.677100775350716" lon="12.650715685842673"><ele>259.0</ele><time>2026-04-25T12:52:56Z</time></trkpt><trkpt lat="43.67721762941843" lon="12.650657730132865"><ele>261.0</ele><time>2026-04-25T12:52:57Z</time></trkpt><trkpt lat="43.67730577178329" lon="12.650595389390896"><ele>263.0</ele><time>2026-04-25T12:52:58Z</time></trkpt><trkpt lat="43.67736870371604" lon="12.650549255174587"><ele>265.0</ele><time>2026-04-25T12:52:59Z</time></trkpt><trkpt lat="43.67741656057447" lon="12.650670878374289"><ele>267.0</ele><time>2026-04-25T12:53:02Z</time></trkpt><trkpt lat="43.67736525657037" lon="12.6507324927486"><ele>267.0</ele><time>2026-04-25T12:53:03Z</time></trkpt><trkpt lat="43.677303483436575" lon="12.650760920604688"><ele>267.0</ele><time>2026-04-25T12:53:04Z</time></trkpt><trkpt lat="43.677245061689824" lon="12.65081771689175"><ele>267.0</ele><time>2026-04-25T12:53:05Z</time></trkpt><trkpt lat="43.67715783850874" lon="12.650913514672359"><ele>267.0</ele><time>2026-04-25T12:53:06Z</time></trkpt><trkpt lat="43.67706858432982" lon="12.65101321733189"><ele>267.0</ele><time>2026-04-25T12:53:07Z</time></trkpt><trkpt lat="43.67696044531498" lon="12.651128405745382"><ele>270.3333333333333</ele><time>2026-04-25T12:53:08Z</time></trkpt><trkpt lat="43.676832021706986" lon="12.651264186238123"><ele>273.66666666666663</ele><time>2026-04-25T12:53:09Z</time></trkpt><trkpt lat="43.676685697749555" lon="12.651412939509427"><ele>277.0</ele><time>2026-04-25T12:53:10Z</time></trkpt><trkpt lat="43.676543981477145" lon="12.651549620627167"><ele>277.0</ele><time>2026-04-25T12:53:11Z</time></trkpt><trkpt lat="43.676435500222745" lon="12.651652816399972"><ele>277.0</ele><time>2026-04-25T12:53:12Z</time></trkpt><trkpt lat="43.6763414764144" lon="12.65171517939562"><ele>277.0</ele><time>2026-04-25T12:53:13Z</time></trkpt><trkpt lat="43.67625676631756" lon="12.651745555814099"><ele>277.0</ele><time>2026-04-25T12:53:14Z</time></trkpt><trkpt lat="43.67616569121028" lon="12.651757498362244"><ele>277.0</ele><time>2026-04-25T12:53:15Z</time></trkpt><trkpt lat="43.67605466944214" lon="12.651767004560446"><ele>276.5</ele><time>2026-04-25T12:53:16Z</time></trkpt><trkpt lat="43.67594672526143" lon="12.651776100723792"><ele>276.0</ele><time>2026-04-25T12:53:17Z</time></trkpt><trkpt lat="43.67581785260194" lon="12.651794050221262"><ele>275.5</ele><time>2026-04-25T12:53:18Z</time></trkpt><trkpt lat="43.675698759890224" lon="12.651817695690207"><ele>275.0</ele><time>2026-04-25T12:53:19Z</time></trkpt><trkpt lat="43.675586982280024" lon="12.651840447507375"><ele>275.0</ele><time>2026-04-25T12:53:20Z</time></trkpt><trkpt lat="43.67547195392261" lon="12.651865441076344"><ele>275.0</ele><time>2026-04-25T12:53:21Z</time></trkpt><trkpt lat="43.67537287898946" lon="12.651887497200143"><ele>275.0</ele><time>2026-04-25T12:53:22Z</time></trkpt><trkpt lat="43.675282998761354" lon="12.651908135821277"><ele>275.0</ele><time>2026-04-25T12:53:23Z</time></trkpt><trkpt lat="43.67516231309448" lon="12.65193584813664"><ele>275.0</ele><time>2026-04-25T12:53:24Z</time></trkpt><trkpt lat="43.67503952638856" lon="12.65196645361935"><ele>277.25</ele><time>2026-04-25T12:53:25Z</time></trkpt><trkpt lat="43.674918702917296" lon="12.65199890750601"><ele>279.5</ele><time>2026-04-25T12:53:26Z</time></trkpt><trkpt lat="43.67479139028434" lon="12.652049223683411"><ele>281.75</ele><time>2026-04-25T12:53:27Z</time></trkpt><trkpt lat="43.674678116115935" lon="12.652084046013512"><ele>284.0</ele><time>2026-04-25T12:53:28Z</time></trkpt><trkpt lat="43.67459119897959" lon="12.652099655934116"><ele>284.0</ele><time>2026-04-25T12:53:29Z</time></trkpt><trkpt lat="43.67452626290305" lon="12.652153609634945"><ele>284.0</ele><time>2026-04-25T12:53:30Z</time></trkpt><trkpt lat="43.674472058635516" lon="12.652203465149874"><ele>284.0</ele><time>2026-04-25T12:53:31Z</time></trkpt><trkpt lat="43.67445716613326" lon="12.652303829193702"><ele>284.0</ele><time>2026-04-25T12:53:32Z</time></trkpt><trkpt lat="43.67444683835629" lon="12.652446137816185"><ele>284.0</ele><time>2026-04-25T12:53:33Z</time></trkpt><trkpt lat="43.67446364020691" lon="12.652645462627476"><ele>284.0</ele><time>2026-04-25T12:53:34Z</time></trkpt><trkpt lat="43.67447677777553" lon="12.652839175368353"><ele>284.0</ele><time>2026-04-25T12:53:35Z</time></trkpt><trkpt lat="43.674448795222794" lon="12.652993218184776"><ele>284.0</ele><time>2026-04-25T12:53:36Z</time></trkpt><trkpt lat="43.674408257963144" lon="12.653094656573598"><ele>284.0</ele><time>2026-04-25T12:53:37Z</time></trkpt><trkpt lat="43.674353775644" lon="12.653145060248383"><ele>284.0</ele><time>2026-04-25T12:53:38Z</time></trkpt><trkpt lat="43.67424788454963" lon="12.6531455666874"><ele>284.0</ele><time>2026-04-25T12:53:40Z</time></trkpt><trkpt lat="43.67418258157099" lon="12.653159807084634"><ele>284.0</ele><time>2026-04-25T12:53:41Z</time></trkpt><trkpt lat="43.67409588984493" lon="12.653186328546566"><ele>284.0</ele><time>2026-04-25T12:53:42Z</time></trkpt><trkpt lat="43.67402104730334" lon="12.653245693608872"><ele>284.0</ele><time>2026-04-25T12:53:43Z</time></trkpt><trkpt lat="43.673960736024405" lon="12.653313579836114"><ele>284.0</ele><time>2026-04-25T12:53:44Z</time></trkpt><trkpt lat="43.673930177590684" lon="12.653427526258104"><ele>284.0</ele><time>2026-04-25T12:53:45Z</time></trkpt><trkpt lat="43.67388864066551" lon="12.65356887295186"><ele>285.1666666666667</ele><time>2026-04-25T12:53:46Z</time></trkpt><trkpt lat="43.67387685633345" lon="12.653706449081188"><ele>286.33333333333337</ele><time>2026-04-25T12:53:47Z</time></trkpt><trkpt lat="43.67388307656841" lon="12.653823538107343"><ele>287.5</ele><time>2026-04-25T12:53:48Z</time></trkpt><trkpt lat="43.67389918418245" lon="12.653908704332943"><ele>288.6666666666667</ele><time>2026-04-25T12:53:49Z</time></trkpt><trkpt lat="43.673951661347175" lon="12.653969787035415"><ele>289.8333333333333</ele><time>2026-04-25T12:53:50Z</time></trkpt><trkpt lat="43.674017174264485" lon="12.654028918570448"><ele>291.0</ele><time>2026-04-25T12:53:51Z</time></trkpt><trkpt lat="43.67411376878187" lon="12.654019739785756"><ele>291.0</ele><time>2026-04-25T12:53:52Z</time></trkpt><trkpt lat="43.67422533419229" lon="12.653995733905774"><ele>291.0</ele><time>2026-04-25T12:53:53Z</time></trkpt><trkpt lat="43.67435684954722" lon="12.653956945490746"><ele>291.0</ele><time>2026-04-25T12:53:54Z</time></trkpt><trkpt lat="43.67450285509909" lon="12.653908828459851"><ele>291.0</ele><time>2026-04-25T12:53:55Z</time></trkpt><trkpt lat="43.67465920900543" lon="12.653843525307229"><ele>293.6666666666667</ele><time>2026-04-25T12:53:56Z</time></trkpt><trkpt lat="43.67480266102861" lon="12.653768506072266"><ele>296.33333333333337</ele><time>2026-04-25T12:53:57Z</time></trkpt><trkpt lat="43.67493766316165" lon="12.653699122384008"><ele>299.0</ele><time>2026-04-25T12:53:58Z</time></trkpt><trkpt lat="43.67509154722025" lon="12.653637639645588"><ele>298.8</ele><time>2026-04-25T12:53:59Z</time></trkpt><trkpt lat="43.67521977674229" lon="12.653608563998066"><ele>298.59999999999997</ele><time>2026-04-25T12:54:00Z</time></trkpt><trkpt lat="43.67533405436425" lon="12.653605871752958"><ele>298.4</ele><time>2026-04-25T12:54:01Z</time></trkpt><trkpt lat="43.67542292047784" lon="12.653629878569632"><ele>298.2</ele><time>2026-04-25T12:54:02Z</time></trkpt><trkpt lat="43.6754719043149" lon="12.653711948293957"><ele>298.0</ele><time>2026-04-25T12:54:03Z</time></trkpt><trkpt lat="43.67552363575437" lon="12.653771686882978"><ele>298.6</ele><time>2026-04-25T12:54:04Z</time></trkpt><trkpt lat="43.67551357326486" lon="12.653899235927689"><ele>299.20000000000005</ele><time>2026-04-25T12:54:05Z</time></trkpt><trkpt lat="43.67550066439606" lon="12.654009950747666"><ele>299.8</ele><time>2026-04-25T12:54:06Z</time></trkpt><trkpt lat="43.675490985013994" lon="12.654142148447283"><ele>300.40000000000003</ele><time>2026-04-25T12:54:07Z</time></trkpt><trkpt lat="43.67548091454002" lon="12.654314009506153"><ele>301.0</ele><time>2026-04-25T12:54:08Z</time></trkpt><trkpt lat="43.675480547633185" lon="12.654522297596113"><ele>301.25</ele><time>2026-04-25T12:54:09Z</time></trkpt><trkpt lat="43.67545438138655" lon="12.65475543840649"><ele>301.5</ele><time>2026-04-25T12:54:10Z</time></trkpt><trkpt lat="43.6754336267417" lon="12.654942543170309"><ele>301.75</ele><time>2026-04-25T12:54:11Z</time></trkpt><trkpt lat="43.67540442790439" lon="12.655081077535417"><ele>302.0</ele><time>2026-04-25T12:54:12Z</time></trkpt><trkpt lat="43.67537817305133" lon="12.655195964462463"><ele>301.0</ele><time>2026-04-25T12:54:13Z</time></trkpt><trkpt lat="43.675427135158834" lon="12.655290202519101"><ele>300.0</ele><time>2026-04-25T12:54:17Z</time></trkpt><trkpt lat="43.67549976380273" lon="12.655344829298105"><ele>299.0</ele><time>2026-04-25T12:54:18Z</time></trkpt><trkpt lat="43.67559561924414" lon="12.65542514561032"><ele>298.0</ele><time>2026-04-25T12:54:19Z</time></trkpt><trkpt lat="43.67569421115228" lon="12.655505903892038"><ele>297.0</ele><time>2026-04-25T12:54:20Z</time></trkpt><trkpt lat="43.67578470276085" lon="12.65556831787802"><ele>297.0</ele><time>2026-04-25T12:54:21Z</time></trkpt><trkpt lat="43.675872759476164" lon="12.65561118696131"><ele>297.0</ele><time>2026-04-25T12:54:22Z</time></trkpt><trkpt lat="43.67596129682137" lon="12.6556154205994"><ele>297.0</ele><time>2026-04-25T12:54:23Z</time></trkpt><trkpt lat="43.67604113230253" lon="12.65559915638833"><ele>297.0</ele><time>2026-04-25T12:54:24Z</time></trkpt><trkpt lat="43.67610870672895" lon="12.65559214613442"><ele>297.0</ele><time>2026-04-25T12:54:25Z</time></trkpt><trkpt lat="43.676188727635775" lon="12.655630692039981"><ele>297.0</ele><time>2026-04-25T12:54:27Z</time></trkpt><trkpt lat="43.676184270462606" lon="12.655740594141752"><ele>297.0</ele><time>2026-04-25T12:54:30Z</time></trkpt><trkpt lat="43.6761083719602" lon="12.655852815644613"><ele>297.0</ele><time>2026-04-25T12:54:32Z</time></trkpt><trkpt lat="43.676037430329885" lon="12.655910816809776"><ele>297.0</ele><time>2026-04-25T12:54:33Z</time></trkpt><trkpt lat="43.67595663366505" lon="12.655976021324394"><ele>297.0</ele><time>2026-04-25T12:54:34Z</time></trkpt><trkpt lat="43.675893171046084" lon="12.656047490287452"><ele>297.0</ele><time>2026-04-25T12:54:35Z</time></trkpt><trkpt lat="43.67583155833157" lon="12.656111390444474"><ele>297.0</ele><time>2026-04-25T12:54:36Z</time></trkpt><trkpt lat="43.6757781081919" lon="12.656192585039987"><ele>295.1666666666667</ele><time>2026-04-25T12:54:37Z</time></trkpt><trkpt lat="43.67574313719914" lon="12.656275174807345"><ele>293.3333333333333</ele><time>2026-04-25T12:54:38Z</time></trkpt><trkpt lat="43.675684316681135" lon="12.656418583303788"><ele>291.5</ele><time>2026-04-25T12:54:40Z</time></trkpt><trkpt lat="43.67563091968042" lon="12.656542056154061"><ele>289.66666666666663</ele><time>2026-04-25T12:54:42Z</time></trkpt><trkpt lat="43.675621378412536" lon="12.656631904210778"><ele>287.8333333333333</ele><time>2026-04-25T12:54:44Z</time></trkpt><trkpt lat="43.675689763548" lon="12.656650021880132"><ele>286.0</ele><time>2026-04-25T12:54:46Z</time></trkpt><trkpt lat="43.675762796747186" lon="12.65656888185299"><ele>286.0</ele><time>2026-04-25T12:54:48Z</time></trkpt><trkpt lat="43.67581774009161" lon="12.656482304385095"><ele>286.0</ele><time>2026-04-25T12:54:49Z</time></trkpt><trkpt lat="43.67588687944487" lon="12.656399835121"><ele>286.0</ele><time>2026-04-25T12:54:50Z</time></trkpt><trkpt lat="43.675957879722496" lon="12.656330509366496"><ele>286.0</ele><time>2026-04-25T12:54:51Z</time></trkpt><trkpt lat="43.67605162160337" lon="12.65630425390756"><ele>286.0</ele><time>2026-04-25T12:54:52Z</time></trkpt><trkpt lat="43.67614359318762" lon="12.656316255223174"><ele>284.5</ele><time>2026-04-25T12:54:53Z</time></trkpt><trkpt lat="43.67622085265376" lon="12.656301847917263"><ele>283.0</ele><time>2026-04-25T12:54:54Z</time></trkpt><trkpt lat="43.6763041777157" lon="12.65628681705051"><ele>281.5</ele><time>2026-04-25T12:54:55Z</time></trkpt><trkpt lat="43.67636575114484" lon="12.656231506515764"><ele>280.0</ele><time>2026-04-25T12:54:56Z</time></trkpt><trkpt lat="43.67645422709005" lon="12.656193295690848"><ele>278.5</ele><time>2026-04-25T12:54:58Z</time></trkpt><trkpt lat="43.67651830256436" lon="12.656301162845235"><ele>277.0</ele><time>2026-04-25T12:55:00Z</time></trkpt><trkpt lat="43.6765937415957" lon="12.656461339804554"><ele>277.0</ele><time>2026-04-25T12:55:02Z</time></trkpt><trkpt lat="43.67665528374485" lon="12.656518942927963"><ele>277.0</ele><time>2026-04-25T12:55:03Z</time></trkpt><trkpt lat="43.67670692497237" lon="12.656592636595443"><ele>277.0</ele><time>2026-04-25T12:55:04Z</time></trkpt><trkpt lat="43.67674291303975" lon="12.656668366602764"><ele>277.0</ele><time>2026-04-25T12:55:05Z</time></trkpt><trkpt lat="43.676754686081786" lon="12.656769508117263"><ele>277.0</ele><time>2026-04-25T12:55:07Z</time></trkpt><trkpt lat="43.67669128996108" lon="12.656859271743894"><ele>277.0</ele><time>2026-04-25T12:55:08Z</time></trkpt><trkpt lat="43.676674636070715" lon="12.656946182994815"><ele>277.0</ele><time>2026-04-25T12:55:09Z</time></trkpt><trkpt lat="43.67668994553896" lon="12.657043496947836"><ele>275.0</ele><time>2026-04-25T12:55:10Z</time></trkpt><trkpt lat="43.67672035310543" lon="12.65713486237283"><ele>273.0</ele><time>2026-04-25T12:55:11Z</time></trkpt><trkpt lat="43.67676806741921" lon="12.65723119082967"><ele>271.0</ele><time>2026-04-25T12:55:12Z</time></trkpt><trkpt lat="43.67682594407348" lon="12.657330189287737"><ele>269.0</ele><time>2026-04-25T12:55:13Z</time></trkpt><trkpt lat="43.67688836408842" lon="12.657431567556538"><ele>267.0</ele><time>2026-04-25T12:55:14Z</time></trkpt><trkpt lat="43.676947797024546" lon="12.657546710298723"><ele>265.0</ele><time>2026-04-25T12:55:15Z</time></trkpt><trkpt lat="43.677012998187145" lon="12.657660602837025"><ele>264.8</ele><time>2026-04-25T12:55:16Z</time></trkpt><trkpt lat="43.677075331834175" lon="12.65777846993839"><ele>264.6</ele><time>2026-04-25T12:55:17Z</time></trkpt><trkpt lat="43.67713738171025" lon="12.65787811489148"><ele>264.4</ele><time>2026-04-25T12:55:18Z</time></trkpt><trkpt lat="43.67720342521011" lon="12.657957537992234"><ele>264.2</ele><time>2026-04-25T12:55:19Z</time></trkpt><trkpt lat="43.67727477272029" lon="12.658019255680228"><ele>264.0</ele><time>2026-04-25T12:55:20Z</time></trkpt><trkpt lat="43.67735553920181" lon="12.658064674918302"><ele>261.0</ele><time>2026-04-25T12:55:21Z</time></trkpt><trkpt lat="43.677443619431465" lon="12.658094011000541"><ele>258.0</ele><time>2026-04-25T12:55:22Z</time></trkpt><trkpt lat="43.67753647564984" lon="12.658116173993344"><ele>254.99999999999997</ele><time>2026-04-25T12:55:23Z</time></trkpt><trkpt lat="43.67763165152818" lon="12.658138325300234"><ele>252.0</ele><time>2026-04-25T12:55:24Z</time></trkpt><trkpt lat="43.67774071225452" lon="12.658148024409682"><ele>249.0</ele><time>2026-04-25T12:55:25Z</time></trkpt><trkpt lat="43.6778601642728" lon="12.658181277159704"><ele>248.25</ele><time>2026-04-25T12:55:26Z</time></trkpt><trkpt lat="43.67798555756507" lon="12.658184257538244"><ele>247.5</ele><time>2026-04-25T12:55:27Z</time></trkpt><trkpt lat="43.6781004147115" lon="12.658182927895247"><ele>246.75</ele><time>2026-04-25T12:55:28Z</time></trkpt><trkpt lat="43.67821274173779" lon="12.65816041352491"><ele>246.0</ele><time>2026-04-25T12:55:29Z</time></trkpt><trkpt lat="43.678328318430005" lon="12.658172615025713"><ele>246.0</ele><time>2026-04-25T12:55:30Z</time></trkpt><trkpt lat="43.67843687000271" lon="12.658173107147109"><ele>246.0</ele><time>2026-04-25T12:55:31Z</time></trkpt><trkpt lat="43.67853996685853" lon="12.658173489390254"><ele>246.0</ele><time>2026-04-25T12:55:32Z</time></trkpt><trkpt lat="43.678627559758645" lon="12.658173275858688"><ele>246.0</ele><time>2026-04-25T12:55:33Z</time></trkpt><trkpt lat="43.67870118500285" lon="12.65816299069464"><ele>246.0</ele><time>2026-04-25T12:55:34Z</time></trkpt><trkpt lat="43.678765795882846" lon="12.658126100871023"><ele>246.0</ele><time>2026-04-25T12:55:35Z</time></trkpt><trkpt lat="43.67883781539042" lon="12.658081209971918"><ele>246.0</ele><time>2026-04-25T12:55:36Z</time></trkpt><trkpt lat="43.678893953651006" lon="12.657952842420633"><ele>246.0</ele><time>2026-04-25T12:55:37Z</time></trkpt><trkpt lat="43.678928952920096" lon="12.657790147397407"><ele>246.0</ele><time>2026-04-25T12:55:38Z</time></trkpt><trkpt lat="43.678978037835876" lon="12.657627531197804"><ele>246.0</ele><time>2026-04-25T12:55:39Z</time></trkpt><trkpt lat="43.67901733447383" lon="12.65749881877389"><ele>246.0</ele><time>2026-04-25T12:55:40Z</time></trkpt><trkpt lat="43.679068401172465" lon="12.65742193062595"><ele>246.00000000000003</ele><time>2026-04-25T12:55:41Z</time></trkpt><trkpt lat="43.67914225967934" lon="12.657361191356415"><ele>246.00000000000003</ele><time>2026-04-25T12:55:43Z</time></trkpt><trkpt lat="43.67922892653568" lon="12.657287982117998"><ele>246.0</ele><time>2026-04-25T12:55:47Z</time></trkpt><trkpt lat="43.67927052601129" lon="12.657083070632813"><ele>246.0</ele><time>2026-04-25T12:55:49Z</time></trkpt><trkpt lat="43.67930684985148" lon="12.656911075169585"><ele>244.66666666666669</ele><time>2026-04-25T12:55:50Z</time></trkpt><trkpt lat="43.67937134677482" lon="12.65665016276327"><ele>243.33333333333334</ele><time>2026-04-25T12:55:51Z</time></trkpt><trkpt lat="43.67939244634979" lon="12.6564253195151"><ele>242.0</ele><time>2026-04-25T12:55:52Z</time></trkpt><trkpt lat="43.67941127535684" lon="12.656213024408153"><ele>244.0</ele><time>2026-04-25T12:55:53Z</time></trkpt><trkpt lat="43.67944379603478" lon="12.65599950209375"><ele>246.0</ele><time>2026-04-25T12:55:54Z</time></trkpt><trkpt lat="43.679484723300504" lon="12.65581359402675"><ele>248.0</ele><time>2026-04-25T12:55:55Z</time></trkpt><trkpt lat="43.67951662905499" lon="12.655639576527022"><ele>250.0</ele><time>2026-04-25T12:55:56Z</time></trkpt><trkpt lat="43.67955223325877" lon="12.655481034922708"><ele>250.0</ele><time>2026-04-25T12:55:57Z</time></trkpt><trkpt lat="43.67958683377263" lon="12.655323232411035"><ele>250.0</ele><time>2026-04-25T12:55:58Z</time></trkpt><trkpt lat="43.6796120063181" lon="12.655169722092444"><ele>250.0</ele><time>2026-04-25T12:55:59Z</time></trkpt><trkpt lat="43.67964800709229" lon="12.655043570502126"><ele>250.0</ele><time>2026-04-25T12:56:00Z</time></trkpt><trkpt lat="43.67966646432767" lon="12.654940670688035"><ele>250.0</ele><time>2026-04-25T12:56:01Z</time></trkpt><trkpt lat="43.67967739963286" lon="12.654851632884618"><ele>247.6</ele><time>2026-04-25T12:56:02Z</time></trkpt><trkpt lat="43.67968941794284" lon="12.654735129049689"><ele>245.2</ele><time>2026-04-25T12:56:04Z</time></trkpt><trkpt lat="43.679805997681456" lon="12.654725268322604"><ele>242.8</ele><time>2026-04-25T12:56:06Z</time></trkpt><trkpt lat="43.67988960935807" lon="12.654684764002177"><ele>240.4</ele><time>2026-04-25T12:56:07Z</time></trkpt><trkpt lat="43.679989488285955" lon="12.654640295685322"><ele>238.0</ele><time>2026-04-25T12:56:08Z</time></trkpt><trkpt lat="43.68011597110083" lon="12.654594998317716"><ele>238.0</ele><time>2026-04-25T12:56:09Z</time></trkpt><trkpt lat="43.68025848987989" lon="12.654547918312899"><ele>238.0</ele><time>2026-04-25T12:56:10Z</time></trkpt><trkpt lat="43.68040922691286" lon="12.654498123510086"><ele>238.0</ele><time>2026-04-25T12:56:11Z</time></trkpt><trkpt lat="43.68057208285753" lon="12.654444325328798"><ele>237.25</ele><time>2026-04-25T12:56:12Z</time></trkpt><trkpt lat="43.680723719368935" lon="12.654401055035223"><ele>236.5</ele><time>2026-04-25T12:56:13Z</time></trkpt><trkpt lat="43.68084992903295" lon="12.654371237908407"><ele>235.75</ele><time>2026-04-25T12:56:14Z</time></trkpt><trkpt lat="43.6809666011236" lon="12.654351385091248"><ele>235.0</ele><time>2026-04-25T12:56:15Z</time></trkpt><trkpt lat="43.68107703615401" lon="12.65431339970024"><ele>237.6</ele><time>2026-04-25T12:56:16Z</time></trkpt><trkpt lat="43.68118688653074" lon="12.654302354725786"><ele>240.2</ele><time>2026-04-25T12:56:17Z</time></trkpt><trkpt lat="43.681288113046875" lon="12.654382588274162"><ele>242.8</ele><time>2026-04-25T12:56:18Z</time></trkpt><trkpt lat="43.68139205541835" lon="12.654405397459666"><ele>245.4</ele><time>2026-04-25T12:56:19Z</time></trkpt><trkpt lat="43.681487726794636" lon="12.654397192395674"><ele>248.0</ele><time>2026-04-25T12:56:20Z</time></trkpt><trkpt lat="43.68157676520849" lon="12.654347113796026"><ele>248.0</ele><time>2026-04-25T12:56:21Z</time></trkpt><trkpt lat="43.6816497216202" lon="12.654317595650008"><ele>248.0</ele><time>2026-04-25T12:56:22Z</time></trkpt><trkpt lat="43.68175136029215" lon="12.654358728259558"><ele>248.0</ele><time>2026-04-25T12:56:24Z</time></trkpt><trkpt lat="43.68177495118299" lon="12.654562133660443"><ele>248.0</ele><time>2026-04-25T12:56:26Z</time></trkpt><trkpt lat="43.68178740560999" lon="12.654712230583721"><ele>248.0</ele><time>2026-04-25T12:56:27Z</time></trkpt><trkpt lat="43.68182556251212" lon="12.654839947533409"><ele>246.5</ele><time>2026-04-25T12:56:28Z</time></trkpt><trkpt lat="43.68188753079188" lon="12.65496640725798"><ele>245.0</ele><time>2026-04-25T12:56:29Z</time></trkpt><trkpt lat="43.68198231410182" lon="12.655088741183523"><ele>243.5</ele><time>2026-04-25T12:56:30Z</time></trkpt><trkpt lat="43.68208396069482" lon="12.655218111193518"><ele>242.0</ele><time>2026-04-25T12:56:31Z</time></trkpt><trkpt lat="43.68218420669993" lon="12.655341364611502"><ele>240.5</ele><time>2026-04-25T12:56:32Z</time></trkpt><trkpt lat="43.68227729065483" lon="12.65546086717212"><ele>239.0</ele><time>2026-04-25T12:56:33Z</time></trkpt><trkpt lat="43.68238910073704" lon="12.655598352576122"><ele>237.5</ele><time>2026-04-25T12:56:34Z</time></trkpt><trkpt lat="43.68247803343532" lon="12.65570079949527"><ele>236.0</ele><time>2026-04-25T12:56:35Z</time></trkpt><trkpt lat="43.68256850124077" lon="12.655809207423154"><ele>236.0</ele><time>2026-04-25T12:56:36Z</time></trkpt><trkpt lat="43.682668510392" lon="12.655924961346965"><ele>236.00000000000003</ele><time>2026-04-25T12:56:37Z</time></trkpt><trkpt lat="43.68275556725916" lon="12.656030591732192"><ele>236.00000000000003</ele><time>2026-04-25T12:56:38Z</time></trkpt><trkpt lat="43.682833004555135" lon="12.65612244303456"><ele>236.0</ele><time>2026-04-25T12:56:39Z</time></trkpt><trkpt lat="43.68290590150019" lon="12.65620530161183"><ele>236.0</ele><time>2026-04-25T12:56:40Z</time></trkpt><trkpt lat="43.682963912762254" lon="12.6562866506012"><ele>235.00000000000003</ele><time>2026-04-25T12:56:41Z</time></trkpt><trkpt lat="43.683022296745115" lon="12.656380980729908"><ele>234.0</ele><time>2026-04-25T12:56:42Z</time></trkpt><trkpt lat="43.68304434180421" lon="12.656492098503064"><ele>233.0</ele><time>2026-04-25T12:56:43Z</time></trkpt><trkpt lat="43.68306233233716" lon="12.65661971225432"><ele>232.0</ele><time>2026-04-25T12:56:44Z</time></trkpt><trkpt lat="43.68307646830399" lon="12.656758367070962"><ele>231.00000000000003</ele><time>2026-04-25T12:56:45Z</time></trkpt><trkpt lat="43.68309599635941" lon="12.656854573131783"><ele>230.0</ele><time>2026-04-25T12:56:46Z</time></trkpt><trkpt lat="43.68314646096027" lon="12.656921908536455"><ele>230.6</ele><time>2026-04-25T12:56:47Z</time></trkpt><trkpt lat="43.6832038661627" lon="12.656962857891024"><ele>231.2</ele><time>2026-04-25T12:56:48Z</time></trkpt><trkpt lat="43.68328628545289" lon="12.656978655748098"><ele>231.8</ele><time>2026-04-25T12:56:49Z</time></trkpt><trkpt lat="43.68339429839566" lon="12.656987705827909"><ele>232.4</ele><time>2026-04-25T12:56:50Z</time></trkpt><trkpt lat="43.68351089680199" lon="12.657021293380994"><ele>233.0</ele><time>2026-04-25T12:56:51Z</time></trkpt><trkpt lat="43.68361172486129" lon="12.657092906960742"><ele>234.25</ele><time>2026-04-25T12:56:52Z</time></trkpt><trkpt lat="43.68370840270905" lon="12.657189895647805"><ele>235.5</ele><time>2026-04-25T12:56:53Z</time></trkpt><trkpt lat="43.683797105833406" lon="12.657289581243793"><ele>236.75</ele><time>2026-04-25T12:56:54Z</time></trkpt><trkpt lat="43.68389173781957" lon="12.657403935588174"><ele>238.0</ele><time>2026-04-25T12:56:55Z</time></trkpt><trkpt lat="43.68396966098074" lon="12.657515901699949"><ele>238.0</ele><time>2026-04-25T12:56:56Z</time></trkpt><trkpt lat="43.68402435259714" lon="12.657662896922126"><ele>238.0</ele><time>2026-04-25T12:56:57Z</time></trkpt><trkpt lat="43.684032984329285" lon="12.65782632230154"><ele>238.0</ele><time>2026-04-25T12:56:58Z</time></trkpt><trkpt lat="43.684062614700274" lon="12.65797778633091"><ele>238.0</ele><time>2026-04-25T12:56:59Z</time></trkpt><trkpt lat="43.68406296901978" lon="12.65814933711591"><ele>238.25</ele><time>2026-04-25T12:57:00Z</time></trkpt><trkpt lat="43.68408650570288" lon="12.658321212766694"><ele>238.5</ele><time>2026-04-25T12:57:01Z</time></trkpt><trkpt lat="43.68412920594269" lon="12.658500589476485"><ele>238.75</ele><time>2026-04-25T12:57:02Z</time></trkpt><trkpt lat="43.6841728816665" lon="12.658685740679719"><ele>239.0</ele><time>2026-04-25T12:57:03Z</time></trkpt><trkpt lat="43.68422301952862" lon="12.658869771801"><ele>239.66666666666669</ele><time>2026-04-25T12:57:04Z</time></trkpt><trkpt lat="43.684258398165305" lon="12.658995874023946"><ele>240.33333333333334</ele><time>2026-04-25T12:57:05Z</time></trkpt><trkpt lat="43.684280029932175" lon="12.659108866866129"><ele>241.0</ele><time>2026-04-25T12:57:07Z</time></trkpt><trkpt lat="43.68432220404499" lon="12.659030870430726"><ele>241.66666666666669</ele><time>2026-04-25T12:57:11Z</time></trkpt><trkpt lat="43.68428656201366" lon="12.658898604997587"><ele>242.33333333333334</ele><time>2026-04-25T12:57:14Z</time></trkpt><trkpt lat="43.68426204367589" lon="12.658794373062836"><ele>243.0</ele><time>2026-04-25T12:57:16Z</time></trkpt><trkpt lat="43.68432108437695" lon="12.658740169214937"><ele>243.0</ele><time>2026-04-25T12:57:22Z</time></trkpt><trkpt lat="43.68439748239282" lon="12.658821654181017"><ele>243.0</ele><time>2026-04-25T12:57:24Z</time></trkpt><trkpt lat="43.684451020637425" lon="12.658879647130574"><ele>243.0</ele><time>2026-04-25T12:57:25Z</time></trkpt><trkpt lat="43.68451611608113" lon="12.658944124822224"><ele>243.0</ele><time>2026-04-25T12:57:26Z</time></trkpt><trkpt lat="43.68459541523553" lon="12.65901989026536"><ele>243.0</ele><time>2026-04-25T12:57:27Z</time></trkpt><trkpt lat="43.684678657094224" lon="12.65909492887926"><ele>243.0</ele><time>2026-04-25T12:57:28Z</time></trkpt><trkpt lat="43.68477601950318" lon="12.659163986090306"><ele>241.25</ele><time>2026-04-25T12:57:29Z</time></trkpt><trkpt lat="43.684891155494746" lon="12.65923129006906"><ele>239.5</ele><time>2026-04-25T12:57:30Z</time></trkpt><trkpt lat="43.68501787840429" lon="12.659301299614334"><ele>237.75</ele><time>2026-04-25T12:57:31Z</time></trkpt><trkpt lat="43.68516449818134" lon="12.659361078872626"><ele>236.0</ele><time>2026-04-25T12:57:32Z</time></trkpt><trkpt lat="43.68530336328415" lon="12.65941862770616"><ele>234.4</ele><time>2026-04-25T12:57:33Z</time></trkpt><trkpt lat="43.6854234709741" lon="12.659466805872732"><ele>232.8</ele><time>2026-04-25T12:57:34Z</time></trkpt><trkpt lat="43.685532125474325" lon="12.659510012141986"><ele>231.20000000000002</ele><time>2026-04-25T12:57:35Z</time></trkpt><trkpt lat="43.68561892544451" lon="12.659576323067617"><ele>229.60000000000002</ele><time>2026-04-25T12:57:36Z</time></trkpt><trkpt lat="43.68570268844194" lon="12.659625560936435"><ele>228.0</ele><time>2026-04-25T12:57:37Z</time></trkpt><trkpt lat="43.68577247927912" lon="12.659687292092046"><ele>228.0</ele><time>2026-04-25T12:57:38Z</time></trkpt><trkpt lat="43.68584473724901" lon="12.659737583382045"><ele>228.0</ele><time>2026-04-25T12:57:39Z</time></trkpt><trkpt lat="43.68590109350649" lon="12.659835699921862"><ele>228.0</ele><time>2026-04-25T12:57:40Z</time></trkpt><trkpt lat="43.68593570472647" lon="12.659964488645336"><ele>228.0</ele><time>2026-04-25T12:57:41Z</time></trkpt><trkpt lat="43.685968327645305" lon="12.660066400966555"><ele>228.0</ele><time>2026-04-25T12:57:42Z</time></trkpt><trkpt lat="43.68602018869585" lon="12.660165671065585"><ele>228.0</ele><time>2026-04-25T12:57:44Z</time></trkpt><trkpt lat="43.68611766865889" lon="12.660168453870774"><ele>226.0</ele><time>2026-04-25T12:57:46Z</time></trkpt><trkpt lat="43.686163612294614" lon="12.660066797576993"><ele>224.0</ele><time>2026-04-25T12:57:47Z</time></trkpt><trkpt lat="43.68614180260691" lon="12.659923135081488"><ele>222.0</ele><time>2026-04-25T12:57:48Z</time></trkpt><trkpt lat="43.686148098059604" lon="12.659805897432982"><ele>220.0</ele><time>2026-04-25T12:57:49Z</time></trkpt><trkpt lat="43.68617384312273" lon="12.659724034185896"><ele>218.0</ele><time>2026-04-25T12:57:50Z</time></trkpt><trkpt lat="43.686295570406024" lon="12.659692355435286"><ele>218.0</ele><time>2026-04-25T12:57:52Z</time></trkpt><trkpt lat="43.686378392319995" lon="12.659733861060722"><ele>218.0</ele><time>2026-04-25T12:57:53Z</time></trkpt><trkpt lat="43.68644932172275" lon="12.659838996264678"><ele>218.0</ele><time>2026-04-25T12:57:54Z</time></trkpt><trkpt lat="43.68653428128404" lon="12.659969593622641"><ele>218.0</ele><time>2026-04-25T12:57:55Z</time></trkpt><trkpt lat="43.68663550086182" lon="12.660131755424757"><ele>218.0</ele><time>2026-04-25T12:57:56Z</time></trkpt><trkpt lat="43.686743351314696" lon="12.660272668108345"><ele>218.0</ele><time>2026-04-25T12:57:57Z</time></trkpt><trkpt lat="43.68683734868327" lon="12.660379868133738"><ele>218.0</ele><time>2026-04-25T12:57:58Z</time></trkpt><trkpt lat="43.686915552983834" lon="12.660491839935858"><ele>218.0</ele><time>2026-04-25T12:57:59Z</time></trkpt><trkpt lat="43.68697904376529" lon="12.660597417453126"><ele>216.2</ele><time>2026-04-25T12:58:00Z</time></trkpt><trkpt lat="43.68701226836798" lon="12.660709577161654"><ele>214.4</ele><time>2026-04-25T12:58:01Z</time></trkpt><trkpt lat="43.687056851469514" lon="12.660779745235864"><ele>212.6</ele><time>2026-04-25T12:58:02Z</time></trkpt><trkpt lat="43.68719242373442" lon="12.660816317821444"><ele>210.79999999999998</ele><time>2026-04-25T12:58:04Z</time></trkpt><trkpt lat="43.687290012584285" lon="12.660743856824524"><ele>209.0</ele><time>2026-04-25T12:58:05Z</time></trkpt><trkpt lat="43.687384613795544" lon="12.66067161470642"><ele>209.0</ele><time>2026-04-25T12:58:06Z</time></trkpt><trkpt lat="43.68747184048814" lon="12.660625455961412"><ele>209.0</ele><time>2026-04-25T12:58:07Z</time></trkpt><trkpt lat="43.68754758560283" lon="12.66058460301954"><ele>209.0</ele><time>2026-04-25T12:58:08Z</time></trkpt><trkpt lat="43.68762255793454" lon="12.660612531061037"><ele>209.0</ele><time>2026-04-25T12:58:09Z</time></trkpt><trkpt lat="43.68770593498112" lon="12.660680184323816"><ele>209.0</ele><time>2026-04-25T12:58:10Z</time></trkpt><trkpt lat="43.68781780134275" lon="12.660743625233073"><ele>206.25</ele><time>2026-04-25T12:58:11Z</time></trkpt><trkpt lat="43.687940497442824" lon="12.660800988567772"><ele>203.5</ele><time>2026-04-25T12:58:12Z</time></trkpt><trkpt lat="43.6880786867083" lon="12.660855938696061"><ele>200.75</ele><time>2026-04-25T12:58:13Z</time></trkpt><trkpt lat="43.68820995246863" lon="12.660894098206573"><ele>198.0</ele><time>2026-04-25T12:58:14Z</time></trkpt><trkpt lat="43.68833582085266" lon="12.660920133555015"><ele>198.0</ele><time>2026-04-25T12:58:15Z</time></trkpt><trkpt lat="43.68845789688772" lon="12.660943420575697"><ele>198.0</ele><time>2026-04-25T12:58:16Z</time></trkpt><trkpt lat="43.68857643340198" lon="12.66096773847365"><ele>198.0</ele><time>2026-04-25T12:58:17Z</time></trkpt><trkpt lat="43.688686915373964" lon="12.660993125075963"><ele>198.0</ele><time>2026-04-25T12:58:18Z</time></trkpt><trkpt lat="43.688788678421886" lon="12.661025255522267"><ele>197.66666666666666</ele><time>2026-04-25T12:58:19Z</time></trkpt><trkpt lat="43.688876942402146" lon="12.661070517359054"><ele>197.33333333333331</ele><time>2026-04-25T12:58:20Z</time></trkpt><trkpt lat="43.688965421289865" lon="12.66109745931894"><ele>197.0</ele><time>2026-04-25T12:58:21Z</time></trkpt><trkpt lat="43.68903486505936" lon="12.661163354792652"><ele>196.66666666666666</ele><time>2026-04-25T12:58:22Z</time></trkpt><trkpt lat="43.68909458563851" lon="12.661203092897711"><ele>196.33333333333331</ele><time>2026-04-25T12:58:23Z</time></trkpt><trkpt lat="43.689159038456324" lon="12.661239072897027"><ele>196.0</ele><time>2026-04-25T12:58:24Z</time></trkpt><trkpt lat="43.689231836834594" lon="12.661259453486803"><ele>196.0</ele><time>2026-04-25T12:58:25Z</time></trkpt><trkpt lat="43.68931725935709" lon="12.661231547051004"><ele>196.0</ele><time>2026-04-25T12:58:26Z</time></trkpt><trkpt lat="43.689431830798114" lon="12.661214227015485"><ele>196.0</ele><time>2026-04-25T12:58:27Z</time></trkpt><trkpt lat="43.689546324814664" lon="12.661243352275418"><ele>196.0</ele><time>2026-04-25T12:58:28Z</time></trkpt><trkpt lat="43.68965237082275" lon="12.661329157817942"><ele>196.0</ele><time>2026-04-25T12:58:29Z</time></trkpt><trkpt lat="43.68976220362367" lon="12.661415980755615"><ele>193.75</ele><time>2026-04-25T12:58:30Z</time></trkpt><trkpt lat="43.68989141134681" lon="12.661510334690295"><ele>191.5</ele><time>2026-04-25T12:58:31Z</time></trkpt><trkpt lat="43.6900051933793" lon="12.661597398275157"><ele>189.25</ele><time>2026-04-25T12:58:32Z</time></trkpt><trkpt lat="43.69010607393489" lon="12.661684616123848"><ele>187.0</ele><time>2026-04-25T12:58:33Z</time></trkpt><trkpt lat="43.69020917420619" lon="12.661763554775337"><ele>184.39999999999998</ele><time>2026-04-25T12:58:34Z</time></trkpt><trkpt lat="43.69027552220921" lon="12.661869085330409"><ele>181.79999999999998</ele><time>2026-04-25T12:58:35Z</time></trkpt><trkpt lat="43.690324802232055" lon="12.66198696405542"><ele>179.2</ele><time>2026-04-25T12:58:36Z</time></trkpt><trkpt lat="43.69036190875636" lon="12.66211956133166"><ele>176.6</ele><time>2026-04-25T12:58:37Z</time></trkpt><trkpt lat="43.69038787439604" lon="12.662278705981501"><ele>174.0</ele><time>2026-04-25T12:58:38Z</time></trkpt><trkpt lat="43.690392511853666" lon="12.662475776919601"><ele>174.0</ele><time>2026-04-25T12:58:39Z</time></trkpt><trkpt lat="43.69040415909883" lon="12.66268549475605"><ele>174.0</ele><time>2026-04-25T12:58:40Z</time></trkpt><trkpt lat="43.69042814328261" lon="12.662884575639133"><ele>174.0</ele><time>2026-04-25T12:58:41Z</time></trkpt><trkpt lat="43.69047841042741" lon="12.663107783099214"><ele>174.0</ele><time>2026-04-25T12:58:42Z</time></trkpt><trkpt lat="43.69054297601101" lon="12.663338884670594"><ele>174.0</ele><time>2026-04-25T12:58:43Z</time></trkpt><trkpt lat="43.690597882779045" lon="12.663560326684998"><ele>174.0</ele><time>2026-04-25T12:58:44Z</time></trkpt><trkpt lat="43.690637749509754" lon="12.663790076493864"><ele>174.66666666666666</ele><time>2026-04-25T12:58:45Z</time></trkpt><trkpt lat="43.69065208684036" lon="12.664008354194177"><ele>175.33333333333331</ele><time>2026-04-25T12:58:46Z</time></trkpt><trkpt lat="43.69065060300415" lon="12.664227094245271"><ele>176.0</ele><time>2026-04-25T12:58:47Z</time></trkpt><trkpt lat="43.69062904961742" lon="12.664437781127143"><ele>176.25</ele><time>2026-04-25T12:58:48Z</time></trkpt><trkpt lat="43.690601493875924" lon="12.66461633291875"><ele>176.5</ele><time>2026-04-25T12:58:49Z</time></trkpt><trkpt lat="43.6905840537329" lon="12.664775175804614"><ele>176.75</ele><time>2026-04-25T12:58:50Z</time></trkpt><trkpt lat="43.69060582531621" lon="12.664927899217986"><ele>177.0</ele><time>2026-04-25T12:58:51Z</time></trkpt><trkpt lat="43.690637681905194" lon="12.665113727945986"><ele>176.66666666666666</ele><time>2026-04-25T12:58:52Z</time></trkpt><trkpt lat="43.69069822663344" lon="12.665308579096514"><ele>176.33333333333331</ele><time>2026-04-25T12:58:53Z</time></trkpt><trkpt lat="43.690761615037054" lon="12.665510365685332"><ele>176.0</ele><time>2026-04-25T12:58:54Z</time></trkpt><trkpt lat="43.69081823694514" lon="12.665720864995723"><ele>176.0</ele><time>2026-04-25T12:58:55Z</time></trkpt><trkpt lat="43.69087659809527" lon="12.665947644019694"><ele>176.0</ele><time>2026-04-25T12:58:56Z</time></trkpt><trkpt lat="43.690930980932606" lon="12.666187094016573"><ele>176.0</ele><time>2026-04-25T12:58:57Z</time></trkpt><trkpt lat="43.690978701006266" lon="12.666438041010151"><ele>176.0</ele><time>2026-04-25T12:58:58Z</time></trkpt><trkpt lat="43.69102511363023" lon="12.666704485620693"><ele>176.0</ele><time>2026-04-25T12:58:59Z</time></trkpt><trkpt lat="43.6910651097711" lon="12.666937114235342"><ele>176.0</ele><time>2026-04-25T12:59:00Z</time></trkpt><trkpt lat="43.69109839615902" lon="12.667134118964926"><ele>176.0</ele><time>2026-04-25T12:59:01Z</time></trkpt><trkpt lat="43.69110546038506" lon="12.667308683061579"><ele>176.0</ele><time>2026-04-25T12:59:02Z</time></trkpt><trkpt lat="43.69111163596866" lon="12.66744811702249"><ele>176.0</ele><time>2026-04-25T12:59:03Z</time></trkpt><trkpt lat="43.69110930883648" lon="12.667569813188596"><ele>176.0</ele><time>2026-04-25T12:59:04Z</time></trkpt><trkpt lat="43.69106905271651" lon="12.667673708072705"><ele>176.0</ele><time>2026-04-25T12:59:05Z</time></trkpt><trkpt lat="43.69101047434826" lon="12.667752958775145"><ele>177.0</ele><time>2026-04-25T12:59:06Z</time></trkpt><trkpt lat="43.69091466740031" lon="12.667794040049884"><ele>178.0</ele><time>2026-04-25T12:59:07Z</time></trkpt><trkpt lat="43.690823764298905" lon="12.667884916289244"><ele>179.0</ele><time>2026-04-25T12:59:08Z</time></trkpt><trkpt lat="43.69071518674638" lon="12.667948623741259"><ele>180.0</ele><time>2026-04-25T12:59:09Z</time></trkpt><trkpt lat="43.690630094518646" lon="12.66803580117332"><ele>181.0</ele><time>2026-04-25T12:59:10Z</time></trkpt><trkpt lat="43.690569477898485" lon="12.668147751105627"><ele>181.0</ele><time>2026-04-25T12:59:11Z</time></trkpt><trkpt lat="43.690523339383965" lon="12.668298905654826"><ele>181.0</ele><time>2026-04-25T12:59:12Z</time></trkpt><trkpt lat="43.69047396920416" lon="12.668481495777034"><ele>181.0</ele><time>2026-04-25T12:59:13Z</time></trkpt><trkpt lat="43.690410663159525" lon="12.668703151527902"><ele>181.0</ele><time>2026-04-25T12:59:14Z</time></trkpt><trkpt lat="43.69034159669546" lon="12.668940888718602"><ele>183.66666666666669</ele><time>2026-04-25T12:59:15Z</time></trkpt><trkpt lat="43.690260850493715" lon="12.669190730751348"><ele>186.33333333333334</ele><time>2026-04-25T12:59:16Z</time></trkpt><trkpt lat="43.69018456766826" lon="12.669409712794273"><ele>189.0</ele><time>2026-04-25T12:59:17Z</time></trkpt><trkpt lat="43.69011026396899" lon="12.669604363941328"><ele>190.75</ele><time>2026-04-25T12:59:18Z</time></trkpt><trkpt lat="43.69000993845898" lon="12.669758155694938"><ele>192.5</ele><time>2026-04-25T12:59:19Z</time></trkpt><trkpt lat="43.68992555813226" lon="12.669900046264809"><ele>194.25</ele><time>2026-04-25T12:59:20Z</time></trkpt><trkpt lat="43.689846861476795" lon="12.670011729797283"><ele>196.0</ele><time>2026-04-25T12:59:21Z</time></trkpt><trkpt lat="43.6897481818009" lon="12.670067525728275"><ele>196.0</ele><time>2026-04-25T12:59:22Z</time></trkpt><trkpt lat="43.689675962243854" lon="12.670144331831475"><ele>196.0</ele><time>2026-04-25T12:59:23Z</time></trkpt><trkpt lat="43.68961944414033" lon="12.670224821294818"><ele>196.0</ele><time>2026-04-25T12:59:24Z</time></trkpt><trkpt lat="43.689600748598004" lon="12.670320117263788"><ele>196.0</ele><time>2026-04-25T12:59:25Z</time></trkpt><trkpt lat="43.68963650768882" lon="12.670420477050833"><ele>196.0</ele><time>2026-04-25T12:59:26Z</time></trkpt><trkpt lat="43.68975640835998" lon="12.670490053091918"><ele>196.60000000000002</ele><time>2026-04-25T12:59:28Z</time></trkpt><trkpt lat="43.68983591367844" lon="12.670485367933125"><ele>197.2</ele><time>2026-04-25T12:59:29Z</time></trkpt><trkpt lat="43.68992799381152" lon="12.670463232772757"><ele>197.8</ele><time>2026-04-25T12:59:30Z</time></trkpt><trkpt lat="43.69004637359516" lon="12.670431241317266"><ele>198.39999999999998</ele><time>2026-04-25T12:59:31Z</time></trkpt><trkpt lat="43.69014866483167" lon="12.67044372110316"><ele>199.0</ele><time>2026-04-25T12:59:32Z</time></trkpt><trkpt lat="43.69023795167308" lon="12.670448309040319"><ele>198.79999999999998</ele><time>2026-04-25T12:59:33Z</time></trkpt><trkpt lat="43.69031160226365" lon="12.670497939138794"><ele>198.6</ele><time>2026-04-25T12:59:34Z</time></trkpt><trkpt lat="43.69040504804906" lon="12.670552026681465"><ele>198.4</ele><time>2026-04-25T12:59:35Z</time></trkpt><trkpt lat="43.69049143623616" lon="12.670640137961211"><ele>198.2</ele><time>2026-04-25T12:59:36Z</time></trkpt><trkpt lat="43.690585080517636" lon="12.670774655452277"><ele>198.0</ele><time>2026-04-25T12:59:37Z</time></trkpt><trkpt lat="43.690659906962175" lon="12.67091462530505"><ele>198.0</ele><time>2026-04-25T12:59:38Z</time></trkpt><trkpt lat="43.69072400039658" lon="12.671074474364822"><ele>198.0</ele><time>2026-04-25T12:59:39Z</time></trkpt><trkpt lat="43.69078114167535" lon="12.671268769626868"><ele>198.0</ele><time>2026-04-25T12:59:40Z</time></trkpt><trkpt lat="43.69083693834953" lon="12.671486284264668"><ele>199.25</ele><time>2026-04-25T12:59:41Z</time></trkpt><trkpt lat="43.69088428315757" lon="12.671695962271158"><ele>200.5</ele><time>2026-04-25T12:59:42Z</time></trkpt><trkpt lat="43.69092442962014" lon="12.67188462761668"><ele>201.75</ele><time>2026-04-25T12:59:43Z</time></trkpt><trkpt lat="43.69096518516784" lon="12.672053077729478"><ele>203.0</ele><time>2026-04-25T12:59:44Z</time></trkpt><trkpt lat="43.69095994980129" lon="12.67222321055872"><ele>204.5</ele><time>2026-04-25T12:59:45Z</time></trkpt><trkpt lat="43.69095163943052" lon="12.672381269478581"><ele>206.0</ele><time>2026-04-25T12:59:46Z</time></trkpt><trkpt lat="43.69093606727151" lon="12.672532849831349"><ele>207.5</ele><time>2026-04-25T12:59:47Z</time></trkpt><trkpt lat="43.69091121040931" lon="12.672701384660439"><ele>209.0</ele><time>2026-04-25T12:59:48Z</time></trkpt><trkpt lat="43.6908973790856" lon="12.67287037257027"><ele>210.25</ele><time>2026-04-25T12:59:49Z</time></trkpt><trkpt lat="43.690892406402035" lon="12.67302546779842"><ele>211.5</ele><time>2026-04-25T12:59:50Z</time></trkpt><trkpt lat="43.69089414894425" lon="12.673194182606514"><ele>212.75</ele><time>2026-04-25T12:59:51Z</time></trkpt><trkpt lat="43.690897075476556" lon="12.67334968578385"><ele>214.0</ele><time>2026-04-25T12:59:52Z</time></trkpt><trkpt lat="43.690891527619144" lon="12.673521055261745"><ele>214.6</ele><time>2026-04-25T12:59:53Z</time></trkpt><trkpt lat="43.6908837934556" lon="12.673663537946235"><ele>215.2</ele><time>2026-04-25T12:59:54Z</time></trkpt><trkpt lat="43.6908762025782" lon="12.673814302901576"><ele>215.79999999999998</ele><time>2026-04-25T12:59:55Z</time></trkpt><trkpt lat="43.69087335453145" lon="12.673958662301905"><ele>216.39999999999998</ele><time>2026-04-25T12:59:56Z</time></trkpt><trkpt lat="43.690872022129376" lon="12.674073804715938"><ele>217.0</ele><time>2026-04-25T12:59:57Z</time></trkpt><trkpt lat="43.69087133944001" lon="12.67416333101588"><ele>217.0</ele><time>2026-04-25T12:59:58Z</time></trkpt><trkpt lat="43.69088126760409" lon="12.674316420811703"><ele>217.0</ele><time>2026-04-25T13:00:00Z</time></trkpt><trkpt lat="43.69093908119071" lon="12.674476004050023"><ele>217.0</ele><time>2026-04-25T13:00:02Z</time></trkpt><trkpt lat="43.69099127582599" lon="12.674542101249832"><ele>217.0</ele><time>2026-04-25T13:00:03Z</time></trkpt><trkpt lat="43.69104562978137" lon="12.67461813458976"><ele>217.0</ele><time>2026-04-25T13:00:04Z</time></trkpt><trkpt lat="43.69111228273101" lon="12.674714271409957"><ele>214.8</ele><time>2026-04-25T13:00:05Z</time></trkpt><trkpt lat="43.691173832775384" lon="12.674821456696828"><ele>212.6</ele><time>2026-04-25T13:00:06Z</time></trkpt><trkpt lat="43.69121432199538" lon="12.674936295515721"><ele>210.4</ele><time>2026-04-25T13:00:07Z</time></trkpt><trkpt lat="43.69128106176556" lon="12.67502736081567"><ele>208.20000000000002</ele><time>2026-04-25T13:00:08Z</time></trkpt><trkpt lat="43.69132820041566" lon="12.675140931400867"><ele>206.0</ele><time>2026-04-25T13:00:09Z</time></trkpt><trkpt lat="43.69141395274769" lon="12.675215213958893"><ele>206.00000000000003</ele><time>2026-04-25T13:00:10Z</time></trkpt><trkpt lat="43.691508384007655" lon="12.675215597589164"><ele>206.0</ele><time>2026-04-25T13:00:11Z</time></trkpt><trkpt lat="43.69159567619091" lon="12.675251212445158"><ele>206.0</ele><time>2026-04-25T13:00:12Z</time></trkpt><trkpt lat="43.6916570746174" lon="12.675324599680161"><ele>206.0</ele><time>2026-04-25T13:00:13Z</time></trkpt><trkpt lat="43.691746871057234" lon="12.675335318676103"><ele>206.00000000000003</ele><time>2026-04-25T13:00:14Z</time></trkpt><trkpt lat="43.69183390036651" lon="12.675350347884368"><ele>206.0</ele><time>2026-04-25T13:00:15Z</time></trkpt><trkpt lat="43.69192171019061" lon="12.675348651323034"><ele>204.16666666666669</ele><time>2026-04-25T13:00:16Z</time></trkpt><trkpt lat="43.6920116673415" lon="12.67533618098783"><ele>202.33333333333334</ele><time>2026-04-25T13:00:17Z</time></trkpt><trkpt lat="43.692095289493736" lon="12.675323808586661"><ele>200.5</ele><time>2026-04-25T13:00:18Z</time></trkpt><trkpt lat="43.69217126796305" lon="12.675298204990812"><ele>198.66666666666669</ele><time>2026-04-25T13:00:19Z</time></trkpt><trkpt lat="43.69224228351243" lon="12.675255998627822"><ele>196.83333333333334</ele><time>2026-04-25T13:00:20Z</time></trkpt><trkpt lat="43.69232207068711" lon="12.675206195357768"><ele>195.0</ele><time>2026-04-25T13:00:21Z</time></trkpt><trkpt lat="43.69240273263343" lon="12.675145091717464"><ele>193.5</ele><time>2026-04-25T13:00:22Z</time></trkpt><trkpt lat="43.69249613962263" lon="12.675110429875703"><ele>192.0</ele><time>2026-04-25T13:00:23Z</time></trkpt><trkpt lat="43.69258168912979" lon="12.675061769667666"><ele>190.5</ele><time>2026-04-25T13:00:24Z</time></trkpt><trkpt lat="43.69266465105452" lon="12.675016559505353"><ele>189.0</ele><time>2026-04-25T13:00:25Z</time></trkpt><trkpt lat="43.69273984034577" lon="12.674984136708042"><ele>187.5</ele><time>2026-04-25T13:00:26Z</time></trkpt><trkpt lat="43.69282428207057" lon="12.674963934035013"><ele>186.0</ele><time>2026-04-25T13:00:27Z</time></trkpt><trkpt lat="43.69290677792699" lon="12.67498993337284"><ele>186.20000000000002</ele><time>2026-04-25T13:00:28Z</time></trkpt><trkpt lat="43.692985700469066" lon="12.67502751508263"><ele>186.4</ele><time>2026-04-25T13:00:29Z</time></trkpt><trkpt lat="43.693073931867204" lon="12.675086074737248"><ele>186.6</ele><time>2026-04-25T13:00:30Z</time></trkpt><trkpt lat="43.69315273755872" lon="12.675149721735787"><ele>186.8</ele><time>2026-04-25T13:00:31Z</time></trkpt><trkpt lat="43.69324811639013" lon="12.675223766934176"><ele>187.0</ele><time>2026-04-25T13:00:32Z</time></trkpt><trkpt lat="43.69334444988271" lon="12.67529855323293"><ele>187.0</ele><time>2026-04-25T13:00:33Z</time></trkpt><trkpt lat="43.69344106582931" lon="12.675355187102054"><ele>187.0</ele><time>2026-04-25T13:00:34Z</time></trkpt><trkpt lat="43.69354008260437" lon="12.675372227612067"><ele>187.0</ele><time>2026-04-25T13:00:35Z</time></trkpt><trkpt lat="43.693635037094296" lon="12.675379168063026"><ele>187.0</ele><time>2026-04-25T13:00:36Z</time></trkpt><trkpt lat="43.693715957134714" lon="12.675391543648278"><ele>187.0</ele><time>2026-04-25T13:00:37Z</time></trkpt><trkpt lat="43.69379087743822" lon="12.675418546378054"><ele>185.8</ele><time>2026-04-25T13:00:38Z</time></trkpt><trkpt lat="43.693848712063996" lon="12.675481989483389"><ele>184.6</ele><time>2026-04-25T13:00:39Z</time></trkpt><trkpt lat="43.693931229514156" lon="12.675585056770833"><ele>183.4</ele><time>2026-04-25T13:00:40Z</time></trkpt><trkpt lat="43.69401497877847" lon="12.675676018792764"><ele>182.20000000000002</ele><time>2026-04-25T13:00:41Z</time></trkpt><trkpt lat="43.694097648243776" lon="12.675751692964083"><ele>181.0</ele><time>2026-04-25T13:00:42Z</time></trkpt><trkpt lat="43.69420311250753" lon="12.675803470039918"><ele>181.0</ele><time>2026-04-25T13:00:43Z</time></trkpt><trkpt lat="43.694315549244436" lon="12.675791645768422"><ele>181.0</ele><time>2026-04-25T13:00:44Z</time></trkpt><trkpt lat="43.69443359822599" lon="12.675792332261294"><ele>181.0</ele><time>2026-04-25T13:00:45Z</time></trkpt><trkpt lat="43.69454835859477" lon="12.675806614729145"><ele>181.0</ele><time>2026-04-25T13:00:46Z</time></trkpt><trkpt lat="43.69465470619351" lon="12.675833776244149"><ele>179.25</ele><time>2026-04-25T13:00:47Z</time></trkpt><trkpt lat="43.694767816130316" lon="12.675878593979489"><ele>177.5</ele><time>2026-04-25T13:00:48Z</time></trkpt><trkpt lat="43.6948885387026" lon="12.675934545737391"><ele>175.75</ele><time>2026-04-25T13:00:49Z</time></trkpt><trkpt lat="43.69500420809309" lon="12.675995792722057"><ele>174.0</ele><time>2026-04-25T13:00:50Z</time></trkpt><trkpt lat="43.69510523467067" lon="12.676048319781588"><ele>174.0</ele><time>2026-04-25T13:00:51Z</time></trkpt><trkpt lat="43.695194956897275" lon="12.676098635960003"><ele>174.0</ele><time>2026-04-25T13:00:52Z</time></trkpt><trkpt lat="43.695256122160856" lon="12.676152190996227"><ele>174.0</ele><time>2026-04-25T13:00:53Z</time></trkpt><trkpt lat="43.69532654970269" lon="12.676210211905413"><ele>174.0</ele><time>2026-04-25T13:00:54Z</time></trkpt><trkpt lat="43.69537162585369" lon="12.676329664031192"><ele>174.0</ele><time>2026-04-25T13:00:55Z</time></trkpt><trkpt lat="43.6954226152788" lon="12.676452660388888"><ele>173.79999999999998</ele><time>2026-04-25T13:00:56Z</time></trkpt><trkpt lat="43.695495903271244" lon="12.676575198996975"><ele>173.6</ele><time>2026-04-25T13:00:57Z</time></trkpt><trkpt lat="43.69558024801176" lon="12.67665449671844"><ele>173.4</ele><time>2026-04-25T13:00:58Z</time></trkpt><trkpt lat="43.6956750532173" lon="12.676726610816228"><ele>173.2</ele><time>2026-04-25T13:00:59Z</time></trkpt><trkpt lat="43.695758456543615" lon="12.67678997948212"><ele>173.0</ele><time>2026-04-25T13:01:00Z</time></trkpt><trkpt lat="43.695828279563266" lon="12.676836156061935"><ele>173.0</ele><time>2026-04-25T13:01:01Z</time></trkpt><trkpt lat="43.69594109001248" lon="12.67688553445412"><ele>173.0</ele><time>2026-04-25T13:01:03Z</time></trkpt><trkpt lat="43.69603557313378" lon="12.676870354203775"><ele>173.0</ele><time>2026-04-25T13:01:05Z</time></trkpt><trkpt lat="43.69607669474617" lon="12.676791963868478"><ele>173.0</ele><time>2026-04-25T13:01:07Z</time></trkpt><trkpt lat="43.69612578365917" lon="12.67671037480602"><ele>173.0</ele><time>2026-04-25T13:01:09Z</time></trkpt><trkpt lat="43.696105953278305" lon="12.676592297431247"><ele>173.0</ele><time>2026-04-25T13:01:10Z</time></trkpt><trkpt lat="43.69616431152386" lon="12.676501891898607"><ele>171.16666666666666</ele><time>2026-04-25T13:01:12Z</time></trkpt><trkpt lat="43.696227115426076" lon="12.6764368397195"><ele>169.33333333333331</ele><time>2026-04-25T13:01:14Z</time></trkpt><trkpt lat="43.69630700844108" lon="12.676493662525544"><ele>167.5</ele><time>2026-04-25T13:01:16Z</time></trkpt><trkpt lat="43.69634085547721" lon="12.676576258048483"><ele>165.66666666666666</ele><time>2026-04-25T13:01:17Z</time></trkpt><trkpt lat="43.69637451048756" lon="12.676682953701023"><ele>163.83333333333334</ele><time>2026-04-25T13:01:18Z</time></trkpt><trkpt lat="43.696403578725075" lon="12.676769111395883"><ele>162.0</ele><time>2026-04-25T13:01:19Z</time></trkpt><trkpt lat="43.69647202599414" lon="12.676869232721897"><ele>162.0</ele><time>2026-04-25T13:01:21Z</time></trkpt><trkpt lat="43.69658071727439" lon="12.67684484912375"><ele>162.0</ele><time>2026-04-25T13:01:23Z</time></trkpt><trkpt lat="43.69668874090442" lon="12.676800899388942"><ele>162.0</ele><time>2026-04-25T13:01:25Z</time></trkpt><trkpt lat="43.69678394933442" lon="12.67673195009363"><ele>162.0</ele><time>2026-04-25T13:01:27Z</time></trkpt><trkpt lat="43.69684384595524" lon="12.676699532016245"><ele>162.0</ele><time>2026-04-25T13:01:28Z</time></trkpt><trkpt lat="43.69695602104121" lon="12.67665094493358"><ele>162.6</ele><time>2026-04-25T13:01:30Z</time></trkpt><trkpt lat="43.69705280641872" lon="12.676711274115034"><ele>163.2</ele><time>2026-04-25T13:01:32Z</time></trkpt><trkpt lat="43.697090112604265" lon="12.676798398835873"><ele>163.8</ele><time>2026-04-25T13:01:33Z</time></trkpt><trkpt lat="43.69714517939463" lon="12.67689456958406"><ele>164.4</ele><time>2026-04-25T13:01:34Z</time></trkpt><trkpt lat="43.697203949007296" lon="12.676996900689886"><ele>165.0</ele><time>2026-04-25T13:01:35Z</time></trkpt><trkpt lat="43.69726545947167" lon="12.677099600101341"><ele>165.0</ele><time>2026-04-25T13:01:36Z</time></trkpt><trkpt lat="43.697318094737994" lon="12.677184584745035"><ele>165.0</ele><time>2026-04-25T13:01:37Z</time></trkpt><trkpt lat="43.69739205955896" lon="12.677290613335328"><ele>165.0</ele><time>2026-04-25T13:01:39Z</time></trkpt><trkpt lat="43.69744860572926" lon="12.677341073687504"><ele>165.0</ele><time>2026-04-25T13:01:41Z</time></trkpt><trkpt lat="43.69747068398914" lon="12.67742500958705"><ele>165.0</ele><time>2026-04-25T13:01:42Z</time></trkpt><trkpt lat="43.69758424564325" lon="12.677585175797178"><ele>165.0</ele><time>2026-04-25T13:01:44Z</time></trkpt><trkpt lat="43.697674697098584" lon="12.67766967137715"><ele>165.0</ele><time>2026-04-25T13:01:45Z</time></trkpt><trkpt lat="43.697783423571906" lon="12.677743745403545"><ele>165.0</ele><time>2026-04-25T13:01:46Z</time></trkpt><trkpt lat="43.6979018924533" lon="12.677795908516929"><ele>165.0</ele><time>2026-04-25T13:01:47Z</time></trkpt><trkpt lat="43.69801141404569" lon="12.677841560964996"><ele>164.2</ele><time>2026-04-25T13:01:48Z</time></trkpt><trkpt lat="43.69811243674436" lon="12.677884231362302"><ele>163.4</ele><time>2026-04-25T13:01:49Z</time></trkpt><trkpt lat="43.69820533068769" lon="12.677925194814392"><ele>162.60000000000002</ele><time>2026-04-25T13:01:50Z</time></trkpt><trkpt lat="43.69829307967263" lon="12.677964451149673"><ele>161.8</ele><time>2026-04-25T13:01:51Z</time></trkpt><trkpt lat="43.69838642859701" lon="12.678004964328125"><ele>161.0</ele><time>2026-04-25T13:01:52Z</time></trkpt><trkpt lat="43.69848936871358" lon="12.678047549172742"><ele>163.75</ele><time>2026-04-25T13:01:53Z</time></trkpt><trkpt lat="43.69860326593152" lon="12.678094818254445"><ele>166.5</ele><time>2026-04-25T13:01:54Z</time></trkpt><trkpt lat="43.69872876500887" lon="12.67814399137788"><ele>169.25</ele><time>2026-04-25T13:01:55Z</time></trkpt><trkpt lat="43.698857038304794" lon="12.678197106634466"><ele>172.0</ele><time>2026-04-25T13:01:56Z</time></trkpt><trkpt lat="43.69899124287964" lon="12.678258457051273"><ele>172.0</ele><time>2026-04-25T13:01:57Z</time></trkpt><trkpt lat="43.69912595822264" lon="12.678311172990448"><ele>172.0</ele><time>2026-04-25T13:01:58Z</time></trkpt><trkpt lat="43.69925565848628" lon="12.678363094879481"><ele>172.0</ele><time>2026-04-25T13:01:59Z</time></trkpt><trkpt lat="43.69938270496409" lon="12.678432510092811"><ele>172.0</ele><time>2026-04-25T13:02:00Z</time></trkpt><trkpt lat="43.699506436823214" lon="12.678518138494875"><ele>171.0</ele><time>2026-04-25T13:02:01Z</time></trkpt><trkpt lat="43.69963088488776" lon="12.678621405786311"><ele>170.0</ele><time>2026-04-25T13:02:02Z</time></trkpt><trkpt lat="43.69975365329414" lon="12.678730676353528"><ele>169.0</ele><time>2026-04-25T13:02:03Z</time></trkpt><trkpt lat="43.699867018742026" lon="12.678839924343453"><ele>168.0</ele><time>2026-04-25T13:02:04Z</time></trkpt><trkpt lat="43.69997773519664" lon="12.678960285591506"><ele>168.0</ele><time>2026-04-25T13:02:05Z</time></trkpt><trkpt lat="43.70008210059156" lon="12.679105110745034"><ele>168.0</ele><time>2026-04-25T13:02:06Z</time></trkpt><trkpt lat="43.700169044277786" lon="12.67928051239425"><ele>168.0</ele><time>2026-04-25T13:02:07Z</time></trkpt><trkpt lat="43.700241872525" lon="12.67946435771723"><ele>167.25</ele><time>2026-04-25T13:02:08Z</time></trkpt><trkpt lat="43.7003107835406" lon="12.679644532756505"><ele>166.5</ele><time>2026-04-25T13:02:09Z</time></trkpt><trkpt lat="43.700393493513594" lon="12.679813653554984"><ele>165.75</ele><time>2026-04-25T13:02:10Z</time></trkpt><trkpt lat="43.700493919834834" lon="12.67996891992458"><ele>165.0</ele><time>2026-04-25T13:02:11Z</time></trkpt><trkpt lat="43.70061295039837" lon="12.680092844037526"><ele>165.0</ele><time>2026-04-25T13:02:12Z</time></trkpt><trkpt lat="43.70075196958223" lon="12.680193155682938"><ele>165.0</ele><time>2026-04-25T13:02:13Z</time></trkpt><trkpt lat="43.70088787590614" lon="12.680275807133572"><ele>165.0</ele><time>2026-04-25T13:02:14Z</time></trkpt><trkpt lat="43.701009387204415" lon="12.680332234835069"><ele>165.0</ele><time>2026-04-25T13:02:15Z</time></trkpt><trkpt lat="43.701122104211386" lon="12.680382494668855"><ele>166.2</ele><time>2026-04-25T13:02:16Z</time></trkpt><trkpt lat="43.70120904022286" lon="12.680458818265807"><ele>167.4</ele><time>2026-04-25T13:02:17Z</time></trkpt><trkpt lat="43.701270893333" lon="12.680560858909859"><ele>168.60000000000002</ele><time>2026-04-25T13:02:18Z</time></trkpt><trkpt lat="43.701297147117664" lon="12.68069885390723"><ele>169.8</ele><time>2026-04-25T13:02:19Z</time></trkpt><trkpt lat="43.70131880003482" lon="12.680853683687943"><ele>171.0</ele><time>2026-04-25T13:02:20Z</time></trkpt><trkpt lat="43.70135892491425" lon="12.681023498338623"><ele>170.25</ele><time>2026-04-25T13:02:21Z</time></trkpt><trkpt lat="43.7013921841953" lon="12.681213709609818"><ele>169.5</ele><time>2026-04-25T13:02:22Z</time></trkpt><trkpt lat="43.70142649021313" lon="12.681412434889754"><ele>168.75</ele><time>2026-04-25T13:02:23Z</time></trkpt><trkpt lat="43.70145953958163" lon="12.681594126482942"><ele>168.0</ele><time>2026-04-25T13:02:24Z</time></trkpt><trkpt lat="43.701490908167706" lon="12.681767850559737"><ele>167.25</ele><time>2026-04-25T13:02:25Z</time></trkpt><trkpt lat="43.701522892830134" lon="12.6819413624172"><ele>166.5</ele><time>2026-04-25T13:02:26Z</time></trkpt><trkpt lat="43.70155657584152" lon="12.682120371012203"><ele>165.75</ele><time>2026-04-25T13:02:27Z</time></trkpt><trkpt lat="43.701590951358156" lon="12.682296150388876"><ele>165.0</ele><time>2026-04-25T13:02:28Z</time></trkpt><trkpt lat="43.70162567013569" lon="12.682457374190301"><ele>165.0</ele><time>2026-04-25T13:02:29Z</time></trkpt><trkpt lat="43.70165713823057" lon="12.682622871211658"><ele>165.0</ele><time>2026-04-25T13:02:30Z</time></trkpt><trkpt lat="43.70168512889005" lon="12.682771443289782"><ele>165.0</ele><time>2026-04-25T13:02:31Z</time></trkpt><trkpt lat="43.70171230272136" lon="12.682904898382917"><ele>165.0</ele><time>2026-04-25T13:02:32Z</time></trkpt><trkpt lat="43.701732859076714" lon="12.68302486383573"><ele>165.0</ele><time>2026-04-25T13:02:33Z</time></trkpt><trkpt lat="43.70174599182814" lon="12.683152633027477"><ele>165.0</ele><time>2026-04-25T13:02:34Z</time></trkpt><trkpt lat="43.70173529270263" lon="12.683292617833521"><ele>165.0</ele><time>2026-04-25T13:02:35Z</time></trkpt><trkpt lat="43.70168574137496" lon="12.683427398526037"><ele>165.0</ele><time>2026-04-25T13:02:36Z</time></trkpt><trkpt lat="43.701623774367405" lon="12.683568516162483"><ele>165.0</ele><time>2026-04-25T13:02:37Z</time></trkpt><trkpt lat="43.70156864545587" lon="12.683736300056959"><ele>166.0</ele><time>2026-04-25T13:02:38Z</time></trkpt><trkpt lat="43.7014894734288" lon="12.683900292346337"><ele>167.0</ele><time>2026-04-25T13:02:39Z</time></trkpt><trkpt lat="43.70140806816974" lon="12.684072367371444"><ele>168.0</ele><time>2026-04-25T13:02:40Z</time></trkpt><trkpt lat="43.70132708254651" lon="12.684258598740593"><ele>169.0</ele><time>2026-04-25T13:02:41Z</time></trkpt><trkpt lat="43.70124887943999" lon="12.684444892791019"><ele>170.0</ele><time>2026-04-25T13:02:42Z</time></trkpt><trkpt lat="43.70118286871871" lon="12.68460587088806"><ele>171.0</ele><time>2026-04-25T13:02:43Z</time></trkpt><trkpt lat="43.70112088591171" lon="12.684747407640353"><ele>172.0</ele><time>2026-04-25T13:02:44Z</time></trkpt><trkpt lat="43.701068000717136" lon="12.684872895758494"><ele>173.0</ele><time>2026-04-25T13:02:45Z</time></trkpt><trkpt lat="43.701015058827025" lon="12.684985634675305"><ele>173.0</ele><time>2026-04-25T13:02:46Z</time></trkpt><trkpt lat="43.70094796339025" lon="12.685084514354559"><ele>173.0</ele><time>2026-04-25T13:02:47Z</time></trkpt><trkpt lat="43.70086138434756" lon="12.685163374377446"><ele>173.0</ele><time>2026-04-25T13:02:48Z</time></trkpt><trkpt lat="43.7007673139674" lon="12.685235593988242"><ele>173.0</ele><time>2026-04-25T13:02:49Z</time></trkpt><trkpt lat="43.70066571472148" lon="12.685293222227804"><ele>173.0</ele><time>2026-04-25T13:02:50Z</time></trkpt><trkpt lat="43.70055051133983" lon="12.685327767225147"><ele>173.25</ele><time>2026-04-25T13:02:51Z</time></trkpt><trkpt lat="43.700424727341364" lon="12.685334697192426"><ele>173.5</ele><time>2026-04-25T13:02:52Z</time></trkpt><trkpt lat="43.700308361751595" lon="12.685277148931133"><ele>173.75</ele><time>2026-04-25T13:02:53Z</time></trkpt><trkpt lat="43.70017641047823" lon="12.685237701347189"><ele>174.0</ele><time>2026-04-25T13:02:54Z</time></trkpt><trkpt lat="43.700065187037254" lon="12.685220899508444"><ele>174.0</ele><time>2026-04-25T13:02:55Z</time></trkpt><trkpt lat="43.699968967861714" lon="12.685193669853328"><ele>174.0</ele><time>2026-04-25T13:02:56Z</time></trkpt><trkpt lat="43.69988134812721" lon="12.685193149779874"><ele>174.0</ele><time>2026-04-25T13:02:57Z</time></trkpt><trkpt lat="43.69979452769114" lon="12.685233780950098"><ele>174.0</ele><time>2026-04-25T13:02:58Z</time></trkpt><trkpt lat="43.6997203433215" lon="12.685319961537504"><ele>174.0</ele><time>2026-04-25T13:02:59Z</time></trkpt><trkpt lat="43.69966014274204" lon="12.685443952742556"><ele>176.0</ele><time>2026-04-25T13:03:00Z</time></trkpt><trkpt lat="43.699612017701654" lon="12.685598060539586"><ele>178.0</ele><time>2026-04-25T13:03:01Z</time></trkpt><trkpt lat="43.69956536741029" lon="12.68577138917474"><ele>180.0</ele><time>2026-04-25T13:03:02Z</time></trkpt><trkpt lat="43.699509169736956" lon="12.685955811125131"><ele>182.0</ele><time>2026-04-25T13:03:03Z</time></trkpt><trkpt lat="43.69944780684168" lon="12.68614705259074"><ele>180.33333333333331</ele><time>2026-04-25T13:03:04Z</time></trkpt><trkpt lat="43.69938169145506" lon="12.686343367505343"><ele>178.66666666666666</ele><time>2026-04-25T13:03:05Z</time></trkpt><trkpt lat="43.69930986240275" lon="12.686545206830045"><ele>177.0</ele><time>2026-04-25T13:03:06Z</time></trkpt><trkpt lat="43.69923163526518" lon="12.6867458324689"><ele>177.33333333333334</ele><time>2026-04-25T13:03:07Z</time></trkpt><trkpt lat="43.69915459471852" lon="12.686938298363682"><ele>177.66666666666669</ele><time>2026-04-25T13:03:08Z</time></trkpt><trkpt lat="43.69908439218802" lon="12.687124690455354"><ele>178.0</ele><time>2026-04-25T13:03:09Z</time></trkpt><trkpt lat="43.69901999905849" lon="12.687302176709412"><ele>178.0</ele><time>2026-04-25T13:03:10Z</time></trkpt><trkpt lat="43.69896219907135" lon="12.687470378523557"><ele>178.0</ele><time>2026-04-25T13:03:11Z</time></trkpt><trkpt lat="43.69891149443366" lon="12.687623264013444"><ele>178.0</ele><time>2026-04-25T13:03:12Z</time></trkpt><trkpt lat="43.69886039341965" lon="12.687757916521534"><ele>178.0</ele><time>2026-04-25T13:03:13Z</time></trkpt><trkpt lat="43.69880680423997" lon="12.6878851557189"><ele>177.25</ele><time>2026-04-25T13:03:14Z</time></trkpt><trkpt lat="43.69878016611218" lon="12.688015809085819"><ele>176.5</ele><time>2026-04-25T13:03:15Z</time></trkpt><trkpt lat="43.69874425976165" lon="12.688126336546748"><ele>175.75</ele><time>2026-04-25T13:03:16Z</time></trkpt><trkpt lat="43.698714779364096" lon="12.688217082920309"><ele>175.0</ele><time>2026-04-25T13:03:17Z</time></trkpt><trkpt lat="43.69849986323665" lon="12.688157184617356"><ele>173.75</ele><time>2026-04-25T13:03:18Z</time></trkpt><trkpt lat="43.69839646335093" lon="12.688137758648095"><ele>172.5</ele><time>2026-04-25T13:03:19Z</time></trkpt><trkpt lat="43.69828133565836" lon="12.688105881525162"><ele>171.25</ele><time>2026-04-25T13:03:20Z</time></trkpt><trkpt lat="43.69816073467349" lon="12.688082561449379"><ele>170.0</ele><time>2026-04-25T13:03:21Z</time></trkpt><trkpt lat="43.698034671627056" lon="12.68806080012966"><ele>170.0</ele><time>2026-04-25T13:03:22Z</time></trkpt><trkpt lat="43.69791530392482" lon="12.688038677268878"><ele>170.0</ele><time>2026-04-25T13:03:23Z</time></trkpt><trkpt lat="43.697810094075905" lon="12.688020784451224"><ele>170.0</ele><time>2026-04-25T13:03:24Z</time></trkpt><trkpt lat="43.69770852256021" lon="12.688013477837494"><ele>170.0</ele><time>2026-04-25T13:03:25Z</time></trkpt><trkpt lat="43.69759538618147" lon="12.688039897338156"><ele>170.0</ele><time>2026-04-25T13:03:26Z</time></trkpt><trkpt lat="43.69749282989116" lon="12.688127489618113"><ele>168.75</ele><time>2026-04-25T13:03:27Z</time></trkpt><trkpt lat="43.69740342411908" lon="12.688223058422372"><ele>167.5</ele><time>2026-04-25T13:03:28Z</time></trkpt><trkpt lat="43.69733110320361" lon="12.688340194753266"><ele>166.25</ele><time>2026-04-25T13:03:29Z</time></trkpt><trkpt lat="43.69727684223381" lon="12.688482493904015"><ele>165.0</ele><time>2026-04-25T13:03:30Z</time></trkpt><trkpt lat="43.69724626887295" lon="12.688647198971934"><ele>164.5</ele><time>2026-04-25T13:03:31Z</time></trkpt><trkpt lat="43.69724820604951" lon="12.688820886620535"><ele>164.0</ele><time>2026-04-25T13:03:32Z</time></trkpt><trkpt lat="43.69727796138017" lon="12.688990871462362"><ele>163.5</ele><time>2026-04-25T13:03:33Z</time></trkpt><trkpt lat="43.697336099999525" lon="12.689160936757444"><ele>163.0</ele><time>2026-04-25T13:03:34Z</time></trkpt><trkpt lat="43.697395452592026" lon="12.689343100296707"><ele>162.75</ele><time>2026-04-25T13:03:35Z</time></trkpt><trkpt lat="43.69746504696186" lon="12.689517411178787"><ele>162.5</ele><time>2026-04-25T13:03:36Z</time></trkpt><trkpt lat="43.69751672273714" lon="12.689700651238944"><ele>162.25</ele><time>2026-04-25T13:03:37Z</time></trkpt><trkpt lat="43.69754998890287" lon="12.689888014060855"><ele>162.0</ele><time>2026-04-25T13:03:38Z</time></trkpt><trkpt lat="43.69756518139279" lon="12.690075133403358"><ele>162.5</ele><time>2026-04-25T13:03:39Z</time></trkpt><trkpt lat="43.697563406708" lon="12.69026164343872"><ele>163.0</ele><time>2026-04-25T13:03:40Z</time></trkpt><trkpt lat="43.69755099613119" lon="12.690449734265652"><ele>163.5</ele><time>2026-04-25T13:03:41Z</time></trkpt><trkpt lat="43.69753678331742" lon="12.690645349669087"><ele>164.0</ele><time>2026-04-25T13:03:42Z</time></trkpt><trkpt lat="43.6975217890633" lon="12.690845380331547"><ele>164.0</ele><time>2026-04-25T13:03:43Z</time></trkpt><trkpt lat="43.69750737628065" lon="12.691052166212366"><ele>164.0</ele><time>2026-04-25T13:03:44Z</time></trkpt><trkpt lat="43.69748346935827" lon="12.691261331230836"><ele>164.0</ele><time>2026-04-25T13:03:45Z</time></trkpt><trkpt lat="43.69744674365533" lon="12.691467134512086"><ele>164.0</ele><time>2026-04-25T13:03:46Z</time></trkpt><trkpt lat="43.69739240105261" lon="12.69166666566543"><ele>164.0</ele><time>2026-04-25T13:03:47Z</time></trkpt><trkpt lat="43.69732035484718" lon="12.6918609981934"><ele>164.0</ele><time>2026-04-25T13:03:48Z</time></trkpt><trkpt lat="43.697245650491645" lon="12.692041396985418"><ele>164.0</ele><time>2026-04-25T13:03:49Z</time></trkpt><trkpt lat="43.69717145295105" lon="12.692224063288567"><ele>164.0</ele><time>2026-04-25T13:03:50Z</time></trkpt><trkpt lat="43.69709712716333" lon="12.692415534020657"><ele>164.0</ele><time>2026-04-25T13:03:51Z</time></trkpt><trkpt lat="43.697017454529195" lon="12.692610952638965"><ele>163.75</ele><time>2026-04-25T13:03:52Z</time></trkpt><trkpt lat="43.69693588864187" lon="12.692792540972437"><ele>163.5</ele><time>2026-04-25T13:03:53Z</time></trkpt><trkpt lat="43.69685633738306" lon="12.692954907370856"><ele>163.25</ele><time>2026-04-25T13:03:54Z</time></trkpt><trkpt lat="43.69677780930382" lon="12.693100634337275"><ele>163.0</ele><time>2026-04-25T13:03:55Z</time></trkpt><trkpt lat="43.696691264924915" lon="12.693254521126143"><ele>163.0</ele><time>2026-04-25T13:03:56Z</time></trkpt><trkpt lat="43.69660376936569" lon="12.693417189298536"><ele>163.0</ele><time>2026-04-25T13:03:57Z</time></trkpt><trkpt lat="43.69651578299679" lon="12.693586889878299"><ele>163.0</ele><time>2026-04-25T13:03:58Z</time></trkpt><trkpt lat="43.6964224257682" lon="12.693753513202525"><ele>163.0</ele><time>2026-04-25T13:03:59Z</time></trkpt><trkpt lat="43.696331203328405" lon="12.693914656794634"><ele>163.0</ele><time>2026-04-25T13:04:00Z</time></trkpt><trkpt lat="43.696241440652955" lon="12.694072659590804"><ele>163.0</ele><time>2026-04-25T13:04:01Z</time></trkpt><trkpt lat="43.696153509649236" lon="12.694224861995318"><ele>163.0</ele><time>2026-04-25T13:04:02Z</time></trkpt><trkpt lat="43.69606411641926" lon="12.694382940550446"><ele>163.0</ele><time>2026-04-25T13:04:03Z</time></trkpt><trkpt lat="43.69596862120837" lon="12.69454827378386"><ele>163.0</ele><time>2026-04-25T13:04:04Z</time></trkpt><trkpt lat="43.69587203221464" lon="12.69471499694738"><ele>163.0</ele><time>2026-04-25T13:04:05Z</time></trkpt><trkpt lat="43.69577237036611" lon="12.694884157146216"><ele>163.0</ele><time>2026-04-25T13:04:06Z</time></trkpt><trkpt lat="43.69568875641322" lon="12.695067391209097"><ele>163.0</ele><time>2026-04-25T13:04:07Z</time></trkpt><trkpt lat="43.69557927235212" lon="12.695217764400807"><ele>163.0</ele><time>2026-04-25T13:04:08Z</time></trkpt><trkpt lat="43.69548665854057" lon="12.695385863590667"><ele>163.0</ele><time>2026-04-25T13:04:09Z</time></trkpt><trkpt lat="43.69539581452557" lon="12.695552030422897"><ele>163.0</ele><time>2026-04-25T13:04:10Z</time></trkpt><trkpt lat="43.69529793493396" lon="12.695713730897412"><ele>163.0</ele><time>2026-04-25T13:04:11Z</time></trkpt><trkpt lat="43.69518893615014" lon="12.695867132258416"><ele>163.0</ele><time>2026-04-25T13:04:12Z</time></trkpt><trkpt lat="43.69506681371754" lon="12.696012417843843"><ele>163.0</ele><time>2026-04-25T13:04:13Z</time></trkpt><trkpt lat="43.69493700931829" lon="12.696149929391645"><ele>163.0</ele><time>2026-04-25T13:04:14Z</time></trkpt><trkpt lat="43.69480215427739" lon="12.696273281494323"><ele>163.66666666666669</ele><time>2026-04-25T13:04:15Z</time></trkpt><trkpt lat="43.694671917841326" lon="12.696387174446677"><ele>164.33333333333334</ele><time>2026-04-25T13:04:16Z</time></trkpt><trkpt lat="43.69454625320758" lon="12.696491430377682"><ele>165.0</ele><time>2026-04-25T13:04:17Z</time></trkpt><trkpt lat="43.69442030212711" lon="12.696604086722703"><ele>165.25</ele><time>2026-04-25T13:04:18Z</time></trkpt><trkpt lat="43.69429979482934" lon="12.696712550706675"><ele>165.5</ele><time>2026-04-25T13:04:19Z</time></trkpt><trkpt lat="43.69417937164276" lon="12.69681954769963"><ele>165.75</ele><time>2026-04-25T13:04:20Z</time></trkpt><trkpt lat="43.694057506289624" lon="12.696925798890755"><ele>166.0</ele><time>2026-04-25T13:04:21Z</time></trkpt><trkpt lat="43.693928606021046" lon="12.697031903926012"><ele>166.0</ele><time>2026-04-25T13:04:22Z</time></trkpt><trkpt lat="43.69379625258403" lon="12.697138849045844"><ele>166.0</ele><time>2026-04-25T13:04:23Z</time></trkpt><trkpt lat="43.69366219346911" lon="12.697258163526289"><ele>166.0</ele><time>2026-04-25T13:04:24Z</time></trkpt><trkpt lat="43.69352458158631" lon="12.697389256776878"><ele>166.0</ele><time>2026-04-25T13:04:25Z</time></trkpt><trkpt lat="43.693387396330415" lon="12.697534012411197"><ele>166.0</ele><time>2026-04-25T13:04:26Z</time></trkpt><trkpt lat="43.6932562102211" lon="12.697686715996944"><ele>166.0</ele><time>2026-04-25T13:04:27Z</time></trkpt><trkpt lat="43.69314170474202" lon="12.697836099071608"><ele>167.0</ele><time>2026-04-25T13:04:28Z</time></trkpt><trkpt lat="43.69304001162171" lon="12.697982257864242"><ele>168.0</ele><time>2026-04-25T13:04:29Z</time></trkpt><trkpt lat="43.69294730544262" lon="12.698116847165098"><ele>169.0</ele><time>2026-04-25T13:04:30Z</time></trkpt><trkpt lat="43.69286276613144" lon="12.698244630853843"><ele>170.0</ele><time>2026-04-25T13:04:31Z</time></trkpt><trkpt lat="43.69278493760646" lon="12.698352136993451"><ele>169.33333333333331</ele><time>2026-04-25T13:04:32Z</time></trkpt><trkpt lat="43.69272217218331" lon="12.698453341294194"><ele>168.66666666666666</ele><time>2026-04-25T13:04:33Z</time></trkpt><trkpt lat="43.69265859075038" lon="12.698527327177544"><ele>168.0</ele><time>2026-04-25T13:04:34Z</time></trkpt><trkpt lat="43.692607896645555" lon="12.69858491905224"><ele>167.33333333333334</ele><time>2026-04-25T13:04:35Z</time></trkpt><trkpt lat="43.692558634005984" lon="12.69864982741554"><ele>166.66666666666669</ele><time>2026-04-25T13:04:37Z</time></trkpt><trkpt lat="43.69259623794277" lon="12.698748356675754"><ele>166.0</ele><time>2026-04-25T13:04:39Z</time></trkpt><trkpt lat="43.69269741473066" lon="12.698864304974817"><ele>167.0</ele><time>2026-04-25T13:04:41Z</time></trkpt><trkpt lat="43.69277722458411" lon="12.69892360691883"><ele>168.0</ele><time>2026-04-25T13:04:42Z</time></trkpt><trkpt lat="43.69286772265205" lon="12.698983139189933"><ele>169.0</ele><time>2026-04-25T13:04:43Z</time></trkpt><trkpt lat="43.692965062114155" lon="12.699055713552015"><ele>170.0</ele><time>2026-04-25T13:04:44Z</time></trkpt><trkpt lat="43.69305206721198" lon="12.69913270664364"><ele>171.0</ele><time>2026-04-25T13:04:45Z</time></trkpt><trkpt lat="43.69315267602978" lon="12.6992018439107"><ele>171.0</ele><time>2026-04-25T13:04:46Z</time></trkpt><trkpt lat="43.69324455575226" lon="12.699274170836656"><ele>171.0</ele><time>2026-04-25T13:04:47Z</time></trkpt><trkpt lat="43.69334806182183" lon="12.69935574554754"><ele>171.0</ele><time>2026-04-25T13:04:48Z</time></trkpt><trkpt lat="43.693453376686115" lon="12.699435505714254"><ele>171.0</ele><time>2026-04-25T13:04:49Z</time></trkpt><trkpt lat="43.69356220542159" lon="12.699520405244645"><ele>171.5</ele><time>2026-04-25T13:04:50Z</time></trkpt><trkpt lat="43.69366995498741" lon="12.699616688806676"><ele>172.0</ele><time>2026-04-25T13:04:51Z</time></trkpt><trkpt lat="43.693780498805346" lon="12.699699549074179"><ele>172.5</ele><time>2026-04-25T13:04:52Z</time></trkpt><trkpt lat="43.69388916339467" lon="12.699786166122529"><ele>173.0</ele><time>2026-04-25T13:04:53Z</time></trkpt><trkpt lat="43.69397303485483" lon="12.699854600998238"><ele>173.0</ele><time>2026-04-25T13:04:54Z</time></trkpt><trkpt lat="43.694055140355765" lon="12.699910627877102"><ele>173.0</ele><time>2026-04-25T13:04:55Z</time></trkpt><trkpt lat="43.694115014442964" lon="12.69995530633447"><ele>173.0</ele><time>2026-04-25T13:04:57Z</time></trkpt><trkpt lat="43.69422308867389" lon="12.700051846286106"><ele>173.0</ele><time>2026-04-25T13:05:13Z</time></trkpt><trkpt lat="43.694291391115165" lon="12.700101616526764"><ele>173.0</ele><time>2026-04-25T13:05:14Z</time></trkpt><trkpt lat="43.69435926571496" lon="12.700153605426209"><ele>173.0</ele><time>2026-04-25T13:05:15Z</time></trkpt><trkpt lat="43.69441996812398" lon="12.700206417307617"><ele>174.0</ele><time>2026-04-25T13:05:16Z</time></trkpt><trkpt lat="43.694529145874014" lon="12.700306589374723"><ele>175.0</ele><time>2026-04-25T13:05:18Z</time></trkpt><trkpt lat="43.694578518809834" lon="12.700385601745158"><ele>176.0</ele><time>2026-04-25T13:05:19Z</time></trkpt><trkpt lat="43.69464934468354" lon="12.700447292421678"><ele>177.0</ele><time>2026-04-25T13:05:20Z</time></trkpt><trkpt lat="43.69472862911893" lon="12.700510396579828"><ele>178.0</ele><time>2026-04-25T13:05:21Z</time></trkpt><trkpt lat="43.69482527327467" lon="12.700560749365074"><ele>178.0</ele><time>2026-04-25T13:05:22Z</time></trkpt><trkpt lat="43.69491961972429" lon="12.700627255190133"><ele>178.0</ele><time>2026-04-25T13:05:23Z</time></trkpt><trkpt lat="43.69501683395155" lon="12.700694411875505"><ele>178.0</ele><time>2026-04-25T13:05:24Z</time></trkpt><trkpt lat="43.69512087529247" lon="12.700765576503686"><ele>178.0</ele><time>2026-04-25T13:05:25Z</time></trkpt><trkpt lat="43.69523144363708" lon="12.700834807910844"><ele>179.25</ele><time>2026-04-25T13:05:26Z</time></trkpt><trkpt lat="43.69534310953313" lon="12.700908030487328"><ele>180.5</ele><time>2026-04-25T13:05:27Z</time></trkpt><trkpt lat="43.695443390487554" lon="12.700976667093114"><ele>181.75</ele><time>2026-04-25T13:05:28Z</time></trkpt><trkpt lat="43.69554417751656" lon="12.70105276932475"><ele>183.0</ele><time>2026-04-25T13:05:29Z</time></trkpt><trkpt lat="43.695641034905535" lon="12.701135564645423"><ele>183.25</ele><time>2026-04-25T13:05:30Z</time></trkpt><trkpt lat="43.69573213033257" lon="12.70121801039477"><ele>183.5</ele><time>2026-04-25T13:05:31Z</time></trkpt><trkpt lat="43.695851415111896" lon="12.701296284750097"><ele>183.75</ele><time>2026-04-25T13:05:32Z</time></trkpt><trkpt lat="43.695966325835165" lon="12.701381606969278"><ele>184.0</ele><time>2026-04-25T13:05:33Z</time></trkpt><trkpt lat="43.696076802250666" lon="12.701458565066416"><ele>184.5</ele><time>2026-04-25T13:05:34Z</time></trkpt><trkpt lat="43.69617604478376" lon="12.701526823190939"><ele>185.0</ele><time>2026-04-25T13:05:35Z</time></trkpt><trkpt lat="43.69624404509793" lon="12.701616427060161"><ele>185.5</ele><time>2026-04-25T13:05:36Z</time></trkpt><trkpt lat="43.696296358209715" lon="12.70169725337267"><ele>186.0</ele><time>2026-04-25T13:05:37Z</time></trkpt><trkpt lat="43.69632130732334" lon="12.701788041363054"><ele>186.5</ele><time>2026-04-25T13:05:38Z</time></trkpt><trkpt lat="43.69636816620256" lon="12.701889593642761"><ele>187.0</ele><time>2026-04-25T13:05:39Z</time></trkpt><trkpt lat="43.696405364321315" lon="12.702012538886274"><ele>187.75</ele><time>2026-04-25T13:05:40Z</time></trkpt><trkpt lat="43.696453727614994" lon="12.702148974296144"><ele>188.5</ele><time>2026-04-25T13:05:41Z</time></trkpt><trkpt lat="43.69651124379101" lon="12.70229445811893"><ele>189.25</ele><time>2026-04-25T13:05:42Z</time></trkpt><trkpt lat="43.69657815912187" lon="12.702449764757937"><ele>190.0</ele><time>2026-04-25T13:05:43Z</time></trkpt><trkpt lat="43.696639039479265" lon="12.70261240744064"><ele>190.4</ele><time>2026-04-25T13:05:44Z</time></trkpt><trkpt lat="43.696697319088265" lon="12.702771517163587"><ele>190.8</ele><time>2026-04-25T13:05:45Z</time></trkpt><trkpt lat="43.69674024041793" lon="12.702904384794389"><ele>191.2</ele><time>2026-04-25T13:05:46Z</time></trkpt><trkpt lat="43.69677005765328" lon="12.703014129208636"><ele>191.6</ele><time>2026-04-25T13:05:47Z</time></trkpt><trkpt lat="43.69679678487646" lon="12.703104842090328"><ele>192.0</ele><time>2026-04-25T13:05:48Z</time></trkpt><trkpt lat="43.6967644403931" lon="12.703253520873666"><ele>192.0</ele><time>2026-04-25T13:05:50Z</time></trkpt><trkpt lat="43.69671186500884" lon="12.70334850024541"><ele>192.0</ele><time>2026-04-25T13:05:52Z</time></trkpt><trkpt lat="43.696614329496775" lon="12.703459401063402"><ele>192.0</ele><time>2026-04-25T13:05:54Z</time></trkpt><trkpt lat="43.69656219673739" lon="12.703554294022128"><ele>192.0</ele><time>2026-04-25T13:05:55Z</time></trkpt><trkpt lat="43.6965090524199" lon="12.703677662116512"><ele>192.0</ele><time>2026-04-25T13:05:56Z</time></trkpt><trkpt lat="43.696455609584675" lon="12.703816566121418"><ele>192.75</ele><time>2026-04-25T13:05:57Z</time></trkpt><trkpt lat="43.69641641432786" lon="12.703976661612423"><ele>193.5</ele><time>2026-04-25T13:05:58Z</time></trkpt><trkpt lat="43.696369859965806" lon="12.704145766026484"><ele>194.25</ele><time>2026-04-25T13:05:59Z</time></trkpt><trkpt lat="43.69634155666391" lon="12.704326121237493"><ele>195.0</ele><time>2026-04-25T13:06:00Z</time></trkpt><trkpt lat="43.696333051049685" lon="12.704506201509687"><ele>196.25</ele><time>2026-04-25T13:06:01Z</time></trkpt><trkpt lat="43.696333685131194" lon="12.704679856217334"><ele>197.5</ele><time>2026-04-25T13:06:02Z</time></trkpt><trkpt lat="43.696339794834834" lon="12.704842954934007"><ele>198.75</ele><time>2026-04-25T13:06:03Z</time></trkpt><trkpt lat="43.69636374331699" lon="12.704997862534574"><ele>200.0</ele><time>2026-04-25T13:06:04Z</time></trkpt><trkpt lat="43.69639879847552" lon="12.705122448408906"><ele>200.0</ele><time>2026-04-25T13:06:05Z</time></trkpt><trkpt lat="43.69642097514657" lon="12.70521837721985"><ele>200.0</ele><time>2026-04-25T13:06:06Z</time></trkpt><trkpt lat="43.69646164003199" lon="12.70536217281913"><ele>200.0</ele><time>2026-04-25T13:06:08Z</time></trkpt><trkpt lat="43.696500356065194" lon="12.705516743182097"><ele>200.0</ele><time>2026-04-25T13:06:10Z</time></trkpt><trkpt lat="43.69652419384434" lon="12.705610052727767"><ele>200.0</ele><time>2026-04-25T13:06:11Z</time></trkpt><trkpt lat="43.69654865663164" lon="12.705726905692902"><ele>199.8</ele><time>2026-04-25T13:06:12Z</time></trkpt><trkpt lat="43.69657934633172" lon="12.705852068414107"><ele>199.6</ele><time>2026-04-25T13:06:13Z</time></trkpt><trkpt lat="43.696603611884456" lon="12.70597909647096"><ele>199.39999999999998</ele><time>2026-04-25T13:06:14Z</time></trkpt><trkpt lat="43.69661047862849" lon="12.706102210360887"><ele>199.2</ele><time>2026-04-25T13:06:15Z</time></trkpt><trkpt lat="43.696576562649994" lon="12.706213136046827"><ele>199.0</ele><time>2026-04-25T13:06:16Z</time></trkpt><trkpt lat="43.69651622013645" lon="12.706298492477744"><ele>200.25</ele><time>2026-04-25T13:06:17Z</time></trkpt><trkpt lat="43.69644220233348" lon="12.706398788946037"><ele>201.5</ele><time>2026-04-25T13:06:18Z</time></trkpt><trkpt lat="43.69637202090441" lon="12.706529688246626"><ele>202.75</ele><time>2026-04-25T13:06:19Z</time></trkpt><trkpt lat="43.696281873593485" lon="12.706643694491254"><ele>204.0</ele><time>2026-04-25T13:06:20Z</time></trkpt><trkpt lat="43.696182432607145" lon="12.70676782280845"><ele>203.5</ele><time>2026-04-25T13:06:21Z</time></trkpt><trkpt lat="43.69608113176534" lon="12.706894698748906"><ele>203.0</ele><time>2026-04-25T13:06:22Z</time></trkpt><trkpt lat="43.695979529248774" lon="12.707038216939015"><ele>202.5</ele><time>2026-04-25T13:06:23Z</time></trkpt><trkpt lat="43.69587783850102" lon="12.707185751092123"><ele>202.0</ele><time>2026-04-25T13:06:24Z</time></trkpt><trkpt lat="43.6957784346414" lon="12.707344045866925"><ele>202.0</ele><time>2026-04-25T13:06:25Z</time></trkpt><trkpt lat="43.69568317800439" lon="12.707497145976323"><ele>202.0</ele><time>2026-04-25T13:06:26Z</time></trkpt><trkpt lat="43.69560123740573" lon="12.707628751721812"><ele>202.0</ele><time>2026-04-25T13:06:27Z</time></trkpt><trkpt lat="43.69554970020637" lon="12.70775877054244"><ele>202.0</ele><time>2026-04-25T13:06:28Z</time></trkpt><trkpt lat="43.695517441731724" lon="12.707908718607156"><ele>202.2</ele><time>2026-04-25T13:06:29Z</time></trkpt><trkpt lat="43.695485785681136" lon="12.708080170098432"><ele>202.39999999999998</ele><time>2026-04-25T13:06:30Z</time></trkpt><trkpt lat="43.695451208061925" lon="12.708237508198224"><ele>202.60000000000002</ele><time>2026-04-25T13:06:31Z</time></trkpt><trkpt lat="43.69540075159144" lon="12.708355518621829"><ele>202.8</ele><time>2026-04-25T13:06:32Z</time></trkpt><trkpt lat="43.69531652298315" lon="12.70841488845674"><ele>203.0</ele><time>2026-04-25T13:06:33Z</time></trkpt><trkpt lat="43.69522325273242" lon="12.708462572409902"><ele>203.0</ele><time>2026-04-25T13:06:34Z</time></trkpt><trkpt lat="43.695118239460264" lon="12.708512702064406"><ele>203.0</ele><time>2026-04-25T13:06:35Z</time></trkpt><trkpt lat="43.69503387254155" lon="12.708600391539589"><ele>203.0</ele><time>2026-04-25T13:06:36Z</time></trkpt><trkpt lat="43.69496217310261" lon="12.708668577921072"><ele>203.0</ele><time>2026-04-25T13:06:37Z</time></trkpt><trkpt lat="43.69491470970832" lon="12.708763447999974"><ele>203.0</ele><time>2026-04-25T13:06:38Z</time></trkpt><trkpt lat="43.69487820740597" lon="12.708859791040606"><ele>203.83333333333334</ele><time>2026-04-25T13:06:39Z</time></trkpt><trkpt lat="43.694861508942076" lon="12.708946916469742"><ele>204.66666666666669</ele><time>2026-04-25T13:06:40Z</time></trkpt><trkpt lat="43.694858381704194" lon="12.709054104541847"><ele>205.5</ele><time>2026-04-25T13:06:41Z</time></trkpt><trkpt lat="43.69486720929199" lon="12.709180032976947"><ele>206.33333333333331</ele><time>2026-04-25T13:06:42Z</time></trkpt><trkpt lat="43.694878588303595" lon="12.709316587338893"><ele>207.16666666666666</ele><time>2026-04-25T13:06:43Z</time></trkpt><trkpt lat="43.694890054047576" lon="12.709458699161015"><ele>208.0</ele><time>2026-04-25T13:06:44Z</time></trkpt><trkpt lat="43.6949020341366" lon="12.709601319581"><ele>209.4</ele><time>2026-04-25T13:06:45Z</time></trkpt><trkpt lat="43.694906333778455" lon="12.709704080010448"><ele>210.8</ele><time>2026-04-25T13:06:46Z</time></trkpt><trkpt lat="43.694951058747996" lon="12.709841491897325"><ele>212.2</ele><time>2026-04-25T13:06:48Z</time></trkpt><trkpt lat="43.69506568340436" lon="12.709860644809334"><ele>213.6</ele><time>2026-04-25T13:06:50Z</time></trkpt><trkpt lat="43.69514860686331" lon="12.70984964489551"><ele>215.0</ele><time>2026-04-25T13:06:51Z</time></trkpt><trkpt lat="43.6952367689266" lon="12.709855153036182"><ele>217.8</ele><time>2026-04-25T13:06:52Z</time></trkpt><trkpt lat="43.69531537977792" lon="12.70987079872974"><ele>220.6</ele><time>2026-04-25T13:06:53Z</time></trkpt><trkpt lat="43.695391035768814" lon="12.709963128571012"><ele>223.39999999999998</ele><time>2026-04-25T13:06:54Z</time></trkpt><trkpt lat="43.69547189269245" lon="12.71003919414991"><ele>226.2</ele><time>2026-04-25T13:06:55Z</time></trkpt><trkpt lat="43.695561430247594" lon="12.710115966744308"><ele>229.0</ele><time>2026-04-25T13:06:56Z</time></trkpt><trkpt lat="43.69565252622909" lon="12.710188912176967"><ele>229.6</ele><time>2026-04-25T13:06:57Z</time></trkpt><trkpt lat="43.695747257417175" lon="12.710253585026267"><ele>230.2</ele><time>2026-04-25T13:06:58Z</time></trkpt><trkpt lat="43.6958353403643" lon="12.710343020808352"><ele>230.79999999999998</ele><time>2026-04-25T13:06:59Z</time></trkpt><trkpt lat="43.6959184451644" lon="12.710449798456414"><ele>231.39999999999998</ele><time>2026-04-25T13:07:00Z</time></trkpt><trkpt lat="43.69601575554128" lon="12.710546456576422"><ele>232.0</ele><time>2026-04-25T13:07:01Z</time></trkpt><trkpt lat="43.69612354307149" lon="12.710621032739459"><ele>237.5</ele><time>2026-04-25T13:07:02Z</time></trkpt><trkpt lat="43.69623695587664" lon="12.710709860415713"><ele>243.0</ele><time>2026-04-25T13:07:03Z</time></trkpt><trkpt lat="43.696354724628584" lon="12.710797301930272"><ele>248.5</ele><time>2026-04-25T13:07:04Z</time></trkpt><trkpt lat="43.696444358708014" lon="12.710852572527333"><ele>254.0</ele><time>2026-04-25T13:07:05Z</time></trkpt><trkpt lat="43.69652503017969" lon="12.710910122107123"><ele>254.0</ele><time>2026-04-25T13:07:06Z</time></trkpt><trkpt lat="43.69658735971311" lon="12.710986576482302"><ele>253.99999999999997</ele><time>2026-04-25T13:07:07Z</time></trkpt><trkpt lat="43.696639010183745" lon="12.711083741576212"><ele>253.99999999999997</ele><time>2026-04-25T13:07:08Z</time></trkpt><trkpt lat="43.69661527350324" lon="12.711211259239487"><ele>254.0</ele><time>2026-04-25T13:07:09Z</time></trkpt><trkpt lat="43.69660119081133" lon="12.711336871766346"><ele>254.0</ele><time>2026-04-25T13:07:10Z</time></trkpt><trkpt lat="43.69660034993863" lon="12.711475471347995"><ele>254.79999999999998</ele><time>2026-04-25T13:07:11Z</time></trkpt><trkpt lat="43.69661870913217" lon="12.711595619311312"><ele>255.59999999999997</ele><time>2026-04-25T13:07:12Z</time></trkpt><trkpt lat="43.69661231391101" lon="12.711683977161583"><ele>256.4</ele><time>2026-04-25T13:07:13Z</time></trkpt><trkpt lat="43.69660715406257" lon="12.711808725194425"><ele>257.2</ele><time>2026-04-25T13:07:15Z</time></trkpt><trkpt lat="43.69662838809819" lon="12.711928296062885"><ele>258.0</ele><time>2026-04-25T13:08:51Z</time></trkpt><trkpt lat="43.696626963224446" lon="12.7120962442175"><ele>258.5</ele><time>2026-04-25T13:08:53Z</time></trkpt><trkpt lat="43.69663206485767" lon="12.712204666929816"><ele>259.0</ele><time>2026-04-25T13:08:54Z</time></trkpt><trkpt lat="43.69659832500986" lon="12.712318748055088"><ele>259.5</ele><time>2026-04-25T13:08:55Z</time></trkpt><trkpt lat="43.69660518484209" lon="12.712422989247877"><ele>260.0</ele><time>2026-04-25T13:08:56Z</time></trkpt><trkpt lat="43.69663605468062" lon="12.712570573136533"><ele>260.5</ele><time>2026-04-25T13:08:58Z</time></trkpt><trkpt lat="43.696690805963826" lon="12.712643723920612"><ele>261.0</ele><time>2026-04-25T13:09:00Z</time></trkpt><trkpt lat="43.69679031453452" lon="12.712568791613792"><ele>261.0</ele><time>2026-04-25T13:09:01Z</time></trkpt><trkpt lat="43.696835448764894" lon="12.712490083755045"><ele>261.0</ele><time>2026-04-25T13:09:02Z</time></trkpt><trkpt lat="43.69687776508592" lon="12.712404756311813"><ele>261.0</ele><time>2026-04-25T13:09:03Z</time></trkpt><trkpt lat="43.696940869969545" lon="12.712311279709773"><ele>261.0</ele><time>2026-04-25T13:09:04Z</time></trkpt><trkpt lat="43.69699954446041" lon="12.712194434008275"><ele>261.0</ele><time>2026-04-25T13:09:05Z</time></trkpt><trkpt lat="43.69705991919556" lon="12.712058916936039"><ele>264.6</ele><time>2026-04-25T13:09:06Z</time></trkpt><trkpt lat="43.69711852871217" lon="12.711904823465252"><ele>268.20000000000005</ele><time>2026-04-25T13:09:07Z</time></trkpt><trkpt lat="43.697174171989474" lon="12.711763707242849"><ele>271.79999999999995</ele><time>2026-04-25T13:09:08Z</time></trkpt><trkpt lat="43.697230797677655" lon="12.711644079115395"><ele>275.4</ele><time>2026-04-25T13:09:09Z</time></trkpt><trkpt lat="43.697291555566665" lon="12.711541254730996"><ele>279.0</ele><time>2026-04-25T13:09:10Z</time></trkpt><trkpt lat="43.69735676780994" lon="12.711434584419104"><ele>279.0</ele><time>2026-04-25T13:09:11Z</time></trkpt><trkpt lat="43.697438028542045" lon="12.711318257443345"><ele>279.0</ele><time>2026-04-25T13:09:12Z</time></trkpt><trkpt lat="43.697521686988956" lon="12.711186867620107"><ele>279.0</ele><time>2026-04-25T13:09:13Z</time></trkpt><trkpt lat="43.69760298898403" lon="12.711049941977448"><ele>279.0</ele><time>2026-04-25T13:09:14Z</time></trkpt><trkpt lat="43.69769421354388" lon="12.710894935365195"><ele>282.3333333333333</ele><time>2026-04-25T13:09:15Z</time></trkpt><trkpt lat="43.69778985122825" lon="12.710726013975242"><ele>285.66666666666663</ele><time>2026-04-25T13:09:16Z</time></trkpt><trkpt lat="43.69789090188246" lon="12.710543929355199"><ele>289.0</ele><time>2026-04-25T13:09:17Z</time></trkpt><trkpt lat="43.69799399170407" lon="12.710355154340839"><ele>289.59999999999997</ele><time>2026-04-25T13:09:18Z</time></trkpt><trkpt lat="43.698089842798076" lon="12.710179634905394"><ele>290.2</ele><time>2026-04-25T13:09:19Z</time></trkpt><trkpt lat="43.698166492153824" lon="12.710043232125827"><ele>290.79999999999995</ele><time>2026-04-25T13:09:20Z</time></trkpt><trkpt lat="43.69822707765961" lon="12.709942624695545"><ele>291.4</ele><time>2026-04-25T13:09:21Z</time></trkpt><trkpt lat="43.6982740861716" lon="12.709880001616531"><ele>292.0</ele><time>2026-04-25T13:09:22Z</time></trkpt><trkpt lat="43.698338785506294" lon="12.709825640176884"><ele>292.0</ele><time>2026-04-25T13:09:24Z</time></trkpt><trkpt lat="43.698432885219496" lon="12.709817747969765"><ele>292.0</ele><time>2026-04-25T13:09:27Z</time></trkpt><trkpt lat="43.69852503750352" lon="12.709869117116154"><ele>292.0</ele><time>2026-04-25T13:09:29Z</time></trkpt><trkpt lat="43.69858601964783" lon="12.709892052835325"><ele>292.0</ele><time>2026-04-25T13:09:30Z</time></trkpt><trkpt lat="43.69866434431371" lon="12.709911390282413"><ele>292.0</ele><time>2026-04-25T13:09:31Z</time></trkpt><trkpt lat="43.69875853830384" lon="12.709873856876557"><ele>292.0</ele><time>2026-04-25T13:09:32Z</time></trkpt><trkpt lat="43.698844487519274" lon="12.709857237853777"><ele>293.6</ele><time>2026-04-25T13:09:33Z</time></trkpt><trkpt lat="43.698925986193785" lon="12.709861300785288"><ele>295.2</ele><time>2026-04-25T13:09:34Z</time></trkpt><trkpt lat="43.698996222302675" lon="12.70984753780807"><ele>296.8</ele><time>2026-04-25T13:09:35Z</time></trkpt><trkpt lat="43.69906378332731" lon="12.709838551961981"><ele>298.4</ele><time>2026-04-25T13:09:36Z</time></trkpt><trkpt lat="43.699152593596615" lon="12.70997507236407"><ele>300.0</ele><time>2026-04-25T13:09:38Z</time></trkpt><trkpt lat="43.69921176830252" lon="12.710106646804636"><ele>303.0</ele><time>2026-04-25T13:09:39Z</time></trkpt><trkpt lat="43.699270794643716" lon="12.710250147185914"><ele>306.0</ele><time>2026-04-25T13:09:40Z</time></trkpt><trkpt lat="43.69933675116694" lon="12.710397755116212"><ele>309.0</ele><time>2026-04-25T13:09:41Z</time></trkpt><trkpt lat="43.69937680756188" lon="12.710553561324023"><ele>312.0</ele><time>2026-04-25T13:09:42Z</time></trkpt><trkpt lat="43.69939619902205" lon="12.710700470052709"><ele>312.0</ele><time>2026-04-25T13:09:43Z</time></trkpt><trkpt lat="43.69938990585495" lon="12.710832319145286"><ele>312.0</ele><time>2026-04-25T13:09:44Z</time></trkpt><trkpt lat="43.69934812205505" lon="12.710942621819145"><ele>312.0</ele><time>2026-04-25T13:09:45Z</time></trkpt><trkpt lat="43.699303853844235" lon="12.711052285603259"><ele>312.0</ele><time>2026-04-25T13:09:46Z</time></trkpt><trkpt lat="43.69924425175576" lon="12.711161239601463"><ele>312.0</ele><time>2026-04-25T13:09:47Z</time></trkpt><trkpt lat="43.69919911122731" lon="12.711301627799239"><ele>315.75</ele><time>2026-04-25T13:09:48Z</time></trkpt><trkpt lat="43.69912291437323" lon="12.711445964757289"><ele>319.5</ele><time>2026-04-25T13:09:49Z</time></trkpt><trkpt lat="43.69904685273479" lon="12.711595977023144"><ele>323.25</ele><time>2026-04-25T13:09:50Z</time></trkpt><trkpt lat="43.69896484921748" lon="12.711751903072088"><ele>327.0</ele><time>2026-04-25T13:09:51Z</time></trkpt><trkpt lat="43.69889460066975" lon="12.71187809725586"><ele>329.20000000000005</ele><time>2026-04-25T13:09:52Z</time></trkpt><trkpt lat="43.698844971300595" lon="12.711991345264588"><ele>331.4</ele><time>2026-04-25T13:09:53Z</time></trkpt><trkpt lat="43.698796609924365" lon="12.712114471874115"><ele>333.6</ele><time>2026-04-25T13:09:54Z</time></trkpt><trkpt lat="43.69874774112938" lon="12.71226006431425"><ele>335.79999999999995</ele><time>2026-04-25T13:09:55Z</time></trkpt><trkpt lat="43.69869947985686" lon="12.712428441899949"><ele>338.0</ele><time>2026-04-25T13:09:56Z</time></trkpt><trkpt lat="43.698658588578034" lon="12.712579154567532"><ele>338.0</ele><time>2026-04-25T13:09:57Z</time></trkpt><trkpt lat="43.6986243987384" lon="12.712704612788686"><ele>338.0</ele><time>2026-04-25T13:09:58Z</time></trkpt><trkpt lat="43.69860366827206" lon="12.712826543348836"><ele>338.0</ele><time>2026-04-25T13:09:59Z</time></trkpt><trkpt lat="43.698590651250356" lon="12.712951997909181"><ele>338.0</ele><time>2026-04-25T13:10:00Z</time></trkpt><trkpt lat="43.69859130041837" lon="12.713072484153969"><ele>338.0</ele><time>2026-04-25T13:10:01Z</time></trkpt><trkpt lat="43.69862667806033" lon="12.713204918085095"><ele>339.5</ele><time>2026-04-25T13:10:02Z</time></trkpt><trkpt lat="43.69865271392005" lon="12.713364859758068"><ele>341.0</ele><time>2026-04-25T13:10:03Z</time></trkpt><trkpt lat="43.69868852257462" lon="12.713556425747404"><ele>342.5</ele><time>2026-04-25T13:10:04Z</time></trkpt><trkpt lat="43.698706861416504" lon="12.71377453965053"><ele>344.0</ele><time>2026-04-25T13:10:05Z</time></trkpt><trkpt lat="43.69872944105839" lon="12.713954629960039"><ele>345.2</ele><time>2026-04-25T13:10:06Z</time></trkpt><trkpt lat="43.698744363578285" lon="12.71412049115537"><ele>346.4</ele><time>2026-04-25T13:10:07Z</time></trkpt><trkpt lat="43.698760478922964" lon="12.714249095122247"><ele>347.6</ele><time>2026-04-25T13:10:08Z</time></trkpt><trkpt lat="43.69877030374088" lon="12.714404600583363"><ele>348.8</ele><time>2026-04-25T13:10:09Z</time></trkpt><trkpt lat="43.69877922524894" lon="12.714566271957901"><ele>350.0</ele><time>2026-04-25T13:10:10Z</time></trkpt><trkpt lat="43.698779800263935" lon="12.714689618497617"><ele>350.0</ele><time>2026-04-25T13:10:11Z</time></trkpt><trkpt lat="43.698786458681575" lon="12.714786601064025"><ele>350.0</ele><time>2026-04-25T13:10:12Z</time></trkpt><trkpt lat="43.69885852556515" lon="12.714931103330732"><ele>350.0</ele><time>2026-04-25T13:10:14Z</time></trkpt><trkpt lat="43.69892699479703" lon="12.714973499033789"><ele>350.0</ele><time>2026-04-25T13:10:15Z</time></trkpt><trkpt lat="43.69901857557589" lon="12.715001631138065"><ele>350.0</ele><time>2026-04-25T13:10:16Z</time></trkpt><trkpt lat="43.69911683417939" lon="12.715031836772571"><ele>350.0</ele><time>2026-04-25T13:10:17Z</time></trkpt><trkpt lat="43.69924040986991" lon="12.715065378080673"><ele>350.0</ele><time>2026-04-25T13:10:18Z</time></trkpt><trkpt lat="43.69938351313391" lon="12.71512207675897"><ele>350.0</ele><time>2026-04-25T13:10:19Z</time></trkpt><trkpt lat="43.699547462293054" lon="12.715178197026775"><ele>350.0</ele><time>2026-04-25T13:10:20Z</time></trkpt><trkpt lat="43.69971305979799" lon="12.715271529840537"><ele>347.33333333333337</ele><time>2026-04-25T13:10:21Z</time></trkpt><trkpt lat="43.699876211461245" lon="12.715367610102323"><ele>344.6666666666667</ele><time>2026-04-25T13:10:22Z</time></trkpt><trkpt lat="43.7000323590806" lon="12.715462046109774"><ele>342.0</ele><time>2026-04-25T13:10:23Z</time></trkpt><trkpt lat="43.700167896389246" lon="12.715547886728675"><ele>343.8</ele><time>2026-04-25T13:10:24Z</time></trkpt><trkpt lat="43.70026775974288" lon="12.715622296543517"><ele>345.6</ele><time>2026-04-25T13:10:25Z</time></trkpt><trkpt lat="43.70036357428769" lon="12.715670325078106"><ele>347.40000000000003</ele><time>2026-04-25T13:10:26Z</time></trkpt><trkpt lat="43.70046081515545" lon="12.715677899466188"><ele>349.20000000000005</ele><time>2026-04-25T13:10:27Z</time></trkpt><trkpt lat="43.700552543341715" lon="12.715650588933231"><ele>351.0</ele><time>2026-04-25T13:10:28Z</time></trkpt><trkpt lat="43.70066698505479" lon="12.71563620930833"><ele>351.0</ele><time>2026-04-25T13:10:29Z</time></trkpt><trkpt lat="43.70079097200685" lon="12.715638361826505"><ele>351.0</ele><time>2026-04-25T13:10:30Z</time></trkpt><trkpt lat="43.700925091592204" lon="12.715633174972321"><ele>351.0</ele><time>2026-04-25T13:10:31Z</time></trkpt><trkpt lat="43.70105486130767" lon="12.715655166060255"><ele>351.0</ele><time>2026-04-25T13:10:32Z</time></trkpt><trkpt lat="43.70117257709056" lon="12.715641815636369"><ele>350.75</ele><time>2026-04-25T13:10:33Z</time></trkpt><trkpt lat="43.701292374158704" lon="12.715596731802478"><ele>350.5</ele><time>2026-04-25T13:10:34Z</time></trkpt><trkpt lat="43.7014252089282" lon="12.715547290891523"><ele>350.25</ele><time>2026-04-25T13:10:35Z</time></trkpt><trkpt lat="43.70154478769617" lon="12.715516995366018"><ele>350.0</ele><time>2026-04-25T13:10:36Z</time></trkpt><trkpt lat="43.70165178775147" lon="12.715473878433066"><ele>350.0</ele><time>2026-04-25T13:10:37Z</time></trkpt><trkpt lat="43.701749152077134" lon="12.71543143574982"><ele>350.0</ele><time>2026-04-25T13:10:38Z</time></trkpt><trkpt lat="43.701845318925955" lon="12.715400592011912"><ele>350.0</ele><time>2026-04-25T13:10:39Z</time></trkpt><trkpt lat="43.701942085728184" lon="12.715363969342855"><ele>350.0</ele><time>2026-04-25T13:10:40Z</time></trkpt><trkpt lat="43.702055374485376" lon="12.715328315835881"><ele>350.0</ele><time>2026-04-25T13:10:41Z</time></trkpt><trkpt lat="43.70218436381005" lon="12.715278719898958"><ele>350.4</ele><time>2026-04-25T13:10:42Z</time></trkpt><trkpt lat="43.70229748437888" lon="12.715246435165929"><ele>350.8</ele><time>2026-04-25T13:10:43Z</time></trkpt><trkpt lat="43.702409267340386" lon="12.715253832645175"><ele>351.20000000000005</ele><time>2026-04-25T13:10:44Z</time></trkpt><trkpt lat="43.70250738872138" lon="12.715261612284579"><ele>351.6</ele><time>2026-04-25T13:10:45Z</time></trkpt><trkpt lat="43.702603336037804" lon="12.715279942161535"><ele>352.0</ele><time>2026-04-25T13:10:46Z</time></trkpt><trkpt lat="43.70270184709175" lon="12.715315178203408"><ele>348.75</ele><time>2026-04-25T13:10:47Z</time></trkpt><trkpt lat="43.702808460866414" lon="12.715366204509587"><ele>345.5</ele><time>2026-04-25T13:10:48Z</time></trkpt><trkpt lat="43.702910853763285" lon="12.715424795761646"><ele>342.25</ele><time>2026-04-25T13:10:49Z</time></trkpt><trkpt lat="43.70301825979187" lon="12.715479298112125"><ele>339.0</ele><time>2026-04-25T13:10:50Z</time></trkpt><trkpt lat="43.70313181759472" lon="12.715519407774"><ele>339.0</ele><time>2026-04-25T13:10:51Z</time></trkpt><trkpt lat="43.70326574623485" lon="12.71554507663814"><ele>339.0</ele><time>2026-04-25T13:10:52Z</time></trkpt><trkpt lat="43.70339449870743" lon="12.71556532212951"><ele>339.0</ele><time>2026-04-25T13:10:53Z</time></trkpt><trkpt lat="43.703512716396894" lon="12.715606149707824"><ele>339.0</ele><time>2026-04-25T13:10:54Z</time></trkpt><trkpt lat="43.70361692537537" lon="12.71563973448587"><ele>337.1666666666667</ele><time>2026-04-25T13:10:55Z</time></trkpt><trkpt lat="43.70371081914816" lon="12.715633154323811"><ele>335.3333333333333</ele><time>2026-04-25T13:10:56Z</time></trkpt><trkpt lat="43.70378291976768" lon="12.715633095259944"><ele>333.5</ele><time>2026-04-25T13:10:57Z</time></trkpt><trkpt lat="43.7038589299574" lon="12.71559672488609"><ele>331.66666666666663</ele><time>2026-04-25T13:10:58Z</time></trkpt><trkpt lat="43.70393561139059" lon="12.71553878071764"><ele>329.8333333333333</ele><time>2026-04-25T13:10:59Z</time></trkpt><trkpt lat="43.70400120099524" lon="12.715447703307431"><ele>328.0</ele><time>2026-04-25T13:11:00Z</time></trkpt><trkpt lat="43.70408169965131" lon="12.7153386427002"><ele>328.0</ele><time>2026-04-25T13:11:01Z</time></trkpt><trkpt lat="43.70414453110148" lon="12.71524019360353"><ele>328.0</ele><time>2026-04-25T13:11:02Z</time></trkpt><trkpt lat="43.70419580277662" lon="12.715182830425388"><ele>328.0</ele><time>2026-04-25T13:11:03Z</time></trkpt><trkpt lat="43.704282731480525" lon="12.715200244605432"><ele>328.0</ele><time>2026-04-25T13:11:05Z</time></trkpt><trkpt lat="43.704396219092715" lon="12.715248560111133"><ele>328.0</ele><time>2026-04-25T13:11:07Z</time></trkpt><trkpt lat="43.70447264717525" lon="12.715261351725376"><ele>328.0</ele><time>2026-04-25T13:11:08Z</time></trkpt><trkpt lat="43.70455655261311" lon="12.715272287046412"><ele>329.2</ele><time>2026-04-25T13:11:09Z</time></trkpt><trkpt lat="43.70465384019802" lon="12.715281785192943"><ele>330.4</ele><time>2026-04-25T13:11:10Z</time></trkpt><trkpt lat="43.70476316812096" lon="12.715280270758402"><ele>331.59999999999997</ele><time>2026-04-25T13:11:11Z</time></trkpt><trkpt lat="43.70487514777023" lon="12.715266902837577"><ele>332.79999999999995</ele><time>2026-04-25T13:11:12Z</time></trkpt><trkpt lat="43.70500348459494" lon="12.715241900527069"><ele>334.0</ele><time>2026-04-25T13:11:13Z</time></trkpt><trkpt lat="43.70513597324242" lon="12.715214735976987"><ele>342.2</ele><time>2026-04-25T13:11:14Z</time></trkpt><trkpt lat="43.70526042998237" lon="12.715198435172207"><ele>350.4</ele><time>2026-04-25T13:11:15Z</time></trkpt><trkpt lat="43.70534272195209" lon="12.715198424693543"><ele>358.6</ele><time>2026-04-25T13:11:16Z</time></trkpt><trkpt lat="43.70542443040912" lon="12.715186583357811"><ele>366.8</ele><time>2026-04-25T13:11:18Z</time></trkpt><trkpt lat="43.705394688617446" lon="12.715054894707231"><ele>375.0</ele><time>2026-04-25T13:11:20Z</time></trkpt><trkpt lat="43.70529188428918" lon="12.714960845830891"><ele>375.0</ele><time>2026-04-25T13:11:22Z</time></trkpt><trkpt lat="43.70528066165904" lon="12.714848715945873"><ele>375.0</ele><time>2026-04-25T13:11:24Z</time></trkpt><trkpt lat="43.705362078644114" lon="12.714725035459196"><ele>375.0</ele><time>2026-04-25T13:11:26Z</time></trkpt><trkpt lat="43.70541977706794" lon="12.71468654847249"><ele>375.0</ele><time>2026-04-25T13:11:27Z</time></trkpt><trkpt lat="43.70547576760879" lon="12.714609130884128"><ele>375.0</ele><time>2026-04-25T13:11:28Z</time></trkpt><trkpt lat="43.70554197475097" lon="12.714517586530508"><ele>375.0</ele><time>2026-04-25T13:11:29Z</time></trkpt><trkpt lat="43.705593950377704" lon="12.714391703213487"><ele>374.8333333333333</ele><time>2026-04-25T13:11:30Z</time></trkpt><trkpt lat="43.70565925740419" lon="12.714282011904427"><ele>374.6666666666667</ele><time>2026-04-25T13:11:31Z</time></trkpt><trkpt lat="43.705723618284395" lon="12.714215138756998"><ele>374.5</ele><time>2026-04-25T13:11:32Z</time></trkpt><trkpt lat="43.70578491574566" lon="12.714163575066255"><ele>374.33333333333337</ele><time>2026-04-25T13:11:33Z</time></trkpt><trkpt lat="43.70585326918022" lon="12.714114256584836"><ele>374.1666666666667</ele><time>2026-04-25T13:11:34Z</time></trkpt><trkpt lat="43.70593220984631" lon="12.714067874392935"><ele>374.0</ele><time>2026-04-25T13:11:35Z</time></trkpt><trkpt lat="43.70601407936559" lon="12.714030047329024"><ele>377.6</ele><time>2026-04-25T13:11:36Z</time></trkpt><trkpt lat="43.7061011270996" lon="12.71399661417001"><ele>381.2</ele><time>2026-04-25T13:11:37Z</time></trkpt><trkpt lat="43.70620658449517" lon="12.713967831206686"><ele>384.8</ele><time>2026-04-25T13:11:38Z</time></trkpt><trkpt lat="43.7063196962715" lon="12.71393537323045"><ele>388.40000000000003</ele><time>2026-04-25T13:11:39Z</time></trkpt><trkpt lat="43.706438245096294" lon="12.713883182280673"><ele>392.0</ele><time>2026-04-25T13:11:40Z</time></trkpt><trkpt lat="43.706553151712015" lon="12.713825441560012"><ele>392.0</ele><time>2026-04-25T13:11:41Z</time></trkpt><trkpt lat="43.706649146826464" lon="12.713748158625451"><ele>392.0</ele><time>2026-04-25T13:11:42Z</time></trkpt><trkpt lat="43.706717032246324" lon="12.713740742478864"><ele>392.0</ele><time>2026-04-25T13:11:43Z</time></trkpt><trkpt lat="43.706794320472916" lon="12.713732602694245"><ele>392.0</ele><time>2026-04-25T13:11:45Z</time></trkpt><trkpt lat="43.70680426266182" lon="12.7138464656901"><ele>392.0</ele><time>2026-04-25T13:11:48Z</time></trkpt><trkpt lat="43.706730937516916" lon="12.714001749761419"><ele>392.0</ele><time>2026-04-25T13:11:50Z</time></trkpt><trkpt lat="43.70666628664201" lon="12.714112585972535"><ele>392.0</ele><time>2026-04-25T13:11:51Z</time></trkpt><trkpt lat="43.706590204861776" lon="12.7142448837802"><ele>392.0</ele><time>2026-04-25T13:11:52Z</time></trkpt><trkpt lat="43.706496546569305" lon="12.714377368800516"><ele>392.0</ele><time>2026-04-25T13:11:53Z</time></trkpt><trkpt lat="43.70640894732141" lon="12.714509635189392"><ele>392.0</ele><time>2026-04-25T13:11:54Z</time></trkpt><trkpt lat="43.70633137527799" lon="12.714622447916936"><ele>392.0</ele><time>2026-04-25T13:11:55Z</time></trkpt><trkpt lat="43.70628748710313" lon="12.714690370815315"><ele>392.0</ele><time>2026-04-25T13:11:56Z</time></trkpt><trkpt lat="43.70624241773064" lon="12.714795775000809"><ele>392.0</ele><time>2026-04-25T13:11:58Z</time></trkpt><trkpt lat="43.70628390706155" lon="12.714895038293905"><ele>392.0</ele><time>2026-04-25T13:12:00Z</time></trkpt><trkpt lat="43.70638750393177" lon="12.714927073635977"><ele>392.0</ele><time>2026-04-25T13:12:02Z</time></trkpt><trkpt lat="43.70645565247985" lon="12.714909080591413"><ele>392.0</ele><time>2026-04-25T13:12:03Z</time></trkpt><trkpt lat="43.706546784268824" lon="12.71486978830662"><ele>392.0</ele><time>2026-04-25T13:12:04Z</time></trkpt><trkpt lat="43.70665905773882" lon="12.714826268076969"><ele>392.0</ele><time>2026-04-25T13:12:05Z</time></trkpt><trkpt lat="43.70677299279626" lon="12.7148327511922"><ele>392.0</ele><time>2026-04-25T13:12:06Z</time></trkpt><trkpt lat="43.7068763357719" lon="12.714853859261767"><ele>394.75</ele><time>2026-04-25T13:12:07Z</time></trkpt><trkpt lat="43.70698964813731" lon="12.71487034718443"><ele>397.5</ele><time>2026-04-25T13:12:08Z</time></trkpt><trkpt lat="43.70710219299646" lon="12.714875456429331"><ele>400.25</ele><time>2026-04-25T13:12:09Z</time></trkpt><trkpt lat="43.70720844383994" lon="12.714884110491166"><ele>403.0</ele><time>2026-04-25T13:12:10Z</time></trkpt><trkpt lat="43.707330141356145" lon="12.714900865207648"><ele>403.0</ele><time>2026-04-25T13:12:11Z</time></trkpt><trkpt lat="43.70745626116865" lon="12.714906332229484"><ele>403.0</ele><time>2026-04-25T13:12:12Z</time></trkpt><trkpt lat="43.70757816710938" lon="12.714939945322739"><ele>403.0</ele><time>2026-04-25T13:12:13Z</time></trkpt><trkpt lat="43.707686345530114" lon="12.71499723020329"><ele>403.0</ele><time>2026-04-25T13:12:14Z</time></trkpt><trkpt lat="43.70779522470465" lon="12.715027959436101"><ele>405.59999999999997</ele><time>2026-04-25T13:12:15Z</time></trkpt><trkpt lat="43.70790456232191" lon="12.715035345523521"><ele>408.2</ele><time>2026-04-25T13:12:16Z</time></trkpt><trkpt lat="43.70800887854188" lon="12.71503133595427"><ele>410.8</ele><time>2026-04-25T13:12:17Z</time></trkpt><trkpt lat="43.70811770756788" lon="12.71501878897553"><ele>413.4</ele><time>2026-04-25T13:12:18Z</time></trkpt><trkpt lat="43.70822867568942" lon="12.714973476964708"><ele>416.0</ele><time>2026-04-25T13:12:19Z</time></trkpt><trkpt lat="43.708343698438206" lon="12.714951429892933"><ele>416.0</ele><time>2026-04-25T13:12:20Z</time></trkpt><trkpt lat="43.70845488046295" lon="12.714921320774096"><ele>416.0</ele><time>2026-04-25T13:12:21Z</time></trkpt><trkpt lat="43.70857422920906" lon="12.714925549522354"><ele>416.0</ele><time>2026-04-25T13:12:22Z</time></trkpt><trkpt lat="43.708686652321454" lon="12.714929719076476"><ele>416.0</ele><time>2026-04-25T13:12:23Z</time></trkpt><trkpt lat="43.70878799521223" lon="12.714972614156391"><ele>419.25</ele><time>2026-04-25T13:12:24Z</time></trkpt><trkpt lat="43.708896996985246" lon="12.715029949237067"><ele>422.5</ele><time>2026-04-25T13:12:25Z</time></trkpt><trkpt lat="43.709008283879456" lon="12.715079313299396"><ele>425.75</ele><time>2026-04-25T13:12:26Z</time></trkpt><trkpt lat="43.70912121487925" lon="12.715125765321426"><ele>429.0</ele><time>2026-04-25T13:12:27Z</time></trkpt><trkpt lat="43.70924002472264" lon="12.715169432782405"><ele>429.0</ele><time>2026-04-25T13:12:28Z</time></trkpt><trkpt lat="43.70936157190474" lon="12.715207609683816"><ele>429.0</ele><time>2026-04-25T13:12:29Z</time></trkpt><trkpt lat="43.70947733598313" lon="12.715235250809178"><ele>429.0</ele><time>2026-04-25T13:12:30Z</time></trkpt><trkpt lat="43.709586755956835" lon="12.715224609544668"><ele>429.0</ele><time>2026-04-25T13:12:31Z</time></trkpt><trkpt lat="43.70970400579587" lon="12.715216468099042"><ele>432.2</ele><time>2026-04-25T13:12:32Z</time></trkpt><trkpt lat="43.70981507743558" lon="12.71519014170436"><ele>435.4</ele><time>2026-04-25T13:12:33Z</time></trkpt><trkpt lat="43.709886223012354" lon="12.715160842016811"><ele>438.6</ele><time>2026-04-25T13:12:34Z</time></trkpt><trkpt lat="43.709942211725" lon="12.715118466389638"><ele>441.8</ele><time>2026-04-25T13:12:36Z</time></trkpt><trkpt lat="43.71003649923455" lon="12.715084115879689"><ele>445.0</ele><time>2026-04-25T13:12:46Z</time></trkpt><trkpt lat="43.71017560402022" lon="12.715002411403233"><ele>446.5</ele><time>2026-04-25T13:12:48Z</time></trkpt><trkpt lat="43.71025632455141" lon="12.71496064099235"><ele>448.0</ele><time>2026-04-25T13:12:49Z</time></trkpt><trkpt lat="43.71034445639884" lon="12.714917357015658"><ele>449.5</ele><time>2026-04-25T13:12:51Z</time></trkpt><trkpt lat="43.71040898894331" lon="12.714942544452352"><ele>451.0</ele><time>2026-04-25T13:12:53Z</time></trkpt><trkpt lat="43.71054889589525" lon="12.715394742842456"><ele>451.00000000000006</ele><time>2026-04-25T13:12:54Z</time></trkpt><trkpt lat="43.71061891264805" lon="12.715395423262507"><ele>451.0</ele><time>2026-04-25T13:12:57Z</time></trkpt><trkpt lat="43.71066680767514" lon="12.715461403178868"><ele>451.0</ele><time>2026-04-25T13:13:03Z</time></trkpt><trkpt lat="43.71078921918653" lon="12.715502399269598"><ele>451.0</ele><time>2026-04-25T13:13:05Z</time></trkpt><trkpt lat="43.710866146624184" lon="12.715527896139575"><ele>451.00000000000006</ele><time>2026-04-25T13:13:06Z</time></trkpt><trkpt lat="43.71094918998885" lon="12.715571003874482"><ele>451.0</ele><time>2026-04-25T13:13:07Z</time></trkpt><trkpt lat="43.71102527751893" lon="12.715626743598163"><ele>455.0</ele><time>2026-04-25T13:13:08Z</time></trkpt><trkpt lat="43.711088700072324" lon="12.715669453553529"><ele>459.0</ele><time>2026-04-25T13:13:09Z</time></trkpt><trkpt lat="43.71114712120956" lon="12.71570530513057"><ele>463.0</ele><time>2026-04-25T13:13:10Z</time></trkpt><trkpt lat="43.71126781714887" lon="12.715740041113202"><ele>467.0</ele><time>2026-04-25T13:13:12Z</time></trkpt><trkpt lat="43.71133274811896" lon="12.715758210978452"><ele>471.0</ele><time>2026-04-25T13:13:13Z</time></trkpt><trkpt lat="43.71148014239418" lon="12.715761362051657"><ele>471.0</ele><time>2026-04-25T13:13:15Z</time></trkpt><trkpt lat="43.71156205382344" lon="12.715780975688475"><ele>471.0</ele><time>2026-04-25T13:13:16Z</time></trkpt><trkpt lat="43.71169928045935" lon="12.71587617606245"><ele>471.0</ele><time>2026-04-25T13:13:18Z</time></trkpt><trkpt lat="43.711782827728875" lon="12.715937823140452"><ele>471.0</ele><time>2026-04-25T13:13:19Z</time></trkpt><trkpt lat="43.71184521719236" lon="12.715968527913343"><ele>471.0</ele><time>2026-04-25T13:13:20Z</time></trkpt><trkpt lat="43.71192298733828" lon="12.716012712530079"><ele>473.0</ele><time>2026-04-25T13:13:21Z</time></trkpt><trkpt lat="43.71199220296981" lon="12.716058571494885"><ele>475.0</ele><time>2026-04-25T13:13:22Z</time></trkpt><trkpt lat="43.712057323993434" lon="12.71610975787314"><ele>477.0</ele><time>2026-04-25T13:13:23Z</time></trkpt><trkpt lat="43.712175641538884" lon="12.716198803275267"><ele>479.0</ele><time>2026-04-25T13:13:25Z</time></trkpt><trkpt lat="43.712281803623405" lon="12.716258089606841"><ele>481.0</ele><time>2026-04-25T13:13:27Z</time></trkpt><trkpt lat="43.712388831488184" lon="12.71633265548045"><ele>481.00000000000006</ele><time>2026-04-25T13:13:29Z</time></trkpt><trkpt lat="43.71245242417512" lon="12.716359511147592"><ele>481.0</ele><time>2026-04-25T13:13:30Z</time></trkpt><trkpt lat="43.71251953967447" lon="12.716372913941019"><ele>481.0</ele><time>2026-04-25T13:13:31Z</time></trkpt><trkpt lat="43.712602229927015" lon="12.716376198618969"><ele>481.0</ele><time>2026-04-25T13:13:32Z</time></trkpt><trkpt lat="43.712684964535946" lon="12.716384440438809"><ele>481.00000000000006</ele><time>2026-04-25T13:13:33Z</time></trkpt><trkpt lat="43.71276278686777" lon="12.716407848914173"><ele>481.0</ele><time>2026-04-25T13:13:34Z</time></trkpt><trkpt lat="43.712845553764915" lon="12.716384649341345"><ele>485.6</ele><time>2026-04-25T13:13:35Z</time></trkpt><trkpt lat="43.71289291903505" lon="12.716476531079403"><ele>490.20000000000005</ele><time>2026-04-25T13:13:36Z</time></trkpt><trkpt lat="43.712911748393395" lon="12.716624318597244"><ele>494.79999999999995</ele><time>2026-04-25T13:13:38Z</time></trkpt><trkpt lat="43.712897601368205" lon="12.716721790690995"><ele>499.4</ele><time>2026-04-25T13:13:39Z</time></trkpt><trkpt lat="43.712812049169486" lon="12.716843310671537"><ele>504.0</ele><time>2026-04-25T13:13:41Z</time></trkpt><trkpt lat="43.7127499692433" lon="12.716891772316766"><ele>501.8333333333333</ele><time>2026-04-25T13:13:42Z</time></trkpt><trkpt lat="43.71268248811255" lon="12.716945557749463"><ele>499.66666666666663</ele><time>2026-04-25T13:13:43Z</time></trkpt><trkpt lat="43.71260818723932" lon="12.716998511879494"><ele>497.5</ele><time>2026-04-25T13:13:44Z</time></trkpt><trkpt lat="43.71253904231322" lon="12.717052004029384"><ele>495.3333333333333</ele><time>2026-04-25T13:13:45Z</time></trkpt><trkpt lat="43.71246810452961" lon="12.717122018321486"><ele>493.16666666666663</ele><time>2026-04-25T13:13:46Z</time></trkpt><trkpt lat="43.71240861309152" lon="12.71719422034582"><ele>491.0</ele><time>2026-04-25T13:13:47Z</time></trkpt><trkpt lat="43.71232160852033" lon="12.717308381378352"><ele>491.0</ele><time>2026-04-25T13:13:49Z</time></trkpt><trkpt lat="43.712337025930296" lon="12.71741687343841"><ele>491.0</ele><time>2026-04-25T13:13:52Z</time></trkpt><trkpt lat="43.71235200020665" lon="12.717502428794795"><ele>491.0</ele><time>2026-04-25T13:13:54Z</time></trkpt><trkpt lat="43.71246212257474" lon="12.717630632980317"><ele>491.0</ele><time>2026-04-25T13:13:56Z</time></trkpt><trkpt lat="43.71254600719005" lon="12.717709361533391"><ele>491.0</ele><time>2026-04-25T13:13:57Z</time></trkpt><trkpt lat="43.71259729815522" lon="12.717785888639042"><ele>494.4</ele><time>2026-04-25T13:13:58Z</time></trkpt><trkpt lat="43.712640224279646" lon="12.717872231538538"><ele>497.8</ele><time>2026-04-25T13:13:59Z</time></trkpt><trkpt lat="43.71267060127242" lon="12.71795322073874"><ele>501.19999999999993</ele><time>2026-04-25T13:14:00Z</time></trkpt><trkpt lat="43.71263644582363" lon="12.718057627455405"><ele>504.59999999999997</ele><time>2026-04-25T13:14:02Z</time></trkpt><trkpt lat="43.71255228346883" lon="12.71812314491099"><ele>508.0</ele><time>2026-04-25T13:14:04Z</time></trkpt><trkpt lat="43.71240902572879" lon="12.718157403242714"><ele>508.00000000000006</ele><time>2026-04-25T13:14:06Z</time></trkpt><trkpt lat="43.712321448049806" lon="12.718181198628109"><ele>508.0</ele><time>2026-04-25T13:14:07Z</time></trkpt><trkpt lat="43.71223981720546" lon="12.718201280290758"><ele>508.0</ele><time>2026-04-25T13:14:08Z</time></trkpt><trkpt lat="43.71216177512928" lon="12.718215132218594"><ele>508.0</ele><time>2026-04-25T13:14:09Z</time></trkpt><trkpt lat="43.71208448913533" lon="12.718217924812247"><ele>508.00000000000006</ele><time>2026-04-25T13:14:10Z</time></trkpt><trkpt lat="43.71198680130763" lon="12.71819857519345"><ele>508.0</ele><time>2026-04-25T13:14:11Z</time></trkpt><trkpt lat="43.71188302526966" lon="12.71818756616537"><ele>506.79999999999995</ele><time>2026-04-25T13:14:12Z</time></trkpt><trkpt lat="43.71178323522163" lon="12.718197127262792"><ele>505.59999999999997</ele><time>2026-04-25T13:14:13Z</time></trkpt><trkpt lat="43.71170418151962" lon="12.718212144786097"><ele>504.40000000000003</ele><time>2026-04-25T13:14:14Z</time></trkpt><trkpt lat="43.711604812820006" lon="12.718302035206104"><ele>503.20000000000005</ele><time>2026-04-25T13:14:15Z</time></trkpt><trkpt lat="43.71151399773541" lon="12.718290197028809"><ele>502.0</ele><time>2026-04-25T13:14:16Z</time></trkpt><trkpt lat="43.711440263425224" lon="12.718299990878997"><ele>502.0</ele><time>2026-04-25T13:14:17Z</time></trkpt><trkpt lat="43.71133656858068" lon="12.718389154562628"><ele>502.00000000000006</ele><time>2026-04-25T13:14:19Z</time></trkpt><trkpt lat="43.711296725418855" lon="12.718458700909563"><ele>502.00000000000006</ele><time>2026-04-25T13:14:20Z</time></trkpt><trkpt lat="43.711287017899096" lon="12.718578354813433"><ele>502.0</ele><time>2026-04-25T13:14:22Z</time></trkpt><trkpt lat="43.71133380880267" lon="12.718719208594463"><ele>502.0</ele><time>2026-04-25T13:14:24Z</time></trkpt><trkpt lat="43.71137739370585" lon="12.718793124437303"><ele>504.20000000000005</ele><time>2026-04-25T13:14:25Z</time></trkpt><trkpt lat="43.711420923855435" lon="12.718882445848852"><ele>506.40000000000003</ele><time>2026-04-25T13:14:26Z</time></trkpt><trkpt lat="43.71147126852432" lon="12.718984540748995"><ele>508.59999999999997</ele><time>2026-04-25T13:14:27Z</time></trkpt><trkpt lat="43.71149907163739" lon="12.719090295464984"><ele>510.79999999999995</ele><time>2026-04-25T13:14:28Z</time></trkpt><trkpt lat="43.71151995632507" lon="12.719225860712957"><ele>513.0</ele><time>2026-04-25T13:14:29Z</time></trkpt><trkpt lat="43.71153716867286" lon="12.71937779303667"><ele>513.8</ele><time>2026-04-25T13:14:30Z</time></trkpt><trkpt lat="43.71155391972165" lon="12.719540474233593"><ele>514.5999999999999</ele><time>2026-04-25T13:14:31Z</time></trkpt><trkpt lat="43.71156418488609" lon="12.719693739371435"><ele>515.4000000000001</ele><time>2026-04-25T13:14:32Z</time></trkpt><trkpt lat="43.71156696982824" lon="12.71980988594188"><ele>516.2</ele><time>2026-04-25T13:14:33Z</time></trkpt><trkpt lat="43.71158079653157" lon="12.719924777668622"><ele>517.0</ele><time>2026-04-25T13:14:34Z</time></trkpt><trkpt lat="43.71158889563717" lon="12.72002098526092"><ele>517.0</ele><time>2026-04-25T13:14:35Z</time></trkpt><trkpt lat="43.71163280523723" lon="12.720183016696737"><ele>517.0</ele><time>2026-04-25T13:14:37Z</time></trkpt><trkpt lat="43.711669228982956" lon="12.720284767754253"><ele>517.0</ele><time>2026-04-25T13:14:38Z</time></trkpt><trkpt lat="43.71171649654537" lon="12.720401321298276"><ele>517.0</ele><time>2026-04-25T13:14:39Z</time></trkpt><trkpt lat="43.71176302331308" lon="12.720509617972143"><ele>517.0</ele><time>2026-04-25T13:14:40Z</time></trkpt><trkpt lat="43.71180261990016" lon="12.720579765725454"><ele>515.3333333333334</ele><time>2026-04-25T13:14:41Z</time></trkpt><trkpt lat="43.71184931156498" lon="12.720654434837016"><ele>513.6666666666667</ele><time>2026-04-25T13:14:42Z</time></trkpt><trkpt lat="43.711908587907324" lon="12.720741408440993"><ele>512.0</ele><time>2026-04-25T13:14:43Z</time></trkpt><trkpt lat="43.71196387600515" lon="12.720842811474009"><ele>510.33333333333337</ele><time>2026-04-25T13:14:44Z</time></trkpt><trkpt lat="43.71201531117208" lon="12.720922164944332"><ele>508.6666666666667</ele><time>2026-04-25T13:14:45Z</time></trkpt><trkpt lat="43.71206741583779" lon="12.72097698583297"><ele>507.0</ele><time>2026-04-25T13:14:46Z</time></trkpt><trkpt lat="43.71212984694149" lon="12.721009666130618"><ele>511.6</ele><time>2026-04-25T13:14:47Z</time></trkpt><trkpt lat="43.71220379463287" lon="12.721037497507629"><ele>516.2</ele><time>2026-04-25T13:14:48Z</time></trkpt><trkpt lat="43.71227510978894" lon="12.721064562203201"><ele>520.8</ele><time>2026-04-25T13:14:49Z</time></trkpt><trkpt lat="43.71234342191274" lon="12.721104687468086"><ele>525.4</ele><time>2026-04-25T13:14:50Z</time></trkpt><trkpt lat="43.71244761091242" lon="12.721241783185551"><ele>530.0</ele><time>2026-04-25T13:14:52Z</time></trkpt><trkpt lat="43.7124843202682" lon="12.721342820331095"><ele>530.0</ele><time>2026-04-25T13:14:53Z</time></trkpt><trkpt lat="43.712501378568234" lon="12.721450043539198"><ele>530.0</ele><time>2026-04-25T13:14:54Z</time></trkpt><trkpt lat="43.71249581701427" lon="12.721548599045024"><ele>530.0</ele><time>2026-04-25T13:14:55Z</time></trkpt><trkpt lat="43.71246875677233" lon="12.721641117567971"><ele>530.0</ele><time>2026-04-25T13:14:56Z</time></trkpt><trkpt lat="43.7124429932338" lon="12.721754406790835"><ele>530.0</ele><time>2026-04-25T13:14:57Z</time></trkpt><trkpt lat="43.7124999179706" lon="12.721948588341574"><ele>529.0</ele><time>2026-04-25T13:14:59Z</time></trkpt><trkpt lat="43.71255204144775" lon="12.722077557668735"><ele>528.0</ele><time>2026-04-25T13:15:00Z</time></trkpt><trkpt lat="43.71259965176774" lon="12.72220833070778"><ele>527.0</ele><time>2026-04-25T13:15:01Z</time></trkpt><trkpt lat="43.71262776359915" lon="12.722334847608321"><ele>526.0</ele><time>2026-04-25T13:15:02Z</time></trkpt><trkpt lat="43.7126345128408" lon="12.7224678594412"><ele>525.0</ele><time>2026-04-25T13:15:03Z</time></trkpt><trkpt lat="43.71263058448037" lon="12.722574277659596"><ele>525.0</ele><time>2026-04-25T13:15:04Z</time></trkpt><trkpt lat="43.71263817524872" lon="12.722691393209084"><ele>525.0</ele><time>2026-04-25T13:15:05Z</time></trkpt><trkpt lat="43.7126568109466" lon="12.722793831374219"><ele>525.0</ele><time>2026-04-25T13:15:06Z</time></trkpt><trkpt lat="43.71270323359649" lon="12.722896849249617"><ele>525.0</ele><time>2026-04-25T13:15:07Z</time></trkpt><trkpt lat="43.71275064768955" lon="12.72297413212056"><ele>525.0</ele><time>2026-04-25T13:15:08Z</time></trkpt><trkpt lat="43.7128003566382" lon="12.723063262357874"><ele>525.0</ele><time>2026-04-25T13:15:09Z</time></trkpt><trkpt lat="43.71286235102672" lon="12.723152710213446"><ele>528.0</ele><time>2026-04-25T13:15:10Z</time></trkpt><trkpt lat="43.71291106369136" lon="12.723234221159089"><ele>531.0</ele><time>2026-04-25T13:15:11Z</time></trkpt><trkpt lat="43.71298065934431" lon="12.72328971492038"><ele>534.0</ele><time>2026-04-25T13:15:12Z</time></trkpt><trkpt lat="43.71306663388834" lon="12.723354027152313"><ele>537.0</ele><time>2026-04-25T13:15:13Z</time></trkpt><trkpt lat="43.71314237881573" lon="12.723411059566018"><ele>540.0</ele><time>2026-04-25T13:15:14Z</time></trkpt><trkpt lat="43.71318538753507" lon="12.723476547592481"><ele>543.0</ele><time>2026-04-25T13:15:15Z</time></trkpt><trkpt lat="43.71319928636316" lon="12.723680498342118"><ele>543.0</ele><time>2026-04-25T13:15:17Z</time></trkpt><trkpt lat="43.71319225715982" lon="12.72380710269374"><ele>543.0</ele><time>2026-04-25T13:15:18Z</time></trkpt><trkpt lat="43.713190121993655" lon="12.723914556479324"><ele>543.0</ele><time>2026-04-25T13:15:19Z</time></trkpt><trkpt lat="43.713206220485496" lon="12.72400339886193"><ele>543.0</ele><time>2026-04-25T13:15:20Z</time></trkpt><trkpt lat="43.71324124745213" lon="12.724117876490709"><ele>543.0</ele><time>2026-04-25T13:15:21Z</time></trkpt><trkpt lat="43.713295010191" lon="12.724236588941217"><ele>543.0</ele><time>2026-04-25T13:15:22Z</time></trkpt><trkpt lat="43.71335961839439" lon="12.724360452407472"><ele>544.6</ele><time>2026-04-25T13:15:23Z</time></trkpt><trkpt lat="43.71341244082163" lon="12.724450219898372"><ele>546.1999999999999</ele><time>2026-04-25T13:15:24Z</time></trkpt><trkpt lat="43.7134380832529" lon="12.72454390951843"><ele>547.8</ele><time>2026-04-25T13:15:26Z</time></trkpt><trkpt lat="43.713351559814996" lon="12.724630058951673"><ele>549.4</ele><time>2026-04-25T13:15:28Z</time></trkpt><trkpt lat="43.713238096907595" lon="12.724597293278975"><ele>551.0</ele><time>2026-04-25T13:15:30Z</time></trkpt><trkpt lat="43.713147809559615" lon="12.724534975176358"><ele>551.0</ele><time>2026-04-25T13:15:31Z</time></trkpt><trkpt lat="43.71302294572942" lon="12.724463586524287"><ele>551.0</ele><time>2026-04-25T13:15:32Z</time></trkpt><trkpt lat="43.712880895736255" lon="12.72437373035041"><ele>551.0</ele><time>2026-04-25T13:15:33Z</time></trkpt><trkpt lat="43.71275293795341" lon="12.724297179263159"><ele>551.0</ele><time>2026-04-25T13:15:34Z</time></trkpt><trkpt lat="43.71264678619818" lon="12.724228407632799"><ele>548.0</ele><time>2026-04-25T13:15:35Z</time></trkpt><trkpt lat="43.71257824515988" lon="12.7241979698088"><ele>545.0</ele><time>2026-04-25T13:15:36Z</time></trkpt><trkpt lat="43.71248116437588" lon="12.72413242325497"><ele>542.0</ele><time>2026-04-25T13:15:38Z</time></trkpt><trkpt lat="43.71240832835552" lon="12.724083044416052"><ele>539.0</ele><time>2026-04-25T13:15:39Z</time></trkpt><trkpt lat="43.712317781645154" lon="12.724024134206845"><ele>536.0</ele><time>2026-04-25T13:15:40Z</time></trkpt><trkpt lat="43.71221677743344" lon="12.723970828264394"><ele>536.0</ele><time>2026-04-25T13:15:41Z</time></trkpt><trkpt lat="43.71213186685972" lon="12.723936498146918"><ele>536.0</ele><time>2026-04-25T13:15:42Z</time></trkpt><trkpt lat="43.712064848201145" lon="12.723914624858926"><ele>536.0</ele><time>2026-04-25T13:15:43Z</time></trkpt><trkpt lat="43.71197421788285" lon="12.723877764165604"><ele>536.0</ele><time>2026-04-25T13:15:45Z</time></trkpt><trkpt lat="43.71197223335767" lon="12.724014897631502"><ele>536.0</ele><time>2026-04-25T13:15:50Z</time></trkpt><trkpt lat="43.71204510657716" lon="12.724145862133629"><ele>536.0</ele><time>2026-04-25T13:15:52Z</time></trkpt><trkpt lat="43.71209121859794" lon="12.724229569351845"><ele>536.0</ele><time>2026-04-25T13:15:53Z</time></trkpt><trkpt lat="43.71213694844135" lon="12.724322685299436"><ele>536.0</ele><time>2026-04-25T13:15:54Z</time></trkpt><trkpt lat="43.71219852363233" lon="12.724433954780858"><ele>536.0</ele><time>2026-04-25T13:15:55Z</time></trkpt><trkpt lat="43.7122654419318" lon="12.72456155783471"><ele>536.0</ele><time>2026-04-25T13:15:56Z</time></trkpt><trkpt lat="43.712340228453236" lon="12.72469179923486"><ele>538.0</ele><time>2026-04-25T13:15:57Z</time></trkpt><trkpt lat="43.712411940625636" lon="12.724832425925062"><ele>540.0</ele><time>2026-04-25T13:15:58Z</time></trkpt><trkpt lat="43.7124760776148" lon="12.724955687672574"><ele>542.0</ele><time>2026-04-25T13:15:59Z</time></trkpt><trkpt lat="43.712545051532025" lon="12.725085135483408"><ele>544.0</ele><time>2026-04-25T13:16:00Z</time></trkpt><trkpt lat="43.71259743118906" lon="12.725216057087422"><ele>544.4</ele><time>2026-04-25T13:16:01Z</time></trkpt><trkpt lat="43.712641587482295" lon="12.725335373975096"><ele>544.8</ele><time>2026-04-25T13:16:02Z</time></trkpt><trkpt lat="43.712700812681476" lon="12.72544225795183"><ele>545.2</ele><time>2026-04-25T13:16:03Z</time></trkpt><trkpt lat="43.712773471404816" lon="12.72555573637515"><ele>545.6</ele><time>2026-04-25T13:16:04Z</time></trkpt><trkpt lat="43.71282854015989" lon="12.725660927668452"><ele>546.0</ele><time>2026-04-25T13:16:05Z</time></trkpt><trkpt lat="43.71286118277605" lon="12.725756033385613"><ele>549.4</ele><time>2026-04-25T13:16:06Z</time></trkpt><trkpt lat="43.712851769131525" lon="12.72590688329836"><ele>552.8</ele><time>2026-04-25T13:16:08Z</time></trkpt><trkpt lat="43.71279722995632" lon="12.7260218872162"><ele>556.1999999999999</ele><time>2026-04-25T13:16:10Z</time></trkpt><trkpt lat="43.71269538335019" lon="12.726088769337819"><ele>559.6</ele><time>2026-04-25T13:16:12Z</time></trkpt><trkpt lat="43.712616910111436" lon="12.726101841241988"><ele>563.0</ele><time>2026-04-25T13:16:13Z</time></trkpt><trkpt lat="43.712519597997854" lon="12.726120424050842"><ele>563.0</ele><time>2026-04-25T13:16:14Z</time></trkpt><trkpt lat="43.71241781067427" lon="12.726151798019266"><ele>563.0</ele><time>2026-04-25T13:16:15Z</time></trkpt><trkpt lat="43.712300206636044" lon="12.726190448681493"><ele>563.0</ele><time>2026-04-25T13:16:16Z</time></trkpt><trkpt lat="43.712178341259374" lon="12.726219630227034"><ele>563.0</ele><time>2026-04-25T13:16:17Z</time></trkpt><trkpt lat="43.71208255666235" lon="12.726241762238054"><ele>563.0</ele><time>2026-04-25T13:16:18Z</time></trkpt><trkpt lat="43.71198310264806" lon="12.726262155705317"><ele>562.1999999999999</ele><time>2026-04-25T13:16:19Z</time></trkpt><trkpt lat="43.711864672253995" lon="12.726282817235901"><ele>561.4</ele><time>2026-04-25T13:16:20Z</time></trkpt><trkpt lat="43.71177210070553" lon="12.726302142252942"><ele>560.5999999999999</ele><time>2026-04-25T13:16:21Z</time></trkpt><trkpt lat="43.71167869128799" lon="12.726326568793047"><ele>559.8</ele><time>2026-04-25T13:16:22Z</time></trkpt><trkpt lat="43.71160180789401" lon="12.726359511042498"><ele>559.0</ele><time>2026-04-25T13:16:23Z</time></trkpt><trkpt lat="43.71153461620874" lon="12.7263903257571"><ele>559.0</ele><time>2026-04-25T13:16:24Z</time></trkpt><trkpt lat="43.71144381967421" lon="12.726431679135699"><ele>559.0</ele><time>2026-04-25T13:16:25Z</time></trkpt><trkpt lat="43.71135666668788" lon="12.726461058071987"><ele>559.0</ele><time>2026-04-25T13:16:26Z</time></trkpt><trkpt lat="43.711297397017" lon="12.726497155912186"><ele>559.0</ele><time>2026-04-25T13:16:27Z</time></trkpt><trkpt lat="43.71124758924942" lon="12.726610900030392"><ele>559.0</ele><time>2026-04-25T13:16:29Z</time></trkpt><trkpt lat="43.71127703185832" lon="12.72675902048831"><ele>559.0</ele><time>2026-04-25T13:16:31Z</time></trkpt><trkpt lat="43.71131815523144" lon="12.726839240841718"><ele>559.0</ele><time>2026-04-25T13:16:32Z</time></trkpt><trkpt lat="43.71137053049516" lon="12.726905551896587"><ele>559.0</ele><time>2026-04-25T13:16:33Z</time></trkpt><trkpt lat="43.71143680271476" lon="12.726963832392352"><ele>559.0</ele><time>2026-04-25T13:16:34Z</time></trkpt><trkpt lat="43.71152564759163" lon="12.727044548086738"><ele>559.0</ele><time>2026-04-25T13:16:35Z</time></trkpt><trkpt lat="43.71163275716413" lon="12.727134924968611"><ele>558.75</ele><time>2026-04-25T13:16:36Z</time></trkpt><trkpt lat="43.71173924409609" lon="12.72723299877515"><ele>558.5</ele><time>2026-04-25T13:16:37Z</time></trkpt><trkpt lat="43.7118372588738" lon="12.727316318496017"><ele>558.25</ele><time>2026-04-25T13:16:38Z</time></trkpt><trkpt lat="43.71192334298763" lon="12.727415683723928"><ele>558.0</ele><time>2026-04-25T13:16:39Z</time></trkpt><trkpt lat="43.71203122158897" lon="12.727515102857398"><ele>558.75</ele><time>2026-04-25T13:16:40Z</time></trkpt><trkpt lat="43.71213138049766" lon="12.727620334165234"><ele>559.5</ele><time>2026-04-25T13:16:41Z</time></trkpt><trkpt lat="43.7122251489611" lon="12.727734670569868"><ele>560.25</ele><time>2026-04-25T13:16:42Z</time></trkpt><trkpt lat="43.712318588254725" lon="12.727837011642158"><ele>561.0</ele><time>2026-04-25T13:16:43Z</time></trkpt><trkpt lat="43.71242888361922" lon="12.727937265554553"><ele>561.0</ele><time>2026-04-25T13:16:44Z</time></trkpt><trkpt lat="43.71252664420547" lon="12.728015369251805"><ele>561.0</ele><time>2026-04-25T13:16:45Z</time></trkpt><trkpt lat="43.71261691827994" lon="12.72807643732635"><ele>561.0</ele><time>2026-04-25T13:16:46Z</time></trkpt><trkpt lat="43.71271049897207" lon="12.72812612770757"><ele>561.0</ele><time>2026-04-25T13:16:47Z</time></trkpt><trkpt lat="43.71280123531377" lon="12.728170704717709"><ele>561.0</ele><time>2026-04-25T13:16:48Z</time></trkpt><trkpt lat="43.712887524138864" lon="12.728214491946433"><ele>562.6</ele><time>2026-04-25T13:16:49Z</time></trkpt><trkpt lat="43.7129743580543" lon="12.728269948548443"><ele>564.2</ele><time>2026-04-25T13:16:50Z</time></trkpt><trkpt lat="43.713070896038936" lon="12.728335624156205"><ele>565.8</ele><time>2026-04-25T13:16:51Z</time></trkpt><trkpt lat="43.71316314154239" lon="12.728414152600683"><ele>567.4</ele><time>2026-04-25T13:16:52Z</time></trkpt><trkpt lat="43.71326620903142" lon="12.728493615380007"><ele>569.0</ele><time>2026-04-25T13:16:53Z</time></trkpt><trkpt lat="43.71335937801947" lon="12.728575247324853"><ele>569.0</ele><time>2026-04-25T13:16:54Z</time></trkpt><trkpt lat="43.71347615418587" lon="12.728664387167928"><ele>569.0</ele><time>2026-04-25T13:16:55Z</time></trkpt><trkpt lat="43.713593172222375" lon="12.728759351812325"><ele>569.0</ele><time>2026-04-25T13:16:56Z</time></trkpt><trkpt lat="43.71370515920178" lon="12.728842216991668"><ele>569.0</ele><time>2026-04-25T13:16:57Z</time></trkpt><trkpt lat="43.71382038197494" lon="12.728925810750294"><ele>570.2</ele><time>2026-04-25T13:16:58Z</time></trkpt><trkpt lat="43.71392755702813" lon="12.728993760481359"><ele>571.4</ele><time>2026-04-25T13:16:59Z</time></trkpt><trkpt lat="43.714016980350166" lon="12.729054966451976"><ele>572.6</ele><time>2026-04-25T13:17:00Z</time></trkpt><trkpt lat="43.71411080738973" lon="12.729116447892967"><ele>573.8</ele><time>2026-04-25T13:17:01Z</time></trkpt><trkpt lat="43.7141822737029" lon="12.729168792915381"><ele>575.0</ele><time>2026-04-25T13:17:02Z</time></trkpt><trkpt lat="43.714245573723616" lon="12.729222603413461"><ele>575.0</ele><time>2026-04-25T13:17:03Z</time></trkpt><trkpt lat="43.71429714456992" lon="12.729275899535427"><ele>575.0</ele><time>2026-04-25T13:17:04Z</time></trkpt><trkpt lat="43.7143937168057" lon="12.729373886249494"><ele>575.0</ele><time>2026-04-25T13:17:06Z</time></trkpt><trkpt lat="43.7144792134866" lon="12.72945481853742"><ele>575.0</ele><time>2026-04-25T13:17:08Z</time></trkpt><trkpt lat="43.7145310806055" lon="12.729508336338721"><ele>575.0</ele><time>2026-04-25T13:17:10Z</time></trkpt><trkpt lat="43.714472866448055" lon="12.72958144133693"><ele>575.0</ele><time>2026-04-25T13:17:15Z</time></trkpt><trkpt lat="43.71439492854839" lon="12.729550965365405"><ele>573.4</ele><time>2026-04-25T13:17:17Z</time></trkpt><trkpt lat="43.7143428495724" lon="12.7296076038376"><ele>571.8</ele><time>2026-04-25T13:21:02Z</time></trkpt><trkpt lat="43.714269840451" lon="12.729715609749915"><ele>570.2</ele><time>2026-04-25T13:21:04Z</time></trkpt><trkpt lat="43.714191578806236" lon="12.72985850671238"><ele>568.6</ele><time>2026-04-25T13:21:06Z</time></trkpt><trkpt lat="43.714143569233855" lon="12.729943278622544"><ele>567.0</ele><time>2026-04-25T13:21:07Z</time></trkpt><trkpt lat="43.71409444022423" lon="12.730031461394848"><ele>567.0</ele><time>2026-04-25T13:21:08Z</time></trkpt><trkpt lat="43.71403792590725" lon="12.730113697607552"><ele>567.0</ele><time>2026-04-25T13:21:09Z</time></trkpt><trkpt lat="43.71397808880064" lon="12.730195559441551"><ele>567.0</ele><time>2026-04-25T13:21:10Z</time></trkpt><trkpt lat="43.713917032538966" lon="12.73028068591541"><ele>567.0</ele><time>2026-04-25T13:21:11Z</time></trkpt><trkpt lat="43.713857200344385" lon="12.730375254007992"><ele>567.0</ele><time>2026-04-25T13:21:12Z</time></trkpt><trkpt lat="43.71381652481161" lon="12.73048125982969"><ele>567.0</ele><time>2026-04-25T13:21:13Z</time></trkpt><trkpt lat="43.71377702926562" lon="12.730584057777666"><ele>567.0</ele><time>2026-04-25T13:21:14Z</time></trkpt><trkpt lat="43.713746220471336" lon="12.730706552093409"><ele>567.0</ele><time>2026-04-25T13:21:15Z</time></trkpt><trkpt lat="43.71370835124" lon="12.730851663836109"><ele>567.0</ele><time>2026-04-25T13:21:16Z</time></trkpt><trkpt lat="43.71370022301046" lon="12.731004821563658"><ele>567.0</ele><time>2026-04-25T13:21:17Z</time></trkpt><trkpt lat="43.713691789266896" lon="12.73117425945512"><ele>567.0</ele><time>2026-04-25T13:21:18Z</time></trkpt><trkpt lat="43.7136831523097" lon="12.731353505607723"><ele>567.0</ele><time>2026-04-25T13:21:19Z</time></trkpt><trkpt lat="43.71367059162368" lon="12.731527594083246"><ele>567.0</ele><time>2026-04-25T13:21:20Z</time></trkpt><trkpt lat="43.71365989932085" lon="12.731675409993773"><ele>567.0</ele><time>2026-04-25T13:21:21Z</time></trkpt><trkpt lat="43.713651371304465" lon="12.73181070773264"><ele>567.0</ele><time>2026-04-25T13:21:22Z</time></trkpt><trkpt lat="43.713643559534106" lon="12.731955783511037"><ele>567.0</ele><time>2026-04-25T13:21:23Z</time></trkpt><trkpt lat="43.713646042113524" lon="12.732096857020696"><ele>567.0</ele><time>2026-04-25T13:21:24Z</time></trkpt><trkpt lat="43.71366256781788" lon="12.732229182021978"><ele>567.0</ele><time>2026-04-25T13:21:25Z</time></trkpt><trkpt lat="43.71369025963246" lon="12.732334091813073"><ele>567.0</ele><time>2026-04-25T13:21:26Z</time></trkpt><trkpt lat="43.713718099685195" lon="12.73242626058775"><ele>567.0</ele><time>2026-04-25T13:21:27Z</time></trkpt><trkpt lat="43.713738505726035" lon="12.73251479185642"><ele>567.0</ele><time>2026-04-25T13:21:28Z</time></trkpt><trkpt lat="43.71376635340728" lon="12.732626984329096"><ele>567.0</ele><time>2026-04-25T13:21:29Z</time></trkpt><trkpt lat="43.713797614257466" lon="12.732762203795982"><ele>567.5</ele><time>2026-04-25T13:21:30Z</time></trkpt><trkpt lat="43.713830794005645" lon="12.732906687625698"><ele>568.0</ele><time>2026-04-25T13:21:31Z</time></trkpt><trkpt lat="43.713865909285694" lon="12.733058636141774"><ele>568.5</ele><time>2026-04-25T13:21:32Z</time></trkpt><trkpt lat="43.71390070543289" lon="12.733223628339223"><ele>569.0</ele><time>2026-04-25T13:21:33Z</time></trkpt><trkpt lat="43.71393704953301" lon="12.733400112407415"><ele>571.5</ele><time>2026-04-25T13:21:34Z</time></trkpt><trkpt lat="43.71398002509548" lon="12.733579667391398"><ele>574.0</ele><time>2026-04-25T13:21:35Z</time></trkpt><trkpt lat="43.71403331946785" lon="12.733757149256478"><ele>576.5</ele><time>2026-04-25T13:21:36Z</time></trkpt><trkpt lat="43.71410346686291" lon="12.733933559651001"><ele>579.0</ele><time>2026-04-25T13:21:37Z</time></trkpt><trkpt lat="43.71417884671821" lon="12.734124663292972"><ele>579.0</ele><time>2026-04-25T13:21:38Z</time></trkpt><trkpt lat="43.714259430888404" lon="12.734331441742091"><ele>579.0</ele><time>2026-04-25T13:21:39Z</time></trkpt><trkpt lat="43.714350651658805" lon="12.734530458805203"><ele>579.0</ele><time>2026-04-25T13:21:40Z</time></trkpt><trkpt lat="43.71444645776819" lon="12.734734598014223"><ele>578.25</ele><time>2026-04-25T13:21:41Z</time></trkpt><trkpt lat="43.71452613595652" lon="12.734910180915705"><ele>577.5</ele><time>2026-04-25T13:21:42Z</time></trkpt><trkpt lat="43.714605888161785" lon="12.735063899364373"><ele>576.75</ele><time>2026-04-25T13:21:43Z</time></trkpt><trkpt lat="43.71466947464558" lon="12.735214441101874"><ele>576.0</ele><time>2026-04-25T13:21:44Z</time></trkpt><trkpt lat="43.71472896923097" lon="12.735352290082115"><ele>576.0</ele><time>2026-04-25T13:21:45Z</time></trkpt><trkpt lat="43.714783360664825" lon="12.735479623475195"><ele>576.0</ele><time>2026-04-25T13:21:46Z</time></trkpt><trkpt lat="43.71483901941861" lon="12.735613832874552"><ele>576.0</ele><time>2026-04-25T13:21:47Z</time></trkpt><trkpt lat="43.714891763137295" lon="12.735735959319214"><ele>576.0</ele><time>2026-04-25T13:21:48Z</time></trkpt><trkpt lat="43.71493454746314" lon="12.735839603349094"><ele>576.0</ele><time>2026-04-25T13:21:49Z</time></trkpt><trkpt lat="43.71496471166745" lon="12.735945440618945"><ele>576.0</ele><time>2026-04-25T13:21:50Z</time></trkpt><trkpt lat="43.714960563622206" lon="12.736044917234777"><ele>576.0</ele><time>2026-04-25T13:21:51Z</time></trkpt><trkpt lat="43.71495898107584" lon="12.736182014070371"><ele>576.0</ele><time>2026-04-25T13:21:53Z</time></trkpt><trkpt lat="43.71495430318938" lon="12.736294278883395"><ele>576.0</ele><time>2026-04-25T13:21:56Z</time></trkpt><trkpt lat="43.715017682727236" lon="12.7363665998979"><ele>576.0</ele><time>2026-04-25T13:21:57Z</time></trkpt><trkpt lat="43.71505140845457" lon="12.736467436051326"><ele>576.0</ele><time>2026-04-25T13:21:58Z</time></trkpt><trkpt lat="43.71511874813734" lon="12.736569382560406"><ele>574.2</ele><time>2026-04-25T13:21:59Z</time></trkpt><trkpt lat="43.71520845285604" lon="12.73663554202112"><ele>572.4000000000001</ele><time>2026-04-25T13:22:00Z</time></trkpt><trkpt lat="43.71529393867938" lon="12.73670882448741"><ele>570.6</ele><time>2026-04-25T13:22:01Z</time></trkpt><trkpt lat="43.71538007649763" lon="12.73678681000494"><ele>568.8000000000001</ele><time>2026-04-25T13:22:02Z</time></trkpt><trkpt lat="43.71547020184765" lon="12.73685060138691"><ele>567.0</ele><time>2026-04-25T13:22:03Z</time></trkpt><trkpt lat="43.7155718618253" lon="12.736907920197574"><ele>562.2</ele><time>2026-04-25T13:22:04Z</time></trkpt><trkpt lat="43.7156832943561" lon="12.736953554476544"><ele>557.4000000000001</ele><time>2026-04-25T13:22:05Z</time></trkpt><trkpt lat="43.71579452242375" lon="12.736981243095338"><ele>552.5999999999999</ele><time>2026-04-25T13:22:06Z</time></trkpt><trkpt lat="43.71590119183618" lon="12.73701888124161"><ele>547.8</ele><time>2026-04-25T13:22:07Z</time></trkpt><trkpt lat="43.716001239021146" lon="12.737057013572716"><ele>543.0</ele><time>2026-04-25T13:22:08Z</time></trkpt><trkpt lat="43.716106995263125" lon="12.737088819380133"><ele>542.6</ele><time>2026-04-25T13:22:09Z</time></trkpt><trkpt lat="43.71621250098733" lon="12.737115081752886"><ele>542.1999999999999</ele><time>2026-04-25T13:22:10Z</time></trkpt><trkpt lat="43.71631878078268" lon="12.73712654019419"><ele>541.8</ele><time>2026-04-25T13:22:11Z</time></trkpt><trkpt lat="43.716429277369286" lon="12.737137292334117"><ele>541.4</ele><time>2026-04-25T13:22:12Z</time></trkpt><trkpt lat="43.71653999930051" lon="12.737159655231553"><ele>541.0</ele><time>2026-04-25T13:22:13Z</time></trkpt><trkpt lat="43.716647278691944" lon="12.73716769107893"><ele>541.0</ele><time>2026-04-25T13:22:14Z</time></trkpt><trkpt lat="43.716749052220806" lon="12.737196282569904"><ele>541.0</ele><time>2026-04-25T13:22:15Z</time></trkpt><trkpt lat="43.71685566617338" lon="12.737214467571887"><ele>541.0</ele><time>2026-04-25T13:22:16Z</time></trkpt><trkpt lat="43.71696437121626" lon="12.73723954555049"><ele>541.0</ele><time>2026-04-25T13:22:17Z</time></trkpt><trkpt lat="43.71706686148245" lon="12.737288492411032"><ele>541.0</ele><time>2026-04-25T13:22:18Z</time></trkpt><trkpt lat="43.71717545779313" lon="12.73733478534498"><ele>539.8</ele><time>2026-04-25T13:22:19Z</time></trkpt><trkpt lat="43.717286524420416" lon="12.737360371186124"><ele>538.6</ele><time>2026-04-25T13:22:20Z</time></trkpt><trkpt lat="43.71739010731053" lon="12.737376870057988"><ele>537.4</ele><time>2026-04-25T13:22:21Z</time></trkpt><trkpt lat="43.71748609993386" lon="12.737391864539493"><ele>536.2</ele><time>2026-04-25T13:22:22Z</time></trkpt><trkpt lat="43.717573596064724" lon="12.737409439667312"><ele>535.0</ele><time>2026-04-25T13:22:23Z</time></trkpt><trkpt lat="43.71765300812852" lon="12.737426033271108"><ele>535.0</ele><time>2026-04-25T13:22:24Z</time></trkpt><trkpt lat="43.717715526902985" lon="12.737410941087587"><ele>535.0</ele><time>2026-04-25T13:22:25Z</time></trkpt><trkpt lat="43.71780426483851" lon="12.737374039727957"><ele>535.0</ele><time>2026-04-25T13:22:27Z</time></trkpt><trkpt lat="43.71780881576392" lon="12.737249326056437"><ele>535.0</ele><time>2026-04-25T13:22:28Z</time></trkpt><trkpt lat="43.717738659274154" lon="12.737150149595971"><ele>535.0</ele><time>2026-04-25T13:22:29Z</time></trkpt><trkpt lat="43.71769665837222" lon="12.73705975922712"><ele>535.0</ele><time>2026-04-25T13:22:30Z</time></trkpt><trkpt lat="43.71767068719801" lon="12.736970378333794"><ele>535.0</ele><time>2026-04-25T13:22:31Z</time></trkpt><trkpt lat="43.71770087516572" lon="12.736892421826147"><ele>535.0</ele><time>2026-04-25T13:22:32Z</time></trkpt><trkpt lat="43.717801548145104" lon="12.736839495792402"><ele>535.0</ele><time>2026-04-25T13:22:34Z</time></trkpt><trkpt lat="43.717950234094985" lon="12.736822502394666"><ele>535.0</ele><time>2026-04-25T13:22:36Z</time></trkpt><trkpt lat="43.71807594615665" lon="12.736824773503074"><ele>535.0</ele><time>2026-04-25T13:22:37Z</time></trkpt><trkpt lat="43.718203930341986" lon="12.736802386719729"><ele>532.2</ele><time>2026-04-25T13:22:38Z</time></trkpt><trkpt lat="43.71831125367312" lon="12.736783969345282"><ele>529.4</ele><time>2026-04-25T13:22:39Z</time></trkpt><trkpt lat="43.718411511203605" lon="12.736800100290287"><ele>526.6</ele><time>2026-04-25T13:22:40Z</time></trkpt><trkpt lat="43.71850036604112" lon="12.736842910630202"><ele>523.8</ele><time>2026-04-25T13:22:41Z</time></trkpt><trkpt lat="43.71857296225987" lon="12.736907011426972"><ele>521.0</ele><time>2026-04-25T13:22:42Z</time></trkpt><trkpt lat="43.71865314851215" lon="12.737008647391109"><ele>518.6</ele><time>2026-04-25T13:22:43Z</time></trkpt><trkpt lat="43.71871605124669" lon="12.737144021546252"><ele>516.2</ele><time>2026-04-25T13:22:44Z</time></trkpt><trkpt lat="43.718768637697366" lon="12.737305696364448"><ele>513.8</ele><time>2026-04-25T13:22:45Z</time></trkpt><trkpt lat="43.71881974370831" lon="12.737439403164732"><ele>511.4</ele><time>2026-04-25T13:22:46Z</time></trkpt><trkpt lat="43.71887385578208" lon="12.737526523801789"><ele>509.0</ele><time>2026-04-25T13:22:47Z</time></trkpt><trkpt lat="43.718942364521205" lon="12.737559828915591"><ele>509.0</ele><time>2026-04-25T13:22:48Z</time></trkpt><trkpt lat="43.71906530051802" lon="12.73758151125129"><ele>509.0</ele><time>2026-04-25T13:22:50Z</time></trkpt><trkpt lat="43.719155769932364" lon="12.737530931645557"><ele>509.0</ele><time>2026-04-25T13:22:51Z</time></trkpt><trkpt lat="43.71922274355328" lon="12.737417152628288"><ele>509.0</ele><time>2026-04-25T13:22:52Z</time></trkpt><trkpt lat="43.719259109682945" lon="12.73726680603406"><ele>509.0</ele><time>2026-04-25T13:22:53Z</time></trkpt><trkpt lat="43.719299507041974" lon="12.73712457095377"><ele>509.0</ele><time>2026-04-25T13:22:54Z</time></trkpt><trkpt lat="43.719331213650584" lon="12.736990029082724"><ele>509.0</ele><time>2026-04-25T13:22:55Z</time></trkpt><trkpt lat="43.719383471751996" lon="12.73688415737601"><ele>509.0</ele><time>2026-04-25T13:22:56Z</time></trkpt><trkpt lat="43.719418236184666" lon="12.73680512514621"><ele>509.0</ele><time>2026-04-25T13:22:57Z</time></trkpt><trkpt lat="43.719491280919804" lon="12.736775243352502"><ele>509.0</ele><time>2026-04-25T13:22:59Z</time></trkpt><trkpt lat="43.719596909357804" lon="12.736919905986158"><ele>506.0</ele><time>2026-04-25T13:23:01Z</time></trkpt><trkpt lat="43.71968693008496" lon="12.736980328050254"><ele>503.0</ele><time>2026-04-25T13:23:02Z</time></trkpt><trkpt lat="43.71975998289685" lon="12.737054846400838"><ele>500.0</ele><time>2026-04-25T13:23:03Z</time></trkpt><trkpt lat="43.71983918941448" lon="12.73712135986522"><ele>497.0</ele><time>2026-04-25T13:23:04Z</time></trkpt><trkpt lat="43.71991155372721" lon="12.737131424409938"><ele>494.0</ele><time>2026-04-25T13:23:05Z</time></trkpt><trkpt lat="43.71996529891371" lon="12.73697174162569"><ele>492.25</ele><time>2026-04-25T13:23:07Z</time></trkpt><trkpt lat="43.719960197024896" lon="12.736815671886022"><ele>490.5</ele><time>2026-04-25T13:23:08Z</time></trkpt><trkpt lat="43.719965291691224" lon="12.736655622926294"><ele>488.75</ele><time>2026-04-25T13:23:09Z</time></trkpt><trkpt lat="43.71998636203669" lon="12.73648586183181"><ele>487.0</ele><time>2026-04-25T13:23:10Z</time></trkpt><trkpt lat="43.72000922202711" lon="12.736325333636682"><ele>487.0</ele><time>2026-04-25T13:23:11Z</time></trkpt><trkpt lat="43.720069013125034" lon="12.736193358380925"><ele>487.00000000000006</ele><time>2026-04-25T13:23:12Z</time></trkpt><trkpt lat="43.72011913279635" lon="12.73606334532911"><ele>487.00000000000006</ele><time>2026-04-25T13:23:13Z</time></trkpt><trkpt lat="43.720167199660544" lon="12.735926577948906"><ele>487.0</ele><time>2026-04-25T13:23:14Z</time></trkpt><trkpt lat="43.72019203707778" lon="12.7357834574633"><ele>487.0</ele><time>2026-04-25T13:23:15Z</time></trkpt><trkpt lat="43.7202236527728" lon="12.73566982284124"><ele>482.8</ele><time>2026-04-25T13:23:16Z</time></trkpt><trkpt lat="43.72026258764526" lon="12.735568911778907"><ele>478.6</ele><time>2026-04-25T13:23:17Z</time></trkpt><trkpt lat="43.7202954280668" lon="12.735486142980665"><ele>474.40000000000003</ele><time>2026-04-25T13:23:18Z</time></trkpt><trkpt lat="43.72037430220653" lon="12.735425455651516"><ele>470.20000000000005</ele><time>2026-04-25T13:23:20Z</time></trkpt><trkpt lat="43.72047944553931" lon="12.735484764416663"><ele>466.0</ele><time>2026-04-25T13:23:22Z</time></trkpt><trkpt lat="43.720598355238664" lon="12.735487466563718"><ele>466.00000000000006</ele><time>2026-04-25T13:23:24Z</time></trkpt><trkpt lat="43.72064633430266" lon="12.735407554544434"><ele>466.0</ele><time>2026-04-25T13:23:25Z</time></trkpt><trkpt lat="43.720639765150594" lon="12.735267231879845"><ele>466.0</ele><time>2026-04-25T13:23:26Z</time></trkpt><trkpt lat="43.72063746820321" lon="12.73515014161883"><ele>466.0</ele><time>2026-04-25T13:23:27Z</time></trkpt><trkpt lat="43.72073802631885" lon="12.73509673111696"><ele>466.00000000000006</ele><time>2026-04-25T13:23:29Z</time></trkpt><trkpt lat="43.720779884556464" lon="12.735177452231133"><ele>466.0</ele><time>2026-04-25T13:23:30Z</time></trkpt><trkpt lat="43.72081160009747" lon="12.735277164816052"><ele>466.0</ele><time>2026-04-25T13:23:31Z</time></trkpt><trkpt lat="43.72085837565388" lon="12.73538595469525"><ele>466.0</ele><time>2026-04-25T13:23:32Z</time></trkpt><trkpt lat="43.720915609082724" lon="12.735511498016917"><ele>466.0</ele><time>2026-04-25T13:23:33Z</time></trkpt><trkpt lat="43.72097693116445" lon="12.735616204384948"><ele>466.0</ele><time>2026-04-25T13:23:34Z</time></trkpt><trkpt lat="43.72104064893013" lon="12.735706350278972"><ele>466.0</ele><time>2026-04-25T13:23:35Z</time></trkpt><trkpt lat="43.721126282020386" lon="12.735743697806395"><ele>463.4</ele><time>2026-04-25T13:23:36Z</time></trkpt><trkpt lat="43.721226091732696" lon="12.735777590645364"><ele>460.8</ele><time>2026-04-25T13:23:37Z</time></trkpt><trkpt lat="43.72131329052906" lon="12.735799413658878"><ele>458.19999999999993</ele><time>2026-04-25T13:23:38Z</time></trkpt><trkpt lat="43.721394101170695" lon="12.735836449531691"><ele>455.59999999999997</ele><time>2026-04-25T13:23:39Z</time></trkpt><trkpt lat="43.72148200370351" lon="12.73590193549986"><ele>453.0</ele><time>2026-04-25T13:23:40Z</time></trkpt><trkpt lat="43.72156443128552" lon="12.73598732439928"><ele>454.0</ele><time>2026-04-25T13:23:41Z</time></trkpt><trkpt lat="43.72165159377431" lon="12.73607835608052"><ele>454.99999999999994</ele><time>2026-04-25T13:23:42Z</time></trkpt><trkpt lat="43.72171791469459" lon="12.736186679027485"><ele>455.99999999999994</ele><time>2026-04-25T13:23:43Z</time></trkpt><trkpt lat="43.72179470196773" lon="12.736294068403323"><ele>457.0</ele><time>2026-04-25T13:23:44Z</time></trkpt><trkpt lat="43.72188544128772" lon="12.736381189776285"><ele>458.0</ele><time>2026-04-25T13:23:45Z</time></trkpt><trkpt lat="43.72196568327222" lon="12.736478207287746"><ele>454.79999999999995</ele><time>2026-04-25T13:23:46Z</time></trkpt><trkpt lat="43.72205670412417" lon="12.736558810085045"><ele>451.59999999999997</ele><time>2026-04-25T13:23:47Z</time></trkpt><trkpt lat="43.72215301381395" lon="12.736623208167476"><ele>448.40000000000003</ele><time>2026-04-25T13:23:48Z</time></trkpt><trkpt lat="43.72224519278115" lon="12.736669971988766"><ele>445.20000000000005</ele><time>2026-04-25T13:23:49Z</time></trkpt><trkpt lat="43.722335675411664" lon="12.7367120326352"><ele>442.0</ele><time>2026-04-25T13:23:50Z</time></trkpt><trkpt lat="43.72242138330084" lon="12.736752830894867"><ele>442.0</ele><time>2026-04-25T13:23:51Z</time></trkpt><trkpt lat="43.72250780796598" lon="12.7367926567743"><ele>442.00000000000006</ele><time>2026-04-25T13:23:52Z</time></trkpt><trkpt lat="43.722595880693845" lon="12.736833625621095"><ele>442.00000000000006</ele><time>2026-04-25T13:23:53Z</time></trkpt><trkpt lat="43.72268865430469" lon="12.736880427989297"><ele>442.0</ele><time>2026-04-25T13:23:54Z</time></trkpt><trkpt lat="43.7227823328464" lon="12.736944960031831"><ele>442.0</ele><time>2026-04-25T13:23:55Z</time></trkpt><trkpt lat="43.72287405454571" lon="12.737032884739351"><ele>441.0</ele><time>2026-04-25T13:23:56Z</time></trkpt><trkpt lat="43.722959592711554" lon="12.737137689775542"><ele>440.00000000000006</ele><time>2026-04-25T13:23:57Z</time></trkpt><trkpt lat="43.723046432296414" lon="12.737239961418615"><ele>439.00000000000006</ele><time>2026-04-25T13:23:58Z</time></trkpt><trkpt lat="43.723119586999296" lon="12.737307839937316"><ele>438.0</ele><time>2026-04-25T13:23:59Z</time></trkpt><trkpt lat="43.723199701622626" lon="12.73738099835519"><ele>437.0</ele><time>2026-04-25T13:24:00Z</time></trkpt><trkpt lat="43.72330034356224" lon="12.737448131509733"><ele>437.0</ele><time>2026-04-25T13:24:01Z</time></trkpt><trkpt lat="43.72340525895424" lon="12.73750325462532"><ele>437.00000000000006</ele><time>2026-04-25T13:24:02Z</time></trkpt><trkpt lat="43.72351056227401" lon="12.737532467073414"><ele>437.00000000000006</ele><time>2026-04-25T13:24:03Z</time></trkpt><trkpt lat="43.72360574619114" lon="12.737573688418854"><ele>437.0</ele><time>2026-04-25T13:24:04Z</time></trkpt><trkpt lat="43.72370483084385" lon="12.73758865116632"><ele>437.0</ele><time>2026-04-25T13:24:05Z</time></trkpt><trkpt lat="43.723810960790374" lon="12.737580979066603"><ele>435.75</ele><time>2026-04-25T13:24:06Z</time></trkpt><trkpt lat="43.72392249134545" lon="12.737575393739025"><ele>434.5</ele><time>2026-04-25T13:24:07Z</time></trkpt><trkpt lat="43.724036539535284" lon="12.73756274258747"><ele>433.25</ele><time>2026-04-25T13:24:08Z</time></trkpt><trkpt lat="43.724155158877856" lon="12.737552784260721"><ele>432.0</ele><time>2026-04-25T13:24:09Z</time></trkpt><trkpt lat="43.72427659127328" lon="12.737555948972243"><ele>431.75</ele><time>2026-04-25T13:24:10Z</time></trkpt><trkpt lat="43.72440128343155" lon="12.737578902168496"><ele>431.5</ele><time>2026-04-25T13:24:11Z</time></trkpt><trkpt lat="43.72452253537911" lon="12.737609483744482"><ele>431.25</ele><time>2026-04-25T13:24:12Z</time></trkpt><trkpt lat="43.72462795640302" lon="12.737674361389702"><ele>431.0</ele><time>2026-04-25T13:24:13Z</time></trkpt><trkpt lat="43.72473758365888" lon="12.737720262033534"><ele>428.5</ele><time>2026-04-25T13:24:14Z</time></trkpt><trkpt lat="43.72484094325271" lon="12.737791258509654"><ele>426.0</ele><time>2026-04-25T13:24:15Z</time></trkpt><trkpt lat="43.72495467365107" lon="12.737875877624592"><ele>423.5</ele><time>2026-04-25T13:24:16Z</time></trkpt><trkpt lat="43.72506644865994" lon="12.73795984286128"><ele>421.0</ele><time>2026-04-25T13:24:17Z</time></trkpt><trkpt lat="43.72517478913155" lon="12.73805268033527"><ele>421.6</ele><time>2026-04-25T13:24:18Z</time></trkpt><trkpt lat="43.725278404382216" lon="12.738129230646624"><ele>422.20000000000005</ele><time>2026-04-25T13:24:19Z</time></trkpt><trkpt lat="43.725375484447" lon="12.738201186047512"><ele>422.79999999999995</ele><time>2026-04-25T13:24:20Z</time></trkpt><trkpt lat="43.72547406242256" lon="12.73826592681696"><ele>423.4</ele><time>2026-04-25T13:24:21Z</time></trkpt><trkpt lat="43.72556403989572" lon="12.738325453001565"><ele>424.0</ele><time>2026-04-25T13:24:22Z</time></trkpt><trkpt lat="43.72565048735553" lon="12.738379642936321"><ele>424.00000000000006</ele><time>2026-04-25T13:24:23Z</time></trkpt><trkpt lat="43.7257210181858" lon="12.738438513322782"><ele>424.0</ele><time>2026-04-25T13:24:24Z</time></trkpt><trkpt lat="43.72577651690884" lon="12.738480694337955"><ele>424.0</ele><time>2026-04-25T13:24:25Z</time></trkpt><trkpt lat="43.7258476721844" lon="12.738608573196741"><ele>424.0</ele><time>2026-04-25T13:24:27Z</time></trkpt><trkpt lat="43.72584972021992" lon="12.73870225409245"><ele>424.00000000000006</ele><time>2026-04-25T13:24:28Z</time></trkpt><trkpt lat="43.72586367374459" lon="12.738789570926802"><ele>424.0</ele><time>2026-04-25T13:24:29Z</time></trkpt><trkpt lat="43.725878408830305" lon="12.738882061916254"><ele>421.50000000000006</ele><time>2026-04-25T13:24:30Z</time></trkpt><trkpt lat="43.72589445516173" lon="12.738979499578178"><ele>419.0</ele><time>2026-04-25T13:24:31Z</time></trkpt><trkpt lat="43.72591689387984" lon="12.739067903881434"><ele>416.5</ele><time>2026-04-25T13:24:32Z</time></trkpt><trkpt lat="43.72597924784747" lon="12.73918275575133"><ele>414.0</ele><time>2026-04-25T13:24:34Z</time></trkpt><trkpt lat="43.7260706432773" lon="12.739247360844562"><ele>411.50000000000006</ele><time>2026-04-25T13:24:36Z</time></trkpt><trkpt lat="43.72614348174415" lon="12.739198491571338"><ele>409.0</ele><time>2026-04-25T13:24:37Z</time></trkpt><trkpt lat="43.726200096837" lon="12.739106901254372"><ele>407.7142857142857</ele><time>2026-04-25T13:24:38Z</time></trkpt><trkpt lat="43.72624796036922" lon="12.739019898731446"><ele>406.42857142857144</ele><time>2026-04-25T13:24:39Z</time></trkpt><trkpt lat="43.72629422613772" lon="12.738935127934246"><ele>405.14285714285717</ele><time>2026-04-25T13:24:40Z</time></trkpt><trkpt lat="43.726339841749365" lon="12.738860652570303"><ele>403.8571428571429</ele><time>2026-04-25T13:24:41Z</time></trkpt><trkpt lat="43.726389551403194" lon="12.738799775973066"><ele>402.57142857142856</ele><time>2026-04-25T13:24:42Z</time></trkpt><trkpt lat="43.72644367248183" lon="12.73875143455815"><ele>401.28571428571433</ele><time>2026-04-25T13:24:43Z</time></trkpt><trkpt lat="43.72650766835723" lon="12.738718086208062"><ele>400.0</ele><time>2026-04-25T13:24:44Z</time></trkpt><trkpt lat="43.726585046743196" lon="12.73869496328943"><ele>400.00000000000006</ele><time>2026-04-25T13:24:45Z</time></trkpt><trkpt lat="43.72666555421757" lon="12.73867849064801"><ele>400.0</ele><time>2026-04-25T13:24:46Z</time></trkpt><trkpt lat="43.726748424000874" lon="12.738668305228998"><ele>400.0</ele><time>2026-04-25T13:24:47Z</time></trkpt><trkpt lat="43.72682845694762" lon="12.738657481554345"><ele>400.0</ele><time>2026-04-25T13:24:48Z</time></trkpt><trkpt lat="43.726910788119184" lon="12.738642930274722"><ele>400.00000000000006</ele><time>2026-04-25T13:24:49Z</time></trkpt><trkpt lat="43.727008024085386" lon="12.738617247632375"><ele>400.0</ele><time>2026-04-25T13:24:50Z</time></trkpt><trkpt lat="43.72711519704376" lon="12.738588940421508"><ele>400.33333333333337</ele><time>2026-04-25T13:24:51Z</time></trkpt><trkpt lat="43.72722118571368" lon="12.738558820689535"><ele>400.6666666666667</ele><time>2026-04-25T13:24:52Z</time></trkpt><trkpt lat="43.72730864825026" lon="12.738527280989855"><ele>401.0</ele><time>2026-04-25T13:24:53Z</time></trkpt><trkpt lat="43.72738761946979" lon="12.738487821579962"><ele>401.33333333333337</ele><time>2026-04-25T13:24:54Z</time></trkpt><trkpt lat="43.72745605003419" lon="12.738434341231017"><ele>401.6666666666667</ele><time>2026-04-25T13:24:55Z</time></trkpt><trkpt lat="43.727522080546024" lon="12.738367732535673"><ele>402.0</ele><time>2026-04-25T13:24:56Z</time></trkpt><trkpt lat="43.727572999650086" lon="12.738259058006658"><ele>402.0</ele><time>2026-04-25T13:24:57Z</time></trkpt><trkpt lat="43.72763086387076" lon="12.738096659936728"><ele>402.0</ele><time>2026-04-25T13:24:58Z</time></trkpt><trkpt lat="43.72769725457873" lon="12.73793276485535"><ele>402.0</ele><time>2026-04-25T13:24:59Z</time></trkpt><trkpt lat="43.72777189853324" lon="12.737755429351207"><ele>402.0</ele><time>2026-04-25T13:25:00Z</time></trkpt><trkpt lat="43.727847358687356" lon="12.737566451083254"><ele>404.33333333333337</ele><time>2026-04-25T13:25:01Z</time></trkpt><trkpt lat="43.7279212992363" lon="12.737381211518176"><ele>406.6666666666667</ele><time>2026-04-25T13:25:02Z</time></trkpt><trkpt lat="43.72799672795323" lon="12.737193717003125"><ele>409.0</ele><time>2026-04-25T13:25:03Z</time></trkpt><trkpt lat="43.72807456309526" lon="12.737004002215997"><ele>407.2</ele><time>2026-04-25T13:25:04Z</time></trkpt><trkpt lat="43.72814367460288" lon="12.736831780132903"><ele>405.4</ele><time>2026-04-25T13:25:05Z</time></trkpt><trkpt lat="43.72819426115714" lon="12.736709220669521"><ele>403.6</ele><time>2026-04-25T13:25:06Z</time></trkpt><trkpt lat="43.728235015374054" lon="12.736622170899736"><ele>401.8</ele><time>2026-04-25T13:25:07Z</time></trkpt><trkpt lat="43.728273203415874" lon="12.736548024812693"><ele>400.0</ele><time>2026-04-25T13:25:08Z</time></trkpt><trkpt lat="43.72832160865138" lon="12.736472582809352"><ele>400.0</ele><time>2026-04-25T13:25:09Z</time></trkpt><trkpt lat="43.72839275580268" lon="12.736394178027139"><ele>400.0</ele><time>2026-04-25T13:25:10Z</time></trkpt><trkpt lat="43.72848934092116" lon="12.736309751872437"><ele>400.0</ele><time>2026-04-25T13:25:11Z</time></trkpt><trkpt lat="43.72858050718429" lon="12.736212161327478"><ele>400.0</ele><time>2026-04-25T13:25:12Z</time></trkpt><trkpt lat="43.72865878017084" lon="12.736056172608084"><ele>404.75</ele><time>2026-04-25T13:25:13Z</time></trkpt><trkpt lat="43.72868135866681" lon="12.735845840237287"><ele>409.5</ele><time>2026-04-25T13:25:14Z</time></trkpt><trkpt lat="43.728680140623624" lon="12.735663749810586"><ele>414.25</ele><time>2026-04-25T13:25:15Z</time></trkpt><trkpt lat="43.72868589413722" lon="12.73551582761327"><ele>419.0</ele><time>2026-04-25T13:25:16Z</time></trkpt><trkpt lat="43.72869764572529" lon="12.735373670984083"><ele>419.0</ele><time>2026-04-25T13:25:17Z</time></trkpt><trkpt lat="43.728700830736756" lon="12.735255825032656"><ele>419.0</ele><time>2026-04-25T13:25:18Z</time></trkpt><trkpt lat="43.728711277187635" lon="12.735161043841536"><ele>419.0</ele><time>2026-04-25T13:25:19Z</time></trkpt><trkpt lat="43.72877666265239" lon="12.735006560116403"><ele>419.0</ele><time>2026-04-25T13:25:21Z</time></trkpt><trkpt lat="43.728834111093256" lon="12.734907940126856"><ele>419.0</ele><time>2026-04-25T13:25:22Z</time></trkpt><trkpt lat="43.72890956463079" lon="12.734787490179526"><ele>415.6</ele><time>2026-04-25T13:25:23Z</time></trkpt><trkpt lat="43.72898884927092" lon="12.734672903142382"><ele>412.2</ele><time>2026-04-25T13:25:24Z</time></trkpt><trkpt lat="43.72906862893819" lon="12.734563127791594"><ele>408.8</ele><time>2026-04-25T13:25:25Z</time></trkpt><trkpt lat="43.72915303090627" lon="12.734450552287134"><ele>405.40000000000003</ele><time>2026-04-25T13:25:26Z</time></trkpt><trkpt lat="43.72922785578004" lon="12.73435075101276"><ele>402.0</ele><time>2026-04-25T13:25:27Z</time></trkpt><trkpt lat="43.729305982519676" lon="12.734251114609505"><ele>400.40000000000003</ele><time>2026-04-25T13:25:28Z</time></trkpt><trkpt lat="43.72937584311845" lon="12.734184496126058"><ele>398.8</ele><time>2026-04-25T13:25:29Z</time></trkpt><trkpt lat="43.729444973987874" lon="12.73413668370318"><ele>397.2</ele><time>2026-04-25T13:25:30Z</time></trkpt><trkpt lat="43.72951767490592" lon="12.734105202670335"><ele>395.6</ele><time>2026-04-25T13:25:31Z</time></trkpt><trkpt lat="43.7296361575443" lon="12.734074186600212"><ele>394.0</ele><time>2026-04-25T13:25:32Z</time></trkpt><trkpt lat="43.72977145765958" lon="12.734053264902697"><ele>394.0</ele><time>2026-04-25T13:25:33Z</time></trkpt><trkpt lat="43.729914601865936" lon="12.734033237666578"><ele>394.0</ele><time>2026-04-25T13:25:34Z</time></trkpt><trkpt lat="43.730039665557456" lon="12.734009134726701"><ele>394.0</ele><time>2026-04-25T13:25:35Z</time></trkpt><trkpt lat="43.73016482327692" lon="12.73397282209215"><ele>394.0</ele><time>2026-04-25T13:25:36Z</time></trkpt><trkpt lat="43.7302933093317" lon="12.733921642611692"><ele>397.75</ele><time>2026-04-25T13:25:37Z</time></trkpt><trkpt lat="43.73041214625936" lon="12.733869249087789"><ele>401.5</ele><time>2026-04-25T13:25:38Z</time></trkpt><trkpt lat="43.73053444706733" lon="12.733809312857119"><ele>405.25</ele><time>2026-04-25T13:25:39Z</time></trkpt><trkpt lat="43.730648652566664" lon="12.733745320268314"><ele>409.0</ele><time>2026-04-25T13:25:40Z</time></trkpt><trkpt lat="43.7307518178883" lon="12.733668614335057"><ele>409.0</ele><time>2026-04-25T13:25:41Z</time></trkpt><trkpt lat="43.73084624439324" lon="12.733587865605136"><ele>409.0</ele><time>2026-04-25T13:25:42Z</time></trkpt><trkpt lat="43.73094569605965" lon="12.733523053895045"><ele>409.0</ele><time>2026-04-25T13:25:43Z</time></trkpt><trkpt lat="43.73105674620664" lon="12.73348608402184"><ele>409.0</ele><time>2026-04-25T13:25:44Z</time></trkpt><trkpt lat="43.73118336473101" lon="12.733458919389836"><ele>400.0</ele><time>2026-04-25T13:25:45Z</time></trkpt><trkpt lat="43.731310465755385" lon="12.733421254382007"><ele>391.0</ele><time>2026-04-25T13:25:46Z</time></trkpt><trkpt lat="43.73142855007168" lon="12.733349376988624"><ele>382.0</ele><time>2026-04-25T13:25:47Z</time></trkpt><trkpt lat="43.73151412202818" lon="12.733239739226743"><ele>373.0</ele><time>2026-04-25T13:25:48Z</time></trkpt><trkpt lat="43.731574903052234" lon="12.733147272740123"><ele>373.0</ele><time>2026-04-25T13:25:49Z</time></trkpt><trkpt lat="43.73163884358028" lon="12.733095434260962"><ele>373.0</ele><time>2026-04-25T13:25:50Z</time></trkpt><trkpt lat="43.731700531487235" lon="12.733076528951951"><ele>373.0</ele><time>2026-04-25T13:25:51Z</time></trkpt><trkpt lat="43.731795004951465" lon="12.733175418921364"><ele>373.0</ele><time>2026-04-25T13:25:53Z</time></trkpt><trkpt lat="43.731855571988326" lon="12.733234337735107"><ele>373.0</ele><time>2026-04-25T13:25:54Z</time></trkpt><trkpt lat="43.73191489683915" lon="12.733326174646756"><ele>373.0</ele><time>2026-04-25T13:25:55Z</time></trkpt><trkpt lat="43.731980243985646" lon="12.733397954782617"><ele>373.8333333333333</ele><time>2026-04-25T13:25:56Z</time></trkpt><trkpt lat="43.73205384356261" lon="12.733426001525933"><ele>374.66666666666663</ele><time>2026-04-25T13:25:57Z</time></trkpt><trkpt lat="43.73211548827632" lon="12.733444123971086"><ele>375.5</ele><time>2026-04-25T13:25:58Z</time></trkpt><trkpt lat="43.732196123325274" lon="12.73340417008574"><ele>376.3333333333333</ele><time>2026-04-25T13:25:59Z</time></trkpt><trkpt lat="43.73227645304993" lon="12.733329557032931"><ele>377.1666666666667</ele><time>2026-04-25T13:26:00Z</time></trkpt><trkpt lat="43.732369605395974" lon="12.73324494776257"><ele>378.0</ele><time>2026-04-25T13:26:01Z</time></trkpt><trkpt lat="43.73246961663288" lon="12.733126463583725"><ele>378.0</ele><time>2026-04-25T13:26:02Z</time></trkpt><trkpt lat="43.73255687513797" lon="12.733009718560096"><ele>378.0</ele><time>2026-04-25T13:26:03Z</time></trkpt><trkpt lat="43.73263435612051" lon="12.732925199903756"><ele>378.0</ele><time>2026-04-25T13:26:04Z</time></trkpt><trkpt lat="43.73270834614111" lon="12.732887260501796"><ele>378.0</ele><time>2026-04-25T13:26:05Z</time></trkpt><trkpt lat="43.73277332188051" lon="12.732866023700167"><ele>378.0</ele><time>2026-04-25T13:26:06Z</time></trkpt><trkpt lat="43.73283785861681" lon="12.732860828346992"><ele>378.0</ele><time>2026-04-25T13:26:07Z</time></trkpt><trkpt lat="43.732909593304846" lon="12.73287887661791"><ele>376.4</ele><time>2026-04-25T13:26:08Z</time></trkpt><trkpt lat="43.73299341178334" lon="12.73292633849362"><ele>374.79999999999995</ele><time>2026-04-25T13:26:09Z</time></trkpt><trkpt lat="43.73308288965258" lon="12.732986031048593"><ele>373.2</ele><time>2026-04-25T13:26:10Z</time></trkpt><trkpt lat="43.73317477679465" lon="12.733058112132522"><ele>371.6</ele><time>2026-04-25T13:26:11Z</time></trkpt><trkpt lat="43.73325986382661" lon="12.73314054481484"><ele>370.0</ele><time>2026-04-25T13:26:12Z</time></trkpt><trkpt lat="43.73333386831156" lon="12.733233744319952"><ele>370.0</ele><time>2026-04-25T13:26:13Z</time></trkpt><trkpt lat="43.733428811812175" lon="12.73330456527454"><ele>370.0</ele><time>2026-04-25T13:26:14Z</time></trkpt><trkpt lat="43.73352828698101" lon="12.733327384784541"><ele>370.0</ele><time>2026-04-25T13:26:15Z</time></trkpt><trkpt lat="43.73361988512837" lon="12.733370840653874"><ele>370.0</ele><time>2026-04-25T13:26:16Z</time></trkpt><trkpt lat="43.73369772350283" lon="12.733399803211213"><ele>370.0</ele><time>2026-04-25T13:26:17Z</time></trkpt><trkpt lat="43.73378048107802" lon="12.733487916102556"><ele>366.0</ele><time>2026-04-25T13:26:19Z</time></trkpt><trkpt lat="43.733771019774686" lon="12.733682234739092"><ele>362.0</ele><time>2026-04-25T13:26:21Z</time></trkpt><trkpt lat="43.73378085195197" lon="12.733821937220517"><ele>358.0</ele><time>2026-04-25T13:26:22Z</time></trkpt><trkpt lat="43.73377571443741" lon="12.733958358747755"><ele>354.0</ele><time>2026-04-25T13:26:23Z</time></trkpt><trkpt lat="43.73378319579454" lon="12.73409939745085"><ele>350.0</ele><time>2026-04-25T13:26:24Z</time></trkpt><trkpt lat="43.73382071236928" lon="12.734225137046266"><ele>350.0</ele><time>2026-04-25T13:26:25Z</time></trkpt><trkpt lat="43.73391082450466" lon="12.734310236953167"><ele>350.0</ele><time>2026-04-25T13:26:26Z</time></trkpt><trkpt lat="43.73399117713969" lon="12.734412790759526"><ele>350.0</ele><time>2026-04-25T13:26:27Z</time></trkpt><trkpt lat="43.734061895365876" lon="12.734526220695018"><ele>350.0</ele><time>2026-04-25T13:26:28Z</time></trkpt><trkpt lat="43.73413050688319" lon="12.734624370971606"><ele>350.0</ele><time>2026-04-25T13:26:29Z</time></trkpt><trkpt lat="43.73418987317438" lon="12.734728210626601"><ele>351.4</ele><time>2026-04-25T13:26:30Z</time></trkpt><trkpt lat="43.73426636679747" lon="12.734811395103657"><ele>352.8</ele><time>2026-04-25T13:26:31Z</time></trkpt><trkpt lat="43.734334712593764" lon="12.734856739356411"><ele>354.20000000000005</ele><time>2026-04-25T13:26:32Z</time></trkpt><trkpt lat="43.73442509924305" lon="12.734812023060137"><ele>355.6</ele><time>2026-04-25T13:26:33Z</time></trkpt><trkpt lat="43.734516447281806" lon="12.734789186399892"><ele>357.0</ele><time>2026-04-25T13:26:34Z</time></trkpt><trkpt lat="43.7346270639712" lon="12.734780863049135"><ele>357.0</ele><time>2026-04-25T13:26:35Z</time></trkpt><trkpt lat="43.73474207292204" lon="12.7347705198845"><ele>357.0</ele><time>2026-04-25T13:26:36Z</time></trkpt><trkpt lat="43.73486517753693" lon="12.73475971297495"><ele>357.0</ele><time>2026-04-25T13:26:37Z</time></trkpt><trkpt lat="43.734988283906496" lon="12.73476076139743"><ele>357.0</ele><time>2026-04-25T13:26:38Z</time></trkpt><trkpt lat="43.73510138609547" lon="12.73476691081721"><ele>357.0</ele><time>2026-04-25T13:26:39Z</time></trkpt><trkpt lat="43.73519488123076" lon="12.734781954451934"><ele>357.0</ele><time>2026-04-25T13:26:40Z</time></trkpt><trkpt lat="43.73527869069203" lon="12.734799580034016"><ele>357.0</ele><time>2026-04-25T13:26:41Z</time></trkpt><trkpt lat="43.735304825699124" lon="12.734885909658862"><ele>357.0</ele><time>2026-04-25T13:26:42Z</time></trkpt><trkpt lat="43.7353359233903" lon="12.7349675685246"><ele>357.0</ele><time>2026-04-25T13:26:43Z</time></trkpt><trkpt lat="43.73536589365869" lon="12.735065938278218"><ele>357.0</ele><time>2026-04-25T13:26:44Z</time></trkpt><trkpt lat="43.73541026192084" lon="12.735199968930896"><ele>355.5</ele><time>2026-04-25T13:26:45Z</time></trkpt><trkpt lat="43.73546751384055" lon="12.735360763600287"><ele>354.0</ele><time>2026-04-25T13:26:46Z</time></trkpt><trkpt lat="43.73552758619933" lon="12.73552303479092"><ele>352.5</ele><time>2026-04-25T13:26:47Z</time></trkpt><trkpt lat="43.735590616108304" lon="12.735698059303937"><ele>351.0</ele><time>2026-04-25T13:26:48Z</time></trkpt><trkpt lat="43.73566728412677" lon="12.735892383500067"><ele>354.75</ele><time>2026-04-25T13:26:49Z</time></trkpt><trkpt lat="43.73576259749825" lon="12.73608324954735"><ele>358.5</ele><time>2026-04-25T13:26:50Z</time></trkpt><trkpt lat="43.735839907966216" lon="12.73620921725146"><ele>362.25</ele><time>2026-04-25T13:26:51Z</time></trkpt><trkpt lat="43.735903359607775" lon="12.736314488303972"><ele>366.0</ele><time>2026-04-25T13:26:52Z</time></trkpt><trkpt lat="43.73596871138679" lon="12.736388403690603"><ele>366.0</ele><time>2026-04-25T13:26:53Z</time></trkpt><trkpt lat="43.73601761143316" lon="12.736491827625947"><ele>366.0</ele><time>2026-04-25T13:26:54Z</time></trkpt><trkpt lat="43.736076153437104" lon="12.73656902446192"><ele>366.0</ele><time>2026-04-25T13:26:55Z</time></trkpt><trkpt lat="43.73613472781123" lon="12.736637608564926"><ele>366.0</ele><time>2026-04-25T13:26:56Z</time></trkpt><trkpt lat="43.736187575936505" lon="12.736694326380777"><ele>366.0</ele><time>2026-04-25T13:26:57Z</time></trkpt><trkpt lat="43.73624123981849" lon="12.736749202312673"><ele>366.0</ele><time>2026-04-25T13:26:58Z</time></trkpt><trkpt lat="43.736322578791146" lon="12.736821212524749"><ele>362.8</ele><time>2026-04-25T13:27:00Z</time></trkpt><trkpt lat="43.73640554232081" lon="12.736876744205436"><ele>359.6</ele><time>2026-04-25T13:27:02Z</time></trkpt><trkpt lat="43.73653670055706" lon="12.736908758248164"><ele>356.4</ele><time>2026-04-25T13:27:04Z</time></trkpt><trkpt lat="43.7366086344724" lon="12.736885339498874"><ele>353.2</ele><time>2026-04-25T13:27:05Z</time></trkpt><trkpt lat="43.73668528334922" lon="12.736803727774083"><ele>350.0</ele><time>2026-04-25T13:27:06Z</time></trkpt><trkpt lat="43.73674303368693" lon="12.73669581297283"><ele>349.1666666666667</ele><time>2026-04-25T13:27:07Z</time></trkpt><trkpt lat="43.736798143550224" lon="12.736592271713059"><ele>348.33333333333337</ele><time>2026-04-25T13:27:08Z</time></trkpt><trkpt lat="43.73685309453569" lon="12.736495949889298"><ele>347.5</ele><time>2026-04-25T13:27:09Z</time></trkpt><trkpt lat="43.73690131407159" lon="12.736384702244134"><ele>346.6666666666667</ele><time>2026-04-25T13:27:10Z</time></trkpt><trkpt lat="43.73693478759706" lon="12.736287125255025"><ele>345.8333333333333</ele><time>2026-04-25T13:27:11Z</time></trkpt><trkpt lat="43.73698038840875" lon="12.736204778603463"><ele>345.0</ele><time>2026-04-25T13:27:12Z</time></trkpt><trkpt lat="43.737031900122076" lon="12.736150172607864"><ele>342.3333333333333</ele><time>2026-04-25T13:27:13Z</time></trkpt><trkpt lat="43.73709100221878" lon="12.736098773764985"><ele>339.6666666666667</ele><time>2026-04-25T13:27:14Z</time></trkpt><trkpt lat="43.73715175225078" lon="12.73606473435567"><ele>337.0</ele><time>2026-04-25T13:27:15Z</time></trkpt><trkpt lat="43.73722322004185" lon="12.73601527850768"><ele>334.33333333333337</ele><time>2026-04-25T13:27:16Z</time></trkpt><trkpt lat="43.73730795540347" lon="12.735954202088047"><ele>331.6666666666667</ele><time>2026-04-25T13:27:17Z</time></trkpt><trkpt lat="43.73738610524523" lon="12.73588701529247"><ele>329.0</ele><time>2026-04-25T13:27:18Z</time></trkpt><trkpt lat="43.73746332076383" lon="12.735802915695453"><ele>328.79999999999995</ele><time>2026-04-25T13:27:19Z</time></trkpt><trkpt lat="43.73752805823798" lon="12.735706509903544"><ele>328.59999999999997</ele><time>2026-04-25T13:27:20Z</time></trkpt><trkpt lat="43.73759779706536" lon="12.735627099401965"><ele>328.4</ele><time>2026-04-25T13:27:21Z</time></trkpt><trkpt lat="43.73767819167131" lon="12.735554482803188"><ele>328.2</ele><time>2026-04-25T13:27:22Z</time></trkpt><trkpt lat="43.73774410839224" lon="12.7354739473987"><ele>328.0</ele><time>2026-04-25T13:27:23Z</time></trkpt><trkpt lat="43.73780712707644" lon="12.735390531860292"><ele>328.0</ele><time>2026-04-25T13:27:24Z</time></trkpt><trkpt lat="43.737874841730765" lon="12.73529549040797"><ele>328.0</ele><time>2026-04-25T13:27:25Z</time></trkpt><trkpt lat="43.73794111968597" lon="12.735205216814588"><ele>328.0</ele><time>2026-04-25T13:27:26Z</time></trkpt><trkpt lat="43.73800996032325" lon="12.73512711989436"><ele>328.0</ele><time>2026-04-25T13:27:27Z</time></trkpt><trkpt lat="43.73808537639286" lon="12.735070887711126"><ele>328.0</ele><time>2026-04-25T13:27:28Z</time></trkpt><trkpt lat="43.73816757659335" lon="12.735031211202218"><ele>328.0</ele><time>2026-04-25T13:27:29Z</time></trkpt><trkpt lat="43.73826070982485" lon="12.73500245464813"><ele>328.0</ele><time>2026-04-25T13:27:30Z</time></trkpt><trkpt lat="43.73835460607644" lon="12.735009996672439"><ele>328.0</ele><time>2026-04-25T13:27:31Z</time></trkpt><trkpt lat="43.73846580708358" lon="12.735012533402339"><ele>328.0</ele><time>2026-04-25T13:27:32Z</time></trkpt><trkpt lat="43.73855935830943" lon="12.734987634042541"><ele>328.0</ele><time>2026-04-25T13:27:33Z</time></trkpt><trkpt lat="43.738637165964974" lon="12.73494300290824"><ele>327.0</ele><time>2026-04-25T13:27:34Z</time></trkpt><trkpt lat="43.73870980348188" lon="12.734841261795475"><ele>326.0</ele><time>2026-04-25T13:27:35Z</time></trkpt><trkpt lat="43.738776499616996" lon="12.73474213253647"><ele>325.0</ele><time>2026-04-25T13:27:36Z</time></trkpt><trkpt lat="43.738845150614814" lon="12.734642271472431"><ele>324.0</ele><time>2026-04-25T13:27:37Z</time></trkpt><trkpt lat="43.73891702774923" lon="12.734517342853442"><ele>323.0</ele><time>2026-04-25T13:27:38Z</time></trkpt><trkpt lat="43.73901122586968" lon="12.734454950009896"><ele>323.0</ele><time>2026-04-25T13:27:39Z</time></trkpt><trkpt lat="43.73911416376812" lon="12.734397597786193"><ele>323.0</ele><time>2026-04-25T13:27:40Z</time></trkpt><trkpt lat="43.73923981295469" lon="12.734334172815863"><ele>323.0</ele><time>2026-04-25T13:27:41Z</time></trkpt><trkpt lat="43.739377643961696" lon="12.734270993392302"><ele>323.0</ele><time>2026-04-25T13:27:42Z</time></trkpt><trkpt lat="43.73951470709436" lon="12.734203919476975"><ele>320.25</ele><time>2026-04-25T13:27:43Z</time></trkpt><trkpt lat="43.73964989326558" lon="12.734151584194795"><ele>317.5</ele><time>2026-04-25T13:27:44Z</time></trkpt><trkpt lat="43.739778743429966" lon="12.734117274314448"><ele>314.75</ele><time>2026-04-25T13:27:45Z</time></trkpt><trkpt lat="43.73988237537566" lon="12.734114762804838"><ele>312.0</ele><time>2026-04-25T13:27:46Z</time></trkpt><trkpt lat="43.73995579454099" lon="12.734149182505169"><ele>312.0</ele><time>2026-04-25T13:27:47Z</time></trkpt><trkpt lat="43.74003192878192" lon="12.734196857067204"><ele>312.0</ele><time>2026-04-25T13:27:48Z</time></trkpt><trkpt lat="43.74009614564177" lon="12.734252137473439"><ele>312.0</ele><time>2026-04-25T13:27:49Z</time></trkpt><trkpt lat="43.74016140107379" lon="12.73433418748727"><ele>312.0</ele><time>2026-04-25T13:27:50Z</time></trkpt><trkpt lat="43.74023515971829" lon="12.734449146776662"><ele>312.0</ele><time>2026-04-25T13:27:51Z</time></trkpt><trkpt lat="43.74031643500045" lon="12.734581269550784"><ele>311.0</ele><time>2026-04-25T13:27:52Z</time></trkpt><trkpt lat="43.74039530690449" lon="12.734703195455955"><ele>310.0</ele><time>2026-04-25T13:27:53Z</time></trkpt><trkpt lat="43.740482976782154" lon="12.73480932371152"><ele>309.0</ele><time>2026-04-25T13:27:54Z</time></trkpt><trkpt lat="43.74058572999444" lon="12.734887579671588"><ele>308.0</ele><time>2026-04-25T13:27:55Z</time></trkpt><trkpt lat="43.74066243753811" lon="12.73498365546932"><ele>308.0</ele><time>2026-04-25T13:27:56Z</time></trkpt><trkpt lat="43.74075279810629" lon="12.735027431583887"><ele>308.0</ele><time>2026-04-25T13:27:57Z</time></trkpt><trkpt lat="43.74083237031147" lon="12.735041928656809"><ele>308.0</ele><time>2026-04-25T13:27:58Z</time></trkpt><trkpt lat="43.74089934268253" lon="12.735001342496606"><ele>308.0</ele><time>2026-04-25T13:27:59Z</time></trkpt><trkpt lat="43.74094865566714" lon="12.73492835621615"><ele>308.0</ele><time>2026-04-25T13:28:00Z</time></trkpt><trkpt lat="43.74096005676125" lon="12.734810639670377"><ele>308.0</ele><time>2026-04-25T13:28:01Z</time></trkpt><trkpt lat="43.74096126779018" lon="12.734666079348917"><ele>308.0</ele><time>2026-04-25T13:28:02Z</time></trkpt><trkpt lat="43.740959251874784" lon="12.73449606879581"><ele>308.0</ele><time>2026-04-25T13:28:03Z</time></trkpt><trkpt lat="43.74096091503336" lon="12.734336539505811"><ele>308.0</ele><time>2026-04-25T13:28:04Z</time></trkpt><trkpt lat="43.74096331605547" lon="12.734181070838813"><ele>308.0</ele><time>2026-04-25T13:28:05Z</time></trkpt><trkpt lat="43.740962667157405" lon="12.734041635906623"><ele>306.8</ele><time>2026-04-25T13:28:06Z</time></trkpt><trkpt lat="43.74094662430676" lon="12.733925720992836"><ele>305.6</ele><time>2026-04-25T13:28:07Z</time></trkpt><trkpt lat="43.740902714644626" lon="12.733830502701748"><ele>304.4</ele><time>2026-04-25T13:28:08Z</time></trkpt><trkpt lat="43.740825726971444" lon="12.733778264842096"><ele>303.2</ele><time>2026-04-25T13:28:09Z</time></trkpt><trkpt lat="43.74073527733568" lon="12.733763053994156"><ele>302.0</ele><time>2026-04-25T13:28:10Z</time></trkpt><trkpt lat="43.74062911810367" lon="12.733765843988635"><ele>302.0</ele><time>2026-04-25T13:28:11Z</time></trkpt><trkpt lat="43.74053431961742" lon="12.733752740800243"><ele>302.0</ele><time>2026-04-25T13:28:12Z</time></trkpt><trkpt lat="43.740466527327065" lon="12.733689152748237"><ele>302.0</ele><time>2026-04-25T13:28:13Z</time></trkpt><trkpt lat="43.74045885362975" lon="12.733583651744055"><ele>302.0</ele><time>2026-04-25T13:28:14Z</time></trkpt><trkpt lat="43.74048259802926" lon="12.73349019470514"><ele>302.0</ele><time>2026-04-25T13:28:15Z</time></trkpt><trkpt lat="43.740533614588095" lon="12.733380934567043"><ele>302.0</ele><time>2026-04-25T13:28:16Z</time></trkpt><trkpt lat="43.74057380218548" lon="12.733235075866913"><ele>299.0</ele><time>2026-04-25T13:28:17Z</time></trkpt><trkpt lat="43.740594950672424" lon="12.733068633064601"><ele>296.0</ele><time>2026-04-25T13:28:18Z</time></trkpt><trkpt lat="43.740706973669205" lon="12.732982375173417"><ele>293.0</ele><time>2026-04-25T13:28:19Z</time></trkpt><trkpt lat="43.740820314662265" lon="12.732866103303436"><ele>290.0</ele><time>2026-04-25T13:28:20Z</time></trkpt><trkpt lat="43.7409227806184" lon="12.732750299744403"><ele>287.2</ele><time>2026-04-25T13:28:21Z</time></trkpt><trkpt lat="43.741023159940184" lon="12.732635406768807"><ele>284.4</ele><time>2026-04-25T13:28:22Z</time></trkpt><trkpt lat="43.74108826746995" lon="12.732566299119325"><ele>281.6</ele><time>2026-04-25T13:28:23Z</time></trkpt><trkpt lat="43.74115391389483" lon="12.732509945018935"><ele>278.8</ele><time>2026-04-25T13:28:24Z</time></trkpt><trkpt lat="43.74126878706283" lon="12.732490346741313"><ele>276.0</ele><time>2026-04-25T13:28:26Z</time></trkpt><trkpt lat="43.741331895874275" lon="12.73252282883383"><ele>276.0</ele><time>2026-04-25T13:28:27Z</time></trkpt><trkpt lat="43.741435397778545" lon="12.732589182928297"><ele>276.0</ele><time>2026-04-25T13:28:28Z</time></trkpt><trkpt lat="43.74156309433716" lon="12.732634398419318"><ele>276.0</ele><time>2026-04-25T13:28:29Z</time></trkpt><trkpt lat="43.74170909858406" lon="12.732643773764378"><ele>276.0</ele><time>2026-04-25T13:28:30Z</time></trkpt><trkpt lat="43.74188217642877" lon="12.732685475578299"><ele>279.6666666666667</ele><time>2026-04-25T13:28:31Z</time></trkpt><trkpt lat="43.74205107073058" lon="12.732735989491761"><ele>283.33333333333337</ele><time>2026-04-25T13:28:32Z</time></trkpt><trkpt lat="43.742231136545385" lon="12.732754586664491"><ele>287.0</ele><time>2026-04-25T13:28:33Z</time></trkpt><trkpt lat="43.74239921716794" lon="12.73273493939063"><ele>282.5</ele><time>2026-04-25T13:28:34Z</time></trkpt><trkpt lat="43.742545020291324" lon="12.732710121023088"><ele>278.0</ele><time>2026-04-25T13:28:35Z</time></trkpt><trkpt lat="43.74267754984118" lon="12.732701242871336"><ele>273.5</ele><time>2026-04-25T13:28:36Z</time></trkpt><trkpt lat="43.74279804884119" lon="12.732751073890618"><ele>269.0</ele><time>2026-04-25T13:28:37Z</time></trkpt><trkpt lat="43.742918880346714" lon="12.732779657234296"><ele>268.0</ele><time>2026-04-25T13:28:38Z</time></trkpt><trkpt lat="43.743040635592926" lon="12.732809403212846"><ele>267.0</ele><time>2026-04-25T13:28:39Z</time></trkpt><trkpt lat="43.74315612758456" lon="12.732840251378729"><ele>266.0</ele><time>2026-04-25T13:28:40Z</time></trkpt><trkpt lat="43.74327209806686" lon="12.732871352587145"><ele>265.0</ele><time>2026-04-25T13:28:41Z</time></trkpt><trkpt lat="43.743400858896834" lon="12.732880895981566"><ele>265.0</ele><time>2026-04-25T13:28:42Z</time></trkpt><trkpt lat="43.74353379463028" lon="12.732902628599836"><ele>265.0</ele><time>2026-04-25T13:28:43Z</time></trkpt><trkpt lat="43.74366921054964" lon="12.732925034415805"><ele>265.0</ele><time>2026-04-25T13:28:44Z</time></trkpt><trkpt lat="43.74380070117372" lon="12.732927472753635"><ele>265.0</ele><time>2026-04-25T13:28:45Z</time></trkpt><trkpt lat="43.74393083212293" lon="12.732928304863158"><ele>261.5</ele><time>2026-04-25T13:28:46Z</time></trkpt><trkpt lat="43.74405791435719" lon="12.732942742669142"><ele>258.0</ele><time>2026-04-25T13:28:47Z</time></trkpt><trkpt lat="43.74417979933998" lon="12.732964205726343"><ele>254.5</ele><time>2026-04-25T13:28:48Z</time></trkpt><trkpt lat="43.74429475217892" lon="12.733005099013734"><ele>251.0</ele><time>2026-04-25T13:28:49Z</time></trkpt><trkpt lat="43.74441246040152" lon="12.733051331228328"><ele>248.5</ele><time>2026-04-25T13:28:50Z</time></trkpt><trkpt lat="43.74453200521019" lon="12.733116089190915"><ele>246.0</ele><time>2026-04-25T13:28:51Z</time></trkpt><trkpt lat="43.744647641578304" lon="12.733158782297357"><ele>243.5</ele><time>2026-04-25T13:28:52Z</time></trkpt><trkpt lat="43.74474464978574" lon="12.733197882506278"><ele>241.0</ele><time>2026-04-25T13:28:53Z</time></trkpt><trkpt lat="43.744835734380416" lon="12.733257084095259"><ele>240.99999999999997</ele><time>2026-04-25T13:28:54Z</time></trkpt><trkpt lat="43.74491151352663" lon="12.733302727415536"><ele>241.0</ele><time>2026-04-25T13:28:55Z</time></trkpt><trkpt lat="43.74498315744255" lon="12.733310368199394"><ele>241.0</ele><time>2026-04-25T13:28:56Z</time></trkpt><trkpt lat="43.74506627412838" lon="12.733242568432441"><ele>241.0</ele><time>2026-04-25T13:28:58Z</time></trkpt><trkpt lat="43.74507611559069" lon="12.733139166900724"><ele>240.99999999999997</ele><time>2026-04-25T13:28:59Z</time></trkpt><trkpt lat="43.74508636822775" lon="12.73297900102358"><ele>241.0</ele><time>2026-04-25T13:29:00Z</time></trkpt><trkpt lat="43.74509347819972" lon="12.732784504454859"><ele>239.5</ele><time>2026-04-25T13:29:01Z</time></trkpt><trkpt lat="43.745091469407065" lon="12.732609870370213"><ele>238.0</ele><time>2026-04-25T13:29:02Z</time></trkpt><trkpt lat="43.745070609851595" lon="12.732434354240569"><ele>236.5</ele><time>2026-04-25T13:29:03Z</time></trkpt><trkpt lat="43.74504262617941" lon="12.732245239992094"><ele>235.0</ele><time>2026-04-25T13:29:04Z</time></trkpt><trkpt lat="43.745021580111946" lon="12.732064850609556"><ele>233.25</ele><time>2026-04-25T13:29:05Z</time></trkpt><trkpt lat="43.74498505912024" lon="12.731888729461907"><ele>231.5</ele><time>2026-04-25T13:29:06Z</time></trkpt><trkpt lat="43.74495640241218" lon="12.731714015603012"><ele>229.75</ele><time>2026-04-25T13:29:07Z</time></trkpt><trkpt lat="43.74492802935851" lon="12.731568505540357"><ele>228.0</ele><time>2026-04-25T13:29:08Z</time></trkpt><trkpt lat="43.74491169227362" lon="12.731444945914435"><ele>228.0</ele><time>2026-04-25T13:29:09Z</time></trkpt><trkpt lat="43.74493663682968" lon="12.731339850284165"><ele>228.0</ele><time>2026-04-25T13:29:10Z</time></trkpt><trkpt lat="43.74502269148126" lon="12.73125449509264"><ele>228.0</ele><time>2026-04-25T13:29:12Z</time></trkpt><trkpt lat="43.74508360088786" lon="12.731282162796793"><ele>228.0</ele><time>2026-04-25T13:29:13Z</time></trkpt><trkpt lat="43.74515209779468" lon="12.731374150809323"><ele>228.0</ele><time>2026-04-25T13:29:14Z</time></trkpt><trkpt lat="43.7452623073023" lon="12.73146357849083"><ele>226.25</ele><time>2026-04-25T13:29:15Z</time></trkpt><trkpt lat="43.74538481383068" lon="12.731567276094376"><ele>224.5</ele><time>2026-04-25T13:29:16Z</time></trkpt><trkpt lat="43.74550349123718" lon="12.731667730977152"><ele>222.75</ele><time>2026-04-25T13:29:17Z</time></trkpt><trkpt lat="43.745624649313655" lon="12.73177317341014"><ele>221.0</ele><time>2026-04-25T13:29:18Z</time></trkpt><trkpt lat="43.74575433566648" lon="12.731873242662589"><ele>221.0</ele><time>2026-04-25T13:29:19Z</time></trkpt><trkpt lat="43.74587953363176" lon="12.731983784438057"><ele>221.0</ele><time>2026-04-25T13:29:20Z</time></trkpt><trkpt lat="43.74600172174937" lon="12.73209763101226"><ele>221.0</ele><time>2026-04-25T13:29:21Z</time></trkpt><trkpt lat="43.7461218987364" lon="12.732214168676869"><ele>221.0</ele><time>2026-04-25T13:29:22Z</time></trkpt><trkpt lat="43.74623996755705" lon="12.732331811663514"><ele>219.5</ele><time>2026-04-25T13:29:23Z</time></trkpt><trkpt lat="43.74634756944521" lon="12.732465558140778"><ele>218.0</ele><time>2026-04-25T13:29:24Z</time></trkpt><trkpt lat="43.74646069784719" lon="12.732584017200686"><ele>216.5</ele><time>2026-04-25T13:29:25Z</time></trkpt><trkpt lat="43.74657112398664" lon="12.732702164434594"><ele>215.0</ele><time>2026-04-25T13:29:26Z</time></trkpt><trkpt lat="43.74669158017143" lon="12.732802592506333"><ele>214.75</ele><time>2026-04-25T13:29:27Z</time></trkpt><trkpt lat="43.74679937768595" lon="12.732926519238358"><ele>214.5</ele><time>2026-04-25T13:29:28Z</time></trkpt><trkpt lat="43.746900689041155" lon="12.733049239111288"><ele>214.25</ele><time>2026-04-25T13:29:29Z</time></trkpt><trkpt lat="43.74698661955708" lon="12.733177937957821"><ele>214.0</ele><time>2026-04-25T13:29:30Z</time></trkpt><trkpt lat="43.74702689593226" lon="12.733332148614256"><ele>210.25</ele><time>2026-04-25T13:29:31Z</time></trkpt><trkpt lat="43.7470730125396" lon="12.733476469066925"><ele>206.5</ele><time>2026-04-25T13:29:32Z</time></trkpt><trkpt lat="43.74712941729603" lon="12.733634972247913"><ele>202.75</ele><time>2026-04-25T13:29:33Z</time></trkpt><trkpt lat="43.747182375122684" lon="12.733799459199327"><ele>199.0</ele><time>2026-04-25T13:29:34Z</time></trkpt><trkpt lat="43.747228176832074" lon="12.733947383940206"><ele>198.39999999999998</ele><time>2026-04-25T13:29:35Z</time></trkpt><trkpt lat="43.74726704111878" lon="12.73408290884163"><ele>197.8</ele><time>2026-04-25T13:29:36Z</time></trkpt><trkpt lat="43.74728599058159" lon="12.73421034678118"><ele>197.2</ele><time>2026-04-25T13:29:37Z</time></trkpt><trkpt lat="43.747265389208266" lon="12.734340613713265"><ele>196.60000000000002</ele><time>2026-04-25T13:29:38Z</time></trkpt><trkpt lat="43.747247909671444" lon="12.73447270701781"><ele>196.0</ele><time>2026-04-25T13:29:39Z</time></trkpt><trkpt lat="43.74719943395688" lon="12.734598633737578"><ele>194.25</ele><time>2026-04-25T13:29:40Z</time></trkpt><trkpt lat="43.74714587778835" lon="12.734763936101068"><ele>192.5</ele><time>2026-04-25T13:29:41Z</time></trkpt><trkpt lat="43.747095222888476" lon="12.73492817576991"><ele>190.75</ele><time>2026-04-25T13:29:42Z</time></trkpt><trkpt lat="43.747053584275875" lon="12.735077998977976"><ele>189.0</ele><time>2026-04-25T13:29:43Z</time></trkpt><trkpt lat="43.74703926754994" lon="12.735209073645235"><ele>188.0</ele><time>2026-04-25T13:29:44Z</time></trkpt><trkpt lat="43.74702326166096" lon="12.735338807553143"><ele>187.0</ele><time>2026-04-25T13:29:46Z</time></trkpt><trkpt lat="43.747164837681844" lon="12.735351196713554"><ele>186.0</ele><time>2026-04-25T13:29:48Z</time></trkpt><trkpt lat="43.74728116198391" lon="12.735300029430025"><ele>185.0</ele><time>2026-04-25T13:29:49Z</time></trkpt><trkpt lat="43.747406871215965" lon="12.735251193791079"><ele>185.0</ele><time>2026-04-25T13:29:50Z</time></trkpt><trkpt lat="43.74750365003582" lon="12.735218272292528"><ele>185.0</ele><time>2026-04-25T13:29:51Z</time></trkpt><trkpt lat="43.74757843693861" lon="12.735219988295327"><ele>185.0</ele><time>2026-04-25T13:29:52Z</time></trkpt><trkpt lat="43.74765173597072" lon="12.735246627559196"><ele>185.0</ele><time>2026-04-25T13:29:53Z</time></trkpt><trkpt lat="43.74771947088827" lon="12.73530530167587"><ele>185.0</ele><time>2026-04-25T13:29:54Z</time></trkpt><trkpt lat="43.74777079959664" lon="12.73543062459194"><ele>185.0</ele><time>2026-04-25T13:29:55Z</time></trkpt><trkpt lat="43.74781823266888" lon="12.735581125297246"><ele>184.0</ele><time>2026-04-25T13:29:56Z</time></trkpt><trkpt lat="43.747878718230034" lon="12.735747789055521"><ele>183.0</ele><time>2026-04-25T13:29:57Z</time></trkpt><trkpt lat="43.74794031610776" lon="12.735910654398689"><ele>182.0</ele><time>2026-04-25T13:29:58Z</time></trkpt><trkpt lat="43.748016382921605" lon="12.736045541203778"><ele>181.0</ele><time>2026-04-25T13:29:59Z</time></trkpt><trkpt lat="43.748066999380505" lon="12.736182064450738"><ele>181.0</ele><time>2026-04-25T13:30:00Z</time></trkpt><trkpt lat="43.74811947917854" lon="12.736303476415117"><ele>181.0</ele><time>2026-04-25T13:30:01Z</time></trkpt><trkpt lat="43.748175962453935" lon="12.736407182334085"><ele>181.0</ele><time>2026-04-25T13:30:02Z</time></trkpt><trkpt lat="43.74824163567867" lon="12.736490721270565"><ele>181.0</ele><time>2026-04-25T13:30:03Z</time></trkpt><trkpt lat="43.74832136996536" lon="12.73656452781714"><ele>181.0</ele><time>2026-04-25T13:30:04Z</time></trkpt><trkpt lat="43.74840904876014" lon="12.736625365724871"><ele>181.0</ele><time>2026-04-25T13:30:05Z</time></trkpt><trkpt lat="43.74849318811216" lon="12.736662618026307"><ele>181.0</ele><time>2026-04-25T13:30:06Z</time></trkpt><trkpt lat="43.74856418170634" lon="12.73670510342499"><ele>181.0</ele><time>2026-04-25T13:30:07Z</time></trkpt><trkpt lat="43.74861421022587" lon="12.73677341420095"><ele>181.0</ele><time>2026-04-25T13:30:08Z</time></trkpt><trkpt lat="43.748566579609204" lon="12.736921771313447"><ele>181.0</ele><time>2026-04-25T13:30:09Z</time></trkpt><trkpt lat="43.74862677487396" lon="12.737065968716827"><ele>181.0</ele><time>2026-04-25T13:30:11Z</time></trkpt><trkpt lat="43.74870699368053" lon="12.737107488792079"><ele>181.0</ele><time>2026-04-25T13:30:12Z</time></trkpt><trkpt lat="43.74881453278911" lon="12.737180656862083"><ele>181.0</ele><time>2026-04-25T13:30:13Z</time></trkpt><trkpt lat="43.74892895732719" lon="12.737254550390187"><ele>181.0</ele><time>2026-04-25T13:30:14Z</time></trkpt><trkpt lat="43.74904098024252" lon="12.737341141422524"><ele>181.0</ele><time>2026-04-25T13:30:15Z</time></trkpt><trkpt lat="43.74915682617912" lon="12.737435212233812"><ele>181.0</ele><time>2026-04-25T13:30:16Z</time></trkpt><trkpt lat="43.74927426292779" lon="12.737535690642044"><ele>181.0</ele><time>2026-04-25T13:30:17Z</time></trkpt><trkpt lat="43.74938513696672" lon="12.737627740935764"><ele>181.0</ele><time>2026-04-25T13:30:18Z</time></trkpt><trkpt lat="43.74949679580255" lon="12.737717160768911"><ele>180.5</ele><time>2026-04-25T13:30:19Z</time></trkpt><trkpt lat="43.749609413251115" lon="12.737815974548717"><ele>180.0</ele><time>2026-04-25T13:30:20Z</time></trkpt><trkpt lat="43.749732598351905" lon="12.737909317059156"><ele>179.5</ele><time>2026-04-25T13:30:21Z</time></trkpt><trkpt lat="43.749852314196936" lon="12.738010032654016"><ele>179.0</ele><time>2026-04-25T13:30:22Z</time></trkpt><trkpt lat="43.749976086164516" lon="12.738107502467683"><ele>179.0</ele><time>2026-04-25T13:30:23Z</time></trkpt><trkpt lat="43.75010689406319" lon="12.738209943586448"><ele>179.0</ele><time>2026-04-25T13:30:24Z</time></trkpt><trkpt lat="43.75023395248443" lon="12.738295314807898"><ele>179.0</ele><time>2026-04-25T13:30:25Z</time></trkpt><trkpt lat="43.75035833949625" lon="12.738359308045721"><ele>179.0</ele><time>2026-04-25T13:30:26Z</time></trkpt><trkpt lat="43.750474892489514" lon="12.738402039907196"><ele>178.6</ele><time>2026-04-25T13:30:27Z</time></trkpt><trkpt lat="43.75058684553341" lon="12.738437122584497"><ele>178.2</ele><time>2026-04-25T13:30:28Z</time></trkpt><trkpt lat="43.75068909207906" lon="12.738466234684266"><ele>177.79999999999998</ele><time>2026-04-25T13:30:29Z</time></trkpt><trkpt lat="43.750781395881035" lon="12.738488044751362"><ele>177.39999999999998</ele><time>2026-04-25T13:30:30Z</time></trkpt><trkpt lat="43.750872707050476" lon="12.738496439255671"><ele>177.0</ele><time>2026-04-25T13:30:31Z</time></trkpt><trkpt lat="43.75096867874559" lon="12.73848267468669"><ele>177.25</ele><time>2026-04-25T13:30:32Z</time></trkpt><trkpt lat="43.751069608056156" lon="12.738436467913324"><ele>177.5</ele><time>2026-04-25T13:30:33Z</time></trkpt><trkpt lat="43.7511669535341" lon="12.73837472809342"><ele>177.75</ele><time>2026-04-25T13:30:34Z</time></trkpt><trkpt lat="43.75127186869088" lon="12.738296956041639"><ele>178.0</ele><time>2026-04-25T13:30:35Z</time></trkpt><trkpt lat="43.751382795425464" lon="12.738194665521798"><ele>178.0</ele><time>2026-04-25T13:30:36Z</time></trkpt><trkpt lat="43.75150434442826" lon="12.738092157623626"><ele>178.0</ele><time>2026-04-25T13:30:37Z</time></trkpt><trkpt lat="43.75161410729653" lon="12.737998273685724"><ele>178.0</ele><time>2026-04-25T13:30:38Z</time></trkpt><trkpt lat="43.75173113914461" lon="12.73791777876299"><ele>178.0</ele><time>2026-04-25T13:30:39Z</time></trkpt><trkpt lat="43.75182118737525" lon="12.737838078904984"><ele>177.5</ele><time>2026-04-25T13:30:40Z</time></trkpt><trkpt lat="43.7519165526358" lon="12.737742221104492"><ele>177.0</ele><time>2026-04-25T13:30:41Z</time></trkpt><trkpt lat="43.75202732707859" lon="12.737682339316327"><ele>176.5</ele><time>2026-04-25T13:30:42Z</time></trkpt><trkpt lat="43.752129923557746" lon="12.737631122664345"><ele>176.0</ele><time>2026-04-25T13:30:43Z</time></trkpt><trkpt lat="43.752234589028355" lon="12.737600617168921"><ele>174.5</ele><time>2026-04-25T13:30:44Z</time></trkpt><trkpt lat="43.75235717791566" lon="12.737586407610198"><ele>173.0</ele><time>2026-04-25T13:30:45Z</time></trkpt><trkpt lat="43.752479441916385" lon="12.73759521483255"><ele>171.5</ele><time>2026-04-25T13:30:46Z</time></trkpt><trkpt lat="43.75259710971129" lon="12.737625680347083"><ele>170.0</ele><time>2026-04-25T13:30:47Z</time></trkpt><trkpt lat="43.75271483858794" lon="12.737670625449345"><ele>171.5</ele><time>2026-04-25T13:30:48Z</time></trkpt><trkpt lat="43.75283634392761" lon="12.737720617202978"><ele>173.0</ele><time>2026-04-25T13:30:49Z</time></trkpt><trkpt lat="43.75296352438416" lon="12.737772670850495"><ele>174.5</ele><time>2026-04-25T13:30:50Z</time></trkpt><trkpt lat="43.753101391464305" lon="12.73780360825066"><ele>176.0</ele><time>2026-04-25T13:30:51Z</time></trkpt><trkpt lat="43.753249888173094" lon="12.737818153159814"><ele>176.0</ele><time>2026-04-25T13:30:52Z</time></trkpt><trkpt lat="43.753402796581184" lon="12.737837172754288"><ele>176.0</ele><time>2026-04-25T13:30:53Z</time></trkpt><trkpt lat="43.7535394909115" lon="12.737859254913582"><ele>176.0</ele><time>2026-04-25T13:30:54Z</time></trkpt><trkpt lat="43.75366098086703" lon="12.737886037808186"><ele>176.0</ele><time>2026-04-25T13:30:55Z</time></trkpt><trkpt lat="43.753769993078656" lon="12.737912308163565"><ele>175.5</ele><time>2026-04-25T13:30:56Z</time></trkpt><trkpt lat="43.75387898645978" lon="12.737941139003786"><ele>175.0</ele><time>2026-04-25T13:30:57Z</time></trkpt><trkpt lat="43.75399896267409" lon="12.737970535754627"><ele>174.5</ele><time>2026-04-25T13:30:58Z</time></trkpt><trkpt lat="43.754123539632616" lon="12.73797189419595"><ele>174.0</ele><time>2026-04-25T13:30:59Z</time></trkpt><trkpt lat="43.754247877675645" lon="12.737998433227645"><ele>174.0</ele><time>2026-04-25T13:31:00Z</time></trkpt><trkpt lat="43.75435510354492" lon="12.738083346687569"><ele>174.0</ele><time>2026-04-25T13:31:01Z</time></trkpt><trkpt lat="43.75446809487945" lon="12.738129217727709"><ele>174.0</ele><time>2026-04-25T13:31:02Z</time></trkpt><trkpt lat="43.754576048942134" lon="12.738139403424452"><ele>174.0</ele><time>2026-04-25T13:31:03Z</time></trkpt><trkpt lat="43.754690856333895" lon="12.738160136260687"><ele>174.0</ele><time>2026-04-25T13:31:04Z</time></trkpt><trkpt lat="43.754798048914985" lon="12.738187898518898"><ele>174.0</ele><time>2026-04-25T13:31:05Z</time></trkpt><trkpt lat="43.75489768851481" lon="12.738208424542735"><ele>174.0</ele><time>2026-04-25T13:31:06Z</time></trkpt><trkpt lat="43.7549941208411" lon="12.738213741538551"><ele>174.0</ele><time>2026-04-25T13:31:07Z</time></trkpt><trkpt lat="43.75511004383905" lon="12.73820195020513"><ele>174.0</ele><time>2026-04-25T13:31:08Z</time></trkpt><trkpt lat="43.75524030026994" lon="12.738169307825975"><ele>175.0</ele><time>2026-04-25T13:31:09Z</time></trkpt><trkpt lat="43.75537137741183" lon="12.738116214249649"><ele>176.0</ele><time>2026-04-25T13:31:10Z</time></trkpt><trkpt lat="43.7555165795136" lon="12.73806122971263"><ele>177.0</ele><time>2026-04-25T13:31:11Z</time></trkpt><trkpt lat="43.75565940801408" lon="12.738015335593488"><ele>178.0</ele><time>2026-04-25T13:31:12Z</time></trkpt><trkpt lat="43.75579395453657" lon="12.737972351076733"><ele>178.0</ele><time>2026-04-25T13:31:13Z</time></trkpt><trkpt lat="43.7559159926998" lon="12.737960275425966"><ele>178.0</ele><time>2026-04-25T13:31:14Z</time></trkpt><trkpt lat="43.756033002848426" lon="12.7379603219155"><ele>178.0</ele><time>2026-04-25T13:31:15Z</time></trkpt><trkpt lat="43.75613483484824" lon="12.737964412345008"><ele>178.0</ele><time>2026-04-25T13:31:16Z</time></trkpt><trkpt lat="43.756215924541564" lon="12.737993692280511"><ele>178.0</ele><time>2026-04-25T13:31:17Z</time></trkpt><trkpt lat="43.75628347773077" lon="12.73805978244637"><ele>177.2</ele><time>2026-04-25T13:31:18Z</time></trkpt><trkpt lat="43.75634836074791" lon="12.738141247882474"><ele>176.4</ele><time>2026-04-25T13:31:19Z</time></trkpt><trkpt lat="43.75640797343316" lon="12.7382639088638"><ele>175.6</ele><time>2026-04-25T13:31:20Z</time></trkpt><trkpt lat="43.7564657574673" lon="12.73838685973169"><ele>174.79999999999998</ele><time>2026-04-25T13:31:21Z</time></trkpt><trkpt lat="43.756511069303535" lon="12.738485014721338"><ele>174.0</ele><time>2026-04-25T13:31:22Z</time></trkpt><trkpt lat="43.756564411146854" lon="12.738570335006003"><ele>174.0</ele><time>2026-04-25T13:31:23Z</time></trkpt><trkpt lat="43.75661781758958" lon="12.738633039718946"><ele>174.0</ele><time>2026-04-25T13:31:24Z</time></trkpt><trkpt lat="43.75665946643361" lon="12.738707215434882"><ele>174.0</ele><time>2026-04-25T13:31:26Z</time></trkpt><trkpt lat="43.75664660000135" lon="12.738834211133184"><ele>174.0</ele><time>2026-04-25T13:31:28Z</time></trkpt><trkpt lat="43.75661953245645" lon="12.738931095105823"><ele>174.0</ele><time>2026-04-25T13:31:29Z</time></trkpt><trkpt lat="43.75657060137706" lon="12.739077430199538"><ele>174.0</ele><time>2026-04-25T13:31:30Z</time></trkpt><trkpt lat="43.75651926296854" lon="12.739227872115396"><ele>174.0</ele><time>2026-04-25T13:31:31Z</time></trkpt><trkpt lat="43.75646675008057" lon="12.739359965630033"><ele>174.0</ele><time>2026-04-25T13:31:32Z</time></trkpt><trkpt lat="43.75643030470796" lon="12.739469114679103"><ele>174.0</ele><time>2026-04-25T13:31:33Z</time></trkpt><trkpt lat="43.756403481129944" lon="12.739590155190253"><ele>174.0</ele><time>2026-04-25T13:31:34Z</time></trkpt><trkpt lat="43.75643039709652" lon="12.739679505023618"><ele>174.0</ele><time>2026-04-25T13:31:35Z</time></trkpt><trkpt lat="43.75643695051882" lon="12.739768518632081"><ele>174.0</ele><time>2026-04-25T13:31:36Z</time></trkpt><trkpt lat="43.75651735025874" lon="12.739864522874994"><ele>174.14285714285714</ele><time>2026-04-25T13:31:38Z</time></trkpt><trkpt lat="43.756584847901145" lon="12.739874758140548"><ele>174.28571428571428</ele><time>2026-04-25T13:31:39Z</time></trkpt><trkpt lat="43.75665001340563" lon="12.739845591881933"><ele>174.42857142857144</ele><time>2026-04-25T13:31:40Z</time></trkpt><trkpt lat="43.75671156916441" lon="12.739791254555943"><ele>174.57142857142856</ele><time>2026-04-25T13:31:41Z</time></trkpt><trkpt lat="43.75677360933189" lon="12.739730022155213"><ele>174.71428571428572</ele><time>2026-04-25T13:31:42Z</time></trkpt><trkpt lat="43.75683598788919" lon="12.739657311328122"><ele>174.85714285714286</ele><time>2026-04-25T13:31:43Z</time></trkpt><trkpt lat="43.75688828509577" lon="12.739572853464788"><ele>175.0</ele><time>2026-04-25T13:31:44Z</time></trkpt><trkpt lat="43.75692533487279" lon="12.739464436048204"><ele>176.83333333333334</ele><time>2026-04-25T13:31:45Z</time></trkpt><trkpt lat="43.756942010857436" lon="12.739344299329042"><ele>178.66666666666669</ele><time>2026-04-25T13:31:46Z</time></trkpt><trkpt lat="43.756943555175006" lon="12.739225722936707"><ele>180.5</ele><time>2026-04-25T13:31:47Z</time></trkpt><trkpt lat="43.75694898391288" lon="12.739110690435634"><ele>182.33333333333334</ele><time>2026-04-25T13:31:48Z</time></trkpt><trkpt lat="43.75697184620278" lon="12.739029067072286"><ele>184.16666666666666</ele><time>2026-04-25T13:31:49Z</time></trkpt><trkpt lat="43.757059186892455" lon="12.738917983657792"><ele>186.0</ele><time>2026-04-25T13:31:51Z</time></trkpt><trkpt lat="43.75712254580282" lon="12.73886790843088"><ele>186.0</ele><time>2026-04-25T13:31:52Z</time></trkpt><trkpt lat="43.7571916822503" lon="12.738837413808252"><ele>186.0</ele><time>2026-04-25T13:31:53Z</time></trkpt><trkpt lat="43.75726331798145" lon="12.738823256495968"><ele>186.0</ele><time>2026-04-25T13:31:54Z</time></trkpt><trkpt lat="43.75733812997137" lon="12.738836934273579"><ele>186.0</ele><time>2026-04-25T13:31:55Z</time></trkpt><trkpt lat="43.757414983766175" lon="12.738872477794045"><ele>186.0</ele><time>2026-04-25T13:31:56Z</time></trkpt><trkpt lat="43.75749785634219" lon="12.738931537397425"><ele>186.0</ele><time>2026-04-25T13:31:57Z</time></trkpt><trkpt lat="43.757568862810835" lon="12.739022732605527"><ele>186.0</ele><time>2026-04-25T13:31:58Z</time></trkpt><trkpt lat="43.757646585636685" lon="12.739127832437783"><ele>186.0</ele><time>2026-04-25T13:31:59Z</time></trkpt><trkpt lat="43.757721324789955" lon="12.739248208353045"><ele>186.0</ele><time>2026-04-25T13:32:00Z</time></trkpt><trkpt lat="43.757805747709185" lon="12.739370358932733"><ele>186.0</ele><time>2026-04-25T13:32:01Z</time></trkpt><trkpt lat="43.75789536561255" lon="12.739489814605527"><ele>187.75</ele><time>2026-04-25T13:32:02Z</time></trkpt><trkpt lat="43.75799148105027" lon="12.739590401620287"><ele>189.5</ele><time>2026-04-25T13:32:03Z</time></trkpt><trkpt lat="43.75809164748738" lon="12.739684874320874"><ele>191.25</ele><time>2026-04-25T13:32:04Z</time></trkpt><trkpt lat="43.758176186696474" lon="12.7397845380737"><ele>193.0</ele><time>2026-04-25T13:32:05Z</time></trkpt><trkpt lat="43.75824387098547" lon="12.73990283143571"><ele>192.99999999999997</ele><time>2026-04-25T13:32:06Z</time></trkpt><trkpt lat="43.75829915416539" lon="12.740012626508681"><ele>193.0</ele><time>2026-04-25T13:32:07Z</time></trkpt><trkpt lat="43.75836615516519" lon="12.740089502757666"><ele>193.0</ele><time>2026-04-25T13:32:08Z</time></trkpt><trkpt lat="43.75844883585133" lon="12.74012921427678"><ele>193.0</ele><time>2026-04-25T13:32:09Z</time></trkpt><trkpt lat="43.75853014806944" lon="12.740174622259712"><ele>192.99999999999997</ele><time>2026-04-25T13:32:10Z</time></trkpt><trkpt lat="43.75860928502932" lon="12.740232933355065"><ele>193.0</ele><time>2026-04-25T13:32:11Z</time></trkpt><trkpt lat="43.75865294260669" lon="12.740312274502719"><ele>194.60000000000002</ele><time>2026-04-25T13:32:12Z</time></trkpt><trkpt lat="43.75865762263903" lon="12.740429500194832"><ele>196.20000000000002</ele><time>2026-04-25T13:32:14Z</time></trkpt><trkpt lat="43.75856920319524" lon="12.740493468121723"><ele>197.8</ele><time>2026-04-25T13:32:16Z</time></trkpt><trkpt lat="43.758496529589294" lon="12.740511835412397"><ele>199.4</ele><time>2026-04-25T13:32:17Z</time></trkpt><trkpt lat="43.75840465295268" lon="12.740545852362773"><ele>201.0</ele><time>2026-04-25T13:32:18Z</time></trkpt><trkpt lat="43.758304745106315" lon="12.740591026461406"><ele>203.0</ele><time>2026-04-25T13:32:19Z</time></trkpt><trkpt lat="43.75822424688685" lon="12.740667910799774"><ele>205.0</ele><time>2026-04-25T13:32:20Z</time></trkpt><trkpt lat="43.75814704396859" lon="12.740771914925748"><ele>207.0</ele><time>2026-04-25T13:32:21Z</time></trkpt><trkpt lat="43.75809433457514" lon="12.740894181994186"><ele>209.0</ele><time>2026-04-25T13:32:22Z</time></trkpt><trkpt lat="43.758063127199286" lon="12.741024820615493"><ele>211.0</ele><time>2026-04-25T13:32:23Z</time></trkpt><trkpt lat="43.75804445327075" lon="12.74111980859712"><ele>213.66666666666666</ele><time>2026-04-25T13:32:24Z</time></trkpt><trkpt lat="43.75811139791474" lon="12.741225864362987"><ele>216.33333333333331</ele><time>2026-04-25T13:32:26Z</time></trkpt><trkpt lat="43.75818068966944" lon="12.741258023062848"><ele>219.0</ele><time>2026-04-25T13:32:27Z</time></trkpt><trkpt lat="43.758266175966114" lon="12.74126738436392"><ele>221.66666666666669</ele><time>2026-04-25T13:32:28Z</time></trkpt><trkpt lat="43.758362050491606" lon="12.741277863987294"><ele>224.33333333333334</ele><time>2026-04-25T13:32:29Z</time></trkpt><trkpt lat="43.75844732281794" lon="12.741294972532875"><ele>227.0</ele><time>2026-04-25T13:32:30Z</time></trkpt><trkpt lat="43.75848650833228" lon="12.741376491368477"><ele>227.0</ele><time>2026-04-25T13:32:31Z</time></trkpt><trkpt lat="43.7585267611702" lon="12.741532437765201"><ele>227.0</ele><time>2026-04-25T13:32:33Z</time></trkpt><trkpt lat="43.75850916249908" lon="12.741650931129362"><ele>227.0</ele><time>2026-04-25T13:32:34Z</time></trkpt><trkpt lat="43.758491497070125" lon="12.741782786139261"><ele>227.0</ele><time>2026-04-25T13:32:35Z</time></trkpt><trkpt lat="43.75849795919784" lon="12.741893922871144"><ele>227.0</ele><time>2026-04-25T13:32:36Z</time></trkpt><trkpt lat="43.758487804066064" lon="12.741995215794642"><ele>226.6</ele><time>2026-04-25T13:32:37Z</time></trkpt><trkpt lat="43.758527268475035" lon="12.742094371991136"><ele>226.2</ele><time>2026-04-25T13:32:38Z</time></trkpt><trkpt lat="43.75861796332646" lon="12.74215301387741"><ele>225.8</ele><time>2026-04-25T13:32:39Z</time></trkpt><trkpt lat="43.75872019790149" lon="12.742232265666404"><ele>225.4</ele><time>2026-04-25T13:32:40Z</time></trkpt><trkpt lat="43.75883636446001" lon="12.74233935012413"><ele>225.0</ele><time>2026-04-25T13:32:41Z</time></trkpt><trkpt lat="43.758937009046456" lon="12.74244687201429"><ele>226.25</ele><time>2026-04-25T13:32:42Z</time></trkpt><trkpt lat="43.75902115082549" lon="12.742551701140956"><ele>227.5</ele><time>2026-04-25T13:32:43Z</time></trkpt><trkpt lat="43.75913631096943" lon="12.742609985869986"><ele>228.75</ele><time>2026-04-25T13:32:44Z</time></trkpt><trkpt lat="43.75924425424369" lon="12.742699491264545"><ele>230.0</ele><time>2026-04-25T13:32:45Z</time></trkpt><trkpt lat="43.7593963090744" lon="12.742776835422285"><ele>233.0</ele><time>2026-04-25T13:32:46Z</time></trkpt><trkpt lat="43.759541989435974" lon="12.74284712159726"><ele>236.0</ele><time>2026-04-25T13:32:47Z</time></trkpt><trkpt lat="43.759673643748584" lon="12.74289769755096"><ele>239.0</ele><time>2026-04-25T13:32:48Z</time></trkpt><trkpt lat="43.75979927720024" lon="12.742936263228064"><ele>242.0</ele><time>2026-04-25T13:32:49Z</time></trkpt><trkpt lat="43.7599016680748" lon="12.742960566437786"><ele>242.0</ele><time>2026-04-25T13:32:50Z</time></trkpt><trkpt lat="43.759974447479635" lon="12.743046365952088"><ele>242.0</ele><time>2026-04-25T13:32:51Z</time></trkpt><trkpt lat="43.760072306397035" lon="12.743140916373113"><ele>242.0</ele><time>2026-04-25T13:32:52Z</time></trkpt><trkpt lat="43.76018902612767" lon="12.743197180265547"><ele>242.0</ele><time>2026-04-25T13:32:53Z</time></trkpt><trkpt lat="43.76031253940056" lon="12.743247840262482"><ele>244.25</ele><time>2026-04-25T13:32:54Z</time></trkpt><trkpt lat="43.760447440776936" lon="12.743299017454616"><ele>246.5</ele><time>2026-04-25T13:32:55Z</time></trkpt><trkpt lat="43.760579531998715" lon="12.743341886712008"><ele>248.75</ele><time>2026-04-25T13:32:56Z</time></trkpt><trkpt lat="43.76071370323792" lon="12.74337966167211"><ele>251.0</ele><time>2026-04-25T13:32:57Z</time></trkpt><trkpt lat="43.76083377268046" lon="12.743413645036924"><ele>251.00000000000003</ele><time>2026-04-25T13:32:58Z</time></trkpt><trkpt lat="43.76093119073023" lon="12.74344124573271"><ele>251.0</ele><time>2026-04-25T13:32:59Z</time></trkpt><trkpt lat="43.761007150333775" lon="12.743479372999127"><ele>251.0</ele><time>2026-04-25T13:33:00Z</time></trkpt><trkpt lat="43.7610639205757" lon="12.7435229296997"><ele>251.0</ele><time>2026-04-25T13:33:01Z</time></trkpt><trkpt lat="43.761099565575364" lon="12.743652949540838"><ele>251.00000000000003</ele><time>2026-04-25T13:33:03Z</time></trkpt><trkpt lat="43.76103229795216" lon="12.743748771454293"><ele>251.0</ele><time>2026-04-25T13:33:05Z</time></trkpt><trkpt lat="43.76099560688897" lon="12.74382268990695"><ele>252.50000000000003</ele><time>2026-04-25T13:33:06Z</time></trkpt><trkpt lat="43.76095139983907" lon="12.743889439114524"><ele>254.0</ele><time>2026-04-25T13:33:07Z</time></trkpt><trkpt lat="43.7609464653909" lon="12.74402233251055"><ele>255.5</ele><time>2026-04-25T13:33:09Z</time></trkpt><trkpt lat="43.76099331306259" lon="12.744088995647129"><ele>257.0</ele><time>2026-04-25T13:33:10Z</time></trkpt><trkpt lat="43.76108737425555" lon="12.744091807746578"><ele>258.5</ele><time>2026-04-25T13:33:11Z</time></trkpt><trkpt lat="43.76115910426703" lon="12.744097499308268"><ele>260.0</ele><time>2026-04-25T13:33:12Z</time></trkpt><trkpt lat="43.76123348119626" lon="12.744111809029654"><ele>261.4</ele><time>2026-04-25T13:33:13Z</time></trkpt><trkpt lat="43.76130867192157" lon="12.7441489980734"><ele>262.8</ele><time>2026-04-25T13:33:14Z</time></trkpt><trkpt lat="43.761391333502395" lon="12.744189490950095"><ele>264.2</ele><time>2026-04-25T13:33:15Z</time></trkpt><trkpt lat="43.76147150177926" lon="12.744283808941743"><ele>265.6</ele><time>2026-04-25T13:33:16Z</time></trkpt><trkpt lat="43.76156275791858" lon="12.744381424340181"><ele>267.0</ele><time>2026-04-25T13:33:17Z</time></trkpt><trkpt lat="43.761658716691684" lon="12.744476635142808"><ele>267.4</ele><time>2026-04-25T13:33:18Z</time></trkpt><trkpt lat="43.76175584209786" lon="12.744550237170488"><ele>267.79999999999995</ele><time>2026-04-25T13:33:19Z</time></trkpt><trkpt lat="43.76185555634643" lon="12.74460450479454"><ele>268.2</ele><time>2026-04-25T13:33:20Z</time></trkpt><trkpt lat="43.76196268215586" lon="12.744636406636713"><ele>268.59999999999997</ele><time>2026-04-25T13:33:21Z</time></trkpt><trkpt lat="43.762082129981934" lon="12.744666947394846"><ele>269.0</ele><time>2026-04-25T13:33:22Z</time></trkpt><trkpt lat="43.76220319427943" lon="12.744686314334015"><ele>271.59999999999997</ele><time>2026-04-25T13:33:23Z</time></trkpt><trkpt lat="43.76232546865858" lon="12.744708418525553"><ele>274.2</ele><time>2026-04-25T13:33:24Z</time></trkpt><trkpt lat="43.76242121366432" lon="12.744724671487656"><ele>276.79999999999995</ele><time>2026-04-25T13:33:25Z</time></trkpt><trkpt lat="43.762495642613295" lon="12.744735105168086"><ele>279.4</ele><time>2026-04-25T13:33:26Z</time></trkpt><trkpt lat="43.762570143839135" lon="12.74486285146717"><ele>282.0</ele><time>2026-04-25T13:33:28Z</time></trkpt><trkpt lat="43.76258120019408" lon="12.74496990943068"><ele>282.0</ele><time>2026-04-25T13:33:29Z</time></trkpt><trkpt lat="43.76261797169035" lon="12.745096283570776"><ele>282.0</ele><time>2026-04-25T13:33:30Z</time></trkpt><trkpt lat="43.76268154967705" lon="12.745195807218744"><ele>282.0</ele><time>2026-04-25T13:33:31Z</time></trkpt><trkpt lat="43.7627751978927" lon="12.74523284851021"><ele>282.0</ele><time>2026-04-25T13:33:32Z</time></trkpt><trkpt lat="43.76286206218309" lon="12.7452175766423"><ele>282.0</ele><time>2026-04-25T13:33:33Z</time></trkpt><trkpt lat="43.7629517173429" lon="12.745202568806821"><ele>286.0</ele><time>2026-04-25T13:33:34Z</time></trkpt><trkpt lat="43.76305835155082" lon="12.745230279430407"><ele>290.0</ele><time>2026-04-25T13:33:35Z</time></trkpt><trkpt lat="43.76317623370419" lon="12.745291162181951"><ele>294.0</ele><time>2026-04-25T13:33:36Z</time></trkpt><trkpt lat="43.76328803915208" lon="12.745350668578059"><ele>298.0</ele><time>2026-04-25T13:33:37Z</time></trkpt><trkpt lat="43.76337922137193" lon="12.745402089857393"><ele>298.0</ele><time>2026-04-25T13:33:38Z</time></trkpt><trkpt lat="43.76346423221977" lon="12.745460890761562"><ele>298.0</ele><time>2026-04-25T13:33:39Z</time></trkpt><trkpt lat="43.76352556915947" lon="12.745552377441511"><ele>298.0</ele><time>2026-04-25T13:33:40Z</time></trkpt><trkpt lat="43.7635995932068" lon="12.74564215130174"><ele>298.0</ele><time>2026-04-25T13:33:41Z</time></trkpt><trkpt lat="43.76366167009976" lon="12.74572688020006"><ele>298.0</ele><time>2026-04-25T13:33:42Z</time></trkpt><trkpt lat="43.76371297746022" lon="12.745807947669984"><ele>298.0</ele><time>2026-04-25T13:33:43Z</time></trkpt><trkpt lat="43.76377784557642" lon="12.745914482538563"><ele>298.2</ele><time>2026-04-25T13:33:45Z</time></trkpt><trkpt lat="43.763838565395176" lon="12.745982396517432"><ele>298.4</ele><time>2026-04-25T13:33:47Z</time></trkpt><trkpt lat="43.76388548888888" lon="12.74606568742316"><ele>298.59999999999997</ele><time>2026-04-25T13:33:51Z</time></trkpt><trkpt lat="43.76395874996144" lon="12.745978182076884"><ele>298.8</ele><time>2026-04-25T13:33:52Z</time></trkpt><trkpt lat="43.76401108250696" lon="12.745859638666719"><ele>299.0</ele><time>2026-04-25T13:33:55Z</time></trkpt><trkpt lat="43.764076693935266" lon="12.745735340654393"><ele>299.59999999999997</ele><time>2026-04-25T13:33:57Z</time></trkpt><trkpt lat="43.76415109766022" lon="12.745593022645453"><ele>300.2</ele><time>2026-04-25T13:33:59Z</time></trkpt><trkpt lat="43.764196172684066" lon="12.745511704324816"><ele>300.79999999999995</ele><time>2026-04-25T13:34:00Z</time></trkpt><trkpt lat="43.764245425710776" lon="12.745426673733352"><ele>301.4</ele><time>2026-04-25T13:34:01Z</time></trkpt><trkpt lat="43.7643018389303" lon="12.745330842186576"><ele>302.0</ele><time>2026-04-25T13:34:02Z</time></trkpt><trkpt lat="43.76435878488791" lon="12.745224928624244"><ele>300.6</ele><time>2026-04-25T13:34:03Z</time></trkpt><trkpt lat="43.76441867039552" lon="12.745110405674597"><ele>299.2</ele><time>2026-04-25T13:34:04Z</time></trkpt><trkpt lat="43.76447841383726" lon="12.7449918233896"><ele>297.8</ele><time>2026-04-25T13:34:05Z</time></trkpt><trkpt lat="43.76453754832824" lon="12.744877085791886"><ele>296.4</ele><time>2026-04-25T13:34:06Z</time></trkpt><trkpt lat="43.76458792728782" lon="12.744749074415745"><ele>295.0</ele><time>2026-04-25T13:34:07Z</time></trkpt><trkpt lat="43.76463661063599" lon="12.744607830439406"><ele>295.0</ele><time>2026-04-25T13:34:08Z</time></trkpt><trkpt lat="43.7646867606333" lon="12.744457435187922"><ele>295.0</ele><time>2026-04-25T13:34:09Z</time></trkpt><trkpt lat="43.764725280940056" lon="12.744318213812566"><ele>295.0</ele><time>2026-04-25T13:34:10Z</time></trkpt><trkpt lat="43.76476000035272" lon="12.744187683643341"><ele>295.0</ele><time>2026-04-25T13:34:11Z</time></trkpt><trkpt lat="43.76479687224913" lon="12.744047829546949"><ele>295.0</ele><time>2026-04-25T13:34:12Z</time></trkpt><trkpt lat="43.76483690654715" lon="12.743898974332684"><ele>298.25</ele><time>2026-04-25T13:34:13Z</time></trkpt><trkpt lat="43.76487921370443" lon="12.743740805553827"><ele>301.5</ele><time>2026-04-25T13:34:14Z</time></trkpt><trkpt lat="43.76493613530887" lon="12.743573601865453"><ele>304.75</ele><time>2026-04-25T13:34:15Z</time></trkpt><trkpt lat="43.76503452847386" lon="12.743424686314846"><ele>308.0</ele><time>2026-04-25T13:34:16Z</time></trkpt><trkpt lat="43.76510885075746" lon="12.74324509497521"><ele>307.25</ele><time>2026-04-25T13:34:17Z</time></trkpt><trkpt lat="43.765187250627385" lon="12.743059226623327"><ele>306.5</ele><time>2026-04-25T13:34:18Z</time></trkpt><trkpt lat="43.765261796467406" lon="12.742889268993666"><ele>305.75</ele><time>2026-04-25T13:34:19Z</time></trkpt><trkpt lat="43.76533100757669" lon="12.742740673947502"><ele>305.0</ele><time>2026-04-25T13:34:20Z</time></trkpt><trkpt lat="43.76540597968191" lon="12.742593633000487"><ele>307.25</ele><time>2026-04-25T13:34:21Z</time></trkpt><trkpt lat="43.76548792226275" lon="12.742446569647568"><ele>309.5</ele><time>2026-04-25T13:34:22Z</time></trkpt><trkpt lat="43.765577969750694" lon="12.742288639293623"><ele>311.75</ele><time>2026-04-25T13:34:23Z</time></trkpt><trkpt lat="43.765673118543326" lon="12.742126279323392"><ele>314.0</ele><time>2026-04-25T13:34:24Z</time></trkpt><trkpt lat="43.765771094536724" lon="12.741961936674212"><ele>314.33333333333337</ele><time>2026-04-25T13:34:25Z</time></trkpt><trkpt lat="43.765871817630114" lon="12.741794560058166"><ele>314.6666666666667</ele><time>2026-04-25T13:34:26Z</time></trkpt><trkpt lat="43.76596848505142" lon="12.741633706143977"><ele>315.0</ele><time>2026-04-25T13:34:27Z</time></trkpt><trkpt lat="43.76606645582351" lon="12.741468225738542"><ele>313.0</ele><time>2026-04-25T13:34:28Z</time></trkpt><trkpt lat="43.76616718902101" lon="12.741298079400199"><ele>311.0</ele><time>2026-04-25T13:34:29Z</time></trkpt><trkpt lat="43.76627245330995" lon="12.741121781876377"><ele>309.0</ele><time>2026-04-25T13:34:30Z</time></trkpt><trkpt lat="43.7663820352543" lon="12.740938789247604"><ele>309.0</ele><time>2026-04-25T13:34:31Z</time></trkpt><trkpt lat="43.76649578268803" lon="12.74074600915348"><ele>309.0</ele><time>2026-04-25T13:34:32Z</time></trkpt><trkpt lat="43.76660870066601" lon="12.740553238201993"><ele>309.0</ele><time>2026-04-25T13:34:33Z</time></trkpt><trkpt lat="43.766712038697925" lon="12.740376821926679"><ele>309.0</ele><time>2026-04-25T13:34:34Z</time></trkpt><trkpt lat="43.76681029818483" lon="12.740217308948395"><ele>309.0</ele><time>2026-04-25T13:34:35Z</time></trkpt><trkpt lat="43.76690687592937" lon="12.740075849096959"><ele>309.0</ele><time>2026-04-25T13:34:36Z</time></trkpt><trkpt lat="43.76701103252817" lon="12.739940761969368"><ele>309.0</ele><time>2026-04-25T13:34:37Z</time></trkpt><trkpt lat="43.76712277084242" lon="12.739824107404957"><ele>307.5</ele><time>2026-04-25T13:34:38Z</time></trkpt><trkpt lat="43.76724001651325" lon="12.73972094073487"><ele>306.0</ele><time>2026-04-25T13:34:39Z</time></trkpt><trkpt lat="43.76736586192358" lon="12.739638884948516"><ele>304.5</ele><time>2026-04-25T13:34:40Z</time></trkpt><trkpt lat="43.76749746437915" lon="12.73956487948563"><ele>303.0</ele><time>2026-04-25T13:34:41Z</time></trkpt><trkpt lat="43.767634158068155" lon="12.739487371114029"><ele>303.75</ele><time>2026-04-25T13:34:42Z</time></trkpt><trkpt lat="43.76776318253275" lon="12.739407225817152"><ele>304.5</ele><time>2026-04-25T13:34:43Z</time></trkpt><trkpt lat="43.76788183344267" lon="12.73929398654034"><ele>305.25</ele><time>2026-04-25T13:34:44Z</time></trkpt><trkpt lat="43.768000674875196" lon="12.739180048380051"><ele>306.0</ele><time>2026-04-25T13:34:45Z</time></trkpt><trkpt lat="43.768101869099624" lon="12.739037064127622"><ele>306.0</ele><time>2026-04-25T13:34:46Z</time></trkpt><trkpt lat="43.76819224948537" lon="12.738859211756013"><ele>306.0</ele><time>2026-04-25T13:34:47Z</time></trkpt><trkpt lat="43.768278320848694" lon="12.738662602615225"><ele>306.0</ele><time>2026-04-25T13:34:48Z</time></trkpt><trkpt lat="43.7683606196633" lon="12.738464342580514"><ele>303.75</ele><time>2026-04-25T13:34:49Z</time></trkpt><trkpt lat="43.76845639148392" lon="12.73830014639809"><ele>301.5</ele><time>2026-04-25T13:34:50Z</time></trkpt><trkpt lat="43.768531102682005" lon="12.738145930999444"><ele>299.25</ele><time>2026-04-25T13:34:51Z</time></trkpt><trkpt lat="43.76860411017895" lon="12.738002546378562"><ele>297.0</ele><time>2026-04-25T13:34:52Z</time></trkpt><trkpt lat="43.76867911170752" lon="12.737873161231528"><ele>297.0</ele><time>2026-04-25T13:34:53Z</time></trkpt><trkpt lat="43.768768926023505" lon="12.737761371197873"><ele>297.0</ele><time>2026-04-25T13:34:54Z</time></trkpt><trkpt lat="43.7688774331889" lon="12.737664041931042"><ele>297.0</ele><time>2026-04-25T13:34:55Z</time></trkpt><trkpt lat="43.76900335167559" lon="12.737587413885317"><ele>297.0</ele><time>2026-04-25T13:34:56Z</time></trkpt><trkpt lat="43.76914869453172" lon="12.737515055685385"><ele>298.6666666666667</ele><time>2026-04-25T13:34:57Z</time></trkpt><trkpt lat="43.76930687435755" lon="12.737437895706929"><ele>300.33333333333337</ele><time>2026-04-25T13:34:58Z</time></trkpt><trkpt lat="43.76947621641706" lon="12.737355292208097"><ele>302.0</ele><time>2026-04-25T13:34:59Z</time></trkpt><trkpt lat="43.76965318532669" lon="12.737266680654828"><ele>302.0</ele><time>2026-04-25T13:35:00Z</time></trkpt><trkpt lat="43.769835171404274" lon="12.737174572231346"><ele>302.0</ele><time>2026-04-25T13:35:01Z</time></trkpt><trkpt lat="43.77001814052122" lon="12.737085148858876"><ele>302.0</ele><time>2026-04-25T13:35:02Z</time></trkpt><trkpt lat="43.77019030612136" lon="12.736954425460462"><ele>300.33333333333337</ele><time>2026-04-25T13:35:03Z</time></trkpt><trkpt lat="43.77036733104064" lon="12.736871549381357"><ele>298.6666666666667</ele><time>2026-04-25T13:35:04Z</time></trkpt><trkpt lat="43.77054078137785" lon="12.736791714299331"><ele>297.0</ele><time>2026-04-25T13:35:05Z</time></trkpt><trkpt lat="43.77070925626225" lon="12.736705360348058"><ele>297.0</ele><time>2026-04-25T13:35:06Z</time></trkpt><trkpt lat="43.77088101683454" lon="12.736653136936729"><ele>297.0</ele><time>2026-04-25T13:35:07Z</time></trkpt><trkpt lat="43.77104632880308" lon="12.736570399363536"><ele>297.0</ele><time>2026-04-25T13:35:08Z</time></trkpt><trkpt lat="43.77121314900742" lon="12.736484974370702"><ele>295.3333333333333</ele><time>2026-04-25T13:35:09Z</time></trkpt><trkpt lat="43.771377705215166" lon="12.736396171669547"><ele>293.66666666666663</ele><time>2026-04-25T13:35:10Z</time></trkpt><trkpt lat="43.77153923434803" lon="12.73629213511474"><ele>292.0</ele><time>2026-04-25T13:35:11Z</time></trkpt><trkpt lat="43.771695104344374" lon="12.736175288914843"><ele>291.0</ele><time>2026-04-25T13:35:12Z</time></trkpt><trkpt lat="43.771848636931594" lon="12.736039116777517"><ele>290.0</ele><time>2026-04-25T13:35:13Z</time></trkpt><trkpt lat="43.77200048326024" lon="12.735908453674814"><ele>289.0</ele><time>2026-04-25T13:35:14Z</time></trkpt><trkpt lat="43.77214968680964" lon="12.73578006470137"><ele>288.0</ele><time>2026-04-25T13:35:15Z</time></trkpt><trkpt lat="43.77229902257006" lon="12.735650045374328"><ele>287.0</ele><time>2026-04-25T13:35:16Z</time></trkpt><trkpt lat="43.772453034226935" lon="12.735515935212247"><ele>286.0</ele><time>2026-04-25T13:35:17Z</time></trkpt><trkpt lat="43.77260904390107" lon="12.735375890830479"><ele>287.0</ele><time>2026-04-25T13:35:18Z</time></trkpt><trkpt lat="43.77276539090135" lon="12.7352385406062"><ele>288.0</ele><time>2026-04-25T13:35:19Z</time></trkpt><trkpt lat="43.77292369866942" lon="12.73510039964095"><ele>289.0</ele><time>2026-04-25T13:35:20Z</time></trkpt><trkpt lat="43.77307968170855" lon="12.734959614124062"><ele>292.0</ele><time>2026-04-25T13:35:21Z</time></trkpt><trkpt lat="43.77323398676766" lon="12.734820006561801"><ele>295.0</ele><time>2026-04-25T13:35:22Z</time></trkpt><trkpt lat="43.773382765246915" lon="12.734690935865006"><ele>298.0</ele><time>2026-04-25T13:35:23Z</time></trkpt><trkpt lat="43.77352238641698" lon="12.734587581039742"><ele>299.5</ele><time>2026-04-25T13:35:24Z</time></trkpt><trkpt lat="43.77365292131018" lon="12.7345174967099"><ele>301.0</ele><time>2026-04-25T13:35:25Z</time></trkpt><trkpt lat="43.77377717023821" lon="12.734474829087517"><ele>302.5</ele><time>2026-04-25T13:35:26Z</time></trkpt><trkpt lat="43.77390375224495" lon="12.734449255135438"><ele>304.0</ele><time>2026-04-25T13:35:27Z</time></trkpt><trkpt lat="43.77404652590816" lon="12.734429475784886"><ele>304.0</ele><time>2026-04-25T13:35:28Z</time></trkpt><trkpt lat="43.7742065638605" lon="12.734409198523858"><ele>304.0</ele><time>2026-04-25T13:35:29Z</time></trkpt><trkpt lat="43.77436851564039" lon="12.73438932515064"><ele>304.0</ele><time>2026-04-25T13:35:30Z</time></trkpt><trkpt lat="43.77451488908625" lon="12.734371365235015"><ele>303.0</ele><time>2026-04-25T13:35:31Z</time></trkpt><trkpt lat="43.774655746931224" lon="12.734342772521313"><ele>302.0</ele><time>2026-04-25T13:35:32Z</time></trkpt><trkpt lat="43.77480166945858" lon="12.73427014907977"><ele>301.0</ele><time>2026-04-25T13:35:33Z</time></trkpt><trkpt lat="43.774927435231895" lon="12.734131006253898"><ele>301.0</ele><time>2026-04-25T13:35:34Z</time></trkpt><trkpt lat="43.775058567182874" lon="12.733985934369091"><ele>301.0</ele><time>2026-04-25T13:35:35Z</time></trkpt><trkpt lat="43.7751853284208" lon="12.733820016789"><ele>301.0</ele><time>2026-04-25T13:35:36Z</time></trkpt><trkpt lat="43.775305504316314" lon="12.733637337143646"><ele>303.0</ele><time>2026-04-25T13:35:37Z</time></trkpt><trkpt lat="43.77542759353599" lon="12.733448291711628"><ele>305.0</ele><time>2026-04-25T13:35:38Z</time></trkpt><trkpt lat="43.77556830301975" lon="12.733280507369955"><ele>307.0</ele><time>2026-04-25T13:35:39Z</time></trkpt><trkpt lat="43.77569840259648" lon="12.733096308460224"><ele>307.0</ele><time>2026-04-25T13:35:40Z</time></trkpt><trkpt lat="43.77581808110941" lon="12.73292683958011"><ele>307.0</ele><time>2026-04-25T13:35:41Z</time></trkpt><trkpt lat="43.77592675012261" lon="12.732772960564725"><ele>307.0</ele><time>2026-04-25T13:35:42Z</time></trkpt><trkpt lat="43.776030700105174" lon="12.732632609899555"><ele>307.8</ele><time>2026-04-25T13:35:43Z</time></trkpt><trkpt lat="43.77613239276549" lon="12.73253183129323"><ele>308.6</ele><time>2026-04-25T13:35:44Z</time></trkpt><trkpt lat="43.77623338105806" lon="12.732476719093036"><ele>309.40000000000003</ele><time>2026-04-25T13:35:45Z</time></trkpt><trkpt lat="43.77634190159501" lon="12.732451761706177"><ele>310.2</ele><time>2026-04-25T13:35:46Z</time></trkpt><trkpt lat="43.77643562741707" lon="12.73246566918866"><ele>311.0</ele><time>2026-04-25T13:35:47Z</time></trkpt><trkpt lat="43.77652761774986" lon="12.732509735814645"><ele>311.0</ele><time>2026-04-25T13:35:48Z</time></trkpt><trkpt lat="43.776648890521415" lon="12.732573449075076"><ele>311.0</ele><time>2026-04-25T13:35:49Z</time></trkpt><trkpt lat="43.7767854583423" lon="12.732651626615407"><ele>311.0</ele><time>2026-04-25T13:35:50Z</time></trkpt><trkpt lat="43.77693247482391" lon="12.732736242670208"><ele>311.0</ele><time>2026-04-25T13:35:51Z</time></trkpt><trkpt lat="43.77708605451509" lon="12.732822763184975"><ele>312.6666666666667</ele><time>2026-04-25T13:35:52Z</time></trkpt><trkpt lat="43.777244107515514" lon="12.732910644825159"><ele>314.3333333333333</ele><time>2026-04-25T13:35:53Z</time></trkpt><trkpt lat="43.777409685250674" lon="12.733002180203044"><ele>316.0</ele><time>2026-04-25T13:35:54Z</time></trkpt><trkpt lat="43.777574383251476" lon="12.73309203477341"><ele>315.3333333333333</ele><time>2026-04-25T13:35:55Z</time></trkpt><trkpt lat="43.777723687401185" lon="12.733173490872776"><ele>314.6666666666667</ele><time>2026-04-25T13:35:56Z</time></trkpt><trkpt lat="43.77787124157082" lon="12.733229725866979"><ele>314.0</ele><time>2026-04-25T13:35:57Z</time></trkpt><trkpt lat="43.778009224614514" lon="12.733287314691081"><ele>314.0</ele><time>2026-04-25T13:35:58Z</time></trkpt><trkpt lat="43.778146797427574" lon="12.733305848661228"><ele>314.0</ele><time>2026-04-25T13:35:59Z</time></trkpt><trkpt lat="43.77828281871254" lon="12.733274855619925"><ele>314.0</ele><time>2026-04-25T13:36:00Z</time></trkpt><trkpt lat="43.77842084439606" lon="12.733197805767256"><ele>314.0</ele><time>2026-04-25T13:36:01Z</time></trkpt><trkpt lat="43.77855049995093" lon="12.73307623066531"><ele>315.0</ele><time>2026-04-25T13:36:02Z</time></trkpt><trkpt lat="43.77868069209106" lon="12.732935035945376"><ele>316.0</ele><time>2026-04-25T13:36:03Z</time></trkpt><trkpt lat="43.77882329993267" lon="12.73280573226995"><ele>317.0</ele><time>2026-04-25T13:36:04Z</time></trkpt><trkpt lat="43.7789618549406" lon="12.73266679822097"><ele>314.6666666666667</ele><time>2026-04-25T13:36:05Z</time></trkpt><trkpt lat="43.77910499170245" lon="12.732523229558364"><ele>312.3333333333333</ele><time>2026-04-25T13:36:06Z</time></trkpt><trkpt lat="43.7792526079834" lon="12.732375065986004"><ele>310.0</ele><time>2026-04-25T13:36:07Z</time></trkpt><trkpt lat="43.779399978206335" lon="12.73222465897435"><ele>310.0</ele><time>2026-04-25T13:36:08Z</time></trkpt><trkpt lat="43.77954704119398" lon="12.732075948542914"><ele>310.0</ele><time>2026-04-25T13:36:09Z</time></trkpt><trkpt lat="43.779684578586085" lon="12.731938820209935"><ele>310.0</ele><time>2026-04-25T13:36:10Z</time></trkpt><trkpt lat="43.7798141106087" lon="12.731808446795062"><ele>305.0</ele><time>2026-04-25T13:36:11Z</time></trkpt><trkpt lat="43.7799396209527" lon="12.731667618857502"><ele>300.0</ele><time>2026-04-25T13:36:12Z</time></trkpt><trkpt lat="43.78005246602919" lon="12.73150765935431"><ele>295.0</ele><time>2026-04-25T13:36:13Z</time></trkpt><trkpt lat="43.78015656020665" lon="12.73134035340249"><ele>294.25</ele><time>2026-04-25T13:36:14Z</time></trkpt><trkpt lat="43.780257370904934" lon="12.731170635685698"><ele>293.5</ele><time>2026-04-25T13:36:15Z</time></trkpt><trkpt lat="43.7803452365649" lon="12.731026413473641"><ele>292.75</ele><time>2026-04-25T13:36:16Z</time></trkpt><trkpt lat="43.78043493664235" lon="12.730930604901495"><ele>292.0</ele><time>2026-04-25T13:36:17Z</time></trkpt><trkpt lat="43.78052505192177" lon="12.730864422874472"><ele>291.0</ele><time>2026-04-25T13:36:18Z</time></trkpt><trkpt lat="43.78062684161764" lon="12.730788566097207"><ele>290.0</ele><time>2026-04-25T13:36:19Z</time></trkpt><trkpt lat="43.780734070056994" lon="12.730710227751803"><ele>289.0</ele><time>2026-04-25T13:36:20Z</time></trkpt><trkpt lat="43.78082832592151" lon="12.730628189637304"><ele>288.0</ele><time>2026-04-25T13:36:21Z</time></trkpt><trkpt lat="43.78091001599901" lon="12.730544803739216"><ele>288.0</ele><time>2026-04-25T13:36:22Z</time></trkpt><trkpt lat="43.78095182699434" lon="12.730415179031594"><ele>288.0</ele><time>2026-04-25T13:36:23Z</time></trkpt><trkpt lat="43.78098709256503" lon="12.730296885623195"><ele>288.0</ele><time>2026-04-25T13:36:24Z</time></trkpt><trkpt lat="43.78099243703828" lon="12.730191120857224"><ele>288.0</ele><time>2026-04-25T13:36:25Z</time></trkpt><trkpt lat="43.78096308235083" lon="12.730089251903003"><ele>288.0</ele><time>2026-04-25T13:36:26Z</time></trkpt><trkpt lat="43.78090647477982" lon="12.73000102485303"><ele>288.0</ele><time>2026-04-25T13:36:27Z</time></trkpt><trkpt lat="43.780832872868686" lon="12.729922182293471"><ele>286.75</ele><time>2026-04-25T13:36:28Z</time></trkpt><trkpt lat="43.78074487396423" lon="12.72987380153642"><ele>285.5</ele><time>2026-04-25T13:36:29Z</time></trkpt><trkpt lat="43.780643072177384" lon="12.729910749072051"><ele>284.25</ele><time>2026-04-25T13:36:30Z</time></trkpt><trkpt lat="43.78052929364779" lon="12.729944343861941"><ele>283.0</ele><time>2026-04-25T13:36:31Z</time></trkpt><trkpt lat="43.78039551281822" lon="12.729966811576555"><ele>283.0</ele><time>2026-04-25T13:36:32Z</time></trkpt><trkpt lat="43.780256853913286" lon="12.730022264369607"><ele>283.0</ele><time>2026-04-25T13:36:33Z</time></trkpt><trkpt lat="43.78012652675154" lon="12.730085720103956"><ele>283.0</ele><time>2026-04-25T13:36:34Z</time></trkpt><trkpt lat="43.780005070397046" lon="12.730152282031025"><ele>283.0</ele><time>2026-04-25T13:36:35Z</time></trkpt><trkpt lat="43.779900377317325" lon="12.730225956456453"><ele>283.5</ele><time>2026-04-25T13:36:36Z</time></trkpt><trkpt lat="43.779820223751315" lon="12.730279958283576"><ele>284.0</ele><time>2026-04-25T13:36:37Z</time></trkpt><trkpt lat="43.779751501182" lon="12.730315005563506"><ele>284.5</ele><time>2026-04-25T13:36:38Z</time></trkpt><trkpt lat="43.779689269513625" lon="12.730287695041435"><ele>285.0</ele><time>2026-04-25T13:36:39Z</time></trkpt><trkpt lat="43.77963009327732" lon="12.730232768459455"><ele>285.5</ele><time>2026-04-25T13:36:40Z</time></trkpt><trkpt lat="43.779691106394225" lon="12.73008346529977"><ele>286.0</ele><time>2026-04-25T13:36:41Z</time></trkpt><trkpt lat="43.77973238369812" lon="12.729977940777426"><ele>283.5</ele><time>2026-04-25T13:36:42Z</time></trkpt><trkpt lat="43.77979527527886" lon="12.72983504774092"><ele>281.0</ele><time>2026-04-25T13:36:43Z</time></trkpt><trkpt lat="43.77987096626316" lon="12.72966877789243"><ele>278.5</ele><time>2026-04-25T13:36:44Z</time></trkpt><trkpt lat="43.7799448146869" lon="12.729474141810929"><ele>276.0</ele><time>2026-04-25T13:36:45Z</time></trkpt><trkpt lat="43.780011032934055" lon="12.729279330112096"><ele>276.6666666666667</ele><time>2026-04-25T13:36:46Z</time></trkpt><trkpt lat="43.78007879016164" lon="12.729089026005322"><ele>277.33333333333337</ele><time>2026-04-25T13:36:47Z</time></trkpt><trkpt lat="43.78014449317387" lon="12.728899177198814"><ele>278.0</ele><time>2026-04-25T13:36:48Z</time></trkpt><trkpt lat="43.780208774003334" lon="12.72870955565771"><ele>276.25</ele><time>2026-04-25T13:36:49Z</time></trkpt><trkpt lat="43.78027104793333" lon="12.728525421377803"><ele>274.5</ele><time>2026-04-25T13:36:50Z</time></trkpt><trkpt lat="43.78031979314046" lon="12.72835142503181"><ele>272.75</ele><time>2026-04-25T13:36:51Z</time></trkpt><trkpt lat="43.78033901495343" lon="12.728173842588017"><ele>271.0</ele><time>2026-04-25T13:36:52Z</time></trkpt><trkpt lat="43.78035423970941" lon="12.72800158352377"><ele>271.0</ele><time>2026-04-25T13:36:53Z</time></trkpt><trkpt lat="43.78034851910119" lon="12.72784550969573"><ele>271.0</ele><time>2026-04-25T13:36:54Z</time></trkpt><trkpt lat="43.78032350119823" lon="12.727692329494865"><ele>271.0</ele><time>2026-04-25T13:36:55Z</time></trkpt><trkpt lat="43.780278824611" lon="12.727547260235706"><ele>271.0</ele><time>2026-04-25T13:36:56Z</time></trkpt><trkpt lat="43.780211629377774" lon="12.727414844524647"><ele>267.0</ele><time>2026-04-25T13:36:57Z</time></trkpt><trkpt lat="43.78013729163775" lon="12.727296582573842"><ele>263.0</ele><time>2026-04-25T13:36:58Z</time></trkpt><trkpt lat="43.78007286393006" lon="12.72717400965971"><ele>259.0</ele><time>2026-04-25T13:36:59Z</time></trkpt><trkpt lat="43.780016011023804" lon="12.727049944057397"><ele>255.0</ele><time>2026-04-25T13:37:00Z</time></trkpt><trkpt lat="43.77995539017029" lon="12.726938431731796"><ele>251.0</ele><time>2026-04-25T13:37:01Z</time></trkpt><trkpt lat="43.77989764988679" lon="12.726830996077643"><ele>250.4</ele><time>2026-04-25T13:37:02Z</time></trkpt><trkpt lat="43.77985773051557" lon="12.726713590140768"><ele>249.8</ele><time>2026-04-25T13:37:03Z</time></trkpt><trkpt lat="43.77989064983736" lon="12.72657054389705"><ele>249.20000000000002</ele><time>2026-04-25T13:37:04Z</time></trkpt><trkpt lat="43.779921624728836" lon="12.726446953432273"><ele>248.60000000000002</ele><time>2026-04-25T13:37:05Z</time></trkpt><trkpt lat="43.779985483458454" lon="12.72635297791802"><ele>248.0</ele><time>2026-04-25T13:37:06Z</time></trkpt><trkpt lat="43.78006533779551" lon="12.726287701637235"><ele>248.0</ele><time>2026-04-25T13:37:07Z</time></trkpt><trkpt lat="43.78015812353147" lon="12.72626555325818"><ele>248.0</ele><time>2026-04-25T13:37:08Z</time></trkpt><trkpt lat="43.78027649647262" lon="12.726238689545273"><ele>248.0</ele><time>2026-04-25T13:37:09Z</time></trkpt><trkpt lat="43.78040107652986" lon="12.726220823730415"><ele>248.0</ele><time>2026-04-25T13:37:10Z</time></trkpt><trkpt lat="43.780531756198236" lon="12.726179797991472"><ele>248.25</ele><time>2026-04-25T13:37:11Z</time></trkpt><trkpt lat="43.780659862529404" lon="12.726129233072097"><ele>248.5</ele><time>2026-04-25T13:37:12Z</time></trkpt><trkpt lat="43.78078373760574" lon="12.726071277056517"><ele>248.75</ele><time>2026-04-25T13:37:13Z</time></trkpt><trkpt lat="43.78090236678461" lon="12.725999855257832"><ele>249.0</ele><time>2026-04-25T13:37:14Z</time></trkpt><trkpt lat="43.78101974862189" lon="12.725906062625329"><ele>246.25</ele><time>2026-04-25T13:37:15Z</time></trkpt><trkpt lat="43.78113043591238" lon="12.725802573129748"><ele>243.5</ele><time>2026-04-25T13:37:16Z</time></trkpt><trkpt lat="43.78124810014953" lon="12.725690145580781"><ele>240.75</ele><time>2026-04-25T13:37:17Z</time></trkpt><trkpt lat="43.781360702526285" lon="12.725574052761543"><ele>238.0</ele><time>2026-04-25T13:37:18Z</time></trkpt><trkpt lat="43.78146201196072" lon="12.725439886421047"><ele>238.0</ele><time>2026-04-25T13:37:19Z</time></trkpt><trkpt lat="43.78155338734787" lon="12.725299648445407"><ele>238.0</ele><time>2026-04-25T13:37:20Z</time></trkpt><trkpt lat="43.781643218795075" lon="12.725156769237273"><ele>238.0</ele><time>2026-04-25T13:37:21Z</time></trkpt><trkpt lat="43.781733986657265" lon="12.725026512604913"><ele>238.0</ele><time>2026-04-25T13:37:22Z</time></trkpt><trkpt lat="43.781837482194994" lon="12.724932059981604"><ele>233.0</ele><time>2026-04-25T13:37:23Z</time></trkpt><trkpt lat="43.781951095255046" lon="12.724874578747684"><ele>228.0</ele><time>2026-04-25T13:37:24Z</time></trkpt><trkpt lat="43.78203482338998" lon="12.724810792239383"><ele>223.0</ele><time>2026-04-25T13:37:25Z</time></trkpt><trkpt lat="43.78209517709271" lon="12.724754754868592"><ele>218.0</ele><time>2026-04-25T13:37:26Z</time></trkpt><trkpt lat="43.78212874116342" lon="12.724675737908296"><ele>213.0</ele><time>2026-04-25T13:37:27Z</time></trkpt><trkpt lat="43.782091633121325" lon="12.72449264444727"><ele>213.0</ele><time>2026-04-25T13:37:29Z</time></trkpt><trkpt lat="43.78201733644939" lon="12.724402412353983"><ele>213.0</ele><time>2026-04-25T13:37:30Z</time></trkpt><trkpt lat="43.78192924747197" lon="12.724335718117265"><ele>213.0</ele><time>2026-04-25T13:37:31Z</time></trkpt><trkpt lat="43.78184874395634" lon="12.724269951230879"><ele>213.0</ele><time>2026-04-25T13:37:32Z</time></trkpt><trkpt lat="43.781804808359006" lon="12.724169184050862"><ele>213.0</ele><time>2026-04-25T13:37:33Z</time></trkpt><trkpt lat="43.78183290746127" lon="12.724045911138576"><ele>210.8</ele><time>2026-04-25T13:37:34Z</time></trkpt><trkpt lat="43.78190657861908" lon="12.723963535148425"><ele>208.60000000000002</ele><time>2026-04-25T13:37:35Z</time></trkpt><trkpt lat="43.78198495557026" lon="12.723892777826581"><ele>206.39999999999998</ele><time>2026-04-25T13:37:36Z</time></trkpt><trkpt lat="43.78207464707212" lon="12.72383845266901"><ele>204.2</ele><time>2026-04-25T13:37:37Z</time></trkpt><trkpt lat="43.78216149621777" lon="12.723835082895604"><ele>202.0</ele><time>2026-04-25T13:37:38Z</time></trkpt><trkpt lat="43.782261670368406" lon="12.723864464954964"><ele>202.0</ele><time>2026-04-25T13:37:39Z</time></trkpt><trkpt lat="43.78232943231225" lon="12.723952097506379"><ele>202.0</ele><time>2026-04-25T13:37:40Z</time></trkpt><trkpt lat="43.78238043287127" lon="12.724066548173315"><ele>202.0</ele><time>2026-04-25T13:37:41Z</time></trkpt><trkpt lat="43.78245333549981" lon="12.724201313846587"><ele>202.0</ele><time>2026-04-25T13:37:42Z</time></trkpt><trkpt lat="43.78253165556059" lon="12.724347029781296"><ele>202.0</ele><time>2026-04-25T13:37:43Z</time></trkpt><trkpt lat="43.78261191582312" lon="12.724496355467116"><ele>199.0</ele><time>2026-04-25T13:37:44Z</time></trkpt><trkpt lat="43.782690837794874" lon="12.724643191198341"><ele>196.0</ele><time>2026-04-25T13:37:45Z</time></trkpt><trkpt lat="43.78277208860787" lon="12.724777417977764"><ele>193.0</ele><time>2026-04-25T13:37:46Z</time></trkpt><trkpt lat="43.782839338386985" lon="12.72491260712554"><ele>190.0</ele><time>2026-04-25T13:37:47Z</time></trkpt><trkpt lat="43.78290345026193" lon="12.725037248986677"><ele>190.0</ele><time>2026-04-25T13:37:48Z</time></trkpt><trkpt lat="43.78298140603117" lon="12.725141671727002"><ele>190.0</ele><time>2026-04-25T13:37:49Z</time></trkpt><trkpt lat="43.783076672550536" lon="12.72520160921494"><ele>190.0</ele><time>2026-04-25T13:37:50Z</time></trkpt><trkpt lat="43.78318692470434" lon="12.725208552808395"><ele>190.0</ele><time>2026-04-25T13:37:51Z</time></trkpt><trkpt lat="43.78330234139936" lon="12.725166828571275"><ele>190.0</ele><time>2026-04-25T13:37:52Z</time></trkpt><trkpt lat="43.78342062545687" lon="12.725093862695022"><ele>189.0</ele><time>2026-04-25T13:37:53Z</time></trkpt><trkpt lat="43.78354026264179" lon="12.725020159940447"><ele>188.0</ele><time>2026-04-25T13:37:54Z</time></trkpt><trkpt lat="43.78365466494493" lon="12.724956702358838"><ele>187.0</ele><time>2026-04-25T13:37:55Z</time></trkpt><trkpt lat="43.78376010876439" lon="12.724913725065495"><ele>186.0</ele><time>2026-04-25T13:37:56Z</time></trkpt><trkpt lat="43.78382704013638" lon="12.724829100151718"><ele>186.0</ele><time>2026-04-25T13:37:57Z</time></trkpt><trkpt lat="43.78388015915168" lon="12.724770863429331"><ele>186.0</ele><time>2026-04-25T13:37:58Z</time></trkpt><trkpt lat="43.78391417878401" lon="12.724632261528486"><ele>186.0</ele><time>2026-04-25T13:38:00Z</time></trkpt><trkpt lat="43.78394321486416" lon="12.724447244722922"><ele>186.0</ele><time>2026-04-25T13:38:02Z</time></trkpt><trkpt lat="43.78395094563452" lon="12.724308217692807"><ele>186.0</ele><time>2026-04-25T13:38:03Z</time></trkpt><trkpt lat="43.783960256818915" lon="12.724154936387905"><ele>184.5</ele><time>2026-04-25T13:38:04Z</time></trkpt><trkpt lat="43.783971115789996" lon="12.72398720871158"><ele>183.0</ele><time>2026-04-25T13:38:05Z</time></trkpt><trkpt lat="43.7839830788803" lon="12.723810178653803"><ele>181.5</ele><time>2026-04-25T13:38:06Z</time></trkpt><trkpt lat="43.78399205481717" lon="12.72364429465157"><ele>180.0</ele><time>2026-04-25T13:38:07Z</time></trkpt><trkpt lat="43.784000248387734" lon="12.723485736693435"><ele>178.8</ele><time>2026-04-25T13:38:08Z</time></trkpt><trkpt lat="43.78400941746715" lon="12.723331446647725"><ele>177.6</ele><time>2026-04-25T13:38:09Z</time></trkpt><trkpt lat="43.784019982528335" lon="12.723183568476774"><ele>176.39999999999998</ele><time>2026-04-25T13:38:10Z</time></trkpt><trkpt lat="43.784034120437155" lon="12.723053450100712"><ele>175.2</ele><time>2026-04-25T13:38:11Z</time></trkpt><trkpt lat="43.784058559434726" lon="12.722947904366654"><ele>174.0</ele><time>2026-04-25T13:38:12Z</time></trkpt><trkpt lat="43.78410025419947" lon="12.722847638648975"><ele>174.0</ele><time>2026-04-25T13:38:13Z</time></trkpt><trkpt lat="43.78417001563509" lon="12.722793958756489"><ele>174.0</ele><time>2026-04-25T13:38:14Z</time></trkpt><trkpt lat="43.78426011423856" lon="12.72274590995852"><ele>174.0</ele><time>2026-04-25T13:38:15Z</time></trkpt><trkpt lat="43.78435445189639" lon="12.72272269164338"><ele>174.0</ele><time>2026-04-25T13:38:16Z</time></trkpt><trkpt lat="43.784465196117786" lon="12.722709562633757"><ele>174.0</ele><time>2026-04-25T13:38:17Z</time></trkpt><trkpt lat="43.78457690814732" lon="12.722718051271581"><ele>171.33333333333334</ele><time>2026-04-25T13:38:18Z</time></trkpt><trkpt lat="43.78468744061743" lon="12.7227266877872"><ele>168.66666666666666</ele><time>2026-04-25T13:38:19Z</time></trkpt><trkpt lat="43.78478589558012" lon="12.722722645134626"><ele>166.0</ele><time>2026-04-25T13:38:20Z</time></trkpt><trkpt lat="43.78485962145271" lon="12.722700703278"><ele>163.33333333333331</ele><time>2026-04-25T13:38:21Z</time></trkpt><trkpt lat="43.784909925218656" lon="12.722619182504692"><ele>160.66666666666666</ele><time>2026-04-25T13:38:22Z</time></trkpt><trkpt lat="43.78494129318939" lon="12.722524168309652"><ele>158.0</ele><time>2026-04-25T13:38:23Z</time></trkpt><trkpt lat="43.78492776350213" lon="12.722412635212713"><ele>158.0</ele><time>2026-04-25T13:38:24Z</time></trkpt><trkpt lat="43.78488913346153" lon="12.722280865437405"><ele>158.0</ele><time>2026-04-25T13:38:25Z</time></trkpt><trkpt lat="43.78483750964404" lon="12.722145722535414"><ele>158.0</ele><time>2026-04-25T13:38:26Z</time></trkpt><trkpt lat="43.784767958252" lon="12.722003763723455"><ele>158.0</ele><time>2026-04-25T13:38:27Z</time></trkpt><trkpt lat="43.784680781917565" lon="12.721860551018743"><ele>157.0</ele><time>2026-04-25T13:38:28Z</time></trkpt><trkpt lat="43.78457686393616" lon="12.721739169608313"><ele>156.0</ele><time>2026-04-25T13:38:29Z</time></trkpt><trkpt lat="43.78447692055345" lon="12.721628670912397"><ele>155.0</ele><time>2026-04-25T13:38:30Z</time></trkpt><trkpt lat="43.784363521789196" lon="12.72153633703085"><ele>154.0</ele><time>2026-04-25T13:38:31Z</time></trkpt><trkpt lat="43.784254849948105" lon="12.721447985096773"><ele>154.0</ele><time>2026-04-25T13:38:32Z</time></trkpt><trkpt lat="43.784146720621386" lon="12.721348601449002"><ele>154.0</ele><time>2026-04-25T13:38:33Z</time></trkpt><trkpt lat="43.78403940242022" lon="12.721265369795901"><ele>154.0</ele><time>2026-04-25T13:38:34Z</time></trkpt><trkpt lat="43.7839432451431" lon="12.721188686473315"><ele>154.0</ele><time>2026-04-25T13:38:35Z</time></trkpt><trkpt lat="43.78386497366451" lon="12.721104362096726"><ele>152.16666666666669</ele><time>2026-04-25T13:38:36Z</time></trkpt><trkpt lat="43.7838122630652" lon="12.72101129758623"><ele>150.33333333333334</ele><time>2026-04-25T13:38:37Z</time></trkpt><trkpt lat="43.783816770701996" lon="12.720904764225937"><ele>148.5</ele><time>2026-04-25T13:38:38Z</time></trkpt><trkpt lat="43.783860251535465" lon="12.720826913398001"><ele>146.66666666666666</ele><time>2026-04-25T13:38:39Z</time></trkpt><trkpt lat="43.78391390389458" lon="12.720767749501109"><ele>144.83333333333331</ele><time>2026-04-25T13:38:40Z</time></trkpt><trkpt lat="43.78400230157155" lon="12.720773362186078"><ele>143.0</ele><time>2026-04-25T13:38:41Z</time></trkpt><trkpt lat="43.784093555921736" lon="12.72077183261682"><ele>143.0</ele><time>2026-04-25T13:38:42Z</time></trkpt><trkpt lat="43.78422644673816" lon="12.720770959012683"><ele>143.0</ele><time>2026-04-25T13:38:43Z</time></trkpt><trkpt lat="43.784356828527486" lon="12.72077195290446"><ele>143.0</ele><time>2026-04-25T13:38:44Z</time></trkpt><trkpt lat="43.7844905573286" lon="12.72077050224955"><ele>143.0</ele><time>2026-04-25T13:38:45Z</time></trkpt><trkpt lat="43.784616267643315" lon="12.720769265723805"><ele>141.20000000000002</ele><time>2026-04-25T13:38:46Z</time></trkpt><trkpt lat="43.7847374219969" lon="12.720750222226869"><ele>139.4</ele><time>2026-04-25T13:38:47Z</time></trkpt><trkpt lat="43.78484998628164" lon="12.720756904594532"><ele>137.60000000000002</ele><time>2026-04-25T13:38:48Z</time></trkpt><trkpt lat="43.784947988544495" lon="12.720775617132041"><ele>135.8</ele><time>2026-04-25T13:38:49Z</time></trkpt><trkpt lat="43.78502371216683" lon="12.720827122603932"><ele>134.0</ele><time>2026-04-25T13:38:50Z</time></trkpt><trkpt lat="43.785131168385995" lon="12.72082486469128"><ele>134.0</ele><time>2026-04-25T13:38:52Z</time></trkpt><trkpt lat="43.78517939417266" lon="12.72074700041724"><ele>134.0</ele><time>2026-04-25T13:38:53Z</time></trkpt><trkpt lat="43.785141833348874" lon="12.720609719780878"><ele>134.0</ele><time>2026-04-25T13:38:54Z</time></trkpt><trkpt lat="43.78511671041694" lon="12.720507763882019"><ele>134.0</ele><time>2026-04-25T13:38:55Z</time></trkpt><trkpt lat="43.78508078540298" lon="12.72038765524836"><ele>134.0</ele><time>2026-04-25T13:38:56Z</time></trkpt><trkpt lat="43.78504829322433" lon="12.720262710917591"><ele>134.0</ele><time>2026-04-25T13:38:57Z</time></trkpt><trkpt lat="43.78503385084343" lon="12.720120433352502"><ele>131.0</ele><time>2026-04-25T13:38:58Z</time></trkpt><trkpt lat="43.784940305573066" lon="12.720052431273688"><ele>128.0</ele><time>2026-04-25T13:38:59Z</time></trkpt><trkpt lat="43.78484969891477" lon="12.71999990846085"><ele>125.0</ele><time>2026-04-25T13:39:00Z</time></trkpt><trkpt lat="43.78474746867343" lon="12.719955654628324"><ele>122.0</ele><time>2026-04-25T13:39:01Z</time></trkpt><trkpt lat="43.78463675994815" lon="12.71991068169366"><ele>119.0</ele><time>2026-04-25T13:39:02Z</time></trkpt><trkpt lat="43.7845215518115" lon="12.719866777513348"><ele>119.0</ele><time>2026-04-25T13:39:03Z</time></trkpt><trkpt lat="43.78441565330312" lon="12.719834345206063"><ele>119.0</ele><time>2026-04-25T13:39:04Z</time></trkpt><trkpt lat="43.78432322841009" lon="12.719791065631817"><ele>119.0</ele><time>2026-04-25T13:39:05Z</time></trkpt><trkpt lat="43.78426476302237" lon="12.719691099143724"><ele>119.0</ele><time>2026-04-25T13:39:06Z</time></trkpt><trkpt lat="43.784226695297974" lon="12.719586545775478"><ele>119.0</ele><time>2026-04-25T13:39:07Z</time></trkpt><trkpt lat="43.784191984943" lon="12.719474923353218"><ele>117.66666666666666</ele><time>2026-04-25T13:39:08Z</time></trkpt><trkpt lat="43.78417378371692" lon="12.719360697620878"><ele>116.33333333333333</ele><time>2026-04-25T13:39:09Z</time></trkpt><trkpt lat="43.78416586699469" lon="12.719249704792762"><ele>115.0</ele><time>2026-04-25T13:39:10Z</time></trkpt><trkpt lat="43.784171256837325" lon="12.71913546646251"><ele>113.66666666666666</ele><time>2026-04-25T13:39:11Z</time></trkpt><trkpt lat="43.78418769882704" lon="12.718997530913017"><ele>112.33333333333333</ele><time>2026-04-25T13:39:12Z</time></trkpt><trkpt lat="43.784250203983156" lon="12.718889937252415"><ele>111.0</ele><time>2026-04-25T13:39:13Z</time></trkpt><trkpt lat="43.78431362909893" lon="12.718755583120878"><ele>110.0</ele><time>2026-04-25T13:39:14Z</time></trkpt><trkpt lat="43.78438704834879" lon="12.718622984431663"><ele>109.0</ele><time>2026-04-25T13:39:15Z</time></trkpt><trkpt lat="43.784465590666436" lon="12.718484188443824"><ele>108.0</ele><time>2026-04-25T13:39:16Z</time></trkpt><trkpt lat="43.78454351853956" lon="12.718347665775369"><ele>107.0</ele><time>2026-04-25T13:39:17Z</time></trkpt><trkpt lat="43.78462215409763" lon="12.718210090704009"><ele>107.25</ele><time>2026-04-25T13:39:18Z</time></trkpt><trkpt lat="43.78470605865231" lon="12.718065475475312"><ele>107.5</ele><time>2026-04-25T13:39:19Z</time></trkpt><trkpt lat="43.78479196019216" lon="12.717917418215379"><ele>107.75</ele><time>2026-04-25T13:39:20Z</time></trkpt><trkpt lat="43.78487759263078" lon="12.717770203177764"><ele>108.0</ele><time>2026-04-25T13:39:21Z</time></trkpt><trkpt lat="43.78496619975742" lon="12.717620685240846"><ele>108.0</ele><time>2026-04-25T13:39:22Z</time></trkpt><trkpt lat="43.785062114883516" lon="12.71747868166599"><ele>108.0</ele><time>2026-04-25T13:39:23Z</time></trkpt><trkpt lat="43.78516168560105" lon="12.717356472077942"><ele>108.0</ele><time>2026-04-25T13:39:24Z</time></trkpt><trkpt lat="43.785271772514605" lon="12.717264863084278"><ele>108.0</ele><time>2026-04-25T13:39:25Z</time></trkpt><trkpt lat="43.78539441862595" lon="12.717209449097338"><ele>107.25</ele><time>2026-04-25T13:39:26Z</time></trkpt><trkpt lat="43.78552702675409" lon="12.717188377606968"><ele>106.5</ele><time>2026-04-25T13:39:27Z</time></trkpt><trkpt lat="43.78566396038402" lon="12.717177553341816"><ele>105.75</ele><time>2026-04-25T13:39:28Z</time></trkpt><trkpt lat="43.78580844611353" lon="12.717175105185852"><ele>105.0</ele><time>2026-04-25T13:39:29Z</time></trkpt><trkpt lat="43.785960738383835" lon="12.717173703724045"><ele>105.0</ele><time>2026-04-25T13:39:30Z</time></trkpt><trkpt lat="43.78611220720257" lon="12.71717106179355"><ele>105.0</ele><time>2026-04-25T13:39:31Z</time></trkpt><trkpt lat="43.7862617940127" lon="12.717167916057246"><ele>105.0</ele><time>2026-04-25T13:39:32Z</time></trkpt><trkpt lat="43.786412155898894" lon="12.71716340107818"><ele>105.0</ele><time>2026-04-25T13:39:33Z</time></trkpt><trkpt lat="43.78656491695927" lon="12.717157804997893"><ele>105.0</ele><time>2026-04-25T13:39:34Z</time></trkpt><trkpt lat="43.786714152047935" lon="12.717146765679507"><ele>105.0</ele><time>2026-04-25T13:39:35Z</time></trkpt><trkpt lat="43.78685892260334" lon="12.717117491929168"><ele>105.0</ele><time>2026-04-25T13:39:36Z</time></trkpt><trkpt lat="43.786980709901634" lon="12.71703329382079"><ele>106.25</ele><time>2026-04-25T13:39:37Z</time></trkpt><trkpt lat="43.787090633977115" lon="12.716947960252492"><ele>107.5</ele><time>2026-04-25T13:39:38Z</time></trkpt><trkpt lat="43.78718964203431" lon="12.716838360275167"><ele>108.75</ele><time>2026-04-25T13:39:39Z</time></trkpt><trkpt lat="43.78727370037466" lon="12.716725384628251"><ele>110.0</ele><time>2026-04-25T13:39:40Z</time></trkpt><trkpt lat="43.78735820790179" lon="12.716648482234225"><ele>109.99999999999999</ele><time>2026-04-25T13:39:41Z</time></trkpt><trkpt lat="43.787425900655464" lon="12.716581516793608"><ele>110.0</ele><time>2026-04-25T13:39:42Z</time></trkpt><trkpt lat="43.787484079317124" lon="12.716533874677872"><ele>110.0</ele><time>2026-04-25T13:39:43Z</time></trkpt><trkpt lat="43.787577751782884" lon="12.716456206426589"><ele>110.0</ele><time>2026-04-25T13:39:45Z</time></trkpt><trkpt lat="43.787635340414305" lon="12.716400617329565"><ele>109.99999999999999</ele><time>2026-04-25T13:39:47Z</time></trkpt><trkpt lat="43.78765400568184" lon="12.716309318887651"><ele>110.0</ele><time>2026-04-25T13:40:03Z</time></trkpt><trkpt lat="43.7876184675246" lon="12.716168677825838"><ele>110.6</ele><time>2026-04-25T13:40:05Z</time></trkpt><trkpt lat="43.787568824874164" lon="12.716069428521772"><ele>111.2</ele><time>2026-04-25T13:40:06Z</time></trkpt><trkpt lat="43.787513821843575" lon="12.715971306919702"><ele>111.80000000000001</ele><time>2026-04-25T13:40:07Z</time></trkpt><trkpt lat="43.787447277939144" lon="12.715864685320534"><ele>112.4</ele><time>2026-04-25T13:40:08Z</time></trkpt><trkpt lat="43.787376884886065" lon="12.7157538640404"><ele>113.0</ele><time>2026-04-25T13:40:09Z</time></trkpt><trkpt lat="43.78732099230349" lon="12.715656561413725"><ele>112.99999999999999</ele><time>2026-04-25T13:40:10Z</time></trkpt><trkpt lat="43.78727174654904" lon="12.715571994560745"><ele>113.0</ele><time>2026-04-25T13:40:11Z</time></trkpt><trkpt lat="43.78722117222079" lon="12.71550044506543"><ele>113.0</ele><time>2026-04-25T13:40:12Z</time></trkpt><trkpt lat="43.7871677816166" lon="12.715425314886192"><ele>113.0</ele><time>2026-04-25T13:40:13Z</time></trkpt><trkpt lat="43.787116864860685" lon="12.715340421235814"><ele>112.99999999999999</ele><time>2026-04-25T13:40:14Z</time></trkpt><trkpt lat="43.78706471364451" lon="12.7152550102757"><ele>113.0</ele><time>2026-04-25T13:40:15Z</time></trkpt><trkpt lat="43.78701019713994" lon="12.715158665130035"><ele>112.66666666666666</ele><time>2026-04-25T13:40:16Z</time></trkpt><trkpt lat="43.78695387177483" lon="12.715065315877137"><ele>112.33333333333333</ele><time>2026-04-25T13:40:17Z</time></trkpt><trkpt lat="43.786900720051015" lon="12.71496983498375"><ele>112.0</ele><time>2026-04-25T13:40:18Z</time></trkpt><trkpt lat="43.7868547723378" lon="12.714888718283065"><ele>111.66666666666666</ele><time>2026-04-25T13:40:19Z</time></trkpt><trkpt lat="43.78680247800864" lon="12.714808060970302"><ele>111.33333333333333</ele><time>2026-04-25T13:40:20Z</time></trkpt><trkpt lat="43.786753320863134" lon="12.714717694018953"><ele>111.0</ele><time>2026-04-25T13:40:21Z</time></trkpt><trkpt lat="43.78670457165762" lon="12.714619934859076"><ele>111.0</ele><time>2026-04-25T13:40:22Z</time></trkpt><trkpt lat="43.78665300701141" lon="12.714518051911154"><ele>111.0</ele><time>2026-04-25T13:40:23Z</time></trkpt><trkpt lat="43.78659848574037" lon="12.714421494089054"><ele>111.0</ele><time>2026-04-25T13:40:24Z</time></trkpt><trkpt lat="43.78654648309934" lon="12.714326335077901"><ele>111.0</ele><time>2026-04-25T13:40:25Z</time></trkpt><trkpt lat="43.786497173523465" lon="12.71423353368045"><ele>111.0</ele><time>2026-04-25T13:40:26Z</time></trkpt><trkpt lat="43.78643956471319" lon="12.714148605770522"><ele>111.0</ele><time>2026-04-25T13:40:27Z</time></trkpt><trkpt lat="43.786388905603374" lon="12.714070332983974"><ele>111.66666666666667</ele><time>2026-04-25T13:40:28Z</time></trkpt><trkpt lat="43.786344407658696" lon="12.713988906610608"><ele>112.33333333333334</ele><time>2026-04-25T13:40:29Z</time></trkpt><trkpt lat="43.78629367580655" lon="12.713906206352618"><ele>113.0</ele><time>2026-04-25T13:40:30Z</time></trkpt><trkpt lat="43.7862417929425" lon="12.71381859883689"><ele>113.66666666666667</ele><time>2026-04-25T13:40:31Z</time></trkpt><trkpt lat="43.78619371899549" lon="12.713732447046265"><ele>114.33333333333334</ele><time>2026-04-25T13:40:32Z</time></trkpt><trkpt lat="43.78614638055116" lon="12.713647201473746"><ele>115.0</ele><time>2026-04-25T13:40:33Z</time></trkpt><trkpt lat="43.786099114547305" lon="12.71355313631947"><ele>115.00000000000001</ele><time>2026-04-25T13:40:34Z</time></trkpt><trkpt lat="43.786048232908406" lon="12.713461292198335"><ele>115.0</ele><time>2026-04-25T13:40:35Z</time></trkpt><trkpt lat="43.78599670214558" lon="12.713365051989163"><ele>115.0</ele><time>2026-04-25T13:40:36Z</time></trkpt><trkpt lat="43.78594657575714" lon="12.713264904895697"><ele>115.0</ele><time>2026-04-25T13:40:37Z</time></trkpt><trkpt lat="43.78589965395657" lon="12.713158001880025"><ele>115.00000000000001</ele><time>2026-04-25T13:40:38Z</time></trkpt><trkpt lat="43.78585326651383" lon="12.713047762015147"><ele>115.0</ele><time>2026-04-25T13:40:39Z</time></trkpt><trkpt lat="43.78579406695652" lon="12.712942900220511"><ele>115.00000000000001</ele><time>2026-04-25T13:40:40Z</time></trkpt><trkpt lat="43.78574366814507" lon="12.712833173075172"><ele>115.0</ele><time>2026-04-25T13:40:41Z</time></trkpt><trkpt lat="43.78569301515018" lon="12.712723524197191"><ele>115.0</ele><time>2026-04-25T13:40:42Z</time></trkpt><trkpt lat="43.78564799056692" lon="12.712628638026699"><ele>115.0</ele><time>2026-04-25T13:40:43Z</time></trkpt><trkpt lat="43.785600194795016" lon="12.712535568541732"><ele>115.00000000000001</ele><time>2026-04-25T13:40:44Z</time></trkpt><trkpt lat="43.78555537407577" lon="12.712442441269571"><ele>115.0</ele><time>2026-04-25T13:40:45Z</time></trkpt><trkpt lat="43.785514727949405" lon="12.712360702534825"><ele>115.50000000000001</ele><time>2026-04-25T13:40:46Z</time></trkpt><trkpt lat="43.78547652539739" lon="12.712275227408085"><ele>116.0</ele><time>2026-04-25T13:40:47Z</time></trkpt><trkpt lat="43.785436765512415" lon="12.712183987404817"><ele>116.5</ele><time>2026-04-25T13:40:48Z</time></trkpt><trkpt lat="43.78539156120684" lon="12.712091262749913"><ele>117.0</ele><time>2026-04-25T13:40:49Z</time></trkpt><trkpt lat="43.78534499982543" lon="12.711989346512059"><ele>117.50000000000001</ele><time>2026-04-25T13:40:50Z</time></trkpt><trkpt lat="43.785291949795074" lon="12.711882039195736"><ele>118.0</ele><time>2026-04-25T13:40:51Z</time></trkpt><trkpt lat="43.78523511688155" lon="12.711781127953714"><ele>117.2</ele><time>2026-04-25T13:40:52Z</time></trkpt><trkpt lat="43.78518169510181" lon="12.711674852825908"><ele>116.4</ele><time>2026-04-25T13:40:53Z</time></trkpt><trkpt lat="43.78512849388818" lon="12.711562024068915"><ele>115.60000000000001</ele><time>2026-04-25T13:40:54Z</time></trkpt><trkpt lat="43.785078334429016" lon="12.711457977820594"><ele>114.80000000000001</ele><time>2026-04-25T13:40:55Z</time></trkpt><trkpt lat="43.78502581316472" lon="12.711359805950881"><ele>114.0</ele><time>2026-04-25T13:40:56Z</time></trkpt><trkpt lat="43.7849740867996" lon="12.711260982297455"><ele>114.0</ele><time>2026-04-25T13:40:57Z</time></trkpt><trkpt lat="43.784920213880454" lon="12.711159311888443"><ele>114.0</ele><time>2026-04-25T13:40:58Z</time></trkpt><trkpt lat="43.784861435077325" lon="12.71105242799173"><ele>114.0</ele><time>2026-04-25T13:40:59Z</time></trkpt><trkpt lat="43.78479915012729" lon="12.710939543024566"><ele>114.0</ele><time>2026-04-25T13:41:00Z</time></trkpt><trkpt lat="43.78473845246634" lon="12.71082102430192"><ele>114.0</ele><time>2026-04-25T13:41:01Z</time></trkpt><trkpt lat="43.78467188395929" lon="12.71069809051176"><ele>114.75</ele><time>2026-04-25T13:41:02Z</time></trkpt><trkpt lat="43.78460283047022" lon="12.710571435725692"><ele>115.5</ele><time>2026-04-25T13:41:03Z</time></trkpt><trkpt lat="43.78453396293312" lon="12.71044417575861"><ele>116.25</ele><time>2026-04-25T13:41:04Z</time></trkpt><trkpt lat="43.78446306413923" lon="12.710313820765771"><ele>117.0</ele><time>2026-04-25T13:41:05Z</time></trkpt><trkpt lat="43.78439338819185" lon="12.710186882133506"><ele>116.25</ele><time>2026-04-25T13:41:06Z</time></trkpt><trkpt lat="43.784320659916865" lon="12.710060074151299"><ele>115.5</ele><time>2026-04-25T13:41:07Z</time></trkpt><trkpt lat="43.78425050362595" lon="12.709932224016617"><ele>114.75</ele><time>2026-04-25T13:41:08Z</time></trkpt><trkpt lat="43.784183457796004" lon="12.709809892149426"><ele>114.0</ele><time>2026-04-25T13:41:09Z</time></trkpt><trkpt lat="43.78411743857768" lon="12.709691288392797"><ele>114.0</ele><time>2026-04-25T13:41:10Z</time></trkpt><trkpt lat="43.784059448881614" lon="12.709589303686695"><ele>114.0</ele><time>2026-04-25T13:41:11Z</time></trkpt><trkpt lat="43.78401199398153" lon="12.709486652878493"><ele>114.0</ele><time>2026-04-25T13:41:12Z</time></trkpt><trkpt lat="43.783964370783565" lon="12.709406984869387"><ele>114.0</ele><time>2026-04-25T13:41:13Z</time></trkpt><trkpt lat="43.78390754277499" lon="12.709294588700397"><ele>114.0</ele><time>2026-04-25T13:41:15Z</time></trkpt><trkpt lat="43.78386129002307" lon="12.709208037058584"><ele>114.0</ele><time>2026-04-25T13:41:17Z</time></trkpt><trkpt lat="43.783818826516764" lon="12.70913751973823"><ele>114.4</ele><time>2026-04-25T13:41:19Z</time></trkpt><trkpt lat="43.783767107207574" lon="12.709014601901075"><ele>114.80000000000001</ele><time>2026-04-25T13:41:21Z</time></trkpt><trkpt lat="43.78374200978881" lon="12.708917922601643"><ele>115.19999999999999</ele><time>2026-04-25T13:41:22Z</time></trkpt><trkpt lat="43.78368710401749" lon="12.70885267057999"><ele>115.6</ele><time>2026-04-25T13:41:23Z</time></trkpt><trkpt lat="43.7837510668833" lon="12.708702899727808"><ele>116.0</ele><time>2026-04-25T13:41:24Z</time></trkpt><trkpt lat="43.78375385659487" lon="12.708593819283706"><ele>115.83333333333333</ele><time>2026-04-25T13:41:25Z</time></trkpt><trkpt lat="43.783762216938676" lon="12.708481596892996"><ele>115.66666666666666</ele><time>2026-04-25T13:41:26Z</time></trkpt><trkpt lat="43.78376882489989" lon="12.708366172530573"><ele>115.5</ele><time>2026-04-25T13:41:27Z</time></trkpt><trkpt lat="43.7837735242501" lon="12.708246636190374"><ele>115.33333333333334</ele><time>2026-04-25T13:41:28Z</time></trkpt><trkpt lat="43.783779158045924" lon="12.708121523765616"><ele>115.16666666666667</ele><time>2026-04-25T13:41:29Z</time></trkpt><trkpt lat="43.78378612912879" lon="12.707994096265425"><ele>115.0</ele><time>2026-04-25T13:41:30Z</time></trkpt><trkpt lat="43.783792758955094" lon="12.707872906944361"><ele>115.00000000000001</ele><time>2026-04-25T13:41:31Z</time></trkpt><trkpt lat="43.78379799810548" lon="12.707752110532352"><ele>115.0</ele><time>2026-04-25T13:41:32Z</time></trkpt><trkpt lat="43.78380064426002" lon="12.707635293665387"><ele>115.0</ele><time>2026-04-25T13:41:33Z</time></trkpt><trkpt lat="43.783802186548556" lon="12.70752359174578"><ele>115.0</ele><time>2026-04-25T13:41:34Z</time></trkpt><trkpt lat="43.783802781112584" lon="12.707420731250787"><ele>115.00000000000001</ele><time>2026-04-25T13:41:35Z</time></trkpt><trkpt lat="43.78379945755731" lon="12.707319754217476"><ele>115.0</ele><time>2026-04-25T13:41:36Z</time></trkpt><trkpt lat="43.783794828181335" lon="12.707229722451203"><ele>116.8</ele><time>2026-04-25T13:41:37Z</time></trkpt><trkpt lat="43.78372895998524" lon="12.707097010998714"><ele>118.6</ele><time>2026-04-25T13:41:39Z</time></trkpt><trkpt lat="43.78371531707561" lon="12.706945535043829"><ele>120.4</ele><time>2026-04-25T13:41:41Z</time></trkpt><trkpt lat="43.7838019351681" lon="12.706912302325014"><ele>122.2</ele><time>2026-04-25T13:41:43Z</time></trkpt><trkpt lat="43.78390617109861" lon="12.706928515842385"><ele>124.0</ele><time>2026-04-25T13:41:45Z</time></trkpt><trkpt lat="43.783975198064724" lon="12.706947414781688"><ele>124.00000000000001</ele><time>2026-04-25T13:41:46Z</time></trkpt><trkpt lat="43.78405228686872" lon="12.706966155092973"><ele>124.0</ele><time>2026-04-25T13:41:47Z</time></trkpt><trkpt lat="43.784130449023955" lon="12.706978003186716"><ele>124.0</ele><time>2026-04-25T13:41:48Z</time></trkpt><trkpt lat="43.78420345516273" lon="12.706968641214491"><ele>124.0</ele><time>2026-04-25T13:41:49Z</time></trkpt><trkpt lat="43.784270667051935" lon="12.706915131587902"><ele>124.00000000000001</ele><time>2026-04-25T13:41:50Z</time></trkpt><trkpt lat="43.78431967009904" lon="12.706838949711232"><ele>124.0</ele><time>2026-04-25T13:41:51Z</time></trkpt><trkpt lat="43.78435797605065" lon="12.706755135828141"><ele>125.42857142857143</ele><time>2026-04-25T13:41:52Z</time></trkpt><trkpt lat="43.78436653671458" lon="12.706650839473019"><ele>126.85714285714286</ele><time>2026-04-25T13:41:53Z</time></trkpt><trkpt lat="43.78432118357348" lon="12.706558976524537"><ele>128.28571428571428</ele><time>2026-04-25T13:41:54Z</time></trkpt><trkpt lat="43.784271723212605" lon="12.70648706865503"><ele>129.71428571428572</ele><time>2026-04-25T13:41:55Z</time></trkpt><trkpt lat="43.78422413463507" lon="12.706415098736663"><ele>131.14285714285714</ele><time>2026-04-25T13:41:56Z</time></trkpt><trkpt lat="43.784218734141284" lon="12.706320166767139"><ele>132.57142857142858</ele><time>2026-04-25T13:41:57Z</time></trkpt><trkpt lat="43.78421126766581" lon="12.70622690604109"><ele>134.0</ele><time>2026-04-25T13:41:58Z</time></trkpt><trkpt lat="43.78420970869529" lon="12.706125437433325"><ele>137.66666666666666</ele><time>2026-04-25T13:41:59Z</time></trkpt><trkpt lat="43.784204753651856" lon="12.706007837908317"><ele>141.33333333333331</ele><time>2026-04-25T13:42:00Z</time></trkpt><trkpt lat="43.78419956786564" lon="12.70588476186179"><ele>145.0</ele><time>2026-04-25T13:42:01Z</time></trkpt><trkpt lat="43.78419509721045" lon="12.705765371845827"><ele>148.66666666666666</ele><time>2026-04-25T13:42:02Z</time></trkpt><trkpt lat="43.78419117692273" lon="12.705643888140903"><ele>152.33333333333334</ele><time>2026-04-25T13:42:03Z</time></trkpt><trkpt lat="43.78418752229765" lon="12.705525356773139"><ele>156.0</ele><time>2026-04-25T13:42:04Z</time></trkpt><trkpt lat="43.78418508253644" lon="12.705409608706152"><ele>156.0</ele><time>2026-04-25T13:42:05Z</time></trkpt><trkpt lat="43.78418490537438" lon="12.705292377009291"><ele>156.0</ele><time>2026-04-25T13:42:06Z</time></trkpt><trkpt lat="43.784189319723396" lon="12.705176136509147"><ele>156.0</ele><time>2026-04-25T13:42:07Z</time></trkpt><trkpt lat="43.784201987922046" lon="12.705061105454805"><ele>156.0</ele><time>2026-04-25T13:42:08Z</time></trkpt><trkpt lat="43.78421467281472" lon="12.704939854802726"><ele>156.0</ele><time>2026-04-25T13:42:09Z</time></trkpt><trkpt lat="43.78422503073666" lon="12.704823173929388"><ele>156.0</ele><time>2026-04-25T13:42:10Z</time></trkpt><trkpt lat="43.784237497631906" lon="12.70470710799403"><ele>157.5</ele><time>2026-04-25T13:42:11Z</time></trkpt><trkpt lat="43.78425013445876" lon="12.704591338833758"><ele>159.0</ele><time>2026-04-25T13:42:12Z</time></trkpt><trkpt lat="43.78426607635653" lon="12.70447525058765"><ele>160.5</ele><time>2026-04-25T13:42:13Z</time></trkpt><trkpt lat="43.78428474478864" lon="12.704371049768564"><ele>162.0</ele><time>2026-04-25T13:42:14Z</time></trkpt><trkpt lat="43.7843073766755" lon="12.704267652992838"><ele>163.5</ele><time>2026-04-25T13:42:15Z</time></trkpt><trkpt lat="43.78433886153425" lon="12.704172691276172"><ele>165.0</ele><time>2026-04-25T13:42:16Z</time></trkpt><trkpt lat="43.78437846313509" lon="12.704088273999124"><ele>165.5</ele><time>2026-04-25T13:42:17Z</time></trkpt><trkpt lat="43.78442128349374" lon="12.703996450664441"><ele>166.0</ele><time>2026-04-25T13:42:18Z</time></trkpt><trkpt lat="43.78446513507682" lon="12.70390380911769"><ele>166.5</ele><time>2026-04-25T13:42:19Z</time></trkpt><trkpt lat="43.78450784001714" lon="12.703813589889352"><ele>167.0</ele><time>2026-04-25T13:42:20Z</time></trkpt><trkpt lat="43.784549385689125" lon="12.703720906037038"><ele>167.5</ele><time>2026-04-25T13:42:21Z</time></trkpt><trkpt lat="43.78458811370192" lon="12.703629025453866"><ele>168.0</ele><time>2026-04-25T13:42:22Z</time></trkpt><trkpt lat="43.78462109434815" lon="12.70354517441578"><ele>169.8</ele><time>2026-04-25T13:42:23Z</time></trkpt><trkpt lat="43.78465735230973" lon="12.703448838570775"><ele>171.60000000000002</ele><time>2026-04-25T13:42:24Z</time></trkpt><trkpt lat="43.784701200440665" lon="12.703325618734281"><ele>173.39999999999998</ele><time>2026-04-25T13:42:25Z</time></trkpt><trkpt lat="43.78475118390742" lon="12.703176195252919"><ele>175.2</ele><time>2026-04-25T13:42:26Z</time></trkpt><trkpt lat="43.78480578590108" lon="12.703008126144658"><ele>177.0</ele><time>2026-04-25T13:42:27Z</time></trkpt><trkpt lat="43.78486326019972" lon="12.702827845342417"><ele>178.5</ele><time>2026-04-25T13:42:28Z</time></trkpt><trkpt lat="43.78490724716414" lon="12.702666989473954"><ele>180.0</ele><time>2026-04-25T13:42:29Z</time></trkpt><trkpt lat="43.78494341194512" lon="12.702496315908498"><ele>181.5</ele><time>2026-04-25T13:42:30Z</time></trkpt><trkpt lat="43.78498134694454" lon="12.702310010879572"><ele>183.0</ele><time>2026-04-25T13:42:31Z</time></trkpt><trkpt lat="43.7850238503115" lon="12.702092298068578"><ele>184.5</ele><time>2026-04-25T13:42:32Z</time></trkpt><trkpt lat="43.78506141894808" lon="12.701875887076435"><ele>186.0</ele><time>2026-04-25T13:42:33Z</time></trkpt><trkpt lat="43.78509201729908" lon="12.701686974896147"><ele>187.5</ele><time>2026-04-25T13:42:34Z</time></trkpt><trkpt lat="43.78512475959401" lon="12.701510828556918"><ele>189.0</ele><time>2026-04-25T13:42:35Z</time></trkpt><trkpt lat="43.785171848793" lon="12.701390062629372"><ele>188.79999999999998</ele><time>2026-04-25T13:42:36Z</time></trkpt><trkpt lat="43.785227745993964" lon="12.701308637314094"><ele>188.6</ele><time>2026-04-25T13:42:37Z</time></trkpt><trkpt lat="43.78529166489071" lon="12.701222396393057"><ele>188.4</ele><time>2026-04-25T13:42:38Z</time></trkpt><trkpt lat="43.78537806764039" lon="12.701154183014557"><ele>188.2</ele><time>2026-04-25T13:42:39Z</time></trkpt><trkpt lat="43.785482231488274" lon="12.701092636959343"><ele>188.0</ele><time>2026-04-25T13:42:40Z</time></trkpt><trkpt lat="43.785596454246274" lon="12.701054297225253"><ele>190.75</ele><time>2026-04-25T13:42:41Z</time></trkpt><trkpt lat="43.785696682601916" lon="12.700984695626069"><ele>193.5</ele><time>2026-04-25T13:42:42Z</time></trkpt><trkpt lat="43.78577254156277" lon="12.700837324839643"><ele>196.25</ele><time>2026-04-25T13:42:43Z</time></trkpt><trkpt lat="43.78588352241684" lon="12.700744105559219"><ele>199.0</ele><time>2026-04-25T13:42:44Z</time></trkpt><trkpt lat="43.78598592229144" lon="12.700637784423238"><ele>200.0</ele><time>2026-04-25T13:42:45Z</time></trkpt><trkpt lat="43.78609101822383" lon="12.700553888061393"><ele>201.0</ele><time>2026-04-25T13:42:46Z</time></trkpt><trkpt lat="43.78620741819146" lon="12.700484584523188"><ele>202.0</ele><time>2026-04-25T13:42:47Z</time></trkpt><trkpt lat="43.786326421483935" lon="12.70044022102666"><ele>203.0</ele><time>2026-04-25T13:42:48Z</time></trkpt><trkpt lat="43.78644109212988" lon="12.700411056208697"><ele>203.0</ele><time>2026-04-25T13:42:49Z</time></trkpt><trkpt lat="43.7865654582984" lon="12.70038901387357"><ele>203.0</ele><time>2026-04-25T13:42:50Z</time></trkpt><trkpt lat="43.78670379208448" lon="12.7003748922327"><ele>203.0</ele><time>2026-04-25T13:42:51Z</time></trkpt><trkpt lat="43.78685625715315" lon="12.700357266595214"><ele>203.0</ele><time>2026-04-25T13:42:52Z</time></trkpt><trkpt lat="43.78702210134731" lon="12.700327687295552"><ele>202.33333333333334</ele><time>2026-04-25T13:42:53Z</time></trkpt><trkpt lat="43.787197047425046" lon="12.700268270492401"><ele>201.66666666666669</ele><time>2026-04-25T13:42:54Z</time></trkpt><trkpt lat="43.78737391652897" lon="12.700172705091079"><ele>201.0</ele><time>2026-04-25T13:42:55Z</time></trkpt><trkpt lat="43.78754818879977" lon="12.700054605052859"><ele>204.66666666666669</ele><time>2026-04-25T13:42:56Z</time></trkpt><trkpt lat="43.787724437347336" lon="12.6999230893984"><ele>208.33333333333334</ele><time>2026-04-25T13:42:57Z</time></trkpt><trkpt lat="43.78790060620244" lon="12.699786687051203"><ele>212.0</ele><time>2026-04-25T13:42:58Z</time></trkpt><trkpt lat="43.788075317058514" lon="12.699643265494087"><ele>212.0</ele><time>2026-04-25T13:42:59Z</time></trkpt><trkpt lat="43.788248322093025" lon="12.699497723263809"><ele>212.0</ele><time>2026-04-25T13:43:00Z</time></trkpt><trkpt lat="43.78841972196648" lon="12.699353975646826"><ele>212.0</ele><time>2026-04-25T13:43:01Z</time></trkpt><trkpt lat="43.78859471225726" lon="12.699206477179997"><ele>213.66666666666669</ele><time>2026-04-25T13:43:02Z</time></trkpt><trkpt lat="43.788773008092264" lon="12.699050258345345"><ele>215.33333333333331</ele><time>2026-04-25T13:43:03Z</time></trkpt><trkpt lat="43.788949448437236" lon="12.698888226299708"><ele>217.0</ele><time>2026-04-25T13:43:04Z</time></trkpt><trkpt lat="43.78912294112147" lon="12.698726555646457"><ele>218.33333333333331</ele><time>2026-04-25T13:43:05Z</time></trkpt><trkpt lat="43.78929343670855" lon="12.698564344675134"><ele>219.66666666666669</ele><time>2026-04-25T13:43:06Z</time></trkpt><trkpt lat="43.789461842722524" lon="12.698399399636344"><ele>221.0</ele><time>2026-04-25T13:43:07Z</time></trkpt><trkpt lat="43.789628546961914" lon="12.698226915894523"><ele>221.0</ele><time>2026-04-25T13:43:08Z</time></trkpt><trkpt lat="43.78978632274298" lon="12.69803835769468"><ele>221.0</ele><time>2026-04-25T13:43:09Z</time></trkpt><trkpt lat="43.789936151197836" lon="12.697835709272798"><ele>221.0</ele><time>2026-04-25T13:43:10Z</time></trkpt><trkpt lat="43.79009709802859" lon="12.697649050479777"><ele>223.33333333333334</ele><time>2026-04-25T13:43:11Z</time></trkpt><trkpt lat="43.790266882948764" lon="12.697486554035342"><ele>225.66666666666669</ele><time>2026-04-25T13:43:12Z</time></trkpt><trkpt lat="43.79043246577966" lon="12.697323423401992"><ele>228.0</ele><time>2026-04-25T13:43:13Z</time></trkpt><trkpt lat="43.79059097671223" lon="12.697169741146153"><ele>228.0</ele><time>2026-04-25T13:43:14Z</time></trkpt><trkpt lat="43.79072490834957" lon="12.697040170692851"><ele>228.0</ele><time>2026-04-25T13:43:15Z</time></trkpt><trkpt lat="43.79084824814015" lon="12.696923337428837"><ele>228.0</ele><time>2026-04-25T13:43:16Z</time></trkpt><trkpt lat="43.790962162871054" lon="12.696817110152882"><ele>231.25</ele><time>2026-04-25T13:43:17Z</time></trkpt><trkpt lat="43.791066219246524" lon="12.69673670959523"><ele>234.5</ele><time>2026-04-25T13:43:18Z</time></trkpt><trkpt lat="43.79117796388836" lon="12.696683264725884"><ele>237.75</ele><time>2026-04-25T13:43:19Z</time></trkpt><trkpt lat="43.791298121061914" lon="12.696635448276343"><ele>241.0</ele><time>2026-04-25T13:43:20Z</time></trkpt><trkpt lat="43.79142340211996" lon="12.69658500642644"><ele>241.0</ele><time>2026-04-25T13:43:21Z</time></trkpt><trkpt lat="43.79154423327881" lon="12.696540524077788"><ele>241.00000000000003</ele><time>2026-04-25T13:43:22Z</time></trkpt><trkpt lat="43.791654244509125" lon="12.696508417170573"><ele>241.00000000000003</ele><time>2026-04-25T13:43:23Z</time></trkpt><trkpt lat="43.79174793086109" lon="12.696500736694217"><ele>241.0</ele><time>2026-04-25T13:43:24Z</time></trkpt><trkpt lat="43.79184594327696" lon="12.6965162421268"><ele>241.0</ele><time>2026-04-25T13:43:25Z</time></trkpt><trkpt lat="43.791952552875905" lon="12.69655788512596"><ele>243.25</ele><time>2026-04-25T13:43:26Z</time></trkpt><trkpt lat="43.79206357369859" lon="12.696622282265876"><ele>245.5</ele><time>2026-04-25T13:43:27Z</time></trkpt><trkpt lat="43.79217759110835" lon="12.696693234779172"><ele>247.75</ele><time>2026-04-25T13:43:28Z</time></trkpt><trkpt lat="43.79229732183722" lon="12.696775266830716"><ele>250.0</ele><time>2026-04-25T13:43:29Z</time></trkpt><trkpt lat="43.792427483347446" lon="12.696850604874571"><ele>251.25</ele><time>2026-04-25T13:43:30Z</time></trkpt><trkpt lat="43.79255133104771" lon="12.696945953609669"><ele>252.5</ele><time>2026-04-25T13:43:31Z</time></trkpt><trkpt lat="43.79266493613864" lon="12.697071957504301"><ele>253.75</ele><time>2026-04-25T13:43:32Z</time></trkpt><trkpt lat="43.79279330550792" lon="12.697194208349318"><ele>255.0</ele><time>2026-04-25T13:43:33Z</time></trkpt><trkpt lat="43.79293518127783" lon="12.697307296947882"><ele>255.0</ele><time>2026-04-25T13:43:34Z</time></trkpt><trkpt lat="43.79307465607685" lon="12.697441608241183"><ele>255.0</ele><time>2026-04-25T13:43:35Z</time></trkpt><trkpt lat="43.79321505592043" lon="12.6975670561149"><ele>255.0</ele><time>2026-04-25T13:43:36Z</time></trkpt><trkpt lat="43.793339723254135" lon="12.697677996457564"><ele>254.8</ele><time>2026-04-25T13:43:37Z</time></trkpt><trkpt lat="43.7934433192592" lon="12.697789272536845"><ele>254.6</ele><time>2026-04-25T13:43:38Z</time></trkpt><trkpt lat="43.793531283086075" lon="12.697891782155503"><ele>254.39999999999998</ele><time>2026-04-25T13:43:39Z</time></trkpt><trkpt lat="43.79361019635175" lon="12.697967410672423"><ele>254.2</ele><time>2026-04-25T13:43:40Z</time></trkpt><trkpt lat="43.793662233738" lon="12.698019664509332"><ele>254.0</ele><time>2026-04-25T13:43:41Z</time></trkpt><trkpt lat="43.793725087795174" lon="12.698057052476077"><ele>254.00000000000003</ele><time>2026-04-25T13:43:43Z</time></trkpt><trkpt lat="43.79376672436127" lon="12.6979406007812"><ele>254.0</ele><time>2026-04-25T13:43:45Z</time></trkpt><trkpt lat="43.79370830925268" lon="12.697816847361459"><ele>254.0</ele><time>2026-04-25T13:43:46Z</time></trkpt><trkpt lat="43.79370426268003" lon="12.697703348847751"><ele>254.0</ele><time>2026-04-25T13:43:47Z</time></trkpt><trkpt lat="43.793715819553" lon="12.697598879579564"><ele>254.00000000000003</ele><time>2026-04-25T13:43:48Z</time></trkpt><trkpt lat="43.793746072386995" lon="12.69751755687017"><ele>254.0</ele><time>2026-04-25T13:43:49Z</time></trkpt><trkpt lat="43.79380491409316" lon="12.697347879703491"><ele>254.50000000000003</ele><time>2026-04-25T13:43:51Z</time></trkpt><trkpt lat="43.793852018074865" lon="12.697238419006801"><ele>255.0</ele><time>2026-04-25T13:43:52Z</time></trkpt><trkpt lat="43.79390275767024" lon="12.697106108046595"><ele>255.5</ele><time>2026-04-25T13:43:53Z</time></trkpt><trkpt lat="43.79394259392192" lon="12.696977562691988"><ele>256.0</ele><time>2026-04-25T13:43:54Z</time></trkpt><trkpt lat="43.79397119299011" lon="12.69687746376315"><ele>256.5</ele><time>2026-04-25T13:43:55Z</time></trkpt><trkpt lat="43.79397032626895" lon="12.696782440747068"><ele>257.0</ele><time>2026-04-25T13:44:24Z</time></trkpt><trkpt lat="43.793997719200135" lon="12.696644896864285"><ele>255.6</ele><time>2026-04-25T13:44:26Z</time></trkpt><trkpt lat="43.79400901727796" lon="12.696503797740194"><ele>254.2</ele><time>2026-04-25T13:44:28Z</time></trkpt><trkpt lat="43.79401096135405" lon="12.696355283025317"><ele>252.8</ele><time>2026-04-25T13:44:30Z</time></trkpt><trkpt lat="43.794031527616326" lon="12.69627022260946"><ele>251.4</ele><time>2026-04-25T13:44:31Z</time></trkpt><trkpt lat="43.793985518755925" lon="12.696117346756278"><ele>250.0</ele><time>2026-04-25T13:44:33Z</time></trkpt><trkpt lat="43.79391865969704" lon="12.695977347542177"><ele>248.33333333333331</ele><time>2026-04-25T13:44:35Z</time></trkpt><trkpt lat="43.79388115657477" lon="12.695903722144985"><ele>246.66666666666666</ele><time>2026-04-25T13:44:36Z</time></trkpt><trkpt lat="43.793828530374455" lon="12.695818805540984"><ele>245.0</ele><time>2026-04-25T13:44:37Z</time></trkpt><trkpt lat="43.79377599585502" lon="12.69570830747411"><ele>243.33333333333331</ele><time>2026-04-25T13:44:38Z</time></trkpt><trkpt lat="43.79372636434393" lon="12.69560704650832"><ele>241.66666666666666</ele><time>2026-04-25T13:44:39Z</time></trkpt><trkpt lat="43.793703184437" lon="12.695507773295608"><ele>240.0</ele><time>2026-04-25T13:44:40Z</time></trkpt><trkpt lat="43.793668626326024" lon="12.695395172303341"><ele>240.0</ele><time>2026-04-25T13:44:41Z</time></trkpt><trkpt lat="43.79363767052368" lon="12.695270629452276"><ele>240.0</ele><time>2026-04-25T13:44:42Z</time></trkpt><trkpt lat="43.79361211314084" lon="12.695155152881988"><ele>240.0</ele><time>2026-04-25T13:44:43Z</time></trkpt><trkpt lat="43.79359908060888" lon="12.695038468682958"><ele>240.0</ele><time>2026-04-25T13:44:44Z</time></trkpt><trkpt lat="43.793592176918" lon="12.694920575271402"><ele>240.0</ele><time>2026-04-25T13:44:45Z</time></trkpt><trkpt lat="43.793595523595656" lon="12.694789171132316"><ele>240.0</ele><time>2026-04-25T13:44:46Z</time></trkpt><trkpt lat="43.79360908841835" lon="12.694634193433155"><ele>239.5</ele><time>2026-04-25T13:44:47Z</time></trkpt><trkpt lat="43.793632365474906" lon="12.694470434803996"><ele>239.0</ele><time>2026-04-25T13:44:48Z</time></trkpt><trkpt lat="43.793663483763936" lon="12.694304138717174"><ele>238.5</ele><time>2026-04-25T13:44:49Z</time></trkpt><trkpt lat="43.79370371554296" lon="12.694109671253056"><ele>238.0</ele><time>2026-04-25T13:44:50Z</time></trkpt><trkpt lat="43.7937431934142" lon="12.693929672361161"><ele>237.75</ele><time>2026-04-25T13:44:51Z</time></trkpt><trkpt lat="43.79377580947816" lon="12.69377346256281"><ele>237.5</ele><time>2026-04-25T13:44:52Z</time></trkpt><trkpt lat="43.793804818128926" lon="12.693620043711846"><ele>237.25</ele><time>2026-04-25T13:44:53Z</time></trkpt><trkpt lat="43.79382870149916" lon="12.693464082627825"><ele>237.0</ele><time>2026-04-25T13:44:54Z</time></trkpt><trkpt lat="43.793832213029084" lon="12.693309794185872"><ele>237.0</ele><time>2026-04-25T13:44:55Z</time></trkpt><trkpt lat="43.79379922952269" lon="12.693157385747103"><ele>237.0</ele><time>2026-04-25T13:44:56Z</time></trkpt><trkpt lat="43.79377631678462" lon="12.693012738638789"><ele>237.0</ele><time>2026-04-25T13:44:57Z</time></trkpt><trkpt lat="43.793747516324174" lon="12.69287173678566"><ele>237.0</ele><time>2026-04-25T13:44:58Z</time></trkpt><trkpt lat="43.79372454329498" lon="12.692743558689667"><ele>237.0</ele><time>2026-04-25T13:44:59Z</time></trkpt><trkpt lat="43.79372259326342" lon="12.69262336100552"><ele>238.2</ele><time>2026-04-25T13:45:00Z</time></trkpt><trkpt lat="43.793705609807986" lon="12.69249593988615"><ele>239.39999999999998</ele><time>2026-04-25T13:45:01Z</time></trkpt><trkpt lat="43.79368781236633" lon="12.692351603118237"><ele>240.60000000000002</ele><time>2026-04-25T13:45:02Z</time></trkpt><trkpt lat="43.793670317932715" lon="12.692203030133504"><ele>241.8</ele><time>2026-04-25T13:45:03Z</time></trkpt><trkpt lat="43.79365647165028" lon="12.692056581315109"><ele>243.0</ele><time>2026-04-25T13:45:04Z</time></trkpt><trkpt lat="43.793647871600534" lon="12.691916464093486"><ele>244.0</ele><time>2026-04-25T13:45:05Z</time></trkpt><trkpt lat="43.79364906403374" lon="12.691811378004207"><ele>245.0</ele><time>2026-04-25T13:45:06Z</time></trkpt><trkpt lat="43.79366571498864" lon="12.691701587894697"><ele>246.0</ele><time>2026-04-25T13:45:07Z</time></trkpt><trkpt lat="43.793702927225986" lon="12.691596804951427"><ele>247.0</ele><time>2026-04-25T13:45:08Z</time></trkpt><trkpt lat="43.79375137947282" lon="12.691485374168362"><ele>248.0</ele><time>2026-04-25T13:45:09Z</time></trkpt><trkpt lat="43.79381153273683" lon="12.691378519396489"><ele>249.0</ele><time>2026-04-25T13:45:10Z</time></trkpt><trkpt lat="43.793879095928915" lon="12.691241983919126"><ele>249.75</ele><time>2026-04-25T13:45:11Z</time></trkpt><trkpt lat="43.79392854678365" lon="12.69108528412677"><ele>250.5</ele><time>2026-04-25T13:45:12Z</time></trkpt><trkpt lat="43.79396522420673" lon="12.690904758114149"><ele>251.25</ele><time>2026-04-25T13:45:13Z</time></trkpt><trkpt lat="43.79399887771496" lon="12.690696088722733"><ele>252.0</ele><time>2026-04-25T13:45:14Z</time></trkpt><trkpt lat="43.79400962265014" lon="12.690461221580884"><ele>253.66666666666669</ele><time>2026-04-25T13:45:15Z</time></trkpt><trkpt lat="43.794028663626925" lon="12.69020599514588"><ele>255.33333333333334</ele><time>2026-04-25T13:45:16Z</time></trkpt><trkpt lat="43.79404234188028" lon="12.689935454501105"><ele>257.0</ele><time>2026-04-25T13:45:17Z</time></trkpt><trkpt lat="43.79405157139964" lon="12.689664224671905"><ele>257.0</ele><time>2026-04-25T13:45:18Z</time></trkpt><trkpt lat="43.794058747642794" lon="12.689445829332353"><ele>257.0</ele><time>2026-04-25T13:45:19Z</time></trkpt><trkpt lat="43.794092537877944" lon="12.689275285556484"><ele>257.0</ele><time>2026-04-25T13:45:20Z</time></trkpt><trkpt lat="43.794115451462744" lon="12.68913891579425"><ele>257.0</ele><time>2026-04-25T13:45:21Z</time></trkpt><trkpt lat="43.794149417680345" lon="12.689030727351506"><ele>256.2</ele><time>2026-04-25T13:45:22Z</time></trkpt><trkpt lat="43.794194691962076" lon="12.688934403537923"><ele>255.39999999999998</ele><time>2026-04-25T13:45:23Z</time></trkpt><trkpt lat="43.79425159009353" lon="12.688832941321179"><ele>254.60000000000002</ele><time>2026-04-25T13:45:24Z</time></trkpt><trkpt lat="43.79431242649805" lon="12.688722967549422"><ele>253.8</ele><time>2026-04-25T13:45:25Z</time></trkpt><trkpt lat="43.794368608072375" lon="12.688611043908297"><ele>253.0</ele><time>2026-04-25T13:45:26Z</time></trkpt><trkpt lat="43.79441674177322" lon="12.688493326126498"><ele>255.60000000000002</ele><time>2026-04-25T13:45:27Z</time></trkpt><trkpt lat="43.79446091084726" lon="12.688370004792333"><ele>258.20000000000005</ele><time>2026-04-25T13:45:28Z</time></trkpt><trkpt lat="43.79450772469476" lon="12.688233338607054"><ele>260.8</ele><time>2026-04-25T13:45:29Z</time></trkpt><trkpt lat="43.79455080483279" lon="12.688098237673673"><ele>263.40000000000003</ele><time>2026-04-25T13:45:30Z</time></trkpt><trkpt lat="43.79458573637658" lon="12.687974703052873"><ele>266.0</ele><time>2026-04-25T13:45:31Z</time></trkpt><trkpt lat="43.79461663661525" lon="12.68785492892299"><ele>268.0</ele><time>2026-04-25T13:45:32Z</time></trkpt><trkpt lat="43.79464214624074" lon="12.687751274346677"><ele>270.0</ele><time>2026-04-25T13:45:33Z</time></trkpt><trkpt lat="43.79466354341403" lon="12.687652241580423"><ele>272.0</ele><time>2026-04-25T13:45:34Z</time></trkpt><trkpt lat="43.79468739710191" lon="12.687560367876573"><ele>274.0</ele><time>2026-04-25T13:45:35Z</time></trkpt><trkpt lat="43.79471895969376" lon="12.687474353102091"><ele>276.0</ele><time>2026-04-25T13:45:36Z</time></trkpt><trkpt lat="43.794750549454854" lon="12.687398176888687"><ele>278.0</ele><time>2026-04-25T13:45:37Z</time></trkpt><trkpt lat="43.79482163139276" lon="12.687277349114268"><ele>278.0</ele><time>2026-04-25T13:45:39Z</time></trkpt><trkpt lat="43.794898403965455" lon="12.687178869013032"><ele>278.0</ele><time>2026-04-25T13:45:41Z</time></trkpt><trkpt lat="43.79495103322242" lon="12.687118262584638"><ele>278.0</ele><time>2026-04-25T13:45:43Z</time></trkpt><trkpt lat="43.795029999066614" lon="12.68704875566399"><ele>278.0</ele><time>2026-04-25T13:46:02Z</time></trkpt><trkpt lat="43.79511635913765" lon="12.686997067863388"><ele>278.0</ele><time>2026-04-25T13:46:04Z</time></trkpt><trkpt lat="43.79517663167244" lon="12.686970119131724"><ele>278.0</ele><time>2026-04-25T13:46:05Z</time></trkpt><trkpt lat="43.795279331402696" lon="12.686945289260866"><ele>279.4</ele><time>2026-04-25T13:46:07Z</time></trkpt><trkpt lat="43.79534703567594" lon="12.686921919413432"><ele>280.8</ele><time>2026-04-25T13:46:08Z</time></trkpt><trkpt lat="43.795438522399806" lon="12.686898576043797"><ele>282.2</ele><time>2026-04-25T13:46:09Z</time></trkpt><trkpt lat="43.795555422343405" lon="12.686871906508802"><ele>283.6</ele><time>2026-04-25T13:46:10Z</time></trkpt><trkpt lat="43.795695841359" lon="12.686845736026662"><ele>285.0</ele><time>2026-04-25T13:46:11Z</time></trkpt><trkpt lat="43.79584500870796" lon="12.686822348193477"><ele>284.0</ele><time>2026-04-25T13:46:12Z</time></trkpt><trkpt lat="43.796018304544106" lon="12.686797301278304"><ele>283.0</ele><time>2026-04-25T13:46:13Z</time></trkpt><trkpt lat="43.79622063929711" lon="12.686767751349002"><ele>282.0</ele><time>2026-04-25T13:46:14Z</time></trkpt><trkpt lat="43.79644480551224" lon="12.686738969628415"><ele>282.0</ele><time>2026-04-25T13:46:15Z</time></trkpt><trkpt lat="43.79664128773337" lon="12.686709401931788"><ele>282.0</ele><time>2026-04-25T13:46:16Z</time></trkpt><trkpt lat="43.79681961226008" lon="12.686680228056078"><ele>282.0</ele><time>2026-04-25T13:46:17Z</time></trkpt><trkpt lat="43.7969850729265" lon="12.686666095712193"><ele>281.5</ele><time>2026-04-25T13:46:18Z</time></trkpt><trkpt lat="43.79713479230992" lon="12.686655728267722"><ele>281.0</ele><time>2026-04-25T13:46:19Z</time></trkpt><trkpt lat="43.79726575287657" lon="12.686642149511904"><ele>280.5</ele><time>2026-04-25T13:46:20Z</time></trkpt><trkpt lat="43.79738134972526" lon="12.686643644184606"><ele>280.0</ele><time>2026-04-25T13:46:21Z</time></trkpt><trkpt lat="43.79748574260253" lon="12.68667295592975"><ele>280.0</ele><time>2026-04-25T13:46:22Z</time></trkpt><trkpt lat="43.79758313109977" lon="12.686742673735932"><ele>280.0</ele><time>2026-04-25T13:46:23Z</time></trkpt><trkpt lat="43.797676753564836" lon="12.686825630577825"><ele>280.0</ele><time>2026-04-25T13:46:24Z</time></trkpt><trkpt lat="43.797780513342296" lon="12.68692682215552"><ele>280.0</ele><time>2026-04-25T13:46:25Z</time></trkpt><trkpt lat="43.79790418130279" lon="12.68704355469715"><ele>276.0</ele><time>2026-04-25T13:46:26Z</time></trkpt><trkpt lat="43.798038107427104" lon="12.68716842065119"><ele>272.0</ele><time>2026-04-25T13:46:27Z</time></trkpt><trkpt lat="43.79817602282441" lon="12.687291901348182"><ele>268.0</ele><time>2026-04-25T13:46:28Z</time></trkpt><trkpt lat="43.7983526531636" lon="12.687417222296167"><ele>269.66666666666663</ele><time>2026-04-25T13:46:29Z</time></trkpt><trkpt lat="43.79851859149645" lon="12.687561664005942"><ele>271.3333333333333</ele><time>2026-04-25T13:46:30Z</time></trkpt><trkpt lat="43.79867974679122" lon="12.687691240931887"><ele>273.0</ele><time>2026-04-25T13:46:31Z</time></trkpt><trkpt lat="43.798826437411954" lon="12.687819199737863"><ele>269.6666666666667</ele><time>2026-04-25T13:46:32Z</time></trkpt><trkpt lat="43.798973447097126" lon="12.687951320582856"><ele>266.33333333333337</ele><time>2026-04-25T13:46:33Z</time></trkpt><trkpt lat="43.79910120796167" lon="12.688055566408279"><ele>263.0</ele><time>2026-04-25T13:46:34Z</time></trkpt><trkpt lat="43.79921480520335" lon="12.688151772244769"><ele>263.0</ele><time>2026-04-25T13:46:35Z</time></trkpt><trkpt lat="43.799323184180636" lon="12.68824532263118"><ele>263.0</ele><time>2026-04-25T13:46:36Z</time></trkpt><trkpt lat="43.79942670760316" lon="12.688328126890731"><ele>263.0</ele><time>2026-04-25T13:46:37Z</time></trkpt><trkpt lat="43.79951140054533" lon="12.688400311845882"><ele>263.0</ele><time>2026-04-25T13:46:38Z</time></trkpt><trkpt lat="43.7995860527987" lon="12.688471475790735"><ele>263.0</ele><time>2026-04-25T13:46:39Z</time></trkpt><trkpt lat="43.79965680409974" lon="12.688515335569878"><ele>262.8</ele><time>2026-04-25T13:46:40Z</time></trkpt><trkpt lat="43.7997253689883" lon="12.688516910123113"><ele>262.6</ele><time>2026-04-25T13:46:41Z</time></trkpt><trkpt lat="43.79981756553992" lon="12.68841645117982"><ele>262.4</ele><time>2026-04-25T13:46:43Z</time></trkpt><trkpt lat="43.799843381879555" lon="12.688229946208134"><ele>262.2</ele><time>2026-04-25T13:46:45Z</time></trkpt><trkpt lat="43.79984258207669" lon="12.688091502377556"><ele>262.0</ele><time>2026-04-25T13:46:46Z</time></trkpt><trkpt lat="43.7998437827308" lon="12.687939296022474"><ele>262.0</ele><time>2026-04-25T13:46:47Z</time></trkpt><trkpt lat="43.79984862709385" lon="12.68778222041665"><ele>262.0</ele><time>2026-04-25T13:46:48Z</time></trkpt><trkpt lat="43.79985169033387" lon="12.687627612888052"><ele>262.0</ele><time>2026-04-25T13:46:49Z</time></trkpt><trkpt lat="43.79984973391483" lon="12.687460990671235"><ele>262.0</ele><time>2026-04-25T13:46:50Z</time></trkpt><trkpt lat="43.79984545300619" lon="12.687288208947043"><ele>262.25</ele><time>2026-04-25T13:46:51Z</time></trkpt><trkpt lat="43.79983893245765" lon="12.68711611893617"><ele>262.5</ele><time>2026-04-25T13:46:52Z</time></trkpt><trkpt lat="43.799829836511286" lon="12.686952779209301"><ele>262.75</ele><time>2026-04-25T13:46:53Z</time></trkpt><trkpt lat="43.799822756240154" lon="12.686794883166492"><ele>263.0</ele><time>2026-04-25T13:46:54Z</time></trkpt><trkpt lat="43.79981275332202" lon="12.686643827464055"><ele>263.0</ele><time>2026-04-25T13:46:55Z</time></trkpt><trkpt lat="43.79980595333134" lon="12.686508090808621"><ele>263.0</ele><time>2026-04-25T13:46:56Z</time></trkpt><trkpt lat="43.799796230757956" lon="12.686360421228631"><ele>263.0</ele><time>2026-04-25T13:46:57Z</time></trkpt><trkpt lat="43.79978422941846" lon="12.686218083837856"><ele>263.0</ele><time>2026-04-25T13:46:58Z</time></trkpt><trkpt lat="43.79976808987769" lon="12.6860764014293"><ele>263.0</ele><time>2026-04-25T13:46:59Z</time></trkpt><trkpt lat="43.799753429831064" lon="12.68592704547135"><ele>263.0</ele><time>2026-04-25T13:47:00Z</time></trkpt><trkpt lat="43.79973696473593" lon="12.685778648743662"><ele>263.0</ele><time>2026-04-25T13:47:01Z</time></trkpt><trkpt lat="43.799724094305496" lon="12.685637826713888"><ele>263.0</ele><time>2026-04-25T13:47:02Z</time></trkpt><trkpt lat="43.79970801671052" lon="12.685491930748494"><ele>263.0</ele><time>2026-04-25T13:47:03Z</time></trkpt><trkpt lat="43.79968680723127" lon="12.685333492259973"><ele>263.0</ele><time>2026-04-25T13:47:04Z</time></trkpt><trkpt lat="43.79966951220141" lon="12.68517828106078"><ele>262.2</ele><time>2026-04-25T13:47:05Z</time></trkpt><trkpt lat="43.79965475213" lon="12.685026751095034"><ele>261.4</ele><time>2026-04-25T13:47:06Z</time></trkpt><trkpt lat="43.799638513633575" lon="12.684880458997057"><ele>260.59999999999997</ele><time>2026-04-25T13:47:07Z</time></trkpt><trkpt lat="43.79962297454946" lon="12.684734669951283"><ele>259.8</ele><time>2026-04-25T13:47:08Z</time></trkpt><trkpt lat="43.79961066356785" lon="12.6845900611615"><ele>259.0</ele><time>2026-04-25T13:47:09Z</time></trkpt><trkpt lat="43.79959957124434" lon="12.684448092128806"><ele>258.59999999999997</ele><time>2026-04-25T13:47:10Z</time></trkpt><trkpt lat="43.79958377704981" lon="12.68431275620976"><ele>258.2</ele><time>2026-04-25T13:47:11Z</time></trkpt><trkpt lat="43.79957900737106" lon="12.684184422456603"><ele>257.79999999999995</ele><time>2026-04-25T13:47:12Z</time></trkpt><trkpt lat="43.799568307875155" lon="12.684052674567658"><ele>257.4</ele><time>2026-04-25T13:47:13Z</time></trkpt><trkpt lat="43.79955900840527" lon="12.683914120969124"><ele>257.0</ele><time>2026-04-25T13:47:14Z</time></trkpt><trkpt lat="43.79955120564799" lon="12.68376195702171"><ele>257.25</ele><time>2026-04-25T13:47:15Z</time></trkpt><trkpt lat="43.79953840105623" lon="12.68358541706919"><ele>257.5</ele><time>2026-04-25T13:47:16Z</time></trkpt><trkpt lat="43.799523596543835" lon="12.683390963209147"><ele>257.75</ele><time>2026-04-25T13:47:17Z</time></trkpt><trkpt lat="43.799506667598514" lon="12.683216942925034"><ele>258.0</ele><time>2026-04-25T13:47:18Z</time></trkpt><trkpt lat="43.79949569686921" lon="12.683081687528695"><ele>258.0</ele><time>2026-04-25T13:47:19Z</time></trkpt><trkpt lat="43.79952006978496" lon="12.682959813028194"><ele>258.0</ele><time>2026-04-25T13:47:20Z</time></trkpt><trkpt lat="43.799522764562745" lon="12.682842713466652"><ele>258.0</ele><time>2026-04-25T13:47:21Z</time></trkpt><trkpt lat="43.7995360607594" lon="12.68273649025589"><ele>258.0</ele><time>2026-04-25T13:47:22Z</time></trkpt><trkpt lat="43.79953707078436" lon="12.682630350848264"><ele>258.0</ele><time>2026-04-25T13:47:23Z</time></trkpt><trkpt lat="43.7995263027266" lon="12.682527338806613"><ele>258.0</ele><time>2026-04-25T13:47:24Z</time></trkpt><trkpt lat="43.7995185683684" lon="12.682424650091322"><ele>256.8</ele><time>2026-04-25T13:47:25Z</time></trkpt><trkpt lat="43.79951350035421" lon="12.682314065230509"><ele>255.60000000000002</ele><time>2026-04-25T13:47:26Z</time></trkpt><trkpt lat="43.79950979323843" lon="12.682182517415937"><ele>254.39999999999998</ele><time>2026-04-25T13:47:27Z</time></trkpt><trkpt lat="43.79950746735027" lon="12.68203392143148"><ele>253.2</ele><time>2026-04-25T13:47:28Z</time></trkpt><trkpt lat="43.79950569042083" lon="12.681865164616989"><ele>252.0</ele><time>2026-04-25T13:47:29Z</time></trkpt><trkpt lat="43.79949852434665" lon="12.681705962654396"><ele>251.0</ele><time>2026-04-25T13:47:30Z</time></trkpt><trkpt lat="43.79950202615129" lon="12.681559690770303"><ele>250.0</ele><time>2026-04-25T13:47:31Z</time></trkpt><trkpt lat="43.79949857828586" lon="12.681423034420186"><ele>249.0</ele><time>2026-04-25T13:47:32Z</time></trkpt><trkpt lat="43.799493510352036" lon="12.681295007535898"><ele>248.0</ele><time>2026-04-25T13:47:33Z</time></trkpt><trkpt lat="43.799486949827426" lon="12.681183875613707"><ele>247.0</ele><time>2026-04-25T13:47:34Z</time></trkpt><trkpt lat="43.799477160004784" lon="12.681084337800431"><ele>246.8</ele><time>2026-04-25T13:47:35Z</time></trkpt><trkpt lat="43.79946141674343" lon="12.680961466194168"><ele>246.6</ele><time>2026-04-25T13:47:37Z</time></trkpt><trkpt lat="43.79958427449352" lon="12.680889676177317"><ele>246.40000000000003</ele><time>2026-04-25T13:47:40Z</time></trkpt><trkpt lat="43.79966764425095" lon="12.680828439900937"><ele>246.20000000000002</ele><time>2026-04-25T13:47:41Z</time></trkpt><trkpt lat="43.79975198159554" lon="12.680775445574485"><ele>246.0</ele><time>2026-04-25T13:47:42Z</time></trkpt><trkpt lat="43.79983875086825" lon="12.68071381551329"><ele>246.0</ele><time>2026-04-25T13:47:43Z</time></trkpt><trkpt lat="43.799928396771016" lon="12.68064837602854"><ele>246.00000000000003</ele><time>2026-04-25T13:47:44Z</time></trkpt><trkpt lat="43.80002633649339" lon="12.68057605224398"><ele>246.00000000000003</ele><time>2026-04-25T13:47:45Z</time></trkpt><trkpt lat="43.80012248878356" lon="12.680502837576405"><ele>246.0</ele><time>2026-04-25T13:47:46Z</time></trkpt><trkpt lat="43.800227795480325" lon="12.68042810330226"><ele>246.0</ele><time>2026-04-25T13:47:47Z</time></trkpt><trkpt lat="43.80034066045021" lon="12.68035827824532"><ele>242.75</ele><time>2026-04-25T13:47:48Z</time></trkpt><trkpt lat="43.80045009155253" lon="12.680312643289367"><ele>239.5</ele><time>2026-04-25T13:47:49Z</time></trkpt><trkpt lat="43.800560182838225" lon="12.680320485597202"><ele>236.25</ele><time>2026-04-25T13:47:50Z</time></trkpt><trkpt lat="43.800677237879235" lon="12.680335141154348"><ele>233.0</ele><time>2026-04-25T13:47:51Z</time></trkpt><trkpt lat="43.80080956838585" lon="12.680333604346643"><ele>233.0</ele><time>2026-04-25T13:47:52Z</time></trkpt><trkpt lat="43.80094332256798" lon="12.68035894151884"><ele>233.0</ele><time>2026-04-25T13:47:53Z</time></trkpt><trkpt lat="43.801076046858256" lon="12.680383697303027"><ele>233.0</ele><time>2026-04-25T13:47:54Z</time></trkpt><trkpt lat="43.80120306012346" lon="12.680407081248065"><ele>233.0</ele><time>2026-04-25T13:47:55Z</time></trkpt><trkpt lat="43.801325435092465" lon="12.6804217044508"><ele>231.25</ele><time>2026-04-25T13:47:56Z</time></trkpt><trkpt lat="43.80144574260796" lon="12.680446033282427"><ele>229.5</ele><time>2026-04-25T13:47:57Z</time></trkpt><trkpt lat="43.80156295407057" lon="12.680490560161976"><ele>227.75</ele><time>2026-04-25T13:47:58Z</time></trkpt><trkpt lat="43.80168400907588" lon="12.680557946327946"><ele>226.0</ele><time>2026-04-25T13:47:59Z</time></trkpt><trkpt lat="43.80180294087417" lon="12.680644629722186"><ele>223.75</ele><time>2026-04-25T13:48:00Z</time></trkpt><trkpt lat="43.801918905585886" lon="12.680730721328434"><ele>221.5</ele><time>2026-04-25T13:48:01Z</time></trkpt><trkpt lat="43.80204294640763" lon="12.680825174314087"><ele>219.25</ele><time>2026-04-25T13:48:02Z</time></trkpt><trkpt lat="43.80217730145232" lon="12.680921109898136"><ele>217.0</ele><time>2026-04-25T13:48:03Z</time></trkpt><trkpt lat="43.80231458938727" lon="12.681009460207992"><ele>217.0</ele><time>2026-04-25T13:48:04Z</time></trkpt><trkpt lat="43.80245629204345" lon="12.681093402601576"><ele>217.0</ele><time>2026-04-25T13:48:05Z</time></trkpt><trkpt lat="43.802606778394015" lon="12.681163361167298"><ele>217.0</ele><time>2026-04-25T13:48:06Z</time></trkpt><trkpt lat="43.80276286572236" lon="12.681220453884789"><ele>216.0</ele><time>2026-04-25T13:48:07Z</time></trkpt><trkpt lat="43.80291618319114" lon="12.681282429013018"><ele>215.0</ele><time>2026-04-25T13:48:08Z</time></trkpt><trkpt lat="43.80306509531695" lon="12.681343448959987"><ele>214.0</ele><time>2026-04-25T13:48:09Z</time></trkpt><trkpt lat="43.803207560565426" lon="12.68140580863512"><ele>214.0</ele><time>2026-04-25T13:48:10Z</time></trkpt><trkpt lat="43.80334178645157" lon="12.681475353430674"><ele>214.0</ele><time>2026-04-25T13:48:11Z</time></trkpt><trkpt lat="43.80347755831307" lon="12.681539400762098"><ele>214.0</ele><time>2026-04-25T13:48:12Z</time></trkpt><trkpt lat="43.8035956863496" lon="12.681611899073772"><ele>214.0</ele><time>2026-04-25T13:48:13Z</time></trkpt><trkpt lat="43.80369638453554" lon="12.681689409857796"><ele>214.25</ele><time>2026-04-25T13:48:14Z</time></trkpt><trkpt lat="43.80379265755346" lon="12.681774414161378"><ele>214.5</ele><time>2026-04-25T13:48:15Z</time></trkpt><trkpt lat="43.8039026851049" lon="12.68187275978678"><ele>214.75</ele><time>2026-04-25T13:48:16Z</time></trkpt><trkpt lat="43.80402069762692" lon="12.681981749511811"><ele>215.0</ele><time>2026-04-25T13:48:17Z</time></trkpt><trkpt lat="43.80414611107368" lon="12.682099516922328"><ele>214.0</ele><time>2026-04-25T13:48:18Z</time></trkpt><trkpt lat="43.8042728710738" lon="12.6822265594105"><ele>213.0</ele><time>2026-04-25T13:48:19Z</time></trkpt><trkpt lat="43.80440172976987" lon="12.68235856449406"><ele>212.0</ele><time>2026-04-25T13:48:20Z</time></trkpt><trkpt lat="43.804529411757116" lon="12.682492260855334"><ele>212.0</ele><time>2026-04-25T13:48:21Z</time></trkpt><trkpt lat="43.80464619249181" lon="12.682628247534407"><ele>212.0</ele><time>2026-04-25T13:48:22Z</time></trkpt><trkpt lat="43.80476068340313" lon="12.682761726209135"><ele>212.0</ele><time>2026-04-25T13:48:23Z</time></trkpt><trkpt lat="43.804870172596" lon="12.682896103688423"><ele>212.0</ele><time>2026-04-25T13:48:24Z</time></trkpt><trkpt lat="43.80497800431754" lon="12.68303213655742"><ele>211.5</ele><time>2026-04-25T13:48:25Z</time></trkpt><trkpt lat="43.80508322832574" lon="12.683167347960593"><ele>211.0</ele><time>2026-04-25T13:48:26Z</time></trkpt><trkpt lat="43.80518924719526" lon="12.683304934510799"><ele>210.5</ele><time>2026-04-25T13:48:27Z</time></trkpt><trkpt lat="43.80529348627359" lon="12.683446852199854"><ele>210.0</ele><time>2026-04-25T13:48:28Z</time></trkpt><trkpt lat="43.80539703785702" lon="12.683588224500005"><ele>210.0</ele><time>2026-04-25T13:48:29Z</time></trkpt><trkpt lat="43.80550208564191" lon="12.683725640705788"><ele>210.0</ele><time>2026-04-25T13:48:30Z</time></trkpt><trkpt lat="43.80560812932274" lon="12.683877053905839"><ele>210.0</ele><time>2026-04-25T13:48:31Z</time></trkpt><trkpt lat="43.80571498273207" lon="12.684034446985963"><ele>210.0</ele><time>2026-04-25T13:48:32Z</time></trkpt><trkpt lat="43.805829224231196" lon="12.684191969360677"><ele>210.0</ele><time>2026-04-25T13:48:33Z</time></trkpt><trkpt lat="43.805951250714315" lon="12.684345778039848"><ele>210.0</ele><time>2026-04-25T13:48:34Z</time></trkpt><trkpt lat="43.8060792530338" lon="12.684488092609133"><ele>213.33333333333331</ele><time>2026-04-25T13:48:35Z</time></trkpt><trkpt lat="43.80621600360756" lon="12.684618974716681"><ele>216.66666666666666</ele><time>2026-04-25T13:48:36Z</time></trkpt><trkpt lat="43.806354843344536" lon="12.684745177613078"><ele>220.0</ele><time>2026-04-25T13:48:37Z</time></trkpt><trkpt lat="43.80648327412594" lon="12.684880870674903"><ele>220.0</ele><time>2026-04-25T13:48:38Z</time></trkpt><trkpt lat="43.80660968197977" lon="12.685022457724735"><ele>220.0</ele><time>2026-04-25T13:48:39Z</time></trkpt><trkpt lat="43.806731621226575" lon="12.685161261884632"><ele>220.0</ele><time>2026-04-25T13:48:40Z</time></trkpt><trkpt lat="43.806848324230025" lon="12.685296965195759"><ele>223.0</ele><time>2026-04-25T13:48:41Z</time></trkpt><trkpt lat="43.8069531876934" lon="12.685427777868068"><ele>226.0</ele><time>2026-04-25T13:48:42Z</time></trkpt><trkpt lat="43.80705122721942" lon="12.685545425658143"><ele>229.0</ele><time>2026-04-25T13:48:43Z</time></trkpt><trkpt lat="43.80714989159311" lon="12.685656927468624"><ele>232.0</ele><time>2026-04-25T13:48:44Z</time></trkpt><trkpt lat="43.807246673001124" lon="12.685763949426732"><ele>232.0</ele><time>2026-04-25T13:48:45Z</time></trkpt><trkpt lat="43.80734776490499" lon="12.685874103438163"><ele>232.0</ele><time>2026-04-25T13:48:46Z</time></trkpt><trkpt lat="43.80745010532303" lon="12.685983365263082"><ele>232.0</ele><time>2026-04-25T13:48:47Z</time></trkpt><trkpt lat="43.80754432084444" lon="12.686109450821661"><ele>232.0</ele><time>2026-04-25T13:48:48Z</time></trkpt><trkpt lat="43.80762928656447" lon="12.686254756577203"><ele>231.0</ele><time>2026-04-25T13:48:49Z</time></trkpt><trkpt lat="43.80770551435908" lon="12.686417309441545"><ele>230.0</ele><time>2026-04-25T13:48:50Z</time></trkpt><trkpt lat="43.80774929625066" lon="12.686607161452347"><ele>229.0</ele><time>2026-04-25T13:48:51Z</time></trkpt><trkpt lat="43.807793904751335" lon="12.686804711537583"><ele>228.0</ele><time>2026-04-25T13:48:52Z</time></trkpt><trkpt lat="43.807836400443534" lon="12.687010880976771"><ele>228.0</ele><time>2026-04-25T13:48:53Z</time></trkpt><trkpt lat="43.80789227049422" lon="12.687207154122364"><ele>228.0</ele><time>2026-04-25T13:48:54Z</time></trkpt><trkpt lat="43.80793147347927" lon="12.687412017266784"><ele>228.0</ele><time>2026-04-25T13:48:55Z</time></trkpt><trkpt lat="43.80797290626708" lon="12.687612878258987"><ele>228.75</ele><time>2026-04-25T13:48:56Z</time></trkpt><trkpt lat="43.80802171408568" lon="12.68780670060569"><ele>229.5</ele><time>2026-04-25T13:48:57Z</time></trkpt><trkpt lat="43.80807672954198" lon="12.687993217905035"><ele>230.25</ele><time>2026-04-25T13:48:58Z</time></trkpt><trkpt lat="43.80813530672442" lon="12.688174488161179"><ele>231.0</ele><time>2026-04-25T13:48:59Z</time></trkpt><trkpt lat="43.80819816054805" lon="12.68836062550727"><ele>231.0</ele><time>2026-04-25T13:49:00Z</time></trkpt><trkpt lat="43.80826400072339" lon="12.68854953523456"><ele>231.0</ele><time>2026-04-25T13:49:01Z</time></trkpt><trkpt lat="43.808331657842245" lon="12.688746802469002"><ele>231.0</ele><time>2026-04-25T13:49:02Z</time></trkpt><trkpt lat="43.808399731899335" lon="12.68894846999546"><ele>231.0</ele><time>2026-04-25T13:49:03Z</time></trkpt><trkpt lat="43.80846287070554" lon="12.689142386902027"><ele>231.0</ele><time>2026-04-25T13:49:04Z</time></trkpt><trkpt lat="43.80852029406133" lon="12.689318226893677"><ele>231.0</ele><time>2026-04-25T13:49:05Z</time></trkpt><trkpt lat="43.808572232584424" lon="12.689478371862675"><ele>231.0</ele><time>2026-04-25T13:49:06Z</time></trkpt><trkpt lat="43.80861023194939" lon="12.68964641709063"><ele>231.0</ele><time>2026-04-25T13:49:07Z</time></trkpt><trkpt lat="43.80864396395746" lon="12.689825588009661"><ele>231.0</ele><time>2026-04-25T13:49:08Z</time></trkpt><trkpt lat="43.808678221778564" lon="12.690015048606718"><ele>231.0</ele><time>2026-04-25T13:49:09Z</time></trkpt><trkpt lat="43.80871398397188" lon="12.690208938952159"><ele>231.0</ele><time>2026-04-25T13:49:10Z</time></trkpt><trkpt lat="43.80874643530269" lon="12.690392033295659"><ele>231.0</ele><time>2026-04-25T13:49:11Z</time></trkpt><trkpt lat="43.80877540659732" lon="12.690558215722094"><ele>231.00000000000003</ele><time>2026-04-25T13:49:12Z</time></trkpt><trkpt lat="43.808804885927685" lon="12.690709414217814"><ele>231.00000000000003</ele><time>2026-04-25T13:49:13Z</time></trkpt><trkpt lat="43.808836128013674" lon="12.690843373022814"><ele>231.0</ele><time>2026-04-25T13:49:14Z</time></trkpt><trkpt lat="43.8088749559847" lon="12.690965392256588"><ele>231.0</ele><time>2026-04-25T13:49:15Z</time></trkpt><trkpt lat="43.808918528534875" lon="12.69109863814565"><ele>230.75</ele><time>2026-04-25T13:49:16Z</time></trkpt><trkpt lat="43.80897193936858" lon="12.691238082138444"><ele>230.5</ele><time>2026-04-25T13:49:17Z</time></trkpt><trkpt lat="43.809036218035814" lon="12.691375462579012"><ele>230.25</ele><time>2026-04-25T13:49:18Z</time></trkpt><trkpt lat="43.80910509726959" lon="12.691519360508423"><ele>230.0</ele><time>2026-04-25T13:49:19Z</time></trkpt><trkpt lat="43.809181625597695" lon="12.691685171257731"><ele>230.0</ele><time>2026-04-25T13:49:20Z</time></trkpt><trkpt lat="43.80926119752233" lon="12.691840744742255"><ele>230.0</ele><time>2026-04-25T13:49:21Z</time></trkpt><trkpt lat="43.809338568686556" lon="12.69197610216049"><ele>230.0</ele><time>2026-04-25T13:49:22Z</time></trkpt><trkpt lat="43.80942073412097" lon="12.692088920141"><ele>230.0</ele><time>2026-04-25T13:49:23Z</time></trkpt><trkpt lat="43.809519466271645" lon="12.692196139264711"><ele>230.0</ele><time>2026-04-25T13:49:24Z</time></trkpt><trkpt lat="43.80963214166939" lon="12.692306305886694"><ele>230.0</ele><time>2026-04-25T13:49:25Z</time></trkpt><trkpt lat="43.80973816204104" lon="12.69242920804053"><ele>230.0</ele><time>2026-04-25T13:49:26Z</time></trkpt><trkpt lat="43.80983146057629" lon="12.692570817643908"><ele>230.0</ele><time>2026-04-25T13:49:27Z</time></trkpt><trkpt lat="43.80991295398145" lon="12.692733022152032"><ele>231.5</ele><time>2026-04-25T13:49:28Z</time></trkpt><trkpt lat="43.8099786465543" lon="12.692911283954228"><ele>233.0</ele><time>2026-04-25T13:49:29Z</time></trkpt><trkpt lat="43.810032829716725" lon="12.69309393601854"><ele>234.5</ele><time>2026-04-25T13:49:30Z</time></trkpt><trkpt lat="43.810079964620535" lon="12.693276739097248"><ele>236.0</ele><time>2026-04-25T13:49:31Z</time></trkpt><trkpt lat="43.81013413689427" lon="12.693455438654103"><ele>239.25</ele><time>2026-04-25T13:49:32Z</time></trkpt><trkpt lat="43.810188777646964" lon="12.693634641914675"><ele>242.5</ele><time>2026-04-25T13:49:33Z</time></trkpt><trkpt lat="43.81024740949843" lon="12.69380877496194"><ele>245.75</ele><time>2026-04-25T13:49:34Z</time></trkpt><trkpt lat="43.810302443220266" lon="12.693986088150941"><ele>249.0</ele><time>2026-04-25T13:49:35Z</time></trkpt><trkpt lat="43.810359557631436" lon="12.694165789284526"><ele>249.0</ele><time>2026-04-25T13:49:36Z</time></trkpt><trkpt lat="43.810419911639094" lon="12.694343510825696"><ele>249.0</ele><time>2026-04-25T13:49:37Z</time></trkpt><trkpt lat="43.810478978472" lon="12.694522344862687"><ele>249.0</ele><time>2026-04-25T13:49:38Z</time></trkpt><trkpt lat="43.81053343712284" lon="12.69470509824635"><ele>249.0</ele><time>2026-04-25T13:49:39Z</time></trkpt><trkpt lat="43.81058880986308" lon="12.694886118378903"><ele>249.79999999999998</ele><time>2026-04-25T13:49:40Z</time></trkpt><trkpt lat="43.810640879607" lon="12.695048153401421"><ele>250.59999999999997</ele><time>2026-04-25T13:49:41Z</time></trkpt><trkpt lat="43.81068906480209" lon="12.695176669423965"><ele>251.4</ele><time>2026-04-25T13:49:42Z</time></trkpt><trkpt lat="43.8107498608412" lon="12.695274660078404"><ele>252.2</ele><time>2026-04-25T13:49:43Z</time></trkpt><trkpt lat="43.810826045019645" lon="12.695340002669404"><ele>253.0</ele><time>2026-04-25T13:49:44Z</time></trkpt><trkpt lat="43.81090277634837" lon="12.695363955954928"><ele>253.0</ele><time>2026-04-25T13:49:45Z</time></trkpt><trkpt lat="43.81097963623568" lon="12.695363729919226"><ele>253.0</ele><time>2026-04-25T13:49:46Z</time></trkpt><trkpt lat="43.81107024732476" lon="12.695339967752643"><ele>253.0</ele><time>2026-04-25T13:49:47Z</time></trkpt><trkpt lat="43.81117883956594" lon="12.695291339726579"><ele>253.0</ele><time>2026-04-25T13:49:48Z</time></trkpt><trkpt lat="43.81129481316029" lon="12.695240589923806"><ele>253.0</ele><time>2026-04-25T13:49:49Z</time></trkpt><trkpt lat="43.81141671965962" lon="12.695188824057158"><ele>256.25</ele><time>2026-04-25T13:49:50Z</time></trkpt><trkpt lat="43.81154025070911" lon="12.69513987272429"><ele>259.5</ele><time>2026-04-25T13:49:51Z</time></trkpt><trkpt lat="43.811662030733864" lon="12.695101451084245"><ele>262.75</ele><time>2026-04-25T13:49:52Z</time></trkpt><trkpt lat="43.8117655046495" lon="12.695108090976168"><ele>266.0</ele><time>2026-04-25T13:49:53Z</time></trkpt><trkpt lat="43.81186095876146" lon="12.69511876458984"><ele>266.6666666666667</ele><time>2026-04-25T13:49:54Z</time></trkpt><trkpt lat="43.81192541205163" lon="12.69516871869855"><ele>267.33333333333337</ele><time>2026-04-25T13:49:55Z</time></trkpt><trkpt lat="43.81196932729468" lon="12.69523264360891"><ele>268.0</ele><time>2026-04-25T13:49:56Z</time></trkpt><trkpt lat="43.81201786522389" lon="12.695322966809552"><ele>268.6666666666667</ele><time>2026-04-25T13:49:57Z</time></trkpt><trkpt lat="43.81205093214023" lon="12.695438555633201"><ele>269.3333333333333</ele><time>2026-04-25T13:49:58Z</time></trkpt><trkpt lat="43.812076069049645" lon="12.695570487675269"><ele>270.0</ele><time>2026-04-25T13:49:59Z</time></trkpt><trkpt lat="43.812102550778356" lon="12.695709917463702"><ele>270.4</ele><time>2026-04-25T13:50:00Z</time></trkpt><trkpt lat="43.8121256849537" lon="12.695848993170697"><ele>270.8</ele><time>2026-04-25T13:50:01Z</time></trkpt><trkpt lat="43.81215336628483" lon="12.695959855927741"><ele>271.2</ele><time>2026-04-25T13:50:02Z</time></trkpt><trkpt lat="43.812161296699344" lon="12.696059095871563"><ele>271.6</ele><time>2026-04-25T13:50:03Z</time></trkpt><trkpt lat="43.81217314796367" lon="12.696222410652993"><ele>272.0</ele><time>2026-04-25T13:50:05Z</time></trkpt><trkpt lat="43.81217663125039" lon="12.696349989077227"><ele>272.4</ele><time>2026-04-25T13:50:07Z</time></trkpt><trkpt lat="43.8123594568106" lon="12.696357143000922"><ele>272.79999999999995</ele><time>2026-04-25T13:50:09Z</time></trkpt><trkpt lat="43.812441388508496" lon="12.696345681549815"><ele>273.2</ele><time>2026-04-25T13:50:10Z</time></trkpt><trkpt lat="43.812514873295335" lon="12.69631757373421"><ele>273.59999999999997</ele><time>2026-04-25T13:50:11Z</time></trkpt><trkpt lat="43.81258914737142" lon="12.69626937963834"><ele>274.0</ele><time>2026-04-25T13:50:12Z</time></trkpt><trkpt lat="43.81264700571047" lon="12.696197490630249"><ele>273.59999999999997</ele><time>2026-04-25T13:50:13Z</time></trkpt><trkpt lat="43.812662297407385" lon="12.696090252388245"><ele>273.2</ele><time>2026-04-25T13:50:14Z</time></trkpt><trkpt lat="43.812661385271014" lon="12.695992353581117"><ele>272.79999999999995</ele><time>2026-04-25T13:50:15Z</time></trkpt><trkpt lat="43.812684902374535" lon="12.695855410725791"><ele>272.4</ele><time>2026-04-25T13:50:18Z</time></trkpt><trkpt lat="43.812732627780434" lon="12.695651407940671"><ele>272.0</ele><time>2026-04-25T13:50:20Z</time></trkpt><trkpt lat="43.8127656289783" lon="12.695519835898454"><ele>269.8</ele><time>2026-04-25T13:50:21Z</time></trkpt><trkpt lat="43.81283467976007" lon="12.695414652091268"><ele>267.6</ele><time>2026-04-25T13:50:22Z</time></trkpt><trkpt lat="43.81291440188145" lon="12.695302186333638"><ele>265.40000000000003</ele><time>2026-04-25T13:50:23Z</time></trkpt><trkpt lat="43.813000283450755" lon="12.695201472445225"><ele>263.2</ele><time>2026-04-25T13:50:24Z</time></trkpt><trkpt lat="43.81309786963864" lon="12.695111481938431"><ele>261.0</ele><time>2026-04-25T13:50:25Z</time></trkpt><trkpt lat="43.813197194785374" lon="12.695033598811346"><ele>259.8</ele><time>2026-04-25T13:50:26Z</time></trkpt><trkpt lat="43.81328947972401" lon="12.694954244240261"><ele>258.6</ele><time>2026-04-25T13:50:27Z</time></trkpt><trkpt lat="43.813384677804336" lon="12.694877239144851"><ele>257.4</ele><time>2026-04-25T13:50:28Z</time></trkpt><trkpt lat="43.81347794767229" lon="12.694805203906188"><ele>256.2</ele><time>2026-04-25T13:50:29Z</time></trkpt><trkpt lat="43.8135636887541" lon="12.694731543184034"><ele>255.0</ele><time>2026-04-25T13:50:30Z</time></trkpt><trkpt lat="43.81364592520883" lon="12.694666292441196"><ele>253.6</ele><time>2026-04-25T13:50:31Z</time></trkpt><trkpt lat="43.81372967108826" lon="12.6946034737699"><ele>252.2</ele><time>2026-04-25T13:50:32Z</time></trkpt><trkpt lat="43.813819906554116" lon="12.694535707409278"><ele>250.8</ele><time>2026-04-25T13:50:33Z</time></trkpt><trkpt lat="43.81392270794117" lon="12.694462610746948"><ele>249.4</ele><time>2026-04-25T13:50:34Z</time></trkpt><trkpt lat="43.814021462391146" lon="12.694396138030116"><ele>248.0</ele><time>2026-04-25T13:50:35Z</time></trkpt><trkpt lat="43.81412407234577" lon="12.694330765004215"><ele>248.0</ele><time>2026-04-25T13:50:36Z</time></trkpt><trkpt lat="43.81422001079861" lon="12.694271184808663"><ele>248.0</ele><time>2026-04-25T13:50:37Z</time></trkpt><trkpt lat="43.81431362242657" lon="12.694214544111482"><ele>248.0</ele><time>2026-04-25T13:50:38Z</time></trkpt><trkpt lat="43.81440779189392" lon="12.69415038207913"><ele>248.0</ele><time>2026-04-25T13:50:39Z</time></trkpt><trkpt lat="43.81450026878794" lon="12.694088714680449"><ele>248.0</ele><time>2026-04-25T13:50:40Z</time></trkpt><trkpt lat="43.81458465784962" lon="12.694036773126532"><ele>246.66666666666669</ele><time>2026-04-25T13:50:41Z</time></trkpt><trkpt lat="43.814663152883924" lon="12.693993709675036"><ele>245.33333333333334</ele><time>2026-04-25T13:50:42Z</time></trkpt><trkpt lat="43.81474411332421" lon="12.693961804097587"><ele>244.0</ele><time>2026-04-25T13:50:43Z</time></trkpt><trkpt lat="43.81482052543921" lon="12.693925009905621"><ele>242.66666666666669</ele><time>2026-04-25T13:50:44Z</time></trkpt><trkpt lat="43.814894834095746" lon="12.693891298494131"><ele>241.33333333333334</ele><time>2026-04-25T13:50:45Z</time></trkpt><trkpt lat="43.814971933942324" lon="12.693848528015865"><ele>240.0</ele><time>2026-04-25T13:50:46Z</time></trkpt><trkpt lat="43.81506301479229" lon="12.69380663618795"><ele>240.0</ele><time>2026-04-25T13:50:47Z</time></trkpt><trkpt lat="43.81514830537906" lon="12.693766037594596"><ele>240.0</ele><time>2026-04-25T13:50:48Z</time></trkpt><trkpt lat="43.815211393987006" lon="12.693720670437072"><ele>240.0</ele><time>2026-04-25T13:50:49Z</time></trkpt><trkpt lat="43.8152467950912" lon="12.69357502292727"><ele>240.0</ele><time>2026-04-25T13:50:51Z</time></trkpt><trkpt lat="43.815188470657354" lon="12.693387422857162"><ele>240.0</ele><time>2026-04-25T13:50:53Z</time></trkpt><trkpt lat="43.81516369035555" lon="12.693248429498794"><ele>243.25</ele><time>2026-04-25T13:50:54Z</time></trkpt><trkpt lat="43.81513363927264" lon="12.693098684121983"><ele>246.5</ele><time>2026-04-25T13:50:55Z</time></trkpt><trkpt lat="43.81510010369014" lon="12.692933939686153"><ele>249.75</ele><time>2026-04-25T13:50:56Z</time></trkpt><trkpt lat="43.815057038090316" lon="12.692754754934146"><ele>253.0</ele><time>2026-04-25T13:50:57Z</time></trkpt><trkpt lat="43.815010982859775" lon="12.692585823117735"><ele>254.25</ele><time>2026-04-25T13:50:58Z</time></trkpt><trkpt lat="43.814961836973815" lon="12.69241307792463"><ele>255.5</ele><time>2026-04-25T13:50:59Z</time></trkpt><trkpt lat="43.81491664029666" lon="12.692261959992829"><ele>256.75</ele><time>2026-04-25T13:51:00Z</time></trkpt><trkpt lat="43.81487117609391" lon="12.692127192131071"><ele>258.0</ele><time>2026-04-25T13:51:01Z</time></trkpt><trkpt lat="43.8148121747283" lon="12.692016706502946"><ele>257.3333333333333</ele><time>2026-04-25T13:51:02Z</time></trkpt><trkpt lat="43.814771310888545" lon="12.691908407605878"><ele>256.6666666666667</ele><time>2026-04-25T13:51:03Z</time></trkpt><trkpt lat="43.814727908950694" lon="12.691813756284837"><ele>256.0</ele><time>2026-04-25T13:51:04Z</time></trkpt><trkpt lat="43.81469116795838" lon="12.691726806187305"><ele>255.33333333333334</ele><time>2026-04-25T13:51:05Z</time></trkpt><trkpt lat="43.81463256866993" lon="12.691635168040074"><ele>254.66666666666669</ele><time>2026-04-25T13:51:06Z</time></trkpt><trkpt lat="43.81455179631426" lon="12.691544206938916"><ele>254.0</ele><time>2026-04-25T13:51:07Z</time></trkpt><trkpt lat="43.81447590007897" lon="12.69144047428893"><ele>254.00000000000003</ele><time>2026-04-25T13:51:08Z</time></trkpt><trkpt lat="43.814402179950164" lon="12.691355092223434"><ele>254.0</ele><time>2026-04-25T13:51:09Z</time></trkpt><trkpt lat="43.81433720134821" lon="12.691278252799888"><ele>254.0</ele><time>2026-04-25T13:51:10Z</time></trkpt><trkpt lat="43.81430718759888" lon="12.691187117479394"><ele>254.0</ele><time>2026-04-25T13:51:11Z</time></trkpt><trkpt lat="43.814315713068865" lon="12.691095197451363"><ele>254.00000000000003</ele><time>2026-04-25T13:51:12Z</time></trkpt><trkpt lat="43.814367825252006" lon="12.690951235753733"><ele>254.0</ele><time>2026-04-25T13:51:14Z</time></trkpt><trkpt lat="43.81441422122085" lon="12.69088096143065"><ele>251.6</ele><time>2026-04-25T13:51:15Z</time></trkpt><trkpt lat="43.81450052433761" lon="12.69088843118463"><ele>249.2</ele><time>2026-04-25T13:51:16Z</time></trkpt><trkpt lat="43.814581574091974" lon="12.690867678394529"><ele>246.79999999999998</ele><time>2026-04-25T13:51:17Z</time></trkpt><trkpt lat="43.814675395015946" lon="12.690842551747187"><ele>244.39999999999998</ele><time>2026-04-25T13:51:18Z</time></trkpt><trkpt lat="43.81477893350133" lon="12.690841966705802"><ele>242.0</ele><time>2026-04-25T13:51:19Z</time></trkpt><trkpt lat="43.81488712157566" lon="12.690819435333596"><ele>242.00000000000003</ele><time>2026-04-25T13:51:20Z</time></trkpt><trkpt lat="43.81498616344167" lon="12.690789531199822"><ele>242.0</ele><time>2026-04-25T13:51:21Z</time></trkpt><trkpt lat="43.81506910409608" lon="12.690737896372065"><ele>242.0</ele><time>2026-04-25T13:51:22Z</time></trkpt><trkpt lat="43.81513708662417" lon="12.690679761410975"><ele>242.0</ele><time>2026-04-25T13:51:23Z</time></trkpt><trkpt lat="43.815181623139054" lon="12.690613298790273"><ele>242.00000000000003</ele><time>2026-04-25T13:51:24Z</time></trkpt><trkpt lat="43.81521492097201" lon="12.690514868588561"><ele>242.0</ele><time>2026-04-25T13:51:25Z</time></trkpt><trkpt lat="43.81524111805865" lon="12.690376811128306"><ele>234.5</ele><time>2026-04-25T13:51:26Z</time></trkpt><trkpt lat="43.81525153099488" lon="12.690226930554852"><ele>227.0</ele><time>2026-04-25T13:51:27Z</time></trkpt><trkpt lat="43.81527504644752" lon="12.690066013186673"><ele>219.5</ele><time>2026-04-25T13:51:28Z</time></trkpt><trkpt lat="43.8152927071101" lon="12.689902507145634"><ele>212.0</ele><time>2026-04-25T13:51:29Z</time></trkpt><trkpt lat="43.81530323164197" lon="12.689752081170772"><ele>212.00000000000003</ele><time>2026-04-25T13:51:30Z</time></trkpt><trkpt lat="43.81530166821633" lon="12.689623384034649"><ele>212.0</ele><time>2026-04-25T13:51:31Z</time></trkpt><trkpt lat="43.815284952277025" lon="12.68952794145745"><ele>212.0</ele><time>2026-04-25T13:51:32Z</time></trkpt><trkpt lat="43.815259668691006" lon="12.689380623051603"><ele>212.0</ele><time>2026-04-25T13:51:34Z</time></trkpt><trkpt lat="43.815222558906044" lon="12.689293750893151"><ele>212.00000000000003</ele><time>2026-04-25T13:51:35Z</time></trkpt><trkpt lat="43.81518743667515" lon="12.689175007830013"><ele>212.0</ele><time>2026-04-25T13:51:36Z</time></trkpt><trkpt lat="43.815126409941804" lon="12.689053629315413"><ele>212.00000000000003</ele><time>2026-04-25T13:51:37Z</time></trkpt><trkpt lat="43.815067746305644" lon="12.688925666359385"><ele>212.0</ele><time>2026-04-25T13:51:38Z</time></trkpt><trkpt lat="43.815024931366565" lon="12.688821020776507"><ele>212.0</ele><time>2026-04-25T13:51:39Z</time></trkpt><trkpt lat="43.815002714972195" lon="12.688728354521855"><ele>212.0</ele><time>2026-04-25T13:51:40Z</time></trkpt><trkpt lat="43.8150307942915" lon="12.688635993212673"><ele>212.00000000000003</ele><time>2026-04-25T13:51:41Z</time></trkpt><trkpt lat="43.81507643211067" lon="12.688538760732277"><ele>212.0</ele><time>2026-04-25T13:51:42Z</time></trkpt><trkpt lat="43.815139858084" lon="12.688439860529492"><ele>209.2</ele><time>2026-04-25T13:51:43Z</time></trkpt><trkpt lat="43.815216851722674" lon="12.688332760526917"><ele>206.39999999999998</ele><time>2026-04-25T13:51:44Z</time></trkpt><trkpt lat="43.81529431581749" lon="12.688237896619471"><ele>203.60000000000002</ele><time>2026-04-25T13:51:45Z</time></trkpt><trkpt lat="43.8153484111748" lon="12.688155337576402"><ele>200.8</ele><time>2026-04-25T13:51:46Z</time></trkpt><trkpt lat="43.81541761353879" lon="12.688080984804838"><ele>198.0</ele><time>2026-04-25T13:51:48Z</time></trkpt><trkpt lat="43.81548724087978" lon="12.688180941550822"><ele>198.0</ele><time>2026-04-25T13:51:49Z</time></trkpt><trkpt lat="43.815545507124085" lon="12.688235385931792"><ele>198.0</ele><time>2026-04-25T13:51:50Z</time></trkpt><trkpt lat="43.815627396109086" lon="12.688297811005508"><ele>198.0</ele><time>2026-04-25T13:51:51Z</time></trkpt><trkpt lat="43.815699982334976" lon="12.688404180951384"><ele>198.0</ele><time>2026-04-25T13:51:52Z</time></trkpt><trkpt lat="43.81577565197948" lon="12.68850555033696"><ele>198.0</ele><time>2026-04-25T13:51:53Z</time></trkpt><trkpt lat="43.81586583181421" lon="12.688625376322497"><ele>196.5</ele><time>2026-04-25T13:51:54Z</time></trkpt><trkpt lat="43.81596948515711" lon="12.688737963999799"><ele>195.0</ele><time>2026-04-25T13:51:55Z</time></trkpt><trkpt lat="43.816076273153335" lon="12.688854594213709"><ele>193.5</ele><time>2026-04-25T13:51:56Z</time></trkpt><trkpt lat="43.816178734899665" lon="12.68897743310724"><ele>192.0</ele><time>2026-04-25T13:51:57Z</time></trkpt><trkpt lat="43.816282229543006" lon="12.689100102128767"><ele>192.0</ele><time>2026-04-25T13:51:58Z</time></trkpt><trkpt lat="43.81638579530978" lon="12.689218133607797"><ele>192.0</ele><time>2026-04-25T13:51:59Z</time></trkpt><trkpt lat="43.81648246948727" lon="12.689325232067034"><ele>192.0</ele><time>2026-04-25T13:52:00Z</time></trkpt><trkpt lat="43.81656874419387" lon="12.689434278310525"><ele>192.0</ele><time>2026-04-25T13:52:01Z</time></trkpt><trkpt lat="43.816647747761685" lon="12.689525132001025"><ele>190.8</ele><time>2026-04-25T13:52:02Z</time></trkpt><trkpt lat="43.81671337205858" lon="12.68961666898363"><ele>189.6</ele><time>2026-04-25T13:52:03Z</time></trkpt><trkpt lat="43.816740524505875" lon="12.689728981146406"><ele>188.4</ele><time>2026-04-25T13:52:04Z</time></trkpt><trkpt lat="43.81679100762874" lon="12.689842954094567"><ele>187.20000000000002</ele><time>2026-04-25T13:52:05Z</time></trkpt><trkpt lat="43.816826980190136" lon="12.689955658024891"><ele>186.0</ele><time>2026-04-25T13:52:06Z</time></trkpt><trkpt lat="43.816878995763474" lon="12.69011085052"><ele>190.20000000000002</ele><time>2026-04-25T13:52:07Z</time></trkpt><trkpt lat="43.81692076301806" lon="12.690263952800027"><ele>194.4</ele><time>2026-04-25T13:52:08Z</time></trkpt><trkpt lat="43.816971950390496" lon="12.690401814575905"><ele>198.6</ele><time>2026-04-25T13:52:09Z</time></trkpt><trkpt lat="43.81704443399847" lon="12.69048159992122"><ele>202.8</ele><time>2026-04-25T13:52:10Z</time></trkpt><trkpt lat="43.81712023790653" lon="12.690497553864398"><ele>207.0</ele><time>2026-04-25T13:52:11Z</time></trkpt><trkpt lat="43.817206137313015" lon="12.690487080210039"><ele>207.0</ele><time>2026-04-25T13:52:12Z</time></trkpt><trkpt lat="43.81731662367833" lon="12.690500762019044"><ele>207.0</ele><time>2026-04-25T13:52:13Z</time></trkpt><trkpt lat="43.817436252700666" lon="12.690451786039786"><ele>207.0</ele><time>2026-04-25T13:52:14Z</time></trkpt><trkpt lat="43.81755734827939" lon="12.690446027040553"><ele>207.0</ele><time>2026-04-25T13:52:15Z</time></trkpt><trkpt lat="43.81766606875464" lon="12.690430754955656"><ele>206.8</ele><time>2026-04-25T13:52:16Z</time></trkpt><trkpt lat="43.81776431475748" lon="12.69040268101827"><ele>206.6</ele><time>2026-04-25T13:52:17Z</time></trkpt><trkpt lat="43.817859608865085" lon="12.690343589671649"><ele>206.4</ele><time>2026-04-25T13:52:18Z</time></trkpt><trkpt lat="43.81796046063016" lon="12.690273821246583"><ele>206.20000000000002</ele><time>2026-04-25T13:52:19Z</time></trkpt><trkpt lat="43.81806128740778" lon="12.690197526545655"><ele>206.0</ele><time>2026-04-25T13:52:20Z</time></trkpt><trkpt lat="43.81814901747693" lon="12.690120318423194"><ele>202.8</ele><time>2026-04-25T13:52:21Z</time></trkpt><trkpt lat="43.81822448664796" lon="12.690041202582744"><ele>199.60000000000002</ele><time>2026-04-25T13:52:22Z</time></trkpt><trkpt lat="43.81829172983607" lon="12.689941981043397"><ele>196.4</ele><time>2026-04-25T13:52:23Z</time></trkpt><trkpt lat="43.81834893114478" lon="12.689836754590539"><ele>193.2</ele><time>2026-04-25T13:52:24Z</time></trkpt><trkpt lat="43.818410562754025" lon="12.689712468211226"><ele>190.0</ele><time>2026-04-25T13:52:25Z</time></trkpt><trkpt lat="43.81848409584507" lon="12.689577031770826"><ele>188.5</ele><time>2026-04-25T13:52:26Z</time></trkpt><trkpt lat="43.81856511806624" lon="12.689437273766323"><ele>187.0</ele><time>2026-04-25T13:52:27Z</time></trkpt><trkpt lat="43.81865111425055" lon="12.689287450310648"><ele>185.5</ele><time>2026-04-25T13:52:28Z</time></trkpt><trkpt lat="43.81873948590185" lon="12.689123568195178"><ele>184.0</ele><time>2026-04-25T13:52:29Z</time></trkpt><trkpt lat="43.81883229719875" lon="12.688960665869047"><ele>181.0</ele><time>2026-04-25T13:52:30Z</time></trkpt><trkpt lat="43.81892115612177" lon="12.6887981481326"><ele>178.0</ele><time>2026-04-25T13:52:31Z</time></trkpt><trkpt lat="43.81900698467642" lon="12.688636953969409"><ele>175.0</ele><time>2026-04-25T13:52:32Z</time></trkpt><trkpt lat="43.819094218425384" lon="12.688476003915872"><ele>172.0</ele><time>2026-04-25T13:52:33Z</time></trkpt><trkpt lat="43.819182223916386" lon="12.688320541383792"><ele>169.75</ele><time>2026-04-25T13:52:34Z</time></trkpt><trkpt lat="43.81926490301814" lon="12.688169325763266"><ele>167.5</ele><time>2026-04-25T13:52:35Z</time></trkpt><trkpt lat="43.8193413298169" lon="12.6880259374171"><ele>165.25</ele><time>2026-04-25T13:52:36Z</time></trkpt><trkpt lat="43.81941227954743" lon="12.687896671561512"><ele>163.0</ele><time>2026-04-25T13:52:37Z</time></trkpt><trkpt lat="43.819487148075275" lon="12.68782183650799"><ele>162.8</ele><time>2026-04-25T13:52:38Z</time></trkpt><trkpt lat="43.81954615428315" lon="12.687771021673033"><ele>162.60000000000002</ele><time>2026-04-25T13:52:39Z</time></trkpt><trkpt lat="43.819661874527675" lon="12.687750418835117"><ele>162.39999999999998</ele><time>2026-04-25T13:52:41Z</time></trkpt><trkpt lat="43.819680989400645" lon="12.68787368261175"><ele>162.2</ele><time>2026-04-25T13:52:42Z</time></trkpt><trkpt lat="43.81972900813234" lon="12.687961012760839"><ele>162.0</ele><time>2026-04-25T13:52:43Z</time></trkpt><trkpt lat="43.81979456375129" lon="12.688057916204547"><ele>162.0</ele><time>2026-04-25T13:52:44Z</time></trkpt><trkpt lat="43.81986923592165" lon="12.688156048758774"><ele>162.0</ele><time>2026-04-25T13:52:45Z</time></trkpt><trkpt lat="43.81994236620776" lon="12.688269401406757"><ele>162.0</ele><time>2026-04-25T13:52:46Z</time></trkpt><trkpt lat="43.820022477234424" lon="12.688390668061832"><ele>162.0</ele><time>2026-04-25T13:52:47Z</time></trkpt><trkpt lat="43.8201051759298" lon="12.688518363113477"><ele>159.25</ele><time>2026-04-25T13:52:48Z</time></trkpt><trkpt lat="43.82018829059654" lon="12.688639831161012"><ele>156.5</ele><time>2026-04-25T13:52:49Z</time></trkpt><trkpt lat="43.82026757176011" lon="12.688756528162886"><ele>153.75</ele><time>2026-04-25T13:52:50Z</time></trkpt><trkpt lat="43.82035421393282" lon="12.688882874576947"><ele>151.0</ele><time>2026-04-25T13:52:51Z</time></trkpt><trkpt lat="43.820447976105285" lon="12.689011569191884"><ele>151.0</ele><time>2026-04-25T13:52:52Z</time></trkpt><trkpt lat="43.82054324580314" lon="12.689149082479378"><ele>151.0</ele><time>2026-04-25T13:52:53Z</time></trkpt><trkpt lat="43.82063322964548" lon="12.689280607364633"><ele>151.0</ele><time>2026-04-25T13:52:54Z</time></trkpt><trkpt lat="43.820708926352474" lon="12.689391661253927"><ele>151.0</ele><time>2026-04-25T13:52:55Z</time></trkpt><trkpt lat="43.820776567218516" lon="12.689484048426339"><ele>151.2857142857143</ele><time>2026-04-25T13:52:56Z</time></trkpt><trkpt lat="43.82083759531444" lon="12.689563082421902"><ele>151.57142857142858</ele><time>2026-04-25T13:52:57Z</time></trkpt><trkpt lat="43.8208997369136" lon="12.689623267830749"><ele>151.85714285714286</ele><time>2026-04-25T13:52:58Z</time></trkpt><trkpt lat="43.82096367656253" lon="12.689650609608671"><ele>152.14285714285717</ele><time>2026-04-25T13:52:59Z</time></trkpt><trkpt lat="43.82103094512776" lon="12.689641725418305"><ele>152.42857142857144</ele><time>2026-04-25T13:53:00Z</time></trkpt><trkpt lat="43.82109144190969" lon="12.689608240330381"><ele>152.71428571428572</ele><time>2026-04-25T13:53:01Z</time></trkpt><trkpt lat="43.82114341927943" lon="12.689547540064455"><ele>153.0</ele><time>2026-04-25T13:53:02Z</time></trkpt><trkpt lat="43.82120319507255" lon="12.689451689310479"><ele>151.25</ele><time>2026-04-25T13:53:03Z</time></trkpt><trkpt lat="43.821259041778816" lon="12.689308070223808"><ele>149.5</ele><time>2026-04-25T13:53:04Z</time></trkpt><trkpt lat="43.821319354667104" lon="12.689146093838335"><ele>147.75</ele><time>2026-04-25T13:53:05Z</time></trkpt><trkpt lat="43.821381405343075" lon="12.688984656823754"><ele>146.0</ele><time>2026-04-25T13:53:06Z</time></trkpt><trkpt lat="43.821445897389026" lon="12.688826016199224"><ele>146.0</ele><time>2026-04-25T13:53:07Z</time></trkpt><trkpt lat="43.82150852769705" lon="12.688664023745737"><ele>146.0</ele><time>2026-04-25T13:53:08Z</time></trkpt><trkpt lat="43.821571358695806" lon="12.688493183252513"><ele>146.0</ele><time>2026-04-25T13:53:09Z</time></trkpt><trkpt lat="43.8216286425558" lon="12.688330391685458"><ele>146.0</ele><time>2026-04-25T13:53:10Z</time></trkpt><trkpt lat="43.82168613576526" lon="12.688171360177787"><ele>145.25</ele><time>2026-04-25T13:53:11Z</time></trkpt><trkpt lat="43.821732593866294" lon="12.688004955050033"><ele>144.5</ele><time>2026-04-25T13:53:12Z</time></trkpt><trkpt lat="43.82178008956024" lon="12.687837180704879"><ele>143.75</ele><time>2026-04-25T13:53:13Z</time></trkpt><trkpt lat="43.821813810016444" lon="12.687666067566882"><ele>143.0</ele><time>2026-04-25T13:53:14Z</time></trkpt><trkpt lat="43.82184624345672" lon="12.68749398755585"><ele>143.0</ele><time>2026-04-25T13:53:15Z</time></trkpt><trkpt lat="43.8218717362991" lon="12.687319702092715"><ele>143.0</ele><time>2026-04-25T13:53:16Z</time></trkpt><trkpt lat="43.821908822217075" lon="12.687142199432486"><ele>143.0</ele><time>2026-04-25T13:53:17Z</time></trkpt><trkpt lat="43.821936516198996" lon="12.686978670716554"><ele>143.0</ele><time>2026-04-25T13:53:18Z</time></trkpt><trkpt lat="43.8219599411615" lon="12.686837499258377"><ele>140.0</ele><time>2026-04-25T13:53:19Z</time></trkpt><trkpt lat="43.821974869846876" lon="12.686724824893577"><ele>137.0</ele><time>2026-04-25T13:53:20Z</time></trkpt><trkpt lat="43.821979598918645" lon="12.686618103236299"><ele>134.0</ele><time>2026-04-25T13:53:21Z</time></trkpt><trkpt lat="43.82196951769796" lon="12.686498262753446"><ele>131.0</ele><time>2026-04-25T13:53:22Z</time></trkpt><trkpt lat="43.82194899283098" lon="12.686383156518277"><ele>127.99999999999999</ele><time>2026-04-25T13:53:23Z</time></trkpt><trkpt lat="43.82192763725865" lon="12.686275790960929"><ele>125.0</ele><time>2026-04-25T13:53:24Z</time></trkpt><trkpt lat="43.82191039119108" lon="12.686157648858758"><ele>121.4</ele><time>2026-04-25T13:53:25Z</time></trkpt><trkpt lat="43.821893417997025" lon="12.686026358522268"><ele>117.8</ele><time>2026-04-25T13:53:26Z</time></trkpt><trkpt lat="43.82187953021844" lon="12.685888872666231"><ele>114.19999999999999</ele><time>2026-04-25T13:53:27Z</time></trkpt><trkpt lat="43.82187699471197" lon="12.68574477161746"><ele>110.6</ele><time>2026-04-25T13:53:28Z</time></trkpt><trkpt lat="43.82189651890092" lon="12.685587316673123"><ele>107.0</ele><time>2026-04-25T13:53:29Z</time></trkpt><trkpt lat="43.82190257102808" lon="12.685426215044613"><ele>107.0</ele><time>2026-04-25T13:53:30Z</time></trkpt><trkpt lat="43.821909622888334" lon="12.685272393853895"><ele>107.0</ele><time>2026-04-25T13:53:31Z</time></trkpt><trkpt lat="43.82191119680191" lon="12.68512237235075"><ele>107.0</ele><time>2026-04-25T13:53:32Z</time></trkpt><trkpt lat="43.82194672269981" lon="12.68497213239382"><ele>107.0</ele><time>2026-04-25T13:53:33Z</time></trkpt><trkpt lat="43.82199042517647" lon="12.684816073873717"><ele>105.25</ele><time>2026-04-25T13:53:34Z</time></trkpt><trkpt lat="43.8220320057055" lon="12.684661034459557"><ele>103.5</ele><time>2026-04-25T13:53:35Z</time></trkpt><trkpt lat="43.822072547311706" lon="12.684506801899945"><ele>101.75</ele><time>2026-04-25T13:53:36Z</time></trkpt><trkpt lat="43.82211365325214" lon="12.684348704574523"><ele>100.0</ele><time>2026-04-25T13:53:37Z</time></trkpt><trkpt lat="43.822151761319496" lon="12.684182722778544"><ele>97.5</ele><time>2026-04-25T13:53:38Z</time></trkpt><trkpt lat="43.82219047994407" lon="12.68401103073418"><ele>95.0</ele><time>2026-04-25T13:53:39Z</time></trkpt><trkpt lat="43.82223141312163" lon="12.683834738906286"><ele>92.5</ele><time>2026-04-25T13:53:40Z</time></trkpt><trkpt lat="43.822270903768526" lon="12.683663694259836"><ele>90.0</ele><time>2026-04-25T13:53:41Z</time></trkpt><trkpt lat="43.82231059479615" lon="12.683498691994709"><ele>88.4</ele><time>2026-04-25T13:53:42Z</time></trkpt><trkpt lat="43.822355991122706" lon="12.683351778555522"><ele>86.8</ele><time>2026-04-25T13:53:43Z</time></trkpt><trkpt lat="43.82239257086318" lon="12.683209775981702"><ele>85.19999999999999</ele><time>2026-04-25T13:53:44Z</time></trkpt><trkpt lat="43.822428605753366" lon="12.683079971579247"><ele>83.6</ele><time>2026-04-25T13:53:45Z</time></trkpt><trkpt lat="43.82246363680252" lon="12.682959204766076"><ele>82.0</ele><time>2026-04-25T13:53:46Z</time></trkpt><trkpt lat="43.82250170609459" lon="12.682845500203829"><ele>81.57142857142857</ele><time>2026-04-25T13:53:47Z</time></trkpt><trkpt lat="43.82253549382879" lon="12.682746190423469"><ele>81.14285714285714</ele><time>2026-04-25T13:53:48Z</time></trkpt><trkpt lat="43.82256449720129" lon="12.682664633849608"><ele>80.71428571428572</ele><time>2026-04-25T13:53:49Z</time></trkpt><trkpt lat="43.8225999113827" lon="12.682586407841173"><ele>80.28571428571428</ele><time>2026-04-25T13:53:51Z</time></trkpt><trkpt lat="43.822681940905326" lon="12.68260661151641"><ele>79.85714285714286</ele><time>2026-04-25T13:53:54Z</time></trkpt><trkpt lat="43.82274023534425" lon="12.682646197989545"><ele>79.42857142857143</ele><time>2026-04-25T13:53:55Z</time></trkpt><trkpt lat="43.82280682757085" lon="12.682694403221985"><ele>79.0</ele><time>2026-04-25T13:53:56Z</time></trkpt><trkpt lat="43.8228678616755" lon="12.682767172926264"><ele>77.60000000000001</ele><time>2026-04-25T13:53:57Z</time></trkpt><trkpt lat="43.822919947630275" lon="12.68286186412182"><ele>76.2</ele><time>2026-04-25T13:53:58Z</time></trkpt><trkpt lat="43.822969511156565" lon="12.682975990194922"><ele>74.80000000000001</ele><time>2026-04-25T13:53:59Z</time></trkpt><trkpt lat="43.82302165288045" lon="12.683108274172316"><ele>73.4</ele><time>2026-04-25T13:54:00Z</time></trkpt><trkpt lat="43.823076801587305" lon="12.683249485638564"><ele>72.0</ele><time>2026-04-25T13:54:01Z</time></trkpt><trkpt lat="43.823134152096664" lon="12.683398935782723"><ele>72.0</ele><time>2026-04-25T13:54:02Z</time></trkpt><trkpt lat="43.823183053257466" lon="12.68356371293124"><ele>72.0</ele><time>2026-04-25T13:54:03Z</time></trkpt><trkpt lat="43.823251325393684" lon="12.68368974151359"><ele>72.0</ele><time>2026-04-25T13:54:04Z</time></trkpt><trkpt lat="43.82331038898453" lon="12.683815503644952"><ele>72.0</ele><time>2026-04-25T13:54:05Z</time></trkpt><trkpt lat="43.82336743198803" lon="12.68392622147422"><ele>72.0</ele><time>2026-04-25T13:54:06Z</time></trkpt><trkpt lat="43.8234263110154" lon="12.684025546096908"><ele>71.83333333333333</ele><time>2026-04-25T13:54:07Z</time></trkpt><trkpt lat="43.82347808552066" lon="12.684116525572"><ele>71.66666666666667</ele><time>2026-04-25T13:54:08Z</time></trkpt><trkpt lat="43.82352050393658" lon="12.684196460573338"><ele>71.5</ele><time>2026-04-25T13:54:09Z</time></trkpt><trkpt lat="43.823605715536566" lon="12.684275221702263"><ele>71.33333333333334</ele><time>2026-04-25T13:54:11Z</time></trkpt><trkpt lat="43.82369183231579" lon="12.68422471809228"><ele>71.16666666666667</ele><time>2026-04-25T13:54:13Z</time></trkpt><trkpt lat="43.82376096324721" lon="12.68414533641669"><ele>71.0</ele><time>2026-04-25T13:54:14Z</time></trkpt><trkpt lat="43.82383315317775" lon="12.684060303807081"><ele>71.0</ele><time>2026-04-25T13:54:15Z</time></trkpt><trkpt lat="43.8239252001788" lon="12.683980833262625"><ele>71.0</ele><time>2026-04-25T13:54:16Z</time></trkpt><trkpt lat="43.82401891868736" lon="12.683887678318555"><ele>71.0</ele><time>2026-04-25T13:54:17Z</time></trkpt><trkpt lat="43.82411530304382" lon="12.683792963801476"><ele>71.0</ele><time>2026-04-25T13:54:18Z</time></trkpt><trkpt lat="43.82419654437439" lon="12.683715321880126"><ele>71.0</ele><time>2026-04-25T13:54:19Z</time></trkpt><trkpt lat="43.82426551787304" lon="12.683642637574213"><ele>71.6</ele><time>2026-04-25T13:54:20Z</time></trkpt><trkpt lat="43.824323180796995" lon="12.683573667825419"><ele>72.19999999999999</ele><time>2026-04-25T13:54:21Z</time></trkpt><trkpt lat="43.82436650199958" lon="12.683501128641574"><ele>72.80000000000001</ele><time>2026-04-25T13:54:22Z</time></trkpt><trkpt lat="43.82435936593359" lon="12.683301687872996"><ele>73.4</ele><time>2026-04-25T13:54:24Z</time></trkpt><trkpt lat="43.82429699397295" lon="12.683186272609342"><ele>74.0</ele><time>2026-04-25T13:54:25Z</time></trkpt><trkpt lat="43.824243024343794" lon="12.683064201916071"><ele>74.0</ele><time>2026-04-25T13:54:26Z</time></trkpt><trkpt lat="43.824187268961644" lon="12.68292886002237"><ele>74.0</ele><time>2026-04-25T13:54:27Z</time></trkpt><trkpt lat="43.82413319818799" lon="12.682788402659144"><ele>74.0</ele><time>2026-04-25T13:54:28Z</time></trkpt><trkpt lat="43.824078513737525" lon="12.682645656668022"><ele>74.0</ele><time>2026-04-25T13:54:29Z</time></trkpt><trkpt lat="43.824022016018844" lon="12.682499995745378"><ele>75.0</ele><time>2026-04-25T13:54:30Z</time></trkpt><trkpt lat="43.823972297421555" lon="12.6823706120318"><ele>76.0</ele><time>2026-04-25T13:54:31Z</time></trkpt><trkpt lat="43.823931187098346" lon="12.682247648763319"><ele>77.0</ele><time>2026-04-25T13:54:32Z</time></trkpt><trkpt lat="43.82389320344605" lon="12.682126965634769"><ele>78.0</ele><time>2026-04-25T13:54:33Z</time></trkpt><trkpt lat="43.82386259582069" lon="12.682007971623747"><ele>79.0</ele><time>2026-04-25T13:54:34Z</time></trkpt><trkpt lat="43.823838580955496" lon="12.681883655986145"><ele>79.83333333333333</ele><time>2026-04-25T13:54:35Z</time></trkpt><trkpt lat="43.82383490368614" lon="12.681768426075738"><ele>80.66666666666666</ele><time>2026-04-25T13:54:36Z</time></trkpt><trkpt lat="43.82385134769934" lon="12.681662310542142"><ele>81.5</ele><time>2026-04-25T13:54:37Z</time></trkpt><trkpt lat="43.82391765454616" lon="12.681611416688611"><ele>82.33333333333333</ele><time>2026-04-25T13:54:38Z</time></trkpt><trkpt lat="43.82397256965346" lon="12.68152408650927"><ele>83.16666666666667</ele><time>2026-04-25T13:54:39Z</time></trkpt><trkpt lat="43.824052624370005" lon="12.681492125976138"><ele>84.0</ele><time>2026-04-25T13:54:40Z</time></trkpt><trkpt lat="43.824139881794274" lon="12.681449451047122"><ele>84.0</ele><time>2026-04-25T13:54:41Z</time></trkpt><trkpt lat="43.82423112753502" lon="12.68140631481756"><ele>84.0</ele><time>2026-04-25T13:54:42Z</time></trkpt><trkpt lat="43.82431979225995" lon="12.681349578128192"><ele>84.0</ele><time>2026-04-25T13:54:43Z</time></trkpt><trkpt lat="43.824416760415524" lon="12.681303332978917"><ele>84.0</ele><time>2026-04-25T13:54:44Z</time></trkpt><trkpt lat="43.82451677898896" lon="12.681251594191455"><ele>84.0</ele><time>2026-04-25T13:54:45Z</time></trkpt><trkpt lat="43.82462063792969" lon="12.681197317880455"><ele>84.75</ele><time>2026-04-25T13:54:46Z</time></trkpt><trkpt lat="43.82472969637358" lon="12.681143207619389"><ele>85.5</ele><time>2026-04-25T13:54:47Z</time></trkpt><trkpt lat="43.824844697419316" lon="12.681088450687815"><ele>86.25</ele><time>2026-04-25T13:54:48Z</time></trkpt><trkpt lat="43.824958428277746" lon="12.681032668910763"><ele>87.0</ele><time>2026-04-25T13:54:49Z</time></trkpt><trkpt lat="43.82503837608355" lon="12.68095539510129"><ele>87.0</ele><time>2026-04-25T13:54:50Z</time></trkpt><trkpt lat="43.825144280003194" lon="12.68094407947989"><ele>87.0</ele><time>2026-04-25T13:54:51Z</time></trkpt><trkpt lat="43.82524229747103" lon="12.680896805519518"><ele>87.0</ele><time>2026-04-25T13:54:52Z</time></trkpt><trkpt lat="43.82535200360852" lon="12.680843564887107"><ele>87.0</ele><time>2026-04-25T13:54:53Z</time></trkpt><trkpt lat="43.82547264387949" lon="12.680779749268897"><ele>87.0</ele><time>2026-04-25T13:54:54Z</time></trkpt><trkpt lat="43.82560533949708" lon="12.680714235482034"><ele>87.0</ele><time>2026-04-25T13:54:55Z</time></trkpt><trkpt lat="43.8257457224712" lon="12.680645692849854"><ele>87.0</ele><time>2026-04-25T13:54:56Z</time></trkpt><trkpt lat="43.82589474520002" lon="12.680573652467926"><ele>87.0</ele><time>2026-04-25T13:54:57Z</time></trkpt><trkpt lat="43.82603353348131" lon="12.680508917926442"><ele>87.0</ele><time>2026-04-25T13:54:58Z</time></trkpt><trkpt lat="43.82616492700502" lon="12.680450501575786"><ele>87.0</ele><time>2026-04-25T13:54:59Z</time></trkpt><trkpt lat="43.82629415730811" lon="12.68039962060573"><ele>87.0</ele><time>2026-04-25T13:55:00Z</time></trkpt><trkpt lat="43.82642443896075" lon="12.680359031051175"><ele>87.0</ele><time>2026-04-25T13:55:01Z</time></trkpt><trkpt lat="43.82656093375103" lon="12.680327733476453"><ele>87.0</ele><time>2026-04-25T13:55:02Z</time></trkpt><trkpt lat="43.82670299104291" lon="12.680309629397236"><ele>87.0</ele><time>2026-04-25T13:55:03Z</time></trkpt><trkpt lat="43.82683012841701" lon="12.680307009582268"><ele>87.0</ele><time>2026-04-25T13:55:04Z</time></trkpt><trkpt lat="43.82696117076466" lon="12.680320144437523"><ele>87.0</ele><time>2026-04-25T13:55:05Z</time></trkpt><trkpt lat="43.827102161406" lon="12.680355286352304"><ele>84.75</ele><time>2026-04-25T13:55:06Z</time></trkpt><trkpt lat="43.82724106463491" lon="12.680411145300813"><ele>82.5</ele><time>2026-04-25T13:55:07Z</time></trkpt><trkpt lat="43.82737793622062" lon="12.680490160072619"><ele>80.25</ele><time>2026-04-25T13:55:08Z</time></trkpt><trkpt lat="43.82750115458684" lon="12.680606006168277"><ele>78.0</ele><time>2026-04-25T13:55:09Z</time></trkpt><trkpt lat="43.82762712466275" lon="12.680715158247965"><ele>78.0</ele><time>2026-04-25T13:55:10Z</time></trkpt><trkpt lat="43.82776000354922" lon="12.680804132020262"><ele>78.0</ele><time>2026-04-25T13:55:11Z</time></trkpt><trkpt lat="43.82787881839562" lon="12.680912219635749"><ele>78.0</ele><time>2026-04-25T13:55:12Z</time></trkpt><trkpt lat="43.82799608469288" lon="12.681019838821156"><ele>78.0</ele><time>2026-04-25T13:55:13Z</time></trkpt><trkpt lat="43.82811831542387" lon="12.681130263795293"><ele>78.0</ele><time>2026-04-25T13:55:14Z</time></trkpt><trkpt lat="43.82823016465001" lon="12.681233135026373"><ele>78.0</ele><time>2026-04-25T13:55:15Z</time></trkpt><trkpt lat="43.82833240003411" lon="12.681324739535393"><ele>78.0</ele><time>2026-04-25T13:55:16Z</time></trkpt><trkpt lat="43.82841667144778" lon="12.681402586345252"><ele>78.0</ele><time>2026-04-25T13:55:17Z</time></trkpt><trkpt lat="43.82847279116589" lon="12.68145229162622"><ele>78.0</ele><time>2026-04-25T13:55:18Z</time></trkpt><trkpt lat="43.82862108935936" lon="12.681316601957011"><ele>79.2</ele><time>2026-04-25T13:55:27Z</time></trkpt><trkpt lat="43.8287042776812" lon="12.68122440201244"><ele>80.4</ele><time>2026-04-25T13:55:28Z</time></trkpt><trkpt lat="43.82878068371221" lon="12.681134501161333"><ele>81.60000000000001</ele><time>2026-04-25T13:55:29Z</time></trkpt><trkpt lat="43.82883595722318" lon="12.681022911992837"><ele>82.8</ele><time>2026-04-25T13:55:30Z</time></trkpt><trkpt lat="43.828867129024424" lon="12.68088863470549"><ele>84.0</ele><time>2026-04-25T13:55:31Z</time></trkpt><trkpt lat="43.82886031384151" lon="12.680749644738045"><ele>84.4</ele><time>2026-04-25T13:55:32Z</time></trkpt><trkpt lat="43.82880176960757" lon="12.680630797211773"><ele>84.80000000000001</ele><time>2026-04-25T13:55:33Z</time></trkpt><trkpt lat="43.82877654493815" lon="12.680515322999062"><ele>85.19999999999999</ele><time>2026-04-25T13:55:34Z</time></trkpt><trkpt lat="43.82878718418582" lon="12.680350630656536"><ele>85.6</ele><time>2026-04-25T13:55:36Z</time></trkpt><trkpt lat="43.82886849130196" lon="12.680319462540838"><ele>86.0</ele><time>2026-04-25T13:55:37Z</time></trkpt><trkpt lat="43.828959573245974" lon="12.680281277098901"><ele>86.0</ele><time>2026-04-25T13:55:38Z</time></trkpt><trkpt lat="43.82906839713208" lon="12.680222861185833"><ele>86.0</ele><time>2026-04-25T13:55:39Z</time></trkpt><trkpt lat="43.82918756798599" lon="12.680162006195202"><ele>86.0</ele><time>2026-04-25T13:55:40Z</time></trkpt><trkpt lat="43.82931338606841" lon="12.680101734795663"><ele>86.0</ele><time>2026-04-25T13:55:41Z</time></trkpt><trkpt lat="43.82943906246028" lon="12.680033042291061"><ele>85.8</ele><time>2026-04-25T13:55:42Z</time></trkpt><trkpt lat="43.82953852489518" lon="12.67996901274981"><ele>85.6</ele><time>2026-04-25T13:55:43Z</time></trkpt><trkpt lat="43.82961782286958" lon="12.679893622912163"><ele>85.4</ele><time>2026-04-25T13:55:44Z</time></trkpt><trkpt lat="43.82966330633982" lon="12.679763972961117"><ele>85.2</ele><time>2026-04-25T13:55:45Z</time></trkpt><trkpt lat="43.82967368356412" lon="12.67961669411963"><ele>85.0</ele><time>2026-04-25T13:55:46Z</time></trkpt><trkpt lat="43.82967686346266" lon="12.679467863069378"><ele>85.6</ele><time>2026-04-25T13:55:47Z</time></trkpt><trkpt lat="43.82968167874373" lon="12.679315365355592"><ele>86.2</ele><time>2026-04-25T13:55:48Z</time></trkpt><trkpt lat="43.82971357811515" lon="12.679171513425132"><ele>86.80000000000001</ele><time>2026-04-25T13:55:49Z</time></trkpt><trkpt lat="43.82975820749539" lon="12.679058439417306"><ele>87.4</ele><time>2026-04-25T13:55:50Z</time></trkpt><trkpt lat="43.82982472042055" lon="12.678948791094147"><ele>88.0</ele><time>2026-04-25T13:55:51Z</time></trkpt><trkpt lat="43.82989410142917" lon="12.678831715606572"><ele>88.0</ele><time>2026-04-25T13:55:52Z</time></trkpt><trkpt lat="43.82995863181821" lon="12.67872802840241"><ele>88.0</ele><time>2026-04-25T13:55:53Z</time></trkpt><trkpt lat="43.8300083872764" lon="12.678646759721113"><ele>88.0</ele><time>2026-04-25T13:55:54Z</time></trkpt><trkpt lat="43.830078295624034" lon="12.678532574084397"><ele>88.0</ele><time>2026-04-25T13:55:56Z</time></trkpt><trkpt lat="43.83012393586107" lon="12.678467646885144"><ele>88.0</ele><time>2026-04-25T13:55:58Z</time></trkpt><trkpt lat="43.83021439673712" lon="12.678512808131591"><ele>88.0</ele><time>2026-04-25T13:56:00Z</time></trkpt><trkpt lat="43.83027990935813" lon="12.678520532745818"><ele>90.66666666666666</ele><time>2026-04-25T13:56:01Z</time></trkpt><trkpt lat="43.83034599257167" lon="12.678543957302637"><ele>93.33333333333333</ele><time>2026-04-25T13:56:02Z</time></trkpt><trkpt lat="43.83042881977303" lon="12.678551049563815"><ele>96.0</ele><time>2026-04-25T13:56:03Z</time></trkpt><trkpt lat="43.830505236777924" lon="12.6785855870229"><ele>98.66666666666666</ele><time>2026-04-25T13:56:04Z</time></trkpt><trkpt lat="43.83057896744747" lon="12.678600606367231"><ele>101.33333333333333</ele><time>2026-04-25T13:56:05Z</time></trkpt><trkpt lat="43.830650053034574" lon="12.678591191042877"><ele>104.0</ele><time>2026-04-25T13:56:06Z</time></trkpt><trkpt lat="43.83073907016569" lon="12.678563219526273"><ele>103.99999999999999</ele><time>2026-04-25T13:56:07Z</time></trkpt><trkpt lat="43.83082931441389" lon="12.678531330412774"><ele>104.0</ele><time>2026-04-25T13:56:08Z</time></trkpt><trkpt lat="43.83090484345358" lon="12.678500412458122"><ele>104.0</ele><time>2026-04-25T13:56:09Z</time></trkpt><trkpt lat="43.83097078071879" lon="12.678470486670603"><ele>104.0</ele><time>2026-04-25T13:56:10Z</time></trkpt><trkpt lat="43.831038279623584" lon="12.678452566438084"><ele>103.99999999999999</ele><time>2026-04-25T13:56:11Z</time></trkpt><trkpt lat="43.831104107473244" lon="12.678440003093343"><ele>104.0</ele><time>2026-04-25T13:56:12Z</time></trkpt><trkpt lat="43.8311815150711" lon="12.67842921975033"><ele>106.66666666666666</ele><time>2026-04-25T13:56:13Z</time></trkpt><trkpt lat="43.831261879346854" lon="12.678431412031843"><ele>109.33333333333333</ele><time>2026-04-25T13:56:14Z</time></trkpt><trkpt lat="43.83133842390273" lon="12.678428250708041"><ele>112.0</ele><time>2026-04-25T13:56:15Z</time></trkpt><trkpt lat="43.831417314015795" lon="12.678436364591052"><ele>114.66666666666666</ele><time>2026-04-25T13:56:16Z</time></trkpt><trkpt lat="43.83151283031368" lon="12.67845880287531"><ele>117.33333333333333</ele><time>2026-04-25T13:56:17Z</time></trkpt><trkpt lat="43.83159653472866" lon="12.678493427495665"><ele>120.0</ele><time>2026-04-25T13:56:18Z</time></trkpt><trkpt lat="43.831692536383436" lon="12.678523662641522"><ele>120.0</ele><time>2026-04-25T13:56:19Z</time></trkpt><trkpt lat="43.83177742312125" lon="12.678550618634127"><ele>120.0</ele><time>2026-04-25T13:56:20Z</time></trkpt><trkpt lat="43.83185406703809" lon="12.678585784799095"><ele>120.0</ele><time>2026-04-25T13:56:21Z</time></trkpt><trkpt lat="43.83190772792686" lon="12.678661245966701"><ele>120.0</ele><time>2026-04-25T13:56:22Z</time></trkpt><trkpt lat="43.83197411427131" lon="12.678712312594808"><ele>120.0</ele><time>2026-04-25T13:56:23Z</time></trkpt><trkpt lat="43.832030131386375" lon="12.678755402657407"><ele>120.0</ele><time>2026-04-25T13:56:24Z</time></trkpt><trkpt lat="43.832089097626586" lon="12.678803188508645"><ele>120.16666666666667</ele><time>2026-04-25T13:56:25Z</time></trkpt><trkpt lat="43.832145310313784" lon="12.678858422043486"><ele>120.33333333333334</ele><time>2026-04-25T13:56:26Z</time></trkpt><trkpt lat="43.83220397500278" lon="12.678919604926504"><ele>120.5</ele><time>2026-04-25T13:56:27Z</time></trkpt><trkpt lat="43.83226561855044" lon="12.678987528780874"><ele>120.66666666666667</ele><time>2026-04-25T13:56:28Z</time></trkpt><trkpt lat="43.832337479722874" lon="12.679053337217018"><ele>120.83333333333334</ele><time>2026-04-25T13:56:29Z</time></trkpt><trkpt lat="43.8324161599693" lon="12.679098376114247"><ele>121.0</ele><time>2026-04-25T13:56:30Z</time></trkpt><trkpt lat="43.83249442333575" lon="12.679123263347588"><ele>121.0</ele><time>2026-04-25T13:56:31Z</time></trkpt><trkpt lat="43.832585160743434" lon="12.679116868546295"><ele>121.0</ele><time>2026-04-25T13:56:32Z</time></trkpt><trkpt lat="43.8326838501476" lon="12.679126976404358"><ele>121.0</ele><time>2026-04-25T13:56:33Z</time></trkpt><trkpt lat="43.83278808363145" lon="12.679109053383034"><ele>121.0</ele><time>2026-04-25T13:56:34Z</time></trkpt><trkpt lat="43.83289562622488" lon="12.679078099717152"><ele>121.0</ele><time>2026-04-25T13:56:35Z</time></trkpt><trkpt lat="43.8329812217958" lon="12.679047644702482"><ele>121.66666666666667</ele><time>2026-04-25T13:56:36Z</time></trkpt><trkpt lat="43.83304575676203" lon="12.67899833647922"><ele>122.33333333333334</ele><time>2026-04-25T13:56:37Z</time></trkpt><trkpt lat="43.83309308341039" lon="12.678922271764089"><ele>123.0</ele><time>2026-04-25T13:56:38Z</time></trkpt><trkpt lat="43.83310745095685" lon="12.678752890225404"><ele>123.66666666666666</ele><time>2026-04-25T13:56:40Z</time></trkpt><trkpt lat="43.83306840909089" lon="12.678680050278848"><ele>124.33333333333333</ele><time>2026-04-25T13:56:41Z</time></trkpt><trkpt lat="43.833019124990166" lon="12.678615198936068"><ele>125.0</ele><time>2026-04-25T13:56:42Z</time></trkpt><trkpt lat="43.83295010337901" lon="12.678584150870064"><ele>128.5</ele><time>2026-04-25T13:56:43Z</time></trkpt><trkpt lat="43.83287786192414" lon="12.678575033439818"><ele>132.0</ele><time>2026-04-25T13:56:44Z</time></trkpt><trkpt lat="43.83278610208006" lon="12.678562863464293"><ele>135.5</ele><time>2026-04-25T13:56:45Z</time></trkpt><trkpt lat="43.83269594819115" lon="12.678529423425221"><ele>139.0</ele><time>2026-04-25T13:56:46Z</time></trkpt><trkpt lat="43.83260397086017" lon="12.678491394409003"><ele>142.5</ele><time>2026-04-25T13:56:47Z</time></trkpt><trkpt lat="43.832536926494065" lon="12.678445291130938"><ele>146.0</ele><time>2026-04-25T13:56:48Z</time></trkpt><trkpt lat="43.83247948799574" lon="12.678326156028367"><ele>146.0</ele><time>2026-04-25T13:56:50Z</time></trkpt><trkpt lat="43.83243368437573" lon="12.678183025022133"><ele>146.0</ele><time>2026-04-25T13:56:52Z</time></trkpt><trkpt lat="43.832440217306925" lon="12.678069403706493"><ele>146.0</ele><time>2026-04-25T13:56:54Z</time></trkpt><trkpt lat="43.832520571199545" lon="12.677991930492418"><ele>146.0</ele><time>2026-04-25T13:56:56Z</time></trkpt><trkpt lat="43.832567252686104" lon="12.677926387753779"><ele>146.0</ele><time>2026-04-25T13:56:57Z</time></trkpt><trkpt lat="43.83262453274075" lon="12.677857656261592"><ele>146.0</ele><time>2026-04-25T13:56:58Z</time></trkpt><trkpt lat="43.83266725567297" lon="12.677761622991593"><ele>149.28571428571428</ele><time>2026-04-25T13:56:59Z</time></trkpt><trkpt lat="43.83268010770343" lon="12.67765892269812"><ele>152.57142857142858</ele><time>2026-04-25T13:57:00Z</time></trkpt><trkpt lat="43.83269026652821" lon="12.677547998049983"><ele>155.85714285714286</ele><time>2026-04-25T13:57:01Z</time></trkpt><trkpt lat="43.83270172971959" lon="12.677449219937772"><ele>159.14285714285714</ele><time>2026-04-25T13:57:02Z</time></trkpt><trkpt lat="43.83271500253563" lon="12.677350260537558"><ele>162.42857142857142</ele><time>2026-04-25T13:57:03Z</time></trkpt><trkpt lat="43.83272865898379" lon="12.677259255822712"><ele>165.71428571428572</ele><time>2026-04-25T13:57:04Z</time></trkpt><trkpt lat="43.832738028066956" lon="12.677166330523601"><ele>169.0</ele><time>2026-04-25T13:57:05Z</time></trkpt><trkpt lat="43.83275159569259" lon="12.677072654878256"><ele>170.39999999999998</ele><time>2026-04-25T13:57:06Z</time></trkpt><trkpt lat="43.832784782910394" lon="12.676910741758615"><ele>171.8</ele><time>2026-04-25T13:57:08Z</time></trkpt><trkpt lat="43.83281538876633" lon="12.676784263471484"><ele>173.2</ele><time>2026-04-25T13:57:10Z</time></trkpt><trkpt lat="43.83287525072629" lon="12.676656139720784"><ele>174.60000000000002</ele><time>2026-04-25T13:57:12Z</time></trkpt><trkpt lat="43.83290819448092" lon="12.676570698585696"><ele>176.0</ele><time>2026-04-25T13:57:13Z</time></trkpt><trkpt lat="43.83295032309169" lon="12.676412963006227"><ele>176.0</ele><time>2026-04-25T13:57:15Z</time></trkpt><trkpt lat="43.83294823429701" lon="12.676323485013183"><ele>176.0</ele><time>2026-04-25T13:57:16Z</time></trkpt><trkpt lat="43.83294203705954" lon="12.676214597871459"><ele>176.0</ele><time>2026-04-25T13:57:17Z</time></trkpt><trkpt lat="43.832941935610066" lon="12.6760920082345"><ele>176.0</ele><time>2026-04-25T13:57:18Z</time></trkpt><trkpt lat="43.83294827362546" lon="12.675989417645122"><ele>176.0</ele><time>2026-04-25T13:57:19Z</time></trkpt><trkpt lat="43.83301075638571" lon="12.675847532719878"><ele>176.0</ele><time>2026-04-25T13:57:21Z</time></trkpt><trkpt lat="43.833036853599175" lon="12.67575398577544"><ele>177.8</ele><time>2026-04-25T13:57:22Z</time></trkpt><trkpt lat="43.83308339308154" lon="12.675681166288404"><ele>179.60000000000002</ele><time>2026-04-25T13:57:23Z</time></trkpt><trkpt lat="43.83313355994851" lon="12.675599829005487"><ele>181.4</ele><time>2026-04-25T13:57:24Z</time></trkpt><trkpt lat="43.833183160475336" lon="12.675543161728891"><ele>183.2</ele><time>2026-04-25T13:57:25Z</time></trkpt><trkpt lat="43.833268054789194" lon="12.67543655445769"><ele>185.0</ele><time>2026-04-25T13:57:27Z</time></trkpt><trkpt lat="43.833357092308006" lon="12.675293257746173"><ele>186.2</ele><time>2026-04-25T13:57:29Z</time></trkpt><trkpt lat="43.83339649583623" lon="12.675199426502665"><ele>187.4</ele><time>2026-04-25T13:57:30Z</time></trkpt><trkpt lat="43.833430986794646" lon="12.675088838571513"><ele>188.60000000000002</ele><time>2026-04-25T13:57:31Z</time></trkpt><trkpt lat="43.83346600539269" lon="12.674964176462085"><ele>189.8</ele><time>2026-04-25T13:57:32Z</time></trkpt><trkpt lat="43.83350841237066" lon="12.674830580382785"><ele>191.0</ele><time>2026-04-25T13:57:33Z</time></trkpt><trkpt lat="43.83354793063946" lon="12.674691666446947"><ele>189.66666666666666</ele><time>2026-04-25T13:57:34Z</time></trkpt><trkpt lat="43.83358289142921" lon="12.67455071954384"><ele>188.33333333333331</ele><time>2026-04-25T13:57:35Z</time></trkpt><trkpt lat="43.83361587033878" lon="12.674420950212085"><ele>187.0</ele><time>2026-04-25T13:57:36Z</time></trkpt><trkpt lat="43.83364134647987" lon="12.674302273540771"><ele>185.66666666666666</ele><time>2026-04-25T13:57:37Z</time></trkpt><trkpt lat="43.83366102585165" lon="12.674197368934419"><ele>184.33333333333334</ele><time>2026-04-25T13:57:38Z</time></trkpt><trkpt lat="43.83366036055641" lon="12.67410036554492"><ele>183.0</ele><time>2026-04-25T13:57:39Z</time></trkpt><trkpt lat="43.833637308453305" lon="12.674008088265575"><ele>183.0</ele><time>2026-04-25T13:57:40Z</time></trkpt><trkpt lat="43.833594869871376" lon="12.673907156508715"><ele>183.0</ele><time>2026-04-25T13:57:41Z</time></trkpt><trkpt lat="43.83353340901358" lon="12.673798599632038"><ele>183.0</ele><time>2026-04-25T13:57:42Z</time></trkpt><trkpt lat="43.83346709361838" lon="12.67367564257385"><ele>183.0</ele><time>2026-04-25T13:57:43Z</time></trkpt><trkpt lat="43.83340021286008" lon="12.67355158246215"><ele>183.0</ele><time>2026-04-25T13:57:44Z</time></trkpt><trkpt lat="43.83333664530756" lon="12.673420718184357"><ele>189.75</ele><time>2026-04-25T13:57:45Z</time></trkpt><trkpt lat="43.83327071935207" lon="12.673308412527177"><ele>196.5</ele><time>2026-04-25T13:57:46Z</time></trkpt><trkpt lat="43.83321254522192" lon="12.673168975670688"><ele>203.25</ele><time>2026-04-25T13:57:47Z</time></trkpt><trkpt lat="43.833141749827256" lon="12.673046119462475"><ele>210.0</ele><time>2026-04-25T13:57:48Z</time></trkpt><trkpt lat="43.83305976632173" lon="12.672931839203711"><ele>210.0</ele><time>2026-04-25T13:57:49Z</time></trkpt><trkpt lat="43.83297901286287" lon="12.672851509979585"><ele>210.0</ele><time>2026-04-25T13:57:50Z</time></trkpt><trkpt lat="43.832911697390216" lon="12.672767017291967"><ele>210.0</ele><time>2026-04-25T13:57:51Z</time></trkpt><trkpt lat="43.832864265164105" lon="12.672681614062785"><ele>210.0</ele><time>2026-04-25T13:57:52Z</time></trkpt><trkpt lat="43.832825350429395" lon="12.672587421858989"><ele>210.0</ele><time>2026-04-25T13:57:53Z</time></trkpt><trkpt lat="43.832791061947454" lon="12.672484323268273"><ele>210.0</ele><time>2026-04-25T13:57:54Z</time></trkpt><trkpt lat="43.83274699957028" lon="12.672382039098608"><ele>211.0</ele><time>2026-04-25T13:57:55Z</time></trkpt><trkpt lat="43.8326922121029" lon="12.672265824298448"><ele>212.0</ele><time>2026-04-25T13:57:56Z</time></trkpt><trkpt lat="43.83261528915931" lon="12.672171045920196"><ele>213.0</ele><time>2026-04-25T13:57:57Z</time></trkpt><trkpt lat="43.83256653162014" lon="12.672068782695632"><ele>214.0</ele><time>2026-04-25T13:57:58Z</time></trkpt><trkpt lat="43.83253491861689" lon="12.671981180585215"><ele>215.0</ele><time>2026-04-25T13:57:59Z</time></trkpt><trkpt lat="43.83255492933676" lon="12.671895561157754"><ele>216.0</ele><time>2026-04-25T13:58:00Z</time></trkpt><trkpt lat="43.83258800619919" lon="12.671734390701715"><ele>216.60000000000002</ele><time>2026-04-25T13:58:02Z</time></trkpt><trkpt lat="43.83262368790336" lon="12.671641393415575"><ele>217.20000000000002</ele><time>2026-04-25T13:58:03Z</time></trkpt><trkpt lat="43.832666472735816" lon="12.671520632940508"><ele>217.79999999999998</ele><time>2026-04-25T13:58:04Z</time></trkpt><trkpt lat="43.83271487900615" lon="12.67138265470001"><ele>218.39999999999998</ele><time>2026-04-25T13:58:05Z</time></trkpt><trkpt lat="43.83275138923986" lon="12.671230449902389"><ele>219.0</ele><time>2026-04-25T13:58:06Z</time></trkpt><trkpt lat="43.83280091579162" lon="12.67110144106082"><ele>221.2</ele><time>2026-04-25T13:58:07Z</time></trkpt><trkpt lat="43.83284168101056" lon="12.670987755885347"><ele>223.39999999999998</ele><time>2026-04-25T13:58:08Z</time></trkpt><trkpt lat="43.832891779809415" lon="12.670883547657"><ele>225.6</ele><time>2026-04-25T13:58:09Z</time></trkpt><trkpt lat="43.83297148839275" lon="12.670796408316727"><ele>227.8</ele><time>2026-04-25T13:58:10Z</time></trkpt><trkpt lat="43.833052853076374" lon="12.670714330462308"><ele>230.0</ele><time>2026-04-25T13:58:11Z</time></trkpt><trkpt lat="43.83312256877746" lon="12.670633283938622"><ele>230.00000000000003</ele><time>2026-04-25T13:58:12Z</time></trkpt><trkpt lat="43.833178801567065" lon="12.67056243655028"><ele>230.0</ele><time>2026-04-25T13:58:13Z</time></trkpt><trkpt lat="43.83322729306684" lon="12.670469322079853"><ele>230.0</ele><time>2026-04-25T13:58:14Z</time></trkpt><trkpt lat="43.83329039307966" lon="12.670387574498875"><ele>230.0</ele><time>2026-04-25T13:58:15Z</time></trkpt><trkpt lat="43.83335368365463" lon="12.67030692113265"><ele>230.00000000000003</ele><time>2026-04-25T13:58:16Z</time></trkpt><trkpt lat="43.8334099214832" lon="12.670231134873546"><ele>230.0</ele><time>2026-04-25T13:58:17Z</time></trkpt><trkpt lat="43.83346847505398" lon="12.670191153221067"><ele>230.57142857142856</ele><time>2026-04-25T13:58:18Z</time></trkpt><trkpt lat="43.833492745695864" lon="12.670073630861939"><ele>231.14285714285714</ele><time>2026-04-25T13:58:20Z</time></trkpt><trkpt lat="43.83350218316418" lon="12.669974570519631"><ele>231.71428571428572</ele><time>2026-04-25T13:58:23Z</time></trkpt><trkpt lat="43.83356305834293" lon="12.670016666268445"><ele>232.28571428571428</ele><time>2026-04-25T13:59:32Z</time></trkpt><trkpt lat="43.83362752483253" lon="12.669986065708633"><ele>232.8571428571429</ele><time>2026-04-25T13:59:35Z</time></trkpt><trkpt lat="43.833663310746665" lon="12.669904086930806"><ele>233.42857142857144</ele><time>2026-04-25T13:59:38Z</time></trkpt><trkpt lat="43.833649703848145" lon="12.669803565702999"><ele>234.0</ele><time>2026-04-25T13:59:42Z</time></trkpt><trkpt lat="43.83356657643325" lon="12.669746929656089"><ele>234.0</ele><time>2026-04-25T13:59:45Z</time></trkpt><trkpt lat="43.83349095461859" lon="12.669726403886148"><ele>233.99999999999997</ele><time>2026-04-25T13:59:46Z</time></trkpt><trkpt lat="43.83340367261748" lon="12.669714028704162"><ele>233.99999999999997</ele><time>2026-04-25T13:59:47Z</time></trkpt><trkpt lat="43.833305760915444" lon="12.66970655669612"><ele>234.0</ele><time>2026-04-25T13:59:48Z</time></trkpt><trkpt lat="43.83320042651131" lon="12.669711254540877"><ele>234.0</ele><time>2026-04-25T13:59:49Z</time></trkpt><trkpt lat="43.83309362732752" lon="12.669741057910372"><ele>233.33333333333334</ele><time>2026-04-25T13:59:50Z</time></trkpt><trkpt lat="43.832995660766464" lon="12.66976351491655"><ele>232.66666666666669</ele><time>2026-04-25T13:59:51Z</time></trkpt><trkpt lat="43.83290340098664" lon="12.669787545666237"><ele>232.0</ele><time>2026-04-25T13:59:52Z</time></trkpt><trkpt lat="43.832817119036356" lon="12.669809999435468"><ele>231.33333333333334</ele><time>2026-04-25T13:59:53Z</time></trkpt><trkpt lat="43.83273412202221" lon="12.669808279745729"><ele>230.66666666666669</ele><time>2026-04-25T13:59:54Z</time></trkpt><trkpt lat="43.83265869326815" lon="12.669780458722668"><ele>230.0</ele><time>2026-04-25T13:59:55Z</time></trkpt><trkpt lat="43.83258824387111" lon="12.66973194378583"><ele>229.85714285714283</ele><time>2026-04-25T13:59:56Z</time></trkpt><trkpt lat="43.83252571451811" lon="12.669673966037077"><ele>229.71428571428572</ele><time>2026-04-25T13:59:57Z</time></trkpt><trkpt lat="43.832485488738065" lon="12.66958745550169"><ele>229.57142857142856</ele><time>2026-04-25T13:59:58Z</time></trkpt><trkpt lat="43.83243730212396" lon="12.66951081674825"><ele>229.42857142857142</ele><time>2026-04-25T13:59:59Z</time></trkpt><trkpt lat="43.832385072507485" lon="12.669427834041961"><ele>229.28571428571428</ele><time>2026-04-25T14:00:00Z</time></trkpt><trkpt lat="43.83234026862014" lon="12.669353766463338"><ele>229.14285714285714</ele><time>2026-04-25T14:00:01Z</time></trkpt><trkpt lat="43.83229178354105" lon="12.669288242658727"><ele>229.0</ele><time>2026-04-25T14:00:02Z</time></trkpt><trkpt lat="43.83223507731427" lon="12.669248061227124"><ele>226.79999999999998</ele><time>2026-04-25T14:00:03Z</time></trkpt><trkpt lat="43.83216119762641" lon="12.669167587521626"><ele>224.59999999999997</ele><time>2026-04-25T14:00:05Z</time></trkpt><trkpt lat="43.832094626566544" lon="12.669127616494515"><ele>222.4</ele><time>2026-04-25T14:00:46Z</time></trkpt><trkpt lat="43.831999897018754" lon="12.669027549062772"><ele>220.2</ele><time>2026-04-25T14:00:48Z</time></trkpt><trkpt lat="43.83193311628451" lon="12.66888576928804"><ele>218.0</ele><time>2026-04-25T14:00:50Z</time></trkpt><trkpt lat="43.831879549421735" lon="12.668822645881155"><ele>218.0</ele><time>2026-04-25T14:00:51Z</time></trkpt><trkpt lat="43.831851426289916" lon="12.66873405468078"><ele>218.0</ele><time>2026-04-25T14:00:52Z</time></trkpt><trkpt lat="43.83184270439248" lon="12.668579977697451"><ele>218.0</ele><time>2026-04-25T14:00:54Z</time></trkpt><trkpt lat="43.83183886431957" lon="12.668444949287931"><ele>218.0</ele><time>2026-04-25T14:00:56Z</time></trkpt><trkpt lat="43.83186075865273" lon="12.668279272644734"><ele>218.0</ele><time>2026-04-25T14:00:58Z</time></trkpt><trkpt lat="43.83187872440661" lon="12.668181022109136"><ele>215.50000000000003</ele><time>2026-04-25T14:00:59Z</time></trkpt><trkpt lat="43.83189907812446" lon="12.66807609954354"><ele>213.0</ele><time>2026-04-25T14:01:00Z</time></trkpt><trkpt lat="43.83191876760442" lon="12.667976228949113"><ele>210.5</ele><time>2026-04-25T14:01:01Z</time></trkpt><trkpt lat="43.831927214236224" lon="12.667863482931764"><ele>208.0</ele><time>2026-04-25T14:01:02Z</time></trkpt><trkpt lat="43.83195311732753" lon="12.66775185996906"><ele>205.50000000000003</ele><time>2026-04-25T14:01:03Z</time></trkpt><trkpt lat="43.8319686188188" lon="12.667645692157135"><ele>203.0</ele><time>2026-04-25T14:01:04Z</time></trkpt><trkpt lat="43.831961719663695" lon="12.667547286900707"><ele>204.60000000000002</ele><time>2026-04-25T14:01:05Z</time></trkpt><trkpt lat="43.83194886077259" lon="12.667460545177288"><ele>206.20000000000002</ele><time>2026-04-25T14:01:06Z</time></trkpt><trkpt lat="43.8318770879525" lon="12.667323354245994"><ele>207.8</ele><time>2026-04-25T14:01:08Z</time></trkpt><trkpt lat="43.83181301749427" lon="12.667269339289431"><ele>209.4</ele><time>2026-04-25T14:01:09Z</time></trkpt><trkpt lat="43.83172579137808" lon="12.66720531733956"><ele>211.0</ele><time>2026-04-25T14:01:10Z</time></trkpt><trkpt lat="43.83164817020901" lon="12.667135186009686"><ele>211.0</ele><time>2026-04-25T14:01:11Z</time></trkpt><trkpt lat="43.83158728520374" lon="12.667057449109059"><ele>211.0</ele><time>2026-04-25T14:01:12Z</time></trkpt><trkpt lat="43.83153938437682" lon="12.66694501811824"><ele>211.0</ele><time>2026-04-25T14:01:13Z</time></trkpt><trkpt lat="43.831521321554554" lon="12.666797716248073"><ele>211.0</ele><time>2026-04-25T14:01:14Z</time></trkpt><trkpt lat="43.831499891441524" lon="12.666638756289414"><ele>211.0</ele><time>2026-04-25T14:01:15Z</time></trkpt><trkpt lat="43.83147224228867" lon="12.666502516615198"><ele>208.49999999999997</ele><time>2026-04-25T14:01:16Z</time></trkpt><trkpt lat="43.831451435769196" lon="12.666379714484547"><ele>206.0</ele><time>2026-04-25T14:01:17Z</time></trkpt><trkpt lat="43.83140049973022" lon="12.666289897685534"><ele>203.5</ele><time>2026-04-25T14:01:18Z</time></trkpt><trkpt lat="43.8313323536124" lon="12.666221640230996"><ele>201.0</ele><time>2026-04-25T14:01:19Z</time></trkpt><trkpt lat="43.831247206994846" lon="12.666174134437128"><ele>198.49999999999997</ele><time>2026-04-25T14:01:20Z</time></trkpt><trkpt lat="43.831156524672494" lon="12.666165145163099"><ele>196.0</ele><time>2026-04-25T14:01:21Z</time></trkpt><trkpt lat="43.83104791210899" lon="12.666192819681953"><ele>198.8</ele><time>2026-04-25T14:01:22Z</time></trkpt><trkpt lat="43.83093442329412" lon="12.666239564128542"><ele>201.60000000000002</ele><time>2026-04-25T14:01:23Z</time></trkpt><trkpt lat="43.83081550512582" lon="12.666290564233327"><ele>204.4</ele><time>2026-04-25T14:01:24Z</time></trkpt><trkpt lat="43.83070758146485" lon="12.666264563774316"><ele>207.2</ele><time>2026-04-25T14:01:25Z</time></trkpt><trkpt lat="43.83064222799975" lon="12.666188694739693"><ele>210.0</ele><time>2026-04-25T14:01:26Z</time></trkpt><trkpt lat="43.83056648091452" lon="12.66611675501272"><ele>205.6</ele><time>2026-04-25T14:01:27Z</time></trkpt><trkpt lat="43.830493034533355" lon="12.66603086918019"><ele>201.2</ele><time>2026-04-25T14:01:28Z</time></trkpt><trkpt lat="43.83042885459639" lon="12.665942044222131"><ele>196.8</ele><time>2026-04-25T14:01:29Z</time></trkpt><trkpt lat="43.83036295950922" lon="12.665851113984662"><ele>192.4</ele><time>2026-04-25T14:01:30Z</time></trkpt><trkpt lat="43.83029096782591" lon="12.665763040105386"><ele>188.0</ele><time>2026-04-25T14:01:31Z</time></trkpt><trkpt lat="43.830221350286756" lon="12.665691372198618"><ele>188.8</ele><time>2026-04-25T14:01:32Z</time></trkpt><trkpt lat="43.83013346501684" lon="12.665684223591551"><ele>189.60000000000002</ele><time>2026-04-25T14:01:33Z</time></trkpt><trkpt lat="43.83005272342521" lon="12.665673834719344"><ele>190.39999999999998</ele><time>2026-04-25T14:01:34Z</time></trkpt><trkpt lat="43.82995742568165" lon="12.665711540269873"><ele>191.2</ele><time>2026-04-25T14:01:35Z</time></trkpt><trkpt lat="43.829845489836046" lon="12.66579422332049"><ele>192.0</ele><time>2026-04-25T14:01:36Z</time></trkpt><trkpt lat="43.82971282841135" lon="12.66590896058765"><ele>192.0</ele><time>2026-04-25T14:01:37Z</time></trkpt><trkpt lat="43.82957911433133" lon="12.666037610957824"><ele>192.0</ele><time>2026-04-25T14:01:38Z</time></trkpt><trkpt lat="43.829442806847155" lon="12.666171915860593"><ele>192.0</ele><time>2026-04-25T14:01:39Z</time></trkpt><trkpt lat="43.82931520436783" lon="12.666278936156653"><ele>188.8</ele><time>2026-04-25T14:01:40Z</time></trkpt><trkpt lat="43.8292126591556" lon="12.666366036837537"><ele>185.6</ele><time>2026-04-25T14:01:41Z</time></trkpt><trkpt lat="43.829141615342536" lon="12.66640489174625"><ele>182.4</ele><time>2026-04-25T14:01:42Z</time></trkpt><trkpt lat="43.829047388794635" lon="12.66644538561402"><ele>179.20000000000002</ele><time>2026-04-25T14:01:44Z</time></trkpt><trkpt lat="43.82898749755312" lon="12.666304861247367"><ele>176.0</ele><time>2026-04-25T14:01:46Z</time></trkpt><trkpt lat="43.829031059320776" lon="12.666206587400149"><ele>176.0</ele><time>2026-04-25T14:01:47Z</time></trkpt><trkpt lat="43.82911349703474" lon="12.666166397043309"><ele>176.0</ele><time>2026-04-25T14:01:48Z</time></trkpt><trkpt lat="43.82920172809838" lon="12.666105698696635"><ele>176.0</ele><time>2026-04-25T14:01:49Z</time></trkpt><trkpt lat="43.82929411649833" lon="12.666023949901614"><ele>176.0</ele><time>2026-04-25T14:01:50Z</time></trkpt><trkpt lat="43.82938568538974" lon="12.665934396186497"><ele>176.0</ele><time>2026-04-25T14:01:51Z</time></trkpt><trkpt lat="43.82946787683858" lon="12.665799088922276"><ele>175.75</ele><time>2026-04-25T14:01:52Z</time></trkpt><trkpt lat="43.82954024422385" lon="12.665665133979305"><ele>175.5</ele><time>2026-04-25T14:01:53Z</time></trkpt><trkpt lat="43.829604837206226" lon="12.665511657166132"><ele>175.25</ele><time>2026-04-25T14:01:54Z</time></trkpt><trkpt lat="43.829668046245594" lon="12.665351125124872"><ele>175.0</ele><time>2026-04-25T14:01:55Z</time></trkpt><trkpt lat="43.82973893881876" lon="12.665202785696671"><ele>175.0</ele><time>2026-04-25T14:01:56Z</time></trkpt><trkpt lat="43.82982745101002" lon="12.665080701275462"><ele>175.0</ele><time>2026-04-25T14:01:57Z</time></trkpt><trkpt lat="43.829909846383885" lon="12.664958446498021"><ele>175.0</ele><time>2026-04-25T14:01:58Z</time></trkpt><trkpt lat="43.82998770799602" lon="12.66483728599692"><ele>175.0</ele><time>2026-04-25T14:01:59Z</time></trkpt><trkpt lat="43.83006219481644" lon="12.664732410724437"><ele>175.0</ele><time>2026-04-25T14:02:00Z</time></trkpt><trkpt lat="43.83012084914378" lon="12.664630110475505"><ele>175.0</ele><time>2026-04-25T14:02:01Z</time></trkpt><trkpt lat="43.83015484228432" lon="12.664514300215783"><ele>175.0</ele><time>2026-04-25T14:02:02Z</time></trkpt><trkpt lat="43.83016283315633" lon="12.664394080857214"><ele>175.0</ele><time>2026-04-25T14:02:03Z</time></trkpt><trkpt lat="43.83014980960817" lon="12.664241911914598"><ele>175.0</ele><time>2026-04-25T14:02:04Z</time></trkpt><trkpt lat="43.83011667533067" lon="12.664092527717274"><ele>172.75</ele><time>2026-04-25T14:02:05Z</time></trkpt><trkpt lat="43.830070836205365" lon="12.66394216227044"><ele>170.5</ele><time>2026-04-25T14:02:06Z</time></trkpt><trkpt lat="43.83001939233646" lon="12.663800187119731"><ele>168.25</ele><time>2026-04-25T14:02:07Z</time></trkpt><trkpt lat="43.829943681946155" lon="12.663669785796221"><ele>166.0</ele><time>2026-04-25T14:02:08Z</time></trkpt><trkpt lat="43.8298613761409" lon="12.663541703176408"><ele>163.4</ele><time>2026-04-25T14:02:09Z</time></trkpt><trkpt lat="43.82977809881695" lon="12.66343804825119"><ele>160.8</ele><time>2026-04-25T14:02:10Z</time></trkpt><trkpt lat="43.82970069717285" lon="12.663325645781384"><ele>158.20000000000002</ele><time>2026-04-25T14:02:11Z</time></trkpt><trkpt lat="43.829625586093044" lon="12.663222780152225"><ele>155.60000000000002</ele><time>2026-04-25T14:02:12Z</time></trkpt><trkpt lat="43.82956699067789" lon="12.66311718748879"><ele>153.0</ele><time>2026-04-25T14:02:13Z</time></trkpt><trkpt lat="43.82951657386915" lon="12.663005068251204"><ele>153.0</ele><time>2026-04-25T14:02:14Z</time></trkpt><trkpt lat="43.829469958534666" lon="12.662904036459558"><ele>153.0</ele><time>2026-04-25T14:02:15Z</time></trkpt><trkpt lat="43.82941463723521" lon="12.662819648704811"><ele>153.0</ele><time>2026-04-25T14:02:16Z</time></trkpt><trkpt lat="43.82935092436948" lon="12.662785287854991"><ele>153.0</ele><time>2026-04-25T14:02:17Z</time></trkpt><trkpt lat="43.82927316909244" lon="12.662777651778423"><ele>153.0</ele><time>2026-04-25T14:02:18Z</time></trkpt><trkpt lat="43.82920277425192" lon="12.662861945141774"><ele>153.0</ele><time>2026-04-25T14:02:19Z</time></trkpt><trkpt lat="43.82916326586907" lon="12.662971077545214"><ele>152.0</ele><time>2026-04-25T14:02:20Z</time></trkpt><trkpt lat="43.82914301137085" lon="12.663106734040445"><ele>151.0</ele><time>2026-04-25T14:02:21Z</time></trkpt><trkpt lat="43.829174478766625" lon="12.663256523580424"><ele>150.0</ele><time>2026-04-25T14:02:22Z</time></trkpt><trkpt lat="43.82921140418285" lon="12.663419016411318"><ele>149.0</ele><time>2026-04-25T14:02:23Z</time></trkpt><trkpt lat="43.82925742841862" lon="12.66357644990345"><ele>149.4</ele><time>2026-04-25T14:02:24Z</time></trkpt><trkpt lat="43.82929076834074" lon="12.663729170799638"><ele>149.8</ele><time>2026-04-25T14:02:25Z</time></trkpt><trkpt lat="43.82928285102304" lon="12.663874709822112"><ele>150.2</ele><time>2026-04-25T14:02:26Z</time></trkpt><trkpt lat="43.829223534887475" lon="12.663983804540155"><ele>150.6</ele><time>2026-04-25T14:02:27Z</time></trkpt><trkpt lat="43.82914987676028" lon="12.664059613520779"><ele>151.0</ele><time>2026-04-25T14:02:28Z</time></trkpt><trkpt lat="43.82906802476938" lon="12.664118668434627"><ele>151.0</ele><time>2026-04-25T14:02:29Z</time></trkpt><trkpt lat="43.82897013525302" lon="12.664209656357952"><ele>151.0</ele><time>2026-04-25T14:02:30Z</time></trkpt><trkpt lat="43.82888043845558" lon="12.664319332041204"><ele>151.0</ele><time>2026-04-25T14:02:31Z</time></trkpt><trkpt lat="43.828816351555126" lon="12.664458782220327"><ele>151.0</ele><time>2026-04-25T14:02:32Z</time></trkpt><trkpt lat="43.828746147776926" lon="12.66460509959772"><ele>152.5</ele><time>2026-04-25T14:02:33Z</time></trkpt><trkpt lat="43.828687604653716" lon="12.664748275648183"><ele>154.0</ele><time>2026-04-25T14:02:34Z</time></trkpt><trkpt lat="43.82859249027753" lon="12.664832968013123"><ele>155.5</ele><time>2026-04-25T14:02:35Z</time></trkpt><trkpt lat="43.82848962246178" lon="12.664910847754118"><ele>157.0</ele><time>2026-04-25T14:02:36Z</time></trkpt><trkpt lat="43.828372728794285" lon="12.664991274155305"><ele>156.0</ele><time>2026-04-25T14:02:37Z</time></trkpt><trkpt lat="43.8282545257752" lon="12.665084594288684"><ele>155.0</ele><time>2026-04-25T14:02:38Z</time></trkpt><trkpt lat="43.8281450466765" lon="12.665190007804703"><ele>154.0</ele><time>2026-04-25T14:02:39Z</time></trkpt><trkpt lat="43.828028096277045" lon="12.66528640867948"><ele>153.0</ele><time>2026-04-25T14:02:40Z</time></trkpt><trkpt lat="43.82790175165132" lon="12.66534776474961"><ele>153.0</ele><time>2026-04-25T14:02:41Z</time></trkpt><trkpt lat="43.82777784024425" lon="12.665405571144007"><ele>153.0</ele><time>2026-04-25T14:02:42Z</time></trkpt><trkpt lat="43.82765510370212" lon="12.665453515054761"><ele>153.0</ele><time>2026-04-25T14:02:43Z</time></trkpt><trkpt lat="43.82754416847822" lon="12.665525421481858"><ele>153.0</ele><time>2026-04-25T14:02:44Z</time></trkpt><trkpt lat="43.82743776544435" lon="12.665575063750602"><ele>149.6</ele><time>2026-04-25T14:02:45Z</time></trkpt><trkpt lat="43.82733017161582" lon="12.665627141696511"><ele>146.20000000000002</ele><time>2026-04-25T14:02:46Z</time></trkpt><trkpt lat="43.8272412617232" lon="12.6657025953052"><ele>142.8</ele><time>2026-04-25T14:02:47Z</time></trkpt><trkpt lat="43.827195899372214" lon="12.665826863602588"><ele>139.4</ele><time>2026-04-25T14:02:48Z</time></trkpt><trkpt lat="43.827188005819956" lon="12.665962093158598"><ele>136.0</ele><time>2026-04-25T14:02:49Z</time></trkpt><trkpt lat="43.82721860012957" lon="12.66607605186073"><ele>135.75</ele><time>2026-04-25T14:02:50Z</time></trkpt><trkpt lat="43.82727949670072" lon="12.666178427547017"><ele>135.5</ele><time>2026-04-25T14:02:51Z</time></trkpt><trkpt lat="43.827363618559524" lon="12.666308655649507"><ele>135.25</ele><time>2026-04-25T14:02:52Z</time></trkpt><trkpt lat="43.827440406226316" lon="12.66644214970433"><ele>135.0</ele><time>2026-04-25T14:02:53Z</time></trkpt><trkpt lat="43.8275241400892" lon="12.666557607189437"><ele>135.0</ele><time>2026-04-25T14:02:54Z</time></trkpt><trkpt lat="43.82755601907905" lon="12.666716511452941"><ele>135.0</ele><time>2026-04-25T14:02:55Z</time></trkpt><trkpt lat="43.82752441693325" lon="12.66679400520719"><ele>135.0</ele><time>2026-04-25T14:02:56Z</time></trkpt><trkpt lat="43.82747442852632" lon="12.666876957792521"><ele>135.0</ele><time>2026-04-25T14:02:57Z</time></trkpt><trkpt lat="43.82740843874315" lon="12.666941717533245"><ele>135.0</ele><time>2026-04-25T14:02:58Z</time></trkpt><trkpt lat="43.82731603107468" lon="12.666985474949621"><ele>135.0</ele><time>2026-04-25T14:02:59Z</time></trkpt><trkpt lat="43.82720313316569" lon="12.66695305299843"><ele>135.0</ele><time>2026-04-25T14:03:00Z</time></trkpt><trkpt lat="43.82706179740425" lon="12.666928278339803"><ele>135.0</ele><time>2026-04-25T14:03:01Z</time></trkpt><trkpt lat="43.82692723047731" lon="12.666909226813951"><ele>135.0</ele><time>2026-04-25T14:03:02Z</time></trkpt><trkpt lat="43.82680089379288" lon="12.666843958548569"><ele>135.0</ele><time>2026-04-25T14:03:03Z</time></trkpt><trkpt lat="43.82670537083443" lon="12.66678581278873"><ele>132.6</ele><time>2026-04-25T14:03:04Z</time></trkpt><trkpt lat="43.826624874200284" lon="12.666693492584018"><ele>130.2</ele><time>2026-04-25T14:03:05Z</time></trkpt><trkpt lat="43.826530372228625" lon="12.66664181730854"><ele>127.80000000000001</ele><time>2026-04-25T14:03:06Z</time></trkpt><trkpt lat="43.826444519078166" lon="12.66657904621291"><ele>125.4</ele><time>2026-04-25T14:03:07Z</time></trkpt><trkpt lat="43.826355933675295" lon="12.666538700799004"><ele>123.0</ele><time>2026-04-25T14:03:08Z</time></trkpt><trkpt lat="43.826265958509524" lon="12.66654692370979"><ele>123.0</ele><time>2026-04-25T14:03:09Z</time></trkpt><trkpt lat="43.82618701884583" lon="12.666596353354544"><ele>123.0</ele><time>2026-04-25T14:03:10Z</time></trkpt><trkpt lat="43.8261156336543" lon="12.666658043251863"><ele>123.0</ele><time>2026-04-25T14:03:11Z</time></trkpt><trkpt lat="43.826056849121585" lon="12.666721268470864"><ele>123.0</ele><time>2026-04-25T14:03:12Z</time></trkpt><trkpt lat="43.825998083448" lon="12.666791503078315"><ele>123.0</ele><time>2026-04-25T14:03:14Z</time></trkpt><trkpt lat="43.82604917785559" lon="12.666721598733545"><ele>123.0</ele><time>2026-04-25T14:03:16Z</time></trkpt><trkpt lat="43.82610025646173" lon="12.666627685965834"><ele>123.0</ele><time>2026-04-25T14:03:18Z</time></trkpt><trkpt lat="43.82615282640333" lon="12.666547038121594"><ele>123.00000000000001</ele><time>2026-04-25T14:03:19Z</time></trkpt><trkpt lat="43.82623693210599" lon="12.666476415456712"><ele>123.00000000000001</ele><time>2026-04-25T14:03:20Z</time></trkpt><trkpt lat="43.82633852771553" lon="12.666441192014803"><ele>123.0</ele><time>2026-04-25T14:03:21Z</time></trkpt><trkpt lat="43.82643244068157" lon="12.666392975018733"><ele>123.0</ele><time>2026-04-25T14:03:22Z</time></trkpt><trkpt lat="43.82651999679802" lon="12.666343386608723"><ele>123.0</ele><time>2026-04-25T14:03:23Z</time></trkpt><trkpt lat="43.826588435649754" lon="12.666271305656847"><ele>123.00000000000001</ele><time>2026-04-25T14:03:24Z</time></trkpt><trkpt lat="43.8266028771407" lon="12.66614380997801"><ele>123.00000000000001</ele><time>2026-04-25T14:03:25Z</time></trkpt><trkpt lat="43.82662269926506" lon="12.666018523693246"><ele>123.0</ele><time>2026-04-25T14:03:26Z</time></trkpt><trkpt lat="43.82662417068603" lon="12.665861987125725"><ele>123.0</ele><time>2026-04-25T14:03:27Z</time></trkpt><trkpt lat="43.826627603301205" lon="12.665708699842272"><ele>121.66666666666667</ele><time>2026-04-25T14:03:28Z</time></trkpt><trkpt lat="43.82663582308488" lon="12.665559574722858"><ele>120.33333333333334</ele><time>2026-04-25T14:03:29Z</time></trkpt><trkpt lat="43.82663076585064" lon="12.665427398514751"><ele>119.0</ele><time>2026-04-25T14:03:30Z</time></trkpt><trkpt lat="43.82662880002809" lon="12.665314370384953"><ele>117.66666666666667</ele><time>2026-04-25T14:03:31Z</time></trkpt><trkpt lat="43.826662756181236" lon="12.6652175726526"><ele>116.33333333333334</ele><time>2026-04-25T14:03:32Z</time></trkpt><trkpt lat="43.82669250862125" lon="12.665116972506851"><ele>115.0</ele><time>2026-04-25T14:03:33Z</time></trkpt><trkpt lat="43.82674331354647" lon="12.665028902975507"><ele>115.0</ele><time>2026-04-25T14:03:34Z</time></trkpt><trkpt lat="43.82681120069792" lon="12.664927543099298"><ele>115.0</ele><time>2026-04-25T14:03:35Z</time></trkpt><trkpt lat="43.8268837994687" lon="12.664816634381085"><ele>115.0</ele><time>2026-04-25T14:03:36Z</time></trkpt><trkpt lat="43.82696076666591" lon="12.664705303341854"><ele>115.0</ele><time>2026-04-25T14:03:37Z</time></trkpt><trkpt lat="43.827027210922445" lon="12.66456759487772"><ele>115.0</ele><time>2026-04-25T14:03:38Z</time></trkpt><trkpt lat="43.82707836911666" lon="12.664433338493275"><ele>115.0</ele><time>2026-04-25T14:03:39Z</time></trkpt><trkpt lat="43.82712254503619" lon="12.664294961267716"><ele>115.0</ele><time>2026-04-25T14:03:40Z</time></trkpt><trkpt lat="43.82715497301529" lon="12.664149425898554"><ele>115.0</ele><time>2026-04-25T14:03:41Z</time></trkpt><trkpt lat="43.82717109703025" lon="12.663985414889092"><ele>115.0</ele><time>2026-04-25T14:03:42Z</time></trkpt><trkpt lat="43.82718845584051" lon="12.663804995438005"><ele>115.0</ele><time>2026-04-25T14:03:43Z</time></trkpt><trkpt lat="43.827222366851814" lon="12.66364835945969"><ele>115.0</ele><time>2026-04-25T14:03:44Z</time></trkpt><trkpt lat="43.82725534397689" lon="12.663506368469413"><ele>115.0</ele><time>2026-04-25T14:03:45Z</time></trkpt><trkpt lat="43.82730676374287" lon="12.66335000258315"><ele>115.0</ele><time>2026-04-25T14:03:46Z</time></trkpt><trkpt lat="43.827379313682144" lon="12.66316888804101"><ele>112.33333333333334</ele><time>2026-04-25T14:03:47Z</time></trkpt><trkpt lat="43.827445812851046" lon="12.662968052563276"><ele>109.66666666666666</ele><time>2026-04-25T14:03:48Z</time></trkpt><trkpt lat="43.82751817953265" lon="12.66275695669172"><ele>107.0</ele><time>2026-04-25T14:03:49Z</time></trkpt><trkpt lat="43.82758247545523" lon="12.662560655600302"><ele>108.0</ele><time>2026-04-25T14:03:50Z</time></trkpt><trkpt lat="43.82764517154251" lon="12.662378597433714"><ele>109.0</ele><time>2026-04-25T14:03:51Z</time></trkpt><trkpt lat="43.827705229808764" lon="12.662209056080707"><ele>110.0</ele><time>2026-04-25T14:03:52Z</time></trkpt><trkpt lat="43.827760182784246" lon="12.662053926590993"><ele>111.0</ele><time>2026-04-25T14:03:53Z</time></trkpt><trkpt lat="43.82780907982718" lon="12.661897804859079"><ele>111.0</ele><time>2026-04-25T14:03:54Z</time></trkpt><trkpt lat="43.8278576350724" lon="12.661750436713966"><ele>111.0</ele><time>2026-04-25T14:03:55Z</time></trkpt><trkpt lat="43.82789812770627" lon="12.661606789836902"><ele>111.0</ele><time>2026-04-25T14:03:56Z</time></trkpt><trkpt lat="43.82794766364275" lon="12.661476440458749"><ele>111.0</ele><time>2026-04-25T14:03:57Z</time></trkpt><trkpt lat="43.82799820107674" lon="12.661342963101186"><ele>111.0</ele><time>2026-04-25T14:03:58Z</time></trkpt><trkpt lat="43.82806135972931" lon="12.661193648645806"><ele>107.5</ele><time>2026-04-25T14:03:59Z</time></trkpt><trkpt lat="43.82813797097999" lon="12.661024642845131"><ele>104.0</ele><time>2026-04-25T14:04:00Z</time></trkpt><trkpt lat="43.82821993173918" lon="12.660874664157877"><ele>100.5</ele><time>2026-04-25T14:04:01Z</time></trkpt><trkpt lat="43.82829954140973" lon="12.660722786605177"><ele>97.0</ele><time>2026-04-25T14:04:02Z</time></trkpt><trkpt lat="43.828387119583454" lon="12.660571927674049"><ele>97.0</ele><time>2026-04-25T14:04:03Z</time></trkpt><trkpt lat="43.82846405519046" lon="12.6604172749739"><ele>97.0</ele><time>2026-04-25T14:04:04Z</time></trkpt><trkpt lat="43.828536831720704" lon="12.660266135184054"><ele>97.0</ele><time>2026-04-25T14:04:05Z</time></trkpt><trkpt lat="43.82861103360333" lon="12.660109697998926"><ele>97.0</ele><time>2026-04-25T14:04:06Z</time></trkpt><trkpt lat="43.828684441222144" lon="12.65994805321285"><ele>96.75</ele><time>2026-04-25T14:04:07Z</time></trkpt><trkpt lat="43.828762912142864" lon="12.659782424222604"><ele>96.5</ele><time>2026-04-25T14:04:08Z</time></trkpt><trkpt lat="43.82884861921598" lon="12.659613906262136"><ele>96.25</ele><time>2026-04-25T14:04:09Z</time></trkpt><trkpt lat="43.82893407936065" lon="12.659442803128016"><ele>96.0</ele><time>2026-04-25T14:04:10Z</time></trkpt><trkpt lat="43.82901573362339" lon="12.65926583448726"><ele>96.0</ele><time>2026-04-25T14:04:11Z</time></trkpt><trkpt lat="43.82909839262364" lon="12.659077929373733"><ele>96.0</ele><time>2026-04-25T14:04:12Z</time></trkpt><trkpt lat="43.829174556934554" lon="12.6588797755822"><ele>96.0</ele><time>2026-04-25T14:04:13Z</time></trkpt><trkpt lat="43.829243794667875" lon="12.658702115444779"><ele>97.5</ele><time>2026-04-25T14:04:14Z</time></trkpt><trkpt lat="43.829301354214635" lon="12.658551320919013"><ele>99.0</ele><time>2026-04-25T14:04:15Z</time></trkpt><trkpt lat="43.82937313082379" lon="12.658432030926996"><ele>100.5</ele><time>2026-04-25T14:04:16Z</time></trkpt><trkpt lat="43.82944710628009" lon="12.658317296082366"><ele>102.0</ele><time>2026-04-25T14:04:17Z</time></trkpt><trkpt lat="43.829537686478204" lon="12.658214393418206"><ele>102.0</ele><time>2026-04-25T14:04:18Z</time></trkpt><trkpt lat="43.82964757234268" lon="12.658100516275676"><ele>102.0</ele><time>2026-04-25T14:04:19Z</time></trkpt><trkpt lat="43.829769742469345" lon="12.657977319937231"><ele>102.0</ele><time>2026-04-25T14:04:20Z</time></trkpt><trkpt lat="43.82989720000221" lon="12.65785302975107"><ele>102.0</ele><time>2026-04-25T14:04:21Z</time></trkpt><trkpt lat="43.83003362783643" lon="12.65772298380192"><ele>104.25</ele><time>2026-04-25T14:04:22Z</time></trkpt><trkpt lat="43.83014925452931" lon="12.657606020402351"><ele>106.5</ele><time>2026-04-25T14:04:23Z</time></trkpt><trkpt lat="43.83023913553124" lon="12.657478738361053"><ele>108.75</ele><time>2026-04-25T14:04:24Z</time></trkpt><trkpt lat="43.830324305587894" lon="12.657377241014096"><ele>111.0</ele><time>2026-04-25T14:04:25Z</time></trkpt><trkpt lat="43.83039941433193" lon="12.657271687137076"><ele>111.0</ele><time>2026-04-25T14:04:26Z</time></trkpt><trkpt lat="43.83049263847856" lon="12.657151572291552"><ele>111.0</ele><time>2026-04-25T14:04:27Z</time></trkpt><trkpt lat="43.830582091587196" lon="12.657005305324681"><ele>111.0</ele><time>2026-04-25T14:04:28Z</time></trkpt><trkpt lat="43.83067672869348" lon="12.656847312127287"><ele>111.0</ele><time>2026-04-25T14:04:29Z</time></trkpt><trkpt lat="43.83076291225488" lon="12.656698414233594"><ele>112.0</ele><time>2026-04-25T14:04:30Z</time></trkpt><trkpt lat="43.83083570876049" lon="12.65656149496618"><ele>113.0</ele><time>2026-04-25T14:04:31Z</time></trkpt><trkpt lat="43.83091448170803" lon="12.65647055773034"><ele>114.0</ele><time>2026-04-25T14:04:32Z</time></trkpt><trkpt lat="43.83097803472886" lon="12.656385079662867"><ele>115.0</ele><time>2026-04-25T14:04:33Z</time></trkpt><trkpt lat="43.83104627121633" lon="12.656321173619695"><ele>116.0</ele><time>2026-04-25T14:04:34Z</time></trkpt><trkpt lat="43.83113293257621" lon="12.6562613150956"><ele>116.0</ele><time>2026-04-25T14:04:35Z</time></trkpt><trkpt lat="43.831241151207536" lon="12.656216096373491"><ele>116.0</ele><time>2026-04-25T14:04:36Z</time></trkpt><trkpt lat="43.831363102084566" lon="12.656183988658597"><ele>116.0</ele><time>2026-04-25T14:04:37Z</time></trkpt><trkpt lat="43.8314739885999" lon="12.656140570086732"><ele>116.0</ele><time>2026-04-25T14:04:38Z</time></trkpt><trkpt lat="43.83157677572395" lon="12.656069147283562"><ele>115.75</ele><time>2026-04-25T14:04:39Z</time></trkpt><trkpt lat="43.831669103460904" lon="12.655965056356253"><ele>115.5</ele><time>2026-04-25T14:04:40Z</time></trkpt><trkpt lat="43.8317701905629" lon="12.65584811347596"><ele>115.25</ele><time>2026-04-25T14:04:41Z</time></trkpt><trkpt lat="43.83189465463891" lon="12.6557388668379"><ele>115.0</ele><time>2026-04-25T14:04:42Z</time></trkpt><trkpt lat="43.832011610162084" lon="12.655577221175719"><ele>115.0</ele><time>2026-04-25T14:04:43Z</time></trkpt><trkpt lat="43.83215078347999" lon="12.655449645457278"><ele>115.0</ele><time>2026-04-25T14:04:44Z</time></trkpt><trkpt lat="43.83227079943283" lon="12.655318320096445"><ele>115.0</ele><time>2026-04-25T14:04:45Z</time></trkpt><trkpt lat="43.83237847763616" lon="12.655204463520642"><ele>113.25</ele><time>2026-04-25T14:04:46Z</time></trkpt><trkpt lat="43.83249194038599" lon="12.655102935575105"><ele>111.5</ele><time>2026-04-25T14:04:47Z</time></trkpt><trkpt lat="43.8326077659518" lon="12.655024657347768"><ele>109.75</ele><time>2026-04-25T14:04:48Z</time></trkpt><trkpt lat="43.83273020544064" lon="12.654966294950954"><ele>108.0</ele><time>2026-04-25T14:04:49Z</time></trkpt><trkpt lat="43.83285800842591" lon="12.654926697433128"><ele>108.0</ele><time>2026-04-25T14:04:50Z</time></trkpt><trkpt lat="43.832996870812735" lon="12.654904023848399"><ele>108.0</ele><time>2026-04-25T14:04:51Z</time></trkpt><trkpt lat="43.833145935835525" lon="12.654880890771889"><ele>108.0</ele><time>2026-04-25T14:04:52Z</time></trkpt><trkpt lat="43.83330191656201" lon="12.654864858242533"><ele>108.0</ele><time>2026-04-25T14:04:53Z</time></trkpt><trkpt lat="43.83345563188456" lon="12.654844517114526"><ele>110.66666666666666</ele><time>2026-04-25T14:04:54Z</time></trkpt><trkpt lat="43.83361453626593" lon="12.654809000692502"><ele>113.33333333333333</ele><time>2026-04-25T14:04:55Z</time></trkpt><trkpt lat="43.83375812481169" lon="12.654764858463015"><ele>116.0</ele><time>2026-04-25T14:04:56Z</time></trkpt><trkpt lat="43.83391989731787" lon="12.654690171507815"><ele>116.0</ele><time>2026-04-25T14:04:57Z</time></trkpt><trkpt lat="43.83407365409572" lon="12.654622102564593"><ele>116.0</ele><time>2026-04-25T14:04:58Z</time></trkpt><trkpt lat="43.83422516842388" lon="12.65454545162441"><ele>116.0</ele><time>2026-04-25T14:04:59Z</time></trkpt><trkpt lat="43.83437147502097" lon="12.654469340083425"><ele>115.0</ele><time>2026-04-25T14:05:00Z</time></trkpt><trkpt lat="43.834513950556165" lon="12.654399078256498"><ele>114.0</ele><time>2026-04-25T14:05:01Z</time></trkpt><trkpt lat="43.83465060146325" lon="12.654332639781439"><ele>113.0</ele><time>2026-04-25T14:05:02Z</time></trkpt><trkpt lat="43.83478683197922" lon="12.654263135824765"><ele>112.0</ele><time>2026-04-25T14:05:03Z</time></trkpt><trkpt lat="43.8349154324547" lon="12.654191465929294"><ele>112.0</ele><time>2026-04-25T14:05:04Z</time></trkpt><trkpt lat="43.83504344234612" lon="12.654113152899015"><ele>112.0</ele><time>2026-04-25T14:05:05Z</time></trkpt><trkpt lat="43.83516771189575" lon="12.65401528121244"><ele>112.0</ele><time>2026-04-25T14:05:06Z</time></trkpt><trkpt lat="43.83529555797375" lon="12.653906255530368"><ele>112.0</ele><time>2026-04-25T14:05:07Z</time></trkpt><trkpt lat="43.83540919881658" lon="12.653794071115462"><ele>111.25</ele><time>2026-04-25T14:05:08Z</time></trkpt><trkpt lat="43.83551405704211" lon="12.65368308567734"><ele>110.5</ele><time>2026-04-25T14:05:09Z</time></trkpt><trkpt lat="43.83561718022308" lon="12.653574150462532"><ele>109.75</ele><time>2026-04-25T14:05:10Z</time></trkpt><trkpt lat="43.835728840341886" lon="12.653473806432626"><ele>109.0</ele><time>2026-04-25T14:05:11Z</time></trkpt><trkpt lat="43.83585062403189" lon="12.653381743734816"><ele>111.0</ele><time>2026-04-25T14:05:12Z</time></trkpt><trkpt lat="43.83597109791684" lon="12.653270074296792"><ele>113.0</ele><time>2026-04-25T14:05:13Z</time></trkpt><trkpt lat="43.83609522268194" lon="12.653151530797636"><ele>115.0</ele><time>2026-04-25T14:05:14Z</time></trkpt><trkpt lat="43.836221858494234" lon="12.653023017655148"><ele>115.0</ele><time>2026-04-25T14:05:15Z</time></trkpt><trkpt lat="43.83633666305256" lon="12.652885021370023"><ele>115.0</ele><time>2026-04-25T14:05:16Z</time></trkpt><trkpt lat="43.836444552447105" lon="12.652749750414923"><ele>115.0</ele><time>2026-04-25T14:05:17Z</time></trkpt><trkpt lat="43.83655008220702" lon="12.652618500225795"><ele>115.0</ele><time>2026-04-25T14:05:18Z</time></trkpt><trkpt lat="43.83664332287726" lon="12.65249917853934"><ele>114.5</ele><time>2026-04-25T14:05:19Z</time></trkpt><trkpt lat="43.83672422654996" lon="12.652384407565654"><ele>114.0</ele><time>2026-04-25T14:05:20Z</time></trkpt><trkpt lat="43.83680792974956" lon="12.652287268463141"><ele>113.5</ele><time>2026-04-25T14:05:21Z</time></trkpt><trkpt lat="43.83688882224174" lon="12.652174255531811"><ele>113.0</ele><time>2026-04-25T14:05:22Z</time></trkpt><trkpt lat="43.83696374834482" lon="12.652047162070996"><ele>111.60000000000001</ele><time>2026-04-25T14:05:23Z</time></trkpt><trkpt lat="43.83703119875006" lon="12.651921551469076"><ele>110.20000000000002</ele><time>2026-04-25T14:05:24Z</time></trkpt><trkpt lat="43.837099123706885" lon="12.65179510341068"><ele>108.8</ele><time>2026-04-25T14:05:25Z</time></trkpt><trkpt lat="43.83714529884328" lon="12.651664254521224"><ele>107.4</ele><time>2026-04-25T14:05:26Z</time></trkpt><trkpt lat="43.837184255884495" lon="12.651526390079935"><ele>106.0</ele><time>2026-04-25T14:05:27Z</time></trkpt><trkpt lat="43.8372249352446" lon="12.65137435462369"><ele>106.0</ele><time>2026-04-25T14:05:28Z</time></trkpt><trkpt lat="43.83726639344237" lon="12.651210617946393"><ele>106.0</ele><time>2026-04-25T14:05:29Z</time></trkpt><trkpt lat="43.837303177253915" lon="12.651049194062308"><ele>106.0</ele><time>2026-04-25T14:05:30Z</time></trkpt><trkpt lat="43.837336869693495" lon="12.650910383922977"><ele>106.0</ele><time>2026-04-25T14:05:31Z</time></trkpt><trkpt lat="43.83735765429506" lon="12.6507969879409"><ele>106.0</ele><time>2026-04-25T14:05:32Z</time></trkpt><trkpt lat="43.837339981521986" lon="12.65069919149284"><ele>105.83333333333334</ele><time>2026-04-25T14:05:33Z</time></trkpt><trkpt lat="43.83729464352166" lon="12.650603735041358"><ele>105.66666666666667</ele><time>2026-04-25T14:05:34Z</time></trkpt><trkpt lat="43.83723080442688" lon="12.650505486503972"><ele>105.5</ele><time>2026-04-25T14:05:35Z</time></trkpt><trkpt lat="43.83718069950464" lon="12.650404002012229"><ele>105.33333333333334</ele><time>2026-04-25T14:05:36Z</time></trkpt><trkpt lat="43.83716419324105" lon="12.650289963829216"><ele>105.16666666666667</ele><time>2026-04-25T14:05:37Z</time></trkpt><trkpt lat="43.83720391549514" lon="12.650168994681895"><ele>105.0</ele><time>2026-04-25T14:05:38Z</time></trkpt><trkpt lat="43.83724221533286" lon="12.650057851137865"><ele>105.75</ele><time>2026-04-25T14:05:39Z</time></trkpt><trkpt lat="43.83728487795297" lon="12.649927904986022"><ele>106.5</ele><time>2026-04-25T14:05:40Z</time></trkpt><trkpt lat="43.83733216065453" lon="12.649786932400252"><ele>107.25</ele><time>2026-04-25T14:05:41Z</time></trkpt><trkpt lat="43.83738755989285" lon="12.649636011088692"><ele>108.0</ele><time>2026-04-25T14:05:42Z</time></trkpt><trkpt lat="43.83743517285686" lon="12.649469450190285"><ele>107.5</ele><time>2026-04-25T14:05:43Z</time></trkpt><trkpt lat="43.837467625214295" lon="12.649293510142625"><ele>107.0</ele><time>2026-04-25T14:05:44Z</time></trkpt><trkpt lat="43.8375185768117" lon="12.649128439046432"><ele>106.5</ele><time>2026-04-25T14:05:45Z</time></trkpt><trkpt lat="43.83757551283074" lon="12.648962309272793"><ele>106.0</ele><time>2026-04-25T14:05:46Z</time></trkpt><trkpt lat="43.83763421611708" lon="12.648809648008475"><ele>107.19999999999999</ele><time>2026-04-25T14:05:47Z</time></trkpt><trkpt lat="43.83771570460531" lon="12.648692925551233"><ele>108.39999999999999</ele><time>2026-04-25T14:05:48Z</time></trkpt><trkpt lat="43.83779018327757" lon="12.648598802085338"><ele>109.6</ele><time>2026-04-25T14:05:49Z</time></trkpt><trkpt lat="43.83787640253906" lon="12.64852848071883"><ele>110.8</ele><time>2026-04-25T14:05:50Z</time></trkpt><trkpt lat="43.83795931706424" lon="12.648489041878522"><ele>112.0</ele><time>2026-04-25T14:05:51Z</time></trkpt><trkpt lat="43.83806174584747" lon="12.64845754258661"><ele>112.0</ele><time>2026-04-25T14:05:52Z</time></trkpt><trkpt lat="43.83817124391297" lon="12.648404336716029"><ele>112.0</ele><time>2026-04-25T14:05:53Z</time></trkpt><trkpt lat="43.83827527657866" lon="12.648319503794168"><ele>112.0</ele><time>2026-04-25T14:05:54Z</time></trkpt><trkpt lat="43.83837828175726" lon="12.64822895093455"><ele>112.0</ele><time>2026-04-25T14:05:55Z</time></trkpt><trkpt lat="43.83846781997983" lon="12.6481056353291"><ele>114.0</ele><time>2026-04-25T14:05:56Z</time></trkpt><trkpt lat="43.83856290087158" lon="12.647980291399744"><ele>116.0</ele><time>2026-04-25T14:05:57Z</time></trkpt><trkpt lat="43.8386559550253" lon="12.647849427703852"><ele>118.0</ele><time>2026-04-25T14:05:58Z</time></trkpt><trkpt lat="43.83873385000163" lon="12.647752639291644"><ele>120.0</ele><time>2026-04-25T14:05:59Z</time></trkpt><trkpt lat="43.83879345775904" lon="12.647673714199064"><ele>120.0</ele><time>2026-04-25T14:06:00Z</time></trkpt><trkpt lat="43.83887130262767" lon="12.647552081100239"><ele>120.0</ele><time>2026-04-25T14:06:02Z</time></trkpt><trkpt lat="43.83889161921714" lon="12.647464690987979"><ele>120.0</ele><time>2026-04-25T14:06:03Z</time></trkpt><trkpt lat="43.83889656675638" lon="12.64734523640341"><ele>120.0</ele><time>2026-04-25T14:06:04Z</time></trkpt><trkpt lat="43.83889058668968" lon="12.647205684921687"><ele>120.0</ele><time>2026-04-25T14:06:05Z</time></trkpt><trkpt lat="43.83890855763237" lon="12.647089045581087"><ele>120.0</ele><time>2026-04-25T14:06:06Z</time></trkpt><trkpt lat="43.83894567819361" lon="12.646979358766755"><ele>120.0</ele><time>2026-04-25T14:06:07Z</time></trkpt><trkpt lat="43.83901009227439" lon="12.646888788464253"><ele>120.0</ele><time>2026-04-25T14:06:08Z</time></trkpt><trkpt lat="43.83908698455807" lon="12.646825372431136"><ele>120.0</ele><time>2026-04-25T14:06:09Z</time></trkpt><trkpt lat="43.83916323167288" lon="12.646777072888053"><ele>120.0</ele><time>2026-04-25T14:06:10Z</time></trkpt><trkpt lat="43.839258775851164" lon="12.646718811466027"><ele>120.25</ele><time>2026-04-25T14:06:11Z</time></trkpt><trkpt lat="43.83936249058155" lon="12.646671081347877"><ele>120.5</ele><time>2026-04-25T14:06:12Z</time></trkpt><trkpt lat="43.83947019589709" lon="12.646627437116624"><ele>120.75</ele><time>2026-04-25T14:06:13Z</time></trkpt><trkpt lat="43.83957773068811" lon="12.646585354601065"><ele>121.0</ele><time>2026-04-25T14:06:14Z</time></trkpt><trkpt lat="43.8396916480302" lon="12.646543392440794"><ele>121.0</ele><time>2026-04-25T14:06:15Z</time></trkpt><trkpt lat="43.83981435166301" lon="12.646501658115623"><ele>121.0</ele><time>2026-04-25T14:06:16Z</time></trkpt><trkpt lat="43.83993977102166" lon="12.646458839569478"><ele>121.0</ele><time>2026-04-25T14:06:17Z</time></trkpt><trkpt lat="43.8400679335937" lon="12.64640878771082"><ele>121.0</ele><time>2026-04-25T14:06:18Z</time></trkpt><trkpt lat="43.8401766403484" lon="12.646338080745982"><ele>120.8</ele><time>2026-04-25T14:06:19Z</time></trkpt><trkpt lat="43.840279334465585" lon="12.646294076610708"><ele>120.6</ele><time>2026-04-25T14:06:20Z</time></trkpt><trkpt lat="43.840369027288716" lon="12.64624323991441"><ele>120.4</ele><time>2026-04-25T14:06:21Z</time></trkpt><trkpt lat="43.84044475211872" lon="12.646170845847717"><ele>120.2</ele><time>2026-04-25T14:06:22Z</time></trkpt><trkpt lat="43.840513854478566" lon="12.646070365024322"><ele>120.0</ele><time>2026-04-25T14:06:23Z</time></trkpt><trkpt lat="43.84057688307399" lon="12.645945001954484"><ele>120.0</ele><time>2026-04-25T14:06:24Z</time></trkpt><trkpt lat="43.840623088676786" lon="12.645801250292543"><ele>120.0</ele><time>2026-04-25T14:06:25Z</time></trkpt><trkpt lat="43.84066133187293" lon="12.645637271338073"><ele>120.0</ele><time>2026-04-25T14:06:26Z</time></trkpt><trkpt lat="43.84068557660182" lon="12.64546502891165"><ele>120.0</ele><time>2026-04-25T14:06:27Z</time></trkpt><trkpt lat="43.84070835151852" lon="12.645286749185821"><ele>119.6</ele><time>2026-04-25T14:06:28Z</time></trkpt><trkpt lat="43.840760132538236" lon="12.64513198664481"><ele>119.2</ele><time>2026-04-25T14:06:29Z</time></trkpt><trkpt lat="43.840806569954985" lon="12.645000541902556"><ele>118.80000000000001</ele><time>2026-04-25T14:06:30Z</time></trkpt><trkpt lat="43.8408505128777" lon="12.64487424794413"><ele>118.4</ele><time>2026-04-25T14:06:31Z</time></trkpt><trkpt lat="43.840840358291" lon="12.644716154148032"><ele>118.0</ele><time>2026-04-25T14:06:32Z</time></trkpt><trkpt lat="43.84083074024908" lon="12.64456107197888"><ele>117.80000000000001</ele><time>2026-04-25T14:06:33Z</time></trkpt><trkpt lat="43.84081857317724" lon="12.644437687645645"><ele>117.60000000000001</ele><time>2026-04-25T14:06:34Z</time></trkpt><trkpt lat="43.84083192381493" lon="12.644338366021318"><ele>117.39999999999999</ele><time>2026-04-25T14:06:35Z</time></trkpt><trkpt lat="43.84085993959847" lon="12.644221756298133"><ele>117.19999999999999</ele><time>2026-04-25T14:06:36Z</time></trkpt><trkpt lat="43.84090397179854" lon="12.64407433419685"><ele>117.0</ele><time>2026-04-25T14:06:37Z</time></trkpt><trkpt lat="43.84095336605586" lon="12.643899631131926"><ele>119.66666666666666</ele><time>2026-04-25T14:06:38Z</time></trkpt><trkpt lat="43.84100749321239" lon="12.643702521778733"><ele>122.33333333333333</ele><time>2026-04-25T14:06:39Z</time></trkpt><trkpt lat="43.841064168586875" lon="12.643480970532536"><ele>125.0</ele><time>2026-04-25T14:06:40Z</time></trkpt><trkpt lat="43.84110638825358" lon="12.643238823256704"><ele>125.0</ele><time>2026-04-25T14:06:41Z</time></trkpt><trkpt lat="43.8411698789345" lon="12.643032294647005"><ele>125.0</ele><time>2026-04-25T14:06:42Z</time></trkpt><trkpt lat="43.841206361751546" lon="12.642839617849292"><ele>125.0</ele><time>2026-04-25T14:06:43Z</time></trkpt><trkpt lat="43.84124539349008" lon="12.642663020405953"><ele>125.0</ele><time>2026-04-25T14:06:44Z</time></trkpt><trkpt lat="43.84128408075842" lon="12.642502189963972"><ele>124.2</ele><time>2026-04-25T14:06:45Z</time></trkpt><trkpt lat="43.84131532681638" lon="12.642360513060641"><ele>123.4</ele><time>2026-04-25T14:06:46Z</time></trkpt><trkpt lat="43.84133760703097" lon="12.642219922790845"><ele>122.6</ele><time>2026-04-25T14:06:47Z</time></trkpt><trkpt lat="43.84135048995886" lon="12.64208845929046"><ele>121.8</ele><time>2026-04-25T14:06:48Z</time></trkpt><trkpt lat="43.841358431669875" lon="12.641964024888301"><ele>121.0</ele><time>2026-04-25T14:06:49Z</time></trkpt><trkpt lat="43.8413688812495" lon="12.64185748222085"><ele>120.8</ele><time>2026-04-25T14:06:50Z</time></trkpt><trkpt lat="43.84141335192223" lon="12.64177038382044"><ele>120.6</ele><time>2026-04-25T14:06:51Z</time></trkpt><trkpt lat="43.84145539968657" lon="12.641674420956672"><ele>120.4</ele><time>2026-04-25T14:06:52Z</time></trkpt><trkpt lat="43.841510891374064" lon="12.641556004418597"><ele>120.2</ele><time>2026-04-25T14:06:53Z</time></trkpt><trkpt lat="43.84155911510665" lon="12.641423011720882"><ele>120.0</ele><time>2026-04-25T14:06:54Z</time></trkpt><trkpt lat="43.84157438360561" lon="12.641292169249203"><ele>120.0</ele><time>2026-04-25T14:06:55Z</time></trkpt><trkpt lat="43.84157841930907" lon="12.64116332699283"><ele>120.0</ele><time>2026-04-25T14:06:56Z</time></trkpt><trkpt lat="43.841572823292616" lon="12.641039002869778"><ele>120.0</ele><time>2026-04-25T14:06:57Z</time></trkpt><trkpt lat="43.84156934677206" lon="12.640930964870929"><ele>120.0</ele><time>2026-04-25T14:06:58Z</time></trkpt><trkpt lat="43.84159860415855" lon="12.640843423145332"><ele>120.0</ele><time>2026-04-25T14:06:59Z</time></trkpt><trkpt lat="43.84164071037237" lon="12.64077068126741"><ele>120.0</ele><time>2026-04-25T14:07:00Z</time></trkpt><trkpt lat="43.84172412818695" lon="12.64074676006402"><ele>119.6</ele><time>2026-04-25T14:07:01Z</time></trkpt><trkpt lat="43.84179116281506" lon="12.64066562295017"><ele>119.2</ele><time>2026-04-25T14:07:02Z</time></trkpt><trkpt lat="43.841888497930974" lon="12.640615893624652"><ele>118.80000000000001</ele><time>2026-04-25T14:07:03Z</time></trkpt><trkpt lat="43.84199841422245" lon="12.640606158581402"><ele>118.4</ele><time>2026-04-25T14:07:04Z</time></trkpt><trkpt lat="43.84211331623145" lon="12.640572219816237"><ele>118.0</ele><time>2026-04-25T14:07:05Z</time></trkpt><trkpt lat="43.84221649184979" lon="12.640619201285377"><ele>119.2</ele><time>2026-04-25T14:07:06Z</time></trkpt><trkpt lat="43.84230221215121" lon="12.640664996088363"><ele>120.4</ele><time>2026-04-25T14:07:07Z</time></trkpt><trkpt lat="43.842369918651166" lon="12.640735695634671"><ele>121.60000000000001</ele><time>2026-04-25T14:07:08Z</time></trkpt><trkpt lat="43.84238854060663" lon="12.640842513047268"><ele>122.80000000000001</ele><time>2026-04-25T14:07:09Z</time></trkpt><trkpt lat="43.8424506424876" lon="12.640964434169069"><ele>124.0</ele><time>2026-04-25T14:07:10Z</time></trkpt><trkpt lat="43.84252443592565" lon="12.64106629305909"><ele>125.25</ele><time>2026-04-25T14:07:11Z</time></trkpt><trkpt lat="43.842600856343836" lon="12.641174989887949"><ele>126.5</ele><time>2026-04-25T14:07:12Z</time></trkpt><trkpt lat="43.84269597668812" lon="12.641269663728446"><ele>127.75</ele><time>2026-04-25T14:07:13Z</time></trkpt><trkpt lat="43.842799224562874" lon="12.641359202014586"><ele>129.0</ele><time>2026-04-25T14:07:14Z</time></trkpt><trkpt lat="43.84290662507956" lon="12.641444149111791"><ele>131.5</ele><time>2026-04-25T14:07:15Z</time></trkpt><trkpt lat="43.84302270666132" lon="12.641526460304446"><ele>134.0</ele><time>2026-04-25T14:07:16Z</time></trkpt><trkpt lat="43.84313815748969" lon="12.641611805398608"><ele>136.5</ele><time>2026-04-25T14:07:17Z</time></trkpt><trkpt lat="43.84325777330197" lon="12.6416838464525"><ele>139.0</ele><time>2026-04-25T14:07:18Z</time></trkpt><trkpt lat="43.843377514902755" lon="12.641760671563624"><ele>140.75</ele><time>2026-04-25T14:07:19Z</time></trkpt><trkpt lat="43.843502269182444" lon="12.641825501763021"><ele>142.5</ele><time>2026-04-25T14:07:20Z</time></trkpt><trkpt lat="43.84362733449557" lon="12.64188624550102"><ele>144.25</ele><time>2026-04-25T14:07:21Z</time></trkpt><trkpt lat="43.84374242170455" lon="12.641945402302724"><ele>146.0</ele><time>2026-04-25T14:07:22Z</time></trkpt><trkpt lat="43.843857860144205" lon="12.64200403606592"><ele>147.75</ele><time>2026-04-25T14:07:23Z</time></trkpt><trkpt lat="43.84397275346008" lon="12.642060621974354"><ele>149.5</ele><time>2026-04-25T14:07:24Z</time></trkpt><trkpt lat="43.84408799897106" lon="12.642116430993868"><ele>151.25</ele><time>2026-04-25T14:07:25Z</time></trkpt><trkpt lat="43.844192063307965" lon="12.642188872792593"><ele>153.0</ele><time>2026-04-25T14:07:26Z</time></trkpt><trkpt lat="43.84429581629509" lon="12.642263481554416"><ele>156.75</ele><time>2026-04-25T14:07:27Z</time></trkpt><trkpt lat="43.84439450653541" lon="12.642341333971572"><ele>160.5</ele><time>2026-04-25T14:07:28Z</time></trkpt><trkpt lat="43.84449408935177" lon="12.642418828496893"><ele>164.25</ele><time>2026-04-25T14:07:29Z</time></trkpt><trkpt lat="43.84459882347397" lon="12.64249097828368"><ele>168.0</ele><time>2026-04-25T14:07:30Z</time></trkpt><trkpt lat="43.84470478642711" lon="12.642578630413666"><ele>168.0</ele><time>2026-04-25T14:07:31Z</time></trkpt><trkpt lat="43.84481635429501" lon="12.642618797679399"><ele>168.0</ele><time>2026-04-25T14:07:32Z</time></trkpt><trkpt lat="43.844912329822954" lon="12.642649517307127"><ele>168.0</ele><time>2026-04-25T14:07:33Z</time></trkpt><trkpt lat="43.845009168480914" lon="12.642637548183524"><ele>168.0</ele><time>2026-04-25T14:07:34Z</time></trkpt><trkpt lat="43.84510453194663" lon="12.642586646776133"><ele>168.0</ele><time>2026-04-25T14:07:35Z</time></trkpt><trkpt lat="43.84519221018114" lon="12.642504824689917"><ele>170.33333333333334</ele><time>2026-04-25T14:07:36Z</time></trkpt><trkpt lat="43.845283106847326" lon="12.642414844904645"><ele>172.66666666666666</ele><time>2026-04-25T14:07:37Z</time></trkpt><trkpt lat="43.84538105080506" lon="12.642383170475275"><ele>175.0</ele><time>2026-04-25T14:07:38Z</time></trkpt><trkpt lat="43.84546155292811" lon="12.642377027577636"><ele>177.33333333333331</ele><time>2026-04-25T14:07:39Z</time></trkpt><trkpt lat="43.845533278629766" lon="12.642413779058943"><ele>179.66666666666666</ele><time>2026-04-25T14:07:40Z</time></trkpt><trkpt lat="43.84558023597367" lon="12.642499231127871"><ele>182.0</ele><time>2026-04-25T14:07:41Z</time></trkpt><trkpt lat="43.845607966689606" lon="12.64259270545661"><ele>182.0</ele><time>2026-04-25T14:07:42Z</time></trkpt><trkpt lat="43.84560859347114" lon="12.64271658825101"><ele>182.0</ele><time>2026-04-25T14:07:43Z</time></trkpt><trkpt lat="43.845652726409455" lon="12.642834820346565"><ele>182.0</ele><time>2026-04-25T14:07:44Z</time></trkpt><trkpt lat="43.845698500109386" lon="12.642944214155191"><ele>182.0</ele><time>2026-04-25T14:07:45Z</time></trkpt><trkpt lat="43.84576525691012" lon="12.643031095620861"><ele>182.0</ele><time>2026-04-25T14:07:46Z</time></trkpt><trkpt lat="43.845846698173034" lon="12.643090207303505"><ele>182.39999999999998</ele><time>2026-04-25T14:07:47Z</time></trkpt><trkpt lat="43.84593647533455" lon="12.643109105673904"><ele>182.79999999999998</ele><time>2026-04-25T14:07:48Z</time></trkpt><trkpt lat="43.84602828202139" lon="12.643092841902455"><ele>183.2</ele><time>2026-04-25T14:07:49Z</time></trkpt><trkpt lat="43.84612577043451" lon="12.643043928865243"><ele>183.6</ele><time>2026-04-25T14:07:50Z</time></trkpt><trkpt lat="43.84623078735025" lon="12.642974041533225"><ele>184.0</ele><time>2026-04-25T14:07:51Z</time></trkpt><trkpt lat="43.84634566803913" lon="12.642908850477435"><ele>187.0</ele><time>2026-04-25T14:07:52Z</time></trkpt><trkpt lat="43.846468544898244" lon="12.64284511746228"><ele>190.0</ele><time>2026-04-25T14:07:53Z</time></trkpt><trkpt lat="43.846599737232516" lon="12.642787929224935"><ele>193.0</ele><time>2026-04-25T14:07:54Z</time></trkpt><trkpt lat="43.84673998691517" lon="12.642731008013758"><ele>196.0</ele><time>2026-04-25T14:07:55Z</time></trkpt><trkpt lat="43.84688004805229" lon="12.642669966497595"><ele>200.4</ele><time>2026-04-25T14:07:56Z</time></trkpt><trkpt lat="43.84700450042983" lon="12.642642665225823"><ele>204.8</ele><time>2026-04-25T14:07:57Z</time></trkpt><trkpt lat="43.84709379538748" lon="12.642618289364385"><ele>209.20000000000002</ele><time>2026-04-25T14:07:58Z</time></trkpt><trkpt lat="43.84718330816585" lon="12.64264798280064"><ele>213.60000000000002</ele><time>2026-04-25T14:08:00Z</time></trkpt><trkpt lat="43.847174908947906" lon="12.64275310540346"><ele>218.0</ele><time>2026-04-25T14:08:01Z</time></trkpt><trkpt lat="43.847132165992406" lon="12.642833516351523"><ele>218.33333333333334</ele><time>2026-04-25T14:08:02Z</time></trkpt><trkpt lat="43.84713849049946" lon="12.642936379192323"><ele>218.66666666666669</ele><time>2026-04-25T14:08:03Z</time></trkpt><trkpt lat="43.847177661093944" lon="12.643053868368888"><ele>219.0</ele><time>2026-04-25T14:08:04Z</time></trkpt><trkpt lat="43.84722186647703" lon="12.643147795870291"><ele>219.33333333333331</ele><time>2026-04-25T14:08:05Z</time></trkpt><trkpt lat="43.84729404063736" lon="12.643196229772402"><ele>219.66666666666666</ele><time>2026-04-25T14:08:06Z</time></trkpt><trkpt lat="43.84738156313606" lon="12.64323629252793"><ele>220.0</ele><time>2026-04-25T14:08:07Z</time></trkpt><trkpt lat="43.84747778264042" lon="12.643270137464743"><ele>219.99999999999997</ele><time>2026-04-25T14:08:08Z</time></trkpt><trkpt lat="43.847578200354235" lon="12.643301473141417"><ele>220.0</ele><time>2026-04-25T14:08:09Z</time></trkpt><trkpt lat="43.84767594753142" lon="12.643314770874113"><ele>220.0</ele><time>2026-04-25T14:08:10Z</time></trkpt><trkpt lat="43.84774828606676" lon="12.643314227265043"><ele>220.0</ele><time>2026-04-25T14:08:11Z</time></trkpt><trkpt lat="43.847810924465776" lon="12.64329238218584"><ele>219.99999999999997</ele><time>2026-04-25T14:08:12Z</time></trkpt><trkpt lat="43.84786861534407" lon="12.643235324538209"><ele>220.0</ele><time>2026-04-25T14:08:13Z</time></trkpt><trkpt lat="43.84792184162304" lon="12.643151219502078"><ele>220.99999999999997</ele><time>2026-04-25T14:08:14Z</time></trkpt><trkpt lat="43.84795376728556" lon="12.643042584798375"><ele>222.0</ele><time>2026-04-25T14:08:15Z</time></trkpt><trkpt lat="43.84795981796163" lon="12.642904136377194"><ele>223.0</ele><time>2026-04-25T14:08:16Z</time></trkpt><trkpt lat="43.84794437641451" lon="12.64275618804103"><ele>224.0</ele><time>2026-04-25T14:08:17Z</time></trkpt><trkpt lat="43.84791898850356" lon="12.642641457845642"><ele>224.99999999999997</ele><time>2026-04-25T14:08:18Z</time></trkpt><trkpt lat="43.84793247479618" lon="12.642546216329055"><ele>226.0</ele><time>2026-04-25T14:08:19Z</time></trkpt><trkpt lat="43.84795133639527" lon="12.64246263529762"><ele>226.99999999999997</ele><time>2026-04-25T14:08:20Z</time></trkpt><trkpt lat="43.84799959806933" lon="12.642384349933684"><ele>228.0</ele><time>2026-04-25T14:08:21Z</time></trkpt><trkpt lat="43.84806596552504" lon="12.642310406557868"><ele>229.0</ele><time>2026-04-25T14:08:22Z</time></trkpt><trkpt lat="43.84813521616009" lon="12.642258653113737"><ele>230.0</ele><time>2026-04-25T14:08:23Z</time></trkpt><trkpt lat="43.84822038852423" lon="12.642216928799053"><ele>230.99999999999997</ele><time>2026-04-25T14:08:24Z</time></trkpt><trkpt lat="43.848316580477054" lon="12.64220247853872"><ele>232.0</ele><time>2026-04-25T14:08:25Z</time></trkpt><trkpt lat="43.84840987113617" lon="12.642183402402761"><ele>232.2</ele><time>2026-04-25T14:08:26Z</time></trkpt><trkpt lat="43.848502243188584" lon="12.642162959517098"><ele>232.39999999999998</ele><time>2026-04-25T14:08:27Z</time></trkpt><trkpt lat="43.84858957371713" lon="12.642133623001131"><ele>232.60000000000002</ele><time>2026-04-25T14:08:28Z</time></trkpt><trkpt lat="43.848678730808466" lon="12.642063384629816"><ele>232.8</ele><time>2026-04-25T14:08:29Z</time></trkpt><trkpt lat="43.8487749286485" lon="12.641993695239378"><ele>233.0</ele><time>2026-04-25T14:08:30Z</time></trkpt><trkpt lat="43.84887871110377" lon="12.641893913945767"><ele>235.75</ele><time>2026-04-25T14:08:31Z</time></trkpt><trkpt lat="43.84900443331709" lon="12.64177429646783"><ele>238.5</ele><time>2026-04-25T14:08:32Z</time></trkpt><trkpt lat="43.849119618110834" lon="12.641658241905374"><ele>241.25</ele><time>2026-04-25T14:08:33Z</time></trkpt><trkpt lat="43.84921119547762" lon="12.641548465788684"><ele>244.0</ele><time>2026-04-25T14:08:34Z</time></trkpt><trkpt lat="43.849296649052995" lon="12.64141827168089"><ele>245.25</ele><time>2026-04-25T14:08:35Z</time></trkpt><trkpt lat="43.84937611658606" lon="12.641258206316687"><ele>246.5</ele><time>2026-04-25T14:08:36Z</time></trkpt><trkpt lat="43.849454941907936" lon="12.64109979862315"><ele>247.75</ele><time>2026-04-25T14:08:37Z</time></trkpt><trkpt lat="43.84952043790798" lon="12.640971398706043"><ele>249.0</ele><time>2026-04-25T14:08:38Z</time></trkpt><trkpt lat="43.849599147564554" lon="12.640901201702352"><ele>250.33333333333334</ele><time>2026-04-25T14:08:39Z</time></trkpt><trkpt lat="43.849663719902175" lon="12.640847198185899"><ele>251.66666666666669</ele><time>2026-04-25T14:08:40Z</time></trkpt><trkpt lat="43.849728297000816" lon="12.640790892116952"><ele>253.0</ele><time>2026-04-25T14:08:41Z</time></trkpt><trkpt lat="43.84979657152506" lon="12.640737817296728"><ele>254.33333333333334</ele><time>2026-04-25T14:08:42Z</time></trkpt><trkpt lat="43.84986962037258" lon="12.640688252970149"><ele>255.66666666666669</ele><time>2026-04-25T14:08:43Z</time></trkpt><trkpt lat="43.84994494546317" lon="12.640645017979299"><ele>257.0</ele><time>2026-04-25T14:08:44Z</time></trkpt><trkpt lat="43.850038362674475" lon="12.640611348197694"><ele>258.4</ele><time>2026-04-25T14:08:46Z</time></trkpt><trkpt lat="43.850148570700604" lon="12.640628788830908"><ele>259.79999999999995</ele><time>2026-04-25T14:08:48Z</time></trkpt><trkpt lat="43.85022562846884" lon="12.640677918235399"><ele>261.2</ele><time>2026-04-25T14:08:49Z</time></trkpt><trkpt lat="43.85032032343026" lon="12.640729760976482"><ele>262.59999999999997</ele><time>2026-04-25T14:08:50Z</time></trkpt><trkpt lat="43.85042776994594" lon="12.640771372034688"><ele>264.0</ele><time>2026-04-25T14:08:51Z</time></trkpt><trkpt lat="43.85053507432679" lon="12.640816248905157"><ele>264.0</ele><time>2026-04-25T14:08:52Z</time></trkpt><trkpt lat="43.85066265653182" lon="12.64084199689198"><ele>264.0</ele><time>2026-04-25T14:08:53Z</time></trkpt><trkpt lat="43.850768911399875" lon="12.640845703936094"><ele>264.0</ele><time>2026-04-25T14:08:54Z</time></trkpt><trkpt lat="43.85085722253829" lon="12.640869184784732"><ele>264.0</ele><time>2026-04-25T14:08:55Z</time></trkpt><trkpt lat="43.850914811703774" lon="12.640934317697536"><ele>264.0</ele><time>2026-04-25T14:08:56Z</time></trkpt><trkpt lat="43.850925769188834" lon="12.641048851708515"><ele>263.2</ele><time>2026-04-25T14:08:57Z</time></trkpt><trkpt lat="43.850942030968554" lon="12.64119662978134"><ele>262.4</ele><time>2026-04-25T14:08:58Z</time></trkpt><trkpt lat="43.85097781618664" lon="12.641348067571863"><ele>261.6</ele><time>2026-04-25T14:08:59Z</time></trkpt><trkpt lat="43.85099680543391" lon="12.641501575589242"><ele>260.8</ele><time>2026-04-25T14:09:00Z</time></trkpt><trkpt lat="43.851040894842136" lon="12.641621926381507"><ele>260.0</ele><time>2026-04-25T14:09:01Z</time></trkpt><trkpt lat="43.85110576678501" lon="12.641708203456808"><ele>260.5</ele><time>2026-04-25T14:09:02Z</time></trkpt><trkpt lat="43.851192815465154" lon="12.641790267963069"><ele>261.0</ele><time>2026-04-25T14:09:03Z</time></trkpt><trkpt lat="43.85128897439055" lon="12.64187396833635"><ele>261.5</ele><time>2026-04-25T14:09:04Z</time></trkpt><trkpt lat="43.85139057854834" lon="12.64195833147883"><ele>262.0</ele><time>2026-04-25T14:09:05Z</time></trkpt><trkpt lat="43.85148144476126" lon="12.642054124314004"><ele>262.0</ele><time>2026-04-25T14:09:06Z</time></trkpt><trkpt lat="43.85156344726808" lon="12.642152788140207"><ele>262.0</ele><time>2026-04-25T14:09:07Z</time></trkpt><trkpt lat="43.85162713864722" lon="12.64223601912787"><ele>262.0</ele><time>2026-04-25T14:09:08Z</time></trkpt><trkpt lat="43.85168473394463" lon="12.642308802341192"><ele>262.0</ele><time>2026-04-25T14:09:09Z</time></trkpt><trkpt lat="43.85173226435379" lon="12.642369469862532"><ele>262.0</ele><time>2026-04-25T14:09:10Z</time></trkpt><trkpt lat="43.851823481956764" lon="12.642453720234563"><ele>262.0</ele><time>2026-04-25T14:09:12Z</time></trkpt><trkpt lat="43.851942497799534" lon="12.642468401100423"><ele>262.8333333333333</ele><time>2026-04-25T14:09:14Z</time></trkpt><trkpt lat="43.85202304963853" lon="12.642455152935957"><ele>263.66666666666663</ele><time>2026-04-25T14:09:15Z</time></trkpt><trkpt lat="43.85210436359318" lon="12.642440742801414"><ele>264.5</ele><time>2026-04-25T14:09:16Z</time></trkpt><trkpt lat="43.852182973728794" lon="12.642427845156297"><ele>265.3333333333333</ele><time>2026-04-25T14:09:17Z</time></trkpt><trkpt lat="43.85225623592014" lon="12.64243473885864"><ele>266.1666666666667</ele><time>2026-04-25T14:09:18Z</time></trkpt><trkpt lat="43.852322345832135" lon="12.64249803757499"><ele>267.0</ele><time>2026-04-25T14:09:19Z</time></trkpt><trkpt lat="43.85238403562754" lon="12.642609471857668"><ele>267.0</ele><time>2026-04-25T14:09:20Z</time></trkpt><trkpt lat="43.85246816689095" lon="12.642727000932236"><ele>267.0</ele><time>2026-04-25T14:09:21Z</time></trkpt><trkpt lat="43.852553339512156" lon="12.64284500754952"><ele>267.0</ele><time>2026-04-25T14:09:22Z</time></trkpt><trkpt lat="43.85261374800709" lon="12.642971946760467"><ele>267.0</ele><time>2026-04-25T14:09:23Z</time></trkpt><trkpt lat="43.852655138444426" lon="12.643096827670691"><ele>267.0</ele><time>2026-04-25T14:09:24Z</time></trkpt><trkpt lat="43.85270389206474" lon="12.643227609518673"><ele>267.8</ele><time>2026-04-25T14:09:25Z</time></trkpt><trkpt lat="43.852763198701375" lon="12.6433314440568"><ele>268.6</ele><time>2026-04-25T14:09:26Z</time></trkpt><trkpt lat="43.85282265544187" lon="12.64343133455903"><ele>269.40000000000003</ele><time>2026-04-25T14:09:27Z</time></trkpt><trkpt lat="43.852889134453214" lon="12.643521223256485"><ele>270.2</ele><time>2026-04-25T14:09:28Z</time></trkpt><trkpt lat="43.85297011674429" lon="12.643595729830018"><ele>271.0</ele><time>2026-04-25T14:09:29Z</time></trkpt><trkpt lat="43.85306322358698" lon="12.643667043497173"><ele>271.0</ele><time>2026-04-25T14:09:30Z</time></trkpt><trkpt lat="43.85316319762547" lon="12.643746383467835"><ele>271.0</ele><time>2026-04-25T14:09:31Z</time></trkpt><trkpt lat="43.85326507900931" lon="12.643823341065572"><ele>271.0</ele><time>2026-04-25T14:09:32Z</time></trkpt><trkpt lat="43.8533555923793" lon="12.643887934721036"><ele>271.0</ele><time>2026-04-25T14:09:33Z</time></trkpt><trkpt lat="43.853438709633814" lon="12.643931607721669"><ele>271.0</ele><time>2026-04-25T14:09:34Z</time></trkpt><trkpt lat="43.853528785117845" lon="12.643950414140996"><ele>274.75</ele><time>2026-04-25T14:09:35Z</time></trkpt><trkpt lat="43.853622970057884" lon="12.643940102797199"><ele>278.5</ele><time>2026-04-25T14:09:36Z</time></trkpt><trkpt lat="43.85374841446366" lon="12.643910770792639"><ele>282.25</ele><time>2026-04-25T14:09:37Z</time></trkpt><trkpt lat="43.85388033313517" lon="12.64388826033596"><ele>286.0</ele><time>2026-04-25T14:09:38Z</time></trkpt><trkpt lat="43.8539965795818" lon="12.643874305481457"><ele>286.0</ele><time>2026-04-25T14:09:39Z</time></trkpt><trkpt lat="43.85408635437536" lon="12.643892599501926"><ele>286.0</ele><time>2026-04-25T14:09:40Z</time></trkpt><trkpt lat="43.854150789575144" lon="12.643931854206096"><ele>286.0</ele><time>2026-04-25T14:09:41Z</time></trkpt><trkpt lat="43.85419780488119" lon="12.643994737449077"><ele>286.0</ele><time>2026-04-25T14:09:42Z</time></trkpt><trkpt lat="43.85425183255465" lon="12.644104984791538"><ele>286.0</ele><time>2026-04-25T14:09:43Z</time></trkpt><trkpt lat="43.854339552881534" lon="12.64419486204011"><ele>286.0</ele><time>2026-04-25T14:09:44Z</time></trkpt><trkpt lat="43.85443671676101" lon="12.644268904258753"><ele>289.0</ele><time>2026-04-25T14:09:45Z</time></trkpt><trkpt lat="43.85455404734268" lon="12.644355509156627"><ele>292.0</ele><time>2026-04-25T14:09:46Z</time></trkpt><trkpt lat="43.8546727583777" lon="12.644446354857697"><ele>295.0</ele><time>2026-04-25T14:09:47Z</time></trkpt><trkpt lat="43.85479777966256" lon="12.64454573923465"><ele>298.0</ele><time>2026-04-25T14:09:48Z</time></trkpt><trkpt lat="43.85491597424021" lon="12.644667345550518"><ele>298.0</ele><time>2026-04-25T14:09:49Z</time></trkpt><trkpt lat="43.855032262563554" lon="12.644768244249121"><ele>298.0</ele><time>2026-04-25T14:09:50Z</time></trkpt><trkpt lat="43.85514382600402" lon="12.644837397654177"><ele>298.0</ele><time>2026-04-25T14:09:51Z</time></trkpt><trkpt lat="43.85525092886146" lon="12.644915620214737"><ele>298.0</ele><time>2026-04-25T14:09:52Z</time></trkpt><trkpt lat="43.85535986442722" lon="12.644982677901487"><ele>302.0</ele><time>2026-04-25T14:09:53Z</time></trkpt><trkpt lat="43.855451076220994" lon="12.645025014925295"><ele>306.0</ele><time>2026-04-25T14:09:54Z</time></trkpt><trkpt lat="43.855539830516996" lon="12.645077701343078"><ele>310.0</ele><time>2026-04-25T14:09:55Z</time></trkpt><trkpt lat="43.85562145285768" lon="12.645155742704295"><ele>314.0</ele><time>2026-04-25T14:09:56Z</time></trkpt><trkpt lat="43.85566283673925" lon="12.645261143895564"><ele>318.0</ele><time>2026-04-25T14:09:57Z</time></trkpt><trkpt lat="43.855716836248256" lon="12.64536316189263"><ele>318.0</ele><time>2026-04-25T14:09:58Z</time></trkpt><trkpt lat="43.85574041699639" lon="12.645495837038784"><ele>318.0</ele><time>2026-04-25T14:09:59Z</time></trkpt><trkpt lat="43.85571762070016" lon="12.645638902948575"><ele>318.0</ele><time>2026-04-25T14:10:00Z</time></trkpt><trkpt lat="43.85567031442571" lon="12.645774955479354"><ele>318.0</ele><time>2026-04-25T14:10:01Z</time></trkpt><trkpt lat="43.855606698132064" lon="12.645916409630695"><ele>318.0</ele><time>2026-04-25T14:10:02Z</time></trkpt><trkpt lat="43.85553939637132" lon="12.64607294357997"><ele>320.6</ele><time>2026-04-25T14:10:03Z</time></trkpt><trkpt lat="43.8554563915368" lon="12.646220647229205"><ele>323.20000000000005</ele><time>2026-04-25T14:10:04Z</time></trkpt><trkpt lat="43.85538817083613" lon="12.646347080336561"><ele>325.8</ele><time>2026-04-25T14:10:05Z</time></trkpt><trkpt lat="43.85533914112829" lon="12.646461606723017"><ele>328.40000000000003</ele><time>2026-04-25T14:10:06Z</time></trkpt><trkpt lat="43.85531104726663" lon="12.64654755851894"><ele>331.0</ele><time>2026-04-25T14:10:07Z</time></trkpt><trkpt lat="43.855291436707226" lon="12.646631796796969"><ele>331.0</ele><time>2026-04-25T14:10:08Z</time></trkpt><trkpt lat="43.85530738732259" lon="12.646822287855437"><ele>331.0</ele><time>2026-04-25T14:10:10Z</time></trkpt><trkpt lat="43.855323228699305" lon="12.646945088839612"><ele>331.0</ele><time>2026-04-25T14:10:11Z</time></trkpt><trkpt lat="43.855337294387596" lon="12.647098151734442"><ele>331.0</ele><time>2026-04-25T14:10:12Z</time></trkpt><trkpt lat="43.85533447890802" lon="12.647256205751777"><ele>332.0</ele><time>2026-04-25T14:10:13Z</time></trkpt><trkpt lat="43.85531753491595" lon="12.647401471503176"><ele>333.0</ele><time>2026-04-25T14:10:14Z</time></trkpt><trkpt lat="43.85528082805056" lon="12.647543610849581"><ele>334.0</ele><time>2026-04-25T14:10:15Z</time></trkpt><trkpt lat="43.85520378110305" lon="12.647660488875285"><ele>335.0</ele><time>2026-04-25T14:10:16Z</time></trkpt><trkpt lat="43.85513060258897" lon="12.647783581287166"><ele>336.0</ele><time>2026-04-25T14:10:17Z</time></trkpt><trkpt lat="43.85504016889458" lon="12.647920889997744"><ele>336.0</ele><time>2026-04-25T14:10:18Z</time></trkpt><trkpt lat="43.85494491631064" lon="12.648028099470197"><ele>336.0</ele><time>2026-04-25T14:10:19Z</time></trkpt><trkpt lat="43.854844174986205" lon="12.64811304935913"><ele>336.0</ele><time>2026-04-25T14:10:20Z</time></trkpt><trkpt lat="43.85475666788181" lon="12.648174395469443"><ele>336.0</ele><time>2026-04-25T14:10:21Z</time></trkpt><trkpt lat="43.85468591228256" lon="12.64822880500092"><ele>336.0</ele><time>2026-04-25T14:10:22Z</time></trkpt><trkpt lat="43.85459844059781" lon="12.648333826832138"><ele>336.0</ele><time>2026-04-25T14:10:24Z</time></trkpt><trkpt lat="43.854591394640465" lon="12.648496403389313"><ele>336.0</ele><time>2026-04-25T14:10:26Z</time></trkpt><trkpt lat="43.85463136192189" lon="12.648590288950079"><ele>336.0</ele><time>2026-04-25T14:10:27Z</time></trkpt><trkpt lat="43.854688222681986" lon="12.648682101940654"><ele>336.0</ele><time>2026-04-25T14:10:28Z</time></trkpt><trkpt lat="43.85475042339746" lon="12.648779274172659"><ele>336.0</ele><time>2026-04-25T14:10:29Z</time></trkpt><trkpt lat="43.854820204176285" lon="12.648876664838385"><ele>336.8</ele><time>2026-04-25T14:10:30Z</time></trkpt><trkpt lat="43.85489783428588" lon="12.648973507205172"><ele>337.6</ele><time>2026-04-25T14:10:31Z</time></trkpt><trkpt lat="43.85498022565732" lon="12.649078012681237"><ele>338.4</ele><time>2026-04-25T14:10:32Z</time></trkpt><trkpt lat="43.855059207846764" lon="12.649198531151368"><ele>339.2</ele><time>2026-04-25T14:10:33Z</time></trkpt><trkpt lat="43.85511177796676" lon="12.64932102406426"><ele>340.0</ele><time>2026-04-25T14:10:34Z</time></trkpt><trkpt lat="43.8551505371037" lon="12.649421826322582"><ele>344.2</ele><time>2026-04-25T14:10:35Z</time></trkpt><trkpt lat="43.855183143297815" lon="12.649543438501269"><ele>348.4</ele><time>2026-04-25T14:10:36Z</time></trkpt><trkpt lat="43.85521523612891" lon="12.649693287794681"><ele>352.6</ele><time>2026-04-25T14:10:37Z</time></trkpt><trkpt lat="43.855253254130425" lon="12.649847293966554"><ele>356.8</ele><time>2026-04-25T14:10:38Z</time></trkpt><trkpt lat="43.85528645313769" lon="12.650014619684"><ele>361.0</ele><time>2026-04-25T14:10:39Z</time></trkpt><trkpt lat="43.855328553964505" lon="12.650184956570008"><ele>361.0</ele><time>2026-04-25T14:10:40Z</time></trkpt><trkpt lat="43.85537737059859" lon="12.65036610648917"><ele>361.0</ele><time>2026-04-25T14:10:41Z</time></trkpt><trkpt lat="43.85541224596703" lon="12.650550675489558"><ele>361.0</ele><time>2026-04-25T14:10:42Z</time></trkpt><trkpt lat="43.855442086415266" lon="12.650731655653964"><ele>361.0</ele><time>2026-04-25T14:10:43Z</time></trkpt><trkpt lat="43.8554684987021" lon="12.650905761389225"><ele>361.0</ele><time>2026-04-25T14:10:44Z</time></trkpt><trkpt lat="43.85549971837934" lon="12.651062757173992"><ele>361.0</ele><time>2026-04-25T14:10:45Z</time></trkpt><trkpt lat="43.855522861642854" lon="12.651204714259936"><ele>361.0</ele><time>2026-04-25T14:10:46Z</time></trkpt><trkpt lat="43.85554938487563" lon="12.651333258584156"><ele>361.0</ele><time>2026-04-25T14:10:47Z</time></trkpt><trkpt lat="43.85557559956311" lon="12.651453679692208"><ele>361.0</ele><time>2026-04-25T14:10:48Z</time></trkpt><trkpt lat="43.85559810594458" lon="12.651570489787552"><ele>361.20000000000005</ele><time>2026-04-25T14:10:49Z</time></trkpt><trkpt lat="43.85558863601399" lon="12.651695001713064"><ele>361.40000000000003</ele><time>2026-04-25T14:10:50Z</time></trkpt><trkpt lat="43.85557030182368" lon="12.651804970048376"><ele>361.6</ele><time>2026-04-25T14:10:51Z</time></trkpt><trkpt lat="43.85557252560976" lon="12.651897478490461"><ele>361.8</ele><time>2026-04-25T14:10:52Z</time></trkpt><trkpt lat="43.85558590188206" lon="12.65209398012614"><ele>362.0</ele><time>2026-04-25T14:10:54Z</time></trkpt><trkpt lat="43.85559719202295" lon="12.652220109026691"><ele>362.0</ele><time>2026-04-25T14:10:55Z</time></trkpt><trkpt lat="43.855602358344875" lon="12.65235843391999"><ele>362.0</ele><time>2026-04-25T14:10:56Z</time></trkpt><trkpt lat="43.85559505677396" lon="12.652517529383775"><ele>362.0</ele><time>2026-04-25T14:10:57Z</time></trkpt><trkpt lat="43.85558250660639" lon="12.652689803725695"><ele>362.0</ele><time>2026-04-25T14:10:58Z</time></trkpt><trkpt lat="43.85557402949973" lon="12.652875920073688"><ele>363.25</ele><time>2026-04-25T14:10:59Z</time></trkpt><trkpt lat="43.85557185518337" lon="12.653069774038876"><ele>364.5</ele><time>2026-04-25T14:11:00Z</time></trkpt><trkpt lat="43.85556962299983" lon="12.653272068133884"><ele>365.75</ele><time>2026-04-25T14:11:01Z</time></trkpt><trkpt lat="43.855572396222804" lon="12.653477365837434"><ele>367.0</ele><time>2026-04-25T14:11:02Z</time></trkpt><trkpt lat="43.85557526886237" lon="12.653679334652967"><ele>369.25</ele><time>2026-04-25T14:11:03Z</time></trkpt><trkpt lat="43.85558062420793" lon="12.653866273298705"><ele>371.5</ele><time>2026-04-25T14:11:04Z</time></trkpt><trkpt lat="43.85560353049409" lon="12.654046674372532"><ele>373.75</ele><time>2026-04-25T14:11:05Z</time></trkpt><trkpt lat="43.855664046676395" lon="12.65421459868031"><ele>376.0</ele><time>2026-04-25T14:11:06Z</time></trkpt><trkpt lat="43.85575259881663" lon="12.65437134271095"><ele>376.5</ele><time>2026-04-25T14:11:07Z</time></trkpt><trkpt lat="43.855843182028465" lon="12.654503757770547"><ele>377.0</ele><time>2026-04-25T14:11:08Z</time></trkpt><trkpt lat="43.855943647979984" lon="12.654614624039649"><ele>377.5</ele><time>2026-04-25T14:11:09Z</time></trkpt><trkpt lat="43.856059154530726" lon="12.654711639074895"><ele>378.0</ele><time>2026-04-25T14:11:10Z</time></trkpt><trkpt lat="43.856190805118786" lon="12.654788903348086"><ele>378.0</ele><time>2026-04-25T14:11:11Z</time></trkpt><trkpt lat="43.85632879393188" lon="12.654842516049408"><ele>378.0</ele><time>2026-04-25T14:11:12Z</time></trkpt><trkpt lat="43.85644897846049" lon="12.654890132578018"><ele>378.0</ele><time>2026-04-25T14:11:13Z</time></trkpt><trkpt lat="43.856554811811826" lon="12.654970319246196"><ele>378.0</ele><time>2026-04-25T14:11:14Z</time></trkpt><trkpt lat="43.85662059728674" lon="12.655054259567208"><ele>378.0</ele><time>2026-04-25T14:11:15Z</time></trkpt><trkpt lat="43.85666649532038" lon="12.655144075638855"><ele>378.0</ele><time>2026-04-25T14:11:16Z</time></trkpt><trkpt lat="43.8566866468643" lon="12.655242344861485"><ele>378.0</ele><time>2026-04-25T14:11:17Z</time></trkpt><trkpt lat="43.85667842447333" lon="12.655349459652443"><ele>378.0</ele><time>2026-04-25T14:11:18Z</time></trkpt><trkpt lat="43.85667997772244" lon="12.655514068662166"><ele>378.0</ele><time>2026-04-25T14:11:19Z</time></trkpt><trkpt lat="43.85668087962629" lon="12.655707775358684"><ele>375.75</ele><time>2026-04-25T14:11:20Z</time></trkpt><trkpt lat="43.85668821419385" lon="12.655890307205322"><ele>373.5</ele><time>2026-04-25T14:11:21Z</time></trkpt><trkpt lat="43.85670245187975" lon="12.656044764271535"><ele>371.25</ele><time>2026-04-25T14:11:22Z</time></trkpt><trkpt lat="43.856745238200624" lon="12.656190465089828"><ele>369.0</ele><time>2026-04-25T14:11:23Z</time></trkpt><trkpt lat="43.85678679133808" lon="12.656328450838352"><ele>369.0</ele><time>2026-04-25T14:11:24Z</time></trkpt><trkpt lat="43.856850501633716" lon="12.656443546847877"><ele>369.0</ele><time>2026-04-25T14:11:25Z</time></trkpt><trkpt lat="43.85694193027547" lon="12.656537230597028"><ele>369.0</ele><time>2026-04-25T14:11:26Z</time></trkpt><trkpt lat="43.85705348066373" lon="12.656606423223439"><ele>369.0</ele><time>2026-04-25T14:11:27Z</time></trkpt><trkpt lat="43.85715896304733" lon="12.656654085049105"><ele>369.0</ele><time>2026-04-25T14:11:28Z</time></trkpt><trkpt lat="43.85723518667487" lon="12.656732940608954"><ele>369.0</ele><time>2026-04-25T14:11:29Z</time></trkpt><trkpt lat="43.857287745655256" lon="12.656814975445768"><ele>369.0</ele><time>2026-04-25T14:11:30Z</time></trkpt><trkpt lat="43.85730901929308" lon="12.656897241266703"><ele>369.0</ele><time>2026-04-25T14:11:31Z</time></trkpt><trkpt lat="43.85729419403996" lon="12.656986225505989"><ele>369.0</ele><time>2026-04-25T14:11:32Z</time></trkpt><trkpt lat="43.85724693210656" lon="12.65706937006871"><ele>369.0</ele><time>2026-04-25T14:11:33Z</time></trkpt><trkpt lat="43.857189835612814" lon="12.65718665260102"><ele>370.75</ele><time>2026-04-25T14:11:34Z</time></trkpt><trkpt lat="43.85712332723675" lon="12.657321254642758"><ele>372.5</ele><time>2026-04-25T14:11:35Z</time></trkpt><trkpt lat="43.85707424839271" lon="12.657464601202095"><ele>374.25</ele><time>2026-04-25T14:11:36Z</time></trkpt><trkpt lat="43.85702242599692" lon="12.657611621428556"><ele>376.0</ele><time>2026-04-25T14:11:37Z</time></trkpt><trkpt lat="43.857043200765006" lon="12.657760212809904"><ele>377.75</ele><time>2026-04-25T14:11:38Z</time></trkpt><trkpt lat="43.85710027341178" lon="12.657906205916852"><ele>379.5</ele><time>2026-04-25T14:11:39Z</time></trkpt><trkpt lat="43.85718449514353" lon="12.658051768980108"><ele>381.25</ele><time>2026-04-25T14:11:40Z</time></trkpt><trkpt lat="43.85728521107351" lon="12.658185593165722"><ele>383.0</ele><time>2026-04-25T14:11:41Z</time></trkpt><trkpt lat="43.85739050808049" lon="12.658326996951116"><ele>383.0</ele><time>2026-04-25T14:11:42Z</time></trkpt><trkpt lat="43.85748576081949" lon="12.658450937205686"><ele>383.0</ele><time>2026-04-25T14:11:43Z</time></trkpt><trkpt lat="43.857564931818104" lon="12.658564661085968"><ele>383.0</ele><time>2026-04-25T14:11:44Z</time></trkpt><trkpt lat="43.857631199193214" lon="12.658679719114856"><ele>383.0</ele><time>2026-04-25T14:11:45Z</time></trkpt><trkpt lat="43.85768124154467" lon="12.658811907372607"><ele>382.0</ele><time>2026-04-25T14:11:46Z</time></trkpt><trkpt lat="43.85770564204359" lon="12.658943657794632"><ele>381.0</ele><time>2026-04-25T14:11:47Z</time></trkpt><trkpt lat="43.857718797042196" lon="12.659095781347585"><ele>380.0</ele><time>2026-04-25T14:11:48Z</time></trkpt><trkpt lat="43.85769123416325" lon="12.65924504629851"><ele>379.0</ele><time>2026-04-25T14:11:49Z</time></trkpt><trkpt lat="43.85765689119379" lon="12.659410232657853"><ele>378.0</ele><time>2026-04-25T14:11:50Z</time></trkpt><trkpt lat="43.85761054645577" lon="12.659567043202602"><ele>378.0</ele><time>2026-04-25T14:11:51Z</time></trkpt><trkpt lat="43.857555436947614" lon="12.659728514276862"><ele>378.0</ele><time>2026-04-25T14:11:52Z</time></trkpt><trkpt lat="43.85749282141129" lon="12.65988140460374"><ele>378.0</ele><time>2026-04-25T14:11:53Z</time></trkpt><trkpt lat="43.85741970935697" lon="12.660036794484814"><ele>378.0</ele><time>2026-04-25T14:11:54Z</time></trkpt><trkpt lat="43.857347239287975" lon="12.660182111682667"><ele>377.5</ele><time>2026-04-25T14:11:55Z</time></trkpt><trkpt lat="43.85727014928594" lon="12.66033982701376"><ele>377.0</ele><time>2026-04-25T14:11:56Z</time></trkpt><trkpt lat="43.857211303718124" lon="12.660478651082249"><ele>376.5</ele><time>2026-04-25T14:11:57Z</time></trkpt><trkpt lat="43.85717840880055" lon="12.660634526352121"><ele>376.0</ele><time>2026-04-25T14:11:58Z</time></trkpt><trkpt lat="43.85713589290873" lon="12.660782866958918"><ele>376.0</ele><time>2026-04-25T14:11:59Z</time></trkpt><trkpt lat="43.857112570416525" lon="12.660948661670563"><ele>376.0</ele><time>2026-04-25T14:12:00Z</time></trkpt><trkpt lat="43.85709425846021" lon="12.66112739441435"><ele>376.0</ele><time>2026-04-25T14:12:01Z</time></trkpt><trkpt lat="43.85707190550492" lon="12.661313853732137"><ele>376.0</ele><time>2026-04-25T14:12:02Z</time></trkpt><trkpt lat="43.8570488225785" lon="12.66150680425685"><ele>378.75</ele><time>2026-04-25T14:12:03Z</time></trkpt><trkpt lat="43.85702634055277" lon="12.661700014506698"><ele>381.5</ele><time>2026-04-25T14:12:04Z</time></trkpt><trkpt lat="43.857004891721054" lon="12.66188481276483"><ele>384.25</ele><time>2026-04-25T14:12:05Z</time></trkpt><trkpt lat="43.85696516425741" lon="12.662043421674243"><ele>387.0</ele><time>2026-04-25T14:12:06Z</time></trkpt><trkpt lat="43.856962559438784" lon="12.662199150232142"><ele>388.25</ele><time>2026-04-25T14:12:07Z</time></trkpt><trkpt lat="43.85694825401479" lon="12.662350840262706"><ele>389.5</ele><time>2026-04-25T14:12:08Z</time></trkpt><trkpt lat="43.856941576809376" lon="12.662504824469305"><ele>390.75</ele><time>2026-04-25T14:12:09Z</time></trkpt><trkpt lat="43.8569575583028" lon="12.662660087151485"><ele>392.0</ele><time>2026-04-25T14:12:10Z</time></trkpt><trkpt lat="43.856987583467976" lon="12.66282353323579"><ele>392.25</ele><time>2026-04-25T14:12:11Z</time></trkpt><trkpt lat="43.85703253282666" lon="12.662987856467106"><ele>392.5</ele><time>2026-04-25T14:12:12Z</time></trkpt><trkpt lat="43.85707340881616" lon="12.663143345291457"><ele>392.75</ele><time>2026-04-25T14:12:13Z</time></trkpt><trkpt lat="43.857122169894886" lon="12.663318338949248"><ele>393.0</ele><time>2026-04-25T14:12:14Z</time></trkpt><trkpt lat="43.85716708629882" lon="12.663498422542881"><ele>391.25</ele><time>2026-04-25T14:12:15Z</time></trkpt><trkpt lat="43.85721967085673" lon="12.663687008555316"><ele>389.5</ele><time>2026-04-25T14:12:16Z</time></trkpt><trkpt lat="43.85727363323503" lon="12.663864963974147"><ele>387.75</ele><time>2026-04-25T14:12:17Z</time></trkpt><trkpt lat="43.85733005191329" lon="12.664046885161836"><ele>386.0</ele><time>2026-04-25T14:12:18Z</time></trkpt><trkpt lat="43.85736966658459" lon="12.664228589436746"><ele>386.0</ele><time>2026-04-25T14:12:19Z</time></trkpt><trkpt lat="43.8574281829152" lon="12.664396117686264"><ele>386.0</ele><time>2026-04-25T14:12:20Z</time></trkpt><trkpt lat="43.857468184636375" lon="12.664555521107717"><ele>386.0</ele><time>2026-04-25T14:12:21Z</time></trkpt><trkpt lat="43.85749952598684" lon="12.664707910926476"><ele>386.0</ele><time>2026-04-25T14:12:22Z</time></trkpt><trkpt lat="43.857520006018106" lon="12.664850608246086"><ele>386.0</ele><time>2026-04-25T14:12:23Z</time></trkpt><trkpt lat="43.85751684325264" lon="12.665001740406327"><ele>386.0</ele><time>2026-04-25T14:12:24Z</time></trkpt><trkpt lat="43.85748401488579" lon="12.665157784552552"><ele>386.0</ele><time>2026-04-25T14:12:25Z</time></trkpt><trkpt lat="43.85739457019063" lon="12.665249290422462"><ele>386.0</ele><time>2026-04-25T14:12:26Z</time></trkpt><trkpt lat="43.85733311566693" lon="12.665366062300398"><ele>386.0</ele><time>2026-04-25T14:12:27Z</time></trkpt><trkpt lat="43.857226850549736" lon="12.665407132495027"><ele>385.6</ele><time>2026-04-25T14:12:28Z</time></trkpt><trkpt lat="43.85710817594354" lon="12.665418173666332"><ele>385.20000000000005</ele><time>2026-04-25T14:12:29Z</time></trkpt><trkpt lat="43.8569875578164" lon="12.665415565722894"><ele>384.79999999999995</ele><time>2026-04-25T14:12:30Z</time></trkpt><trkpt lat="43.856878721261225" lon="12.665411928135294"><ele>384.4</ele><time>2026-04-25T14:12:31Z</time></trkpt><trkpt lat="43.8567854397539" lon="12.665451929157552"><ele>384.0</ele><time>2026-04-25T14:12:32Z</time></trkpt><trkpt lat="43.85669984248587" lon="12.665470599213538"><ele>384.0</ele><time>2026-04-25T14:12:33Z</time></trkpt><trkpt lat="43.856620205007204" lon="12.665497079926178"><ele>384.0</ele><time>2026-04-25T14:12:34Z</time></trkpt><trkpt lat="43.856549876449414" lon="12.665541636361509"><ele>384.0</ele><time>2026-04-25T14:12:35Z</time></trkpt><trkpt lat="43.85649017365231" lon="12.665631933836684"><ele>384.0</ele><time>2026-04-25T14:12:36Z</time></trkpt><trkpt lat="43.85644109060577" lon="12.665753323074934"><ele>384.0</ele><time>2026-04-25T14:12:37Z</time></trkpt><trkpt lat="43.856402092562334" lon="12.66587628022099"><ele>384.0</ele><time>2026-04-25T14:12:38Z</time></trkpt><trkpt lat="43.85637475911828" lon="12.666009417369136"><ele>384.0</ele><time>2026-04-25T14:12:39Z</time></trkpt><trkpt lat="43.85636238252563" lon="12.666148345117586"><ele>384.0</ele><time>2026-04-25T14:12:40Z</time></trkpt><trkpt lat="43.85637850942178" lon="12.666286085561824"><ele>384.0</ele><time>2026-04-25T14:12:41Z</time></trkpt><trkpt lat="43.856417878373676" lon="12.666430062087917"><ele>384.0</ele><time>2026-04-25T14:12:42Z</time></trkpt><trkpt lat="43.85648696367002" lon="12.666571367853196"><ele>384.0</ele><time>2026-04-25T14:12:43Z</time></trkpt><trkpt lat="43.85655801298377" lon="12.666725780609793"><ele>384.0</ele><time>2026-04-25T14:12:44Z</time></trkpt><trkpt lat="43.856627764211346" lon="12.666891604284057"><ele>384.0</ele><time>2026-04-25T14:12:45Z</time></trkpt><trkpt lat="43.856699480823806" lon="12.66706583826759"><ele>384.0</ele><time>2026-04-25T14:12:46Z</time></trkpt><trkpt lat="43.856771964584105" lon="12.667245091867894"><ele>384.0</ele><time>2026-04-25T14:12:47Z</time></trkpt><trkpt lat="43.85683552671031" lon="12.667404644250345"><ele>384.6</ele><time>2026-04-25T14:12:48Z</time></trkpt><trkpt lat="43.85689143316158" lon="12.66754897419429"><ele>385.2</ele><time>2026-04-25T14:12:49Z</time></trkpt><trkpt lat="43.85694316351941" lon="12.667679105223536"><ele>385.8</ele><time>2026-04-25T14:12:50Z</time></trkpt><trkpt lat="43.85700201404357" lon="12.667787207844988"><ele>386.40000000000003</ele><time>2026-04-25T14:12:51Z</time></trkpt><trkpt lat="43.85708325965951" lon="12.667892186534244"><ele>387.0</ele><time>2026-04-25T14:12:52Z</time></trkpt><trkpt lat="43.857183428803275" lon="12.667998925535468"><ele>385.8</ele><time>2026-04-25T14:12:53Z</time></trkpt><trkpt lat="43.85727399025635" lon="12.66809576197403"><ele>384.6</ele><time>2026-04-25T14:12:54Z</time></trkpt><trkpt lat="43.857347565127476" lon="12.668194769913127"><ele>383.40000000000003</ele><time>2026-04-25T14:12:55Z</time></trkpt><trkpt lat="43.857387417727665" lon="12.668324334572068"><ele>382.20000000000005</ele><time>2026-04-25T14:12:56Z</time></trkpt><trkpt lat="43.857422540890944" lon="12.668463501006126"><ele>381.0</ele><time>2026-04-25T14:12:57Z</time></trkpt><trkpt lat="43.85745694795907" lon="12.668617489094983"><ele>380.0</ele><time>2026-04-25T14:12:58Z</time></trkpt><trkpt lat="43.85749329581223" lon="12.66877692106342"><ele>379.0</ele><time>2026-04-25T14:12:59Z</time></trkpt><trkpt lat="43.85754266596831" lon="12.668935421710058"><ele>378.0</ele><time>2026-04-25T14:13:00Z</time></trkpt><trkpt lat="43.857576895329444" lon="12.669114920953884"><ele>377.0</ele><time>2026-04-25T14:13:01Z</time></trkpt><trkpt lat="43.8576144255826" lon="12.669298297553222"><ele>376.75</ele><time>2026-04-25T14:13:02Z</time></trkpt><trkpt lat="43.857653874928" lon="12.669477182360817"><ele>376.5</ele><time>2026-04-25T14:13:03Z</time></trkpt><trkpt lat="43.8576898789236" lon="12.669650201690422"><ele>376.25</ele><time>2026-04-25T14:13:04Z</time></trkpt><trkpt lat="43.85772356143641" lon="12.669810371755032"><ele>376.0</ele><time>2026-04-25T14:13:05Z</time></trkpt><trkpt lat="43.85775814163143" lon="12.669955509251693"><ele>376.0</ele><time>2026-04-25T14:13:06Z</time></trkpt><trkpt lat="43.85778827038099" lon="12.67008528534294"><ele>376.0</ele><time>2026-04-25T14:13:07Z</time></trkpt><trkpt lat="43.85781509673493" lon="12.670194788291445"><ele>376.0</ele><time>2026-04-25T14:13:08Z</time></trkpt><trkpt lat="43.8578339212965" lon="12.67028015482427"><ele>376.0</ele><time>2026-04-25T14:13:09Z</time></trkpt><trkpt lat="43.85785600970848" lon="12.670365334236138"><ele>376.0</ele><time>2026-04-25T14:13:11Z</time></trkpt><trkpt lat="43.85781396046016" lon="12.670447328750544"><ele>376.0</ele><time>2026-04-25T14:13:22Z</time></trkpt><trkpt lat="43.85788497586365" lon="12.670409972447649"><ele>376.0</ele><time>2026-04-25T14:22:52Z</time></trkpt><trkpt lat="43.8579153644337" lon="12.670326788075176"><ele>376.0</ele><time>2026-04-25T14:22:54Z</time></trkpt><trkpt lat="43.857964006653425" lon="12.67020180422158"><ele>376.0</ele><time>2026-04-25T14:22:56Z</time></trkpt><trkpt lat="43.85802619627269" lon="12.670041296298036"><ele>376.0</ele><time>2026-04-25T14:22:58Z</time></trkpt><trkpt lat="43.85807284089257" lon="12.669969970835727"><ele>376.0</ele><time>2026-04-25T14:22:59Z</time></trkpt><trkpt lat="43.85813479338266" lon="12.66991524457563"><ele>376.0</ele><time>2026-04-25T14:23:00Z</time></trkpt><trkpt lat="43.85820822771066" lon="12.669865744381433"><ele>376.0</ele><time>2026-04-25T14:23:01Z</time></trkpt><trkpt lat="43.8582911814001" lon="12.669822825169534"><ele>376.0</ele><time>2026-04-25T14:23:02Z</time></trkpt><trkpt lat="43.85838131185933" lon="12.669764320384516"><ele>376.0</ele><time>2026-04-25T14:23:03Z</time></trkpt><trkpt lat="43.85847896895056" lon="12.669704151271562"><ele>376.0</ele><time>2026-04-25T14:23:04Z</time></trkpt><trkpt lat="43.858572974730265" lon="12.669651081304751"><ele>376.0</ele><time>2026-04-25T14:23:05Z</time></trkpt><trkpt lat="43.85865536967801" lon="12.669600314188413"><ele>372.16666666666663</ele><time>2026-04-25T14:23:06Z</time></trkpt><trkpt lat="43.85872840709146" lon="12.669548756553835"><ele>368.3333333333333</ele><time>2026-04-25T14:23:07Z</time></trkpt><trkpt lat="43.858787016367906" lon="12.669479166965425"><ele>364.5</ele><time>2026-04-25T14:23:08Z</time></trkpt><trkpt lat="43.85883428949269" lon="12.669390943771145"><ele>360.6666666666667</ele><time>2026-04-25T14:23:09Z</time></trkpt><trkpt lat="43.85885509320559" lon="12.669282838773656"><ele>356.83333333333337</ele><time>2026-04-25T14:23:10Z</time></trkpt><trkpt lat="43.85886006923638" lon="12.669164458988778"><ele>353.0</ele><time>2026-04-25T14:23:11Z</time></trkpt><trkpt lat="43.85884680397202" lon="12.66902911883553"><ele>353.0</ele><time>2026-04-25T14:23:12Z</time></trkpt><trkpt lat="43.8588164038841" lon="12.668889653836985"><ele>353.0</ele><time>2026-04-25T14:23:13Z</time></trkpt><trkpt lat="43.858769730365914" lon="12.668750240857676"><ele>353.0</ele><time>2026-04-25T14:23:14Z</time></trkpt><trkpt lat="43.85871045373412" lon="12.668611338894483"><ele>353.0</ele><time>2026-04-25T14:23:15Z</time></trkpt><trkpt lat="43.858641118315305" lon="12.668479392603782"><ele>351.75</ele><time>2026-04-25T14:23:16Z</time></trkpt><trkpt lat="43.858569224701874" lon="12.668336164823653"><ele>350.5</ele><time>2026-04-25T14:23:17Z</time></trkpt><trkpt lat="43.85849111344338" lon="12.668188243023208"><ele>349.25</ele><time>2026-04-25T14:23:18Z</time></trkpt><trkpt lat="43.85842403288551" lon="12.668049774272044"><ele>348.0</ele><time>2026-04-25T14:23:19Z</time></trkpt><trkpt lat="43.8583800173993" lon="12.667913373263438"><ele>347.0</ele><time>2026-04-25T14:23:20Z</time></trkpt><trkpt lat="43.858394692671105" lon="12.667768474869561"><ele>346.0</ele><time>2026-04-25T14:23:21Z</time></trkpt><trkpt lat="43.85842792662021" lon="12.6676286679551"><ele>345.0</ele><time>2026-04-25T14:23:22Z</time></trkpt><trkpt lat="43.85848196087389" lon="12.667482752416456"><ele>344.0</ele><time>2026-04-25T14:23:23Z</time></trkpt><trkpt lat="43.85854522639709" lon="12.667316436380698"><ele>344.0</ele><time>2026-04-25T14:23:24Z</time></trkpt><trkpt lat="43.85861080774457" lon="12.667139694902957"><ele>344.0</ele><time>2026-04-25T14:23:25Z</time></trkpt><trkpt lat="43.85867118420192" lon="12.666979628550795"><ele>344.0</ele><time>2026-04-25T14:23:26Z</time></trkpt><trkpt lat="43.8587421235936" lon="12.666781793482993"><ele>344.0</ele><time>2026-04-25T14:23:27Z</time></trkpt><trkpt lat="43.85882474438014" lon="12.666612046004623"><ele>346.5</ele><time>2026-04-25T14:23:28Z</time></trkpt><trkpt lat="43.85891005073453" lon="12.666467972376923"><ele>349.0</ele><time>2026-04-25T14:23:29Z</time></trkpt><trkpt lat="43.859003536369556" lon="12.66634551807505"><ele>351.5</ele><time>2026-04-25T14:23:30Z</time></trkpt><trkpt lat="43.85912418263111" lon="12.666292117859221"><ele>354.0</ele><time>2026-04-25T14:23:31Z</time></trkpt><trkpt lat="43.8592395779212" lon="12.666249613889802"><ele>351.25</ele><time>2026-04-25T14:23:32Z</time></trkpt><trkpt lat="43.85936930450802" lon="12.666230349382447"><ele>348.5</ele><time>2026-04-25T14:23:33Z</time></trkpt><trkpt lat="43.85951265565423" lon="12.666225837983784"><ele>345.75</ele><time>2026-04-25T14:23:34Z</time></trkpt><trkpt lat="43.85966855127806" lon="12.666242589772523"><ele>343.0</ele><time>2026-04-25T14:23:35Z</time></trkpt><trkpt lat="43.85983699930419" lon="12.666276130768763"><ele>343.0</ele><time>2026-04-25T14:23:36Z</time></trkpt><trkpt lat="43.8600146770016" lon="12.666317470315876"><ele>343.0</ele><time>2026-04-25T14:23:37Z</time></trkpt><trkpt lat="43.860209380501104" lon="12.666345642786297"><ele>343.0</ele><time>2026-04-25T14:23:38Z</time></trkpt><trkpt lat="43.8604095636669" lon="12.666394890274166"><ele>341.3333333333333</ele><time>2026-04-25T14:23:39Z</time></trkpt><trkpt lat="43.86059533117129" lon="12.666433036153816"><ele>339.6666666666667</ele><time>2026-04-25T14:23:40Z</time></trkpt><trkpt lat="43.86077251588029" lon="12.66644727211354"><ele>338.0</ele><time>2026-04-25T14:23:41Z</time></trkpt><trkpt lat="43.86094443100902" lon="12.66646074706825"><ele>336.6666666666667</ele><time>2026-04-25T14:23:42Z</time></trkpt><trkpt lat="43.8611098274839" lon="12.666473778030099"><ele>335.3333333333333</ele><time>2026-04-25T14:23:43Z</time></trkpt><trkpt lat="43.8612734119566" lon="12.66648414284517"><ele>334.0</ele><time>2026-04-25T14:23:44Z</time></trkpt><trkpt lat="43.861424111843974" lon="12.666500117138867"><ele>334.0</ele><time>2026-04-25T14:23:45Z</time></trkpt><trkpt lat="43.86156567224033" lon="12.666530659376887"><ele>334.0</ele><time>2026-04-25T14:23:46Z</time></trkpt><trkpt lat="43.861693383227994" lon="12.666563493742906"><ele>334.0</ele><time>2026-04-25T14:23:47Z</time></trkpt><trkpt lat="43.86181362258505" lon="12.666590099328769"><ele>334.0</ele><time>2026-04-25T14:23:48Z</time></trkpt><trkpt lat="43.861926653316935" lon="12.666619083497"><ele>333.75</ele><time>2026-04-25T14:23:49Z</time></trkpt><trkpt lat="43.86204205186767" lon="12.666644260619"><ele>333.5</ele><time>2026-04-25T14:23:50Z</time></trkpt><trkpt lat="43.86216611189642" lon="12.666674267963675"><ele>333.25</ele><time>2026-04-25T14:23:51Z</time></trkpt><trkpt lat="43.86228787615869" lon="12.666695271640785"><ele>333.0</ele><time>2026-04-25T14:23:52Z</time></trkpt><trkpt lat="43.86240364833755" lon="12.666721385167218"><ele>333.0</ele><time>2026-04-25T14:23:53Z</time></trkpt><trkpt lat="43.862516724177404" lon="12.6667433781369"><ele>333.0</ele><time>2026-04-25T14:23:54Z</time></trkpt><trkpt lat="43.86262603002103" lon="12.666758908914256"><ele>333.0</ele><time>2026-04-25T14:23:55Z</time></trkpt><trkpt lat="43.862732631971085" lon="12.666776742540833"><ele>333.0</ele><time>2026-04-25T14:23:56Z</time></trkpt><trkpt lat="43.86283720791677" lon="12.666796142880495"><ele>333.0</ele><time>2026-04-25T14:23:57Z</time></trkpt><trkpt lat="43.86294274659888" lon="12.666807494292737"><ele>332.75</ele><time>2026-04-25T14:23:58Z</time></trkpt><trkpt lat="43.863054714378436" lon="12.666821040156066"><ele>332.5</ele><time>2026-04-25T14:23:59Z</time></trkpt><trkpt lat="43.86317108516638" lon="12.66683046967105"><ele>332.25</ele><time>2026-04-25T14:24:00Z</time></trkpt><trkpt lat="43.86328761448622" lon="12.666838361400625"><ele>332.0</ele><time>2026-04-25T14:24:01Z</time></trkpt><trkpt lat="43.86340824386094" lon="12.666848180625973"><ele>330.25</ele><time>2026-04-25T14:24:02Z</time></trkpt><trkpt lat="43.863532919525724" lon="12.66686506687211"><ele>328.5</ele><time>2026-04-25T14:24:03Z</time></trkpt><trkpt lat="43.86365938588317" lon="12.66688964058606"><ele>326.75</ele><time>2026-04-25T14:24:04Z</time></trkpt><trkpt lat="43.86378074990346" lon="12.666911048238234"><ele>325.0</ele><time>2026-04-25T14:24:05Z</time></trkpt><trkpt lat="43.86389786013127" lon="12.66693295678288"><ele>325.0</ele><time>2026-04-25T14:24:06Z</time></trkpt><trkpt lat="43.86402148582894" lon="12.666945317664418"><ele>325.0</ele><time>2026-04-25T14:24:07Z</time></trkpt><trkpt lat="43.86415293241245" lon="12.666937496288384"><ele>325.0</ele><time>2026-04-25T14:24:08Z</time></trkpt><trkpt lat="43.86429726035086" lon="12.66690540601056"><ele>325.0</ele><time>2026-04-25T14:24:09Z</time></trkpt><trkpt lat="43.86445186187789" lon="12.666858914718214"><ele>322.3333333333333</ele><time>2026-04-25T14:24:10Z</time></trkpt><trkpt lat="43.86461599801515" lon="12.666812437658953"><ele>319.6666666666667</ele><time>2026-04-25T14:24:11Z</time></trkpt><trkpt lat="43.86479204523329" lon="12.666745048337251"><ele>317.0</ele><time>2026-04-25T14:24:12Z</time></trkpt><trkpt lat="43.8649740204263" lon="12.666691819793462"><ele>313.33333333333337</ele><time>2026-04-25T14:24:13Z</time></trkpt><trkpt lat="43.86516023654075" lon="12.666644840523938"><ele>309.6666666666667</ele><time>2026-04-25T14:24:14Z</time></trkpt><trkpt lat="43.865345026105544" lon="12.666594929503733"><ele>306.0</ele><time>2026-04-25T14:24:15Z</time></trkpt><trkpt lat="43.865528319221276" lon="12.666535723079853"><ele>306.0</ele><time>2026-04-25T14:24:16Z</time></trkpt><trkpt lat="43.86570198388843" lon="12.66647728871299"><ele>306.0</ele><time>2026-04-25T14:24:17Z</time></trkpt><trkpt lat="43.86586380714778" lon="12.666415316433122"><ele>306.0</ele><time>2026-04-25T14:24:18Z</time></trkpt><trkpt lat="43.866024266991126" lon="12.666350727868588"><ele>303.3333333333333</ele><time>2026-04-25T14:24:19Z</time></trkpt><trkpt lat="43.86618447544653" lon="12.666281018411"><ele>300.66666666666663</ele><time>2026-04-25T14:24:20Z</time></trkpt><trkpt lat="43.866343856885486" lon="12.666203670749647"><ele>298.0</ele><time>2026-04-25T14:24:21.001Z</time></trkpt><trkpt lat="43.866497438396856" lon="12.66611521237883"><ele>301.66666666666663</ele><time>2026-04-25T14:24:22Z</time></trkpt><trkpt lat="43.866648061416434" lon="12.666030823390889"><ele>305.3333333333333</ele><time>2026-04-25T14:24:23Z</time></trkpt><trkpt lat="43.866801669213345" lon="12.665934802121454"><ele>309.0</ele><time>2026-04-25T14:24:24Z</time></trkpt><trkpt lat="43.86696554546398" lon="12.665840774053645"><ele>311.3333333333333</ele><time>2026-04-25T14:24:25Z</time></trkpt><trkpt lat="43.86713032445943" lon="12.665753195268955"><ele>313.66666666666663</ele><time>2026-04-25T14:24:26Z</time></trkpt><trkpt lat="43.86728397867344" lon="12.665677002121432"><ele>316.0</ele><time>2026-04-25T14:24:27Z</time></trkpt><trkpt lat="43.86741811619703" lon="12.665611491942018"><ele>316.0</ele><time>2026-04-25T14:24:28Z</time></trkpt><trkpt lat="43.86754335912537" lon="12.665532953043952"><ele>316.0</ele><time>2026-04-25T14:24:29Z</time></trkpt><trkpt lat="43.86764812115424" lon="12.66543394490331"><ele>316.0</ele><time>2026-04-25T14:24:30Z</time></trkpt><trkpt lat="43.86773826461908" lon="12.665311335663505"><ele>316.0</ele><time>2026-04-25T14:24:31Z</time></trkpt><trkpt lat="43.86779959061983" lon="12.665156414255241"><ele>318.5</ele><time>2026-04-25T14:24:32Z</time></trkpt><trkpt lat="43.86783989736454" lon="12.66498533498389"><ele>321.0</ele><time>2026-04-25T14:24:33Z</time></trkpt><trkpt lat="43.86787248273812" lon="12.664821307792646"><ele>323.5</ele><time>2026-04-25T14:24:34Z</time></trkpt><trkpt lat="43.867920656998514" lon="12.664697699794155"><ele>326.0</ele><time>2026-04-25T14:24:35Z</time></trkpt><trkpt lat="43.86800450374901" lon="12.664632882829537"><ele>326.0</ele><time>2026-04-25T14:24:36Z</time></trkpt><trkpt lat="43.86807834390783" lon="12.664597380838652"><ele>326.0</ele><time>2026-04-25T14:24:37Z</time></trkpt><trkpt lat="43.86816491270554" lon="12.664620174820843"><ele>326.0</ele><time>2026-04-25T14:24:38Z</time></trkpt><trkpt lat="43.868252316557424" lon="12.6646623697573"><ele>326.0</ele><time>2026-04-25T14:24:39Z</time></trkpt><trkpt lat="43.86833910025774" lon="12.664737992598733"><ele>326.0</ele><time>2026-04-25T14:24:40Z</time></trkpt><trkpt lat="43.86843442463103" lon="12.664830053203895"><ele>324.5</ele><time>2026-04-25T14:24:41Z</time></trkpt><trkpt lat="43.86853535617319" lon="12.664932655689023"><ele>323.0</ele><time>2026-04-25T14:24:42Z</time></trkpt><trkpt lat="43.86864311193895" lon="12.66504249478393"><ele>321.5</ele><time>2026-04-25T14:24:43Z</time></trkpt><trkpt lat="43.86875849798054" lon="12.665160111848943"><ele>320.0</ele><time>2026-04-25T14:24:44Z</time></trkpt><trkpt lat="43.86887500995534" lon="12.665278876432241"><ele>323.5</ele><time>2026-04-25T14:24:45Z</time></trkpt><trkpt lat="43.86899789167625" lon="12.665385586038969"><ele>327.0</ele><time>2026-04-25T14:24:46Z</time></trkpt><trkpt lat="43.869105819303094" lon="12.66550021746731"><ele>330.5</ele><time>2026-04-25T14:24:47Z</time></trkpt><trkpt lat="43.86921157064918" lon="12.665613101499423"><ele>334.0</ele><time>2026-04-25T14:24:48Z</time></trkpt><trkpt lat="43.86931598328845" lon="12.66571938904811"><ele>334.0</ele><time>2026-04-25T14:24:49Z</time></trkpt><trkpt lat="43.86941105966263" lon="12.665823076523427"><ele>334.0</ele><time>2026-04-25T14:24:50Z</time></trkpt><trkpt lat="43.86949878127517" lon="12.665920745042005"><ele>334.0</ele><time>2026-04-25T14:24:51Z</time></trkpt><trkpt lat="43.869559283151204" lon="12.666031919220726"><ele>334.0</ele><time>2026-04-25T14:24:52Z</time></trkpt><trkpt lat="43.86961842258069" lon="12.66614072816605"><ele>334.0</ele><time>2026-04-25T14:24:53Z</time></trkpt><trkpt lat="43.869661404181805" lon="12.666245376560843"><ele>335.8333333333333</ele><time>2026-04-25T14:24:54Z</time></trkpt><trkpt lat="43.86969907019273" lon="12.666347524589291"><ele>337.66666666666663</ele><time>2026-04-25T14:24:55Z</time></trkpt><trkpt lat="43.869730592655266" lon="12.666437200323172"><ele>339.5</ele><time>2026-04-25T14:24:56Z</time></trkpt><trkpt lat="43.86975644890805" lon="12.666516932156009"><ele>341.3333333333333</ele><time>2026-04-25T14:24:57Z</time></trkpt><trkpt lat="43.86981577890406" lon="12.666647529845656"><ele>343.1666666666667</ele><time>2026-04-25T14:24:59Z</time></trkpt><trkpt lat="43.86984341647297" lon="12.66675632826054"><ele>345.0</ele><time>2026-04-25T14:25:11Z</time></trkpt><trkpt lat="43.86990313421676" lon="12.666907363523977"><ele>344.1666666666667</ele><time>2026-04-25T14:25:13Z</time></trkpt><trkpt lat="43.86993500122523" lon="12.666990830606522"><ele>343.3333333333333</ele><time>2026-04-25T14:25:14Z</time></trkpt><trkpt lat="43.86996702353379" lon="12.66706724987756"><ele>342.5</ele><time>2026-04-25T14:25:15Z</time></trkpt><trkpt lat="43.87000020863181" lon="12.667149718232919"><ele>341.66666666666663</ele><time>2026-04-25T14:25:16Z</time></trkpt><trkpt lat="43.870043182394845" lon="12.667250246201572"><ele>340.8333333333333</ele><time>2026-04-25T14:25:17Z</time></trkpt><trkpt lat="43.870089048053494" lon="12.667358484629391"><ele>340.0</ele><time>2026-04-25T14:25:18Z</time></trkpt><trkpt lat="43.87012515257705" lon="12.667454581048196"><ele>342.16666666666663</ele><time>2026-04-25T14:25:19Z</time></trkpt><trkpt lat="43.87015092606344" lon="12.667539144870933"><ele>344.3333333333333</ele><time>2026-04-25T14:25:20Z</time></trkpt><trkpt lat="43.87017889148472" lon="12.667618001187392"><ele>346.5</ele><time>2026-04-25T14:25:21Z</time></trkpt><trkpt lat="43.87022562014847" lon="12.667779740601391"><ele>348.6666666666667</ele><time>2026-04-25T14:25:23Z</time></trkpt><trkpt lat="43.87025394160346" lon="12.66786712930865"><ele>350.83333333333337</ele><time>2026-04-25T14:25:24Z</time></trkpt><trkpt lat="43.87027573118333" lon="12.667963089278738"><ele>353.0</ele><time>2026-04-25T14:25:25Z</time></trkpt><trkpt lat="43.870297738897214" lon="12.668061216047843"><ele>353.0</ele><time>2026-04-25T14:25:26Z</time></trkpt><trkpt lat="43.87032011863112" lon="12.6681683961768"><ele>353.0</ele><time>2026-04-25T14:25:27Z</time></trkpt><trkpt lat="43.87033924357791" lon="12.668284435073716"><ele>353.0</ele><time>2026-04-25T14:25:28Z</time></trkpt><trkpt lat="43.870350921857366" lon="12.668406320500893"><ele>353.0</ele><time>2026-04-25T14:25:29Z</time></trkpt><trkpt lat="43.87036493487987" lon="12.668530775222"><ele>353.0</ele><time>2026-04-25T14:25:30Z</time></trkpt><trkpt lat="43.87037389774018" lon="12.668657032830334"><ele>353.0</ele><time>2026-04-25T14:25:31Z</time></trkpt><trkpt lat="43.870383485599106" lon="12.668787775132811"><ele>350.5</ele><time>2026-04-25T14:25:32Z</time></trkpt><trkpt lat="43.87039665313971" lon="12.668913454357853"><ele>348.0</ele><time>2026-04-25T14:25:33Z</time></trkpt><trkpt lat="43.87041012807653" lon="12.669020909147864"><ele>345.5</ele><time>2026-04-25T14:25:34Z</time></trkpt><trkpt lat="43.87042850422298" lon="12.669116296873598"><ele>343.0</ele><time>2026-04-25T14:25:35Z</time></trkpt><trkpt lat="43.87045142281664" lon="12.669198974204622"><ele>340.5</ele><time>2026-04-25T14:25:36Z</time></trkpt><trkpt lat="43.870506484493276" lon="12.669304332582005"><ele>338.0</ele><time>2026-04-25T14:25:38Z</time></trkpt><trkpt lat="43.870583304958714" lon="12.669336577082998"><ele>338.0</ele><time>2026-04-25T14:25:40Z</time></trkpt><trkpt lat="43.87068615501007" lon="12.669336197779762"><ele>338.0</ele><time>2026-04-25T14:25:42Z</time></trkpt><trkpt lat="43.87080276746038" lon="12.669299668677189"><ele>338.0</ele><time>2026-04-25T14:25:44Z</time></trkpt><trkpt lat="43.87086555431394" lon="12.669261188641379"><ele>338.0</ele><time>2026-04-25T14:25:45Z</time></trkpt><trkpt lat="43.870932975592865" lon="12.669201586695271"><ele>338.0</ele><time>2026-04-25T14:25:46Z</time></trkpt><trkpt lat="43.871003624669044" lon="12.669129975158958"><ele>337.33333333333337</ele><time>2026-04-25T14:25:47Z</time></trkpt><trkpt lat="43.87107164304459" lon="12.669060104259394"><ele>336.6666666666667</ele><time>2026-04-25T14:25:48Z</time></trkpt><trkpt lat="43.871125397935344" lon="12.66900743634418"><ele>336.0</ele><time>2026-04-25T14:25:49Z</time></trkpt><trkpt lat="43.87124329694413" lon="12.668942599620582"><ele>335.3333333333333</ele><time>2026-04-25T14:25:51Z</time></trkpt><trkpt lat="43.87131764663467" lon="12.66892051684029"><ele>334.66666666666663</ele><time>2026-04-25T14:25:52Z</time></trkpt><trkpt lat="43.87140189578896" lon="12.668911140701779"><ele>334.0</ele><time>2026-04-25T14:25:53Z</time></trkpt><trkpt lat="43.87148856048962" lon="12.668911258868437"><ele>334.0</ele><time>2026-04-25T14:25:54Z</time></trkpt><trkpt lat="43.871574158132724" lon="12.668917962289825"><ele>334.0</ele><time>2026-04-25T14:25:55Z</time></trkpt><trkpt lat="43.871654979843726" lon="12.668928057560738"><ele>334.0</ele><time>2026-04-25T14:25:56Z</time></trkpt><trkpt lat="43.87172469704386" lon="12.668936326670066"><ele>334.0</ele><time>2026-04-25T14:25:57Z</time></trkpt><trkpt lat="43.871789520843" lon="12.668951649486415"><ele>334.0</ele><time>2026-04-25T14:25:58Z</time></trkpt><trkpt lat="43.87190178976317" lon="12.668974719213944"><ele>334.0</ele><time>2026-04-25T14:26:00Z</time></trkpt><trkpt lat="43.87200257009863" lon="12.668987731955525"><ele>335.7142857142857</ele><time>2026-04-25T14:26:02Z</time></trkpt><trkpt lat="43.8720674139034" lon="12.669001625367702"><ele>337.42857142857144</ele><time>2026-04-25T14:26:03Z</time></trkpt><trkpt lat="43.872132487929996" lon="12.669025182341835"><ele>339.1428571428571</ele><time>2026-04-25T14:26:04Z</time></trkpt><trkpt lat="43.87219951777965" lon="12.669068716489875"><ele>340.8571428571429</ele><time>2026-04-25T14:26:05Z</time></trkpt><trkpt lat="43.872258136616445" lon="12.669126698802641"><ele>342.5714285714286</ele><time>2026-04-25T14:26:06Z</time></trkpt><trkpt lat="43.872309452879854" lon="12.669201929664146"><ele>344.2857142857143</ele><time>2026-04-25T14:26:07Z</time></trkpt><trkpt lat="43.87234736573267" lon="12.669294324523051"><ele>346.0</ele><time>2026-04-25T14:26:08Z</time></trkpt><trkpt lat="43.87237450522224" lon="12.669373295076422"><ele>344.0</ele><time>2026-04-25T14:26:09Z</time></trkpt><trkpt lat="43.87240382878577" lon="12.669487699688164"><ele>342.0</ele><time>2026-04-25T14:26:11Z</time></trkpt><trkpt lat="43.87244259428633" lon="12.669599657429549"><ele>340.0</ele><time>2026-04-25T14:26:13Z</time></trkpt><trkpt lat="43.872481773575224" lon="12.669693643957164"><ele>338.0</ele><time>2026-04-25T14:26:15Z</time></trkpt><trkpt lat="43.87252930317634" lon="12.66976135785017"><ele>336.0</ele><time>2026-04-25T14:26:17Z</time></trkpt><trkpt lat="43.87259860535801" lon="12.669813305837105"><ele>334.0</ele><time>2026-04-25T14:26:19Z</time></trkpt><trkpt lat="43.87268076710119" lon="12.669874103033141"><ele>334.0</ele><time>2026-04-25T14:26:21Z</time></trkpt><trkpt lat="43.872781653843624" lon="12.669938169870637"><ele>334.0</ele><time>2026-04-25T14:26:23Z</time></trkpt><trkpt lat="43.87289419461984" lon="12.669991585125965"><ele>334.0</ele><time>2026-04-25T14:26:25Z</time></trkpt><trkpt lat="43.873013124348326" lon="12.67002487599099"><ele>334.0</ele><time>2026-04-25T14:26:27Z</time></trkpt><trkpt lat="43.8731007003393" lon="12.670038820224418"><ele>334.0</ele><time>2026-04-25T14:26:29Z</time></trkpt><trkpt lat="43.873182700333" lon="12.670044424374593"><ele>334.0</ele><time>2026-04-25T14:26:32Z</time></trkpt><trkpt lat="43.873258002657764" lon="12.670012918194784"><ele>334.0</ele><time>2026-04-25T14:26:34Z</time></trkpt><trkpt lat="43.87334514435917" lon="12.669993479422342"><ele>334.0</ele><time>2026-04-25T14:26:36Z</time></trkpt><trkpt lat="43.87337174264158" lon="12.669901702237023"><ele>334.0</ele><time>2026-04-25T14:26:37Z</time></trkpt><trkpt lat="43.873451291296256" lon="12.669770046927363"><ele>334.0</ele><time>2026-04-25T14:26:39Z</time></trkpt><trkpt lat="43.87349956399933" lon="12.669689528475107"><ele>334.0</ele><time>2026-04-25T14:26:40Z</time></trkpt><trkpt lat="43.873563965321935" lon="12.669607295463402"><ele>333.0</ele><time>2026-04-25T14:26:41Z</time></trkpt><trkpt lat="43.87361333794955" lon="12.669528935699816"><ele>332.0</ele><time>2026-04-25T14:26:42Z</time></trkpt><trkpt lat="43.87365761948618" lon="12.66946293479694"><ele>331.0</ele><time>2026-04-25T14:26:43Z</time></trkpt><trkpt lat="43.87369792889986" lon="12.669395793076058"><ele>330.0</ele><time>2026-04-25T14:26:44Z</time></trkpt><trkpt lat="43.87374540907106" lon="12.669323299524837"><ele>329.0</ele><time>2026-04-25T14:26:45Z</time></trkpt><trkpt lat="43.87379528526486" lon="12.669241057876606"><ele>328.0</ele><time>2026-04-25T14:26:46Z</time></trkpt><trkpt lat="43.87385791933829" lon="12.669148688250477"><ele>327.0</ele><time>2026-04-25T14:26:47Z</time></trkpt><trkpt lat="43.873940660418064" lon="12.669054048368594"><ele>327.0</ele><time>2026-04-25T14:26:48Z</time></trkpt><trkpt lat="43.8740141785037" lon="12.668947245750404"><ele>327.0</ele><time>2026-04-25T14:26:49Z</time></trkpt><trkpt lat="43.87407943860969" lon="12.668850911644249"><ele>327.0</ele><time>2026-04-25T14:26:50Z</time></trkpt><trkpt lat="43.87413937098181" lon="12.668762442127127"><ele>327.0</ele><time>2026-04-25T14:26:51Z</time></trkpt><trkpt lat="43.87418064238748" lon="12.668675888076736"><ele>327.0</ele><time>2026-04-25T14:26:52Z</time></trkpt><trkpt lat="43.874247950396324" lon="12.668575917441448"><ele>325.5</ele><time>2026-04-25T14:26:54Z</time></trkpt><trkpt lat="43.87429080558611" lon="12.6685054145566"><ele>324.0</ele><time>2026-04-25T14:26:56Z</time></trkpt><trkpt lat="43.874367078757146" lon="12.668464939871845"><ele>322.5</ele><time>2026-04-25T14:26:58Z</time></trkpt><trkpt lat="43.87445800863645" lon="12.668489596072893"><ele>321.0</ele><time>2026-04-25T14:27:00Z</time></trkpt><trkpt lat="43.87450888035052" lon="12.668623658920215"><ele>319.5</ele><time>2026-04-25T14:27:01Z</time></trkpt><trkpt lat="43.874504076237905" lon="12.668728674648987"><ele>318.0</ele><time>2026-04-25T14:27:02Z</time></trkpt><trkpt lat="43.87449930099186" lon="12.66883778785103"><ele>317.0</ele><time>2026-04-25T14:27:03Z</time></trkpt><trkpt lat="43.87449424804833" lon="12.668979461305272"><ele>316.0</ele><time>2026-04-25T14:27:04Z</time></trkpt><trkpt lat="43.874491400803365" lon="12.669131543172643"><ele>315.0</ele><time>2026-04-25T14:27:05Z</time></trkpt><trkpt lat="43.874488155277284" lon="12.669296202330077"><ele>314.0</ele><time>2026-04-25T14:27:06Z</time></trkpt><trkpt lat="43.87449644680908" lon="12.669453677216598"><ele>313.0</ele><time>2026-04-25T14:27:07Z</time></trkpt><trkpt lat="43.87448922529242" lon="12.66962440973872"><ele>310.75</ele><time>2026-04-25T14:27:08Z</time></trkpt><trkpt lat="43.87447627794913" lon="12.669798719939799"><ele>308.5</ele><time>2026-04-25T14:27:09Z</time></trkpt><trkpt lat="43.87445107587889" lon="12.669964690417808"><ele>306.25</ele><time>2026-04-25T14:27:10Z</time></trkpt><trkpt lat="43.87441202784367" lon="12.670122956442997"><ele>304.0</ele><time>2026-04-25T14:27:11Z</time></trkpt><trkpt lat="43.874342077633834" lon="12.670264687392557"><ele>306.25</ele><time>2026-04-25T14:27:12Z</time></trkpt><trkpt lat="43.87427920229588" lon="12.670415154969714"><ele>308.5</ele><time>2026-04-25T14:27:13Z</time></trkpt><trkpt lat="43.87421326838827" lon="12.670568561940536"><ele>310.75</ele><time>2026-04-25T14:27:14Z</time></trkpt><trkpt lat="43.87414789816138" lon="12.670735991060962"><ele>313.0</ele><time>2026-04-25T14:27:15Z</time></trkpt><trkpt lat="43.87407745977902" lon="12.670897366981508"><ele>313.0</ele><time>2026-04-25T14:27:16Z</time></trkpt><trkpt lat="43.87400522045383" lon="12.671063492058572"><ele>313.0</ele><time>2026-04-25T14:27:17Z</time></trkpt><trkpt lat="43.87393476691024" lon="12.671229926541521"><ele>313.0</ele><time>2026-04-25T14:27:18Z</time></trkpt><trkpt lat="43.873862828994135" lon="12.671398738121878"><ele>313.0</ele><time>2026-04-25T14:27:19Z</time></trkpt><trkpt lat="43.873791718143" lon="12.671567622584941"><ele>309.75</ele><time>2026-04-25T14:27:20Z</time></trkpt><trkpt lat="43.87372496538925" lon="12.67174196505692"><ele>306.5</ele><time>2026-04-25T14:27:21Z</time></trkpt><trkpt lat="43.87366461906827" lon="12.671920314168386"><ele>303.25</ele><time>2026-04-25T14:27:22Z</time></trkpt><trkpt lat="43.873607323790985" lon="12.67210064540615"><ele>300.0</ele><time>2026-04-25T14:27:23Z</time></trkpt><trkpt lat="43.87355288682788" lon="12.672280072556047"><ele>301.0</ele><time>2026-04-25T14:27:24Z</time></trkpt><trkpt lat="43.873505796779284" lon="12.67245622252139"><ele>302.0</ele><time>2026-04-25T14:27:25Z</time></trkpt><trkpt lat="43.87345564493723" lon="12.672632344653604"><ele>303.0</ele><time>2026-04-25T14:27:26Z</time></trkpt><trkpt lat="43.87340259305512" lon="12.672813944210514"><ele>304.0</ele><time>2026-04-25T14:27:27Z</time></trkpt><trkpt lat="43.87335311736352" lon="12.672987535938374"><ele>304.0</ele><time>2026-04-25T14:27:28Z</time></trkpt><trkpt lat="43.873306281910416" lon="12.673152284583876"><ele>304.0</ele><time>2026-04-25T14:27:29Z</time></trkpt><trkpt lat="43.873262325239544" lon="12.673302645949729"><ele>304.0</ele><time>2026-04-25T14:27:30Z</time></trkpt><trkpt lat="43.873220519498545" lon="12.673448593813445"><ele>304.0</ele><time>2026-04-25T14:27:31Z</time></trkpt><trkpt lat="43.873178461679245" lon="12.673590637569113"><ele>304.0</ele><time>2026-04-25T14:27:32Z</time></trkpt><trkpt lat="43.87314134622136" lon="12.673740877667235"><ele>304.0</ele><time>2026-04-25T14:27:33Z</time></trkpt><trkpt lat="43.873115887209" lon="12.673903278074958"><ele>304.0</ele><time>2026-04-25T14:27:34Z</time></trkpt><trkpt lat="43.87309953520532" lon="12.674076262093452"><ele>304.0</ele><time>2026-04-25T14:27:35Z</time></trkpt><trkpt lat="43.87309300274641" lon="12.674251243003189"><ele>304.0</ele><time>2026-04-25T14:27:36Z</time></trkpt><trkpt lat="43.8731057498531" lon="12.674424648588934"><ele>304.0</ele><time>2026-04-25T14:27:37Z</time></trkpt><trkpt lat="43.87314053428268" lon="12.674596413264673"><ele>304.0</ele><time>2026-04-25T14:27:38Z</time></trkpt><trkpt lat="43.87319134919815" lon="12.674783127710635"><ele>304.0</ele><time>2026-04-25T14:27:39Z</time></trkpt><trkpt lat="43.87325223296293" lon="12.674975068057611"><ele>301.66666666666663</ele><time>2026-04-25T14:27:40Z</time></trkpt><trkpt lat="43.87331277078104" lon="12.675173689735045"><ele>299.3333333333333</ele><time>2026-04-25T14:27:41Z</time></trkpt><trkpt lat="43.873376330254736" lon="12.675374680044241"><ele>297.0</ele><time>2026-04-25T14:27:42Z</time></trkpt><trkpt lat="43.87344003955159" lon="12.675583066261693"><ele>296.75</ele><time>2026-04-25T14:27:43Z</time></trkpt><trkpt lat="43.87349872691417" lon="12.675782559450315"><ele>296.5</ele><time>2026-04-25T14:27:44Z</time></trkpt><trkpt lat="43.87355313148406" lon="12.67596814054746"><ele>296.25</ele><time>2026-04-25T14:27:45Z</time></trkpt><trkpt lat="43.87360795530846" lon="12.676136279491725"><ele>296.0</ele><time>2026-04-25T14:27:46Z</time></trkpt><trkpt lat="43.87366029199388" lon="12.676295945686746"><ele>293.40000000000003</ele><time>2026-04-25T14:27:47Z</time></trkpt><trkpt lat="43.87370872189899" lon="12.676440845060169"><ele>290.8</ele><time>2026-04-25T14:27:48Z</time></trkpt><trkpt lat="43.873760022276606" lon="12.676556852366689"><ele>288.20000000000005</ele><time>2026-04-25T14:27:49Z</time></trkpt><trkpt lat="43.873821992407215" lon="12.676643705304354"><ele>285.6</ele><time>2026-04-25T14:27:50Z</time></trkpt><trkpt lat="43.87389671370281" lon="12.676699679001807"><ele>283.0</ele><time>2026-04-25T14:27:51Z</time></trkpt><trkpt lat="43.87397708235704" lon="12.676733136666341"><ele>283.0</ele><time>2026-04-25T14:27:52Z</time></trkpt><trkpt lat="43.874078228832744" lon="12.67674809742702"><ele>283.0</ele><time>2026-04-25T14:27:53Z</time></trkpt><trkpt lat="43.87418767014154" lon="12.676736454143645"><ele>283.0</ele><time>2026-04-25T14:27:54Z</time></trkpt><trkpt lat="43.874300158615" lon="12.6766831508021"><ele>283.0</ele><time>2026-04-25T14:27:55Z</time></trkpt><trkpt lat="43.87442473601102" lon="12.676607236153572"><ele>280.0</ele><time>2026-04-25T14:27:56Z</time></trkpt><trkpt lat="43.87455584274685" lon="12.676515447242863"><ele>277.0</ele><time>2026-04-25T14:27:57Z</time></trkpt><trkpt lat="43.874688300270265" lon="12.676432334612052"><ele>274.0</ele><time>2026-04-25T14:27:58Z</time></trkpt><trkpt lat="43.87482070793184" lon="12.67634827091867"><ele>271.0</ele><time>2026-04-25T14:27:59Z</time></trkpt><trkpt lat="43.874948787731284" lon="12.67626715635864"><ele>271.0</ele><time>2026-04-25T14:28:00Z</time></trkpt><trkpt lat="43.875065023385694" lon="12.67618882322544"><ele>271.0</ele><time>2026-04-25T14:28:01Z</time></trkpt><trkpt lat="43.8751700781007" lon="12.676091397692172"><ele>271.0</ele><time>2026-04-25T14:28:02Z</time></trkpt><trkpt lat="43.87526342153232" lon="12.675961643424367"><ele>271.0</ele><time>2026-04-25T14:28:03Z</time></trkpt><trkpt lat="43.875342328107834" lon="12.675791655093887"><ele>269.25</ele><time>2026-04-25T14:28:04Z</time></trkpt><trkpt lat="43.87541631249082" lon="12.675604603002643"><ele>267.5</ele><time>2026-04-25T14:28:05Z</time></trkpt><trkpt lat="43.87548834124074" lon="12.675426690226482"><ele>265.75</ele><time>2026-04-25T14:28:06Z</time></trkpt><trkpt lat="43.875551644973896" lon="12.675268822384737"><ele>264.0</ele><time>2026-04-25T14:28:07Z</time></trkpt><trkpt lat="43.8755902104684" lon="12.6751643135576"><ele>264.0</ele><time>2026-04-25T14:28:08Z</time></trkpt><trkpt lat="43.87563608881879" lon="12.675065312848362"><ele>264.0</ele><time>2026-04-25T14:28:10Z</time></trkpt><trkpt lat="43.87559116431448" lon="12.67513536573148"><ele>264.0</ele><time>2026-04-25T14:28:18Z</time></trkpt><trkpt lat="43.87553517070584" lon="12.675253724215228"><ele>264.0</ele><time>2026-04-25T14:28:21Z</time></trkpt><trkpt lat="43.87557610730108" lon="12.675377830078022"><ele>264.0</ele><time>2026-04-25T14:28:23Z</time></trkpt><trkpt lat="43.87555340824128" lon="12.675464822238563"><ele>264.0</ele><time>2026-04-25T14:28:24Z</time></trkpt><trkpt lat="43.8755431673548" lon="12.675577721867475"><ele>263.8333333333333</ele><time>2026-04-25T14:28:25Z</time></trkpt><trkpt lat="43.875533339859004" lon="12.67568081277464"><ele>263.6666666666667</ele><time>2026-04-25T14:28:26Z</time></trkpt><trkpt lat="43.87552835050108" lon="12.675790100753154"><ele>263.5</ele><time>2026-04-25T14:28:27Z</time></trkpt><trkpt lat="43.875536620170784" lon="12.675896462378315"><ele>263.33333333333337</ele><time>2026-04-25T14:28:28Z</time></trkpt><trkpt lat="43.87556673098392" lon="12.67600753772471"><ele>263.1666666666667</ele><time>2026-04-25T14:28:29Z</time></trkpt><trkpt lat="43.87559757433382" lon="12.676116736606591"><ele>263.0</ele><time>2026-04-25T14:28:30Z</time></trkpt><trkpt lat="43.875630891228006" lon="12.67623582071059"><ele>261.0</ele><time>2026-04-25T14:28:31Z</time></trkpt><trkpt lat="43.87566422431065" lon="12.676354963292972"><ele>259.0</ele><time>2026-04-25T14:28:32Z</time></trkpt><trkpt lat="43.87569850845753" lon="12.676477504684046"><ele>257.0</ele><time>2026-04-25T14:28:33Z</time></trkpt><trkpt lat="43.87573290138424" lon="12.676602419490132"><ele>255.0</ele><time>2026-04-25T14:28:34Z</time></trkpt><trkpt lat="43.87576699057128" lon="12.676731625572689"><ele>253.0</ele><time>2026-04-25T14:28:35Z</time></trkpt><trkpt lat="43.875802124019806" lon="12.67686478988016"><ele>251.4</ele><time>2026-04-25T14:28:36Z</time></trkpt><trkpt lat="43.875838494192436" lon="12.67700264163413"><ele>249.8</ele><time>2026-04-25T14:28:37Z</time></trkpt><trkpt lat="43.87587629960453" lon="12.677147448888238"><ele>248.2</ele><time>2026-04-25T14:28:38Z</time></trkpt><trkpt lat="43.87591398162901" lon="12.677293990155476"><ele>246.6</ele><time>2026-04-25T14:28:39Z</time></trkpt><trkpt lat="43.87595043089164" lon="12.677430514296095"><ele>245.0</ele><time>2026-04-25T14:28:40Z</time></trkpt><trkpt lat="43.8759891076635" lon="12.67754980884804"><ele>242.33333333333334</ele><time>2026-04-25T14:28:41Z</time></trkpt><trkpt lat="43.876030588635366" lon="12.677658733331263"><ele>239.66666666666669</ele><time>2026-04-25T14:28:42Z</time></trkpt><trkpt lat="43.876076750968494" lon="12.677761201039422"><ele>237.0</ele><time>2026-04-25T14:28:43Z</time></trkpt><trkpt lat="43.87614316885188" lon="12.677838694407141"><ele>234.33333333333331</ele><time>2026-04-25T14:28:44Z</time></trkpt><trkpt lat="43.87620598447296" lon="12.677917196277434"><ele>231.66666666666666</ele><time>2026-04-25T14:28:45Z</time></trkpt><trkpt lat="43.87626946783125" lon="12.677980886278428"><ele>229.0</ele><time>2026-04-25T14:28:46Z</time></trkpt><trkpt lat="43.87633591922102" lon="12.678033702054249"><ele>228.2</ele><time>2026-04-25T14:28:47Z</time></trkpt><trkpt lat="43.876413010762334" lon="12.678081420197897"><ele>227.39999999999998</ele><time>2026-04-25T14:28:48Z</time></trkpt><trkpt lat="43.87650137719705" lon="12.678117950446701"><ele>226.6</ele><time>2026-04-25T14:28:49Z</time></trkpt><trkpt lat="43.876599960929795" lon="12.678133770342528"><ele>225.8</ele><time>2026-04-25T14:28:50Z</time></trkpt><trkpt lat="43.87670140737676" lon="12.678145180701904"><ele>225.0</ele><time>2026-04-25T14:28:51Z</time></trkpt><trkpt lat="43.87680620033102" lon="12.678161589577813"><ele>221.8</ele><time>2026-04-25T14:28:52Z</time></trkpt><trkpt lat="43.87691090621797" lon="12.678180987776065"><ele>218.6</ele><time>2026-04-25T14:28:53Z</time></trkpt><trkpt lat="43.87701710831997" lon="12.678197821963646"><ele>215.39999999999998</ele><time>2026-04-25T14:28:54Z</time></trkpt><trkpt lat="43.87712350434437" lon="12.678221493043488"><ele>212.2</ele><time>2026-04-25T14:28:55Z</time></trkpt><trkpt lat="43.87721721851458" lon="12.678273245685405"><ele>209.0</ele><time>2026-04-25T14:28:56Z</time></trkpt><trkpt lat="43.87730052073405" lon="12.678302606032155"><ele>209.0</ele><time>2026-04-25T14:28:57Z</time></trkpt><trkpt lat="43.87737859567873" lon="12.678342909177065"><ele>209.0</ele><time>2026-04-25T14:28:58Z</time></trkpt><trkpt lat="43.877459939225346" lon="12.678392036696959"><ele>209.0</ele><time>2026-04-25T14:28:59Z</time></trkpt><trkpt lat="43.87754579135073" lon="12.678460698419046"><ele>209.0</ele><time>2026-04-25T14:29:00Z</time></trkpt><trkpt lat="43.87762869287922" lon="12.678550223013628"><ele>209.0</ele><time>2026-04-25T14:29:01Z</time></trkpt><trkpt lat="43.87770687293102" lon="12.678653779344993"><ele>204.6</ele><time>2026-04-25T14:29:02Z</time></trkpt><trkpt lat="43.87777128091666" lon="12.678762251887829"><ele>200.2</ele><time>2026-04-25T14:29:03Z</time></trkpt><trkpt lat="43.87782023459196" lon="12.67885680778055"><ele>195.79999999999998</ele><time>2026-04-25T14:29:04Z</time></trkpt><trkpt lat="43.87787153056027" lon="12.678971967104152"><ele>191.39999999999998</ele><time>2026-04-25T14:29:05Z</time></trkpt><trkpt lat="43.87792028475045" lon="12.679108967312237"><ele>187.0</ele><time>2026-04-25T14:29:06Z</time></trkpt><trkpt lat="43.87797244109626" lon="12.679265516716054"><ele>186.25</ele><time>2026-04-25T14:29:07Z</time></trkpt><trkpt lat="43.878033322634785" lon="12.679442444979895"><ele>185.5</ele><time>2026-04-25T14:29:08Z</time></trkpt><trkpt lat="43.87809661607839" lon="12.679615794347304"><ele>184.75</ele><time>2026-04-25T14:29:09Z</time></trkpt><trkpt lat="43.87815679969097" lon="12.679773467619691"><ele>184.0</ele><time>2026-04-25T14:29:10Z</time></trkpt><trkpt lat="43.87821398141392" lon="12.679908440104152"><ele>184.0</ele><time>2026-04-25T14:29:11Z</time></trkpt><trkpt lat="43.87828559556935" lon="12.680004398017205"><ele>184.0</ele><time>2026-04-25T14:29:12Z</time></trkpt><trkpt lat="43.87833302040212" lon="12.68009353465473"><ele>184.0</ele><time>2026-04-25T14:29:13Z</time></trkpt><trkpt lat="43.87840304943989" lon="12.680180335756797"><ele>184.0</ele><time>2026-04-25T14:29:14Z</time></trkpt><trkpt lat="43.87848212678614" lon="12.680292636755507"><ele>184.0</ele><time>2026-04-25T14:29:15Z</time></trkpt><trkpt lat="43.87857732341139" lon="12.680391806827878"><ele>181.39999999999998</ele><time>2026-04-25T14:29:16Z</time></trkpt><trkpt lat="43.87866756053594" lon="12.680479852153002"><ele>178.8</ele><time>2026-04-25T14:29:17Z</time></trkpt><trkpt lat="43.87873847544665" lon="12.680547726033158"><ele>176.2</ele><time>2026-04-25T14:29:18Z</time></trkpt><trkpt lat="43.878796211878836" lon="12.680602986550875"><ele>173.60000000000002</ele><time>2026-04-25T14:29:19Z</time></trkpt><trkpt lat="43.87887290200005" lon="12.68067638799899"><ele>171.0</ele><time>2026-04-25T14:29:21Z</time></trkpt><trkpt lat="43.87897762168342" lon="12.680461225337483"><ele>171.0</ele><time>2026-04-25T14:29:26Z</time></trkpt><trkpt lat="43.87899867613431" lon="12.680347517225943"><ele>171.0</ele><time>2026-04-25T14:29:27Z</time></trkpt><trkpt lat="43.8790232139723" lon="12.680225539550941"><ele>171.0</ele><time>2026-04-25T14:29:28Z</time></trkpt><trkpt lat="43.87904621733917" lon="12.680098089124623"><ele>171.0</ele><time>2026-04-25T14:29:29Z</time></trkpt><trkpt lat="43.87906926295591" lon="12.68000056206038"><ele>171.0</ele><time>2026-04-25T14:29:30Z</time></trkpt><trkpt lat="43.87908504562021" lon="12.679902827836512"><ele>171.0</ele><time>2026-04-25T14:29:31Z</time></trkpt><trkpt lat="43.879201822167765" lon="12.679822344303622"><ele>167.75</ele><time>2026-04-25T14:29:32Z</time></trkpt><trkpt lat="43.87927376526441" lon="12.67968477201262"><ele>164.5</ele><time>2026-04-25T14:29:33Z</time></trkpt><trkpt lat="43.879339542130126" lon="12.679546204071821"><ele>161.25</ele><time>2026-04-25T14:29:34Z</time></trkpt><trkpt lat="43.879412582137164" lon="12.679432557123462"><ele>158.0</ele><time>2026-04-25T14:29:35Z</time></trkpt><trkpt lat="43.87948706315806" lon="12.679308211865125"><ele>157.75</ele><time>2026-04-25T14:29:36Z</time></trkpt><trkpt lat="43.879549426964246" lon="12.679180444894639"><ele>157.5</ele><time>2026-04-25T14:29:37Z</time></trkpt><trkpt lat="43.8795982195171" lon="12.679045532926125"><ele>157.25</ele><time>2026-04-25T14:29:38Z</time></trkpt><trkpt lat="43.87963058353299" lon="12.678892845159572"><ele>157.0</ele><time>2026-04-25T14:29:39Z</time></trkpt><trkpt lat="43.87965643613042" lon="12.678722794269826"><ele>157.25</ele><time>2026-04-25T14:29:40Z</time></trkpt><trkpt lat="43.879681864765345" lon="12.678541594218961"><ele>157.5</ele><time>2026-04-25T14:29:41Z</time></trkpt><trkpt lat="43.87971022871022" lon="12.678376349619935"><ele>157.75</ele><time>2026-04-25T14:29:42Z</time></trkpt><trkpt lat="43.879746501550024" lon="12.678220189673368"><ele>158.0</ele><time>2026-04-25T14:29:43Z</time></trkpt><trkpt lat="43.87980421300857" lon="12.678072206538003"><ele>158.0</ele><time>2026-04-25T14:29:44Z</time></trkpt><trkpt lat="43.87986726122839" lon="12.677918624761709"><ele>158.0</ele><time>2026-04-25T14:29:45Z</time></trkpt><trkpt lat="43.8799262044238" lon="12.67777297557528"><ele>158.0</ele><time>2026-04-25T14:29:46Z</time></trkpt><trkpt lat="43.879975405762075" lon="12.67764447476209"><ele>158.0</ele><time>2026-04-25T14:29:47Z</time></trkpt><trkpt lat="43.880025562306066" lon="12.67752917777328"><ele>158.5</ele><time>2026-04-25T14:29:48Z</time></trkpt><trkpt lat="43.88009358554244" lon="12.67741161115823"><ele>159.0</ele><time>2026-04-25T14:29:49Z</time></trkpt><trkpt lat="43.88019223642974" lon="12.677310955713768"><ele>159.5</ele><time>2026-04-25T14:29:50Z</time></trkpt><trkpt lat="43.88027381741598" lon="12.67718799470998"><ele>160.0</ele><time>2026-04-25T14:29:51Z</time></trkpt><trkpt lat="43.88035182240251" lon="12.67708153798732"><ele>158.2</ele><time>2026-04-25T14:29:52Z</time></trkpt><trkpt lat="43.88042472521412" lon="12.676979260975093"><ele>156.4</ele><time>2026-04-25T14:29:53Z</time></trkpt><trkpt lat="43.880496056258444" lon="12.676877135612779"><ele>154.6</ele><time>2026-04-25T14:29:54Z</time></trkpt><trkpt lat="43.88057071462495" lon="12.676769701198342"><ele>152.8</ele><time>2026-04-25T14:29:55Z</time></trkpt><trkpt lat="43.88064799889161" lon="12.676669846453194"><ele>151.0</ele><time>2026-04-25T14:29:56Z</time></trkpt><trkpt lat="43.880713063602414" lon="12.676591969574478"><ele>151.0</ele><time>2026-04-25T14:29:57Z</time></trkpt><trkpt lat="43.88077251933252" lon="12.6765332446219"><ele>151.0</ele><time>2026-04-25T14:29:58Z</time></trkpt><trkpt lat="43.880887150948226" lon="12.67653545692176"><ele>151.0</ele><time>2026-04-25T14:30:00Z</time></trkpt><trkpt lat="43.88095437472478" lon="12.676676695920198"><ele>151.0</ele><time>2026-04-25T14:30:02Z</time></trkpt><trkpt lat="43.8809594971489" lon="12.676791875376685"><ele>151.0</ele><time>2026-04-25T14:30:03Z</time></trkpt><trkpt lat="43.880941672079004" lon="12.676898106045147"><ele>150.0</ele><time>2026-04-25T14:30:04Z</time></trkpt><trkpt lat="43.88092784620755" lon="12.677029146409637"><ele>149.0</ele><time>2026-04-25T14:30:05Z</time></trkpt><trkpt lat="43.8809125961716" lon="12.677169458081696"><ele>148.0</ele><time>2026-04-25T14:30:06Z</time></trkpt><trkpt lat="43.88089575308611" lon="12.677324426886047"><ele>147.0</ele><time>2026-04-25T14:30:07Z</time></trkpt><trkpt lat="43.88087892859074" lon="12.67747922458598"><ele>146.0</ele><time>2026-04-25T14:30:08Z</time></trkpt><trkpt lat="43.88086342726848" lon="12.677621848291434"><ele>146.0</ele><time>2026-04-25T14:30:09Z</time></trkpt><trkpt lat="43.880849649267454" lon="12.677750587184313"><ele>146.0</ele><time>2026-04-25T14:30:10Z</time></trkpt><trkpt lat="43.880841159287314" lon="12.677892974613238"><ele>146.0</ele><time>2026-04-25T14:30:11Z</time></trkpt><trkpt lat="43.88084111300271" lon="12.67805362546417"><ele>146.0</ele><time>2026-04-25T14:30:12Z</time></trkpt><trkpt lat="43.88086348684858" lon="12.67822344169155"><ele>146.0</ele><time>2026-04-25T14:30:13Z</time></trkpt><trkpt lat="43.8808578105854" lon="12.67838099076678"><ele>145.8</ele><time>2026-04-25T14:30:14Z</time></trkpt><trkpt lat="43.88086941637792" lon="12.678528231952859"><ele>145.6</ele><time>2026-04-25T14:30:15Z</time></trkpt><trkpt lat="43.88090211480306" lon="12.678645721690785"><ele>145.4</ele><time>2026-04-25T14:30:16Z</time></trkpt><trkpt lat="43.88093066147526" lon="12.67875160623915"><ele>145.2</ele><time>2026-04-25T14:30:17Z</time></trkpt><trkpt lat="43.88099042565058" lon="12.678836589609157"><ele>145.0</ele><time>2026-04-25T14:30:18Z</time></trkpt><trkpt lat="43.88107360630621" lon="12.6789180116167"><ele>142.2</ele><time>2026-04-25T14:30:19Z</time></trkpt><trkpt lat="43.88117077018867" lon="12.679000616091685"><ele>139.4</ele><time>2026-04-25T14:30:20Z</time></trkpt><trkpt lat="43.881279927096784" lon="12.679075319568536"><ele>136.6</ele><time>2026-04-25T14:30:21Z</time></trkpt><trkpt lat="43.88138188575256" lon="12.679140708362953"><ele>133.8</ele><time>2026-04-25T14:30:22Z</time></trkpt><trkpt lat="43.88145944649809" lon="12.679192838720695"><ele>131.0</ele><time>2026-04-25T14:30:23Z</time></trkpt><trkpt lat="43.88152667391195" lon="12.679259711849403"><ele>131.0</ele><time>2026-04-25T14:30:24Z</time></trkpt><trkpt lat="43.88158382470003" lon="12.679348198530912"><ele>131.0</ele><time>2026-04-25T14:30:25Z</time></trkpt><trkpt lat="43.88163958666597" lon="12.679451486778442"><ele>131.0</ele><time>2026-04-25T14:30:26Z</time></trkpt><trkpt lat="43.881684212563805" lon="12.679555966588863"><ele>131.0</ele><time>2026-04-25T14:30:27Z</time></trkpt><trkpt lat="43.881733939066805" lon="12.679660472771126"><ele>131.0</ele><time>2026-04-25T14:30:28Z</time></trkpt><trkpt lat="43.88179392731806" lon="12.679781367766024"><ele>128.8</ele><time>2026-04-25T14:30:29Z</time></trkpt><trkpt lat="43.88186304353809" lon="12.679916079738502"><ele>126.6</ele><time>2026-04-25T14:30:30Z</time></trkpt><trkpt lat="43.881933400718445" lon="12.680047195221906"><ele>124.4</ele><time>2026-04-25T14:30:31Z</time></trkpt><trkpt lat="43.88200045156145" lon="12.680163623011058"><ele>122.2</ele><time>2026-04-25T14:30:32Z</time></trkpt><trkpt lat="43.88206236287702" lon="12.680267683815915"><ele>120.0</ele><time>2026-04-25T14:30:33Z</time></trkpt><trkpt lat="43.882104993967836" lon="12.680360447669527"><ele>119.33333333333333</ele><time>2026-04-25T14:30:34Z</time></trkpt><trkpt lat="43.88210974180006" lon="12.680475497926894"><ele>118.66666666666666</ele><time>2026-04-25T14:30:35Z</time></trkpt><trkpt lat="43.882087154176865" lon="12.680577986363195"><ele>118.0</ele><time>2026-04-25T14:30:36Z</time></trkpt><trkpt lat="43.882060431227465" lon="12.68069444415748"><ele>117.33333333333333</ele><time>2026-04-25T14:30:37Z</time></trkpt><trkpt lat="43.88204323872888" lon="12.680835177206994"><ele>116.66666666666666</ele><time>2026-04-25T14:30:38Z</time></trkpt><trkpt lat="43.88203891564558" lon="12.680965134396082"><ele>116.0</ele><time>2026-04-25T14:30:39Z</time></trkpt><trkpt lat="43.88208317946426" lon="12.681084750150134"><ele>115.5</ele><time>2026-04-25T14:30:40Z</time></trkpt><trkpt lat="43.882129427082674" lon="12.681203081106323"><ele>115.0</ele><time>2026-04-25T14:30:41Z</time></trkpt><trkpt lat="43.88219302607547" lon="12.681337088201344"><ele>114.5</ele><time>2026-04-25T14:30:42Z</time></trkpt><trkpt lat="43.88226116244181" lon="12.681475935157005"><ele>114.0</ele><time>2026-04-25T14:30:43Z</time></trkpt><trkpt lat="43.88232689264023" lon="12.681621888053463"><ele>114.0</ele><time>2026-04-25T14:30:44Z</time></trkpt><trkpt lat="43.88238999008363" lon="12.681784439681797"><ele>114.0</ele><time>2026-04-25T14:30:45Z</time></trkpt><trkpt lat="43.88245885898403" lon="12.681952829342775"><ele>114.0</ele><time>2026-04-25T14:30:46Z</time></trkpt><trkpt lat="43.88253289655097" lon="12.682134606061124"><ele>114.0</ele><time>2026-04-25T14:30:47Z</time></trkpt><trkpt lat="43.88260828012135" lon="12.68232708868692"><ele>110.25</ele><time>2026-04-25T14:30:48Z</time></trkpt><trkpt lat="43.882679814461575" lon="12.682504188597365"><ele>106.5</ele><time>2026-04-25T14:30:49Z</time></trkpt><trkpt lat="43.88272486952126" lon="12.682674515134055"><ele>102.75</ele><time>2026-04-25T14:30:50Z</time></trkpt><trkpt lat="43.882778435168056" lon="12.682832061891496"><ele>99.0</ele><time>2026-04-25T14:30:51Z</time></trkpt><trkpt lat="43.88282301356398" lon="12.682982082503015"><ele>98.80000000000001</ele><time>2026-04-25T14:30:52Z</time></trkpt><trkpt lat="43.88285380300349" lon="12.683128498548939"><ele>98.60000000000001</ele><time>2026-04-25T14:30:53Z</time></trkpt><trkpt lat="43.88286996766557" lon="12.683266951752433"><ele>98.4</ele><time>2026-04-25T14:30:54Z</time></trkpt><trkpt lat="43.882874465635524" lon="12.683399421524216"><ele>98.2</ele><time>2026-04-25T14:30:55Z</time></trkpt><trkpt lat="43.8828541114404" lon="12.683537751435471"><ele>98.0</ele><time>2026-04-25T14:30:56Z</time></trkpt><trkpt lat="43.882825666186584" lon="12.683699548673141"><ele>97.25</ele><time>2026-04-25T14:30:57Z</time></trkpt><trkpt lat="43.8827799528259" lon="12.683879662975182"><ele>96.5</ele><time>2026-04-25T14:30:58Z</time></trkpt><trkpt lat="43.88277007067219" lon="12.684076024371988"><ele>95.75</ele><time>2026-04-25T14:30:59Z</time></trkpt><trkpt lat="43.88279938313027" lon="12.684253435414416"><ele>95.0</ele><time>2026-04-25T14:31:00Z</time></trkpt><trkpt lat="43.88279698830318" lon="12.684427430114315"><ele>93.75</ele><time>2026-04-25T14:31:01Z</time></trkpt><trkpt lat="43.882806289933924" lon="12.68459364202056"><ele>92.5</ele><time>2026-04-25T14:31:02Z</time></trkpt><trkpt lat="43.88281208400046" lon="12.684754981217683"><ele>91.25</ele><time>2026-04-25T14:31:03Z</time></trkpt><trkpt lat="43.88279623006565" lon="12.68490855615784"><ele>90.0</ele><time>2026-04-25T14:31:04Z</time></trkpt><trkpt lat="43.882774714617376" lon="12.685065169931782"><ele>90.0</ele><time>2026-04-25T14:31:05Z</time></trkpt><trkpt lat="43.88274390435913" lon="12.68522173003617"><ele>90.0</ele><time>2026-04-25T14:31:06Z</time></trkpt><trkpt lat="43.88270840446606" lon="12.685374725511302"><ele>90.0</ele><time>2026-04-25T14:31:07Z</time></trkpt><trkpt lat="43.88269069464737" lon="12.685512445511726"><ele>90.0</ele><time>2026-04-25T14:31:08Z</time></trkpt><trkpt lat="43.88269598725241" lon="12.685649848875077"><ele>90.0</ele><time>2026-04-25T14:31:09Z</time></trkpt><trkpt lat="43.882739485583194" lon="12.685790143627433"><ele>89.6</ele><time>2026-04-25T14:31:10Z</time></trkpt><trkpt lat="43.88277650788551" lon="12.685942766757723"><ele>89.2</ele><time>2026-04-25T14:31:11Z</time></trkpt><trkpt lat="43.88282074394902" lon="12.686100623099744"><ele>88.80000000000001</ele><time>2026-04-25T14:31:12Z</time></trkpt><trkpt lat="43.882856884890835" lon="12.686246952516896"><ele>88.4</ele><time>2026-04-25T14:31:13Z</time></trkpt><trkpt lat="43.882860535756166" lon="12.68637667182988"><ele>88.0</ele><time>2026-04-25T14:31:14Z</time></trkpt><trkpt lat="43.8828605030665" lon="12.686487235813685"><ele>88.0</ele><time>2026-04-25T14:31:15Z</time></trkpt><trkpt lat="43.8828507663342" lon="12.686587632890529"><ele>88.0</ele><time>2026-04-25T14:31:16Z</time></trkpt><trkpt lat="43.88282690731932" lon="12.686691675499816"><ele>88.0</ele><time>2026-04-25T14:31:17Z</time></trkpt><trkpt lat="43.88280226283167" lon="12.68681832199894"><ele>88.0</ele><time>2026-04-25T14:31:18Z</time></trkpt><trkpt lat="43.882778802491714" lon="12.686939008965199"><ele>88.0</ele><time>2026-04-25T14:31:19Z</time></trkpt><trkpt lat="43.88275689898912" lon="12.687044927181415"><ele>88.0</ele><time>2026-04-25T14:31:20Z</time></trkpt><trkpt lat="43.88275130795739" lon="12.687149536242513"><ele>87.80000000000001</ele><time>2026-04-25T14:31:21Z</time></trkpt><trkpt lat="43.88274660036518" lon="12.687245914236053"><ele>87.6</ele><time>2026-04-25T14:31:22Z</time></trkpt><trkpt lat="43.88282107034281" lon="12.687356322108492"><ele>87.4</ele><time>2026-04-25T14:31:23Z</time></trkpt><trkpt lat="43.88288292386477" lon="12.68746302405591"><ele>87.19999999999999</ele><time>2026-04-25T14:31:24Z</time></trkpt><trkpt lat="43.88296004913837" lon="12.687583498845608"><ele>87.0</ele><time>2026-04-25T14:31:25Z</time></trkpt><trkpt lat="43.883046764916884" lon="12.687713496993034"><ele>86.25</ele><time>2026-04-25T14:31:26Z</time></trkpt><trkpt lat="43.88313880380861" lon="12.687853306346105"><ele>85.5</ele><time>2026-04-25T14:31:27Z</time></trkpt><trkpt lat="43.883228043804756" lon="12.687996471728143"><ele>84.75</ele><time>2026-04-25T14:31:28Z</time></trkpt><trkpt lat="43.883317170183446" lon="12.688132240236278"><ele>84.0</ele><time>2026-04-25T14:31:29Z</time></trkpt><trkpt lat="43.883398088978765" lon="12.688262928804969"><ele>83.80000000000001</ele><time>2026-04-25T14:31:30Z</time></trkpt><trkpt lat="43.88347055367112" lon="12.688377226329596"><ele>83.60000000000001</ele><time>2026-04-25T14:31:31Z</time></trkpt><trkpt lat="43.88353862292436" lon="12.688480004449048"><ele>83.4</ele><time>2026-04-25T14:31:32Z</time></trkpt><trkpt lat="43.88360186798129" lon="12.688567422000585"><ele>83.2</ele><time>2026-04-25T14:31:33Z</time></trkpt><trkpt lat="43.88366150766484" lon="12.688654235200264"><ele>83.0</ele><time>2026-04-25T14:31:34Z</time></trkpt><trkpt lat="43.88371840798796" lon="12.68873673877375"><ele>83.0</ele><time>2026-04-25T14:31:35Z</time></trkpt><trkpt lat="43.88377334551956" lon="12.688820841799947"><ele>83.0</ele><time>2026-04-25T14:31:36Z</time></trkpt><trkpt lat="43.88381651637309" lon="12.688918069541858"><ele>83.0</ele><time>2026-04-25T14:31:37Z</time></trkpt><trkpt lat="43.88387209550634" lon="12.689001886605173"><ele>83.0</ele><time>2026-04-25T14:31:38Z</time></trkpt><trkpt lat="43.88392893234093" lon="12.689090556637982"><ele>83.0</ele><time>2026-04-25T14:31:39Z</time></trkpt><trkpt lat="43.88399492735173" lon="12.689179168894123"><ele>83.0</ele><time>2026-04-25T14:31:40Z</time></trkpt><trkpt lat="43.8840498915932" lon="12.68929308084896"><ele>83.0</ele><time>2026-04-25T14:31:41Z</time></trkpt><trkpt lat="43.88410580267083" lon="12.689414609770031"><ele>83.0</ele><time>2026-04-25T14:31:42Z</time></trkpt><trkpt lat="43.88416646294782" lon="12.689541747899046"><ele>83.0</ele><time>2026-04-25T14:31:43Z</time></trkpt><trkpt lat="43.88422442683637" lon="12.689665610703873"><ele>83.0</ele><time>2026-04-25T14:31:44Z</time></trkpt><trkpt lat="43.88427978620816" lon="12.689785725941057"><ele>83.0</ele><time>2026-04-25T14:31:45Z</time></trkpt><trkpt lat="43.88432732296177" lon="12.689888234616673"><ele>83.5</ele><time>2026-04-25T14:31:46Z</time></trkpt><trkpt lat="43.88437144817066" lon="12.68998932240756"><ele>84.0</ele><time>2026-04-25T14:31:47Z</time></trkpt><trkpt lat="43.88441410511864" lon="12.690086679970976"><ele>84.5</ele><time>2026-04-25T14:31:48Z</time></trkpt><trkpt lat="43.88445360637545" lon="12.6901776846435"><ele>85.0</ele><time>2026-04-25T14:31:49Z</time></trkpt><trkpt lat="43.88449214140801" lon="12.69027666485576"><ele>85.5</ele><time>2026-04-25T14:31:50Z</time></trkpt><trkpt lat="43.884532780892876" lon="12.690380423411517"><ele>86.0</ele><time>2026-04-25T14:31:51Z</time></trkpt><trkpt lat="43.88457371316617" lon="12.690476370760035"><ele>86.0</ele><time>2026-04-25T14:31:52Z</time></trkpt><trkpt lat="43.88461910011175" lon="12.69057812977298"><ele>86.0</ele><time>2026-04-25T14:31:53Z</time></trkpt><trkpt lat="43.88467490418626" lon="12.690696718696508"><ele>86.0</ele><time>2026-04-25T14:31:54Z</time></trkpt><trkpt lat="43.88473239525962" lon="12.690827603779148"><ele>86.0</ele><time>2026-04-25T14:31:55Z</time></trkpt><trkpt lat="43.884797365130154" lon="12.690981563474839"><ele>86.0</ele><time>2026-04-25T14:31:56Z</time></trkpt><trkpt lat="43.88486982815603" lon="12.691149825747255"><ele>85.0</ele><time>2026-04-25T14:31:57Z</time></trkpt><trkpt lat="43.884947811482746" lon="12.691330222312939"><ele>84.0</ele><time>2026-04-25T14:31:58Z</time></trkpt><trkpt lat="43.885016965379734" lon="12.6915144196089"><ele>83.0</ele><time>2026-04-25T14:31:59Z</time></trkpt><trkpt lat="43.88507495709025" lon="12.691678689711981"><ele>82.0</ele><time>2026-04-25T14:32:00Z</time></trkpt><trkpt lat="43.885127581959765" lon="12.691839612527874"><ele>82.75</ele><time>2026-04-25T14:32:01Z</time></trkpt><trkpt lat="43.88517227399993" lon="12.692021606219392"><ele>83.5</ele><time>2026-04-25T14:32:02Z</time></trkpt><trkpt lat="43.88521175012576" lon="12.692210196030503"><ele>84.25</ele><time>2026-04-25T14:32:03Z</time></trkpt><trkpt lat="43.885242910589156" lon="12.692401388472463"><ele>85.0</ele><time>2026-04-25T14:32:04Z</time></trkpt><trkpt lat="43.885274285709876" lon="12.69257540510755"><ele>85.0</ele><time>2026-04-25T14:32:05Z</time></trkpt><trkpt lat="43.885300860528545" lon="12.692720946519124"><ele>85.0</ele><time>2026-04-25T14:32:06Z</time></trkpt><trkpt lat="43.88531500161092" lon="12.692859490433943"><ele>85.0</ele><time>2026-04-25T14:32:07Z</time></trkpt><trkpt lat="43.88533320211181" lon="12.692986856083309"><ele>85.0</ele><time>2026-04-25T14:32:08Z</time></trkpt><trkpt lat="43.885342538700534" lon="12.693117471726966"><ele>85.0</ele><time>2026-04-25T14:32:09Z</time></trkpt><trkpt lat="43.88534485002886" lon="12.693240463847927"><ele>84.0</ele><time>2026-04-25T14:32:10Z</time></trkpt><trkpt lat="43.885342962503856" lon="12.693352518594876"><ele>83.0</ele><time>2026-04-25T14:32:11Z</time></trkpt><trkpt lat="43.88534013792941" lon="12.693459746048438"><ele>82.0</ele><time>2026-04-25T14:32:12Z</time></trkpt><trkpt lat="43.88533656268486" lon="12.693562935723799"><ele>81.0</ele><time>2026-04-25T14:32:13Z</time></trkpt><trkpt lat="43.88533011844194" lon="12.693715295049248"><ele>80.0</ele><time>2026-04-25T14:32:14Z</time></trkpt><trkpt lat="43.88532043046247" lon="12.69390930770065"><ele>79.66666666666667</ele><time>2026-04-25T14:32:15Z</time></trkpt><trkpt lat="43.88532419207861" lon="12.69414180125204"><ele>79.33333333333333</ele><time>2026-04-25T14:32:16Z</time></trkpt><trkpt lat="43.88529215932325" lon="12.694355922589832"><ele>79.0</ele><time>2026-04-25T14:32:17Z</time></trkpt><trkpt lat="43.885276919568376" lon="12.694566098726934"><ele>79.0</ele><time>2026-04-25T14:32:18Z</time></trkpt><trkpt lat="43.88526056750182" lon="12.694791551212916"><ele>79.0</ele><time>2026-04-25T14:32:19Z</time></trkpt><trkpt lat="43.885243956036014" lon="12.695053649264045"><ele>79.0</ele><time>2026-04-25T14:32:20Z</time></trkpt><trkpt lat="43.88522939561211" lon="12.695283385064341"><ele>81.33333333333333</ele><time>2026-04-25T14:32:21Z</time></trkpt><trkpt lat="43.88521465190443" lon="12.695520172903699"><ele>83.66666666666667</ele><time>2026-04-25T14:32:22Z</time></trkpt><trkpt lat="43.885199354124595" lon="12.695766005194645"><ele>86.0</ele><time>2026-04-25T14:32:23Z</time></trkpt><trkpt lat="43.88518594121381" lon="12.695981548546477"><ele>87.0</ele><time>2026-04-25T14:32:24Z</time></trkpt><trkpt lat="43.88517351839471" lon="12.696172324136128"><ele>88.0</ele><time>2026-04-25T14:32:25Z</time></trkpt><trkpt lat="43.88516019580412" lon="12.6963358746782"><ele>89.0</ele><time>2026-04-25T14:32:26Z</time></trkpt><trkpt lat="43.885141955259485" lon="12.69648338963604"><ele>90.0</ele><time>2026-04-25T14:32:27Z</time></trkpt><trkpt lat="43.88513453700717" lon="12.69659920303931"><ele>91.0</ele><time>2026-04-25T14:32:28Z</time></trkpt><trkpt lat="43.885150953002125" lon="12.696723427400887"><ele>91.0</ele><time>2026-04-25T14:32:29Z</time></trkpt><trkpt lat="43.88516099936873" lon="12.696837910110103"><ele>91.0</ele><time>2026-04-25T14:32:30Z</time></trkpt><trkpt lat="43.88518530383067" lon="12.696956645209639"><ele>91.0</ele><time>2026-04-25T14:32:31Z</time></trkpt><trkpt lat="43.88522418918195" lon="12.697102219851416"><ele>91.0</ele><time>2026-04-25T14:32:32Z</time></trkpt><trkpt lat="43.88525857153453" lon="12.697240263736994"><ele>91.0</ele><time>2026-04-25T14:32:33Z</time></trkpt><trkpt lat="43.88524599899332" lon="12.697369476056014"><ele>90.19999999999999</ele><time>2026-04-25T14:32:34Z</time></trkpt><trkpt lat="43.885232559754165" lon="12.697501508171372"><ele>89.39999999999999</ele><time>2026-04-25T14:32:35Z</time></trkpt><trkpt lat="43.88520368825897" lon="12.697630999058614"><ele>88.6</ele><time>2026-04-25T14:32:36Z</time></trkpt><trkpt lat="43.88516297623111" lon="12.697738218872813"><ele>87.8</ele><time>2026-04-25T14:32:37Z</time></trkpt><trkpt lat="43.88511131128014" lon="12.697837410103238"><ele>87.0</ele><time>2026-04-25T14:32:38Z</time></trkpt><trkpt lat="43.8850406034242" lon="12.697947282570142"><ele>87.0</ele><time>2026-04-25T14:32:39Z</time></trkpt><trkpt lat="43.88495123130752" lon="12.698072958561132"><ele>87.0</ele><time>2026-04-25T14:32:40Z</time></trkpt><trkpt lat="43.88488986717222" lon="12.69819999907922"><ele>87.0</ele><time>2026-04-25T14:32:41Z</time></trkpt><trkpt lat="43.88485045222541" lon="12.698356154232288"><ele>87.0</ele><time>2026-04-25T14:32:42Z</time></trkpt><trkpt lat="43.884827912637284" lon="12.698534473608982"><ele>88.66666666666667</ele><time>2026-04-25T14:32:43Z</time></trkpt><trkpt lat="43.88479556560978" lon="12.698737948608127"><ele>90.33333333333334</ele><time>2026-04-25T14:32:44Z</time></trkpt><trkpt lat="43.884741063214555" lon="12.698956125445067"><ele>92.0</ele><time>2026-04-25T14:32:45Z</time></trkpt><trkpt lat="43.88468643342943" lon="12.699237600226486"><ele>91.66666666666667</ele><time>2026-04-25T14:32:46Z</time></trkpt><trkpt lat="43.884641036034544" lon="12.699471506242514"><ele>91.33333333333333</ele><time>2026-04-25T14:32:47Z</time></trkpt><trkpt lat="43.88460056876172" lon="12.699674697273013"><ele>91.0</ele><time>2026-04-25T14:32:48Z</time></trkpt><trkpt lat="43.88456371249723" lon="12.69986349778856"><ele>91.0</ele><time>2026-04-25T14:32:49Z</time></trkpt><trkpt lat="43.88453943670621" lon="12.700058720538207"><ele>91.0</ele><time>2026-04-25T14:32:50Z</time></trkpt><trkpt lat="43.88453818279568" lon="12.700237927324503"><ele>91.0</ele><time>2026-04-25T14:32:51Z</time></trkpt><trkpt lat="43.88452458951854" lon="12.700395828032793"><ele>91.0</ele><time>2026-04-25T14:32:52Z</time></trkpt><trkpt lat="43.884526063717196" lon="12.700540365883878"><ele>90.4</ele><time>2026-04-25T14:32:53Z</time></trkpt><trkpt lat="43.88454423662109" lon="12.70070342125416"><ele>89.8</ele><time>2026-04-25T14:32:54Z</time></trkpt><trkpt lat="43.884573654826745" lon="12.70084400918289"><ele>89.2</ele><time>2026-04-25T14:32:55Z</time></trkpt><trkpt lat="43.88460622735101" lon="12.700964911522314"><ele>88.60000000000001</ele><time>2026-04-25T14:32:56Z</time></trkpt><trkpt lat="43.88464401049886" lon="12.701070217569928"><ele>88.0</ele><time>2026-04-25T14:32:57Z</time></trkpt><trkpt lat="43.88468570765474" lon="12.701155503534743"><ele>87.2</ele><time>2026-04-25T14:32:58Z</time></trkpt><trkpt lat="43.88474701712557" lon="12.701248012006207"><ele>86.4</ele><time>2026-04-25T14:32:59Z</time></trkpt><trkpt lat="43.88482870232346" lon="12.701340714173698"><ele>85.60000000000001</ele><time>2026-04-25T14:33:00Z</time></trkpt><trkpt lat="43.88491935226154" lon="12.701431429165611"><ele>84.80000000000001</ele><time>2026-04-25T14:33:01Z</time></trkpt><trkpt lat="43.88500872305358" lon="12.701510941943344"><ele>84.0</ele><time>2026-04-25T14:33:02Z</time></trkpt><trkpt lat="43.885076398014" lon="12.701580252370384"><ele>85.66666666666667</ele><time>2026-04-25T14:33:03Z</time></trkpt><trkpt lat="43.88513751415284" lon="12.701633934157627"><ele>87.33333333333333</ele><time>2026-04-25T14:33:04Z</time></trkpt><trkpt lat="43.88519272994837" lon="12.701677779551744"><ele>89.0</ele><time>2026-04-25T14:33:05Z</time></trkpt><trkpt lat="43.88528005987451" lon="12.701788240316656"><ele>90.66666666666666</ele><time>2026-04-25T14:33:07Z</time></trkpt><trkpt lat="43.88527735627506" lon="12.701954332357227"><ele>92.33333333333333</ele><time>2026-04-25T14:33:09.001Z</time></trkpt><trkpt lat="43.88523401098578" lon="12.702028924287795"><ele>94.0</ele><time>2026-04-25T14:33:10Z</time></trkpt><trkpt lat="43.88520897576186" lon="12.702130218450106"><ele>94.80000000000001</ele><time>2026-04-25T14:33:11Z</time></trkpt><trkpt lat="43.885173192859575" lon="12.702239478644461"><ele>95.60000000000001</ele><time>2026-04-25T14:33:12Z</time></trkpt><trkpt lat="43.885133456852316" lon="12.702369494226048"><ele>96.4</ele><time>2026-04-25T14:33:13Z</time></trkpt><trkpt lat="43.885108434436674" lon="12.702493189042068"><ele>97.2</ele><time>2026-04-25T14:33:14Z</time></trkpt><trkpt lat="43.88509653672852" lon="12.70260203266682"><ele>98.0</ele><time>2026-04-25T14:33:16Z</time></trkpt><trkpt lat="43.885259728014056" lon="12.702628211539459"><ele>98.0</ele><time>2026-04-25T14:33:36Z</time></trkpt><trkpt lat="43.88536211702892" lon="12.702568546607361"><ele>98.0</ele><time>2026-04-25T14:33:44Z</time></trkpt><trkpt lat="43.88542764735508" lon="12.702529263150799"><ele>98.0</ele><time>2026-04-25T14:33:45Z</time></trkpt><trkpt lat="43.88553748538973" lon="12.702499843504523"><ele>98.0</ele><time>2026-04-25T14:33:46Z</time></trkpt><trkpt lat="43.88567524298363" lon="12.702565483117189"><ele>98.0</ele><time>2026-04-25T14:33:47Z</time></trkpt><trkpt lat="43.88582165448351" lon="12.702538017352968"><ele>100.75</ele><time>2026-04-25T14:33:48Z</time></trkpt><trkpt lat="43.88599137780098" lon="12.702497526876991"><ele>103.5</ele><time>2026-04-25T14:33:49Z</time></trkpt><trkpt lat="43.886147563211" lon="12.70245103772438"><ele>106.25</ele><time>2026-04-25T14:33:50Z</time></trkpt><trkpt lat="43.88625412309364" lon="12.702395537703078"><ele>109.0</ele><time>2026-04-25T14:33:51Z</time></trkpt><trkpt lat="43.8863574470229" lon="12.702343283297438"><ele>109.0</ele><time>2026-04-25T14:33:52Z</time></trkpt><trkpt lat="43.886460116449875" lon="12.702287378202277"><ele>109.0</ele><time>2026-04-25T14:33:53Z</time></trkpt><trkpt lat="43.88657456878979" lon="12.702215559681479"><ele>109.0</ele><time>2026-04-25T14:33:54Z</time></trkpt><trkpt lat="43.88669786046728" lon="12.702135729069974"><ele>109.0</ele><time>2026-04-25T14:33:55Z</time></trkpt><trkpt lat="43.88680529329809" lon="12.70206111193027"><ele>109.66666666666667</ele><time>2026-04-25T14:33:56Z</time></trkpt><trkpt lat="43.88689454493721" lon="12.702036160168642"><ele>110.33333333333334</ele><time>2026-04-25T14:33:57Z</time></trkpt><trkpt lat="43.88696188706412" lon="12.702001823073429"><ele>111.0</ele><time>2026-04-25T14:33:58Z</time></trkpt><trkpt lat="43.88704059087133" lon="12.701966609066242"><ele>111.66666666666666</ele><time>2026-04-25T14:33:59Z</time></trkpt><trkpt lat="43.8871283594344" lon="12.701943312881655"><ele>112.33333333333333</ele><time>2026-04-25T14:34:00Z</time></trkpt><trkpt lat="43.887206916745306" lon="12.701886877895715"><ele>113.0</ele><time>2026-04-25T14:34:01Z</time></trkpt><trkpt lat="43.887295541208275" lon="12.70182642162804"><ele>114.5</ele><time>2026-04-25T14:34:02Z</time></trkpt><trkpt lat="43.88737896065311" lon="12.701721753328036"><ele>116.0</ele><time>2026-04-25T14:34:03Z</time></trkpt><trkpt lat="43.88746864000083" lon="12.701583650093157"><ele>117.5</ele><time>2026-04-25T14:34:04Z</time></trkpt><trkpt lat="43.88756962419241" lon="12.701455637610033"><ele>119.0</ele><time>2026-04-25T14:34:05Z</time></trkpt><trkpt lat="43.88768296259244" lon="12.701356918809374"><ele>119.5</ele><time>2026-04-25T14:34:06Z</time></trkpt><trkpt lat="43.88779090018958" lon="12.701245381835063"><ele>120.0</ele><time>2026-04-25T14:34:07Z</time></trkpt><trkpt lat="43.887887491020834" lon="12.701118364119381"><ele>120.5</ele><time>2026-04-25T14:34:08Z</time></trkpt><trkpt lat="43.887965532389124" lon="12.701011720842109"><ele>121.0</ele><time>2026-04-25T14:34:09Z</time></trkpt><trkpt lat="43.887985949548884" lon="12.700854387081206"><ele>122.33333333333334</ele><time>2026-04-25T14:34:10Z</time></trkpt><trkpt lat="43.88806137902149" lon="12.70068623522308"><ele>123.66666666666666</ele><time>2026-04-25T14:34:11Z</time></trkpt><trkpt lat="43.88833190078101" lon="12.700643661010027"><ele>125.0</ele><time>2026-04-25T14:34:12Z</time></trkpt><trkpt lat="43.88847016549166" lon="12.70049058697163"><ele>125.0</ele><time>2026-04-25T14:34:13Z</time></trkpt><trkpt lat="43.88860988185542" lon="12.700332443884356"><ele>125.0</ele><time>2026-04-25T14:34:14Z</time></trkpt><trkpt lat="43.88872032087385" lon="12.700215680435246"><ele>125.0</ele><time>2026-04-25T14:34:15Z</time></trkpt><trkpt lat="43.88880087745179" lon="12.70012603907791"><ele>125.0</ele><time>2026-04-25T14:34:16Z</time></trkpt><trkpt lat="43.88885915548993" lon="12.700066726844078"><ele>126.8</ele><time>2026-04-25T14:34:17Z</time></trkpt><trkpt lat="43.8888892077983" lon="12.699981884482588"><ele>128.6</ele><time>2026-04-25T14:34:19Z</time></trkpt><trkpt lat="43.888873658084144" lon="12.699868117852171"><ele>130.4</ele><time>2026-04-25T14:34:21Z</time></trkpt><trkpt lat="43.88882186440795" lon="12.699757774715208"><ele>132.2</ele><time>2026-04-25T14:34:23Z</time></trkpt><trkpt lat="43.88870654504996" lon="12.699747391933458"><ele>134.0</ele><time>2026-04-25T14:36:23Z</time></trkpt><trkpt lat="43.8886017912504" lon="12.699737974315601"><ele>134.0</ele><time>2026-04-25T14:36:25Z</time></trkpt><trkpt lat="43.88853168919343" lon="12.69973971255217"><ele>134.0</ele><time>2026-04-25T14:36:26Z</time></trkpt><trkpt lat="43.88843112060059" lon="12.699737205343064"><ele>134.0</ele><time>2026-04-25T14:36:27Z</time></trkpt><trkpt lat="43.888276304090404" lon="12.69973901436385"><ele>134.0</ele><time>2026-04-25T14:36:28Z</time></trkpt><trkpt lat="43.888178804578665" lon="12.699736680582939"><ele>134.0</ele><time>2026-04-25T14:36:29Z</time></trkpt><trkpt lat="43.88811411611582" lon="12.699772132237669"><ele>134.0</ele><time>2026-04-25T14:36:31Z</time></trkpt><trkpt lat="43.88817314623587" lon="12.699863697889347"><ele>134.0</ele><time>2026-04-25T14:36:33Z</time></trkpt><trkpt lat="43.88823634360469" lon="12.699904696780028"><ele>134.0</ele><time>2026-04-25T14:36:34Z</time></trkpt><trkpt lat="43.88832362589966" lon="12.699922778795761"><ele>134.0</ele><time>2026-04-25T14:36:35Z</time></trkpt><trkpt lat="43.888466903551134" lon="12.69990432794796"><ele>134.0</ele><time>2026-04-25T14:36:36Z</time></trkpt><trkpt lat="43.88863600236309" lon="12.699878921320684"><ele>134.0</ele><time>2026-04-25T14:36:37Z</time></trkpt><trkpt lat="43.88875825532994" lon="12.699855016602765"><ele>134.0</ele><time>2026-04-25T14:36:38Z</time></trkpt><trkpt lat="43.88883499742732" lon="12.699836909091394"><ele>134.0</ele><time>2026-04-25T14:36:39Z</time></trkpt><trkpt lat="43.88889105521457" lon="12.699768087985408"><ele>134.0</ele><time>2026-04-25T14:36:41Z</time></trkpt><trkpt lat="43.88882166590481" lon="12.699685138816571"><ele>134.0</ele><time>2026-04-25T14:36:43Z</time></trkpt><trkpt lat="43.888755319991716" lon="12.699667044937087"><ele>134.0</ele><time>2026-04-25T14:36:44Z</time></trkpt><trkpt lat="43.88867261370895" lon="12.699652737910121"><ele>134.0</ele><time>2026-04-25T14:36:45Z</time></trkpt><trkpt lat="43.88854543448879" lon="12.69964755137679"><ele>134.0</ele><time>2026-04-25T14:36:46Z</time></trkpt><trkpt lat="43.88839850258598" lon="12.699647703266507"><ele>134.0</ele><time>2026-04-25T14:36:47Z</time></trkpt><trkpt lat="43.88829681510813" lon="12.699649007215239"><ele>134.0</ele><time>2026-04-25T14:36:48Z</time></trkpt><trkpt lat="43.88823089848541" lon="12.699643989013504"><ele>134.0</ele><time>2026-04-25T14:36:49Z</time></trkpt><trkpt lat="43.888168829872846" lon="12.699711030395425"><ele>134.0</ele><time>2026-04-25T14:36:51Z</time></trkpt><trkpt lat="43.88822302361223" lon="12.699837230598153"><ele>134.0</ele><time>2026-04-25T14:36:53Z</time></trkpt><trkpt lat="43.88828376950789" lon="12.699892188750415"><ele>134.0</ele><time>2026-04-25T14:36:54Z</time></trkpt><trkpt lat="43.88836994438429" lon="12.699921723986568"><ele>134.0</ele><time>2026-04-25T14:36:55Z</time></trkpt><trkpt lat="43.88850633333" lon="12.699921461055315"><ele>134.0</ele><time>2026-04-25T14:36:56Z</time></trkpt><trkpt lat="43.88865419807949" lon="12.69991538450506"><ele>134.0</ele><time>2026-04-25T14:36:57Z</time></trkpt><trkpt lat="43.88876524579207" lon="12.699903746204187"><ele>134.0</ele><time>2026-04-25T14:36:58Z</time></trkpt><trkpt lat="43.88885694338511" lon="12.699900416213628"><ele>134.0</ele><time>2026-04-25T14:36:59Z</time></trkpt><trkpt lat="43.8889274615803" lon="12.69991041841599"><ele>134.0</ele><time>2026-04-25T14:37:00Z</time></trkpt><trkpt lat="43.88901923736065" lon="12.699916170975166"><ele>134.0</ele><time>2026-04-25T14:37:01Z</time></trkpt><trkpt lat="43.8890898473329" lon="12.699922330227754"><ele>134.0</ele><time>2026-04-25T14:37:02Z</time></trkpt><trkpt lat="43.8891537622669" lon="12.699923135148229"><ele>134.0</ele><time>2026-04-25T14:37:03Z</time></trkpt><trkpt lat="43.88925390933862" lon="12.69992294530755"><ele>134.0</ele><time>2026-04-25T14:37:05Z</time></trkpt><trkpt lat="43.88932208381894" lon="12.6999237851314"><ele>134.0</ele><time>2026-04-25T14:37:09Z</time></trkpt><trkpt lat="43.88939176026598" lon="12.699902982370606"><ele>134.0</ele><time>2026-04-25T14:37:10Z</time></trkpt><trkpt lat="43.889518244573516" lon="12.699885695450627"><ele>134.0</ele><time>2026-04-25T14:37:11Z</time></trkpt><trkpt lat="43.88968413847389" lon="12.699855039230998"><ele>133.33333333333331</ele><time>2026-04-25T14:37:12Z</time></trkpt><trkpt lat="43.88988249198317" lon="12.69981846245335"><ele>132.66666666666666</ele><time>2026-04-25T14:37:13Z</time></trkpt><trkpt lat="43.89009942652328" lon="12.69976541091122"><ele>132.0</ele><time>2026-04-25T14:37:14Z</time></trkpt><trkpt lat="43.890308474803085" lon="12.699704777043118"><ele>131.33333333333334</ele><time>2026-04-25T14:37:15Z</time></trkpt><trkpt lat="43.89052014765505" lon="12.699638483763964"><ele>130.66666666666669</ele><time>2026-04-25T14:37:16Z</time></trkpt><trkpt lat="43.89069425120307" lon="12.699582118355934"><ele>130.0</ele><time>2026-04-25T14:37:17Z</time></trkpt><trkpt lat="43.89083512345571" lon="12.699531967322049"><ele>129.6</ele><time>2026-04-25T14:37:18Z</time></trkpt><trkpt lat="43.8909530204182" lon="12.699488557813945"><ele>129.2</ele><time>2026-04-25T14:37:19Z</time></trkpt><trkpt lat="43.891063162463205" lon="12.699454980754824"><ele>128.8</ele><time>2026-04-25T14:37:20Z</time></trkpt><trkpt lat="43.891156426274485" lon="12.699423041220198"><ele>128.4</ele><time>2026-04-25T14:37:21Z</time></trkpt><trkpt lat="43.89123412660801" lon="12.69940482453393"><ele>128.0</ele><time>2026-04-25T14:37:22Z</time></trkpt><trkpt lat="43.89130170270019" lon="12.699394621657772"><ele>129.0</ele><time>2026-04-25T14:37:23Z</time></trkpt><trkpt lat="43.891376521768656" lon="12.699387953538897"><ele>130.0</ele><time>2026-04-25T14:37:24Z</time></trkpt><trkpt lat="43.891455317367935" lon="12.699377482494379"><ele>131.0</ele><time>2026-04-25T14:37:25Z</time></trkpt><trkpt lat="43.89154442581385" lon="12.699354277498506"><ele>132.0</ele><time>2026-04-25T14:37:26Z</time></trkpt><trkpt lat="43.89165480495682" lon="12.699328007914495"><ele>133.0</ele><time>2026-04-25T14:37:27Z</time></trkpt><trkpt lat="43.891793427589235" lon="12.699284983431399"><ele>133.0</ele><time>2026-04-25T14:37:28Z</time></trkpt><trkpt lat="43.89196957583869" lon="12.699231548525564"><ele>133.0</ele><time>2026-04-25T14:37:29Z</time></trkpt><trkpt lat="43.892116699708104" lon="12.699186862625124"><ele>133.0</ele><time>2026-04-25T14:37:30Z</time></trkpt><trkpt lat="43.89226036295819" lon="12.699144599507571"><ele>133.0</ele><time>2026-04-25T14:37:31Z</time></trkpt><trkpt lat="43.892375692578064" lon="12.699104174744834"><ele>133.0</ele><time>2026-04-25T14:37:32Z</time></trkpt><trkpt lat="43.892486856963416" lon="12.69907592237748"><ele>133.0</ele><time>2026-04-25T14:37:33Z</time></trkpt><trkpt lat="43.89260960116733" lon="12.699041191105893"><ele>133.0</ele><time>2026-04-25T14:37:34Z</time></trkpt><trkpt lat="43.892741469207685" lon="12.698996680151161"><ele>132.6</ele><time>2026-04-25T14:37:35Z</time></trkpt><trkpt lat="43.89283381245259" lon="12.69895735600957"><ele>132.20000000000002</ele><time>2026-04-25T14:37:36Z</time></trkpt><trkpt lat="43.89291797212983" lon="12.698927101029213"><ele>131.8</ele><time>2026-04-25T14:37:37Z</time></trkpt><trkpt lat="43.89299036452151" lon="12.698903720036087"><ele>131.4</ele><time>2026-04-25T14:37:38Z</time></trkpt><trkpt lat="43.89310610636675" lon="12.698873965329996"><ele>131.0</ele><time>2026-04-25T14:37:40Z</time></trkpt><trkpt lat="43.89319985839695" lon="12.698856107256589"><ele>131.0</ele><time>2026-04-25T14:37:42Z</time></trkpt><trkpt lat="43.89328760837647" lon="12.698884328513543"><ele>131.0</ele><time>2026-04-25T14:37:44Z</time></trkpt><trkpt lat="43.89340231585447" lon="12.698864032697811"><ele>131.0</ele><time>2026-04-25T14:37:46Z</time></trkpt><trkpt lat="43.89350702921855" lon="12.69882131208226"><ele>131.0</ele><time>2026-04-25T14:37:48Z</time></trkpt><trkpt lat="43.89361203503268" lon="12.69870996323438"><ele>131.0</ele><time>2026-04-25T14:37:50Z</time></trkpt><trkpt lat="43.89367807057081" lon="12.698621636428157"><ele>133.25</ele><time>2026-04-25T14:37:51Z</time></trkpt><trkpt lat="43.89374747493928" lon="12.698502880241286"><ele>135.5</ele><time>2026-04-25T14:37:52Z</time></trkpt><trkpt lat="43.89382875475142" lon="12.69838219231438"><ele>137.75</ele><time>2026-04-25T14:37:53Z</time></trkpt><trkpt lat="43.89390564565857" lon="12.698265898695393"><ele>140.0</ele><time>2026-04-25T14:37:54Z</time></trkpt><trkpt lat="43.89399139663651" lon="12.698135377952726"><ele>140.0</ele><time>2026-04-25T14:37:55Z</time></trkpt><trkpt lat="43.894080488709825" lon="12.698006040528563"><ele>140.0</ele><time>2026-04-25T14:37:56Z</time></trkpt><trkpt lat="43.89417244094645" lon="12.697877678023811"><ele>140.0</ele><time>2026-04-25T14:37:57Z</time></trkpt><trkpt lat="43.89428227975612" lon="12.697727777829225"><ele>140.0</ele><time>2026-04-25T14:37:58Z</time></trkpt><trkpt lat="43.89439895587102" lon="12.697575149991902"><ele>143.75</ele><time>2026-04-25T14:37:59Z</time></trkpt><trkpt lat="43.89449329436953" lon="12.697460752797808"><ele>147.5</ele><time>2026-04-25T14:38:00Z</time></trkpt><trkpt lat="43.894586929531606" lon="12.697366081452662"><ele>151.25</ele><time>2026-04-25T14:38:01Z</time></trkpt><trkpt lat="43.894688730103496" lon="12.69727965000261"><ele>155.0</ele><time>2026-04-25T14:38:02Z</time></trkpt><trkpt lat="43.89478758057443" lon="12.697200996916715"><ele>155.0</ele><time>2026-04-25T14:38:03Z</time></trkpt><trkpt lat="43.89486186338311" lon="12.697149949452227"><ele>155.0</ele><time>2026-04-25T14:38:04Z</time></trkpt><trkpt lat="43.89494108002991" lon="12.697102999101398"><ele>155.0</ele><time>2026-04-25T14:38:05Z</time></trkpt><trkpt lat="43.89501926831938" lon="12.697108723433974"><ele>155.0</ele><time>2026-04-25T14:38:06Z</time></trkpt><trkpt lat="43.89509620806429" lon="12.697091554504725"><ele>155.0</ele><time>2026-04-25T14:38:07Z</time></trkpt><trkpt lat="43.895185322614644" lon="12.69706136918236"><ele>155.0</ele><time>2026-04-25T14:38:08Z</time></trkpt><trkpt lat="43.8952911004756" lon="12.697001196414046"><ele>155.4</ele><time>2026-04-25T14:38:09Z</time></trkpt><trkpt lat="43.89540967297611" lon="12.69695194723927"><ele>155.8</ele><time>2026-04-25T14:38:10Z</time></trkpt><trkpt lat="43.895521025341125" lon="12.696900917629648"><ele>156.2</ele><time>2026-04-25T14:38:11Z</time></trkpt><trkpt lat="43.895612513709956" lon="12.696876950141267"><ele>156.6</ele><time>2026-04-25T14:38:12Z</time></trkpt><trkpt lat="43.89569860575107" lon="12.696908350703696"><ele>157.0</ele><time>2026-04-25T14:38:13Z</time></trkpt><trkpt lat="43.89578137978883" lon="12.696928939827727"><ele>157.0</ele><time>2026-04-25T14:38:14Z</time></trkpt><trkpt lat="43.8958456587588" lon="12.696946265960221"><ele>157.0</ele><time>2026-04-25T14:38:15Z</time></trkpt><trkpt lat="43.895923038501635" lon="12.696951370684527"><ele>157.0</ele><time>2026-04-25T14:38:16Z</time></trkpt><trkpt lat="43.89600648398353" lon="12.696979072445028"><ele>157.0</ele><time>2026-04-25T14:38:17Z</time></trkpt><trkpt lat="43.89609482376098" lon="12.696997615448932"><ele>157.0</ele><time>2026-04-25T14:38:18Z</time></trkpt><trkpt lat="43.89619152495605" lon="12.696995893159391"><ele>157.0</ele><time>2026-04-25T14:38:19Z</time></trkpt><trkpt lat="43.896276102110356" lon="12.696974290910806"><ele>159.2</ele><time>2026-04-25T14:38:20Z</time></trkpt><trkpt lat="43.896358933459055" lon="12.696921934838302"><ele>161.39999999999998</ele><time>2026-04-25T14:38:21Z</time></trkpt><trkpt lat="43.896443573450185" lon="12.696843459445452"><ele>163.60000000000002</ele><time>2026-04-25T14:38:22Z</time></trkpt><trkpt lat="43.89653199668844" lon="12.696748789782028"><ele>165.8</ele><time>2026-04-25T14:38:23Z</time></trkpt><trkpt lat="43.896633974088545" lon="12.696656565053159"><ele>168.0</ele><time>2026-04-25T14:38:24Z</time></trkpt><trkpt lat="43.89674590441536" lon="12.696605507188295"><ele>167.4</ele><time>2026-04-25T14:38:25Z</time></trkpt><trkpt lat="43.89683442498129" lon="12.696531531749475"><ele>166.8</ele><time>2026-04-25T14:38:26Z</time></trkpt><trkpt lat="43.89691791906717" lon="12.696466535520136"><ele>166.2</ele><time>2026-04-25T14:38:27Z</time></trkpt><trkpt lat="43.896989967061536" lon="12.696359692069805"><ele>165.6</ele><time>2026-04-25T14:38:28Z</time></trkpt><trkpt lat="43.897059887046716" lon="12.696212662657357"><ele>165.0</ele><time>2026-04-25T14:38:29Z</time></trkpt><trkpt lat="43.897134561228654" lon="12.696038287605557"><ele>165.0</ele><time>2026-04-25T14:38:30Z</time></trkpt><trkpt lat="43.89719736804237" lon="12.695892582588321"><ele>165.0</ele><time>2026-04-25T14:38:31Z</time></trkpt><trkpt lat="43.897252731004045" lon="12.695775571343557"><ele>165.0</ele><time>2026-04-25T14:38:32Z</time></trkpt><trkpt lat="43.89729893190112" lon="12.6956667245425"><ele>165.0</ele><time>2026-04-25T14:38:33Z</time></trkpt><trkpt lat="43.897317620366124" lon="12.695558134502999"><ele>165.0</ele><time>2026-04-25T14:38:34Z</time></trkpt><trkpt lat="43.89731514982286" lon="12.695427249674303"><ele>165.0</ele><time>2026-04-25T14:38:35Z</time></trkpt><trkpt lat="43.89730529638963" lon="12.69526072434392"><ele>165.0</ele><time>2026-04-25T14:38:36Z</time></trkpt><trkpt lat="43.89729261028968" lon="12.695103553405513"><ele>165.0</ele><time>2026-04-25T14:38:37Z</time></trkpt><trkpt lat="43.89728781957951" lon="12.694968298546648"><ele>165.0</ele><time>2026-04-25T14:38:38Z</time></trkpt><trkpt lat="43.89728527899152" lon="12.694853370620093"><ele>165.0</ele><time>2026-04-25T14:38:39Z</time></trkpt><trkpt lat="43.8972844178935" lon="12.694749204335066"><ele>163.83333333333334</ele><time>2026-04-25T14:38:40Z</time></trkpt><trkpt lat="43.89728155746001" lon="12.694654472383126"><ele>162.66666666666666</ele><time>2026-04-25T14:38:41Z</time></trkpt><trkpt lat="43.8972940337004" lon="12.694531116721736"><ele>161.5</ele><time>2026-04-25T14:38:43Z</time></trkpt><trkpt lat="43.897394129978196" lon="12.69459699510235"><ele>160.33333333333331</ele><time>2026-04-25T14:38:48Z</time></trkpt><trkpt lat="43.89744466637061" lon="12.69468077446581"><ele>159.16666666666666</ele><time>2026-04-25T14:38:49Z</time></trkpt><trkpt lat="43.89751285889949" lon="12.69476432093659"><ele>158.0</ele><time>2026-04-25T14:38:50Z</time></trkpt><trkpt lat="43.897575991284526" lon="12.694862609354548"><ele>157.6</ele><time>2026-04-25T14:38:51Z</time></trkpt><trkpt lat="43.89763688044437" lon="12.694961538874503"><ele>157.20000000000002</ele><time>2026-04-25T14:38:52Z</time></trkpt><trkpt lat="43.89770126315102" lon="12.69505725386421"><ele>156.8</ele><time>2026-04-25T14:38:53Z</time></trkpt><trkpt lat="43.8977670940822" lon="12.695156001244868"><ele>156.4</ele><time>2026-04-25T14:38:54Z</time></trkpt><trkpt lat="43.89783722648798" lon="12.69525338992372"><ele>156.0</ele><time>2026-04-25T14:38:55Z</time></trkpt><trkpt lat="43.89790657603537" lon="12.695353882368384"><ele>156.0</ele><time>2026-04-25T14:38:56Z</time></trkpt><trkpt lat="43.897972055371994" lon="12.695450177436447"><ele>156.0</ele><time>2026-04-25T14:38:57Z</time></trkpt><trkpt lat="43.898030329108515" lon="12.695537551456827"><ele>156.0</ele><time>2026-04-25T14:38:58Z</time></trkpt><trkpt lat="43.89809450985404" lon="12.695608630289485"><ele>156.0</ele><time>2026-04-25T14:38:59Z</time></trkpt><trkpt lat="43.89815929098916" lon="12.695675585671822"><ele>156.0</ele><time>2026-04-25T14:39:00Z</time></trkpt><trkpt lat="43.89822516717826" lon="12.695740128203095"><ele>156.0</ele><time>2026-04-25T14:39:01Z</time></trkpt><trkpt lat="43.89829972448442" lon="12.695798877008157"><ele>156.0</ele><time>2026-04-25T14:39:02Z</time></trkpt><trkpt lat="43.898376609285634" lon="12.69586524806571"><ele>156.0</ele><time>2026-04-25T14:39:03Z</time></trkpt><trkpt lat="43.89845991533002" lon="12.695939605365295"><ele>156.0</ele><time>2026-04-25T14:39:04Z</time></trkpt><trkpt lat="43.89854489609032" lon="12.696014031933023"><ele>156.0</ele><time>2026-04-25T14:39:05Z</time></trkpt><trkpt lat="43.89862909895601" lon="12.6960870912043"><ele>156.0</ele><time>2026-04-25T14:39:06Z</time></trkpt><trkpt lat="43.89871437336106" lon="12.69615905127505"><ele>156.8</ele><time>2026-04-25T14:39:07Z</time></trkpt><trkpt lat="43.89880217215408" lon="12.696226347328544"><ele>157.6</ele><time>2026-04-25T14:39:08Z</time></trkpt><trkpt lat="43.89890054372238" lon="12.696284496494737"><ele>158.4</ele><time>2026-04-25T14:39:09Z</time></trkpt><trkpt lat="43.89901065053213" lon="12.69634406192937"><ele>159.2</ele><time>2026-04-25T14:39:10Z</time></trkpt><trkpt lat="43.899121324184975" lon="12.696402631674628"><ele>160.0</ele><time>2026-04-25T14:39:11Z</time></trkpt><trkpt lat="43.89922242582538" lon="12.696456584072932"><ele>158.6</ele><time>2026-04-25T14:39:12Z</time></trkpt><trkpt lat="43.899311119765144" lon="12.69650218468324"><ele>157.2</ele><time>2026-04-25T14:39:13Z</time></trkpt><trkpt lat="43.899383371620885" lon="12.696541607718434"><ele>155.8</ele><time>2026-04-25T14:39:14Z</time></trkpt><trkpt lat="43.89948784971095" lon="12.696632506373843"><ele>154.4</ele><time>2026-04-25T14:39:16Z</time></trkpt><trkpt lat="43.899554521396915" lon="12.696748572887001"><ele>153.0</ele><time>2026-04-25T14:39:18Z</time></trkpt><trkpt lat="43.8995853364432" lon="12.696862624847169"><ele>153.0</ele><time>2026-04-25T14:39:20Z</time></trkpt><trkpt lat="43.89964317907833" lon="12.696898541543382"><ele>153.0</ele><time>2026-04-25T14:39:24Z</time></trkpt><trkpt lat="43.89976532629494" lon="12.696887105037131"><ele>153.0</ele><time>2026-04-25T14:39:26Z</time></trkpt><trkpt lat="43.89985695847" lon="12.696889327285017"><ele>153.0</ele><time>2026-04-25T14:39:27Z</time></trkpt><trkpt lat="43.89995788733819" lon="12.696891774995516"><ele>153.0</ele><time>2026-04-25T14:39:28Z</time></trkpt><trkpt lat="43.90007975917297" lon="12.696893755496395"><ele>151.75</ele><time>2026-04-25T14:39:29Z</time></trkpt><trkpt lat="43.900213139571946" lon="12.69689582477708"><ele>150.5</ele><time>2026-04-25T14:39:30Z</time></trkpt><trkpt lat="43.900359295952576" lon="12.696884822917886"><ele>149.25</ele><time>2026-04-25T14:39:31Z</time></trkpt><trkpt lat="43.90049070780842" lon="12.696890418481987"><ele>148.0</ele><time>2026-04-25T14:39:32Z</time></trkpt><trkpt lat="43.90061161341869" lon="12.69689519612012"><ele>148.0</ele><time>2026-04-25T14:39:33Z</time></trkpt><trkpt lat="43.900724325857105" lon="12.696894471675247"><ele>148.0</ele><time>2026-04-25T14:39:34Z</time></trkpt><trkpt lat="43.900832398182175" lon="12.696897558459211"><ele>148.0</ele><time>2026-04-25T14:39:35Z</time></trkpt><trkpt lat="43.90094301943674" lon="12.696908749381974"><ele>148.0</ele><time>2026-04-25T14:39:36Z</time></trkpt><trkpt lat="43.90107184434946" lon="12.696955133802236"><ele>146.75</ele><time>2026-04-25T14:39:37Z</time></trkpt><trkpt lat="43.90119226297196" lon="12.696981958482503"><ele>145.5</ele><time>2026-04-25T14:39:38Z</time></trkpt><trkpt lat="43.901315959781286" lon="12.6970124490081"><ele>144.25</ele><time>2026-04-25T14:39:39Z</time></trkpt><trkpt lat="43.90144458420693" lon="12.697048344158858"><ele>143.0</ele><time>2026-04-25T14:39:40Z</time></trkpt><trkpt lat="43.90158000540153" lon="12.697089617507388"><ele>143.0</ele><time>2026-04-25T14:39:41Z</time></trkpt><trkpt lat="43.90172822436978" lon="12.697134480785788"><ele>143.0</ele><time>2026-04-25T14:39:42Z</time></trkpt><trkpt lat="43.90188802199983" lon="12.697179873492644"><ele>143.0</ele><time>2026-04-25T14:39:43Z</time></trkpt><trkpt lat="43.902032147116564" lon="12.697203007518267"><ele>142.0</ele><time>2026-04-25T14:39:44Z</time></trkpt><trkpt lat="43.90215835543014" lon="12.697239274342492"><ele>141.0</ele><time>2026-04-25T14:39:45Z</time></trkpt><trkpt lat="43.902281591150974" lon="12.697238115260463"><ele>140.0</ele><time>2026-04-25T14:39:46Z</time></trkpt><trkpt lat="43.90240267985306" lon="12.697220101300445"><ele>139.0</ele><time>2026-04-25T14:39:47Z</time></trkpt><trkpt lat="43.90253872852202" lon="12.697177805520377"><ele>139.75</ele><time>2026-04-25T14:39:48Z</time></trkpt><trkpt lat="43.902680767190944" lon="12.697101689440522"><ele>140.5</ele><time>2026-04-25T14:39:49Z</time></trkpt><trkpt lat="43.90282285884001" lon="12.697020047998912"><ele>141.25</ele><time>2026-04-25T14:39:50Z</time></trkpt><trkpt lat="43.902945552159125" lon="12.696946395032572"><ele>142.0</ele><time>2026-04-25T14:39:51Z</time></trkpt><trkpt lat="43.90306949511509" lon="12.696892638968585"><ele>142.25</ele><time>2026-04-25T14:39:52Z</time></trkpt><trkpt lat="43.90320235255258" lon="12.696893024016813"><ele>142.5</ele><time>2026-04-25T14:39:53Z</time></trkpt><trkpt lat="43.90334682971514" lon="12.69687567950748"><ele>142.75</ele><time>2026-04-25T14:39:54Z</time></trkpt><trkpt lat="43.90350243304035" lon="12.696852862453095"><ele>143.0</ele><time>2026-04-25T14:39:55Z</time></trkpt><trkpt lat="43.903652746466136" lon="12.69682585751172"><ele>144.25</ele><time>2026-04-25T14:39:56Z</time></trkpt><trkpt lat="43.90379653357192" lon="12.696770441307882"><ele>145.5</ele><time>2026-04-25T14:39:57Z</time></trkpt><trkpt lat="43.90393050026613" lon="12.696735009109728"><ele>146.75</ele><time>2026-04-25T14:39:58Z</time></trkpt><trkpt lat="43.9040544196471" lon="12.696727148350611"><ele>148.0</ele><time>2026-04-25T14:39:59Z</time></trkpt><trkpt lat="43.90416277393176" lon="12.69672830847436"><ele>148.0</ele><time>2026-04-25T14:40:00Z</time></trkpt><trkpt lat="43.9042614346402" lon="12.696763433946465"><ele>148.0</ele><time>2026-04-25T14:40:01Z</time></trkpt><trkpt lat="43.90436188501792" lon="12.696836538822517"><ele>148.0</ele><time>2026-04-25T14:40:02Z</time></trkpt><trkpt lat="43.90446601450469" lon="12.696927660692763"><ele>148.0</ele><time>2026-04-25T14:40:03Z</time></trkpt><trkpt lat="43.904575070453355" lon="12.697043311116174"><ele>149.33333333333334</ele><time>2026-04-25T14:40:04Z</time></trkpt><trkpt lat="43.90469681813795" lon="12.69718153056901"><ele>150.66666666666666</ele><time>2026-04-25T14:40:05Z</time></trkpt><trkpt lat="43.90483246047862" lon="12.697320069252331"><ele>152.0</ele><time>2026-04-25T14:40:06Z</time></trkpt><trkpt lat="43.904979239079665" lon="12.697465310733604"><ele>152.33333333333331</ele><time>2026-04-25T14:40:07Z</time></trkpt><trkpt lat="43.90513576843212" lon="12.697612421603571"><ele>152.66666666666666</ele><time>2026-04-25T14:40:08Z</time></trkpt><trkpt lat="43.905307445480844" lon="12.697740822055694"><ele>153.0</ele><time>2026-04-25T14:40:09Z</time></trkpt><trkpt lat="43.90547346453987" lon="12.697894179989433"><ele>153.0</ele><time>2026-04-25T14:40:10Z</time></trkpt><trkpt lat="43.90564297156235" lon="12.698043504273004"><ele>153.0</ele><time>2026-04-25T14:40:11Z</time></trkpt><trkpt lat="43.90581207315569" lon="12.698189789820857"><ele>153.0</ele><time>2026-04-25T14:40:12Z</time></trkpt><trkpt lat="43.90598584435208" lon="12.698337497143418"><ele>152.66666666666666</ele><time>2026-04-25T14:40:13Z</time></trkpt><trkpt lat="43.90614099617828" lon="12.698470415879108"><ele>152.33333333333331</ele><time>2026-04-25T14:40:14Z</time></trkpt><trkpt lat="43.9062835810589" lon="12.698591419572645"><ele>152.0</ele><time>2026-04-25T14:40:15Z</time></trkpt><trkpt lat="43.90641414435143" lon="12.698704312821917"><ele>152.0</ele><time>2026-04-25T14:40:16Z</time></trkpt><trkpt lat="43.90653270200032" lon="12.69880383901739"><ele>152.0</ele><time>2026-04-25T14:40:17Z</time></trkpt><trkpt lat="43.90664520239142" lon="12.698902851415058"><ele>152.0</ele><time>2026-04-25T14:40:18Z</time></trkpt><trkpt lat="43.90676753113399" lon="12.699002463258367"><ele>152.0</ele><time>2026-04-25T14:40:19Z</time></trkpt><trkpt lat="43.906892873781196" lon="12.699105623230425"><ele>150.33333333333331</ele><time>2026-04-25T14:40:20Z</time></trkpt><trkpt lat="43.907024610460795" lon="12.69921841171224"><ele>148.66666666666666</ele><time>2026-04-25T14:40:21Z</time></trkpt><trkpt lat="43.90716534765693" lon="12.699339985955122"><ele>147.0</ele><time>2026-04-25T14:40:22Z</time></trkpt><trkpt lat="43.90730214901422" lon="12.699461122756821"><ele>146.75</ele><time>2026-04-25T14:40:23Z</time></trkpt><trkpt lat="43.90742057459636" lon="12.699568602635212"><ele>146.5</ele><time>2026-04-25T14:40:24Z</time></trkpt><trkpt lat="43.9075214460972" lon="12.699666003145081"><ele>146.25</ele><time>2026-04-25T14:40:25Z</time></trkpt><trkpt lat="43.90760508370951" lon="12.699751134726084"><ele>146.0</ele><time>2026-04-25T14:40:26Z</time></trkpt><trkpt lat="43.90767902343405" lon="12.699824864331525"><ele>145.5</ele><time>2026-04-25T14:40:27Z</time></trkpt><trkpt lat="43.90775897373981" lon="12.699912901971153"><ele>145.0</ele><time>2026-04-25T14:40:28Z</time></trkpt><trkpt lat="43.90783997671136" lon="12.70004388506916"><ele>144.5</ele><time>2026-04-25T14:40:29Z</time></trkpt><trkpt lat="43.90793426705144" lon="12.700194139525859"><ele>144.0</ele><time>2026-04-25T14:40:30Z</time></trkpt><trkpt lat="43.90803235189526" lon="12.700352571120186"><ele>144.0</ele><time>2026-04-25T14:40:31Z</time></trkpt><trkpt lat="43.9081162773289" lon="12.70048298314352"><ele>144.0</ele><time>2026-04-25T14:40:32Z</time></trkpt><trkpt lat="43.90818975893636" lon="12.700585233888843"><ele>144.0</ele><time>2026-04-25T14:40:33Z</time></trkpt><trkpt lat="43.90826473257091" lon="12.70065741025382"><ele>144.0</ele><time>2026-04-25T14:40:34Z</time></trkpt><trkpt lat="43.90834504227049" lon="12.700707532277137"><ele>144.0</ele><time>2026-04-25T14:40:35Z</time></trkpt><trkpt lat="43.9084152506495" lon="12.700735093607586"><ele>142.75</ele><time>2026-04-25T14:40:36Z</time></trkpt><trkpt lat="43.90850189972514" lon="12.700730556519114"><ele>141.5</ele><time>2026-04-25T14:40:37Z</time></trkpt><trkpt lat="43.908607992042334" lon="12.70069139256186"><ele>140.25</ele><time>2026-04-25T14:40:38Z</time></trkpt><trkpt lat="43.908726390512044" lon="12.700625738213603"><ele>139.0</ele><time>2026-04-25T14:40:39Z</time></trkpt><trkpt lat="43.90885923601345" lon="12.700533011800662"><ele>139.0</ele><time>2026-04-25T14:40:40Z</time></trkpt><trkpt lat="43.909009667087275" lon="12.70041510320542"><ele>139.0</ele><time>2026-04-25T14:40:41Z</time></trkpt><trkpt lat="43.90915885730561" lon="12.7002955381678"><ele>139.0</ele><time>2026-04-25T14:40:42Z</time></trkpt><trkpt lat="43.90928903516045" lon="12.70019728809945"><ele>136.75</ele><time>2026-04-25T14:40:43Z</time></trkpt><trkpt lat="43.90941292977635" lon="12.700108129356437"><ele>134.5</ele><time>2026-04-25T14:40:44Z</time></trkpt><trkpt lat="43.90952410895991" lon="12.700019762759222"><ele>132.25</ele><time>2026-04-25T14:40:45Z</time></trkpt><trkpt lat="43.90962138490672" lon="12.699906205700072"><ele>130.0</ele><time>2026-04-25T14:40:46Z</time></trkpt><trkpt lat="43.90971892445669" lon="12.699749947921735"><ele>130.0</ele><time>2026-04-25T14:40:47Z</time></trkpt><trkpt lat="43.90983429391384" lon="12.699581468461439"><ele>130.0</ele><time>2026-04-25T14:40:48Z</time></trkpt><trkpt lat="43.909954635772344" lon="12.699393932030585"><ele>130.0</ele><time>2026-04-25T14:40:49Z</time></trkpt><trkpt lat="43.910075591995415" lon="12.699207334316982"><ele>127.33333333333334</ele><time>2026-04-25T14:40:50Z</time></trkpt><trkpt lat="43.91018492580132" lon="12.699036796541794"><ele>124.66666666666666</ele><time>2026-04-25T14:40:51Z</time></trkpt><trkpt lat="43.91028946640461" lon="12.698866474665282"><ele>122.0</ele><time>2026-04-25T14:40:52Z</time></trkpt><trkpt lat="43.910398811159716" lon="12.69870158230969"><ele>123.25</ele><time>2026-04-25T14:40:53Z</time></trkpt><trkpt lat="43.91050196820452" lon="12.698549821072936"><ele>124.5</ele><time>2026-04-25T14:40:54Z</time></trkpt><trkpt lat="43.91059990505048" lon="12.698401950596006"><ele>125.75</ele><time>2026-04-25T14:40:55Z</time></trkpt><trkpt lat="43.91068850841722" lon="12.698261206603936"><ele>127.0</ele><time>2026-04-25T14:40:56Z</time></trkpt><trkpt lat="43.9107736992122" lon="12.698130199132546"><ele>127.0</ele><time>2026-04-25T14:40:57Z</time></trkpt><trkpt lat="43.91085673825061" lon="12.69800708672586"><ele>127.0</ele><time>2026-04-25T14:40:58Z</time></trkpt><trkpt lat="43.910933867202296" lon="12.697884747037083"><ele>127.0</ele><time>2026-04-25T14:40:59Z</time></trkpt><trkpt lat="43.91101502244686" lon="12.697762042062555"><ele>127.0</ele><time>2026-04-25T14:41:00Z</time></trkpt><trkpt lat="43.91110166277323" lon="12.69763355255247"><ele>127.0</ele><time>2026-04-25T14:41:01Z</time></trkpt><trkpt lat="43.91119435429787" lon="12.697496023528968"><ele>127.0</ele><time>2026-04-25T14:41:02Z</time></trkpt><trkpt lat="43.911294181459084" lon="12.697346256062138"><ele>127.0</ele><time>2026-04-25T14:41:03Z</time></trkpt><trkpt lat="43.91138616859865" lon="12.697205764763526"><ele>127.0</ele><time>2026-04-25T14:41:04Z</time></trkpt><trkpt lat="43.91147988382902" lon="12.697102436945428"><ele>127.0</ele><time>2026-04-25T14:41:05Z</time></trkpt><trkpt lat="43.91157402044289" lon="12.6970077336724"><ele>127.0</ele><time>2026-04-25T14:41:06Z</time></trkpt><trkpt lat="43.91169005910368" lon="12.696919072530054"><ele>127.0</ele><time>2026-04-25T14:41:07Z</time></trkpt><trkpt lat="43.91182701827449" lon="12.696833713631746"><ele>127.0</ele><time>2026-04-25T14:41:08Z</time></trkpt><trkpt lat="43.911985727476235" lon="12.696731699170897"><ele>127.0</ele><time>2026-04-25T14:41:09Z</time></trkpt><trkpt lat="43.912150962438375" lon="12.696606393316682"><ele>127.0</ele><time>2026-04-25T14:41:10Z</time></trkpt><trkpt lat="43.91232603127936" lon="12.696495842334384"><ele>127.0</ele><time>2026-04-25T14:41:11Z</time></trkpt><trkpt lat="43.91249079910644" lon="12.696389097628389"><ele>127.66666666666667</ele><time>2026-04-25T14:41:12Z</time></trkpt><trkpt lat="43.91265808684308" lon="12.696284033087734"><ele>128.33333333333334</ele><time>2026-04-25T14:41:13Z</time></trkpt><trkpt lat="43.91282324703747" lon="12.696178459493657"><ele>129.0</ele><time>2026-04-25T14:41:14Z</time></trkpt><trkpt lat="43.91298390270408" lon="12.696073364477483"><ele>129.0</ele><time>2026-04-25T14:41:15Z</time></trkpt><trkpt lat="43.913131788603046" lon="12.695975490945704"><ele>129.0</ele><time>2026-04-25T14:41:16Z</time></trkpt><trkpt lat="43.913267551728545" lon="12.695887448110767"><ele>129.0</ele><time>2026-04-25T14:41:17Z</time></trkpt><trkpt lat="43.91339932217168" lon="12.69579906438977"><ele>127.25</ele><time>2026-04-25T14:41:18Z</time></trkpt><trkpt lat="43.91352342963783" lon="12.695707949441843"><ele>125.5</ele><time>2026-04-25T14:41:19Z</time></trkpt><trkpt lat="43.91363357517693" lon="12.695619231011293"><ele>123.75</ele><time>2026-04-25T14:41:20Z</time></trkpt><trkpt lat="43.91373618176575" lon="12.695523765411487"><ele>122.0</ele><time>2026-04-25T14:41:21Z</time></trkpt><trkpt lat="43.91382815591099" lon="12.69541000321307"><ele>122.0</ele><time>2026-04-25T14:41:22Z</time></trkpt><trkpt lat="43.913908225973145" lon="12.695273688516366"><ele>122.0</ele><time>2026-04-25T14:41:23Z</time></trkpt><trkpt lat="43.91398589237475" lon="12.695110460837965"><ele>122.0</ele><time>2026-04-25T14:41:24Z</time></trkpt><trkpt lat="43.91405545067844" lon="12.694929800971947"><ele>122.0</ele><time>2026-04-25T14:41:25Z</time></trkpt><trkpt lat="43.9141223964373" lon="12.694775347566148"><ele>121.5</ele><time>2026-04-25T14:41:26Z</time></trkpt><trkpt lat="43.91421159284565" lon="12.694677217655045"><ele>121.0</ele><time>2026-04-25T14:41:27Z</time></trkpt><trkpt lat="43.9143320322837" lon="12.694596991208442"><ele>120.5</ele><time>2026-04-25T14:41:28Z</time></trkpt><trkpt lat="43.91447022491605" lon="12.694510103565689"><ele>120.0</ele><time>2026-04-25T14:41:29Z</time></trkpt><trkpt lat="43.9146140282397" lon="12.694397956045655"><ele>119.33333333333334</ele><time>2026-04-25T14:41:30Z</time></trkpt><trkpt lat="43.91477747274526" lon="12.694307786792477"><ele>118.66666666666667</ele><time>2026-04-25T14:41:31Z</time></trkpt><trkpt lat="43.914948389485204" lon="12.694201950214218"><ele>118.0</ele><time>2026-04-25T14:41:32Z</time></trkpt><trkpt lat="43.91512605938187" lon="12.69409613341069"><ele>118.0</ele><time>2026-04-25T14:41:33Z</time></trkpt><trkpt lat="43.915287481983356" lon="12.693998566667863"><ele>118.0</ele><time>2026-04-25T14:41:34Z</time></trkpt><trkpt lat="43.91544179376087" lon="12.693916613789261"><ele>118.0</ele><time>2026-04-25T14:41:35Z</time></trkpt><trkpt lat="43.91558739552658" lon="12.693843800930527"><ele>118.0</ele><time>2026-04-25T14:41:36Z</time></trkpt><trkpt lat="43.91573533169593" lon="12.693820491091548"><ele>118.0</ele><time>2026-04-25T14:41:37Z</time></trkpt><trkpt lat="43.91589014701649" lon="12.693781393433449"><ele>118.0</ele><time>2026-04-25T14:41:38Z</time></trkpt><trkpt lat="43.91604946616125" lon="12.69374443539762"><ele>117.0</ele><time>2026-04-25T14:41:39Z</time></trkpt><trkpt lat="43.916212409530694" lon="12.69371411642867"><ele>116.0</ele><time>2026-04-25T14:41:40Z</time></trkpt><trkpt lat="43.91638073183166" lon="12.693660106727611"><ele>115.0</ele><time>2026-04-25T14:41:41Z</time></trkpt><trkpt lat="43.916561124895146" lon="12.693627337278297"><ele>115.0</ele><time>2026-04-25T14:41:42Z</time></trkpt><trkpt lat="43.916752837830494" lon="12.693620583138719"><ele>115.0</ele><time>2026-04-25T14:41:43Z</time></trkpt><trkpt lat="43.91695303553042" lon="12.693596076533737"><ele>115.0</ele><time>2026-04-25T14:41:44Z</time></trkpt><trkpt lat="43.91715701481661" lon="12.69358940470504"><ele>115.0</ele><time>2026-04-25T14:41:45Z</time></trkpt><trkpt lat="43.917369883740065" lon="12.693596742168126"><ele>115.0</ele><time>2026-04-25T14:41:46Z</time></trkpt><trkpt lat="43.91758623709522" lon="12.693605130773461"><ele>115.0</ele><time>2026-04-25T14:41:47Z</time></trkpt><trkpt lat="43.91780114447361" lon="12.69361346331149"><ele>115.66666666666667</ele><time>2026-04-25T14:41:48Z</time></trkpt><trkpt lat="43.91801645409981" lon="12.693624600240044"><ele>116.33333333333334</ele><time>2026-04-25T14:41:49Z</time></trkpt><trkpt lat="43.91823218705778" lon="12.693635592194543"><ele>117.0</ele><time>2026-04-25T14:41:50Z</time></trkpt><trkpt lat="43.91845024716364" lon="12.693645462888279"><ele>118.33333333333334</ele><time>2026-04-25T14:41:51Z</time></trkpt><trkpt lat="43.918661882152776" lon="12.693654218252098"><ele>119.66666666666667</ele><time>2026-04-25T14:41:52Z</time></trkpt><trkpt lat="43.918851214025956" lon="12.693664062366999"><ele>121.0</ele><time>2026-04-25T14:41:53Z</time></trkpt><trkpt lat="43.9190231396811" lon="12.693678882769861"><ele>121.0</ele><time>2026-04-25T14:41:54Z</time></trkpt><trkpt lat="43.91917199872457" lon="12.693715451179324"><ele>121.0</ele><time>2026-04-25T14:41:55Z</time></trkpt><trkpt lat="43.919290850272155" lon="12.693767734465958"><ele>121.0</ele><time>2026-04-25T14:41:56Z</time></trkpt><trkpt lat="43.919388877088636" lon="12.69382623888027"><ele>121.0</ele><time>2026-04-25T14:41:57Z</time></trkpt><trkpt lat="43.9194840864754" lon="12.693879558502955"><ele>121.0</ele><time>2026-04-25T14:41:58Z</time></trkpt><trkpt lat="43.91958766503781" lon="12.6939057993009"><ele>121.0</ele><time>2026-04-25T14:41:59Z</time></trkpt><trkpt lat="43.91971957474331" lon="12.69396443477283"><ele>121.0</ele><time>2026-04-25T14:42:00Z</time></trkpt><trkpt lat="43.91984765599331" lon="12.694008618794118"><ele>121.0</ele><time>2026-04-25T14:42:01Z</time></trkpt><trkpt lat="43.91996459919841" lon="12.694017482700197"><ele>120.4</ele><time>2026-04-25T14:42:02Z</time></trkpt><trkpt lat="43.920073023561805" lon="12.694037356251721"><ele>119.8</ele><time>2026-04-25T14:42:03Z</time></trkpt><trkpt lat="43.92017771488968" lon="12.694043590620845"><ele>119.20000000000002</ele><time>2026-04-25T14:42:04Z</time></trkpt><trkpt lat="43.920273693020896" lon="12.694050033229535"><ele>118.60000000000001</ele><time>2026-04-25T14:42:05Z</time></trkpt><trkpt lat="43.92037176095888" lon="12.694055913348045"><ele>118.0</ele><time>2026-04-25T14:42:06Z</time></trkpt><trkpt lat="43.92047640696581" lon="12.694073579416159"><ele>118.0</ele><time>2026-04-25T14:42:07Z</time></trkpt><trkpt lat="43.920598550308235" lon="12.69411503623258"><ele>118.0</ele><time>2026-04-25T14:42:08Z</time></trkpt><trkpt lat="43.92072981520672" lon="12.694171475081836"><ele>118.0</ele><time>2026-04-25T14:42:09Z</time></trkpt><trkpt lat="43.9208655999819" lon="12.694227230617798"><ele>118.0</ele><time>2026-04-25T14:42:10Z</time></trkpt><trkpt lat="43.92100241078494" lon="12.694279717084175"><ele>117.33333333333334</ele><time>2026-04-25T14:42:11Z</time></trkpt><trkpt lat="43.92112982349746" lon="12.694358728398432"><ele>116.66666666666666</ele><time>2026-04-25T14:42:12Z</time></trkpt><trkpt lat="43.92127821840151" lon="12.694409912236953"><ele>116.0</ele><time>2026-04-25T14:42:13Z</time></trkpt><trkpt lat="43.92143075136105" lon="12.694487912385249"><ele>114.33333333333333</ele><time>2026-04-25T14:42:14Z</time></trkpt><trkpt lat="43.92159237563001" lon="12.694574982400475"><ele>112.66666666666666</ele><time>2026-04-25T14:42:15Z</time></trkpt><trkpt lat="43.92175269862859" lon="12.69468782215315"><ele>111.0</ele><time>2026-04-25T14:42:16Z</time></trkpt><trkpt lat="43.9219086732125" lon="12.694774649970471"><ele>111.0</ele><time>2026-04-25T14:42:17Z</time></trkpt><trkpt lat="43.92205758135243" lon="12.694840427300525"><ele>111.0</ele><time>2026-04-25T14:42:18Z</time></trkpt><trkpt lat="43.922189765011595" lon="12.69492163129436"><ele>111.0</ele><time>2026-04-25T14:42:19Z</time></trkpt><trkpt lat="43.92230950612597" lon="12.695011632512173"><ele>111.0</ele><time>2026-04-25T14:42:20Z</time></trkpt><trkpt lat="43.92240123481486" lon="12.695159652351354"><ele>110.33333333333334</ele><time>2026-04-25T14:42:21Z</time></trkpt><trkpt lat="43.922506222985554" lon="12.69531110404684"><ele>109.66666666666667</ele><time>2026-04-25T14:42:22Z</time></trkpt><trkpt lat="43.922627739964774" lon="12.69546342227182"><ele>109.0</ele><time>2026-04-25T14:42:23Z</time></trkpt><trkpt lat="43.92272939339209" lon="12.695613426743714"><ele>109.0</ele><time>2026-04-25T14:42:24Z</time></trkpt><trkpt lat="43.92282997140943" lon="12.695740403610262"><ele>109.0</ele><time>2026-04-25T14:42:25Z</time></trkpt><trkpt lat="43.92295438111122" lon="12.695847904878377"><ele>109.0</ele><time>2026-04-25T14:42:26Z</time></trkpt><trkpt lat="43.92311141942814" lon="12.69594423695078"><ele>109.0</ele><time>2026-04-25T14:42:27Z</time></trkpt><trkpt lat="43.92328265775982" lon="12.696051564332834"><ele>109.0</ele><time>2026-04-25T14:42:28Z</time></trkpt><trkpt lat="43.923461399166634" lon="12.696164564068754"><ele>109.0</ele><time>2026-04-25T14:42:29Z</time></trkpt><trkpt lat="43.92364497266495" lon="12.696282260932785"><ele>109.0</ele><time>2026-04-25T14:42:30Z</time></trkpt><trkpt lat="43.92382476454481" lon="12.696399417501537"><ele>109.0</ele><time>2026-04-25T14:42:31Z</time></trkpt><trkpt lat="43.923977933545295" lon="12.69649707264498"><ele>109.0</ele><time>2026-04-25T14:42:32Z</time></trkpt><trkpt lat="43.92411708587829" lon="12.696586009488692"><ele>109.0</ele><time>2026-04-25T14:42:33Z</time></trkpt><trkpt lat="43.924244901215545" lon="12.696678867290204"><ele>109.0</ele><time>2026-04-25T14:42:34Z</time></trkpt><trkpt lat="43.924344219300714" lon="12.696797439970709"><ele>109.0</ele><time>2026-04-25T14:42:35Z</time></trkpt><trkpt lat="43.92444157711328" lon="12.696915828188812"><ele>109.0</ele><time>2026-04-25T14:42:36Z</time></trkpt><trkpt lat="43.924544066256225" lon="12.697029626484557"><ele>109.0</ele><time>2026-04-25T14:42:37Z</time></trkpt><trkpt lat="43.9246141104036" lon="12.697158537939798"><ele>109.0</ele><time>2026-04-25T14:42:38Z</time></trkpt><trkpt lat="43.92467421478265" lon="12.697287614940878"><ele>109.0</ele><time>2026-04-25T14:42:39Z</time></trkpt><trkpt lat="43.9247325534309" lon="12.697436403914729"><ele>109.0</ele><time>2026-04-25T14:42:40Z</time></trkpt><trkpt lat="43.92479034606519" lon="12.697596276910698"><ele>109.25</ele><time>2026-04-25T14:42:41Z</time></trkpt><trkpt lat="43.924847314185904" lon="12.697771436609653"><ele>109.5</ele><time>2026-04-25T14:42:42Z</time></trkpt><trkpt lat="43.92490333056278" lon="12.697964002776663"><ele>109.75</ele><time>2026-04-25T14:42:43Z</time></trkpt><trkpt lat="43.92496552141804" lon="12.698168967177052"><ele>110.0</ele><time>2026-04-25T14:42:44Z</time></trkpt><trkpt lat="43.925028970359136" lon="12.698390247312956"><ele>107.33333333333333</ele><time>2026-04-25T14:42:45Z</time></trkpt><trkpt lat="43.92509526734185" lon="12.698619204641266"><ele>104.66666666666666</ele><time>2026-04-25T14:42:46Z</time></trkpt><trkpt lat="43.92515728846078" lon="12.698839238220536"><ele>102.0</ele><time>2026-04-25T14:42:47Z</time></trkpt><trkpt lat="43.92522051913182" lon="12.699040888668293"><ele>102.0</ele><time>2026-04-25T14:42:48Z</time></trkpt><trkpt lat="43.92528891523107" lon="12.699229140026873"><ele>102.0</ele><time>2026-04-25T14:42:49Z</time></trkpt><trkpt lat="43.925372306162394" lon="12.699417073438873"><ele>102.0</ele><time>2026-04-25T14:42:50Z</time></trkpt><trkpt lat="43.92546140328024" lon="12.699589291119729"><ele>103.5</ele><time>2026-04-25T14:42:51Z</time></trkpt><trkpt lat="43.92554306374025" lon="12.699748105865126"><ele>105.0</ele><time>2026-04-25T14:42:52Z</time></trkpt><trkpt lat="43.92563054137129" lon="12.699920293116666"><ele>106.5</ele><time>2026-04-25T14:42:53Z</time></trkpt><trkpt lat="43.9256966877704" lon="12.700110342412069"><ele>108.0</ele><time>2026-04-25T14:42:54Z</time></trkpt><trkpt lat="43.925771915877164" lon="12.700308719960928"><ele>110.0</ele><time>2026-04-25T14:42:55Z</time></trkpt><trkpt lat="43.925839653564566" lon="12.700517208476123"><ele>112.0</ele><time>2026-04-25T14:42:56Z</time></trkpt><trkpt lat="43.92590905645231" lon="12.700724133012514"><ele>114.0</ele><time>2026-04-25T14:42:57Z</time></trkpt><trkpt lat="43.92597318559937" lon="12.700919787627907"><ele>112.5</ele><time>2026-04-25T14:42:58Z</time></trkpt><trkpt lat="43.92604475042175" lon="12.701090861117082"><ele>111.0</ele><time>2026-04-25T14:42:59Z</time></trkpt><trkpt lat="43.926101047447155" lon="12.701257005445623"><ele>109.5</ele><time>2026-04-25T14:43:00Z</time></trkpt><trkpt lat="43.92616416908997" lon="12.701397075951315"><ele>108.0</ele><time>2026-04-25T14:43:01Z</time></trkpt><trkpt lat="43.92624661107296" lon="12.701531563301025"><ele>108.0</ele><time>2026-04-25T14:43:02Z</time></trkpt><trkpt lat="43.92635389566038" lon="12.70167304676369"><ele>108.0</ele><time>2026-04-25T14:43:03Z</time></trkpt><trkpt lat="43.92648139567294" lon="12.701818965874583"><ele>108.0</ele><time>2026-04-25T14:43:04Z</time></trkpt><trkpt lat="43.92662009445196" lon="12.7019730318128"><ele>106.0</ele><time>2026-04-25T14:43:05Z</time></trkpt><trkpt lat="43.926758047255525" lon="12.7021213239038"><ele>104.0</ele><time>2026-04-25T14:43:06Z</time></trkpt><trkpt lat="43.92688628527206" lon="12.702255163570477"><ele>102.0</ele><time>2026-04-25T14:43:07Z</time></trkpt><trkpt lat="43.927008222079145" lon="12.702388818255818"><ele>102.0</ele><time>2026-04-25T14:43:08Z</time></trkpt><trkpt lat="43.92712613022171" lon="12.702502736481724"><ele>102.0</ele><time>2026-04-25T14:43:09Z</time></trkpt><trkpt lat="43.92724319361656" lon="12.702602256063583"><ele>102.0</ele><time>2026-04-25T14:43:10Z</time></trkpt><trkpt lat="43.92735107399091" lon="12.70269316073526"><ele>102.0</ele><time>2026-04-25T14:43:11Z</time></trkpt><trkpt lat="43.92744926324229" lon="12.70278800119354"><ele>101.75</ele><time>2026-04-25T14:43:12Z</time></trkpt><trkpt lat="43.92754698221587" lon="12.702916916223845"><ele>101.5</ele><time>2026-04-25T14:43:13Z</time></trkpt><trkpt lat="43.92765481917356" lon="12.703064397448786"><ele>101.25</ele><time>2026-04-25T14:43:14Z</time></trkpt><trkpt lat="43.92775826629216" lon="12.703237552530977"><ele>101.0</ele><time>2026-04-25T14:43:15Z</time></trkpt><trkpt lat="43.927873125940245" lon="12.703398800502953"><ele>99.66666666666666</ele><time>2026-04-25T14:43:16Z</time></trkpt><trkpt lat="43.92798186057013" lon="12.703550139351591"><ele>98.33333333333334</ele><time>2026-04-25T14:43:17Z</time></trkpt><trkpt lat="43.9280958842001" lon="12.70367428483417"><ele>97.0</ele><time>2026-04-25T14:43:18Z</time></trkpt><trkpt lat="43.92821325429221" lon="12.703807739395009"><ele>97.0</ele><time>2026-04-25T14:43:19Z</time></trkpt><trkpt lat="43.928338754348694" lon="12.703938323361356"><ele>97.0</ele><time>2026-04-25T14:43:20Z</time></trkpt><trkpt lat="43.928467140841576" lon="12.704059183377394"><ele>97.0</ele><time>2026-04-25T14:43:21Z</time></trkpt><trkpt lat="43.928598339107694" lon="12.704176537395847"><ele>97.33333333333334</ele><time>2026-04-25T14:43:22Z</time></trkpt><trkpt lat="43.928729177543175" lon="12.70428814632133"><ele>97.66666666666666</ele><time>2026-04-25T14:43:23Z</time></trkpt><trkpt lat="43.92885961176214" lon="12.70439628927165"><ele>98.0</ele><time>2026-04-25T14:43:24Z</time></trkpt><trkpt lat="43.928987389285844" lon="12.704508816765127"><ele>98.0</ele><time>2026-04-25T14:43:25Z</time></trkpt><trkpt lat="43.929079324882764" lon="12.704638950255548"><ele>98.0</ele><time>2026-04-25T14:43:26Z</time></trkpt><trkpt lat="43.92914388551374" lon="12.704757144350252"><ele>98.0</ele><time>2026-04-25T14:43:27Z</time></trkpt><trkpt lat="43.92920120649238" lon="12.704895895554541"><ele>98.0</ele><time>2026-04-25T14:43:28Z</time></trkpt><trkpt lat="43.92926009325563" lon="12.705070843414797"><ele>98.25</ele><time>2026-04-25T14:43:29Z</time></trkpt><trkpt lat="43.92932676778456" lon="12.70526546293025"><ele>98.5</ele><time>2026-04-25T14:43:30Z</time></trkpt><trkpt lat="43.92940898383768" lon="12.705443567337468"><ele>98.75</ele><time>2026-04-25T14:43:31Z</time></trkpt><trkpt lat="43.92947047369834" lon="12.705606042917545"><ele>99.0</ele><time>2026-04-25T14:43:32Z</time></trkpt><trkpt lat="43.9295464041142" lon="12.70575124144517"><ele>99.0</ele><time>2026-04-25T14:43:33Z</time></trkpt><trkpt lat="43.929649364896115" lon="12.705891928451754"><ele>99.0</ele><time>2026-04-25T14:43:34Z</time></trkpt><trkpt lat="43.929758643400056" lon="12.706045315661918"><ele>99.0</ele><time>2026-04-25T14:43:35Z</time></trkpt><trkpt lat="43.92987527784914" lon="12.706207678485145"><ele>98.75</ele><time>2026-04-25T14:43:36Z</time></trkpt><trkpt lat="43.929984969652" lon="12.706358843122072"><ele>98.5</ele><time>2026-04-25T14:43:37Z</time></trkpt><trkpt lat="43.93008171212938" lon="12.706476212105587"><ele>98.25</ele><time>2026-04-25T14:43:38Z</time></trkpt><trkpt lat="43.93016241932667" lon="12.70657600618887"><ele>98.0</ele><time>2026-04-25T14:43:39Z</time></trkpt><trkpt lat="43.930233283060936" lon="12.70666068627557"><ele>97.5</ele><time>2026-04-25T14:43:40Z</time></trkpt><trkpt lat="43.93031184641784" lon="12.706741297771359"><ele>97.0</ele><time>2026-04-25T14:43:41Z</time></trkpt><trkpt lat="43.93036947770485" lon="12.706870001146033"><ele>96.5</ele><time>2026-04-25T14:43:42Z</time></trkpt><trkpt lat="43.93053485754592" lon="12.706870450438055"><ele>96.0</ele><time>2026-04-25T14:43:43Z</time></trkpt><trkpt lat="43.93065181534734" lon="12.706915972258072"><ele>96.0</ele><time>2026-04-25T14:43:44Z</time></trkpt><trkpt lat="43.93074895862065" lon="12.70698847834555"><ele>96.0</ele><time>2026-04-25T14:43:45Z</time></trkpt><trkpt lat="43.93083167462013" lon="12.707095283738"><ele>96.0</ele><time>2026-04-25T14:43:46Z</time></trkpt><trkpt lat="43.93092123751586" lon="12.707234324097804"><ele>96.0</ele><time>2026-04-25T14:43:47Z</time></trkpt><trkpt lat="43.93102562190522" lon="12.70738742441689"><ele>93.75</ele><time>2026-04-25T14:43:48Z</time></trkpt><trkpt lat="43.93113658492603" lon="12.707494507211836"><ele>91.5</ele><time>2026-04-25T14:43:49Z</time></trkpt><trkpt lat="43.93125392923285" lon="12.707587266614455"><ele>89.25</ele><time>2026-04-25T14:43:50Z</time></trkpt><trkpt lat="43.93140295116498" lon="12.70766010636653"><ele>87.0</ele><time>2026-04-25T14:43:51Z</time></trkpt><trkpt lat="43.931542120378175" lon="12.707745551870712"><ele>87.0</ele><time>2026-04-25T14:43:52Z</time></trkpt><trkpt lat="43.93165888277107" lon="12.707855169597643"><ele>87.0</ele><time>2026-04-25T14:43:53Z</time></trkpt><trkpt lat="43.93176124333659" lon="12.70795238601958"><ele>87.0</ele><time>2026-04-25T14:43:54Z</time></trkpt><trkpt lat="43.93185549825008" lon="12.708058608807049"><ele>87.0</ele><time>2026-04-25T14:43:55Z</time></trkpt><trkpt lat="43.93194814769404" lon="12.708165808679984"><ele>85.0</ele><time>2026-04-25T14:43:56Z</time></trkpt><trkpt lat="43.932047969480884" lon="12.708281307396588"><ele>83.0</ele><time>2026-04-25T14:43:57Z</time></trkpt><trkpt lat="43.93215576465898" lon="12.708403995583758"><ele>81.0</ele><time>2026-04-25T14:43:58Z</time></trkpt><trkpt lat="43.932267189078324" lon="12.708523522830816"><ele>79.0</ele><time>2026-04-25T14:43:59Z</time></trkpt><trkpt lat="43.9323895217054" lon="12.708622086151225"><ele>78.5</ele><time>2026-04-25T14:44:00Z</time></trkpt><trkpt lat="43.93250549523067" lon="12.708742607039673"><ele>78.0</ele><time>2026-04-25T14:44:01Z</time></trkpt><trkpt lat="43.93262763613474" lon="12.70886633780612"><ele>77.5</ele><time>2026-04-25T14:44:02Z</time></trkpt><trkpt lat="43.93274860561572" lon="12.708993382654501"><ele>77.0</ele><time>2026-04-25T14:44:03Z</time></trkpt><trkpt lat="43.932865127684295" lon="12.70911492845535"><ele>75.0</ele><time>2026-04-25T14:44:04Z</time></trkpt><trkpt lat="43.932978327860106" lon="12.709226818509652"><ele>73.0</ele><time>2026-04-25T14:44:05Z</time></trkpt><trkpt lat="43.93307338264738" lon="12.70935595844686"><ele>71.0</ele><time>2026-04-25T14:44:06Z</time></trkpt><trkpt lat="43.93316423972708" lon="12.70946671835638"><ele>69.0</ele><time>2026-04-25T14:44:07Z</time></trkpt><trkpt lat="43.93324159553199" lon="12.709592395982803"><ele>69.0</ele><time>2026-04-25T14:44:08Z</time></trkpt><trkpt lat="43.93332346216074" lon="12.709746144832245"><ele>69.0</ele><time>2026-04-25T14:44:09Z</time></trkpt><trkpt lat="43.93341373452296" lon="12.709915587708409"><ele>69.0</ele><time>2026-04-25T14:44:10Z</time></trkpt><trkpt lat="43.93351316086877" lon="12.710103255350417"><ele>66.5</ele><time>2026-04-25T14:44:11Z</time></trkpt><trkpt lat="43.93360522999519" lon="12.710279590259827"><ele>64.0</ele><time>2026-04-25T14:44:12Z</time></trkpt><trkpt lat="43.933687156996065" lon="12.710441577340015"><ele>61.5</ele><time>2026-04-25T14:44:13Z</time></trkpt><trkpt lat="43.93375934264564" lon="12.710596323350664"><ele>59.0</ele><time>2026-04-25T14:44:14Z</time></trkpt><trkpt lat="43.93380160438962" lon="12.710746678317165"><ele>59.0</ele><time>2026-04-25T14:44:15Z</time></trkpt><trkpt lat="43.93383679149778" lon="12.710928856066744"><ele>59.0</ele><time>2026-04-25T14:44:16Z</time></trkpt><trkpt lat="43.93387795826588" lon="12.711139641227446"><ele>59.0</ele><time>2026-04-25T14:44:17Z</time></trkpt><trkpt lat="43.933912187172496" lon="12.711323745602813"><ele>59.0</ele><time>2026-04-25T14:44:18Z</time></trkpt><trkpt lat="43.93393089212769" lon="12.711456769925663"><ele>58.5</ele><time>2026-04-25T14:44:19Z</time></trkpt><trkpt lat="43.933942908793455" lon="12.71159240770565"><ele>58.0</ele><time>2026-04-25T14:44:20Z</time></trkpt><trkpt lat="43.933931122144266" lon="12.711724120744256"><ele>57.5</ele><time>2026-04-25T14:44:21Z</time></trkpt><trkpt lat="43.933896239733215" lon="12.711880706357674"><ele>57.0</ele><time>2026-04-25T14:44:22Z</time></trkpt><trkpt lat="43.933843536526744" lon="12.712066630038246"><ele>55.75</ele><time>2026-04-25T14:44:23Z</time></trkpt><trkpt lat="43.93378557313852" lon="12.712265681973756"><ele>54.5</ele><time>2026-04-25T14:44:24Z</time></trkpt><trkpt lat="43.9337350343741" lon="12.712443038521576"><ele>53.25</ele><time>2026-04-25T14:44:25Z</time></trkpt><trkpt lat="43.933700366610196" lon="12.712617341653244"><ele>52.0</ele><time>2026-04-25T14:44:26Z</time></trkpt><trkpt lat="43.93368293271006" lon="12.712806701566896"><ele>51.0</ele><time>2026-04-25T14:44:27Z</time></trkpt><trkpt lat="43.933692959967765" lon="12.712993624961262"><ele>50.0</ele><time>2026-04-25T14:44:28Z</time></trkpt><trkpt lat="43.933704432960496" lon="12.71317967358613"><ele>49.0</ele><time>2026-04-25T14:44:29Z</time></trkpt><trkpt lat="43.933731915419685" lon="12.713366195352052"><ele>48.0</ele><time>2026-04-25T14:44:30Z</time></trkpt><trkpt lat="43.9337720812768" lon="12.713566919946638"><ele>49.0</ele><time>2026-04-25T14:44:31Z</time></trkpt><trkpt lat="43.9338296816032" lon="12.713774808347502"><ele>50.0</ele><time>2026-04-25T14:44:32Z</time></trkpt><trkpt lat="43.933878903100776" lon="12.713997156504742"><ele>51.0</ele><time>2026-04-25T14:44:33Z</time></trkpt><trkpt lat="43.93393838879109" lon="12.714195003165079"><ele>51.0</ele><time>2026-04-25T14:44:34Z</time></trkpt><trkpt lat="43.93399053700184" lon="12.714364723704001"><ele>51.0</ele><time>2026-04-25T14:44:35Z</time></trkpt><trkpt lat="43.93403573417266" lon="12.714521632205903"><ele>51.0</ele><time>2026-04-25T14:44:36Z</time></trkpt><trkpt lat="43.93407188418537" lon="12.714664766224901"><ele>51.0</ele><time>2026-04-25T14:44:37Z</time></trkpt><trkpt lat="43.93409279324991" lon="12.714797903967572"><ele>51.25</ele><time>2026-04-25T14:44:38Z</time></trkpt><trkpt lat="43.93409155011117" lon="12.714933933499772"><ele>51.5</ele><time>2026-04-25T14:44:39Z</time></trkpt><trkpt lat="43.934060321093476" lon="12.715066281971145"><ele>51.75</ele><time>2026-04-25T14:44:40Z</time></trkpt><trkpt lat="43.93401981810874" lon="12.715248281668861"><ele>52.0</ele><time>2026-04-25T14:44:41Z</time></trkpt><trkpt lat="43.93397841027767" lon="12.715430064345348"><ele>51.2</ele><time>2026-04-25T14:44:42Z</time></trkpt><trkpt lat="43.933959423526545" lon="12.715600352174576"><ele>50.400000000000006</ele><time>2026-04-25T14:44:43Z</time></trkpt><trkpt lat="43.93393406193124" lon="12.715730762063433"><ele>49.599999999999994</ele><time>2026-04-25T14:44:44Z</time></trkpt><trkpt lat="43.93394193333312" lon="12.715847100251052"><ele>48.8</ele><time>2026-04-25T14:44:45Z</time></trkpt><trkpt lat="43.93397901502618" lon="12.715958317504107"><ele>48.0</ele><time>2026-04-25T14:44:46Z</time></trkpt><trkpt lat="43.93404992643504" lon="12.716037026674789"><ele>48.0</ele><time>2026-04-25T14:44:47Z</time></trkpt><trkpt lat="43.93413114714325" lon="12.716064912956396"><ele>48.0</ele><time>2026-04-25T14:44:48Z</time></trkpt><trkpt lat="43.9342177546056" lon="12.716039541626046"><ele>48.0</ele><time>2026-04-25T14:44:49Z</time></trkpt><trkpt lat="43.934306449459534" lon="12.71597068475527"><ele>48.0</ele><time>2026-04-25T14:44:50Z</time></trkpt><trkpt lat="43.93438732659755" lon="12.71586840572125"><ele>48.0</ele><time>2026-04-25T14:44:51Z</time></trkpt><trkpt lat="43.93443933234736" lon="12.715748637931744"><ele>45.5</ele><time>2026-04-25T14:44:52Z</time></trkpt><trkpt lat="43.9344714756917" lon="12.71559575667496"><ele>43.0</ele><time>2026-04-25T14:44:53Z</time></trkpt><trkpt lat="43.93449081860869" lon="12.715421552180157"><ele>40.5</ele><time>2026-04-25T14:44:54Z</time></trkpt><trkpt lat="43.93450994709888" lon="12.715225456876741"><ele>38.0</ele><time>2026-04-25T14:44:55Z</time></trkpt><trkpt lat="43.93451896266867" lon="12.715022993989509"><ele>38.0</ele><time>2026-04-25T14:44:56Z</time></trkpt><trkpt lat="43.934541708285565" lon="12.714816880846298"><ele>38.0</ele><time>2026-04-25T14:44:57Z</time></trkpt><trkpt lat="43.93456299929281" lon="12.714626324143005"><ele>38.0</ele><time>2026-04-25T14:44:58Z</time></trkpt><trkpt lat="43.934607108041824" lon="12.714463491579588"><ele>38.0</ele><time>2026-04-25T14:44:59Z</time></trkpt><trkpt lat="43.9346483807459" lon="12.714355848720919"><ele>38.0</ele><time>2026-04-25T14:45:00Z</time></trkpt><trkpt lat="43.934744925592106" lon="12.714366482426605"><ele>38.0</ele><time>2026-04-25T14:45:02Z</time></trkpt><trkpt lat="43.93481119641506" lon="12.714526567037453"><ele>38.0</ele><time>2026-04-25T14:45:04Z</time></trkpt><trkpt lat="43.93486838602201" lon="12.714674251935875"><ele>38.0</ele><time>2026-04-25T14:45:05Z</time></trkpt><trkpt lat="43.93494595462607" lon="12.714827494059218"><ele>38.0</ele><time>2026-04-25T14:45:06Z</time></trkpt><trkpt lat="43.93503099527789" lon="12.714938603466777"><ele>38.0</ele><time>2026-04-25T14:45:07Z</time></trkpt><trkpt lat="43.93515536669397" lon="12.714983943738439"><ele>38.0</ele><time>2026-04-25T14:45:08Z</time></trkpt><trkpt lat="43.935265268650745" lon="12.71501941623611"><ele>38.0</ele><time>2026-04-25T14:45:09Z</time></trkpt><trkpt lat="43.93538944443196" lon="12.715008376797407"><ele>36.8</ele><time>2026-04-25T14:45:10Z</time></trkpt><trkpt lat="43.93549771503284" lon="12.71499089612414"><ele>35.599999999999994</ele><time>2026-04-25T14:45:11Z</time></trkpt><trkpt lat="43.93561022044996" lon="12.714977471974587"><ele>34.400000000000006</ele><time>2026-04-25T14:45:12Z</time></trkpt><trkpt lat="43.93571263418717" lon="12.714997718247002"><ele>33.2</ele><time>2026-04-25T14:45:13Z</time></trkpt><trkpt lat="43.935797829597725" lon="12.715000931287104"><ele>32.0</ele><time>2026-04-25T14:45:14Z</time></trkpt><trkpt lat="43.93587459738543" lon="12.715003826488225"><ele>31.666666666666664</ele><time>2026-04-25T14:45:15Z</time></trkpt><trkpt lat="43.935956564826796" lon="12.715006917787953"><ele>31.333333333333332</ele><time>2026-04-25T14:45:16Z</time></trkpt><trkpt lat="43.936035758017574" lon="12.715008211045241"><ele>31.0</ele><time>2026-04-25T14:45:17Z</time></trkpt><trkpt lat="43.93610414892909" lon="12.71500921188817"><ele>30.666666666666664</ele><time>2026-04-25T14:45:18Z</time></trkpt><trkpt lat="43.93622421338655" lon="12.714978768652296"><ele>30.333333333333332</ele><time>2026-04-25T14:45:20Z</time></trkpt><trkpt lat="43.93629699100065" lon="12.715003544606828"><ele>30.0</ele><time>2026-04-25T14:45:22Z</time></trkpt><trkpt lat="43.936324212316585" lon="12.715093712217783"><ele>30.0</ele><time>2026-04-25T14:45:25Z</time></trkpt><trkpt lat="43.93627054087252" lon="12.715216138641578"><ele>30.0</ele><time>2026-04-25T14:45:28Z</time></trkpt><trkpt lat="43.936214386158085" lon="12.715290219526064"><ele>30.0</ele><time>2026-04-25T14:45:29Z</time></trkpt><trkpt lat="43.93614393148906" lon="12.715381342942456"><ele>30.0</ele><time>2026-04-25T14:45:30Z</time></trkpt><trkpt lat="43.93606379293344" lon="12.715483485923913"><ele>30.0</ele><time>2026-04-25T14:45:31Z</time></trkpt><trkpt lat="43.935986212480564" lon="12.71558800968979"><ele>30.0</ele><time>2026-04-25T14:45:32Z</time></trkpt><trkpt lat="43.935906088799115" lon="12.715686608259164"><ele>30.0</ele><time>2026-04-25T14:45:33Z</time></trkpt><trkpt lat="43.93582867746053" lon="12.71577935032782"><ele>30.0</ele><time>2026-04-25T14:45:34Z</time></trkpt><trkpt lat="43.93575606252706" lon="12.715873328865133"><ele>30.0</ele><time>2026-04-25T14:45:35Z</time></trkpt><trkpt lat="43.93568758523593" lon="12.715964525827752"><ele>30.0</ele><time>2026-04-25T14:45:36Z</time></trkpt><trkpt lat="43.93561563822037" lon="12.716063875563012"><ele>30.25</ele><time>2026-04-25T14:45:37Z</time></trkpt><trkpt lat="43.93553163978106" lon="12.716186857168633"><ele>30.5</ele><time>2026-04-25T14:45:38Z</time></trkpt><trkpt lat="43.93543381618118" lon="12.716321858032458"><ele>30.75</ele><time>2026-04-25T14:45:39Z</time></trkpt><trkpt lat="43.935329058078764" lon="12.716460129287869"><ele>31.0</ele><time>2026-04-25T14:45:40Z</time></trkpt><trkpt lat="43.93523227652932" lon="12.716588499611612"><ele>31.0</ele><time>2026-04-25T14:45:41Z</time></trkpt><trkpt lat="43.935137263084854" lon="12.716710341063141"><ele>31.0</ele><time>2026-04-25T14:45:42Z</time></trkpt><trkpt lat="43.935046399694855" lon="12.71683653781522"><ele>31.0</ele><time>2026-04-25T14:45:43Z</time></trkpt><trkpt lat="43.93495275716154" lon="12.716978867787267"><ele>31.0</ele><time>2026-04-25T14:45:44Z</time></trkpt><trkpt lat="43.93483961530396" lon="12.717114542991714"><ele>30.666666666666668</ele><time>2026-04-25T14:45:45Z</time></trkpt><trkpt lat="43.934732258740475" lon="12.717272600733933"><ele>30.333333333333336</ele><time>2026-04-25T14:45:46Z</time></trkpt><trkpt lat="43.93463742412593" lon="12.717442236994458"><ele>30.0</ele><time>2026-04-25T14:45:47Z</time></trkpt><trkpt lat="43.93453773885885" lon="12.717590101265296"><ele>29.75</ele><time>2026-04-25T14:45:48Z</time></trkpt><trkpt lat="43.934443369144596" lon="12.717742042960655"><ele>29.5</ele><time>2026-04-25T14:45:49Z</time></trkpt><trkpt lat="43.93435894161418" lon="12.71788061305511"><ele>29.25</ele><time>2026-04-25T14:45:50Z</time></trkpt><trkpt lat="43.93427150412673" lon="12.718017214351294"><ele>29.0</ele><time>2026-04-25T14:45:51Z</time></trkpt><trkpt lat="43.93418020029367" lon="12.718157605016255"><ele>29.0</ele><time>2026-04-25T14:45:52Z</time></trkpt><trkpt lat="43.93408858715964" lon="12.7183094931616"><ele>29.0</ele><time>2026-04-25T14:45:53Z</time></trkpt><trkpt lat="43.934000852951364" lon="12.71844858908152"><ele>29.0</ele><time>2026-04-25T14:45:54Z</time></trkpt><trkpt lat="43.93392225458217" lon="12.71857482408426"><ele>29.0</ele><time>2026-04-25T14:45:55Z</time></trkpt><trkpt lat="43.933845493880824" lon="12.718691535224355"><ele>28.799999999999997</ele><time>2026-04-25T14:45:56Z</time></trkpt><trkpt lat="43.93377655779275" lon="12.718798892021754"><ele>28.599999999999998</ele><time>2026-04-25T14:45:57Z</time></trkpt><trkpt lat="43.93371113089371" lon="12.718901376121284"><ele>28.4</ele><time>2026-04-25T14:45:58Z</time></trkpt><trkpt lat="43.93364527267438" lon="12.719008680249367"><ele>28.2</ele><time>2026-04-25T14:45:59Z</time></trkpt><trkpt lat="43.933578617571" lon="12.719114664811777"><ele>28.0</ele><time>2026-04-25T14:46:00Z</time></trkpt><trkpt lat="43.93351468461619" lon="12.719215821893647"><ele>28.0</ele><time>2026-04-25T14:46:01Z</time></trkpt><trkpt lat="43.93346063641048" lon="12.719304452859665"><ele>28.0</ele><time>2026-04-25T14:46:02Z</time></trkpt><trkpt lat="43.93341546725661" lon="12.719374797725614"><ele>28.0</ele><time>2026-04-25T14:46:03Z</time></trkpt><trkpt lat="43.93333556254458" lon="12.719471769887997"><ele>28.0</ele><time>2026-04-25T14:46:05Z</time></trkpt><trkpt lat="43.93346902229344" lon="12.719688064921058"><ele>27.75</ele><time>2026-04-25T14:46:08Z</time></trkpt><trkpt lat="43.933541664472095" lon="12.719776956614403"><ele>27.5</ele><time>2026-04-25T14:46:09Z</time></trkpt><trkpt lat="43.93361918701754" lon="12.71989122720776"><ele>27.25</ele><time>2026-04-25T14:46:10Z</time></trkpt><trkpt lat="43.933707194544006" lon="12.720028617282912"><ele>27.0</ele><time>2026-04-25T14:46:11Z</time></trkpt><trkpt lat="43.93380799198394" lon="12.720183569318337"><ele>26.333333333333336</ele><time>2026-04-25T14:46:12Z</time></trkpt><trkpt lat="43.933908220742836" lon="12.720349847093559"><ele>25.666666666666668</ele><time>2026-04-25T14:46:13Z</time></trkpt><trkpt lat="43.934023127865224" lon="12.720523937377012"><ele>25.0</ele><time>2026-04-25T14:46:14Z</time></trkpt><trkpt lat="43.93414326290708" lon="12.720704080885127"><ele>25.333333333333336</ele><time>2026-04-25T14:46:15Z</time></trkpt><trkpt lat="43.934268549271394" lon="12.720893679437205"><ele>25.666666666666664</ele><time>2026-04-25T14:46:16Z</time></trkpt><trkpt lat="43.934392325071606" lon="12.721091977796416"><ele>26.0</ele><time>2026-04-25T14:46:17Z</time></trkpt><trkpt lat="43.934508762232696" lon="12.721299478102798"><ele>25.333333333333332</ele><time>2026-04-25T14:46:18Z</time></trkpt><trkpt lat="43.93461713767995" lon="12.72150855589712"><ele>24.666666666666664</ele><time>2026-04-25T14:46:19Z</time></trkpt><trkpt lat="43.934721901115715" lon="12.721717214226674"><ele>24.0</ele><time>2026-04-25T14:46:20Z</time></trkpt><trkpt lat="43.93482825681096" lon="12.721918769269395"><ele>24.0</ele><time>2026-04-25T14:46:21Z</time></trkpt><trkpt lat="43.93494006090151" lon="12.722113442808595"><ele>24.0</ele><time>2026-04-25T14:46:22Z</time></trkpt><trkpt lat="43.93504344192087" lon="12.722296424862172"><ele>24.0</ele><time>2026-04-25T14:46:23Z</time></trkpt><trkpt lat="43.93512959498231" lon="12.722453908059702"><ele>24.0</ele><time>2026-04-25T14:46:24Z</time></trkpt><trkpt lat="43.93520624231593" lon="12.722598680303859"><ele>24.0</ele><time>2026-04-25T14:46:25Z</time></trkpt><trkpt lat="43.9352846383416" lon="12.722731511862213"><ele>24.0</ele><time>2026-04-25T14:46:26Z</time></trkpt><trkpt lat="43.93536215290872" lon="12.722876011696604"><ele>24.0</ele><time>2026-04-25T14:46:27Z</time></trkpt><trkpt lat="43.93543394813678" lon="12.72302820520468"><ele>24.0</ele><time>2026-04-25T14:46:28Z</time></trkpt><trkpt lat="43.935511949098085" lon="12.723181966240945"><ele>24.0</ele><time>2026-04-25T14:46:29Z</time></trkpt><trkpt lat="43.93560776832026" lon="12.723323542047366"><ele>24.0</ele><time>2026-04-25T14:46:30Z</time></trkpt><trkpt lat="43.93571818430348" lon="12.723452149052527"><ele>24.0</ele><time>2026-04-25T14:46:31Z</time></trkpt><trkpt lat="43.935836113017174" lon="12.723567889037216"><ele>24.25</ele><time>2026-04-25T14:46:32Z</time></trkpt><trkpt lat="43.935955270129085" lon="12.723688015560418"><ele>24.5</ele><time>2026-04-25T14:46:33Z</time></trkpt><trkpt lat="43.936065710924446" lon="12.723814371979145"><ele>24.75</ele><time>2026-04-25T14:46:34Z</time></trkpt><trkpt lat="43.936158477091354" lon="12.723959274147735"><ele>25.0</ele><time>2026-04-25T14:46:35Z</time></trkpt><trkpt lat="43.93622292377292" lon="12.724119141324977"><ele>25.0</ele><time>2026-04-25T14:46:36Z</time></trkpt><trkpt lat="43.93628572150004" lon="12.724292736886737"><ele>25.0</ele><time>2026-04-25T14:46:37Z</time></trkpt><trkpt lat="43.93633519993574" lon="12.724482362979616"><ele>25.0</ele><time>2026-04-25T14:46:38Z</time></trkpt><trkpt lat="43.936366906997485" lon="12.724674329398619"><ele>25.0</ele><time>2026-04-25T14:46:39Z</time></trkpt><trkpt lat="43.9363971941152" lon="12.724883039908773"><ele>24.333333333333336</ele><time>2026-04-25T14:46:40Z</time></trkpt><trkpt lat="43.93644785908176" lon="12.725092659256187"><ele>23.666666666666668</ele><time>2026-04-25T14:46:41Z</time></trkpt><trkpt lat="43.93652217157072" lon="12.725282146956951"><ele>23.0</ele><time>2026-04-25T14:46:42Z</time></trkpt><trkpt lat="43.936597426842376" lon="12.725479416667579"><ele>23.333333333333336</ele><time>2026-04-25T14:46:43Z</time></trkpt><trkpt lat="43.936679633079876" lon="12.725670663124117"><ele>23.666666666666668</ele><time>2026-04-25T14:46:44Z</time></trkpt><trkpt lat="43.93676146888192" lon="12.725855023280152"><ele>24.0</ele><time>2026-04-25T14:46:45Z</time></trkpt><trkpt lat="43.936844769489824" lon="12.72604654454009"><ele>23.333333333333332</ele><time>2026-04-25T14:46:46Z</time></trkpt><trkpt lat="43.93692188904668" lon="12.726242422460974"><ele>22.666666666666664</ele><time>2026-04-25T14:46:47Z</time></trkpt><trkpt lat="43.936994624565656" lon="12.726439401326523"><ele>22.0</ele><time>2026-04-25T14:46:48Z</time></trkpt><trkpt lat="43.937073688983226" lon="12.726638294251911"><ele>22.0</ele><time>2026-04-25T14:46:49Z</time></trkpt><trkpt lat="43.93715838589688" lon="12.726834508038067"><ele>22.0</ele><time>2026-04-25T14:46:50Z</time></trkpt><trkpt lat="43.937248858709985" lon="12.727032930649836"><ele>22.0</ele><time>2026-04-25T14:46:51Z</time></trkpt><trkpt lat="43.93734590953312" lon="12.727224559084668"><ele>22.0</ele><time>2026-04-25T14:46:52Z</time></trkpt><trkpt lat="43.93744338504731" lon="12.727407547704614"><ele>22.0</ele><time>2026-04-25T14:46:53Z</time></trkpt><trkpt lat="43.93752499857808" lon="12.727574843157424"><ele>22.0</ele><time>2026-04-25T14:46:54Z</time></trkpt><trkpt lat="43.937604099687924" lon="12.727723550354277"><ele>22.0</ele><time>2026-04-25T14:46:55Z</time></trkpt><trkpt lat="43.93767167190898" lon="12.72786158197237"><ele>21.75</ele><time>2026-04-25T14:46:56Z</time></trkpt><trkpt lat="43.9377300760836" lon="12.72799235986005"><ele>21.5</ele><time>2026-04-25T14:46:57Z</time></trkpt><trkpt lat="43.937784248414395" lon="12.72813230837664"><ele>21.25</ele><time>2026-04-25T14:46:58Z</time></trkpt><trkpt lat="43.93784289625077" lon="12.728287815729956"><ele>21.0</ele><time>2026-04-25T14:46:59Z</time></trkpt><trkpt lat="43.93788509257662" lon="12.728470922128627"><ele>21.333333333333332</ele><time>2026-04-25T14:47:00Z</time></trkpt><trkpt lat="43.93795863507818" lon="12.728651956089678"><ele>21.666666666666664</ele><time>2026-04-25T14:47:01Z</time></trkpt><trkpt lat="43.9380268141043" lon="12.72885473823169"><ele>22.0</ele><time>2026-04-25T14:47:02Z</time></trkpt><trkpt lat="43.93808367725374" lon="12.729074569759018"><ele>22.0</ele><time>2026-04-25T14:47:03Z</time></trkpt><trkpt lat="43.93817101897184" lon="12.72928965252667"><ele>22.0</ele><time>2026-04-25T14:47:04Z</time></trkpt><trkpt lat="43.93824451320864" lon="12.729519161870448"><ele>22.0</ele><time>2026-04-25T14:47:05Z</time></trkpt><trkpt lat="43.93831966418029" lon="12.729747925622094"><ele>21.333333333333332</ele><time>2026-04-25T14:47:06Z</time></trkpt><trkpt lat="43.93839929591445" lon="12.729974927778548"><ele>20.666666666666668</ele><time>2026-04-25T14:47:07Z</time></trkpt><trkpt lat="43.93849184095875" lon="12.730204073946236"><ele>20.0</ele><time>2026-04-25T14:47:08Z</time></trkpt><trkpt lat="43.93858486429177" lon="12.730420352106266"><ele>19.5</ele><time>2026-04-25T14:47:09Z</time></trkpt><trkpt lat="43.93866446196236" lon="12.730599909421478"><ele>19.0</ele><time>2026-04-25T14:47:10Z</time></trkpt><trkpt lat="43.93873267574961" lon="12.73075137743977"><ele>18.5</ele><time>2026-04-25T14:47:11Z</time></trkpt><trkpt lat="43.93876986004287" lon="12.730900918907466"><ele>18.0</ele><time>2026-04-25T14:47:12Z</time></trkpt><trkpt lat="43.93879557654145" lon="12.731034267124638"><ele>18.4</ele><time>2026-04-25T14:47:13Z</time></trkpt><trkpt lat="43.93878200150372" lon="12.73115673379644"><ele>18.8</ele><time>2026-04-25T14:47:14Z</time></trkpt><trkpt lat="43.938748197401694" lon="12.731257640107222"><ele>19.2</ele><time>2026-04-25T14:47:15Z</time></trkpt><trkpt lat="43.938711525273" lon="12.731336482938234"><ele>19.6</ele><time>2026-04-25T14:47:16Z</time></trkpt><trkpt lat="43.93864404369062" lon="12.731450417777042"><ele>20.0</ele><time>2026-04-25T14:47:18Z</time></trkpt><trkpt lat="43.938755835773236" lon="12.731588931764252"><ele>20.0</ele><time>2026-04-25T14:47:19Z</time></trkpt><trkpt lat="43.9388254488509" lon="12.731675007785386"><ele>20.0</ele><time>2026-04-25T14:47:20Z</time></trkpt><trkpt lat="43.93892910936488" lon="12.731771613541104"><ele>20.0</ele><time>2026-04-25T14:47:21Z</time></trkpt><trkpt lat="43.93905325902049" lon="12.73187758582522"><ele>20.0</ele><time>2026-04-25T14:47:22Z</time></trkpt><trkpt lat="43.939189677246134" lon="12.731993195713825"><ele>19.0</ele><time>2026-04-25T14:47:23Z</time></trkpt><trkpt lat="43.939342245312716" lon="12.732107016821436"><ele>18.0</ele><time>2026-04-25T14:47:24Z</time></trkpt><trkpt lat="43.93950895737705" lon="12.732226358089438"><ele>17.0</ele><time>2026-04-25T14:47:25Z</time></trkpt><trkpt lat="43.939664253799165" lon="12.732325553198638"><ele>17.0</ele><time>2026-04-25T14:47:26Z</time></trkpt><trkpt lat="43.93980053450637" lon="12.732431023993984"><ele>17.0</ele><time>2026-04-25T14:47:27Z</time></trkpt><trkpt lat="43.93991809836662" lon="12.732584604431118"><ele>17.0</ele><time>2026-04-25T14:47:28Z</time></trkpt><trkpt lat="43.94004337667641" lon="12.732741462929932"><ele>17.666666666666668</ele><time>2026-04-25T14:47:29Z</time></trkpt><trkpt lat="43.940181779269174" lon="12.732890043871192"><ele>18.333333333333332</ele><time>2026-04-25T14:47:30Z</time></trkpt><trkpt lat="43.94030446777963" lon="12.73305868992379"><ele>19.0</ele><time>2026-04-25T14:47:31Z</time></trkpt><trkpt lat="43.940427720633444" lon="12.73323041911908"><ele>19.0</ele><time>2026-04-25T14:47:32Z</time></trkpt><trkpt lat="43.940558066344664" lon="12.73340450153775"><ele>19.0</ele><time>2026-04-25T14:47:33Z</time></trkpt><trkpt lat="43.94069349762072" lon="12.733584516014334"><ele>19.0</ele><time>2026-04-25T14:47:34Z</time></trkpt><trkpt lat="43.940834884836484" lon="12.733771108614865"><ele>18.0</ele><time>2026-04-25T14:47:35Z</time></trkpt><trkpt lat="43.940978185593394" lon="12.733956868383096"><ele>17.0</ele><time>2026-04-25T14:47:36Z</time></trkpt><trkpt lat="43.94111833709881" lon="12.73414411468684"><ele>16.0</ele><time>2026-04-25T14:47:37Z</time></trkpt><trkpt lat="43.94125115947402" lon="12.734327956239436"><ele>16.0</ele><time>2026-04-25T14:47:38Z</time></trkpt><trkpt lat="43.94138204034141" lon="12.73451203882102"><ele>16.0</ele><time>2026-04-25T14:47:39Z</time></trkpt><trkpt lat="43.94150932031946" lon="12.734694787246225"><ele>16.0</ele><time>2026-04-25T14:47:40Z</time></trkpt><trkpt lat="43.94163195432876" lon="12.734879663996496"><ele>16.0</ele><time>2026-04-25T14:47:41Z</time></trkpt><trkpt lat="43.94176017281775" lon="12.73506196382752"><ele>16.0</ele><time>2026-04-25T14:47:42Z</time></trkpt><trkpt lat="43.94188655274216" lon="12.735246169555909"><ele>16.0</ele><time>2026-04-25T14:47:43Z</time></trkpt><trkpt lat="43.94201228337701" lon="12.73542910987767"><ele>16.0</ele><time>2026-04-25T14:47:44Z</time></trkpt><trkpt lat="43.9421383179537" lon="12.735616729214884"><ele>16.0</ele><time>2026-04-25T14:47:45Z</time></trkpt><trkpt lat="43.9422687097751" lon="12.735808657875456"><ele>16.0</ele><time>2026-04-25T14:47:46Z</time></trkpt><trkpt lat="43.94239918657441" lon="12.736006166674995"><ele>15.666666666666666</ele><time>2026-04-25T14:47:47Z</time></trkpt><trkpt lat="43.94252773668668" lon="12.73619804715226"><ele>15.333333333333332</ele><time>2026-04-25T14:47:48Z</time></trkpt><trkpt lat="43.942643217671154" lon="12.736372272534377"><ele>15.0</ele><time>2026-04-25T14:47:49Z</time></trkpt><trkpt lat="43.94275577495119" lon="12.73653019087976"><ele>15.0</ele><time>2026-04-25T14:47:50Z</time></trkpt><trkpt lat="43.94285586191534" lon="12.736665805350059"><ele>15.0</ele><time>2026-04-25T14:47:51Z</time></trkpt><trkpt lat="43.9429457273145" lon="12.736783481136401"><ele>15.0</ele><time>2026-04-25T14:47:52Z</time></trkpt><trkpt lat="43.94301962116224" lon="12.736894032346434"><ele>15.0</ele><time>2026-04-25T14:47:53Z</time></trkpt><trkpt lat="43.94306062646193" lon="12.737013500181884"><ele>14.8</ele><time>2026-04-25T14:47:54Z</time></trkpt><trkpt lat="43.943087495425196" lon="12.73711487214096"><ele>14.6</ele><time>2026-04-25T14:47:55Z</time></trkpt><trkpt lat="43.943112527241375" lon="12.73721779398552"><ele>14.399999999999999</ele><time>2026-04-25T14:47:56Z</time></trkpt><trkpt lat="43.943133274674054" lon="12.737342389161057"><ele>14.2</ele><time>2026-04-25T14:47:57Z</time></trkpt><trkpt lat="43.94312286134975" lon="12.737511271127566"><ele>14.0</ele><time>2026-04-25T14:47:58Z</time></trkpt><trkpt lat="43.94312420037527" lon="12.737698468460534"><ele>14.75</ele><time>2026-04-25T14:47:59Z</time></trkpt><trkpt lat="43.943142231647165" lon="12.737886763766399"><ele>15.5</ele><time>2026-04-25T14:48:00Z</time></trkpt><trkpt lat="43.943177277760114" lon="12.738092719523808"><ele>16.25</ele><time>2026-04-25T14:48:01Z</time></trkpt><trkpt lat="43.943240423255" lon="12.738295853040349"><ele>17.0</ele><time>2026-04-25T14:48:02Z</time></trkpt><trkpt lat="43.9432847680595" lon="12.738508980084042"><ele>17.0</ele><time>2026-04-25T14:48:03Z</time></trkpt><trkpt lat="43.943301208462174" lon="12.738723155794565"><ele>17.0</ele><time>2026-04-25T14:48:04Z</time></trkpt><trkpt lat="43.94334289133113" lon="12.738912396807839"><ele>17.0</ele><time>2026-04-25T14:48:05Z</time></trkpt><trkpt lat="43.943363979958185" lon="12.739097462387953"><ele>17.0</ele><time>2026-04-25T14:48:06Z</time></trkpt><trkpt lat="43.943375013616134" lon="12.739292770089003"><ele>16.75</ele><time>2026-04-25T14:48:07Z</time></trkpt><trkpt lat="43.94336732844485" lon="12.73949408800824"><ele>16.5</ele><time>2026-04-25T14:48:08Z</time></trkpt><trkpt lat="43.94331347749414" lon="12.739688649259833"><ele>16.25</ele><time>2026-04-25T14:48:09Z</time></trkpt><trkpt lat="43.9433129659415" lon="12.739881948867286"><ele>16.0</ele><time>2026-04-25T14:48:10Z</time></trkpt><trkpt lat="43.94330723225121" lon="12.740056405026877"><ele>15.75</ele><time>2026-04-25T14:48:11Z</time></trkpt><trkpt lat="43.94332569684364" lon="12.74023653867259"><ele>15.5</ele><time>2026-04-25T14:48:12Z</time></trkpt><trkpt lat="43.943371031544" lon="12.74041722057539"><ele>15.25</ele><time>2026-04-25T14:48:13Z</time></trkpt><trkpt lat="43.94343077144421" lon="12.740603557175543"><ele>15.0</ele><time>2026-04-25T14:48:14Z</time></trkpt><trkpt lat="43.94350389448953" lon="12.740787234779871"><ele>15.25</ele><time>2026-04-25T14:48:15Z</time></trkpt><trkpt lat="43.94358489273428" lon="12.740967889299576"><ele>15.5</ele><time>2026-04-25T14:48:16Z</time></trkpt><trkpt lat="43.94367251755901" lon="12.741132089907568"><ele>15.75</ele><time>2026-04-25T14:48:17Z</time></trkpt><trkpt lat="43.94377606252408" lon="12.741274950120332"><ele>16.0</ele><time>2026-04-25T14:48:18Z</time></trkpt><trkpt lat="43.943886283542085" lon="12.741404550882438"><ele>16.0</ele><time>2026-04-25T14:48:19Z</time></trkpt><trkpt lat="43.94399669673778" lon="12.741524873136322"><ele>16.0</ele><time>2026-04-25T14:48:20Z</time></trkpt><trkpt lat="43.944105567413985" lon="12.74164323760504"><ele>16.0</ele><time>2026-04-25T14:48:21Z</time></trkpt><trkpt lat="43.94420730209526" lon="12.74175864852226"><ele>16.0</ele><time>2026-04-25T14:48:22Z</time></trkpt><trkpt lat="43.94429093597416" lon="12.74186274957935"><ele>15.600000000000001</ele><time>2026-04-25T14:48:23Z</time></trkpt><trkpt lat="43.944364329696135" lon="12.7419411451863"><ele>15.200000000000001</ele><time>2026-04-25T14:48:24Z</time></trkpt><trkpt lat="43.94444230143788" lon="12.741973194262552"><ele>14.799999999999999</ele><time>2026-04-25T14:48:25Z</time></trkpt><trkpt lat="43.94452296204197" lon="12.741956648724091"><ele>14.399999999999999</ele><time>2026-04-25T14:48:26Z</time></trkpt><trkpt lat="43.94461504278076" lon="12.74187538891019"><ele>14.0</ele><time>2026-04-25T14:48:27Z</time></trkpt><trkpt lat="43.944708619404906" lon="12.741760853002662"><ele>14.25</ele><time>2026-04-25T14:48:28Z</time></trkpt><trkpt lat="43.94480931720788" lon="12.74163372624384"><ele>14.5</ele><time>2026-04-25T14:48:29Z</time></trkpt><trkpt lat="43.944912143114834" lon="12.741500457186126"><ele>14.75</ele><time>2026-04-25T14:48:30Z</time></trkpt><trkpt lat="43.94502172237346" lon="12.74136479648667"><ele>15.0</ele><time>2026-04-25T14:48:31Z</time></trkpt><trkpt lat="43.9451379360462" lon="12.741221084658257"><ele>15.0</ele><time>2026-04-25T14:48:32Z</time></trkpt><trkpt lat="43.945255492486396" lon="12.74107928771348"><ele>15.0</ele><time>2026-04-25T14:48:33Z</time></trkpt><trkpt lat="43.9453761376242" lon="12.740938345039739"><ele>15.0</ele><time>2026-04-25T14:48:34Z</time></trkpt><trkpt lat="43.94549718041577" lon="12.740804185824938"><ele>15.0</ele><time>2026-04-25T14:48:35Z</time></trkpt><trkpt lat="43.945618232673986" lon="12.740673593114398"><ele>15.0</ele><time>2026-04-25T14:48:36Z</time></trkpt><trkpt lat="43.94573806829186" lon="12.74054509687472"><ele>15.0</ele><time>2026-04-25T14:48:37Z</time></trkpt><trkpt lat="43.94585001318976" lon="12.740424934873431"><ele>15.0</ele><time>2026-04-25T14:48:38Z</time></trkpt><trkpt lat="43.945951204346905" lon="12.740313888207558"><ele>15.0</ele><time>2026-04-25T14:48:39Z</time></trkpt><trkpt lat="43.946042831707665" lon="12.74020616321603"><ele>15.0</ele><time>2026-04-25T14:48:40Z</time></trkpt><trkpt lat="43.94612671616769" lon="12.740105815597737"><ele>15.0</ele><time>2026-04-25T14:48:41Z</time></trkpt><trkpt lat="43.94621286706183" lon="12.740004504739401"><ele>15.0</ele><time>2026-04-25T14:48:42Z</time></trkpt><trkpt lat="43.946303445934305" lon="12.739896468608963"><ele>15.0</ele><time>2026-04-25T14:48:43Z</time></trkpt><trkpt lat="43.94639576349773" lon="12.73978516189714"><ele>15.0</ele><time>2026-04-25T14:48:44Z</time></trkpt><trkpt lat="43.946481350130455" lon="12.739690734489198"><ele>15.0</ele><time>2026-04-25T14:48:45Z</time></trkpt><trkpt lat="43.946555222527046" lon="12.739615568271642"><ele>15.0</ele><time>2026-04-25T14:48:46Z</time></trkpt><trkpt lat="43.94661801610567" lon="12.739582718888158"><ele>15.0</ele><time>2026-04-25T14:48:47Z</time></trkpt><trkpt lat="43.94671250411651" lon="12.7397428799413"><ele>15.0</ele><time>2026-04-25T14:48:49Z</time></trkpt><trkpt lat="43.946791389084645" lon="12.73984405096836"><ele>15.0</ele><time>2026-04-25T14:48:50Z</time></trkpt><trkpt lat="43.946886136530075" lon="12.739959432672425"><ele>15.0</ele><time>2026-04-25T14:48:51Z</time></trkpt><trkpt lat="43.94699278067807" lon="12.740085157926552"><ele>15.0</ele><time>2026-04-25T14:48:52Z</time></trkpt><trkpt lat="43.94711784547646" lon="12.740207361203316"><ele>15.333333333333332</ele><time>2026-04-25T14:48:53Z</time></trkpt><trkpt lat="43.94723890558208" lon="12.740349420261609"><ele>15.666666666666666</ele><time>2026-04-25T14:48:54Z</time></trkpt><trkpt lat="43.94736179723325" lon="12.740488441954588"><ele>16.0</ele><time>2026-04-25T14:48:55Z</time></trkpt><trkpt lat="43.947473739762906" lon="12.740618145242737"><ele>16.0</ele><time>2026-04-25T14:48:56Z</time></trkpt><trkpt lat="43.94758145984523" lon="12.740751953289765"><ele>16.0</ele><time>2026-04-25T14:48:57Z</time></trkpt><trkpt lat="43.947692502276716" lon="12.74088030381759"><ele>16.0</ele><time>2026-04-25T14:48:58Z</time></trkpt><trkpt lat="43.94781872879976" lon="12.741005998472328"><ele>16.0</ele><time>2026-04-25T14:48:59Z</time></trkpt><trkpt lat="43.94795930296865" lon="12.74114101446904"><ele>16.0</ele><time>2026-04-25T14:49:00Z</time></trkpt><trkpt lat="43.948102660380094" lon="12.7412827839923"><ele>16.0</ele><time>2026-04-25T14:49:01Z</time></trkpt><trkpt lat="43.94825603298767" lon="12.741424174123706"><ele>16.0</ele><time>2026-04-25T14:49:02Z</time></trkpt><trkpt lat="43.9484107988306" lon="12.741565376975784"><ele>15.666666666666666</ele><time>2026-04-25T14:49:03Z</time></trkpt><trkpt lat="43.948559219445656" lon="12.741706423656028"><ele>15.333333333333332</ele><time>2026-04-25T14:49:04Z</time></trkpt><trkpt lat="43.948697691499845" lon="12.741832966827797"><ele>15.0</ele><time>2026-04-25T14:49:05Z</time></trkpt><trkpt lat="43.948827787563474" lon="12.741942160435364"><ele>15.0</ele><time>2026-04-25T14:49:06Z</time></trkpt><trkpt lat="43.94894828217522" lon="12.74203873659149"><ele>15.0</ele><time>2026-04-25T14:49:07Z</time></trkpt><trkpt lat="43.949049360580595" lon="12.742124854705075"><ele>15.0</ele><time>2026-04-25T14:49:08Z</time></trkpt><trkpt lat="43.949134187910495" lon="12.742199085691048"><ele>15.0</ele><time>2026-04-25T14:49:09Z</time></trkpt><trkpt lat="43.94920386728628" lon="12.742266787710886"><ele>15.0</ele><time>2026-04-25T14:49:10Z</time></trkpt><trkpt lat="43.94924994983048" lon="12.742341210907437"><ele>15.0</ele><time>2026-04-25T14:49:11Z</time></trkpt><trkpt lat="43.949277083297915" lon="12.742424945665384"><ele>15.0</ele><time>2026-04-25T14:49:12Z</time></trkpt><trkpt lat="43.94931308287257" lon="12.74250844207098"><ele>15.0</ele><time>2026-04-25T14:49:13Z</time></trkpt><trkpt lat="43.94937523671061" lon="12.742571552534192"><ele>15.0</ele><time>2026-04-25T14:49:14Z</time></trkpt><trkpt lat="43.94946580393188" lon="12.742620889033223"><ele>15.0</ele><time>2026-04-25T14:49:15Z</time></trkpt><trkpt lat="43.94956909874663" lon="12.742685495327569"><ele>15.0</ele><time>2026-04-25T14:49:16Z</time></trkpt><trkpt lat="43.94966536739245" lon="12.742805594471944"><ele>15.0</ele><time>2026-04-25T14:49:17Z</time></trkpt><trkpt lat="43.9497805896016" lon="12.742913852765696"><ele>15.0</ele><time>2026-04-25T14:49:18Z</time></trkpt><trkpt lat="43.94988460142652" lon="12.74305653518547"><ele>15.0</ele><time>2026-04-25T14:49:19Z</time></trkpt><trkpt lat="43.949991238796486" lon="12.743202730024471"><ele>15.0</ele><time>2026-04-25T14:49:20Z</time></trkpt><trkpt lat="43.95010170653605" lon="12.74334666733515"><ele>15.0</ele><time>2026-04-25T14:49:21Z</time></trkpt><trkpt lat="43.95021551415335" lon="12.743488650328679"><ele>15.0</ele><time>2026-04-25T14:49:22Z</time></trkpt><trkpt lat="43.95032240277116" lon="12.743644605251637"><ele>15.0</ele><time>2026-04-25T14:49:23Z</time></trkpt><trkpt lat="43.95043711345126" lon="12.743792113550262"><ele>13.666666666666666</ele><time>2026-04-25T14:49:24Z</time></trkpt><trkpt lat="43.95057300242761" lon="12.74390981693559"><ele>12.333333333333332</ele><time>2026-04-25T14:49:25Z</time></trkpt><trkpt lat="43.95068925662679" lon="12.744054677422648"><ele>11.0</ele><time>2026-04-25T14:49:26Z</time></trkpt><trkpt lat="43.95079907599961" lon="12.744186478035305"><ele>11.25</ele><time>2026-04-25T14:49:27Z</time></trkpt><trkpt lat="43.95089279357053" lon="12.744308566094235"><ele>11.5</ele><time>2026-04-25T14:49:28Z</time></trkpt><trkpt lat="43.95097275379839" lon="12.744424615055854"><ele>11.75</ele><time>2026-04-25T14:49:29Z</time></trkpt><trkpt lat="43.951054182151985" lon="12.744532787593538"><ele>12.0</ele><time>2026-04-25T14:49:30Z</time></trkpt><trkpt lat="43.95113250216238" lon="12.744628868552834"><ele>12.0</ele><time>2026-04-25T14:49:31Z</time></trkpt><trkpt lat="43.951202178196375" lon="12.744710735389974"><ele>12.0</ele><time>2026-04-25T14:49:32Z</time></trkpt><trkpt lat="43.95126796719792" lon="12.744784422574096"><ele>12.0</ele><time>2026-04-25T14:49:33Z</time></trkpt><trkpt lat="43.95132018228402" lon="12.744852415925187"><ele>12.0</ele><time>2026-04-25T14:49:34Z</time></trkpt><trkpt lat="43.95132747891829" lon="12.745000796043266"><ele>12.0</ele><time>2026-04-25T14:49:36Z</time></trkpt><trkpt lat="43.95124971260883" lon="12.745087685993465"><ele>12.0</ele><time>2026-04-25T14:49:37Z</time></trkpt><trkpt lat="43.95120268498154" lon="12.745213626499464"><ele>12.0</ele><time>2026-04-25T14:49:38Z</time></trkpt><trkpt lat="43.95112850706983" lon="12.745335553620409"><ele>12.0</ele><time>2026-04-25T14:49:39Z</time></trkpt><trkpt lat="43.951068767391995" lon="12.745470966173682"><ele>12.0</ele><time>2026-04-25T14:49:40Z</time></trkpt><trkpt lat="43.951021061350986" lon="12.74558292620504"><ele>12.0</ele><time>2026-04-25T14:49:41Z</time></trkpt><trkpt lat="43.95098300467486" lon="12.745685983797161"><ele>12.0</ele><time>2026-04-25T14:49:42Z</time></trkpt><trkpt lat="43.95100301589759" lon="12.745844256849665"><ele>12.0</ele><time>2026-04-25T14:49:44Z</time></trkpt><trkpt lat="43.95106353237474" lon="12.745890669277069"><ele>12.0</ele><time>2026-04-25T14:49:45Z</time></trkpt><trkpt lat="43.95114940864628" lon="12.745953209312153"><ele>12.0</ele><time>2026-04-25T14:49:46Z</time></trkpt><trkpt lat="43.95125277664407" lon="12.746007958677795"><ele>12.0</ele><time>2026-04-25T14:49:47Z</time></trkpt><trkpt lat="43.951369762424314" lon="12.746081591181094"><ele>11.5</ele><time>2026-04-25T14:49:48Z</time></trkpt><trkpt lat="43.95149071426554" lon="12.746159354481701"><ele>11.0</ele><time>2026-04-25T14:49:49Z</time></trkpt><trkpt lat="43.951616705224744" lon="12.746228158035555"><ele>10.5</ele><time>2026-04-25T14:49:50Z</time></trkpt><trkpt lat="43.95174931626473" lon="12.746287510383647"><ele>10.0</ele><time>2026-04-25T14:49:51Z</time></trkpt><trkpt lat="43.95188318519261" lon="12.746338483577095"><ele>9.75</ele><time>2026-04-25T14:49:52Z</time></trkpt><trkpt lat="43.95201638423065" lon="12.746387979603588"><ele>9.5</ele><time>2026-04-25T14:49:53Z</time></trkpt><trkpt lat="43.952133040068404" lon="12.746434288470148"><ele>9.25</ele><time>2026-04-25T14:49:54Z</time></trkpt><trkpt lat="43.952240394259256" lon="12.746482845886904"><ele>9.0</ele><time>2026-04-25T14:49:55Z</time></trkpt><trkpt lat="43.95233320952165" lon="12.746543951261478"><ele>9.0</ele><time>2026-04-25T14:49:56Z</time></trkpt><trkpt lat="43.952406673043825" lon="12.746622689185935"><ele>9.0</ele><time>2026-04-25T14:49:57Z</time></trkpt><trkpt lat="43.95247253907236" lon="12.746732976837992"><ele>9.0</ele><time>2026-04-25T14:49:58Z</time></trkpt><trkpt lat="43.952512667260265" lon="12.746870574018017"><ele>9.0</ele><time>2026-04-25T14:49:59Z</time></trkpt><trkpt lat="43.95254479292832" lon="12.74698951800044"><ele>9.0</ele><time>2026-04-25T14:50:00Z</time></trkpt><trkpt lat="43.95254913079438" lon="12.747130839914998"><ele>9.4</ele><time>2026-04-25T14:50:01Z</time></trkpt><trkpt lat="43.952558449234644" lon="12.74728286081545"><ele>9.8</ele><time>2026-04-25T14:50:02Z</time></trkpt><trkpt lat="43.95259040546308" lon="12.74740758341445"><ele>10.200000000000001</ele><time>2026-04-25T14:50:03Z</time></trkpt><trkpt lat="43.95262946320555" lon="12.747513224133307"><ele>10.600000000000001</ele><time>2026-04-25T14:50:04Z</time></trkpt><trkpt lat="43.95269409241232" lon="12.747582645293033"><ele>11.0</ele><time>2026-04-25T14:50:05Z</time></trkpt><trkpt lat="43.95278306191916" lon="12.747646430489645"><ele>11.0</ele><time>2026-04-25T14:50:06Z</time></trkpt><trkpt lat="43.95287798791757" lon="12.747705659011984"><ele>11.0</ele><time>2026-04-25T14:50:07Z</time></trkpt><trkpt lat="43.952973490020945" lon="12.747761233089435"><ele>11.0</ele><time>2026-04-25T14:50:08Z</time></trkpt><trkpt lat="43.953066259279645" lon="12.747823194509508"><ele>11.0</ele><time>2026-04-25T14:50:09Z</time></trkpt><trkpt lat="43.95320061507729" lon="12.747909454250536"><ele>11.0</ele><time>2026-04-25T14:50:10Z</time></trkpt><trkpt lat="43.95330647334094" lon="12.74798266883713"><ele>11.0</ele><time>2026-04-25T14:50:11Z</time></trkpt><trkpt lat="43.95338456029078" lon="12.748036402166335"><ele>11.0</ele><time>2026-04-25T14:50:12Z</time></trkpt><trkpt lat="43.95345162265104" lon="12.74808114146845"><ele>11.0</ele><time>2026-04-25T14:50:13Z</time></trkpt><trkpt lat="43.953524376957965" lon="12.748134877892777"><ele>11.0</ele><time>2026-04-25T14:50:14Z</time></trkpt><trkpt lat="43.95361837098812" lon="12.748204343761959"><ele>11.0</ele><time>2026-04-25T14:50:15Z</time></trkpt><trkpt lat="43.95372706512258" lon="12.748292833238002"><ele>11.0</ele><time>2026-04-25T14:50:16Z</time></trkpt><trkpt lat="43.953840394918366" lon="12.748398263569253"><ele>11.0</ele><time>2026-04-25T14:50:17Z</time></trkpt><trkpt lat="43.95396614066372" lon="12.748505361267027"><ele>11.0</ele><time>2026-04-25T14:50:18Z</time></trkpt><trkpt lat="43.95407778485676" lon="12.748600339075963"><ele>11.0</ele><time>2026-04-25T14:50:19Z</time></trkpt><trkpt lat="43.95419188664322" lon="12.748702166385167"><ele>11.0</ele><time>2026-04-25T14:50:20Z</time></trkpt><trkpt lat="43.954308069823725" lon="12.748825845370817"><ele>11.0</ele><time>2026-04-25T14:50:21Z</time></trkpt><trkpt lat="43.95442000037593" lon="12.748965768001275"><ele>11.0</ele><time>2026-04-25T14:50:22Z</time></trkpt><trkpt lat="43.95453144725966" lon="12.749111822257312"><ele>11.0</ele><time>2026-04-25T14:50:23Z</time></trkpt><trkpt lat="43.9546415633557" lon="12.749260628484123"><ele>11.0</ele><time>2026-04-25T14:50:24Z</time></trkpt><trkpt lat="43.954749594766554" lon="12.749401339506163"><ele>11.0</ele><time>2026-04-25T14:50:25Z</time></trkpt><trkpt lat="43.9548560350667" lon="12.749523099602525"><ele>11.0</ele><time>2026-04-25T14:50:26Z</time></trkpt><trkpt lat="43.9549568329738" lon="12.749636269858074"><ele>10.8</ele><time>2026-04-25T14:50:27Z</time></trkpt><trkpt lat="43.95504495271333" lon="12.749741600586939"><ele>10.600000000000001</ele><time>2026-04-25T14:50:28Z</time></trkpt><trkpt lat="43.95512677213786" lon="12.749827579405235"><ele>10.4</ele><time>2026-04-25T14:50:29Z</time></trkpt><trkpt lat="43.95521420409083" lon="12.74986469107777"><ele>10.2</ele><time>2026-04-25T14:50:30Z</time></trkpt><trkpt lat="43.955301411076434" lon="12.749843798178171"><ele>10.0</ele><time>2026-04-25T14:50:31Z</time></trkpt><trkpt lat="43.955381786085866" lon="12.749775647932209"><ele>10.0</ele><time>2026-04-25T14:50:32Z</time></trkpt><trkpt lat="43.95545520669696" lon="12.749659462494233"><ele>10.0</ele><time>2026-04-25T14:50:33Z</time></trkpt><trkpt lat="43.955500354776774" lon="12.749491383775814"><ele>10.0</ele><time>2026-04-25T14:50:34Z</time></trkpt><trkpt lat="43.95557654697284" lon="12.74932716236664"><ele>10.0</ele><time>2026-04-25T14:50:35Z</time></trkpt><trkpt lat="43.95564332591741" lon="12.749141894508766"><ele>10.0</ele><time>2026-04-25T14:50:36Z</time></trkpt><trkpt lat="43.95571705487047" lon="12.748955489956076"><ele>10.0</ele><time>2026-04-25T14:50:37Z</time></trkpt><trkpt lat="43.95579396374455" lon="12.748775190402377"><ele>10.0</ele><time>2026-04-25T14:50:38Z</time></trkpt><trkpt lat="43.9558691435868" lon="12.748600497299545"><ele>10.25</ele><time>2026-04-25T14:50:39Z</time></trkpt><trkpt lat="43.95593848459455" lon="12.748445966770467"><ele>10.5</ele><time>2026-04-25T14:50:40Z</time></trkpt><trkpt lat="43.95602768121067" lon="12.748335276058079"><ele>10.75</ele><time>2026-04-25T14:50:41Z</time></trkpt><trkpt lat="43.95610064419766" lon="12.748217546508121"><ele>11.0</ele><time>2026-04-25T14:50:42Z</time></trkpt><trkpt lat="43.95618564322288" lon="12.74814320740018"><ele>11.0</ele><time>2026-04-25T14:50:43Z</time></trkpt><trkpt lat="43.956274733135594" lon="12.748086577651371"><ele>11.0</ele><time>2026-04-25T14:50:44Z</time></trkpt><trkpt lat="43.95636824128712" lon="12.748052381051762"><ele>11.0</ele><time>2026-04-25T14:50:45Z</time></trkpt><trkpt lat="43.95645781293335" lon="12.748052689648857"><ele>11.0</ele><time>2026-04-25T14:50:46Z</time></trkpt><trkpt lat="43.956552136222136" lon="12.748097857893931"><ele>11.0</ele><time>2026-04-25T14:50:47Z</time></trkpt><trkpt lat="43.95665079921347" lon="12.74818011645341"><ele>11.0</ele><time>2026-04-25T14:50:48Z</time></trkpt><trkpt lat="43.95672419936618" lon="12.748331490718087"><ele>11.0</ele><time>2026-04-25T14:50:49Z</time></trkpt><trkpt lat="43.95684463429196" lon="12.748436741057041"><ele>11.0</ele><time>2026-04-25T14:50:50Z</time></trkpt><trkpt lat="43.956962399267546" lon="12.74856688580238"><ele>11.0</ele><time>2026-04-25T14:50:51Z</time></trkpt><trkpt lat="43.95707714682319" lon="12.74868761712289"><ele>10.333333333333332</ele><time>2026-04-25T14:50:52Z</time></trkpt><trkpt lat="43.95718826684971" lon="12.748807738487361"><ele>9.666666666666666</ele><time>2026-04-25T14:50:53Z</time></trkpt><trkpt lat="43.95731089098807" lon="12.74894132644163"><ele>9.0</ele><time>2026-04-25T14:50:54Z</time></trkpt><trkpt lat="43.9574309567343" lon="12.749092846920131"><ele>9.0</ele><time>2026-04-25T14:50:55Z</time></trkpt><trkpt lat="43.95752919687897" lon="12.749264982429116"><ele>9.0</ele><time>2026-04-25T14:50:56Z</time></trkpt><trkpt lat="43.95762543909131" lon="12.749414910230794"><ele>9.0</ele><time>2026-04-25T14:50:57Z</time></trkpt><trkpt lat="43.95773286426652" lon="12.749527553420522"><ele>9.0</ele><time>2026-04-25T14:50:58Z</time></trkpt><trkpt lat="43.95782749345003" lon="12.74963918664873"><ele>8.6</ele><time>2026-04-25T14:50:59Z</time></trkpt><trkpt lat="43.95792788779496" lon="12.74972204768872"><ele>8.2</ele><time>2026-04-25T14:51:00Z</time></trkpt><trkpt lat="43.95802399150312" lon="12.749798825925765"><ele>7.799999999999999</ele><time>2026-04-25T14:51:01Z</time></trkpt><trkpt lat="43.958112943498634" lon="12.74987240295569"><ele>7.3999999999999995</ele><time>2026-04-25T14:51:02Z</time></trkpt><trkpt lat="43.9581998290503" lon="12.749953277764554"><ele>7.0</ele><time>2026-04-25T14:51:03Z</time></trkpt><trkpt lat="43.95828403826948" lon="12.750029708449667"><ele>7.000000000000001</ele><time>2026-04-25T14:51:04Z</time></trkpt><trkpt lat="43.958363435024836" lon="12.750100832183472"><ele>7.0</ele><time>2026-04-25T14:51:05Z</time></trkpt><trkpt lat="43.95842933785878" lon="12.750161682718728"><ele>7.0</ele><time>2026-04-25T14:51:06Z</time></trkpt><trkpt lat="43.95849854096543" lon="12.75023120590222"><ele>7.0</ele><time>2026-04-25T14:51:07Z</time></trkpt><trkpt lat="43.958567418449846" lon="12.750299496418071"><ele>7.000000000000001</ele><time>2026-04-25T14:51:08Z</time></trkpt><trkpt lat="43.958619923524104" lon="12.750348141740739"><ele>7.0</ele><time>2026-04-25T14:51:09Z</time></trkpt><trkpt lat="43.95870302348684" lon="12.750254095550005"><ele>7.0</ele><time>2026-04-25T14:51:11Z</time></trkpt><trkpt lat="43.95884546868483" lon="12.750180196745722"><ele>7.0</ele><time>2026-04-25T14:51:13Z</time></trkpt><trkpt lat="43.95894923409145" lon="12.750200445088968"><ele>7.0</ele><time>2026-04-25T14:51:14Z</time></trkpt><trkpt lat="43.959062174492445" lon="12.750219093865242"><ele>7.0</ele><time>2026-04-25T14:51:15Z</time></trkpt><trkpt lat="43.959185563564525" lon="12.750228771556127"><ele>7.75</ele><time>2026-04-25T14:51:16Z</time></trkpt><trkpt lat="43.959316506545996" lon="12.750277040843871"><ele>8.5</ele><time>2026-04-25T14:51:17Z</time></trkpt><trkpt lat="43.9594426090377" lon="12.750322200018415"><ele>9.25</ele><time>2026-04-25T14:51:18Z</time></trkpt><trkpt lat="43.95954998620627" lon="12.750362483935314"><ele>10.0</ele><time>2026-04-25T14:51:19Z</time></trkpt><trkpt lat="43.95965466367128" lon="12.75039183916836"><ele>10.0</ele><time>2026-04-25T14:51:20Z</time></trkpt><trkpt lat="43.959747852578346" lon="12.750396171966306"><ele>10.0</ele><time>2026-04-25T14:51:21Z</time></trkpt><trkpt lat="43.959828814253" lon="12.750377061663215"><ele>10.0</ele><time>2026-04-25T14:51:22Z</time></trkpt><trkpt lat="43.95990059636807" lon="12.750352281550722"><ele>10.0</ele><time>2026-04-25T14:51:23Z</time></trkpt><trkpt lat="43.95997102631431" lon="12.750343456919177"><ele>10.0</ele><time>2026-04-25T14:51:24Z</time></trkpt><trkpt lat="43.9600348912504" lon="12.750349503199121"><ele>10.0</ele><time>2026-04-25T14:51:25Z</time></trkpt><trkpt lat="43.9601008691883" lon="12.750391163476717"><ele>9.8</ele><time>2026-04-25T14:51:27Z</time></trkpt><trkpt lat="43.960117480845824" lon="12.75047791688592"><ele>9.6</ele><time>2026-04-25T14:51:29Z</time></trkpt><trkpt lat="43.96008330406413" lon="12.75066039498433"><ele>9.4</ele><time>2026-04-25T14:51:31Z</time></trkpt><trkpt lat="43.96006744759969" lon="12.750769704445382"><ele>9.2</ele><time>2026-04-25T14:51:32Z</time></trkpt><trkpt lat="43.96006018020312" lon="12.750861589457898"><ele>9.0</ele><time>2026-04-25T14:51:33Z</time></trkpt><trkpt lat="43.96003641469023" lon="12.751028028431026"><ele>8.8</ele><time>2026-04-25T14:51:35Z</time></trkpt><trkpt lat="43.96002288526258" lon="12.751114852338626"><ele>8.600000000000001</ele><time>2026-04-25T14:51:36Z</time></trkpt><trkpt lat="43.95999297567769" lon="12.751270410452717"><ele>8.4</ele><time>2026-04-25T14:51:38Z</time></trkpt><trkpt lat="43.95997350516848" lon="12.751398179361995"><ele>8.200000000000001</ele><time>2026-04-25T14:51:40Z</time></trkpt><trkpt lat="43.95993275250791" lon="12.751525105825444"><ele>8.0</ele><time>2026-04-25T14:51:42Z</time></trkpt><trkpt lat="43.95988982238218" lon="12.75162847697344"><ele>8.0</ele><time>2026-04-25T14:51:44Z</time></trkpt><trkpt lat="43.95980208032522" lon="12.75170046535164"><ele>8.0</ele><time>2026-04-25T14:51:47Z</time></trkpt><trkpt lat="43.95977264207417" lon="12.751829924525348"><ele>8.0</ele><time>2026-04-25T14:56:31Z</time></trkpt><trkpt lat="43.9598323690034" lon="12.751999414844553"><ele>8.0</ele><time>2026-04-25T14:56:33Z</time></trkpt><trkpt lat="43.959879899585836" lon="12.752172676430124"><ele>7.833333333333333</ele><time>2026-04-25T14:56:35Z</time></trkpt><trkpt lat="43.95988226626659" lon="12.752276728993333"><ele>7.666666666666666</ele><time>2026-04-25T14:56:36Z</time></trkpt><trkpt lat="43.9598756869317" lon="12.75238844884619"><ele>7.5</ele><time>2026-04-25T14:56:37Z</time></trkpt><trkpt lat="43.95986463720227" lon="12.75251175809119"><ele>7.333333333333334</ele><time>2026-04-25T14:56:38Z</time></trkpt><trkpt lat="43.95984375709028" lon="12.7526463359056"><ele>7.166666666666667</ele><time>2026-04-25T14:56:39Z</time></trkpt><trkpt lat="43.95983326394084" lon="12.752784989815208"><ele>7.0</ele><time>2026-04-25T14:56:40Z</time></trkpt><trkpt lat="43.95982006836299" lon="12.752928423743414"><ele>6.833333333333334</ele><time>2026-04-25T14:56:41Z</time></trkpt><trkpt lat="43.959810021550425" lon="12.753059247899294"><ele>6.666666666666667</ele><time>2026-04-25T14:56:42Z</time></trkpt><trkpt lat="43.959798292194776" lon="12.753171480335395"><ele>6.5</ele><time>2026-04-25T14:56:43Z</time></trkpt><trkpt lat="43.95979210389352" lon="12.753278967320576"><ele>6.333333333333334</ele><time>2026-04-25T14:56:44Z</time></trkpt><trkpt lat="43.95978365096674" lon="12.75339378988364"><ele>6.166666666666667</ele><time>2026-04-25T14:56:45Z</time></trkpt><trkpt lat="43.959772219259754" lon="12.753507847734273"><ele>6.0</ele><time>2026-04-25T14:56:46Z</time></trkpt><trkpt lat="43.959762417625285" lon="12.753617629428133"><ele>6.0</ele><time>2026-04-25T14:56:47Z</time></trkpt><trkpt lat="43.95975136326564" lon="12.75371734186942"><ele>6.0</ele><time>2026-04-25T14:56:48Z</time></trkpt><trkpt lat="43.95973945242071" lon="12.75380897395787"><ele>6.0</ele><time>2026-04-25T14:56:49Z</time></trkpt><trkpt lat="43.959734566690805" lon="12.753911436196683"><ele>6.0</ele><time>2026-04-25T14:56:50Z</time></trkpt><trkpt lat="43.95972319288891" lon="12.754020373809858"><ele>6.0</ele><time>2026-04-25T14:56:51Z</time></trkpt><trkpt lat="43.95971517528484" lon="12.75413906156278"><ele>6.0</ele><time>2026-04-25T14:56:52Z</time></trkpt><trkpt lat="43.95969898743347" lon="12.754261706615202"><ele>6.6</ele><time>2026-04-25T14:56:53Z</time></trkpt><trkpt lat="43.95969113874113" lon="12.754384800451467"><ele>7.199999999999999</ele><time>2026-04-25T14:56:54Z</time></trkpt><trkpt lat="43.959682976861586" lon="12.754502268412848"><ele>7.800000000000001</ele><time>2026-04-25T14:56:55Z</time></trkpt><trkpt lat="43.959672423202" lon="12.754624810461264"><ele>8.4</ele><time>2026-04-25T14:56:56Z</time></trkpt><trkpt lat="43.9596627727071" lon="12.754751667525875"><ele>9.0</ele><time>2026-04-25T14:56:57Z</time></trkpt><trkpt lat="43.95965257075336" lon="12.754886971590214"><ele>9.0</ele><time>2026-04-25T14:56:58Z</time></trkpt><trkpt lat="43.95964062881099" lon="12.755027871149855"><ele>9.0</ele><time>2026-04-25T14:56:59Z</time></trkpt><trkpt lat="43.95962946949519" lon="12.755171615280128"><ele>9.0</ele><time>2026-04-25T14:57:00Z</time></trkpt><trkpt lat="43.959619387722604" lon="12.755313330628756"><ele>9.0</ele><time>2026-04-25T14:57:01Z</time></trkpt><trkpt lat="43.95960980192076" lon="12.755437915063183"><ele>9.0</ele><time>2026-04-25T14:57:02Z</time></trkpt><trkpt lat="43.9596001471598" lon="12.755545960997852"><ele>9.0</ele><time>2026-04-25T14:57:03Z</time></trkpt><trkpt lat="43.959592922277274" lon="12.75564110983866"><ele>9.0</ele><time>2026-04-25T14:57:04Z</time></trkpt><trkpt lat="43.959580619760175" lon="12.75581686859531"><ele>9.0</ele><time>2026-04-25T14:57:06Z</time></trkpt><trkpt lat="43.95957409497383" lon="12.75590638601265"><ele>9.0</ele><time>2026-04-25T14:57:07Z</time></trkpt><trkpt lat="43.959544586977835" lon="12.756059221820554"><ele>9.0</ele><time>2026-04-25T14:57:09Z</time></trkpt><trkpt lat="43.95950774724" lon="12.756198453895271"><ele>9.0</ele><time>2026-04-25T14:57:11Z</time></trkpt><trkpt lat="43.95954409130025" lon="12.756311976558806"><ele>9.0</ele><time>2026-04-25T14:57:13Z</time></trkpt><trkpt lat="43.95966139936299" lon="12.756329131067396"><ele>9.0</ele><time>2026-04-25T14:57:15Z</time></trkpt><trkpt lat="43.959743191560015" lon="12.756307613151819"><ele>9.0</ele><time>2026-04-25T14:57:16Z</time></trkpt><trkpt lat="43.95982621436385" lon="12.756307941851906"><ele>9.0</ele><time>2026-04-25T14:57:17Z</time></trkpt><trkpt lat="43.959913465931386" lon="12.756308779055631"><ele>9.0</ele><time>2026-04-25T14:57:18Z</time></trkpt><trkpt lat="43.96000214065443" lon="12.75633599154493"><ele>9.0</ele><time>2026-04-25T14:57:19Z</time></trkpt><trkpt lat="43.96010230210772" lon="12.756346843909315"><ele>9.0</ele><time>2026-04-25T14:57:20Z</time></trkpt><trkpt lat="43.96020610071978" lon="12.756358090380221"><ele>9.0</ele><time>2026-04-25T14:57:21Z</time></trkpt><trkpt lat="43.960315724876494" lon="12.75637047027919"><ele>9.0</ele><time>2026-04-25T14:57:22Z</time></trkpt><trkpt lat="43.960423095634496" lon="12.756383046919549"><ele>9.0</ele><time>2026-04-25T14:57:23Z</time></trkpt><trkpt lat="43.960532493180615" lon="12.75639586068365"><ele>9.0</ele><time>2026-04-25T14:57:24Z</time></trkpt><trkpt lat="43.9606461493496" lon="12.756389315168988"><ele>9.0</ele><time>2026-04-25T14:57:25Z</time></trkpt><trkpt lat="43.960757754824726" lon="12.756401908201441"><ele>9.0</ele><time>2026-04-25T14:57:26Z</time></trkpt><trkpt lat="43.960869928924474" lon="12.756437641123664"><ele>8.0</ele><time>2026-04-25T14:57:27Z</time></trkpt><trkpt lat="43.96098938546678" lon="12.756434920857426"><ele>7.0</ele><time>2026-04-25T14:57:28Z</time></trkpt><trkpt lat="43.96110904108638" lon="12.756450959588593"><ele>6.0</ele><time>2026-04-25T14:57:29Z</time></trkpt><trkpt lat="43.96123303375679" lon="12.756465309650126"><ele>5.0</ele><time>2026-04-25T14:57:30Z</time></trkpt><trkpt lat="43.96135634256049" lon="12.756478718042374"><ele>5.0</ele><time>2026-04-25T14:57:31Z</time></trkpt><trkpt lat="43.961464449893604" lon="12.756491068277986"><ele>5.0</ele><time>2026-04-25T14:57:32Z</time></trkpt><trkpt lat="43.9615734289278" lon="12.7565003316704"><ele>5.0</ele><time>2026-04-25T14:57:33Z</time></trkpt><trkpt lat="43.96168520338674" lon="12.756527636697157"><ele>5.0</ele><time>2026-04-25T14:57:34Z</time></trkpt><trkpt lat="43.96180779833852" lon="12.756540267492484"><ele>5.2</ele><time>2026-04-25T14:57:35Z</time></trkpt><trkpt lat="43.96193042441303" lon="12.756553111946062"><ele>5.4</ele><time>2026-04-25T14:57:36Z</time></trkpt><trkpt lat="43.96204221237204" lon="12.7565653361136"><ele>5.6</ele><time>2026-04-25T14:57:37Z</time></trkpt><trkpt lat="43.96213580303028" lon="12.756576542759584"><ele>5.8</ele><time>2026-04-25T14:57:38Z</time></trkpt><trkpt lat="43.962211943783885" lon="12.756595191683315"><ele>6.0</ele><time>2026-04-25T14:57:39Z</time></trkpt><trkpt lat="43.9622794033459" lon="12.756615409359412"><ele>6.0</ele><time>2026-04-25T14:57:40Z</time></trkpt><trkpt lat="43.962324684358016" lon="12.75668470036714"><ele>6.0</ele><time>2026-04-25T14:57:41Z</time></trkpt><trkpt lat="43.96236788875726" lon="12.756770546622448"><ele>6.0</ele><time>2026-04-25T14:57:42Z</time></trkpt><trkpt lat="43.96241732789151" lon="12.756824759416777"><ele>6.0</ele><time>2026-04-25T14:57:43Z</time></trkpt><trkpt lat="43.962481980055045" lon="12.7568247387381"><ele>6.0</ele><time>2026-04-25T14:57:44Z</time></trkpt><trkpt lat="43.96254541369085" lon="12.756766608236669"><ele>6.0</ele><time>2026-04-25T14:57:45Z</time></trkpt><trkpt lat="43.9626501126709" lon="12.756672807607867"><ele>6.4</ele><time>2026-04-25T14:57:46Z</time></trkpt><trkpt lat="43.96276268687097" lon="12.756644043005872"><ele>6.8</ele><time>2026-04-25T14:57:47Z</time></trkpt><trkpt lat="43.96287440166353" lon="12.756625101589869"><ele>7.200000000000001</ele><time>2026-04-25T14:57:48Z</time></trkpt><trkpt lat="43.96298522592883" lon="12.756608244554243"><ele>7.6000000000000005</ele><time>2026-04-25T14:57:49Z</time></trkpt><trkpt lat="43.96308497713073" lon="12.756597312716146"><ele>8.0</ele><time>2026-04-25T14:57:50Z</time></trkpt><trkpt lat="43.963174048922404" lon="12.75658602073786"><ele>7.999999999999999</ele><time>2026-04-25T14:57:51Z</time></trkpt><trkpt lat="43.96325385119151" lon="12.756575903913046"><ele>8.0</ele><time>2026-04-25T14:57:52Z</time></trkpt><trkpt lat="43.96332150307777" lon="12.756567327404035"><ele>8.0</ele><time>2026-04-25T14:57:53Z</time></trkpt><trkpt lat="43.96342457703828" lon="12.75655377287688"><ele>8.0</ele><time>2026-04-25T14:57:55Z</time></trkpt><trkpt lat="43.963526136842454" lon="12.756540310673492"><ele>7.999999999999999</ele><time>2026-04-25T14:57:57Z</time></trkpt><trkpt lat="43.96359368170249" lon="12.75650980299077"><ele>8.0</ele><time>2026-04-25T14:57:58Z</time></trkpt><trkpt lat="43.9636858206179" lon="12.756519143866116"><ele>9.0</ele><time>2026-04-25T14:57:59Z</time></trkpt><trkpt lat="43.96380071983308" lon="12.756503913406824"><ele>10.0</ele><time>2026-04-25T14:58:00Z</time></trkpt><trkpt lat="43.96390591198566" lon="12.756490365184353"><ele>11.0</ele><time>2026-04-25T14:58:01Z</time></trkpt><trkpt lat="43.964021414559184" lon="12.756476299630233"><ele>12.0</ele><time>2026-04-25T14:58:02Z</time></trkpt><trkpt lat="43.964146585038414" lon="12.756461437044734"><ele>12.75</ele><time>2026-04-25T14:58:03Z</time></trkpt><trkpt lat="43.964273037437536" lon="12.756447565492094"><ele>13.5</ele><time>2026-04-25T14:58:04Z</time></trkpt><trkpt lat="43.9644033461766" lon="12.756438352665915"><ele>14.25</ele><time>2026-04-25T14:58:05Z</time></trkpt><trkpt lat="43.9645335448161" lon="12.756436371957522"><ele>15.0</ele><time>2026-04-25T14:58:06Z</time></trkpt><trkpt lat="43.964661163715846" lon="12.75642145800722"><ele>15.0</ele><time>2026-04-25T14:58:07Z</time></trkpt><trkpt lat="43.9647849503619" lon="12.756427356967704"><ele>15.0</ele><time>2026-04-25T14:58:08Z</time></trkpt><trkpt lat="43.964901661264136" lon="12.756448598820704"><ele>15.0</ele><time>2026-04-25T14:58:09Z</time></trkpt><trkpt lat="43.965006901654924" lon="12.756461724090451"><ele>15.0</ele><time>2026-04-25T14:58:10Z</time></trkpt><trkpt lat="43.96510006824412" lon="12.756478883873251"><ele>15.0</ele><time>2026-04-25T14:58:11Z</time></trkpt><trkpt lat="43.96519919654774" lon="12.756500402239375"><ele>14.2</ele><time>2026-04-25T14:58:12Z</time></trkpt><trkpt lat="43.96526374808679" lon="12.756516739152111"><ele>13.4</ele><time>2026-04-25T14:58:13Z</time></trkpt><trkpt lat="43.96539856605955" lon="12.756562052809388"><ele>12.600000000000001</ele><time>2026-04-25T14:58:15Z</time></trkpt><trkpt lat="43.96548425618794" lon="12.756558270215995"><ele>11.8</ele><time>2026-04-25T14:58:16Z</time></trkpt><trkpt lat="43.96556451321938" lon="12.756572616527507"><ele>11.0</ele><time>2026-04-25T14:58:17Z</time></trkpt><trkpt lat="43.965643764476496" lon="12.756588010236566"><ele>11.0</ele><time>2026-04-25T14:58:18Z</time></trkpt><trkpt lat="43.96571594574185" lon="12.756609984317251"><ele>11.0</ele><time>2026-04-25T14:58:19Z</time></trkpt><trkpt lat="43.96578249657692" lon="12.75663119896991"><ele>11.0</ele><time>2026-04-25T14:58:20Z</time></trkpt><trkpt lat="43.9658646383668" lon="12.756640131520776"><ele>11.0</ele><time>2026-04-25T14:58:21Z</time></trkpt><trkpt lat="43.96594225949172" lon="12.756639551125696"><ele>11.0</ele><time>2026-04-25T14:58:22Z</time></trkpt><trkpt lat="43.96600698296226" lon="12.756654905559712"><ele>11.0</ele><time>2026-04-25T14:58:23Z</time></trkpt><trkpt lat="43.966075032580406" lon="12.756657457150421"><ele>11.0</ele><time>2026-04-25T14:58:24Z</time></trkpt><trkpt lat="43.96614932369741" lon="12.756670065903286"><ele>10.666666666666666</ele><time>2026-04-25T14:58:25Z</time></trkpt><trkpt lat="43.96622801961325" lon="12.756674900331971"><ele>10.333333333333332</ele><time>2026-04-25T14:58:26Z</time></trkpt><trkpt lat="43.966305634014205" lon="12.75668053698963"><ele>10.0</ele><time>2026-04-25T14:58:27Z</time></trkpt><trkpt lat="43.96638115182297" lon="12.756691902448688"><ele>9.666666666666666</ele><time>2026-04-25T14:58:28Z</time></trkpt><trkpt lat="43.966446390032004" lon="12.75670088024793"><ele>9.333333333333334</ele><time>2026-04-25T14:58:29Z</time></trkpt><trkpt lat="43.96655709111403" lon="12.756736203408819"><ele>9.0</ele><time>2026-04-25T14:58:31Z</time></trkpt><trkpt lat="43.96663677696975" lon="12.75682165457819"><ele>9.0</ele><time>2026-04-25T14:58:33Z</time></trkpt><trkpt lat="43.96664000791793" lon="12.75693410423464"><ele>9.0</ele><time>2026-04-25T14:58:35Z</time></trkpt><trkpt lat="43.96660745863461" lon="12.757015550494202"><ele>9.0</ele><time>2026-04-25T14:58:36Z</time></trkpt><trkpt lat="43.966595386303894" lon="12.757111990673005"><ele>9.0</ele><time>2026-04-25T14:58:37Z</time></trkpt><trkpt lat="43.96656963262986" lon="12.757233962673393"><ele>9.0</ele><time>2026-04-25T14:58:38Z</time></trkpt><trkpt lat="43.96651689481137" lon="12.757336317937503"><ele>9.0</ele><time>2026-04-25T14:58:39Z</time></trkpt><trkpt lat="43.96648699373259" lon="12.75748368800574"><ele>9.0</ele><time>2026-04-25T14:58:40Z</time></trkpt><trkpt lat="43.966448364422966" lon="12.757639612575042"><ele>9.0</ele><time>2026-04-25T14:58:41Z</time></trkpt><trkpt lat="43.96639947305648" lon="12.75780514260226"><ele>9.0</ele><time>2026-04-25T14:58:42Z</time></trkpt><trkpt lat="43.96636780980602" lon="12.757945678276785"><ele>9.0</ele><time>2026-04-25T14:58:43Z</time></trkpt><trkpt lat="43.96633512961643" lon="12.758073595829577"><ele>9.0</ele><time>2026-04-25T14:58:44Z</time></trkpt><trkpt lat="43.966314278427255" lon="12.758183436278715"><ele>9.0</ele><time>2026-04-25T14:58:45Z</time></trkpt><trkpt lat="43.96629678821963" lon="12.758279227936153"><ele>9.0</ele><time>2026-04-25T14:58:46Z</time></trkpt><trkpt lat="43.966264368316864" lon="12.758432760730408"><ele>9.0</ele><time>2026-04-25T14:58:48Z</time></trkpt><trkpt lat="43.96624683937909" lon="12.758518237212117"><ele>9.0</ele><time>2026-04-25T14:58:49Z</time></trkpt><trkpt lat="43.96619803471542" lon="12.758652454436598"><ele>9.0</ele><time>2026-04-25T14:58:51Z</time></trkpt><trkpt lat="43.96629618133846" lon="12.758740057126817"><ele>8.8</ele><time>2026-04-25T14:58:53Z</time></trkpt><trkpt lat="43.96642430697142" lon="12.75876122608057"><ele>8.600000000000001</ele><time>2026-04-25T14:58:55Z</time></trkpt><trkpt lat="43.966500953285895" lon="12.758782204133048"><ele>8.4</ele><time>2026-04-25T14:58:56Z</time></trkpt><trkpt lat="43.966575619398746" lon="12.758810548989288"><ele>8.200000000000001</ele><time>2026-04-25T14:58:57Z</time></trkpt><trkpt lat="43.96664075659882" lon="12.758892382211952"><ele>8.0</ele><time>2026-04-25T14:58:59Z</time></trkpt><trkpt lat="43.96663627730704" lon="12.759025812175873"><ele>8.0</ele><time>2026-04-25T14:59:01Z</time></trkpt><trkpt lat="43.966614247571385" lon="12.759129676577128"><ele>8.0</ele><time>2026-04-25T14:59:02Z</time></trkpt><trkpt lat="43.96659003404711" lon="12.759244343917178"><ele>8.0</ele><time>2026-04-25T14:59:03Z</time></trkpt><trkpt lat="43.96657301496603" lon="12.759335032989268"><ele>8.0</ele><time>2026-04-25T14:59:04Z</time></trkpt><trkpt lat="43.96654265980333" lon="12.759470754771014"><ele>8.0</ele><time>2026-04-25T14:59:06Z</time></trkpt><trkpt lat="43.96650592113512" lon="12.759631906378829"><ele>7.499999999999999</ele><time>2026-04-25T14:59:08Z</time></trkpt><trkpt lat="43.96648524658562" lon="12.759742507957563"><ele>7.0</ele><time>2026-04-25T14:59:09Z</time></trkpt><trkpt lat="43.966459601822734" lon="12.759858845651111"><ele>6.5</ele><time>2026-04-25T14:59:10Z</time></trkpt><trkpt lat="43.96642947859115" lon="12.759977586737282"><ele>6.0</ele><time>2026-04-25T14:59:11Z</time></trkpt><trkpt lat="43.9663997229058" lon="12.760079350545722"><ele>5.5</ele><time>2026-04-25T14:59:12Z</time></trkpt><trkpt lat="43.96637159844806" lon="12.76017365399216"><ele>5.0</ele><time>2026-04-25T14:59:13Z</time></trkpt><trkpt lat="43.96631792865545" lon="12.7603336397127"><ele>4.833333333333334</ele><time>2026-04-25T14:59:15Z</time></trkpt><trkpt lat="43.96628535926546" lon="12.76042811393743"><ele>4.666666666666667</ele><time>2026-04-25T14:59:16Z</time></trkpt><trkpt lat="43.96625469987398" lon="12.760529620238067"><ele>4.5</ele><time>2026-04-25T14:59:17Z</time></trkpt><trkpt lat="43.96622545093851" lon="12.760630896496705"><ele>4.333333333333333</ele><time>2026-04-25T14:59:18Z</time></trkpt><trkpt lat="43.96619620450416" lon="12.760731961642934"><ele>4.166666666666666</ele><time>2026-04-25T14:59:19Z</time></trkpt><trkpt lat="43.96616840345065" lon="12.760838969253891"><ele>4.0</ele><time>2026-04-25T14:59:20Z</time></trkpt><trkpt lat="43.96613259255621" lon="12.76098342017581"><ele>4.6</ele><time>2026-04-25T14:59:22Z</time></trkpt><trkpt lat="43.966087654054874" lon="12.761129906037443"><ele>5.2</ele><time>2026-04-25T14:59:24Z</time></trkpt><trkpt lat="43.96604569704288" lon="12.76127196469346"><ele>5.799999999999999</ele><time>2026-04-25T14:59:26Z</time></trkpt><trkpt lat="43.96601593635471" lon="12.761388015772493"><ele>6.3999999999999995</ele><time>2026-04-25T14:59:28Z</time></trkpt><trkpt lat="43.9659791236026" lon="12.761491996982759"><ele>7.0</ele><time>2026-04-25T14:59:31Z</time></trkpt><trkpt lat="43.96596264071349" lon="12.76158118203306"><ele>7.0</ele><time>2026-04-25T14:59:34Z</time></trkpt><trkpt lat="43.96593497479454" lon="12.761680634702401"><ele>6.999999999999999</ele><time>2026-04-25T14:59:36Z</time></trkpt><trkpt lat="43.96589198420859" lon="12.761835175991404"><ele>6.999999999999999</ele><time>2026-04-25T14:59:38Z</time></trkpt><trkpt lat="43.96584945168189" lon="12.76198806740466"><ele>7.0</ele><time>2026-04-25T14:59:40Z</time></trkpt><trkpt lat="43.965821210643014" lon="12.762099490167175"><ele>7.0</ele><time>2026-04-25T14:59:42Z</time></trkpt><trkpt lat="43.966171872898244" lon="12.762384031102586"><ele>6.333333333333334</ele><time>2026-04-25T14:59:44Z</time></trkpt><trkpt lat="43.96621319356308" lon="12.76249448893078"><ele>5.666666666666667</ele><time>2026-04-25T14:59:46Z</time></trkpt><trkpt lat="43.966221565175154" lon="12.762605342324653"><ele>5.0</ele><time>2026-04-25T14:59:48Z</time></trkpt><trkpt lat="43.966213344621835" lon="12.762702495888966"><ele>4.333333333333334</ele><time>2026-04-25T14:59:50Z</time></trkpt><trkpt lat="43.966195760453544" lon="12.76282173746197"><ele>3.666666666666667</ele><time>2026-04-25T14:59:52Z</time></trkpt><trkpt lat="43.96618250733451" lon="12.762910050977144"><ele>3.0</ele><time>2026-04-25T14:59:54Z</time></trkpt><trkpt lat="43.966179285437136" lon="12.763022828879938"><ele>2.8333333333333335</ele><time>2026-04-25T14:59:57Z</time></trkpt><trkpt lat="43.96616920651277" lon="12.763110494119498"><ele>2.6666666666666665</ele><time>2026-04-25T14:59:59Z</time></trkpt><trkpt lat="43.96615861409764" lon="12.763211631323204"><ele>2.5</ele><time>2026-04-25T15:00:02Z</time></trkpt><trkpt lat="43.96614749440661" lon="12.76332436902161"><ele>2.333333333333333</ele><time>2026-04-25T15:00:06Z</time></trkpt><trkpt lat="43.96615319091095" lon="12.763438354996104"><ele>2.1666666666666665</ele><time>2026-04-25T15:00:09Z</time></trkpt><trkpt lat="43.96615161858075" lon="12.763342116271607"><ele>2.0</ele><time>2026-04-25T15:00:29Z</time></trkpt><trkpt lat="43.966150751283884" lon="12.76322186076741"><ele>2.0</ele><time>2026-04-25T15:00:32Z</time></trkpt><trkpt lat="43.96615524201004" lon="12.763129578239901"><ele>1.9999999999999998</ele><time>2026-04-25T15:00:34Z</time></trkpt><trkpt lat="43.96618127361808" lon="12.763011861078876"><ele>2.0</ele><time>2026-04-25T15:00:37Z</time></trkpt><trkpt lat="43.966189876103904" lon="12.762919262839596"><ele>2.0</ele><time>2026-04-25T15:00:40Z</time></trkpt><trkpt lat="43.96619179812875" lon="12.763013294338554"><ele>1.9999999999999998</ele><time>2026-04-25T15:04:39Z</time></trkpt><trkpt lat="43.96615928254732" lon="12.76309102081222"><ele>2.0</ele><time>2026-04-25T15:04:44Z</time></trkpt><trkpt lat="43.966143741325844" lon="12.763188421185584"><ele>2.0</ele><time>2026-04-25T15:04:49Z</time></trkpt><trkpt lat="43.96614174683976" lon="12.763284825641074"><ele>2.0</ele><time>2026-04-25T15:04:55Z</time></trkpt><trkpt lat="43.966132239814044" lon="12.763382575620135"><ele>1.9999999999999998</ele><time>2026-04-25T15:05:02Z</time></trkpt><trkpt lat="43.9661528949185" lon="12.763477077161207"><ele>2.0</ele><time>2026-04-25T15:05:09Z</time></trkpt><trkpt lat="43.96616330519412" lon="12.763564014003274"><ele>2.0</ele><time>2026-04-25T15:05:14Z</time></trkpt><trkpt lat="43.966226617918046" lon="12.763569032693324"><ele>1.9999999999999998</ele><time>2026-04-25T15:05:19Z</time></trkpt><trkpt lat="43.96624245960752" lon="12.763655786074715"><ele>2.0</ele><time>2026-04-25T15:05:26Z</time></trkpt><trkpt lat="43.96627016383681" lon="12.763735027595956"><ele>2.0</ele><time>2026-04-25T15:05:32Z</time></trkpt><trkpt lat="43.96632504732304" lon="12.763782035712644"><ele>1.857142857142857</ele><time>2026-04-25T15:05:39Z</time></trkpt><trkpt lat="43.96636935168914" lon="12.763854191452486"><ele>1.714285714285714</ele><time>2026-04-25T15:05:46Z</time></trkpt><trkpt lat="43.96641975542133" lon="12.763910781924551"><ele>1.5714285714285714</ele><time>2026-04-25T15:05:55Z</time></trkpt><trkpt lat="43.96645630409952" lon="12.763984899723651"><ele>1.4285714285714284</ele><time>2026-04-25T15:06:02Z</time></trkpt><trkpt lat="43.96650215824024" lon="12.764053449136613"><ele>1.2857142857142856</ele><time>2026-04-25T15:06:09Z</time></trkpt><trkpt lat="43.96657541841363" lon="12.764065429111229"><ele>1.1428571428571428</ele><time>2026-04-25T15:06:14Z</time></trkpt><trkpt lat="43.9665399088618" lon="12.763993089660866"><ele>1.0</ele><time>2026-04-25T15:06:26Z</time></trkpt><trkpt lat="43.966488767609725" lon="12.763939745124713"><ele>1.0</ele><time>2026-04-25T15:06:32Z</time></trkpt><trkpt lat="43.966438734362036" lon="12.76387514165125"><ele>1.0</ele><time>2026-04-25T15:06:39Z</time></trkpt><trkpt lat="43.96638471158237" lon="12.76382729466069"><ele>1.0</ele><time>2026-04-25T15:06:47Z</time></trkpt></trkseg></trk></gpx>